<?xml version="1.0" encoding="UTF-8" standalone="no" ?>
<gpx xmlns="http://www.topografix.com/GPX/1/1" xmlns:xsi="http://www.w3.org/2001/XMLSchema-instance" xsi:schemaLocation="http://www.topografix.com/GPX/1/1 http://www.topografix.com/GPX/1/1/gpx.xsd" version="1.1" creator="VisuGPX - https://www.visugpx.com">
  <metadata>
    <name>Hailles</name>
    <desc><![CDATA[29 pax
Raccourci pour canicule]]></desc>
  </metadata>
  <trk>
    <name><![CDATA[Hailles_1]]></name>
    <trkseg>
      <trkpt lat="49.80499" lon="2.43875">
        <ele>36.7</ele>
        <time>2023-08-23T07:00:58Z</time>
      </trkpt>
      <trkpt lat="49.80509" lon="2.43886">
        <ele>36.7</ele>
        <time>2023-08-23T07:00:59Z</time>
      </trkpt>
      <trkpt lat="49.80522" lon="2.43898">
        <ele>36.8</ele>
        <time>2023-08-23T07:01:00Z</time>
      </trkpt>
      <trkpt lat="49.80533" lon="2.43909">
        <ele>36.6</ele>
        <time>2023-08-23T07:01:01Z</time>
      </trkpt>
      <trkpt lat="49.8054" lon="2.43915">
        <ele>36.5</ele>
        <time>2023-08-23T07:01:02Z</time>
      </trkpt>
      <trkpt lat="49.80542" lon="2.43916">
        <ele>36.4</ele>
        <time>2023-08-23T07:01:03Z</time>
      </trkpt>
      <trkpt lat="49.80549" lon="2.43922">
        <ele>36.3</ele>
        <time>2023-08-23T07:01:05Z</time>
      </trkpt>
      <trkpt lat="49.80553" lon="2.43925">
        <ele>36.2</ele>
        <time>2023-08-23T07:01:06Z</time>
      </trkpt>
      <trkpt lat="49.80557" lon="2.4393">
        <ele>36.1</ele>
        <time>2023-08-23T07:01:07Z</time>
      </trkpt>
      <trkpt lat="49.80559" lon="2.43933">
        <ele>36</ele>
        <time>2023-08-23T07:01:08Z</time>
      </trkpt>
      <trkpt lat="49.80559" lon="2.43935">
        <ele>36</ele>
        <time>2023-08-23T07:01:10Z</time>
      </trkpt>
      <trkpt lat="49.80557" lon="2.43935">
        <ele>36</ele>
        <time>2023-08-23T07:01:11Z</time>
      </trkpt>
      <trkpt lat="49.80555" lon="2.43935">
        <ele>36</ele>
        <time>2023-08-23T07:01:12Z</time>
      </trkpt>
      <trkpt lat="49.80554" lon="2.43934">
        <ele>35.9</ele>
        <time>2023-08-23T07:01:13Z</time>
      </trkpt>
      <trkpt lat="49.80555" lon="2.43934">
        <ele>35.9</ele>
        <time>2023-08-23T07:01:14Z</time>
      </trkpt>
      <trkpt lat="49.80556" lon="2.43934">
        <ele>35.9</ele>
        <time>2023-08-23T07:01:15Z</time>
      </trkpt>
      <trkpt lat="49.80558" lon="2.43934">
        <ele>35.9</ele>
        <time>2023-08-23T07:01:16Z</time>
      </trkpt>
      <trkpt lat="49.8056" lon="2.43934">
        <ele>35.8</ele>
        <time>2023-08-23T07:01:17Z</time>
      </trkpt>
      <trkpt lat="49.80562" lon="2.43934">
        <ele>35.8</ele>
        <time>2023-08-23T07:01:19Z</time>
      </trkpt>
      <trkpt lat="49.80563" lon="2.43934">
        <ele>35.8</ele>
        <time>2023-08-23T07:01:20Z</time>
      </trkpt>
      <trkpt lat="49.80565" lon="2.43934">
        <ele>35.8</ele>
        <time>2023-08-23T07:01:21Z</time>
      </trkpt>
      <trkpt lat="49.80566" lon="2.43934">
        <ele>35.7</ele>
        <time>2023-08-23T07:01:22Z</time>
      </trkpt>
      <trkpt lat="49.80567" lon="2.43934">
        <ele>35.7</ele>
        <time>2023-08-23T07:01:24Z</time>
      </trkpt>
      <trkpt lat="49.80567" lon="2.43935">
        <ele>35.7</ele>
        <time>2023-08-23T07:01:25Z</time>
      </trkpt>
      <trkpt lat="49.80568" lon="2.43935">
        <ele>35.7</ele>
        <time>2023-08-23T07:01:26Z</time>
      </trkpt>
      <trkpt lat="49.80569" lon="2.43935">
        <ele>35.7</ele>
        <time>2023-08-23T07:01:27Z</time>
      </trkpt>
      <trkpt lat="49.8057" lon="2.43936">
        <ele>35.7</ele>
        <time>2023-08-23T07:01:28Z</time>
      </trkpt>
      <trkpt lat="49.80571" lon="2.43936">
        <ele>35.7</ele>
        <time>2023-08-23T07:01:30Z</time>
      </trkpt>
      <trkpt lat="49.80572" lon="2.43937">
        <ele>35.6</ele>
        <time>2023-08-23T07:01:31Z</time>
      </trkpt>
      <trkpt lat="49.80573" lon="2.43938">
        <ele>35.6</ele>
        <time>2023-08-23T07:01:33Z</time>
      </trkpt>
      <trkpt lat="49.80574" lon="2.43938">
        <ele>35.6</ele>
        <time>2023-08-23T07:01:34Z</time>
      </trkpt>
      <trkpt lat="49.80575" lon="2.43939">
        <ele>35.6</ele>
        <time>2023-08-23T07:01:35Z</time>
      </trkpt>
      <trkpt lat="49.80576" lon="2.4394">
        <ele>35.6</ele>
        <time>2023-08-23T07:01:36Z</time>
      </trkpt>
      <trkpt lat="49.80577" lon="2.4394">
        <ele>35.6</ele>
        <time>2023-08-23T07:01:37Z</time>
      </trkpt>
      <trkpt lat="49.80578" lon="2.43941">
        <ele>35.6</ele>
        <time>2023-08-23T07:01:38Z</time>
      </trkpt>
      <trkpt lat="49.80578" lon="2.43941">
        <ele>35.5</ele>
        <time>2023-08-23T07:01:39Z</time>
      </trkpt>
      <trkpt lat="49.80579" lon="2.43942">
        <ele>35.5</ele>
        <time>2023-08-23T07:01:41Z</time>
      </trkpt>
      <trkpt lat="49.8058" lon="2.43942">
        <ele>35.5</ele>
        <time>2023-08-23T07:01:42Z</time>
      </trkpt>
      <trkpt lat="49.80581" lon="2.43942">
        <ele>35.5</ele>
        <time>2023-08-23T07:01:43Z</time>
      </trkpt>
      <trkpt lat="49.80582" lon="2.43943">
        <ele>35.5</ele>
        <time>2023-08-23T07:01:44Z</time>
      </trkpt>
      <trkpt lat="49.80582" lon="2.43943">
        <ele>35.5</ele>
        <time>2023-08-23T07:01:45Z</time>
      </trkpt>
      <trkpt lat="49.80583" lon="2.43944">
        <ele>35.5</ele>
        <time>2023-08-23T07:01:46Z</time>
      </trkpt>
      <trkpt lat="49.80584" lon="2.43944">
        <ele>35.5</ele>
        <time>2023-08-23T07:01:47Z</time>
      </trkpt>
      <trkpt lat="49.80584" lon="2.43945">
        <ele>35.5</ele>
        <time>2023-08-23T07:01:48Z</time>
      </trkpt>
      <trkpt lat="49.80585" lon="2.43945">
        <ele>35.5</ele>
        <time>2023-08-23T07:01:49Z</time>
      </trkpt>
      <trkpt lat="49.80585" lon="2.43945">
        <ele>35.4</ele>
        <time>2023-08-23T07:01:51Z</time>
      </trkpt>
      <trkpt lat="49.80587" lon="2.43946">
        <ele>35.4</ele>
        <time>2023-08-23T07:01:52Z</time>
      </trkpt>
      <trkpt lat="49.80588" lon="2.43946">
        <ele>35.4</ele>
        <time>2023-08-23T07:01:53Z</time>
      </trkpt>
      <trkpt lat="49.80589" lon="2.43947">
        <ele>35.4</ele>
        <time>2023-08-23T07:01:54Z</time>
      </trkpt>
      <trkpt lat="49.8059" lon="2.43947">
        <ele>35.4</ele>
        <time>2023-08-23T07:01:55Z</time>
      </trkpt>
      <trkpt lat="49.80593" lon="2.43948">
        <ele>35.4</ele>
        <time>2023-08-23T07:01:56Z</time>
      </trkpt>
      <trkpt lat="49.80594" lon="2.43948">
        <ele>35.3</ele>
        <time>2023-08-23T07:01:57Z</time>
      </trkpt>
      <trkpt lat="49.80597" lon="2.43949">
        <ele>35.3</ele>
        <time>2023-08-23T07:01:58Z</time>
      </trkpt>
      <trkpt lat="49.80599" lon="2.43949">
        <ele>35.3</ele>
        <time>2023-08-23T07:02:00Z</time>
      </trkpt>
      <trkpt lat="49.806" lon="2.4395">
        <ele>35.3</ele>
        <time>2023-08-23T07:02:01Z</time>
      </trkpt>
      <trkpt lat="49.80602" lon="2.4395">
        <ele>35.2</ele>
        <time>2023-08-23T07:02:02Z</time>
      </trkpt>
      <trkpt lat="49.80605" lon="2.43952">
        <ele>35.1</ele>
        <time>2023-08-23T07:02:03Z</time>
      </trkpt>
      <trkpt lat="49.80606" lon="2.43953">
        <ele>35.1</ele>
        <time>2023-08-23T07:02:04Z</time>
      </trkpt>
      <trkpt lat="49.80609" lon="2.43956">
        <ele>35</ele>
        <time>2023-08-23T07:02:05Z</time>
      </trkpt>
      <trkpt lat="49.8061" lon="2.43957">
        <ele>35</ele>
        <time>2023-08-23T07:02:06Z</time>
      </trkpt>
      <trkpt lat="49.80613" lon="2.4396">
        <ele>34.9</ele>
        <time>2023-08-23T07:02:08Z</time>
      </trkpt>
      <trkpt lat="49.80615" lon="2.43962">
        <ele>34.9</ele>
        <time>2023-08-23T07:02:10Z</time>
      </trkpt>
      <trkpt lat="49.80616" lon="2.43963">
        <ele>34.9</ele>
        <time>2023-08-23T07:02:11Z</time>
      </trkpt>
      <trkpt lat="49.80618" lon="2.43966">
        <ele>34.8</ele>
        <time>2023-08-23T07:02:12Z</time>
      </trkpt>
      <trkpt lat="49.80618" lon="2.43967">
        <ele>34.8</ele>
        <time>2023-08-23T07:02:13Z</time>
      </trkpt>
      <trkpt lat="49.80618" lon="2.43971">
        <ele>34.8</ele>
        <time>2023-08-23T07:02:14Z</time>
      </trkpt>
      <trkpt lat="49.80618" lon="2.43972">
        <ele>34.7</ele>
        <time>2023-08-23T07:02:15Z</time>
      </trkpt>
      <trkpt lat="49.80618" lon="2.43973">
        <ele>34.7</ele>
        <time>2023-08-23T07:02:16Z</time>
      </trkpt>
      <trkpt lat="49.80619" lon="2.43975">
        <ele>34.7</ele>
        <time>2023-08-23T07:02:18Z</time>
      </trkpt>
      <trkpt lat="49.80619" lon="2.43977">
        <ele>34.7</ele>
        <time>2023-08-23T07:02:19Z</time>
      </trkpt>
      <trkpt lat="49.8062" lon="2.4398">
        <ele>34.6</ele>
        <time>2023-08-23T07:02:20Z</time>
      </trkpt>
      <trkpt lat="49.8062" lon="2.43982">
        <ele>34.6</ele>
        <time>2023-08-23T07:02:21Z</time>
      </trkpt>
      <trkpt lat="49.8062" lon="2.43985">
        <ele>34.6</ele>
        <time>2023-08-23T07:02:23Z</time>
      </trkpt>
      <trkpt lat="49.8062" lon="2.43987">
        <ele>34.6</ele>
        <time>2023-08-23T07:02:24Z</time>
      </trkpt>
      <trkpt lat="49.8062" lon="2.43989">
        <ele>34.6</ele>
        <time>2023-08-23T07:02:25Z</time>
      </trkpt>
      <trkpt lat="49.80621" lon="2.43992">
        <ele>34.5</ele>
        <time>2023-08-23T07:02:26Z</time>
      </trkpt>
      <trkpt lat="49.80621" lon="2.43995">
        <ele>34.5</ele>
        <time>2023-08-23T07:02:27Z</time>
      </trkpt>
      <trkpt lat="49.80621" lon="2.43997">
        <ele>34.5</ele>
        <time>2023-08-23T07:02:28Z</time>
      </trkpt>
      <trkpt lat="49.80622" lon="2.43999">
        <ele>34.5</ele>
        <time>2023-08-23T07:02:29Z</time>
      </trkpt>
      <trkpt lat="49.80622" lon="2.44002">
        <ele>34.4</ele>
        <time>2023-08-23T07:02:30Z</time>
      </trkpt>
      <trkpt lat="49.80623" lon="2.44005">
        <ele>34.4</ele>
        <time>2023-08-23T07:02:31Z</time>
      </trkpt>
      <trkpt lat="49.80623" lon="2.44007">
        <ele>34.4</ele>
        <time>2023-08-23T07:02:33Z</time>
      </trkpt>
      <trkpt lat="49.80624" lon="2.44009">
        <ele>34.4</ele>
        <time>2023-08-23T07:02:34Z</time>
      </trkpt>
      <trkpt lat="49.80624" lon="2.44012">
        <ele>34.4</ele>
        <time>2023-08-23T07:02:35Z</time>
      </trkpt>
      <trkpt lat="49.80624" lon="2.44016">
        <ele>34.3</ele>
        <time>2023-08-23T07:02:37Z</time>
      </trkpt>
      <trkpt lat="49.80624" lon="2.44018">
        <ele>34.3</ele>
        <time>2023-08-23T07:02:38Z</time>
      </trkpt>
      <trkpt lat="49.80624" lon="2.44023">
        <ele>34.3</ele>
        <time>2023-08-23T07:02:39Z</time>
      </trkpt>
      <trkpt lat="49.80624" lon="2.44024">
        <ele>34.3</ele>
        <time>2023-08-23T07:02:40Z</time>
      </trkpt>
      <trkpt lat="49.80624" lon="2.44029">
        <ele>34.3</ele>
        <time>2023-08-23T07:02:42Z</time>
      </trkpt>
      <trkpt lat="49.80624" lon="2.4403">
        <ele>34.3</ele>
        <time>2023-08-23T07:02:43Z</time>
      </trkpt>
      <trkpt lat="49.80624" lon="2.44033">
        <ele>34.3</ele>
        <time>2023-08-23T07:02:44Z</time>
      </trkpt>
      <trkpt lat="49.80625" lon="2.44036">
        <ele>34.2</ele>
        <time>2023-08-23T07:02:45Z</time>
      </trkpt>
      <trkpt lat="49.80625" lon="2.44039">
        <ele>34.2</ele>
        <time>2023-08-23T07:02:46Z</time>
      </trkpt>
      <trkpt lat="49.80625" lon="2.4404">
        <ele>34.2</ele>
        <time>2023-08-23T07:02:47Z</time>
      </trkpt>
      <trkpt lat="49.80625" lon="2.44041">
        <ele>34.2</ele>
        <time>2023-08-23T07:02:48Z</time>
      </trkpt>
      <trkpt lat="49.80625" lon="2.44044">
        <ele>34.2</ele>
        <time>2023-08-23T07:02:49Z</time>
      </trkpt>
      <trkpt lat="49.80625" lon="2.44046">
        <ele>34.2</ele>
        <time>2023-08-23T07:02:50Z</time>
      </trkpt>
      <trkpt lat="49.80624" lon="2.44049">
        <ele>34.2</ele>
        <time>2023-08-23T07:02:52Z</time>
      </trkpt>
      <trkpt lat="49.80624" lon="2.4405">
        <ele>34.2</ele>
        <time>2023-08-23T07:02:53Z</time>
      </trkpt>
      <trkpt lat="49.80624" lon="2.44054">
        <ele>34.2</ele>
        <time>2023-08-23T07:02:54Z</time>
      </trkpt>
      <trkpt lat="49.80624" lon="2.44055">
        <ele>34.2</ele>
        <time>2023-08-23T07:02:55Z</time>
      </trkpt>
      <trkpt lat="49.80623" lon="2.44056">
        <ele>34.2</ele>
        <time>2023-08-23T07:02:56Z</time>
      </trkpt>
      <trkpt lat="49.80623" lon="2.44058">
        <ele>34.2</ele>
        <time>2023-08-23T07:02:58Z</time>
      </trkpt>
      <trkpt lat="49.80623" lon="2.44061">
        <ele>34.2</ele>
        <time>2023-08-23T07:02:59Z</time>
      </trkpt>
      <trkpt lat="49.80623" lon="2.44062">
        <ele>34.2</ele>
        <time>2023-08-23T07:03:00Z</time>
      </trkpt>
      <trkpt lat="49.80622" lon="2.44064">
        <ele>34.2</ele>
        <time>2023-08-23T07:03:01Z</time>
      </trkpt>
      <trkpt lat="49.80622" lon="2.44067">
        <ele>34.2</ele>
        <time>2023-08-23T07:03:03Z</time>
      </trkpt>
      <trkpt lat="49.80621" lon="2.4407">
        <ele>34.2</ele>
        <time>2023-08-23T07:03:04Z</time>
      </trkpt>
      <trkpt lat="49.80621" lon="2.44071">
        <ele>34.2</ele>
        <time>2023-08-23T07:03:05Z</time>
      </trkpt>
      <trkpt lat="49.8062" lon="2.44072">
        <ele>34.2</ele>
        <time>2023-08-23T07:03:06Z</time>
      </trkpt>
      <trkpt lat="49.8062" lon="2.44074">
        <ele>34.2</ele>
        <time>2023-08-23T07:03:07Z</time>
      </trkpt>
      <trkpt lat="49.8062" lon="2.44076">
        <ele>34.2</ele>
        <time>2023-08-23T07:03:08Z</time>
      </trkpt>
      <trkpt lat="49.80619" lon="2.44078">
        <ele>34.2</ele>
        <time>2023-08-23T07:03:09Z</time>
      </trkpt>
      <trkpt lat="49.80619" lon="2.4408">
        <ele>34.2</ele>
        <time>2023-08-23T07:03:10Z</time>
      </trkpt>
      <trkpt lat="49.80619" lon="2.44082">
        <ele>34.2</ele>
        <time>2023-08-23T07:03:11Z</time>
      </trkpt>
      <trkpt lat="49.80619" lon="2.44085">
        <ele>34.2</ele>
        <time>2023-08-23T07:03:12Z</time>
      </trkpt>
      <trkpt lat="49.80618" lon="2.44087">
        <ele>34.2</ele>
        <time>2023-08-23T07:03:13Z</time>
      </trkpt>
      <trkpt lat="49.80618" lon="2.44089">
        <ele>34.3</ele>
        <time>2023-08-23T07:03:14Z</time>
      </trkpt>
      <trkpt lat="49.80618" lon="2.44092">
        <ele>34.3</ele>
        <time>2023-08-23T07:03:15Z</time>
      </trkpt>
      <trkpt lat="49.80617" lon="2.44093">
        <ele>34.3</ele>
        <time>2023-08-23T07:03:17Z</time>
      </trkpt>
      <trkpt lat="49.80617" lon="2.44095">
        <ele>34.3</ele>
        <time>2023-08-23T07:03:18Z</time>
      </trkpt>
      <trkpt lat="49.80617" lon="2.44098">
        <ele>34.3</ele>
        <time>2023-08-23T07:03:19Z</time>
      </trkpt>
      <trkpt lat="49.80617" lon="2.44099">
        <ele>34.3</ele>
        <time>2023-08-23T07:03:20Z</time>
      </trkpt>
      <trkpt lat="49.80618" lon="2.44101">
        <ele>34.3</ele>
        <time>2023-08-23T07:03:21Z</time>
      </trkpt>
      <trkpt lat="49.80618" lon="2.44104">
        <ele>34.3</ele>
        <time>2023-08-23T07:03:22Z</time>
      </trkpt>
      <trkpt lat="49.80619" lon="2.44105">
        <ele>34.3</ele>
        <time>2023-08-23T07:03:23Z</time>
      </trkpt>
      <trkpt lat="49.8062" lon="2.44106">
        <ele>34.3</ele>
        <time>2023-08-23T07:03:24Z</time>
      </trkpt>
      <trkpt lat="49.8062" lon="2.44108">
        <ele>34.3</ele>
        <time>2023-08-23T07:03:25Z</time>
      </trkpt>
      <trkpt lat="49.80622" lon="2.44109">
        <ele>34.3</ele>
        <time>2023-08-23T07:03:27Z</time>
      </trkpt>
      <trkpt lat="49.80624" lon="2.44109">
        <ele>34.3</ele>
        <time>2023-08-23T07:03:28Z</time>
      </trkpt>
      <trkpt lat="49.80625" lon="2.4411">
        <ele>34.3</ele>
        <time>2023-08-23T07:03:29Z</time>
      </trkpt>
      <trkpt lat="49.80626" lon="2.4411">
        <ele>34.3</ele>
        <time>2023-08-23T07:03:30Z</time>
      </trkpt>
      <trkpt lat="49.80628" lon="2.4411">
        <ele>34.3</ele>
        <time>2023-08-23T07:03:31Z</time>
      </trkpt>
      <trkpt lat="49.8063" lon="2.4411">
        <ele>34.2</ele>
        <time>2023-08-23T07:03:33Z</time>
      </trkpt>
      <trkpt lat="49.80631" lon="2.4411">
        <ele>34.2</ele>
        <time>2023-08-23T07:03:34Z</time>
      </trkpt>
      <trkpt lat="49.80634" lon="2.4411">
        <ele>34.2</ele>
        <time>2023-08-23T07:03:35Z</time>
      </trkpt>
      <trkpt lat="49.80635" lon="2.4411">
        <ele>34.2</ele>
        <time>2023-08-23T07:03:36Z</time>
      </trkpt>
      <trkpt lat="49.80635" lon="2.4411">
        <ele>34.2</ele>
        <time>2023-08-23T07:03:37Z</time>
      </trkpt>
      <trkpt lat="49.80638" lon="2.4411">
        <ele>34.2</ele>
        <time>2023-08-23T07:03:39Z</time>
      </trkpt>
      <trkpt lat="49.80639" lon="2.4411">
        <ele>34.2</ele>
        <time>2023-08-23T07:03:40Z</time>
      </trkpt>
      <trkpt lat="49.80641" lon="2.44111">
        <ele>34.1</ele>
        <time>2023-08-23T07:03:42Z</time>
      </trkpt>
      <trkpt lat="49.80642" lon="2.44111">
        <ele>34.1</ele>
        <time>2023-08-23T07:03:43Z</time>
      </trkpt>
      <trkpt lat="49.80644" lon="2.44111">
        <ele>34.1</ele>
        <time>2023-08-23T07:03:44Z</time>
      </trkpt>
      <trkpt lat="49.80645" lon="2.44112">
        <ele>34.1</ele>
        <time>2023-08-23T07:03:45Z</time>
      </trkpt>
      <trkpt lat="49.80646" lon="2.44112">
        <ele>34.1</ele>
        <time>2023-08-23T07:03:46Z</time>
      </trkpt>
      <trkpt lat="49.80648" lon="2.44112">
        <ele>34.1</ele>
        <time>2023-08-23T07:03:48Z</time>
      </trkpt>
      <trkpt lat="49.8065" lon="2.44113">
        <ele>34.1</ele>
        <time>2023-08-23T07:03:49Z</time>
      </trkpt>
      <trkpt lat="49.80651" lon="2.44113">
        <ele>34.1</ele>
        <time>2023-08-23T07:03:50Z</time>
      </trkpt>
      <trkpt lat="49.80653" lon="2.44113">
        <ele>34.1</ele>
        <time>2023-08-23T07:03:51Z</time>
      </trkpt>
      <trkpt lat="49.80654" lon="2.44113">
        <ele>34.1</ele>
        <time>2023-08-23T07:03:53Z</time>
      </trkpt>
      <trkpt lat="49.80656" lon="2.44114">
        <ele>34.1</ele>
        <time>2023-08-23T07:03:54Z</time>
      </trkpt>
      <trkpt lat="49.80657" lon="2.44114">
        <ele>34.1</ele>
        <time>2023-08-23T07:03:55Z</time>
      </trkpt>
      <trkpt lat="49.80658" lon="2.44115">
        <ele>34.1</ele>
        <time>2023-08-23T07:03:56Z</time>
      </trkpt>
      <trkpt lat="49.8066" lon="2.44116">
        <ele>34.1</ele>
        <time>2023-08-23T07:03:57Z</time>
      </trkpt>
      <trkpt lat="49.80661" lon="2.44118">
        <ele>34.1</ele>
        <time>2023-08-23T07:03:59Z</time>
      </trkpt>
      <trkpt lat="49.80662" lon="2.44122">
        <ele>34.1</ele>
        <time>2023-08-23T07:04:00Z</time>
      </trkpt>
      <trkpt lat="49.80662" lon="2.44125">
        <ele>33.9</ele>
        <time>2023-08-23T07:04:02Z</time>
      </trkpt>
      <trkpt lat="49.80662" lon="2.44128">
        <ele>33.9</ele>
        <time>2023-08-23T07:04:03Z</time>
      </trkpt>
      <trkpt lat="49.80661" lon="2.4413">
        <ele>33.9</ele>
        <time>2023-08-23T07:04:04Z</time>
      </trkpt>
      <trkpt lat="49.80661" lon="2.44132">
        <ele>33.9</ele>
        <time>2023-08-23T07:04:05Z</time>
      </trkpt>
      <trkpt lat="49.80661" lon="2.44135">
        <ele>33.9</ele>
        <time>2023-08-23T07:04:06Z</time>
      </trkpt>
      <trkpt lat="49.8066" lon="2.44137">
        <ele>33.9</ele>
        <time>2023-08-23T07:04:08Z</time>
      </trkpt>
      <trkpt lat="49.8066" lon="2.44139">
        <ele>33.8</ele>
        <time>2023-08-23T07:04:09Z</time>
      </trkpt>
      <trkpt lat="49.8066" lon="2.44142">
        <ele>33.8</ele>
        <time>2023-08-23T07:04:10Z</time>
      </trkpt>
      <trkpt lat="49.80659" lon="2.44144">
        <ele>33.8</ele>
        <time>2023-08-23T07:04:11Z</time>
      </trkpt>
      <trkpt lat="49.80659" lon="2.44146">
        <ele>33.8</ele>
        <time>2023-08-23T07:04:12Z</time>
      </trkpt>
      <trkpt lat="49.80658" lon="2.44149">
        <ele>33.8</ele>
        <time>2023-08-23T07:04:13Z</time>
      </trkpt>
      <trkpt lat="49.80658" lon="2.44151">
        <ele>33.8</ele>
        <time>2023-08-23T07:04:14Z</time>
      </trkpt>
      <trkpt lat="49.80658" lon="2.44154">
        <ele>33.7</ele>
        <time>2023-08-23T07:04:15Z</time>
      </trkpt>
      <trkpt lat="49.80658" lon="2.44159">
        <ele>33.7</ele>
        <time>2023-08-23T07:04:17Z</time>
      </trkpt>
      <trkpt lat="49.80658" lon="2.44161">
        <ele>33.7</ele>
        <time>2023-08-23T07:04:18Z</time>
      </trkpt>
      <trkpt lat="49.80658" lon="2.44165">
        <ele>33.7</ele>
        <time>2023-08-23T07:04:19Z</time>
      </trkpt>
      <trkpt lat="49.80658" lon="2.44167">
        <ele>33.7</ele>
        <time>2023-08-23T07:04:20Z</time>
      </trkpt>
      <trkpt lat="49.80658" lon="2.4417">
        <ele>33.7</ele>
        <time>2023-08-23T07:04:21Z</time>
      </trkpt>
      <trkpt lat="49.80658" lon="2.44172">
        <ele>33.7</ele>
        <time>2023-08-23T07:04:22Z</time>
      </trkpt>
      <trkpt lat="49.80657" lon="2.44175">
        <ele>33.7</ele>
        <time>2023-08-23T07:04:23Z</time>
      </trkpt>
      <trkpt lat="49.80657" lon="2.44177">
        <ele>33.7</ele>
        <time>2023-08-23T07:04:24Z</time>
      </trkpt>
      <trkpt lat="49.80657" lon="2.44179">
        <ele>33.7</ele>
        <time>2023-08-23T07:04:26Z</time>
      </trkpt>
      <trkpt lat="49.80657" lon="2.44182">
        <ele>33.7</ele>
        <time>2023-08-23T07:04:27Z</time>
      </trkpt>
      <trkpt lat="49.80656" lon="2.44184">
        <ele>33.7</ele>
        <time>2023-08-23T07:04:28Z</time>
      </trkpt>
      <trkpt lat="49.80656" lon="2.44187">
        <ele>33.7</ele>
        <time>2023-08-23T07:04:29Z</time>
      </trkpt>
      <trkpt lat="49.80656" lon="2.44189">
        <ele>33.7</ele>
        <time>2023-08-23T07:04:30Z</time>
      </trkpt>
      <trkpt lat="49.80656" lon="2.44191">
        <ele>33.7</ele>
        <time>2023-08-23T07:04:31Z</time>
      </trkpt>
      <trkpt lat="49.80655" lon="2.44194">
        <ele>33.7</ele>
        <time>2023-08-23T07:04:33Z</time>
      </trkpt>
      <trkpt lat="49.80655" lon="2.44196">
        <ele>33.7</ele>
        <time>2023-08-23T07:04:34Z</time>
      </trkpt>
      <trkpt lat="49.80655" lon="2.44198">
        <ele>33.7</ele>
        <time>2023-08-23T07:04:35Z</time>
      </trkpt>
      <trkpt lat="49.80655" lon="2.442">
        <ele>33.7</ele>
        <time>2023-08-23T07:04:36Z</time>
      </trkpt>
      <trkpt lat="49.80654" lon="2.44204">
        <ele>33.7</ele>
        <time>2023-08-23T07:04:37Z</time>
      </trkpt>
      <trkpt lat="49.80654" lon="2.44205">
        <ele>33.7</ele>
        <time>2023-08-23T07:04:38Z</time>
      </trkpt>
      <trkpt lat="49.80654" lon="2.44206">
        <ele>33.7</ele>
        <time>2023-08-23T07:04:39Z</time>
      </trkpt>
      <trkpt lat="49.80654" lon="2.44208">
        <ele>33.7</ele>
        <time>2023-08-23T07:04:40Z</time>
      </trkpt>
      <trkpt lat="49.80653" lon="2.4421">
        <ele>33.7</ele>
        <time>2023-08-23T07:04:41Z</time>
      </trkpt>
      <trkpt lat="49.80653" lon="2.44212">
        <ele>33.7</ele>
        <time>2023-08-23T07:04:43Z</time>
      </trkpt>
      <trkpt lat="49.80653" lon="2.44215">
        <ele>33.7</ele>
        <time>2023-08-23T07:04:44Z</time>
      </trkpt>
      <trkpt lat="49.80653" lon="2.44217">
        <ele>33.7</ele>
        <time>2023-08-23T07:04:45Z</time>
      </trkpt>
      <trkpt lat="49.80653" lon="2.44218">
        <ele>33.7</ele>
        <time>2023-08-23T07:04:46Z</time>
      </trkpt>
      <trkpt lat="49.80653" lon="2.4422">
        <ele>33.8</ele>
        <time>2023-08-23T07:04:47Z</time>
      </trkpt>
      <trkpt lat="49.80653" lon="2.44222">
        <ele>33.8</ele>
        <time>2023-08-23T07:04:48Z</time>
      </trkpt>
      <trkpt lat="49.80654" lon="2.44224">
        <ele>33.8</ele>
        <time>2023-08-23T07:04:49Z</time>
      </trkpt>
      <trkpt lat="49.80654" lon="2.44226">
        <ele>33.8</ele>
        <time>2023-08-23T07:04:51Z</time>
      </trkpt>
      <trkpt lat="49.80654" lon="2.44228">
        <ele>33.8</ele>
        <time>2023-08-23T07:04:52Z</time>
      </trkpt>
      <trkpt lat="49.80655" lon="2.4423">
        <ele>33.8</ele>
        <time>2023-08-23T07:04:53Z</time>
      </trkpt>
      <trkpt lat="49.80655" lon="2.44232">
        <ele>33.8</ele>
        <time>2023-08-23T07:04:54Z</time>
      </trkpt>
      <trkpt lat="49.80656" lon="2.44233">
        <ele>33.8</ele>
        <time>2023-08-23T07:04:56Z</time>
      </trkpt>
      <trkpt lat="49.80656" lon="2.44235">
        <ele>33.9</ele>
        <time>2023-08-23T07:04:57Z</time>
      </trkpt>
      <trkpt lat="49.80657" lon="2.44237">
        <ele>33.9</ele>
        <time>2023-08-23T07:04:58Z</time>
      </trkpt>
      <trkpt lat="49.80659" lon="2.44241">
        <ele>33.9</ele>
        <time>2023-08-23T07:04:59Z</time>
      </trkpt>
      <trkpt lat="49.80659" lon="2.44243">
        <ele>33.8</ele>
        <time>2023-08-23T07:05:00Z</time>
      </trkpt>
      <trkpt lat="49.8066" lon="2.44245">
        <ele>33.8</ele>
        <time>2023-08-23T07:05:01Z</time>
      </trkpt>
      <trkpt lat="49.80661" lon="2.44247">
        <ele>33.8</ele>
        <time>2023-08-23T07:05:02Z</time>
      </trkpt>
      <trkpt lat="49.80664" lon="2.44249">
        <ele>33.8</ele>
        <time>2023-08-23T07:05:03Z</time>
      </trkpt>
      <trkpt lat="49.80665" lon="2.44249">
        <ele>33.8</ele>
        <time>2023-08-23T07:05:05Z</time>
      </trkpt>
      <trkpt lat="49.80667" lon="2.44249">
        <ele>33.7</ele>
        <time>2023-08-23T07:05:06Z</time>
      </trkpt>
      <trkpt lat="49.80668" lon="2.44249">
        <ele>33.7</ele>
        <time>2023-08-23T07:05:07Z</time>
      </trkpt>
      <trkpt lat="49.8067" lon="2.44249">
        <ele>33.7</ele>
        <time>2023-08-23T07:05:08Z</time>
      </trkpt>
      <trkpt lat="49.80672" lon="2.44248">
        <ele>33.7</ele>
        <time>2023-08-23T07:05:09Z</time>
      </trkpt>
      <trkpt lat="49.80673" lon="2.44247">
        <ele>33.7</ele>
        <time>2023-08-23T07:05:11Z</time>
      </trkpt>
      <trkpt lat="49.80675" lon="2.44247">
        <ele>33.7</ele>
        <time>2023-08-23T07:05:12Z</time>
      </trkpt>
      <trkpt lat="49.80677" lon="2.44246">
        <ele>33.7</ele>
        <time>2023-08-23T07:05:13Z</time>
      </trkpt>
      <trkpt lat="49.80678" lon="2.44245">
        <ele>33.7</ele>
        <time>2023-08-23T07:05:14Z</time>
      </trkpt>
      <trkpt lat="49.80678" lon="2.44245">
        <ele>33.7</ele>
        <time>2023-08-23T07:05:15Z</time>
      </trkpt>
      <trkpt lat="49.80681" lon="2.44245">
        <ele>33.7</ele>
        <time>2023-08-23T07:05:16Z</time>
      </trkpt>
      <trkpt lat="49.80681" lon="2.44245">
        <ele>33.7</ele>
        <time>2023-08-23T07:05:18Z</time>
      </trkpt>
      <trkpt lat="49.80682" lon="2.44245">
        <ele>33.7</ele>
        <time>2023-08-23T07:05:19Z</time>
      </trkpt>
      <trkpt lat="49.80684" lon="2.44244">
        <ele>33.7</ele>
        <time>2023-08-23T07:05:20Z</time>
      </trkpt>
      <trkpt lat="49.80685" lon="2.44243">
        <ele>33.7</ele>
        <time>2023-08-23T07:05:21Z</time>
      </trkpt>
      <trkpt lat="49.80686" lon="2.44243">
        <ele>33.7</ele>
        <time>2023-08-23T07:05:22Z</time>
      </trkpt>
      <trkpt lat="49.80687" lon="2.44243">
        <ele>33.7</ele>
        <time>2023-08-23T07:05:23Z</time>
      </trkpt>
      <trkpt lat="49.80689" lon="2.44243">
        <ele>33.7</ele>
        <time>2023-08-23T07:05:24Z</time>
      </trkpt>
      <trkpt lat="49.8069" lon="2.44243">
        <ele>33.7</ele>
        <time>2023-08-23T07:05:25Z</time>
      </trkpt>
      <trkpt lat="49.80692" lon="2.44243">
        <ele>33.8</ele>
        <time>2023-08-23T07:05:27Z</time>
      </trkpt>
      <trkpt lat="49.80693" lon="2.44243">
        <ele>33.8</ele>
        <time>2023-08-23T07:05:28Z</time>
      </trkpt>
      <trkpt lat="49.80695" lon="2.44244">
        <ele>33.8</ele>
        <time>2023-08-23T07:05:30Z</time>
      </trkpt>
      <trkpt lat="49.80696" lon="2.44245">
        <ele>33.8</ele>
        <time>2023-08-23T07:05:31Z</time>
      </trkpt>
      <trkpt lat="49.80698" lon="2.44245">
        <ele>33.8</ele>
        <time>2023-08-23T07:05:32Z</time>
      </trkpt>
      <trkpt lat="49.80699" lon="2.44247">
        <ele>33.8</ele>
        <time>2023-08-23T07:05:33Z</time>
      </trkpt>
      <trkpt lat="49.807" lon="2.44248">
        <ele>33.9</ele>
        <time>2023-08-23T07:05:34Z</time>
      </trkpt>
      <trkpt lat="49.80701" lon="2.4425">
        <ele>33.9</ele>
        <time>2023-08-23T07:05:35Z</time>
      </trkpt>
      <trkpt lat="49.80701" lon="2.44252">
        <ele>33.9</ele>
        <time>2023-08-23T07:05:36Z</time>
      </trkpt>
      <trkpt lat="49.80702" lon="2.44254">
        <ele>33.9</ele>
        <time>2023-08-23T07:05:37Z</time>
      </trkpt>
      <trkpt lat="49.80702" lon="2.44256">
        <ele>33.9</ele>
        <time>2023-08-23T07:05:39Z</time>
      </trkpt>
      <trkpt lat="49.80702" lon="2.44257">
        <ele>33.9</ele>
        <time>2023-08-23T07:05:40Z</time>
      </trkpt>
      <trkpt lat="49.80702" lon="2.44259">
        <ele>33.9</ele>
        <time>2023-08-23T07:05:41Z</time>
      </trkpt>
      <trkpt lat="49.80701" lon="2.44261">
        <ele>34</ele>
        <time>2023-08-23T07:05:42Z</time>
      </trkpt>
      <trkpt lat="49.80701" lon="2.44263">
        <ele>34</ele>
        <time>2023-08-23T07:05:43Z</time>
      </trkpt>
      <trkpt lat="49.807" lon="2.44266">
        <ele>34</ele>
        <time>2023-08-23T07:05:44Z</time>
      </trkpt>
      <trkpt lat="49.80699" lon="2.44268">
        <ele>34</ele>
        <time>2023-08-23T07:05:45Z</time>
      </trkpt>
      <trkpt lat="49.80699" lon="2.4427">
        <ele>34</ele>
        <time>2023-08-23T07:05:46Z</time>
      </trkpt>
      <trkpt lat="49.80699" lon="2.44272">
        <ele>34</ele>
        <time>2023-08-23T07:05:48Z</time>
      </trkpt>
      <trkpt lat="49.80698" lon="2.44274">
        <ele>34</ele>
        <time>2023-08-23T07:05:49Z</time>
      </trkpt>
      <trkpt lat="49.80698" lon="2.44276">
        <ele>34</ele>
        <time>2023-08-23T07:05:50Z</time>
      </trkpt>
      <trkpt lat="49.80698" lon="2.44279">
        <ele>34</ele>
        <time>2023-08-23T07:05:51Z</time>
      </trkpt>
      <trkpt lat="49.80697" lon="2.44281">
        <ele>34</ele>
        <time>2023-08-23T07:05:52Z</time>
      </trkpt>
      <trkpt lat="49.80697" lon="2.44283">
        <ele>33.9</ele>
        <time>2023-08-23T07:05:53Z</time>
      </trkpt>
      <trkpt lat="49.80697" lon="2.44285">
        <ele>33.9</ele>
        <time>2023-08-23T07:05:54Z</time>
      </trkpt>
      <trkpt lat="49.80697" lon="2.44288">
        <ele>33.9</ele>
        <time>2023-08-23T07:05:55Z</time>
      </trkpt>
      <trkpt lat="49.80697" lon="2.44289">
        <ele>33.9</ele>
        <time>2023-08-23T07:05:56Z</time>
      </trkpt>
      <trkpt lat="49.80697" lon="2.44293">
        <ele>33.9</ele>
        <time>2023-08-23T07:05:58Z</time>
      </trkpt>
      <trkpt lat="49.80698" lon="2.44295">
        <ele>33.9</ele>
        <time>2023-08-23T07:06:00Z</time>
      </trkpt>
      <trkpt lat="49.80698" lon="2.44298">
        <ele>33.9</ele>
        <time>2023-08-23T07:06:01Z</time>
      </trkpt>
      <trkpt lat="49.80699" lon="2.44299">
        <ele>33.9</ele>
        <time>2023-08-23T07:06:02Z</time>
      </trkpt>
      <trkpt lat="49.807" lon="2.443">
        <ele>33.9</ele>
        <time>2023-08-23T07:06:03Z</time>
      </trkpt>
      <trkpt lat="49.807" lon="2.44301">
        <ele>33.9</ele>
        <time>2023-08-23T07:06:04Z</time>
      </trkpt>
      <trkpt lat="49.80701" lon="2.44305">
        <ele>33.9</ele>
        <time>2023-08-23T07:06:05Z</time>
      </trkpt>
      <trkpt lat="49.80701" lon="2.44307">
        <ele>33.9</ele>
        <time>2023-08-23T07:06:07Z</time>
      </trkpt>
      <trkpt lat="49.80701" lon="2.44308">
        <ele>33.9</ele>
        <time>2023-08-23T07:06:08Z</time>
      </trkpt>
      <trkpt lat="49.80702" lon="2.4431">
        <ele>33.9</ele>
        <time>2023-08-23T07:06:09Z</time>
      </trkpt>
      <trkpt lat="49.80702" lon="2.44313">
        <ele>33.9</ele>
        <time>2023-08-23T07:06:10Z</time>
      </trkpt>
      <trkpt lat="49.80703" lon="2.44316">
        <ele>33.9</ele>
        <time>2023-08-23T07:06:12Z</time>
      </trkpt>
      <trkpt lat="49.80703" lon="2.44318">
        <ele>33.9</ele>
        <time>2023-08-23T07:06:13Z</time>
      </trkpt>
      <trkpt lat="49.80703" lon="2.44322">
        <ele>33.9</ele>
        <time>2023-08-23T07:06:15Z</time>
      </trkpt>
      <trkpt lat="49.80703" lon="2.44324">
        <ele>33.9</ele>
        <time>2023-08-23T07:06:16Z</time>
      </trkpt>
      <trkpt lat="49.80704" lon="2.44326">
        <ele>33.9</ele>
        <time>2023-08-23T07:06:17Z</time>
      </trkpt>
      <trkpt lat="49.80704" lon="2.44329">
        <ele>33.9</ele>
        <time>2023-08-23T07:06:18Z</time>
      </trkpt>
      <trkpt lat="49.80704" lon="2.44331">
        <ele>34</ele>
        <time>2023-08-23T07:06:19Z</time>
      </trkpt>
      <trkpt lat="49.80705" lon="2.44332">
        <ele>34</ele>
        <time>2023-08-23T07:06:20Z</time>
      </trkpt>
      <trkpt lat="49.80705" lon="2.44334">
        <ele>34</ele>
        <time>2023-08-23T07:06:22Z</time>
      </trkpt>
      <trkpt lat="49.80706" lon="2.44338">
        <ele>34</ele>
        <time>2023-08-23T07:06:23Z</time>
      </trkpt>
      <trkpt lat="49.80706" lon="2.4434">
        <ele>34</ele>
        <time>2023-08-23T07:06:25Z</time>
      </trkpt>
      <trkpt lat="49.80707" lon="2.44342">
        <ele>34</ele>
        <time>2023-08-23T07:06:27Z</time>
      </trkpt>
      <trkpt lat="49.80707" lon="2.44344">
        <ele>34</ele>
        <time>2023-08-23T07:06:28Z</time>
      </trkpt>
      <trkpt lat="49.80708" lon="2.44347">
        <ele>34</ele>
        <time>2023-08-23T07:06:29Z</time>
      </trkpt>
      <trkpt lat="49.80708" lon="2.44349">
        <ele>34</ele>
        <time>2023-08-23T07:06:30Z</time>
      </trkpt>
      <trkpt lat="49.80708" lon="2.4435">
        <ele>34</ele>
        <time>2023-08-23T07:06:31Z</time>
      </trkpt>
      <trkpt lat="49.80708" lon="2.44354">
        <ele>34</ele>
        <time>2023-08-23T07:06:32Z</time>
      </trkpt>
      <trkpt lat="49.80708" lon="2.44355">
        <ele>34.1</ele>
        <time>2023-08-23T07:06:33Z</time>
      </trkpt>
      <trkpt lat="49.80708" lon="2.44356">
        <ele>34.1</ele>
        <time>2023-08-23T07:06:34Z</time>
      </trkpt>
      <trkpt lat="49.80708" lon="2.4436">
        <ele>34.1</ele>
        <time>2023-08-23T07:06:35Z</time>
      </trkpt>
      <trkpt lat="49.80708" lon="2.44361">
        <ele>34.1</ele>
        <time>2023-08-23T07:06:37Z</time>
      </trkpt>
      <trkpt lat="49.80707" lon="2.44362">
        <ele>34.1</ele>
        <time>2023-08-23T07:06:38Z</time>
      </trkpt>
      <trkpt lat="49.80707" lon="2.44366">
        <ele>34.1</ele>
        <time>2023-08-23T07:06:39Z</time>
      </trkpt>
      <trkpt lat="49.80707" lon="2.44367">
        <ele>34.1</ele>
        <time>2023-08-23T07:06:40Z</time>
      </trkpt>
      <trkpt lat="49.80706" lon="2.44368">
        <ele>34.1</ele>
        <time>2023-08-23T07:06:41Z</time>
      </trkpt>
      <trkpt lat="49.80706" lon="2.44371">
        <ele>34.1</ele>
        <time>2023-08-23T07:06:42Z</time>
      </trkpt>
      <trkpt lat="49.80705" lon="2.44372">
        <ele>34.1</ele>
        <time>2023-08-23T07:06:44Z</time>
      </trkpt>
      <trkpt lat="49.80705" lon="2.44374">
        <ele>34.1</ele>
        <time>2023-08-23T07:06:45Z</time>
      </trkpt>
      <trkpt lat="49.80705" lon="2.44376">
        <ele>34.1</ele>
        <time>2023-08-23T07:06:46Z</time>
      </trkpt>
      <trkpt lat="49.80705" lon="2.44378">
        <ele>34.1</ele>
        <time>2023-08-23T07:06:47Z</time>
      </trkpt>
      <trkpt lat="49.80705" lon="2.4438">
        <ele>34.1</ele>
        <time>2023-08-23T07:06:48Z</time>
      </trkpt>
      <trkpt lat="49.80704" lon="2.44382">
        <ele>34.1</ele>
        <time>2023-08-23T07:06:49Z</time>
      </trkpt>
      <trkpt lat="49.80704" lon="2.44386">
        <ele>34.1</ele>
        <time>2023-08-23T07:06:51Z</time>
      </trkpt>
      <trkpt lat="49.80704" lon="2.44389">
        <ele>34.1</ele>
        <time>2023-08-23T07:06:53Z</time>
      </trkpt>
      <trkpt lat="49.80703" lon="2.44391">
        <ele>34.1</ele>
        <time>2023-08-23T07:06:54Z</time>
      </trkpt>
      <trkpt lat="49.80703" lon="2.44394">
        <ele>34.2</ele>
        <time>2023-08-23T07:06:55Z</time>
      </trkpt>
      <trkpt lat="49.80703" lon="2.44395">
        <ele>34.2</ele>
        <time>2023-08-23T07:06:56Z</time>
      </trkpt>
      <trkpt lat="49.80703" lon="2.44397">
        <ele>34.2</ele>
        <time>2023-08-23T07:06:57Z</time>
      </trkpt>
      <trkpt lat="49.80702" lon="2.44399">
        <ele>34.2</ele>
        <time>2023-08-23T07:06:58Z</time>
      </trkpt>
      <trkpt lat="49.80702" lon="2.44404">
        <ele>34.2</ele>
        <time>2023-08-23T07:07:01Z</time>
      </trkpt>
      <trkpt lat="49.80701" lon="2.44406">
        <ele>34.2</ele>
        <time>2023-08-23T07:07:03Z</time>
      </trkpt>
      <trkpt lat="49.80701" lon="2.44408">
        <ele>34.2</ele>
        <time>2023-08-23T07:07:04Z</time>
      </trkpt>
      <trkpt lat="49.807" lon="2.4441">
        <ele>34.2</ele>
        <time>2023-08-23T07:07:05Z</time>
      </trkpt>
      <trkpt lat="49.807" lon="2.44414">
        <ele>34.2</ele>
        <time>2023-08-23T07:07:06Z</time>
      </trkpt>
      <trkpt lat="49.807" lon="2.44415">
        <ele>34.2</ele>
        <time>2023-08-23T07:07:07Z</time>
      </trkpt>
      <trkpt lat="49.80699" lon="2.44416">
        <ele>34.2</ele>
        <time>2023-08-23T07:07:08Z</time>
      </trkpt>
      <trkpt lat="49.80699" lon="2.4442">
        <ele>34.2</ele>
        <time>2023-08-23T07:07:09Z</time>
      </trkpt>
      <trkpt lat="49.80699" lon="2.44421">
        <ele>34.2</ele>
        <time>2023-08-23T07:07:11Z</time>
      </trkpt>
      <trkpt lat="49.80698" lon="2.44422">
        <ele>34.2</ele>
        <time>2023-08-23T07:07:12Z</time>
      </trkpt>
      <trkpt lat="49.80698" lon="2.44425">
        <ele>34.2</ele>
        <time>2023-08-23T07:07:13Z</time>
      </trkpt>
      <trkpt lat="49.80698" lon="2.44426">
        <ele>34.2</ele>
        <time>2023-08-23T07:07:14Z</time>
      </trkpt>
      <trkpt lat="49.80697" lon="2.44427">
        <ele>34.2</ele>
        <time>2023-08-23T07:07:15Z</time>
      </trkpt>
      <trkpt lat="49.80697" lon="2.44429">
        <ele>34.2</ele>
        <time>2023-08-23T07:07:16Z</time>
      </trkpt>
      <trkpt lat="49.80696" lon="2.44433">
        <ele>34.2</ele>
        <time>2023-08-23T07:07:18Z</time>
      </trkpt>
      <trkpt lat="49.80696" lon="2.44435">
        <ele>34.2</ele>
        <time>2023-08-23T07:07:20Z</time>
      </trkpt>
      <trkpt lat="49.80696" lon="2.44438">
        <ele>34.2</ele>
        <time>2023-08-23T07:07:22Z</time>
      </trkpt>
      <trkpt lat="49.80696" lon="2.44441">
        <ele>34.2</ele>
        <time>2023-08-23T07:07:24Z</time>
      </trkpt>
      <trkpt lat="49.80696" lon="2.44443">
        <ele>34.2</ele>
        <time>2023-08-23T07:07:26Z</time>
      </trkpt>
      <trkpt lat="49.80696" lon="2.44446">
        <ele>34.2</ele>
        <time>2023-08-23T07:07:27Z</time>
      </trkpt>
      <trkpt lat="49.80696" lon="2.44448">
        <ele>34.2</ele>
        <time>2023-08-23T07:07:28Z</time>
      </trkpt>
      <trkpt lat="49.80695" lon="2.4445">
        <ele>34.2</ele>
        <time>2023-08-23T07:07:29Z</time>
      </trkpt>
      <trkpt lat="49.80695" lon="2.44452">
        <ele>34.2</ele>
        <time>2023-08-23T07:07:31Z</time>
      </trkpt>
      <trkpt lat="49.80695" lon="2.44454">
        <ele>34.2</ele>
        <time>2023-08-23T07:07:32Z</time>
      </trkpt>
      <trkpt lat="49.80695" lon="2.44457">
        <ele>34.2</ele>
        <time>2023-08-23T07:07:33Z</time>
      </trkpt>
      <trkpt lat="49.80694" lon="2.44458">
        <ele>34.2</ele>
        <time>2023-08-23T07:07:34Z</time>
      </trkpt>
      <trkpt lat="49.80694" lon="2.44462">
        <ele>34.2</ele>
        <time>2023-08-23T07:07:36Z</time>
      </trkpt>
      <trkpt lat="49.80694" lon="2.44464">
        <ele>34.2</ele>
        <time>2023-08-23T07:07:37Z</time>
      </trkpt>
      <trkpt lat="49.80693" lon="2.44466">
        <ele>34.2</ele>
        <time>2023-08-23T07:07:38Z</time>
      </trkpt>
      <trkpt lat="49.80693" lon="2.44468">
        <ele>34.2</ele>
        <time>2023-08-23T07:07:40Z</time>
      </trkpt>
      <trkpt lat="49.80693" lon="2.44471">
        <ele>34.2</ele>
        <time>2023-08-23T07:07:41Z</time>
      </trkpt>
      <trkpt lat="49.80693" lon="2.44472">
        <ele>34.2</ele>
        <time>2023-08-23T07:07:42Z</time>
      </trkpt>
      <trkpt lat="49.80693" lon="2.44474">
        <ele>34.2</ele>
        <time>2023-08-23T07:07:43Z</time>
      </trkpt>
      <trkpt lat="49.80693" lon="2.44477">
        <ele>34.1</ele>
        <time>2023-08-23T07:07:45Z</time>
      </trkpt>
      <trkpt lat="49.80693" lon="2.44479">
        <ele>34.1</ele>
        <time>2023-08-23T07:07:46Z</time>
      </trkpt>
      <trkpt lat="49.80693" lon="2.44481">
        <ele>34.1</ele>
        <time>2023-08-23T07:07:47Z</time>
      </trkpt>
      <trkpt lat="49.80694" lon="2.44483">
        <ele>34.1</ele>
        <time>2023-08-23T07:07:48Z</time>
      </trkpt>
      <trkpt lat="49.80694" lon="2.44485">
        <ele>34.1</ele>
        <time>2023-08-23T07:07:49Z</time>
      </trkpt>
      <trkpt lat="49.80694" lon="2.44487">
        <ele>34.1</ele>
        <time>2023-08-23T07:07:51Z</time>
      </trkpt>
      <trkpt lat="49.80695" lon="2.44489">
        <ele>34.1</ele>
        <time>2023-08-23T07:07:52Z</time>
      </trkpt>
      <trkpt lat="49.80695" lon="2.44492">
        <ele>34.1</ele>
        <time>2023-08-23T07:07:53Z</time>
      </trkpt>
      <trkpt lat="49.80695" lon="2.44494">
        <ele>34.1</ele>
        <time>2023-08-23T07:07:54Z</time>
      </trkpt>
      <trkpt lat="49.80695" lon="2.44497">
        <ele>34.1</ele>
        <time>2023-08-23T07:07:55Z</time>
      </trkpt>
      <trkpt lat="49.80696" lon="2.44499">
        <ele>34.1</ele>
        <time>2023-08-23T07:07:56Z</time>
      </trkpt>
      <trkpt lat="49.80696" lon="2.44501">
        <ele>34</ele>
        <time>2023-08-23T07:07:57Z</time>
      </trkpt>
      <trkpt lat="49.80696" lon="2.44503">
        <ele>34</ele>
        <time>2023-08-23T07:07:58Z</time>
      </trkpt>
      <trkpt lat="49.80696" lon="2.44505">
        <ele>34</ele>
        <time>2023-08-23T07:07:59Z</time>
      </trkpt>
      <trkpt lat="49.80698" lon="2.44507">
        <ele>34</ele>
        <time>2023-08-23T07:08:01Z</time>
      </trkpt>
      <trkpt lat="49.80699" lon="2.44511">
        <ele>34</ele>
        <time>2023-08-23T07:08:02Z</time>
      </trkpt>
      <trkpt lat="49.80699" lon="2.44512">
        <ele>34</ele>
        <time>2023-08-23T07:08:03Z</time>
      </trkpt>
      <trkpt lat="49.807" lon="2.44516">
        <ele>34</ele>
        <time>2023-08-23T07:08:04Z</time>
      </trkpt>
      <trkpt lat="49.807" lon="2.44518">
        <ele>33.9</ele>
        <time>2023-08-23T07:08:06Z</time>
      </trkpt>
      <trkpt lat="49.80701" lon="2.4452">
        <ele>33.9</ele>
        <time>2023-08-23T07:08:07Z</time>
      </trkpt>
      <trkpt lat="49.80701" lon="2.44522">
        <ele>33.9</ele>
        <time>2023-08-23T07:08:08Z</time>
      </trkpt>
      <trkpt lat="49.80702" lon="2.44523">
        <ele>33.9</ele>
        <time>2023-08-23T07:08:09Z</time>
      </trkpt>
      <trkpt lat="49.80702" lon="2.44526">
        <ele>33.9</ele>
        <time>2023-08-23T07:08:10Z</time>
      </trkpt>
      <trkpt lat="49.80702" lon="2.44528">
        <ele>33.9</ele>
        <time>2023-08-23T07:08:12Z</time>
      </trkpt>
      <trkpt lat="49.80703" lon="2.4453">
        <ele>33.9</ele>
        <time>2023-08-23T07:08:13Z</time>
      </trkpt>
      <trkpt lat="49.80703" lon="2.44531">
        <ele>33.9</ele>
        <time>2023-08-23T07:08:14Z</time>
      </trkpt>
      <trkpt lat="49.80703" lon="2.44533">
        <ele>33.8</ele>
        <time>2023-08-23T07:08:15Z</time>
      </trkpt>
      <trkpt lat="49.80703" lon="2.44534">
        <ele>33.8</ele>
        <time>2023-08-23T07:08:16Z</time>
      </trkpt>
      <trkpt lat="49.80702" lon="2.44536">
        <ele>33.8</ele>
        <time>2023-08-23T07:08:17Z</time>
      </trkpt>
      <trkpt lat="49.80702" lon="2.44538">
        <ele>33.8</ele>
        <time>2023-08-23T07:08:18Z</time>
      </trkpt>
      <trkpt lat="49.80703" lon="2.4454">
        <ele>33.8</ele>
        <time>2023-08-23T07:08:19Z</time>
      </trkpt>
      <trkpt lat="49.80703" lon="2.44541">
        <ele>33.8</ele>
        <time>2023-08-23T07:08:20Z</time>
      </trkpt>
      <trkpt lat="49.80703" lon="2.44543">
        <ele>33.7</ele>
        <time>2023-08-23T07:08:22Z</time>
      </trkpt>
      <trkpt lat="49.80703" lon="2.44545">
        <ele>33.7</ele>
        <time>2023-08-23T07:08:23Z</time>
      </trkpt>
      <trkpt lat="49.80703" lon="2.44548">
        <ele>33.7</ele>
        <time>2023-08-23T07:08:24Z</time>
      </trkpt>
      <trkpt lat="49.80704" lon="2.44552">
        <ele>33.6</ele>
        <time>2023-08-23T07:08:25Z</time>
      </trkpt>
      <trkpt lat="49.80704" lon="2.44553">
        <ele>33.6</ele>
        <time>2023-08-23T07:08:26Z</time>
      </trkpt>
      <trkpt lat="49.80705" lon="2.44555">
        <ele>33.6</ele>
        <time>2023-08-23T07:08:27Z</time>
      </trkpt>
      <trkpt lat="49.80705" lon="2.44558">
        <ele>33.6</ele>
        <time>2023-08-23T07:08:28Z</time>
      </trkpt>
      <trkpt lat="49.80706" lon="2.4456">
        <ele>33.6</ele>
        <time>2023-08-23T07:08:30Z</time>
      </trkpt>
      <trkpt lat="49.80707" lon="2.44563">
        <ele>33.5</ele>
        <time>2023-08-23T07:08:31Z</time>
      </trkpt>
      <trkpt lat="49.80707" lon="2.44566">
        <ele>33.5</ele>
        <time>2023-08-23T07:08:32Z</time>
      </trkpt>
      <trkpt lat="49.80707" lon="2.4457">
        <ele>33.5</ele>
        <time>2023-08-23T07:08:34Z</time>
      </trkpt>
      <trkpt lat="49.80707" lon="2.44573">
        <ele>33.4</ele>
        <time>2023-08-23T07:08:35Z</time>
      </trkpt>
      <trkpt lat="49.80706" lon="2.44575">
        <ele>33.4</ele>
        <time>2023-08-23T07:08:37Z</time>
      </trkpt>
      <trkpt lat="49.80706" lon="2.44576">
        <ele>33.4</ele>
        <time>2023-08-23T07:08:38Z</time>
      </trkpt>
      <trkpt lat="49.80706" lon="2.44578">
        <ele>33.4</ele>
        <time>2023-08-23T07:08:39Z</time>
      </trkpt>
      <trkpt lat="49.80705" lon="2.4458">
        <ele>33.4</ele>
        <time>2023-08-23T07:08:40Z</time>
      </trkpt>
      <trkpt lat="49.80705" lon="2.44582">
        <ele>33.4</ele>
        <time>2023-08-23T07:08:41Z</time>
      </trkpt>
      <trkpt lat="49.80704" lon="2.44583">
        <ele>33.4</ele>
        <time>2023-08-23T07:08:42Z</time>
      </trkpt>
      <trkpt lat="49.80704" lon="2.44585">
        <ele>33.3</ele>
        <time>2023-08-23T07:08:43Z</time>
      </trkpt>
      <trkpt lat="49.80704" lon="2.44587">
        <ele>33.3</ele>
        <time>2023-08-23T07:08:44Z</time>
      </trkpt>
      <trkpt lat="49.80703" lon="2.44589">
        <ele>33.3</ele>
        <time>2023-08-23T07:08:46Z</time>
      </trkpt>
      <trkpt lat="49.80702" lon="2.44591">
        <ele>33.3</ele>
        <time>2023-08-23T07:08:48Z</time>
      </trkpt>
      <trkpt lat="49.80701" lon="2.44591">
        <ele>33.3</ele>
        <time>2023-08-23T07:08:49Z</time>
      </trkpt>
      <trkpt lat="49.80701" lon="2.44591">
        <ele>33.3</ele>
        <time>2023-08-23T07:08:50Z</time>
      </trkpt>
      <trkpt lat="49.807" lon="2.44592">
        <ele>33.2</ele>
        <time>2023-08-23T07:08:51Z</time>
      </trkpt>
      <trkpt lat="49.80699" lon="2.44593">
        <ele>33.2</ele>
        <time>2023-08-23T07:08:52Z</time>
      </trkpt>
      <trkpt lat="49.80698" lon="2.44594">
        <ele>33.2</ele>
        <time>2023-08-23T07:08:53Z</time>
      </trkpt>
      <trkpt lat="49.80698" lon="2.44595">
        <ele>33.2</ele>
        <time>2023-08-23T07:08:54Z</time>
      </trkpt>
      <trkpt lat="49.80697" lon="2.44595">
        <ele>33.2</ele>
        <time>2023-08-23T07:08:55Z</time>
      </trkpt>
      <trkpt lat="49.80697" lon="2.44596">
        <ele>33.2</ele>
        <time>2023-08-23T07:08:57Z</time>
      </trkpt>
      <trkpt lat="49.80696" lon="2.44597">
        <ele>33.2</ele>
        <time>2023-08-23T07:08:58Z</time>
      </trkpt>
      <trkpt lat="49.80696" lon="2.44598">
        <ele>33.2</ele>
        <time>2023-08-23T07:08:59Z</time>
      </trkpt>
      <trkpt lat="49.80695" lon="2.44599">
        <ele>33.2</ele>
        <time>2023-08-23T07:09:00Z</time>
      </trkpt>
      <trkpt lat="49.80695" lon="2.446">
        <ele>33.1</ele>
        <time>2023-08-23T07:09:01Z</time>
      </trkpt>
      <trkpt lat="49.80694" lon="2.44601">
        <ele>33.1</ele>
        <time>2023-08-23T07:09:02Z</time>
      </trkpt>
      <trkpt lat="49.80693" lon="2.44603">
        <ele>33.1</ele>
        <time>2023-08-23T07:09:03Z</time>
      </trkpt>
      <trkpt lat="49.80692" lon="2.44604">
        <ele>33.1</ele>
        <time>2023-08-23T07:09:04Z</time>
      </trkpt>
      <trkpt lat="49.80692" lon="2.44604">
        <ele>33.1</ele>
        <time>2023-08-23T07:09:06Z</time>
      </trkpt>
      <trkpt lat="49.80691" lon="2.44605">
        <ele>33.1</ele>
        <time>2023-08-23T07:09:07Z</time>
      </trkpt>
      <trkpt lat="49.80691" lon="2.44606">
        <ele>33.1</ele>
        <time>2023-08-23T07:09:09Z</time>
      </trkpt>
      <trkpt lat="49.8069" lon="2.44606">
        <ele>33.1</ele>
        <time>2023-08-23T07:09:10Z</time>
      </trkpt>
      <trkpt lat="49.8069" lon="2.44607">
        <ele>33</ele>
        <time>2023-08-23T07:09:11Z</time>
      </trkpt>
      <trkpt lat="49.80689" lon="2.44608">
        <ele>33</ele>
        <time>2023-08-23T07:09:12Z</time>
      </trkpt>
      <trkpt lat="49.80689" lon="2.44608">
        <ele>33</ele>
        <time>2023-08-23T07:09:13Z</time>
      </trkpt>
      <trkpt lat="49.80688" lon="2.44609">
        <ele>33</ele>
        <time>2023-08-23T07:09:14Z</time>
      </trkpt>
      <trkpt lat="49.80687" lon="2.4461">
        <ele>33</ele>
        <time>2023-08-23T07:09:15Z</time>
      </trkpt>
      <trkpt lat="49.80686" lon="2.44611">
        <ele>33</ele>
        <time>2023-08-23T07:09:16Z</time>
      </trkpt>
      <trkpt lat="49.80685" lon="2.44612">
        <ele>33</ele>
        <time>2023-08-23T07:09:17Z</time>
      </trkpt>
      <trkpt lat="49.80684" lon="2.44613">
        <ele>33</ele>
        <time>2023-08-23T07:09:18Z</time>
      </trkpt>
      <trkpt lat="49.80683" lon="2.44615">
        <ele>32.9</ele>
        <time>2023-08-23T07:09:19Z</time>
      </trkpt>
      <trkpt lat="49.80683" lon="2.44618">
        <ele>32.9</ele>
        <time>2023-08-23T07:09:20Z</time>
      </trkpt>
      <trkpt lat="49.80682" lon="2.44619">
        <ele>32.9</ele>
        <time>2023-08-23T07:09:22Z</time>
      </trkpt>
      <trkpt lat="49.80682" lon="2.4462">
        <ele>32.9</ele>
        <time>2023-08-23T07:09:23Z</time>
      </trkpt>
      <trkpt lat="49.80681" lon="2.44621">
        <ele>32.9</ele>
        <time>2023-08-23T07:09:24Z</time>
      </trkpt>
      <trkpt lat="49.80681" lon="2.44622">
        <ele>32.9</ele>
        <time>2023-08-23T07:09:25Z</time>
      </trkpt>
      <trkpt lat="49.8068" lon="2.44624">
        <ele>32.9</ele>
        <time>2023-08-23T07:09:26Z</time>
      </trkpt>
      <trkpt lat="49.8068" lon="2.44625">
        <ele>32.9</ele>
        <time>2023-08-23T07:09:27Z</time>
      </trkpt>
      <trkpt lat="49.80679" lon="2.44627">
        <ele>32.9</ele>
        <time>2023-08-23T07:09:28Z</time>
      </trkpt>
      <trkpt lat="49.80678" lon="2.44628">
        <ele>32.9</ele>
        <time>2023-08-23T07:09:29Z</time>
      </trkpt>
      <trkpt lat="49.80678" lon="2.44629">
        <ele>32.9</ele>
        <time>2023-08-23T07:09:30Z</time>
      </trkpt>
      <trkpt lat="49.80677" lon="2.4463">
        <ele>32.9</ele>
        <time>2023-08-23T07:09:32Z</time>
      </trkpt>
      <trkpt lat="49.80676" lon="2.44631">
        <ele>32.9</ele>
        <time>2023-08-23T07:09:33Z</time>
      </trkpt>
      <trkpt lat="49.80675" lon="2.44632">
        <ele>32.9</ele>
        <time>2023-08-23T07:09:34Z</time>
      </trkpt>
      <trkpt lat="49.80675" lon="2.44633">
        <ele>32.9</ele>
        <time>2023-08-23T07:09:35Z</time>
      </trkpt>
      <trkpt lat="49.80674" lon="2.44633">
        <ele>32.9</ele>
        <time>2023-08-23T07:09:36Z</time>
      </trkpt>
      <trkpt lat="49.80674" lon="2.44634">
        <ele>32.8</ele>
        <time>2023-08-23T07:09:38Z</time>
      </trkpt>
      <trkpt lat="49.80673" lon="2.44635">
        <ele>32.8</ele>
        <time>2023-08-23T07:09:39Z</time>
      </trkpt>
      <trkpt lat="49.80673" lon="2.44635">
        <ele>32.8</ele>
        <time>2023-08-23T07:09:40Z</time>
      </trkpt>
      <trkpt lat="49.80672" lon="2.44636">
        <ele>32.8</ele>
        <time>2023-08-23T07:09:41Z</time>
      </trkpt>
      <trkpt lat="49.80672" lon="2.44637">
        <ele>32.8</ele>
        <time>2023-08-23T07:09:42Z</time>
      </trkpt>
      <trkpt lat="49.80671" lon="2.44638">
        <ele>32.8</ele>
        <time>2023-08-23T07:09:43Z</time>
      </trkpt>
      <trkpt lat="49.8067" lon="2.44639">
        <ele>32.8</ele>
        <time>2023-08-23T07:09:44Z</time>
      </trkpt>
      <trkpt lat="49.80669" lon="2.4464">
        <ele>32.8</ele>
        <time>2023-08-23T07:09:45Z</time>
      </trkpt>
      <trkpt lat="49.80668" lon="2.44641">
        <ele>32.8</ele>
        <time>2023-08-23T07:09:46Z</time>
      </trkpt>
      <trkpt lat="49.80667" lon="2.44641">
        <ele>32.8</ele>
        <time>2023-08-23T07:09:48Z</time>
      </trkpt>
      <trkpt lat="49.80666" lon="2.44642">
        <ele>32.8</ele>
        <time>2023-08-23T07:09:49Z</time>
      </trkpt>
      <trkpt lat="49.80664" lon="2.44643">
        <ele>32.8</ele>
        <time>2023-08-23T07:09:50Z</time>
      </trkpt>
      <trkpt lat="49.80663" lon="2.44644">
        <ele>32.8</ele>
        <time>2023-08-23T07:09:51Z</time>
      </trkpt>
      <trkpt lat="49.80663" lon="2.44645">
        <ele>32.8</ele>
        <time>2023-08-23T07:09:52Z</time>
      </trkpt>
      <trkpt lat="49.80661" lon="2.44647">
        <ele>32.8</ele>
        <time>2023-08-23T07:09:54Z</time>
      </trkpt>
      <trkpt lat="49.8066" lon="2.44647">
        <ele>32.8</ele>
        <time>2023-08-23T07:09:55Z</time>
      </trkpt>
      <trkpt lat="49.80659" lon="2.44648">
        <ele>32.8</ele>
        <time>2023-08-23T07:09:56Z</time>
      </trkpt>
      <trkpt lat="49.80658" lon="2.44649">
        <ele>32.8</ele>
        <time>2023-08-23T07:09:57Z</time>
      </trkpt>
      <trkpt lat="49.80657" lon="2.4465">
        <ele>32.8</ele>
        <time>2023-08-23T07:09:58Z</time>
      </trkpt>
      <trkpt lat="49.80655" lon="2.44652">
        <ele>32.8</ele>
        <time>2023-08-23T07:09:59Z</time>
      </trkpt>
      <trkpt lat="49.80654" lon="2.44653">
        <ele>32.8</ele>
        <time>2023-08-23T07:10:00Z</time>
      </trkpt>
      <trkpt lat="49.80653" lon="2.44655">
        <ele>32.8</ele>
        <time>2023-08-23T07:10:02Z</time>
      </trkpt>
      <trkpt lat="49.80652" lon="2.44657">
        <ele>32.8</ele>
        <time>2023-08-23T07:10:03Z</time>
      </trkpt>
      <trkpt lat="49.8065" lon="2.44659">
        <ele>32.8</ele>
        <time>2023-08-23T07:10:04Z</time>
      </trkpt>
      <trkpt lat="49.80649" lon="2.4466">
        <ele>32.8</ele>
        <time>2023-08-23T07:10:05Z</time>
      </trkpt>
      <trkpt lat="49.80648" lon="2.44662">
        <ele>32.8</ele>
        <time>2023-08-23T07:10:06Z</time>
      </trkpt>
      <trkpt lat="49.80647" lon="2.44663">
        <ele>32.8</ele>
        <time>2023-08-23T07:10:07Z</time>
      </trkpt>
      <trkpt lat="49.80646" lon="2.44664">
        <ele>32.8</ele>
        <time>2023-08-23T07:10:08Z</time>
      </trkpt>
      <trkpt lat="49.80646" lon="2.44666">
        <ele>32.8</ele>
        <time>2023-08-23T07:10:10Z</time>
      </trkpt>
      <trkpt lat="49.80645" lon="2.44667">
        <ele>32.8</ele>
        <time>2023-08-23T07:10:11Z</time>
      </trkpt>
      <trkpt lat="49.80644" lon="2.44669">
        <ele>32.8</ele>
        <time>2023-08-23T07:10:12Z</time>
      </trkpt>
      <trkpt lat="49.80643" lon="2.44671">
        <ele>32.8</ele>
        <time>2023-08-23T07:10:13Z</time>
      </trkpt>
      <trkpt lat="49.80643" lon="2.44672">
        <ele>32.8</ele>
        <time>2023-08-23T07:10:15Z</time>
      </trkpt>
      <trkpt lat="49.80642" lon="2.44673">
        <ele>32.8</ele>
        <time>2023-08-23T07:10:16Z</time>
      </trkpt>
      <trkpt lat="49.80641" lon="2.44675">
        <ele>32.8</ele>
        <time>2023-08-23T07:10:17Z</time>
      </trkpt>
      <trkpt lat="49.80641" lon="2.44676">
        <ele>32.8</ele>
        <time>2023-08-23T07:10:18Z</time>
      </trkpt>
      <trkpt lat="49.8064" lon="2.44676">
        <ele>32.8</ele>
        <time>2023-08-23T07:10:19Z</time>
      </trkpt>
      <trkpt lat="49.8064" lon="2.44677">
        <ele>32.8</ele>
        <time>2023-08-23T07:10:20Z</time>
      </trkpt>
      <trkpt lat="49.80639" lon="2.44678">
        <ele>32.8</ele>
        <time>2023-08-23T07:10:22Z</time>
      </trkpt>
      <trkpt lat="49.80639" lon="2.44679">
        <ele>32.8</ele>
        <time>2023-08-23T07:10:23Z</time>
      </trkpt>
      <trkpt lat="49.80638" lon="2.4468">
        <ele>32.8</ele>
        <time>2023-08-23T07:10:24Z</time>
      </trkpt>
      <trkpt lat="49.80637" lon="2.44682">
        <ele>32.8</ele>
        <time>2023-08-23T07:10:25Z</time>
      </trkpt>
      <trkpt lat="49.80636" lon="2.44684">
        <ele>32.8</ele>
        <time>2023-08-23T07:10:27Z</time>
      </trkpt>
      <trkpt lat="49.80635" lon="2.44686">
        <ele>32.8</ele>
        <time>2023-08-23T07:10:28Z</time>
      </trkpt>
      <trkpt lat="49.80634" lon="2.44688">
        <ele>32.8</ele>
        <time>2023-08-23T07:10:29Z</time>
      </trkpt>
      <trkpt lat="49.80633" lon="2.44689">
        <ele>32.8</ele>
        <time>2023-08-23T07:10:30Z</time>
      </trkpt>
      <trkpt lat="49.80631" lon="2.44693">
        <ele>32.8</ele>
        <time>2023-08-23T07:10:31Z</time>
      </trkpt>
      <trkpt lat="49.8063" lon="2.44694">
        <ele>32.8</ele>
        <time>2023-08-23T07:10:33Z</time>
      </trkpt>
      <trkpt lat="49.80629" lon="2.44696">
        <ele>32.8</ele>
        <time>2023-08-23T07:10:34Z</time>
      </trkpt>
      <trkpt lat="49.80628" lon="2.44698">
        <ele>32.8</ele>
        <time>2023-08-23T07:10:35Z</time>
      </trkpt>
      <trkpt lat="49.80626" lon="2.44701">
        <ele>32.8</ele>
        <time>2023-08-23T07:10:36Z</time>
      </trkpt>
      <trkpt lat="49.80623" lon="2.44706">
        <ele>32.8</ele>
        <time>2023-08-23T07:10:38Z</time>
      </trkpt>
      <trkpt lat="49.80622" lon="2.44709">
        <ele>32.8</ele>
        <time>2023-08-23T07:10:39Z</time>
      </trkpt>
      <trkpt lat="49.80619" lon="2.44713">
        <ele>32.8</ele>
        <time>2023-08-23T07:10:40Z</time>
      </trkpt>
      <trkpt lat="49.80617" lon="2.44718">
        <ele>32.7</ele>
        <time>2023-08-23T07:10:41Z</time>
      </trkpt>
      <trkpt lat="49.80614" lon="2.44722">
        <ele>32.7</ele>
        <time>2023-08-23T07:10:42Z</time>
      </trkpt>
      <trkpt lat="49.80613" lon="2.44723">
        <ele>32.7</ele>
        <time>2023-08-23T07:10:43Z</time>
      </trkpt>
      <trkpt lat="49.80612" lon="2.44724">
        <ele>32.7</ele>
        <time>2023-08-23T07:10:44Z</time>
      </trkpt>
      <trkpt lat="49.80611" lon="2.44726">
        <ele>32.7</ele>
        <time>2023-08-23T07:10:45Z</time>
      </trkpt>
      <trkpt lat="49.8061" lon="2.44727">
        <ele>32.7</ele>
        <time>2023-08-23T07:10:47Z</time>
      </trkpt>
      <trkpt lat="49.80608" lon="2.44728">
        <ele>32.7</ele>
        <time>2023-08-23T07:10:48Z</time>
      </trkpt>
      <trkpt lat="49.80607" lon="2.44729">
        <ele>32.7</ele>
        <time>2023-08-23T07:10:49Z</time>
      </trkpt>
      <trkpt lat="49.80606" lon="2.44731">
        <ele>32.8</ele>
        <time>2023-08-23T07:10:50Z</time>
      </trkpt>
      <trkpt lat="49.80604" lon="2.44732">
        <ele>32.8</ele>
        <time>2023-08-23T07:10:51Z</time>
      </trkpt>
      <trkpt lat="49.80603" lon="2.44733">
        <ele>32.8</ele>
        <time>2023-08-23T07:10:52Z</time>
      </trkpt>
      <trkpt lat="49.80601" lon="2.44735">
        <ele>32.8</ele>
        <time>2023-08-23T07:10:53Z</time>
      </trkpt>
      <trkpt lat="49.80599" lon="2.44736">
        <ele>32.8</ele>
        <time>2023-08-23T07:10:55Z</time>
      </trkpt>
      <trkpt lat="49.80598" lon="2.44737">
        <ele>32.8</ele>
        <time>2023-08-23T07:10:57Z</time>
      </trkpt>
      <trkpt lat="49.80597" lon="2.44738">
        <ele>32.8</ele>
        <time>2023-08-23T07:10:58Z</time>
      </trkpt>
      <trkpt lat="49.80596" lon="2.44739">
        <ele>32.8</ele>
        <time>2023-08-23T07:11:00Z</time>
      </trkpt>
      <trkpt lat="49.80595" lon="2.4474">
        <ele>32.9</ele>
        <time>2023-08-23T07:11:01Z</time>
      </trkpt>
      <trkpt lat="49.80594" lon="2.4474">
        <ele>32.9</ele>
        <time>2023-08-23T07:11:02Z</time>
      </trkpt>
      <trkpt lat="49.80593" lon="2.44741">
        <ele>32.9</ele>
        <time>2023-08-23T07:11:03Z</time>
      </trkpt>
      <trkpt lat="49.80592" lon="2.44742">
        <ele>32.9</ele>
        <time>2023-08-23T07:11:04Z</time>
      </trkpt>
      <trkpt lat="49.80591" lon="2.44742">
        <ele>32.9</ele>
        <time>2023-08-23T07:11:05Z</time>
      </trkpt>
      <trkpt lat="49.80589" lon="2.44744">
        <ele>32.9</ele>
        <time>2023-08-23T07:11:06Z</time>
      </trkpt>
      <trkpt lat="49.80588" lon="2.44744">
        <ele>32.9</ele>
        <time>2023-08-23T07:11:07Z</time>
      </trkpt>
      <trkpt lat="49.80587" lon="2.44745">
        <ele>32.9</ele>
        <time>2023-08-23T07:11:09Z</time>
      </trkpt>
      <trkpt lat="49.80586" lon="2.44745">
        <ele>32.9</ele>
        <time>2023-08-23T07:11:10Z</time>
      </trkpt>
      <trkpt lat="49.80586" lon="2.44746">
        <ele>32.9</ele>
        <time>2023-08-23T07:11:11Z</time>
      </trkpt>
      <trkpt lat="49.80585" lon="2.44746">
        <ele>32.9</ele>
        <time>2023-08-23T07:11:12Z</time>
      </trkpt>
      <trkpt lat="49.80584" lon="2.44747">
        <ele>32.9</ele>
        <time>2023-08-23T07:11:13Z</time>
      </trkpt>
      <trkpt lat="49.80583" lon="2.44747">
        <ele>33</ele>
        <time>2023-08-23T07:11:14Z</time>
      </trkpt>
      <trkpt lat="49.80582" lon="2.44748">
        <ele>33</ele>
        <time>2023-08-23T07:11:15Z</time>
      </trkpt>
      <trkpt lat="49.80581" lon="2.44749">
        <ele>33</ele>
        <time>2023-08-23T07:11:17Z</time>
      </trkpt>
      <trkpt lat="49.8058" lon="2.44749">
        <ele>33</ele>
        <time>2023-08-23T07:11:18Z</time>
      </trkpt>
      <trkpt lat="49.80579" lon="2.4475">
        <ele>33</ele>
        <time>2023-08-23T07:11:19Z</time>
      </trkpt>
      <trkpt lat="49.80577" lon="2.44751">
        <ele>33</ele>
        <time>2023-08-23T07:11:20Z</time>
      </trkpt>
      <trkpt lat="49.80576" lon="2.44752">
        <ele>33</ele>
        <time>2023-08-23T07:11:21Z</time>
      </trkpt>
      <trkpt lat="49.80575" lon="2.44753">
        <ele>33</ele>
        <time>2023-08-23T07:11:22Z</time>
      </trkpt>
      <trkpt lat="49.80574" lon="2.44754">
        <ele>33</ele>
        <time>2023-08-23T07:11:23Z</time>
      </trkpt>
      <trkpt lat="49.80573" lon="2.44754">
        <ele>33</ele>
        <time>2023-08-23T07:11:24Z</time>
      </trkpt>
      <trkpt lat="49.80572" lon="2.44756">
        <ele>33</ele>
        <time>2023-08-23T07:11:26Z</time>
      </trkpt>
      <trkpt lat="49.8057" lon="2.44757">
        <ele>33</ele>
        <time>2023-08-23T07:11:27Z</time>
      </trkpt>
      <trkpt lat="49.80569" lon="2.44758">
        <ele>33</ele>
        <time>2023-08-23T07:11:28Z</time>
      </trkpt>
      <trkpt lat="49.80568" lon="2.44759">
        <ele>33</ele>
        <time>2023-08-23T07:11:30Z</time>
      </trkpt>
      <trkpt lat="49.80567" lon="2.44759">
        <ele>33</ele>
        <time>2023-08-23T07:11:31Z</time>
      </trkpt>
      <trkpt lat="49.80565" lon="2.44761">
        <ele>33</ele>
        <time>2023-08-23T07:11:32Z</time>
      </trkpt>
      <trkpt lat="49.80565" lon="2.44762">
        <ele>33</ele>
        <time>2023-08-23T07:11:34Z</time>
      </trkpt>
      <trkpt lat="49.80564" lon="2.44762">
        <ele>33</ele>
        <time>2023-08-23T07:11:35Z</time>
      </trkpt>
      <trkpt lat="49.80563" lon="2.44763">
        <ele>33</ele>
        <time>2023-08-23T07:11:36Z</time>
      </trkpt>
      <trkpt lat="49.80562" lon="2.44764">
        <ele>33</ele>
        <time>2023-08-23T07:11:37Z</time>
      </trkpt>
      <trkpt lat="49.8056" lon="2.44765">
        <ele>33</ele>
        <time>2023-08-23T07:11:38Z</time>
      </trkpt>
      <trkpt lat="49.80559" lon="2.44768">
        <ele>33</ele>
        <time>2023-08-23T07:11:40Z</time>
      </trkpt>
      <trkpt lat="49.80558" lon="2.44769">
        <ele>33</ele>
        <time>2023-08-23T07:11:41Z</time>
      </trkpt>
      <trkpt lat="49.80557" lon="2.4477">
        <ele>33</ele>
        <time>2023-08-23T07:11:42Z</time>
      </trkpt>
      <trkpt lat="49.80556" lon="2.44771">
        <ele>33</ele>
        <time>2023-08-23T07:11:43Z</time>
      </trkpt>
      <trkpt lat="49.80553" lon="2.44773">
        <ele>33</ele>
        <time>2023-08-23T07:11:45Z</time>
      </trkpt>
      <trkpt lat="49.80553" lon="2.44774">
        <ele>33.1</ele>
        <time>2023-08-23T07:11:46Z</time>
      </trkpt>
      <trkpt lat="49.80552" lon="2.44775">
        <ele>33.1</ele>
        <time>2023-08-23T07:11:47Z</time>
      </trkpt>
      <trkpt lat="49.8055" lon="2.44778">
        <ele>33.1</ele>
        <time>2023-08-23T07:11:48Z</time>
      </trkpt>
      <trkpt lat="49.80549" lon="2.44779">
        <ele>33.1</ele>
        <time>2023-08-23T07:11:50Z</time>
      </trkpt>
      <trkpt lat="49.80548" lon="2.4478">
        <ele>33.1</ele>
        <time>2023-08-23T07:11:51Z</time>
      </trkpt>
      <trkpt lat="49.80547" lon="2.44781">
        <ele>33.1</ele>
        <time>2023-08-23T07:11:52Z</time>
      </trkpt>
      <trkpt lat="49.80546" lon="2.44782">
        <ele>33.1</ele>
        <time>2023-08-23T07:11:53Z</time>
      </trkpt>
      <trkpt lat="49.80545" lon="2.44783">
        <ele>33.1</ele>
        <time>2023-08-23T07:11:54Z</time>
      </trkpt>
      <trkpt lat="49.80544" lon="2.44784">
        <ele>33.1</ele>
        <time>2023-08-23T07:11:55Z</time>
      </trkpt>
      <trkpt lat="49.80543" lon="2.44784">
        <ele>33.1</ele>
        <time>2023-08-23T07:11:56Z</time>
      </trkpt>
      <trkpt lat="49.80542" lon="2.44785">
        <ele>33.1</ele>
        <time>2023-08-23T07:11:57Z</time>
      </trkpt>
      <trkpt lat="49.80541" lon="2.44786">
        <ele>33.1</ele>
        <time>2023-08-23T07:11:59Z</time>
      </trkpt>
      <trkpt lat="49.80541" lon="2.44786">
        <ele>33.1</ele>
        <time>2023-08-23T07:12:00Z</time>
      </trkpt>
      <trkpt lat="49.80539" lon="2.44788">
        <ele>33.1</ele>
        <time>2023-08-23T07:12:01Z</time>
      </trkpt>
      <trkpt lat="49.80538" lon="2.44788">
        <ele>33.1</ele>
        <time>2023-08-23T07:12:02Z</time>
      </trkpt>
      <trkpt lat="49.80537" lon="2.44789">
        <ele>33.1</ele>
        <time>2023-08-23T07:12:03Z</time>
      </trkpt>
      <trkpt lat="49.80536" lon="2.44789">
        <ele>33.1</ele>
        <time>2023-08-23T07:12:04Z</time>
      </trkpt>
      <trkpt lat="49.80534" lon="2.44791">
        <ele>33.1</ele>
        <time>2023-08-23T07:12:06Z</time>
      </trkpt>
      <trkpt lat="49.80533" lon="2.44792">
        <ele>33.1</ele>
        <time>2023-08-23T07:12:08Z</time>
      </trkpt>
      <trkpt lat="49.80532" lon="2.44792">
        <ele>33.1</ele>
        <time>2023-08-23T07:12:09Z</time>
      </trkpt>
      <trkpt lat="49.80531" lon="2.44793">
        <ele>33.1</ele>
        <time>2023-08-23T07:12:11Z</time>
      </trkpt>
      <trkpt lat="49.8053" lon="2.44794">
        <ele>33.1</ele>
        <time>2023-08-23T07:12:12Z</time>
      </trkpt>
      <trkpt lat="49.80529" lon="2.44794">
        <ele>33.1</ele>
        <time>2023-08-23T07:12:13Z</time>
      </trkpt>
      <trkpt lat="49.80528" lon="2.44795">
        <ele>33.1</ele>
        <time>2023-08-23T07:12:14Z</time>
      </trkpt>
      <trkpt lat="49.80526" lon="2.44796">
        <ele>33.1</ele>
        <time>2023-08-23T07:12:15Z</time>
      </trkpt>
      <trkpt lat="49.80525" lon="2.44796">
        <ele>33.1</ele>
        <time>2023-08-23T07:12:16Z</time>
      </trkpt>
      <trkpt lat="49.80524" lon="2.44797">
        <ele>33.1</ele>
        <time>2023-08-23T07:12:17Z</time>
      </trkpt>
      <trkpt lat="49.80522" lon="2.44797">
        <ele>33.1</ele>
        <time>2023-08-23T07:12:19Z</time>
      </trkpt>
      <trkpt lat="49.80521" lon="2.44798">
        <ele>33.1</ele>
        <time>2023-08-23T07:12:20Z</time>
      </trkpt>
      <trkpt lat="49.8052" lon="2.44798">
        <ele>33.1</ele>
        <time>2023-08-23T07:12:21Z</time>
      </trkpt>
      <trkpt lat="49.80518" lon="2.44799">
        <ele>33.1</ele>
        <time>2023-08-23T07:12:22Z</time>
      </trkpt>
      <trkpt lat="49.80517" lon="2.44799">
        <ele>33.1</ele>
        <time>2023-08-23T07:12:23Z</time>
      </trkpt>
      <trkpt lat="49.80517" lon="2.448">
        <ele>33.1</ele>
        <time>2023-08-23T07:12:24Z</time>
      </trkpt>
      <trkpt lat="49.80516" lon="2.448">
        <ele>33.1</ele>
        <time>2023-08-23T07:12:25Z</time>
      </trkpt>
      <trkpt lat="49.80514" lon="2.448">
        <ele>33.1</ele>
        <time>2023-08-23T07:12:26Z</time>
      </trkpt>
      <trkpt lat="49.80513" lon="2.44801">
        <ele>33.1</ele>
        <time>2023-08-23T07:12:27Z</time>
      </trkpt>
      <trkpt lat="49.80511" lon="2.44801">
        <ele>33</ele>
        <time>2023-08-23T07:12:29Z</time>
      </trkpt>
      <trkpt lat="49.80509" lon="2.44801">
        <ele>33</ele>
        <time>2023-08-23T07:12:30Z</time>
      </trkpt>
      <trkpt lat="49.80506" lon="2.44801">
        <ele>33</ele>
        <time>2023-08-23T07:12:31Z</time>
      </trkpt>
      <trkpt lat="49.80505" lon="2.44801">
        <ele>33</ele>
        <time>2023-08-23T07:12:32Z</time>
      </trkpt>
      <trkpt lat="49.80503" lon="2.448">
        <ele>33</ele>
        <time>2023-08-23T07:12:34Z</time>
      </trkpt>
      <trkpt lat="49.80502" lon="2.448">
        <ele>33</ele>
        <time>2023-08-23T07:12:35Z</time>
      </trkpt>
      <trkpt lat="49.805" lon="2.448">
        <ele>33</ele>
        <time>2023-08-23T07:12:36Z</time>
      </trkpt>
      <trkpt lat="49.80499" lon="2.44799">
        <ele>33</ele>
        <time>2023-08-23T07:12:37Z</time>
      </trkpt>
      <trkpt lat="49.80498" lon="2.44799">
        <ele>33</ele>
        <time>2023-08-23T07:12:38Z</time>
      </trkpt>
      <trkpt lat="49.80497" lon="2.44799">
        <ele>33</ele>
        <time>2023-08-23T07:12:40Z</time>
      </trkpt>
      <trkpt lat="49.80494" lon="2.44799">
        <ele>33</ele>
        <time>2023-08-23T07:12:42Z</time>
      </trkpt>
      <trkpt lat="49.80493" lon="2.44798">
        <ele>33</ele>
        <time>2023-08-23T07:12:44Z</time>
      </trkpt>
      <trkpt lat="49.80491" lon="2.44798">
        <ele>32.9</ele>
        <time>2023-08-23T07:12:45Z</time>
      </trkpt>
      <trkpt lat="49.8049" lon="2.44798">
        <ele>32.9</ele>
        <time>2023-08-23T07:12:46Z</time>
      </trkpt>
      <trkpt lat="49.80489" lon="2.44798">
        <ele>32.9</ele>
        <time>2023-08-23T07:12:47Z</time>
      </trkpt>
      <trkpt lat="49.80489" lon="2.44797">
        <ele>32.9</ele>
        <time>2023-08-23T07:12:48Z</time>
      </trkpt>
      <trkpt lat="49.80487" lon="2.44797">
        <ele>32.9</ele>
        <time>2023-08-23T07:12:49Z</time>
      </trkpt>
      <trkpt lat="49.80487" lon="2.44797">
        <ele>32.9</ele>
        <time>2023-08-23T07:12:50Z</time>
      </trkpt>
      <trkpt lat="49.80486" lon="2.44797">
        <ele>32.9</ele>
        <time>2023-08-23T07:12:52Z</time>
      </trkpt>
      <trkpt lat="49.80486" lon="2.44797">
        <ele>32.9</ele>
        <time>2023-08-23T07:12:53Z</time>
      </trkpt>
      <trkpt lat="49.80485" lon="2.44797">
        <ele>32.9</ele>
        <time>2023-08-23T07:12:54Z</time>
      </trkpt>
      <trkpt lat="49.80483" lon="2.44797">
        <ele>32.9</ele>
        <time>2023-08-23T07:12:55Z</time>
      </trkpt>
      <trkpt lat="49.80482" lon="2.44797">
        <ele>32.9</ele>
        <time>2023-08-23T07:12:56Z</time>
      </trkpt>
      <trkpt lat="49.80481" lon="2.44797">
        <ele>32.9</ele>
        <time>2023-08-23T07:12:57Z</time>
      </trkpt>
      <trkpt lat="49.8048" lon="2.44797">
        <ele>32.9</ele>
        <time>2023-08-23T07:12:58Z</time>
      </trkpt>
      <trkpt lat="49.80477" lon="2.44797">
        <ele>32.9</ele>
        <time>2023-08-23T07:13:00Z</time>
      </trkpt>
      <trkpt lat="49.80475" lon="2.44796">
        <ele>32.9</ele>
        <time>2023-08-23T07:13:02Z</time>
      </trkpt>
      <trkpt lat="49.80474" lon="2.44796">
        <ele>32.9</ele>
        <time>2023-08-23T07:13:04Z</time>
      </trkpt>
      <trkpt lat="49.80471" lon="2.44796">
        <ele>32.9</ele>
        <time>2023-08-23T07:13:05Z</time>
      </trkpt>
      <trkpt lat="49.8047" lon="2.44796">
        <ele>32.9</ele>
        <time>2023-08-23T07:13:06Z</time>
      </trkpt>
      <trkpt lat="49.80467" lon="2.44795">
        <ele>32.9</ele>
        <time>2023-08-23T07:13:07Z</time>
      </trkpt>
      <trkpt lat="49.80466" lon="2.44795">
        <ele>32.9</ele>
        <time>2023-08-23T07:13:08Z</time>
      </trkpt>
      <trkpt lat="49.80463" lon="2.44794">
        <ele>32.9</ele>
        <time>2023-08-23T07:13:09Z</time>
      </trkpt>
      <trkpt lat="49.80463" lon="2.44794">
        <ele>32.9</ele>
        <time>2023-08-23T07:13:10Z</time>
      </trkpt>
      <trkpt lat="49.80458" lon="2.44793">
        <ele>32.9</ele>
        <time>2023-08-23T07:13:12Z</time>
      </trkpt>
      <trkpt lat="49.80457" lon="2.44792">
        <ele>32.9</ele>
        <time>2023-08-23T07:13:14Z</time>
      </trkpt>
      <trkpt lat="49.80455" lon="2.44792">
        <ele>32.9</ele>
        <time>2023-08-23T07:13:15Z</time>
      </trkpt>
      <trkpt lat="49.80454" lon="2.44792">
        <ele>32.9</ele>
        <time>2023-08-23T07:13:16Z</time>
      </trkpt>
      <trkpt lat="49.80452" lon="2.44792">
        <ele>32.9</ele>
        <time>2023-08-23T07:13:18Z</time>
      </trkpt>
      <trkpt lat="49.8045" lon="2.44791">
        <ele>32.9</ele>
        <time>2023-08-23T07:13:19Z</time>
      </trkpt>
      <trkpt lat="49.80448" lon="2.44791">
        <ele>32.9</ele>
        <time>2023-08-23T07:13:20Z</time>
      </trkpt>
      <trkpt lat="49.80447" lon="2.4479">
        <ele>32.9</ele>
        <time>2023-08-23T07:13:21Z</time>
      </trkpt>
      <trkpt lat="49.80445" lon="2.4479">
        <ele>32.9</ele>
        <time>2023-08-23T07:13:22Z</time>
      </trkpt>
      <trkpt lat="49.80444" lon="2.4479">
        <ele>32.9</ele>
        <time>2023-08-23T07:13:23Z</time>
      </trkpt>
      <trkpt lat="49.80443" lon="2.44789">
        <ele>32.9</ele>
        <time>2023-08-23T07:13:25Z</time>
      </trkpt>
      <trkpt lat="49.80442" lon="2.44789">
        <ele>32.9</ele>
        <time>2023-08-23T07:13:26Z</time>
      </trkpt>
      <trkpt lat="49.8044" lon="2.44788">
        <ele>32.9</ele>
        <time>2023-08-23T07:13:27Z</time>
      </trkpt>
      <trkpt lat="49.80439" lon="2.44787">
        <ele>32.9</ele>
        <time>2023-08-23T07:13:28Z</time>
      </trkpt>
      <trkpt lat="49.80438" lon="2.44787">
        <ele>32.9</ele>
        <time>2023-08-23T07:13:29Z</time>
      </trkpt>
      <trkpt lat="49.80436" lon="2.44786">
        <ele>33</ele>
        <time>2023-08-23T07:13:30Z</time>
      </trkpt>
      <trkpt lat="49.80435" lon="2.44786">
        <ele>33</ele>
        <time>2023-08-23T07:13:32Z</time>
      </trkpt>
      <trkpt lat="49.80434" lon="2.44786">
        <ele>33</ele>
        <time>2023-08-23T07:13:33Z</time>
      </trkpt>
      <trkpt lat="49.80433" lon="2.44785">
        <ele>33</ele>
        <time>2023-08-23T07:13:35Z</time>
      </trkpt>
      <trkpt lat="49.80432" lon="2.44784">
        <ele>33</ele>
        <time>2023-08-23T07:13:36Z</time>
      </trkpt>
      <trkpt lat="49.80431" lon="2.44784">
        <ele>33</ele>
        <time>2023-08-23T07:13:37Z</time>
      </trkpt>
      <trkpt lat="49.80431" lon="2.44783">
        <ele>33</ele>
        <time>2023-08-23T07:13:38Z</time>
      </trkpt>
      <trkpt lat="49.80429" lon="2.44783">
        <ele>33</ele>
        <time>2023-08-23T07:13:39Z</time>
      </trkpt>
      <trkpt lat="49.80428" lon="2.44782">
        <ele>33</ele>
        <time>2023-08-23T07:13:40Z</time>
      </trkpt>
      <trkpt lat="49.80427" lon="2.44781">
        <ele>33</ele>
        <time>2023-08-23T07:13:41Z</time>
      </trkpt>
      <trkpt lat="49.80426" lon="2.4478">
        <ele>33</ele>
        <time>2023-08-23T07:13:42Z</time>
      </trkpt>
      <trkpt lat="49.80426" lon="2.4478">
        <ele>33</ele>
        <time>2023-08-23T07:13:44Z</time>
      </trkpt>
      <trkpt lat="49.80426" lon="2.4478">
        <ele>33</ele>
        <time>2023-08-23T07:13:45Z</time>
      </trkpt>
      <trkpt lat="49.80424" lon="2.44779">
        <ele>33</ele>
        <time>2023-08-23T07:13:46Z</time>
      </trkpt>
      <trkpt lat="49.80423" lon="2.44778">
        <ele>33</ele>
        <time>2023-08-23T07:13:47Z</time>
      </trkpt>
      <trkpt lat="49.80422" lon="2.44778">
        <ele>33</ele>
        <time>2023-08-23T07:13:48Z</time>
      </trkpt>
      <trkpt lat="49.80421" lon="2.44777">
        <ele>33</ele>
        <time>2023-08-23T07:13:50Z</time>
      </trkpt>
      <trkpt lat="49.8042" lon="2.44777">
        <ele>33</ele>
        <time>2023-08-23T07:13:51Z</time>
      </trkpt>
      <trkpt lat="49.80419" lon="2.44776">
        <ele>33</ele>
        <time>2023-08-23T07:13:52Z</time>
      </trkpt>
      <trkpt lat="49.80417" lon="2.44775">
        <ele>33</ele>
        <time>2023-08-23T07:13:53Z</time>
      </trkpt>
      <trkpt lat="49.80416" lon="2.44775">
        <ele>32.9</ele>
        <time>2023-08-23T07:13:54Z</time>
      </trkpt>
      <trkpt lat="49.80415" lon="2.44775">
        <ele>32.9</ele>
        <time>2023-08-23T07:13:55Z</time>
      </trkpt>
      <trkpt lat="49.80413" lon="2.44774">
        <ele>32.9</ele>
        <time>2023-08-23T07:13:56Z</time>
      </trkpt>
      <trkpt lat="49.80412" lon="2.44774">
        <ele>32.9</ele>
        <time>2023-08-23T07:13:57Z</time>
      </trkpt>
      <trkpt lat="49.8041" lon="2.44773">
        <ele>32.9</ele>
        <time>2023-08-23T07:13:59Z</time>
      </trkpt>
      <trkpt lat="49.80409" lon="2.44773">
        <ele>32.9</ele>
        <time>2023-08-23T07:14:00Z</time>
      </trkpt>
      <trkpt lat="49.80408" lon="2.44772">
        <ele>32.8</ele>
        <time>2023-08-23T07:14:01Z</time>
      </trkpt>
      <trkpt lat="49.80407" lon="2.44772">
        <ele>32.8</ele>
        <time>2023-08-23T07:14:02Z</time>
      </trkpt>
      <trkpt lat="49.80405" lon="2.44771">
        <ele>32.8</ele>
        <time>2023-08-23T07:14:03Z</time>
      </trkpt>
      <trkpt lat="49.80404" lon="2.44771">
        <ele>32.8</ele>
        <time>2023-08-23T07:14:04Z</time>
      </trkpt>
      <trkpt lat="49.80403" lon="2.44771">
        <ele>32.8</ele>
        <time>2023-08-23T07:14:05Z</time>
      </trkpt>
      <trkpt lat="49.80402" lon="2.44771">
        <ele>32.7</ele>
        <time>2023-08-23T07:14:07Z</time>
      </trkpt>
      <trkpt lat="49.80401" lon="2.44772">
        <ele>32.7</ele>
        <time>2023-08-23T07:14:08Z</time>
      </trkpt>
      <trkpt lat="49.804" lon="2.44772">
        <ele>32.7</ele>
        <time>2023-08-23T07:14:09Z</time>
      </trkpt>
      <trkpt lat="49.80399" lon="2.44773">
        <ele>32.7</ele>
        <time>2023-08-23T07:14:10Z</time>
      </trkpt>
      <trkpt lat="49.80397" lon="2.44773">
        <ele>32.7</ele>
        <time>2023-08-23T07:14:11Z</time>
      </trkpt>
      <trkpt lat="49.80396" lon="2.44772">
        <ele>32.6</ele>
        <time>2023-08-23T07:14:12Z</time>
      </trkpt>
      <trkpt lat="49.80395" lon="2.44772">
        <ele>32.6</ele>
        <time>2023-08-23T07:14:13Z</time>
      </trkpt>
      <trkpt lat="49.80393" lon="2.44772">
        <ele>32.6</ele>
        <time>2023-08-23T07:14:14Z</time>
      </trkpt>
      <trkpt lat="49.80392" lon="2.44772">
        <ele>32.6</ele>
        <time>2023-08-23T07:14:16Z</time>
      </trkpt>
      <trkpt lat="49.80391" lon="2.44772">
        <ele>32.6</ele>
        <time>2023-08-23T07:14:17Z</time>
      </trkpt>
      <trkpt lat="49.80389" lon="2.44771">
        <ele>32.5</ele>
        <time>2023-08-23T07:14:18Z</time>
      </trkpt>
      <trkpt lat="49.80388" lon="2.44771">
        <ele>32.5</ele>
        <time>2023-08-23T07:14:19Z</time>
      </trkpt>
      <trkpt lat="49.80386" lon="2.44771">
        <ele>32.5</ele>
        <time>2023-08-23T07:14:21Z</time>
      </trkpt>
      <trkpt lat="49.80385" lon="2.44771">
        <ele>32.5</ele>
        <time>2023-08-23T07:14:22Z</time>
      </trkpt>
      <trkpt lat="49.80383" lon="2.4477">
        <ele>32.5</ele>
        <time>2023-08-23T07:14:23Z</time>
      </trkpt>
      <trkpt lat="49.80381" lon="2.4477">
        <ele>32.4</ele>
        <time>2023-08-23T07:14:24Z</time>
      </trkpt>
      <trkpt lat="49.80378" lon="2.44769">
        <ele>32.4</ele>
        <time>2023-08-23T07:14:25Z</time>
      </trkpt>
      <trkpt lat="49.80377" lon="2.44769">
        <ele>32.4</ele>
        <time>2023-08-23T07:14:26Z</time>
      </trkpt>
      <trkpt lat="49.80373" lon="2.44768">
        <ele>32.4</ele>
        <time>2023-08-23T07:14:28Z</time>
      </trkpt>
      <trkpt lat="49.80372" lon="2.44768">
        <ele>32.4</ele>
        <time>2023-08-23T07:14:29Z</time>
      </trkpt>
      <trkpt lat="49.80371" lon="2.44768">
        <ele>32.3</ele>
        <time>2023-08-23T07:14:30Z</time>
      </trkpt>
      <trkpt lat="49.8037" lon="2.44768">
        <ele>32.3</ele>
        <time>2023-08-23T07:14:31Z</time>
      </trkpt>
      <trkpt lat="49.80367" lon="2.44768">
        <ele>32.3</ele>
        <time>2023-08-23T07:14:32Z</time>
      </trkpt>
      <trkpt lat="49.80367" lon="2.44768">
        <ele>32.3</ele>
        <time>2023-08-23T07:14:34Z</time>
      </trkpt>
      <trkpt lat="49.80366" lon="2.44768">
        <ele>32.3</ele>
        <time>2023-08-23T07:14:35Z</time>
      </trkpt>
      <trkpt lat="49.80364" lon="2.44769">
        <ele>32.3</ele>
        <time>2023-08-23T07:14:36Z</time>
      </trkpt>
      <trkpt lat="49.80363" lon="2.44769">
        <ele>32.3</ele>
        <time>2023-08-23T07:14:37Z</time>
      </trkpt>
      <trkpt lat="49.80361" lon="2.44769">
        <ele>32.3</ele>
        <time>2023-08-23T07:14:38Z</time>
      </trkpt>
      <trkpt lat="49.8036" lon="2.44769">
        <ele>32.3</ele>
        <time>2023-08-23T07:14:39Z</time>
      </trkpt>
      <trkpt lat="49.80358" lon="2.44769">
        <ele>32.3</ele>
        <time>2023-08-23T07:14:40Z</time>
      </trkpt>
      <trkpt lat="49.80357" lon="2.4477">
        <ele>32.3</ele>
        <time>2023-08-23T07:14:41Z</time>
      </trkpt>
      <trkpt lat="49.80356" lon="2.4477">
        <ele>32.3</ele>
        <time>2023-08-23T07:14:42Z</time>
      </trkpt>
      <trkpt lat="49.80355" lon="2.4477">
        <ele>32.3</ele>
        <time>2023-08-23T07:14:44Z</time>
      </trkpt>
      <trkpt lat="49.80353" lon="2.4477">
        <ele>32.3</ele>
        <time>2023-08-23T07:14:45Z</time>
      </trkpt>
      <trkpt lat="49.80351" lon="2.4477">
        <ele>32.3</ele>
        <time>2023-08-23T07:14:46Z</time>
      </trkpt>
      <trkpt lat="49.80351" lon="2.4477">
        <ele>32.3</ele>
        <time>2023-08-23T07:14:47Z</time>
      </trkpt>
      <trkpt lat="49.8035" lon="2.4477">
        <ele>32.3</ele>
        <time>2023-08-23T07:14:48Z</time>
      </trkpt>
      <trkpt lat="49.80348" lon="2.4477">
        <ele>32.3</ele>
        <time>2023-08-23T07:14:49Z</time>
      </trkpt>
      <trkpt lat="49.80347" lon="2.44771">
        <ele>32.3</ele>
        <time>2023-08-23T07:14:51Z</time>
      </trkpt>
      <trkpt lat="49.80346" lon="2.44771">
        <ele>32.3</ele>
        <time>2023-08-23T07:14:52Z</time>
      </trkpt>
      <trkpt lat="49.80344" lon="2.44772">
        <ele>32.3</ele>
        <time>2023-08-23T07:14:54Z</time>
      </trkpt>
      <trkpt lat="49.80343" lon="2.44772">
        <ele>32.3</ele>
        <time>2023-08-23T07:14:55Z</time>
      </trkpt>
      <trkpt lat="49.80342" lon="2.44773">
        <ele>32.3</ele>
        <time>2023-08-23T07:14:56Z</time>
      </trkpt>
      <trkpt lat="49.80341" lon="2.44773">
        <ele>32.3</ele>
        <time>2023-08-23T07:14:57Z</time>
      </trkpt>
      <trkpt lat="49.8034" lon="2.44773">
        <ele>32.3</ele>
        <time>2023-08-23T07:14:58Z</time>
      </trkpt>
      <trkpt lat="49.80339" lon="2.44773">
        <ele>32.3</ele>
        <time>2023-08-23T07:14:59Z</time>
      </trkpt>
      <trkpt lat="49.80337" lon="2.44773">
        <ele>32.3</ele>
        <time>2023-08-23T07:15:00Z</time>
      </trkpt>
      <trkpt lat="49.80336" lon="2.44774">
        <ele>32.3</ele>
        <time>2023-08-23T07:15:01Z</time>
      </trkpt>
      <trkpt lat="49.80335" lon="2.44774">
        <ele>32.3</ele>
        <time>2023-08-23T07:15:02Z</time>
      </trkpt>
      <trkpt lat="49.80334" lon="2.44774">
        <ele>32.3</ele>
        <time>2023-08-23T07:15:03Z</time>
      </trkpt>
      <trkpt lat="49.80333" lon="2.44774">
        <ele>32.3</ele>
        <time>2023-08-23T07:15:05Z</time>
      </trkpt>
      <trkpt lat="49.80333" lon="2.44774">
        <ele>32.3</ele>
        <time>2023-08-23T07:15:06Z</time>
      </trkpt>
      <trkpt lat="49.80332" lon="2.44774">
        <ele>32.3</ele>
        <time>2023-08-23T07:15:07Z</time>
      </trkpt>
      <trkpt lat="49.80331" lon="2.44774">
        <ele>32.3</ele>
        <time>2023-08-23T07:15:08Z</time>
      </trkpt>
      <trkpt lat="49.80329" lon="2.44774">
        <ele>32.3</ele>
        <time>2023-08-23T07:15:09Z</time>
      </trkpt>
      <trkpt lat="49.80328" lon="2.44774">
        <ele>32.3</ele>
        <time>2023-08-23T07:15:10Z</time>
      </trkpt>
      <trkpt lat="49.80327" lon="2.44773">
        <ele>32.3</ele>
        <time>2023-08-23T07:15:11Z</time>
      </trkpt>
      <trkpt lat="49.80326" lon="2.44773">
        <ele>32.3</ele>
        <time>2023-08-23T07:15:12Z</time>
      </trkpt>
      <trkpt lat="49.80325" lon="2.44773">
        <ele>32.3</ele>
        <time>2023-08-23T07:15:13Z</time>
      </trkpt>
      <trkpt lat="49.80323" lon="2.44773">
        <ele>32.3</ele>
        <time>2023-08-23T07:15:15Z</time>
      </trkpt>
      <trkpt lat="49.80322" lon="2.44773">
        <ele>32.3</ele>
        <time>2023-08-23T07:15:16Z</time>
      </trkpt>
      <trkpt lat="49.80321" lon="2.44773">
        <ele>32.3</ele>
        <time>2023-08-23T07:15:17Z</time>
      </trkpt>
      <trkpt lat="49.8032" lon="2.44773">
        <ele>32.3</ele>
        <time>2023-08-23T07:15:18Z</time>
      </trkpt>
      <trkpt lat="49.80318" lon="2.44772">
        <ele>32.3</ele>
        <time>2023-08-23T07:15:19Z</time>
      </trkpt>
      <trkpt lat="49.80317" lon="2.44772">
        <ele>32.3</ele>
        <time>2023-08-23T07:15:21Z</time>
      </trkpt>
      <trkpt lat="49.80316" lon="2.44772">
        <ele>32.3</ele>
        <time>2023-08-23T07:15:22Z</time>
      </trkpt>
      <trkpt lat="49.80315" lon="2.44772">
        <ele>32.3</ele>
        <time>2023-08-23T07:15:23Z</time>
      </trkpt>
      <trkpt lat="49.80314" lon="2.44773">
        <ele>32.3</ele>
        <time>2023-08-23T07:15:24Z</time>
      </trkpt>
      <trkpt lat="49.80313" lon="2.44773">
        <ele>32.3</ele>
        <time>2023-08-23T07:15:25Z</time>
      </trkpt>
      <trkpt lat="49.80312" lon="2.44773">
        <ele>32.3</ele>
        <time>2023-08-23T07:15:26Z</time>
      </trkpt>
      <trkpt lat="49.8031" lon="2.44772">
        <ele>32.3</ele>
        <time>2023-08-23T07:15:27Z</time>
      </trkpt>
      <trkpt lat="49.80309" lon="2.44772">
        <ele>32.3</ele>
        <time>2023-08-23T07:15:28Z</time>
      </trkpt>
      <trkpt lat="49.80308" lon="2.44772">
        <ele>32.3</ele>
        <time>2023-08-23T07:15:29Z</time>
      </trkpt>
      <trkpt lat="49.80307" lon="2.44772">
        <ele>32.3</ele>
        <time>2023-08-23T07:15:31Z</time>
      </trkpt>
      <trkpt lat="49.80305" lon="2.44773">
        <ele>32.3</ele>
        <time>2023-08-23T07:15:32Z</time>
      </trkpt>
      <trkpt lat="49.80303" lon="2.44773">
        <ele>32.3</ele>
        <time>2023-08-23T07:15:33Z</time>
      </trkpt>
      <trkpt lat="49.80301" lon="2.44773">
        <ele>32.4</ele>
        <time>2023-08-23T07:15:35Z</time>
      </trkpt>
      <trkpt lat="49.803" lon="2.44773">
        <ele>32.4</ele>
        <time>2023-08-23T07:15:36Z</time>
      </trkpt>
      <trkpt lat="49.803" lon="2.44773">
        <ele>32.4</ele>
        <time>2023-08-23T07:15:37Z</time>
      </trkpt>
      <trkpt lat="49.80298" lon="2.44774">
        <ele>32.4</ele>
        <time>2023-08-23T07:15:38Z</time>
      </trkpt>
      <trkpt lat="49.80297" lon="2.44774">
        <ele>32.4</ele>
        <time>2023-08-23T07:15:39Z</time>
      </trkpt>
      <trkpt lat="49.80296" lon="2.44774">
        <ele>32.4</ele>
        <time>2023-08-23T07:15:40Z</time>
      </trkpt>
      <trkpt lat="49.80295" lon="2.44775">
        <ele>32.4</ele>
        <time>2023-08-23T07:15:41Z</time>
      </trkpt>
      <trkpt lat="49.80293" lon="2.44775">
        <ele>32.4</ele>
        <time>2023-08-23T07:15:43Z</time>
      </trkpt>
      <trkpt lat="49.80292" lon="2.44775">
        <ele>32.4</ele>
        <time>2023-08-23T07:15:44Z</time>
      </trkpt>
      <trkpt lat="49.8029" lon="2.44776">
        <ele>32.3</ele>
        <time>2023-08-23T07:15:45Z</time>
      </trkpt>
      <trkpt lat="49.80287" lon="2.44776">
        <ele>32.3</ele>
        <time>2023-08-23T07:15:46Z</time>
      </trkpt>
      <trkpt lat="49.80286" lon="2.44776">
        <ele>32.3</ele>
        <time>2023-08-23T07:15:48Z</time>
      </trkpt>
      <trkpt lat="49.80285" lon="2.44776">
        <ele>32.3</ele>
        <time>2023-08-23T07:15:49Z</time>
      </trkpt>
      <trkpt lat="49.80283" lon="2.44776">
        <ele>32.3</ele>
        <time>2023-08-23T07:15:50Z</time>
      </trkpt>
      <trkpt lat="49.80281" lon="2.44775">
        <ele>32.3</ele>
        <time>2023-08-23T07:15:51Z</time>
      </trkpt>
      <trkpt lat="49.8028" lon="2.44774">
        <ele>32.3</ele>
        <time>2023-08-23T07:15:52Z</time>
      </trkpt>
      <trkpt lat="49.80278" lon="2.44774">
        <ele>32.3</ele>
        <time>2023-08-23T07:15:53Z</time>
      </trkpt>
      <trkpt lat="49.80277" lon="2.44774">
        <ele>32.3</ele>
        <time>2023-08-23T07:15:54Z</time>
      </trkpt>
      <trkpt lat="49.80276" lon="2.44774">
        <ele>32.3</ele>
        <time>2023-08-23T07:15:55Z</time>
      </trkpt>
      <trkpt lat="49.80274" lon="2.44774">
        <ele>32.2</ele>
        <time>2023-08-23T07:15:56Z</time>
      </trkpt>
      <trkpt lat="49.80273" lon="2.44774">
        <ele>32.2</ele>
        <time>2023-08-23T07:15:58Z</time>
      </trkpt>
      <trkpt lat="49.80271" lon="2.44775">
        <ele>32.2</ele>
        <time>2023-08-23T07:15:59Z</time>
      </trkpt>
      <trkpt lat="49.8027" lon="2.44775">
        <ele>32.2</ele>
        <time>2023-08-23T07:16:00Z</time>
      </trkpt>
      <trkpt lat="49.80269" lon="2.44775">
        <ele>32.2</ele>
        <time>2023-08-23T07:16:01Z</time>
      </trkpt>
      <trkpt lat="49.80267" lon="2.44774">
        <ele>32.2</ele>
        <time>2023-08-23T07:16:02Z</time>
      </trkpt>
      <trkpt lat="49.80266" lon="2.44774">
        <ele>32.2</ele>
        <time>2023-08-23T07:16:03Z</time>
      </trkpt>
      <trkpt lat="49.80266" lon="2.44774">
        <ele>32.2</ele>
        <time>2023-08-23T07:16:04Z</time>
      </trkpt>
      <trkpt lat="49.80264" lon="2.44774">
        <ele>32.2</ele>
        <time>2023-08-23T07:16:05Z</time>
      </trkpt>
      <trkpt lat="49.80263" lon="2.44773">
        <ele>32.2</ele>
        <time>2023-08-23T07:16:07Z</time>
      </trkpt>
      <trkpt lat="49.80261" lon="2.44773">
        <ele>32.2</ele>
        <time>2023-08-23T07:16:08Z</time>
      </trkpt>
      <trkpt lat="49.8026" lon="2.44773">
        <ele>32.2</ele>
        <time>2023-08-23T07:16:09Z</time>
      </trkpt>
      <trkpt lat="49.80258" lon="2.44773">
        <ele>32.1</ele>
        <time>2023-08-23T07:16:10Z</time>
      </trkpt>
      <trkpt lat="49.80257" lon="2.44773">
        <ele>32.1</ele>
        <time>2023-08-23T07:16:11Z</time>
      </trkpt>
      <trkpt lat="49.80254" lon="2.44774">
        <ele>32.1</ele>
        <time>2023-08-23T07:16:12Z</time>
      </trkpt>
      <trkpt lat="49.80253" lon="2.44774">
        <ele>32.1</ele>
        <time>2023-08-23T07:16:13Z</time>
      </trkpt>
      <trkpt lat="49.80251" lon="2.44774">
        <ele>32.1</ele>
        <time>2023-08-23T07:16:14Z</time>
      </trkpt>
      <trkpt lat="49.80249" lon="2.44774">
        <ele>32.1</ele>
        <time>2023-08-23T07:16:16Z</time>
      </trkpt>
      <trkpt lat="49.80248" lon="2.44774">
        <ele>32.1</ele>
        <time>2023-08-23T07:16:17Z</time>
      </trkpt>
      <trkpt lat="49.80246" lon="2.44774">
        <ele>32.1</ele>
        <time>2023-08-23T07:16:18Z</time>
      </trkpt>
      <trkpt lat="49.80245" lon="2.44774">
        <ele>32</ele>
        <time>2023-08-23T07:16:19Z</time>
      </trkpt>
      <trkpt lat="49.80243" lon="2.44774">
        <ele>32</ele>
        <time>2023-08-23T07:16:20Z</time>
      </trkpt>
      <trkpt lat="49.80242" lon="2.44775">
        <ele>32</ele>
        <time>2023-08-23T07:16:21Z</time>
      </trkpt>
      <trkpt lat="49.80241" lon="2.44775">
        <ele>32</ele>
        <time>2023-08-23T07:16:22Z</time>
      </trkpt>
      <trkpt lat="49.80239" lon="2.44776">
        <ele>32</ele>
        <time>2023-08-23T07:16:24Z</time>
      </trkpt>
      <trkpt lat="49.80238" lon="2.44776">
        <ele>32</ele>
        <time>2023-08-23T07:16:25Z</time>
      </trkpt>
      <trkpt lat="49.80236" lon="2.44777">
        <ele>32</ele>
        <time>2023-08-23T07:16:26Z</time>
      </trkpt>
      <trkpt lat="49.80236" lon="2.44778">
        <ele>32</ele>
        <time>2023-08-23T07:16:27Z</time>
      </trkpt>
      <trkpt lat="49.80235" lon="2.44778">
        <ele>32</ele>
        <time>2023-08-23T07:16:28Z</time>
      </trkpt>
      <trkpt lat="49.80234" lon="2.44779">
        <ele>32</ele>
        <time>2023-08-23T07:16:29Z</time>
      </trkpt>
      <trkpt lat="49.80232" lon="2.44779">
        <ele>32</ele>
        <time>2023-08-23T07:16:30Z</time>
      </trkpt>
      <trkpt lat="49.80231" lon="2.44779">
        <ele>32</ele>
        <time>2023-08-23T07:16:32Z</time>
      </trkpt>
      <trkpt lat="49.8023" lon="2.44779">
        <ele>32</ele>
        <time>2023-08-23T07:16:33Z</time>
      </trkpt>
      <trkpt lat="49.80229" lon="2.4478">
        <ele>32</ele>
        <time>2023-08-23T07:16:34Z</time>
      </trkpt>
      <trkpt lat="49.80228" lon="2.4478">
        <ele>32</ele>
        <time>2023-08-23T07:16:35Z</time>
      </trkpt>
      <trkpt lat="49.80227" lon="2.4478">
        <ele>32</ele>
        <time>2023-08-23T07:16:36Z</time>
      </trkpt>
      <trkpt lat="49.80225" lon="2.4478">
        <ele>32</ele>
        <time>2023-08-23T07:16:37Z</time>
      </trkpt>
      <trkpt lat="49.80225" lon="2.4478">
        <ele>32</ele>
        <time>2023-08-23T07:16:38Z</time>
      </trkpt>
      <trkpt lat="49.80224" lon="2.4478">
        <ele>32</ele>
        <time>2023-08-23T07:16:39Z</time>
      </trkpt>
      <trkpt lat="49.80223" lon="2.4478">
        <ele>32</ele>
        <time>2023-08-23T07:16:40Z</time>
      </trkpt>
      <trkpt lat="49.80222" lon="2.4478">
        <ele>32</ele>
        <time>2023-08-23T07:16:42Z</time>
      </trkpt>
      <trkpt lat="49.80221" lon="2.44781">
        <ele>32</ele>
        <time>2023-08-23T07:16:43Z</time>
      </trkpt>
      <trkpt lat="49.8022" lon="2.44781">
        <ele>32</ele>
        <time>2023-08-23T07:16:44Z</time>
      </trkpt>
      <trkpt lat="49.80219" lon="2.4478">
        <ele>32</ele>
        <time>2023-08-23T07:16:45Z</time>
      </trkpt>
      <trkpt lat="49.80217" lon="2.4478">
        <ele>32</ele>
        <time>2023-08-23T07:16:46Z</time>
      </trkpt>
      <trkpt lat="49.80216" lon="2.44781">
        <ele>32</ele>
        <time>2023-08-23T07:16:47Z</time>
      </trkpt>
      <trkpt lat="49.80215" lon="2.44781">
        <ele>32</ele>
        <time>2023-08-23T07:16:48Z</time>
      </trkpt>
      <trkpt lat="49.80214" lon="2.44781">
        <ele>32</ele>
        <time>2023-08-23T07:16:49Z</time>
      </trkpt>
      <trkpt lat="49.80213" lon="2.44781">
        <ele>32</ele>
        <time>2023-08-23T07:16:50Z</time>
      </trkpt>
      <trkpt lat="49.80212" lon="2.44781">
        <ele>32</ele>
        <time>2023-08-23T07:16:52Z</time>
      </trkpt>
      <trkpt lat="49.80211" lon="2.44781">
        <ele>32</ele>
        <time>2023-08-23T07:16:53Z</time>
      </trkpt>
      <trkpt lat="49.8021" lon="2.44781">
        <ele>32</ele>
        <time>2023-08-23T07:16:54Z</time>
      </trkpt>
      <trkpt lat="49.80208" lon="2.44782">
        <ele>32</ele>
        <time>2023-08-23T07:16:55Z</time>
      </trkpt>
      <trkpt lat="49.80206" lon="2.44783">
        <ele>32</ele>
        <time>2023-08-23T07:16:56Z</time>
      </trkpt>
      <trkpt lat="49.80205" lon="2.44783">
        <ele>32</ele>
        <time>2023-08-23T07:16:57Z</time>
      </trkpt>
      <trkpt lat="49.80204" lon="2.44783">
        <ele>32</ele>
        <time>2023-08-23T07:16:58Z</time>
      </trkpt>
      <trkpt lat="49.80201" lon="2.44784">
        <ele>32</ele>
        <time>2023-08-23T07:17:00Z</time>
      </trkpt>
      <trkpt lat="49.802" lon="2.44784">
        <ele>32</ele>
        <time>2023-08-23T07:17:01Z</time>
      </trkpt>
      <trkpt lat="49.80198" lon="2.44785">
        <ele>32</ele>
        <time>2023-08-23T07:17:02Z</time>
      </trkpt>
      <trkpt lat="49.80196" lon="2.44785">
        <ele>32</ele>
        <time>2023-08-23T07:17:03Z</time>
      </trkpt>
      <trkpt lat="49.80195" lon="2.44785">
        <ele>32</ele>
        <time>2023-08-23T07:17:04Z</time>
      </trkpt>
      <trkpt lat="49.80194" lon="2.44785">
        <ele>32</ele>
        <time>2023-08-23T07:17:05Z</time>
      </trkpt>
      <trkpt lat="49.80193" lon="2.44785">
        <ele>32</ele>
        <time>2023-08-23T07:17:07Z</time>
      </trkpt>
      <trkpt lat="49.80191" lon="2.44785">
        <ele>31.9</ele>
        <time>2023-08-23T07:17:08Z</time>
      </trkpt>
      <trkpt lat="49.8019" lon="2.44785">
        <ele>31.9</ele>
        <time>2023-08-23T07:17:09Z</time>
      </trkpt>
      <trkpt lat="49.80189" lon="2.44785">
        <ele>31.9</ele>
        <time>2023-08-23T07:17:10Z</time>
      </trkpt>
      <trkpt lat="49.80188" lon="2.44785">
        <ele>31.9</ele>
        <time>2023-08-23T07:17:11Z</time>
      </trkpt>
      <trkpt lat="49.80187" lon="2.44785">
        <ele>31.9</ele>
        <time>2023-08-23T07:17:12Z</time>
      </trkpt>
      <trkpt lat="49.80186" lon="2.44785">
        <ele>31.9</ele>
        <time>2023-08-23T07:17:13Z</time>
      </trkpt>
      <trkpt lat="49.80185" lon="2.44785">
        <ele>31.9</ele>
        <time>2023-08-23T07:17:14Z</time>
      </trkpt>
      <trkpt lat="49.80183" lon="2.44785">
        <ele>31.9</ele>
        <time>2023-08-23T07:17:15Z</time>
      </trkpt>
      <trkpt lat="49.80182" lon="2.44786">
        <ele>31.9</ele>
        <time>2023-08-23T07:17:17Z</time>
      </trkpt>
      <trkpt lat="49.80181" lon="2.44786">
        <ele>31.9</ele>
        <time>2023-08-23T07:17:18Z</time>
      </trkpt>
      <trkpt lat="49.8018" lon="2.44786">
        <ele>31.9</ele>
        <time>2023-08-23T07:17:19Z</time>
      </trkpt>
      <trkpt lat="49.80179" lon="2.44786">
        <ele>31.9</ele>
        <time>2023-08-23T07:17:20Z</time>
      </trkpt>
      <trkpt lat="49.80178" lon="2.44786">
        <ele>31.9</ele>
        <time>2023-08-23T07:17:21Z</time>
      </trkpt>
      <trkpt lat="49.80177" lon="2.44786">
        <ele>31.9</ele>
        <time>2023-08-23T07:17:22Z</time>
      </trkpt>
      <trkpt lat="49.80176" lon="2.44786">
        <ele>31.9</ele>
        <time>2023-08-23T07:17:23Z</time>
      </trkpt>
      <trkpt lat="49.80174" lon="2.44786">
        <ele>32</ele>
        <time>2023-08-23T07:17:25Z</time>
      </trkpt>
      <trkpt lat="49.80173" lon="2.44786">
        <ele>32</ele>
        <time>2023-08-23T07:17:26Z</time>
      </trkpt>
      <trkpt lat="49.80172" lon="2.44787">
        <ele>32</ele>
        <time>2023-08-23T07:17:27Z</time>
      </trkpt>
      <trkpt lat="49.80171" lon="2.44787">
        <ele>32</ele>
        <time>2023-08-23T07:17:28Z</time>
      </trkpt>
      <trkpt lat="49.8017" lon="2.44787">
        <ele>32</ele>
        <time>2023-08-23T07:17:29Z</time>
      </trkpt>
      <trkpt lat="49.80167" lon="2.44788">
        <ele>32</ele>
        <time>2023-08-23T07:17:31Z</time>
      </trkpt>
      <trkpt lat="49.80166" lon="2.44788">
        <ele>32.1</ele>
        <time>2023-08-23T07:17:32Z</time>
      </trkpt>
      <trkpt lat="49.80166" lon="2.44788">
        <ele>32.1</ele>
        <time>2023-08-23T07:17:33Z</time>
      </trkpt>
      <trkpt lat="49.80165" lon="2.44788">
        <ele>32.1</ele>
        <time>2023-08-23T07:17:34Z</time>
      </trkpt>
      <trkpt lat="49.80164" lon="2.44789">
        <ele>32.1</ele>
        <time>2023-08-23T07:17:35Z</time>
      </trkpt>
      <trkpt lat="49.80163" lon="2.44789">
        <ele>32.2</ele>
        <time>2023-08-23T07:17:36Z</time>
      </trkpt>
      <trkpt lat="49.80162" lon="2.4479">
        <ele>32.2</ele>
        <time>2023-08-23T07:17:37Z</time>
      </trkpt>
      <trkpt lat="49.80161" lon="2.44791">
        <ele>32.2</ele>
        <time>2023-08-23T07:17:38Z</time>
      </trkpt>
      <trkpt lat="49.8016" lon="2.44791">
        <ele>32.2</ele>
        <time>2023-08-23T07:17:40Z</time>
      </trkpt>
      <trkpt lat="49.80159" lon="2.44791">
        <ele>32.3</ele>
        <time>2023-08-23T07:17:41Z</time>
      </trkpt>
      <trkpt lat="49.80158" lon="2.44792">
        <ele>32.3</ele>
        <time>2023-08-23T07:17:42Z</time>
      </trkpt>
      <trkpt lat="49.80156" lon="2.44792">
        <ele>32.3</ele>
        <time>2023-08-23T07:17:43Z</time>
      </trkpt>
      <trkpt lat="49.80155" lon="2.44792">
        <ele>32.4</ele>
        <time>2023-08-23T07:17:44Z</time>
      </trkpt>
      <trkpt lat="49.80154" lon="2.44793">
        <ele>32.4</ele>
        <time>2023-08-23T07:17:45Z</time>
      </trkpt>
      <trkpt lat="49.80153" lon="2.44792">
        <ele>32.4</ele>
        <time>2023-08-23T07:17:46Z</time>
      </trkpt>
      <trkpt lat="49.80151" lon="2.44792">
        <ele>32.5</ele>
        <time>2023-08-23T07:17:48Z</time>
      </trkpt>
      <trkpt lat="49.8015" lon="2.44792">
        <ele>32.5</ele>
        <time>2023-08-23T07:17:49Z</time>
      </trkpt>
      <trkpt lat="49.80148" lon="2.44791">
        <ele>32.6</ele>
        <time>2023-08-23T07:17:50Z</time>
      </trkpt>
      <trkpt lat="49.80147" lon="2.44791">
        <ele>32.6</ele>
        <time>2023-08-23T07:17:51Z</time>
      </trkpt>
      <trkpt lat="49.80146" lon="2.44791">
        <ele>32.6</ele>
        <time>2023-08-23T07:17:52Z</time>
      </trkpt>
      <trkpt lat="49.80145" lon="2.44791">
        <ele>32.7</ele>
        <time>2023-08-23T07:17:53Z</time>
      </trkpt>
      <trkpt lat="49.80144" lon="2.44791">
        <ele>32.7</ele>
        <time>2023-08-23T07:17:55Z</time>
      </trkpt>
      <trkpt lat="49.80143" lon="2.44791">
        <ele>32.7</ele>
        <time>2023-08-23T07:17:56Z</time>
      </trkpt>
      <trkpt lat="49.80142" lon="2.44791">
        <ele>32.7</ele>
        <time>2023-08-23T07:17:57Z</time>
      </trkpt>
      <trkpt lat="49.80141" lon="2.44791">
        <ele>32.8</ele>
        <time>2023-08-23T07:17:58Z</time>
      </trkpt>
      <trkpt lat="49.8014" lon="2.44791">
        <ele>32.8</ele>
        <time>2023-08-23T07:17:59Z</time>
      </trkpt>
      <trkpt lat="49.80139" lon="2.44791">
        <ele>32.8</ele>
        <time>2023-08-23T07:18:00Z</time>
      </trkpt>
      <trkpt lat="49.80137" lon="2.44792">
        <ele>32.9</ele>
        <time>2023-08-23T07:18:02Z</time>
      </trkpt>
      <trkpt lat="49.80136" lon="2.44792">
        <ele>32.9</ele>
        <time>2023-08-23T07:18:03Z</time>
      </trkpt>
      <trkpt lat="49.80135" lon="2.44792">
        <ele>32.9</ele>
        <time>2023-08-23T07:18:04Z</time>
      </trkpt>
      <trkpt lat="49.80133" lon="2.44792">
        <ele>33</ele>
        <time>2023-08-23T07:18:05Z</time>
      </trkpt>
      <trkpt lat="49.80132" lon="2.44793">
        <ele>33</ele>
        <time>2023-08-23T07:18:06Z</time>
      </trkpt>
      <trkpt lat="49.80131" lon="2.44793">
        <ele>33</ele>
        <time>2023-08-23T07:18:08Z</time>
      </trkpt>
      <trkpt lat="49.8013" lon="2.44793">
        <ele>33</ele>
        <time>2023-08-23T07:18:09Z</time>
      </trkpt>
      <trkpt lat="49.80129" lon="2.44793">
        <ele>33</ele>
        <time>2023-08-23T07:18:10Z</time>
      </trkpt>
      <trkpt lat="49.80127" lon="2.44794">
        <ele>33</ele>
        <time>2023-08-23T07:18:11Z</time>
      </trkpt>
      <trkpt lat="49.80125" lon="2.44794">
        <ele>33.1</ele>
        <time>2023-08-23T07:18:12Z</time>
      </trkpt>
      <trkpt lat="49.80125" lon="2.44795">
        <ele>33.1</ele>
        <time>2023-08-23T07:18:13Z</time>
      </trkpt>
      <trkpt lat="49.80124" lon="2.44795">
        <ele>33.1</ele>
        <time>2023-08-23T07:18:14Z</time>
      </trkpt>
      <trkpt lat="49.80122" lon="2.44796">
        <ele>33.1</ele>
        <time>2023-08-23T07:18:15Z</time>
      </trkpt>
      <trkpt lat="49.8012" lon="2.44796">
        <ele>33.1</ele>
        <time>2023-08-23T07:18:16Z</time>
      </trkpt>
      <trkpt lat="49.80119" lon="2.44796">
        <ele>33.1</ele>
        <time>2023-08-23T07:18:18Z</time>
      </trkpt>
      <trkpt lat="49.80118" lon="2.44797">
        <ele>33.1</ele>
        <time>2023-08-23T07:18:19Z</time>
      </trkpt>
      <trkpt lat="49.80117" lon="2.44797">
        <ele>33.1</ele>
        <time>2023-08-23T07:18:21Z</time>
      </trkpt>
      <trkpt lat="49.80116" lon="2.44797">
        <ele>33.1</ele>
        <time>2023-08-23T07:18:22Z</time>
      </trkpt>
      <trkpt lat="49.80115" lon="2.44798">
        <ele>33.1</ele>
        <time>2023-08-23T07:18:23Z</time>
      </trkpt>
      <trkpt lat="49.80114" lon="2.44798">
        <ele>33.1</ele>
        <time>2023-08-23T07:18:24Z</time>
      </trkpt>
      <trkpt lat="49.80113" lon="2.44798">
        <ele>33.1</ele>
        <time>2023-08-23T07:18:25Z</time>
      </trkpt>
      <trkpt lat="49.80112" lon="2.44798">
        <ele>33.1</ele>
        <time>2023-08-23T07:18:26Z</time>
      </trkpt>
      <trkpt lat="49.80112" lon="2.44798">
        <ele>33.1</ele>
        <time>2023-08-23T07:18:28Z</time>
      </trkpt>
      <trkpt lat="49.80111" lon="2.44798">
        <ele>33.1</ele>
        <time>2023-08-23T07:18:29Z</time>
      </trkpt>
      <trkpt lat="49.8011" lon="2.44799">
        <ele>33.1</ele>
        <time>2023-08-23T07:18:30Z</time>
      </trkpt>
      <trkpt lat="49.80109" lon="2.44799">
        <ele>33.1</ele>
        <time>2023-08-23T07:18:31Z</time>
      </trkpt>
      <trkpt lat="49.80109" lon="2.44799">
        <ele>33.1</ele>
        <time>2023-08-23T07:18:32Z</time>
      </trkpt>
      <trkpt lat="49.80109" lon="2.44799">
        <ele>33.1</ele>
        <time>2023-08-23T07:18:33Z</time>
      </trkpt>
      <trkpt lat="49.80108" lon="2.44799">
        <ele>33.1</ele>
        <time>2023-08-23T07:18:34Z</time>
      </trkpt>
      <trkpt lat="49.80107" lon="2.44799">
        <ele>33.1</ele>
        <time>2023-08-23T07:18:35Z</time>
      </trkpt>
      <trkpt lat="49.80105" lon="2.44799">
        <ele>33.1</ele>
        <time>2023-08-23T07:18:36Z</time>
      </trkpt>
      <trkpt lat="49.80104" lon="2.44799">
        <ele>33.1</ele>
        <time>2023-08-23T07:18:38Z</time>
      </trkpt>
      <trkpt lat="49.80103" lon="2.448">
        <ele>33.1</ele>
        <time>2023-08-23T07:18:39Z</time>
      </trkpt>
      <trkpt lat="49.80102" lon="2.448">
        <ele>33.1</ele>
        <time>2023-08-23T07:18:40Z</time>
      </trkpt>
      <trkpt lat="49.801" lon="2.448">
        <ele>33.1</ele>
        <time>2023-08-23T07:18:41Z</time>
      </trkpt>
      <trkpt lat="49.80099" lon="2.44801">
        <ele>33.1</ele>
        <time>2023-08-23T07:18:43Z</time>
      </trkpt>
      <trkpt lat="49.80097" lon="2.44801">
        <ele>33.1</ele>
        <time>2023-08-23T07:18:44Z</time>
      </trkpt>
      <trkpt lat="49.80095" lon="2.44801">
        <ele>33.1</ele>
        <time>2023-08-23T07:18:45Z</time>
      </trkpt>
      <trkpt lat="49.80094" lon="2.44802">
        <ele>33.1</ele>
        <time>2023-08-23T07:18:46Z</time>
      </trkpt>
      <trkpt lat="49.80092" lon="2.44802">
        <ele>33.1</ele>
        <time>2023-08-23T07:18:47Z</time>
      </trkpt>
      <trkpt lat="49.8009" lon="2.44803">
        <ele>33.1</ele>
        <time>2023-08-23T07:18:49Z</time>
      </trkpt>
      <trkpt lat="49.80089" lon="2.44803">
        <ele>33.1</ele>
        <time>2023-08-23T07:18:50Z</time>
      </trkpt>
      <trkpt lat="49.80087" lon="2.44803">
        <ele>33.1</ele>
        <time>2023-08-23T07:18:51Z</time>
      </trkpt>
      <trkpt lat="49.80085" lon="2.44804">
        <ele>33.1</ele>
        <time>2023-08-23T07:18:52Z</time>
      </trkpt>
      <trkpt lat="49.80083" lon="2.44804">
        <ele>33.1</ele>
        <time>2023-08-23T07:18:54Z</time>
      </trkpt>
      <trkpt lat="49.80081" lon="2.44805">
        <ele>33.1</ele>
        <time>2023-08-23T07:18:55Z</time>
      </trkpt>
      <trkpt lat="49.80079" lon="2.44806">
        <ele>33.1</ele>
        <time>2023-08-23T07:18:56Z</time>
      </trkpt>
      <trkpt lat="49.80077" lon="2.44807">
        <ele>33.1</ele>
        <time>2023-08-23T07:18:57Z</time>
      </trkpt>
      <trkpt lat="49.80076" lon="2.44807">
        <ele>33.1</ele>
        <time>2023-08-23T07:18:58Z</time>
      </trkpt>
      <trkpt lat="49.80074" lon="2.44808">
        <ele>33.1</ele>
        <time>2023-08-23T07:18:59Z</time>
      </trkpt>
      <trkpt lat="49.80073" lon="2.44808">
        <ele>33.1</ele>
        <time>2023-08-23T07:19:01Z</time>
      </trkpt>
      <trkpt lat="49.8007" lon="2.4481">
        <ele>33.1</ele>
        <time>2023-08-23T07:19:02Z</time>
      </trkpt>
      <trkpt lat="49.80067" lon="2.44811">
        <ele>33.1</ele>
        <time>2023-08-23T07:19:04Z</time>
      </trkpt>
      <trkpt lat="49.80066" lon="2.44811">
        <ele>33.1</ele>
        <time>2023-08-23T07:19:05Z</time>
      </trkpt>
      <trkpt lat="49.80063" lon="2.44812">
        <ele>33.1</ele>
        <time>2023-08-23T07:19:06Z</time>
      </trkpt>
      <trkpt lat="49.80062" lon="2.44813">
        <ele>33.1</ele>
        <time>2023-08-23T07:19:07Z</time>
      </trkpt>
      <trkpt lat="49.80061" lon="2.44813">
        <ele>33.2</ele>
        <time>2023-08-23T07:19:08Z</time>
      </trkpt>
      <trkpt lat="49.80059" lon="2.44814">
        <ele>33.2</ele>
        <time>2023-08-23T07:19:09Z</time>
      </trkpt>
      <trkpt lat="49.80056" lon="2.44815">
        <ele>33.2</ele>
        <time>2023-08-23T07:19:11Z</time>
      </trkpt>
      <trkpt lat="49.80055" lon="2.44815">
        <ele>33.2</ele>
        <time>2023-08-23T07:19:12Z</time>
      </trkpt>
      <trkpt lat="49.80054" lon="2.44816">
        <ele>33.2</ele>
        <time>2023-08-23T07:19:13Z</time>
      </trkpt>
      <trkpt lat="49.80052" lon="2.44816">
        <ele>33.2</ele>
        <time>2023-08-23T07:19:14Z</time>
      </trkpt>
      <trkpt lat="49.8005" lon="2.44817">
        <ele>33.2</ele>
        <time>2023-08-23T07:19:16Z</time>
      </trkpt>
      <trkpt lat="49.80049" lon="2.44817">
        <ele>33.2</ele>
        <time>2023-08-23T07:19:17Z</time>
      </trkpt>
      <trkpt lat="49.80048" lon="2.44818">
        <ele>33.2</ele>
        <time>2023-08-23T07:19:18Z</time>
      </trkpt>
      <trkpt lat="49.80047" lon="2.44818">
        <ele>33.2</ele>
        <time>2023-08-23T07:19:19Z</time>
      </trkpt>
      <trkpt lat="49.80045" lon="2.44819">
        <ele>33.2</ele>
        <time>2023-08-23T07:19:20Z</time>
      </trkpt>
      <trkpt lat="49.80044" lon="2.44819">
        <ele>33.2</ele>
        <time>2023-08-23T07:19:22Z</time>
      </trkpt>
      <trkpt lat="49.80043" lon="2.4482">
        <ele>33.2</ele>
        <time>2023-08-23T07:19:23Z</time>
      </trkpt>
      <trkpt lat="49.80041" lon="2.4482">
        <ele>33.2</ele>
        <time>2023-08-23T07:19:24Z</time>
      </trkpt>
      <trkpt lat="49.80039" lon="2.44821">
        <ele>33.2</ele>
        <time>2023-08-23T07:19:25Z</time>
      </trkpt>
      <trkpt lat="49.80038" lon="2.44821">
        <ele>33.1</ele>
        <time>2023-08-23T07:19:26Z</time>
      </trkpt>
      <trkpt lat="49.80037" lon="2.44821">
        <ele>33.1</ele>
        <time>2023-08-23T07:19:28Z</time>
      </trkpt>
      <trkpt lat="49.80035" lon="2.44821">
        <ele>33.1</ele>
        <time>2023-08-23T07:19:29Z</time>
      </trkpt>
      <trkpt lat="49.80034" lon="2.44822">
        <ele>33.1</ele>
        <time>2023-08-23T07:19:30Z</time>
      </trkpt>
      <trkpt lat="49.80033" lon="2.44822">
        <ele>33.1</ele>
        <time>2023-08-23T07:19:31Z</time>
      </trkpt>
      <trkpt lat="49.80033" lon="2.44823">
        <ele>33.1</ele>
        <time>2023-08-23T07:19:32Z</time>
      </trkpt>
      <trkpt lat="49.80032" lon="2.44823">
        <ele>33.1</ele>
        <time>2023-08-23T07:19:33Z</time>
      </trkpt>
      <trkpt lat="49.8003" lon="2.44824">
        <ele>33.1</ele>
        <time>2023-08-23T07:19:35Z</time>
      </trkpt>
      <trkpt lat="49.80029" lon="2.44824">
        <ele>33.1</ele>
        <time>2023-08-23T07:19:36Z</time>
      </trkpt>
      <trkpt lat="49.80028" lon="2.44825">
        <ele>33.1</ele>
        <time>2023-08-23T07:19:37Z</time>
      </trkpt>
      <trkpt lat="49.80027" lon="2.44825">
        <ele>33.1</ele>
        <time>2023-08-23T07:19:38Z</time>
      </trkpt>
      <trkpt lat="49.80026" lon="2.44826">
        <ele>33.1</ele>
        <time>2023-08-23T07:19:39Z</time>
      </trkpt>
      <trkpt lat="49.80025" lon="2.44826">
        <ele>33.1</ele>
        <time>2023-08-23T07:19:40Z</time>
      </trkpt>
      <trkpt lat="49.80024" lon="2.44827">
        <ele>33</ele>
        <time>2023-08-23T07:19:41Z</time>
      </trkpt>
      <trkpt lat="49.80023" lon="2.44827">
        <ele>33</ele>
        <time>2023-08-23T07:19:42Z</time>
      </trkpt>
      <trkpt lat="49.80021" lon="2.44828">
        <ele>33</ele>
        <time>2023-08-23T07:19:44Z</time>
      </trkpt>
      <trkpt lat="49.8002" lon="2.44829">
        <ele>33</ele>
        <time>2023-08-23T07:19:45Z</time>
      </trkpt>
      <trkpt lat="49.80019" lon="2.4483">
        <ele>33</ele>
        <time>2023-08-23T07:19:47Z</time>
      </trkpt>
      <trkpt lat="49.80018" lon="2.4483">
        <ele>33</ele>
        <time>2023-08-23T07:19:48Z</time>
      </trkpt>
      <trkpt lat="49.80017" lon="2.44831">
        <ele>33</ele>
        <time>2023-08-23T07:19:49Z</time>
      </trkpt>
      <trkpt lat="49.80015" lon="2.44831">
        <ele>33</ele>
        <time>2023-08-23T07:19:50Z</time>
      </trkpt>
      <trkpt lat="49.80014" lon="2.44832">
        <ele>33</ele>
        <time>2023-08-23T07:19:51Z</time>
      </trkpt>
      <trkpt lat="49.80013" lon="2.44832">
        <ele>33</ele>
        <time>2023-08-23T07:19:52Z</time>
      </trkpt>
      <trkpt lat="49.80011" lon="2.44833">
        <ele>33</ele>
        <time>2023-08-23T07:19:54Z</time>
      </trkpt>
      <trkpt lat="49.8001" lon="2.44833">
        <ele>33</ele>
        <time>2023-08-23T07:19:55Z</time>
      </trkpt>
      <trkpt lat="49.80009" lon="2.44834">
        <ele>33</ele>
        <time>2023-08-23T07:19:56Z</time>
      </trkpt>
      <trkpt lat="49.80007" lon="2.44834">
        <ele>33</ele>
        <time>2023-08-23T07:19:57Z</time>
      </trkpt>
      <trkpt lat="49.80006" lon="2.44834">
        <ele>33</ele>
        <time>2023-08-23T07:19:59Z</time>
      </trkpt>
      <trkpt lat="49.80005" lon="2.44835">
        <ele>33</ele>
        <time>2023-08-23T07:20:00Z</time>
      </trkpt>
      <trkpt lat="49.80003" lon="2.44835">
        <ele>33</ele>
        <time>2023-08-23T07:20:01Z</time>
      </trkpt>
      <trkpt lat="49.80002" lon="2.44835">
        <ele>33</ele>
        <time>2023-08-23T07:20:02Z</time>
      </trkpt>
      <trkpt lat="49.8" lon="2.44836">
        <ele>33</ele>
        <time>2023-08-23T07:20:03Z</time>
      </trkpt>
      <trkpt lat="49.79999" lon="2.44836">
        <ele>33</ele>
        <time>2023-08-23T07:20:04Z</time>
      </trkpt>
      <trkpt lat="49.79997" lon="2.44836">
        <ele>33</ele>
        <time>2023-08-23T07:20:05Z</time>
      </trkpt>
      <trkpt lat="49.79996" lon="2.44836">
        <ele>33</ele>
        <time>2023-08-23T07:20:07Z</time>
      </trkpt>
      <trkpt lat="49.79994" lon="2.44836">
        <ele>33</ele>
        <time>2023-08-23T07:20:08Z</time>
      </trkpt>
      <trkpt lat="49.79993" lon="2.44836">
        <ele>33</ele>
        <time>2023-08-23T07:20:09Z</time>
      </trkpt>
      <trkpt lat="49.79991" lon="2.44836">
        <ele>33.1</ele>
        <time>2023-08-23T07:20:10Z</time>
      </trkpt>
      <trkpt lat="49.7999" lon="2.44836">
        <ele>33.1</ele>
        <time>2023-08-23T07:20:11Z</time>
      </trkpt>
      <trkpt lat="49.79988" lon="2.44836">
        <ele>33.1</ele>
        <time>2023-08-23T07:20:13Z</time>
      </trkpt>
      <trkpt lat="49.79987" lon="2.44836">
        <ele>33.1</ele>
        <time>2023-08-23T07:20:14Z</time>
      </trkpt>
      <trkpt lat="49.79986" lon="2.44836">
        <ele>33.1</ele>
        <time>2023-08-23T07:20:15Z</time>
      </trkpt>
      <trkpt lat="49.79985" lon="2.44837">
        <ele>33.1</ele>
        <time>2023-08-23T07:20:16Z</time>
      </trkpt>
      <trkpt lat="49.79983" lon="2.44837">
        <ele>33.2</ele>
        <time>2023-08-23T07:20:17Z</time>
      </trkpt>
      <trkpt lat="49.79982" lon="2.44837">
        <ele>33.2</ele>
        <time>2023-08-23T07:20:18Z</time>
      </trkpt>
      <trkpt lat="49.7998" lon="2.44837">
        <ele>33.2</ele>
        <time>2023-08-23T07:20:20Z</time>
      </trkpt>
      <trkpt lat="49.79979" lon="2.44837">
        <ele>33.2</ele>
        <time>2023-08-23T07:20:21Z</time>
      </trkpt>
      <trkpt lat="49.79977" lon="2.44837">
        <ele>33.3</ele>
        <time>2023-08-23T07:20:22Z</time>
      </trkpt>
      <trkpt lat="49.79976" lon="2.44838">
        <ele>33.3</ele>
        <time>2023-08-23T07:20:23Z</time>
      </trkpt>
      <trkpt lat="49.79974" lon="2.44838">
        <ele>33.3</ele>
        <time>2023-08-23T07:20:25Z</time>
      </trkpt>
      <trkpt lat="49.79973" lon="2.44839">
        <ele>33.3</ele>
        <time>2023-08-23T07:20:26Z</time>
      </trkpt>
      <trkpt lat="49.79972" lon="2.44839">
        <ele>33.4</ele>
        <time>2023-08-23T07:20:27Z</time>
      </trkpt>
      <trkpt lat="49.7997" lon="2.4484">
        <ele>33.4</ele>
        <time>2023-08-23T07:20:28Z</time>
      </trkpt>
      <trkpt lat="49.79969" lon="2.4484">
        <ele>33.4</ele>
        <time>2023-08-23T07:20:29Z</time>
      </trkpt>
      <trkpt lat="49.79968" lon="2.4484">
        <ele>33.5</ele>
        <time>2023-08-23T07:20:30Z</time>
      </trkpt>
      <trkpt lat="49.79966" lon="2.44841">
        <ele>33.5</ele>
        <time>2023-08-23T07:20:32Z</time>
      </trkpt>
      <trkpt lat="49.79965" lon="2.44842">
        <ele>33.5</ele>
        <time>2023-08-23T07:20:33Z</time>
      </trkpt>
      <trkpt lat="49.79964" lon="2.44842">
        <ele>33.6</ele>
        <time>2023-08-23T07:20:34Z</time>
      </trkpt>
      <trkpt lat="49.79962" lon="2.44843">
        <ele>33.6</ele>
        <time>2023-08-23T07:20:35Z</time>
      </trkpt>
      <trkpt lat="49.79961" lon="2.44843">
        <ele>33.7</ele>
        <time>2023-08-23T07:20:37Z</time>
      </trkpt>
      <trkpt lat="49.7996" lon="2.44843">
        <ele>33.7</ele>
        <time>2023-08-23T07:20:38Z</time>
      </trkpt>
      <trkpt lat="49.79958" lon="2.44843">
        <ele>33.7</ele>
        <time>2023-08-23T07:20:39Z</time>
      </trkpt>
      <trkpt lat="49.79957" lon="2.44843">
        <ele>33.8</ele>
        <time>2023-08-23T07:20:40Z</time>
      </trkpt>
      <trkpt lat="49.79956" lon="2.44842">
        <ele>33.8</ele>
        <time>2023-08-23T07:20:41Z</time>
      </trkpt>
      <trkpt lat="49.79954" lon="2.44842">
        <ele>33.9</ele>
        <time>2023-08-23T07:20:42Z</time>
      </trkpt>
      <trkpt lat="49.79953" lon="2.44841">
        <ele>33.9</ele>
        <time>2023-08-23T07:20:43Z</time>
      </trkpt>
      <trkpt lat="49.79953" lon="2.44841">
        <ele>33.9</ele>
        <time>2023-08-23T07:20:45Z</time>
      </trkpt>
      <trkpt lat="49.79951" lon="2.4484">
        <ele>34</ele>
        <time>2023-08-23T07:20:46Z</time>
      </trkpt>
      <trkpt lat="49.7995" lon="2.4484">
        <ele>34</ele>
        <time>2023-08-23T07:20:47Z</time>
      </trkpt>
      <trkpt lat="49.79949" lon="2.4484">
        <ele>34.1</ele>
        <time>2023-08-23T07:20:48Z</time>
      </trkpt>
      <trkpt lat="49.79948" lon="2.44839">
        <ele>34.1</ele>
        <time>2023-08-23T07:20:49Z</time>
      </trkpt>
      <trkpt lat="49.79947" lon="2.44839">
        <ele>34.1</ele>
        <time>2023-08-23T07:20:51Z</time>
      </trkpt>
      <trkpt lat="49.79946" lon="2.44839">
        <ele>34.2</ele>
        <time>2023-08-23T07:20:52Z</time>
      </trkpt>
      <trkpt lat="49.79945" lon="2.44839">
        <ele>34.2</ele>
        <time>2023-08-23T07:20:53Z</time>
      </trkpt>
      <trkpt lat="49.79944" lon="2.44839">
        <ele>34.3</ele>
        <time>2023-08-23T07:20:54Z</time>
      </trkpt>
      <trkpt lat="49.79942" lon="2.44839">
        <ele>34.3</ele>
        <time>2023-08-23T07:20:56Z</time>
      </trkpt>
      <trkpt lat="49.79941" lon="2.4484">
        <ele>34.4</ele>
        <time>2023-08-23T07:20:58Z</time>
      </trkpt>
      <trkpt lat="49.7994" lon="2.4484">
        <ele>34.4</ele>
        <time>2023-08-23T07:20:59Z</time>
      </trkpt>
      <trkpt lat="49.79938" lon="2.44841">
        <ele>34.5</ele>
        <time>2023-08-23T07:21:00Z</time>
      </trkpt>
      <trkpt lat="49.79937" lon="2.44842">
        <ele>34.5</ele>
        <time>2023-08-23T07:21:01Z</time>
      </trkpt>
      <trkpt lat="49.79936" lon="2.44842">
        <ele>34.5</ele>
        <time>2023-08-23T07:21:02Z</time>
      </trkpt>
      <trkpt lat="49.79935" lon="2.44842">
        <ele>34.6</ele>
        <time>2023-08-23T07:21:03Z</time>
      </trkpt>
      <trkpt lat="49.79934" lon="2.44843">
        <ele>34.6</ele>
        <time>2023-08-23T07:21:05Z</time>
      </trkpt>
      <trkpt lat="49.79935" lon="2.44843">
        <ele>34.6</ele>
        <time>2023-08-23T07:21:06Z</time>
      </trkpt>
      <trkpt lat="49.79934" lon="2.44844">
        <ele>34.6</ele>
        <time>2023-08-23T07:21:07Z</time>
      </trkpt>
      <trkpt lat="49.79934" lon="2.44844">
        <ele>34.6</ele>
        <time>2023-08-23T07:21:08Z</time>
      </trkpt>
      <trkpt lat="49.79933" lon="2.44844">
        <ele>34.6</ele>
        <time>2023-08-23T07:21:09Z</time>
      </trkpt>
      <trkpt lat="49.79933" lon="2.44845">
        <ele>34.6</ele>
        <time>2023-08-23T07:21:10Z</time>
      </trkpt>
      <trkpt lat="49.79932" lon="2.44845">
        <ele>34.7</ele>
        <time>2023-08-23T07:21:11Z</time>
      </trkpt>
      <trkpt lat="49.79931" lon="2.44846">
        <ele>34.7</ele>
        <time>2023-08-23T07:21:13Z</time>
      </trkpt>
      <trkpt lat="49.7993" lon="2.44846">
        <ele>34.7</ele>
        <time>2023-08-23T07:21:14Z</time>
      </trkpt>
      <trkpt lat="49.79929" lon="2.44846">
        <ele>34.7</ele>
        <time>2023-08-23T07:21:15Z</time>
      </trkpt>
      <trkpt lat="49.79928" lon="2.44847">
        <ele>34.7</ele>
        <time>2023-08-23T07:21:16Z</time>
      </trkpt>
      <trkpt lat="49.79927" lon="2.44848">
        <ele>34.8</ele>
        <time>2023-08-23T07:21:17Z</time>
      </trkpt>
      <trkpt lat="49.79926" lon="2.44848">
        <ele>34.8</ele>
        <time>2023-08-23T07:21:18Z</time>
      </trkpt>
      <trkpt lat="49.79923" lon="2.44849">
        <ele>34.8</ele>
        <time>2023-08-23T07:21:19Z</time>
      </trkpt>
      <trkpt lat="49.79922" lon="2.4485">
        <ele>34.8</ele>
        <time>2023-08-23T07:21:21Z</time>
      </trkpt>
      <trkpt lat="49.79921" lon="2.4485">
        <ele>34.8</ele>
        <time>2023-08-23T07:21:22Z</time>
      </trkpt>
      <trkpt lat="49.7992" lon="2.44851">
        <ele>34.9</ele>
        <time>2023-08-23T07:21:23Z</time>
      </trkpt>
      <trkpt lat="49.79919" lon="2.44851">
        <ele>34.9</ele>
        <time>2023-08-23T07:21:24Z</time>
      </trkpt>
      <trkpt lat="49.79918" lon="2.44851">
        <ele>34.9</ele>
        <time>2023-08-23T07:21:26Z</time>
      </trkpt>
      <trkpt lat="49.79917" lon="2.44851">
        <ele>34.9</ele>
        <time>2023-08-23T07:21:27Z</time>
      </trkpt>
      <trkpt lat="49.79915" lon="2.44852">
        <ele>34.9</ele>
        <time>2023-08-23T07:21:28Z</time>
      </trkpt>
      <trkpt lat="49.79913" lon="2.44852">
        <ele>35</ele>
        <time>2023-08-23T07:21:29Z</time>
      </trkpt>
      <trkpt lat="49.79912" lon="2.44852">
        <ele>35</ele>
        <time>2023-08-23T07:21:30Z</time>
      </trkpt>
      <trkpt lat="49.79911" lon="2.44852">
        <ele>35</ele>
        <time>2023-08-23T07:21:31Z</time>
      </trkpt>
      <trkpt lat="49.7991" lon="2.44851">
        <ele>35</ele>
        <time>2023-08-23T07:21:32Z</time>
      </trkpt>
      <trkpt lat="49.79909" lon="2.44852">
        <ele>35</ele>
        <time>2023-08-23T07:21:33Z</time>
      </trkpt>
      <trkpt lat="49.79908" lon="2.44852">
        <ele>35</ele>
        <time>2023-08-23T07:21:35Z</time>
      </trkpt>
      <trkpt lat="49.79908" lon="2.44852">
        <ele>35</ele>
        <time>2023-08-23T07:21:36Z</time>
      </trkpt>
      <trkpt lat="49.79907" lon="2.44852">
        <ele>35</ele>
        <time>2023-08-23T07:21:37Z</time>
      </trkpt>
      <trkpt lat="49.79905" lon="2.44852">
        <ele>35</ele>
        <time>2023-08-23T07:21:38Z</time>
      </trkpt>
      <trkpt lat="49.79904" lon="2.44852">
        <ele>35</ele>
        <time>2023-08-23T07:21:40Z</time>
      </trkpt>
      <trkpt lat="49.79903" lon="2.44852">
        <ele>35</ele>
        <time>2023-08-23T07:21:41Z</time>
      </trkpt>
      <trkpt lat="49.79902" lon="2.44852">
        <ele>35</ele>
        <time>2023-08-23T07:21:42Z</time>
      </trkpt>
      <trkpt lat="49.79901" lon="2.44852">
        <ele>35.1</ele>
        <time>2023-08-23T07:21:43Z</time>
      </trkpt>
      <trkpt lat="49.799" lon="2.44853">
        <ele>35.1</ele>
        <time>2023-08-23T07:21:44Z</time>
      </trkpt>
      <trkpt lat="49.79899" lon="2.44853">
        <ele>35.1</ele>
        <time>2023-08-23T07:21:45Z</time>
      </trkpt>
      <trkpt lat="49.79898" lon="2.44853">
        <ele>35.1</ele>
        <time>2023-08-23T07:21:46Z</time>
      </trkpt>
      <trkpt lat="49.79896" lon="2.44854">
        <ele>35.1</ele>
        <time>2023-08-23T07:21:48Z</time>
      </trkpt>
      <trkpt lat="49.79895" lon="2.44854">
        <ele>35.1</ele>
        <time>2023-08-23T07:21:49Z</time>
      </trkpt>
      <trkpt lat="49.79895" lon="2.44855">
        <ele>35.1</ele>
        <time>2023-08-23T07:21:50Z</time>
      </trkpt>
      <trkpt lat="49.79893" lon="2.44855">
        <ele>35.1</ele>
        <time>2023-08-23T07:21:51Z</time>
      </trkpt>
      <trkpt lat="49.79892" lon="2.44855">
        <ele>35.1</ele>
        <time>2023-08-23T07:21:52Z</time>
      </trkpt>
      <trkpt lat="49.79891" lon="2.44855">
        <ele>35.1</ele>
        <time>2023-08-23T07:21:53Z</time>
      </trkpt>
      <trkpt lat="49.7989" lon="2.44856">
        <ele>35.1</ele>
        <time>2023-08-23T07:21:54Z</time>
      </trkpt>
      <trkpt lat="49.79888" lon="2.44857">
        <ele>35.1</ele>
        <time>2023-08-23T07:21:56Z</time>
      </trkpt>
      <trkpt lat="49.79886" lon="2.44858">
        <ele>35.1</ele>
        <time>2023-08-23T07:21:57Z</time>
      </trkpt>
      <trkpt lat="49.79885" lon="2.44859">
        <ele>35.1</ele>
        <time>2023-08-23T07:21:58Z</time>
      </trkpt>
      <trkpt lat="49.79883" lon="2.4486">
        <ele>35.1</ele>
        <time>2023-08-23T07:21:59Z</time>
      </trkpt>
      <trkpt lat="49.79882" lon="2.44861">
        <ele>35.1</ele>
        <time>2023-08-23T07:22:00Z</time>
      </trkpt>
      <trkpt lat="49.79879" lon="2.44863">
        <ele>35.1</ele>
        <time>2023-08-23T07:22:01Z</time>
      </trkpt>
      <trkpt lat="49.79876" lon="2.44865">
        <ele>35.1</ele>
        <time>2023-08-23T07:22:03Z</time>
      </trkpt>
      <trkpt lat="49.79875" lon="2.44866">
        <ele>35.1</ele>
        <time>2023-08-23T07:22:04Z</time>
      </trkpt>
      <trkpt lat="49.79873" lon="2.44867">
        <ele>35.1</ele>
        <time>2023-08-23T07:22:05Z</time>
      </trkpt>
      <trkpt lat="49.79872" lon="2.44868">
        <ele>35.1</ele>
        <time>2023-08-23T07:22:06Z</time>
      </trkpt>
      <trkpt lat="49.7987" lon="2.44869">
        <ele>35.2</ele>
        <time>2023-08-23T07:22:07Z</time>
      </trkpt>
      <trkpt lat="49.79869" lon="2.44869">
        <ele>35.2</ele>
        <time>2023-08-23T07:22:09Z</time>
      </trkpt>
      <trkpt lat="49.79868" lon="2.4487">
        <ele>35.2</ele>
        <time>2023-08-23T07:22:10Z</time>
      </trkpt>
      <trkpt lat="49.79866" lon="2.44871">
        <ele>35.2</ele>
        <time>2023-08-23T07:22:11Z</time>
      </trkpt>
      <trkpt lat="49.79865" lon="2.44871">
        <ele>35.2</ele>
        <time>2023-08-23T07:22:12Z</time>
      </trkpt>
      <trkpt lat="49.79864" lon="2.44872">
        <ele>35.2</ele>
        <time>2023-08-23T07:22:13Z</time>
      </trkpt>
      <trkpt lat="49.79862" lon="2.44873">
        <ele>35.2</ele>
        <time>2023-08-23T07:22:15Z</time>
      </trkpt>
      <trkpt lat="49.79861" lon="2.44873">
        <ele>35.2</ele>
        <time>2023-08-23T07:22:16Z</time>
      </trkpt>
      <trkpt lat="49.7986" lon="2.44873">
        <ele>35.3</ele>
        <time>2023-08-23T07:22:17Z</time>
      </trkpt>
      <trkpt lat="49.79859" lon="2.44873">
        <ele>35.3</ele>
        <time>2023-08-23T07:22:18Z</time>
      </trkpt>
      <trkpt lat="49.79858" lon="2.44874">
        <ele>35.3</ele>
        <time>2023-08-23T07:22:19Z</time>
      </trkpt>
      <trkpt lat="49.79857" lon="2.44874">
        <ele>35.3</ele>
        <time>2023-08-23T07:22:21Z</time>
      </trkpt>
      <trkpt lat="49.79856" lon="2.44874">
        <ele>35.3</ele>
        <time>2023-08-23T07:22:22Z</time>
      </trkpt>
      <trkpt lat="49.79856" lon="2.44875">
        <ele>35.3</ele>
        <time>2023-08-23T07:22:23Z</time>
      </trkpt>
      <trkpt lat="49.79855" lon="2.44875">
        <ele>35.3</ele>
        <time>2023-08-23T07:22:24Z</time>
      </trkpt>
      <trkpt lat="49.79854" lon="2.44876">
        <ele>35.3</ele>
        <time>2023-08-23T07:22:25Z</time>
      </trkpt>
      <trkpt lat="49.79853" lon="2.44877">
        <ele>35.3</ele>
        <time>2023-08-23T07:22:27Z</time>
      </trkpt>
      <trkpt lat="49.79852" lon="2.44877">
        <ele>35.3</ele>
        <time>2023-08-23T07:22:29Z</time>
      </trkpt>
      <trkpt lat="49.79852" lon="2.44878">
        <ele>35.3</ele>
        <time>2023-08-23T07:22:30Z</time>
      </trkpt>
      <trkpt lat="49.79851" lon="2.44878">
        <ele>35.3</ele>
        <time>2023-08-23T07:22:31Z</time>
      </trkpt>
      <trkpt lat="49.79852" lon="2.44878">
        <ele>35.3</ele>
        <time>2023-08-23T07:22:32Z</time>
      </trkpt>
      <trkpt lat="49.79851" lon="2.44879">
        <ele>35.3</ele>
        <time>2023-08-23T07:22:33Z</time>
      </trkpt>
      <trkpt lat="49.79849" lon="2.4488">
        <ele>35.4</ele>
        <time>2023-08-23T07:22:34Z</time>
      </trkpt>
      <trkpt lat="49.79848" lon="2.44881">
        <ele>35.4</ele>
        <time>2023-08-23T07:22:36Z</time>
      </trkpt>
      <trkpt lat="49.79847" lon="2.44881">
        <ele>35.4</ele>
        <time>2023-08-23T07:22:37Z</time>
      </trkpt>
      <trkpt lat="49.79846" lon="2.44882">
        <ele>35.4</ele>
        <time>2023-08-23T07:22:38Z</time>
      </trkpt>
      <trkpt lat="49.79845" lon="2.44883">
        <ele>35.4</ele>
        <time>2023-08-23T07:22:39Z</time>
      </trkpt>
      <trkpt lat="49.79843" lon="2.44884">
        <ele>35.4</ele>
        <time>2023-08-23T07:22:40Z</time>
      </trkpt>
      <trkpt lat="49.79841" lon="2.44885">
        <ele>35.4</ele>
        <time>2023-08-23T07:22:41Z</time>
      </trkpt>
      <trkpt lat="49.79839" lon="2.44887">
        <ele>35.4</ele>
        <time>2023-08-23T07:22:42Z</time>
      </trkpt>
      <trkpt lat="49.79837" lon="2.44887">
        <ele>35.4</ele>
        <time>2023-08-23T07:22:44Z</time>
      </trkpt>
      <trkpt lat="49.79836" lon="2.44888">
        <ele>35.5</ele>
        <time>2023-08-23T07:22:45Z</time>
      </trkpt>
      <trkpt lat="49.79835" lon="2.44889">
        <ele>35.5</ele>
        <time>2023-08-23T07:22:46Z</time>
      </trkpt>
      <trkpt lat="49.79832" lon="2.44891">
        <ele>35.5</ele>
        <time>2023-08-23T07:22:47Z</time>
      </trkpt>
      <trkpt lat="49.7983" lon="2.44892">
        <ele>35.5</ele>
        <time>2023-08-23T07:22:49Z</time>
      </trkpt>
      <trkpt lat="49.79829" lon="2.44893">
        <ele>35.5</ele>
        <time>2023-08-23T07:22:50Z</time>
      </trkpt>
      <trkpt lat="49.79827" lon="2.44893">
        <ele>35.5</ele>
        <time>2023-08-23T07:22:51Z</time>
      </trkpt>
      <trkpt lat="49.79826" lon="2.44894">
        <ele>35.5</ele>
        <time>2023-08-23T07:22:52Z</time>
      </trkpt>
      <trkpt lat="49.79824" lon="2.44894">
        <ele>35.5</ele>
        <time>2023-08-23T07:22:53Z</time>
      </trkpt>
      <trkpt lat="49.79822" lon="2.44895">
        <ele>35.5</ele>
        <time>2023-08-23T07:22:54Z</time>
      </trkpt>
      <trkpt lat="49.79821" lon="2.44896">
        <ele>35.5</ele>
        <time>2023-08-23T07:22:55Z</time>
      </trkpt>
      <trkpt lat="49.79818" lon="2.44897">
        <ele>35.5</ele>
        <time>2023-08-23T07:22:57Z</time>
      </trkpt>
      <trkpt lat="49.79816" lon="2.44898">
        <ele>35.5</ele>
        <time>2023-08-23T07:22:58Z</time>
      </trkpt>
      <trkpt lat="49.79812" lon="2.44899">
        <ele>35.6</ele>
        <time>2023-08-23T07:22:59Z</time>
      </trkpt>
      <trkpt lat="49.79811" lon="2.44899">
        <ele>35.6</ele>
        <time>2023-08-23T07:23:00Z</time>
      </trkpt>
      <trkpt lat="49.7981" lon="2.449">
        <ele>35.6</ele>
        <time>2023-08-23T07:23:01Z</time>
      </trkpt>
      <trkpt lat="49.79809" lon="2.449">
        <ele>35.6</ele>
        <time>2023-08-23T07:23:02Z</time>
      </trkpt>
      <trkpt lat="49.79807" lon="2.44901">
        <ele>35.6</ele>
        <time>2023-08-23T07:23:04Z</time>
      </trkpt>
      <trkpt lat="49.79805" lon="2.44901">
        <ele>35.6</ele>
        <time>2023-08-23T07:23:05Z</time>
      </trkpt>
      <trkpt lat="49.79804" lon="2.44902">
        <ele>35.6</ele>
        <time>2023-08-23T07:23:06Z</time>
      </trkpt>
      <trkpt lat="49.79802" lon="2.44902">
        <ele>35.7</ele>
        <time>2023-08-23T07:23:07Z</time>
      </trkpt>
      <trkpt lat="49.798" lon="2.44903">
        <ele>35.7</ele>
        <time>2023-08-23T07:23:09Z</time>
      </trkpt>
      <trkpt lat="49.798" lon="2.44903">
        <ele>35.7</ele>
        <time>2023-08-23T07:23:10Z</time>
      </trkpt>
      <trkpt lat="49.79799" lon="2.44903">
        <ele>35.7</ele>
        <time>2023-08-23T07:23:11Z</time>
      </trkpt>
      <trkpt lat="49.79797" lon="2.44904">
        <ele>35.7</ele>
        <time>2023-08-23T07:23:12Z</time>
      </trkpt>
      <trkpt lat="49.79796" lon="2.44904">
        <ele>35.7</ele>
        <time>2023-08-23T07:23:13Z</time>
      </trkpt>
      <trkpt lat="49.79794" lon="2.44904">
        <ele>35.7</ele>
        <time>2023-08-23T07:23:14Z</time>
      </trkpt>
      <trkpt lat="49.79793" lon="2.44904">
        <ele>35.7</ele>
        <time>2023-08-23T07:23:15Z</time>
      </trkpt>
      <trkpt lat="49.7979" lon="2.44905">
        <ele>35.8</ele>
        <time>2023-08-23T07:23:17Z</time>
      </trkpt>
      <trkpt lat="49.79789" lon="2.44906">
        <ele>35.8</ele>
        <time>2023-08-23T07:23:18Z</time>
      </trkpt>
      <trkpt lat="49.79788" lon="2.44907">
        <ele>35.8</ele>
        <time>2023-08-23T07:23:20Z</time>
      </trkpt>
      <trkpt lat="49.79786" lon="2.44907">
        <ele>35.8</ele>
        <time>2023-08-23T07:23:21Z</time>
      </trkpt>
      <trkpt lat="49.79785" lon="2.44908">
        <ele>35.8</ele>
        <time>2023-08-23T07:23:22Z</time>
      </trkpt>
      <trkpt lat="49.79784" lon="2.44908">
        <ele>35.9</ele>
        <time>2023-08-23T07:23:23Z</time>
      </trkpt>
      <trkpt lat="49.79782" lon="2.44909">
        <ele>35.9</ele>
        <time>2023-08-23T07:23:24Z</time>
      </trkpt>
      <trkpt lat="49.79781" lon="2.44909">
        <ele>35.9</ele>
        <time>2023-08-23T07:23:25Z</time>
      </trkpt>
      <trkpt lat="49.7978" lon="2.4491">
        <ele>35.9</ele>
        <time>2023-08-23T07:23:26Z</time>
      </trkpt>
      <trkpt lat="49.79779" lon="2.4491">
        <ele>35.9</ele>
        <time>2023-08-23T07:23:27Z</time>
      </trkpt>
      <trkpt lat="49.79777" lon="2.44911">
        <ele>36</ele>
        <time>2023-08-23T07:23:29Z</time>
      </trkpt>
      <trkpt lat="49.79776" lon="2.44912">
        <ele>36</ele>
        <time>2023-08-23T07:23:30Z</time>
      </trkpt>
      <trkpt lat="49.79775" lon="2.44912">
        <ele>36</ele>
        <time>2023-08-23T07:23:31Z</time>
      </trkpt>
      <trkpt lat="49.79774" lon="2.44913">
        <ele>36</ele>
        <time>2023-08-23T07:23:32Z</time>
      </trkpt>
      <trkpt lat="49.79773" lon="2.44914">
        <ele>36</ele>
        <time>2023-08-23T07:23:33Z</time>
      </trkpt>
      <trkpt lat="49.79772" lon="2.44915">
        <ele>36.1</ele>
        <time>2023-08-23T07:23:34Z</time>
      </trkpt>
      <trkpt lat="49.79771" lon="2.44916">
        <ele>36.1</ele>
        <time>2023-08-23T07:23:35Z</time>
      </trkpt>
      <trkpt lat="49.7977" lon="2.44916">
        <ele>36.1</ele>
        <time>2023-08-23T07:23:37Z</time>
      </trkpt>
      <trkpt lat="49.79769" lon="2.44917">
        <ele>36.1</ele>
        <time>2023-08-23T07:23:38Z</time>
      </trkpt>
      <trkpt lat="49.79767" lon="2.44918">
        <ele>36.1</ele>
        <time>2023-08-23T07:23:39Z</time>
      </trkpt>
      <trkpt lat="49.79766" lon="2.44918">
        <ele>36.2</ele>
        <time>2023-08-23T07:23:40Z</time>
      </trkpt>
      <trkpt lat="49.79765" lon="2.44918">
        <ele>36.2</ele>
        <time>2023-08-23T07:23:41Z</time>
      </trkpt>
      <trkpt lat="49.79763" lon="2.44919">
        <ele>36.2</ele>
        <time>2023-08-23T07:23:42Z</time>
      </trkpt>
      <trkpt lat="49.79762" lon="2.44919">
        <ele>36.2</ele>
        <time>2023-08-23T07:23:43Z</time>
      </trkpt>
      <trkpt lat="49.79761" lon="2.4492">
        <ele>36.2</ele>
        <time>2023-08-23T07:23:44Z</time>
      </trkpt>
      <trkpt lat="49.7976" lon="2.44921">
        <ele>36.2</ele>
        <time>2023-08-23T07:23:46Z</time>
      </trkpt>
      <trkpt lat="49.79759" lon="2.44922">
        <ele>36.3</ele>
        <time>2023-08-23T07:23:47Z</time>
      </trkpt>
      <trkpt lat="49.79758" lon="2.44923">
        <ele>36.3</ele>
        <time>2023-08-23T07:23:49Z</time>
      </trkpt>
      <trkpt lat="49.79757" lon="2.44923">
        <ele>36.3</ele>
        <time>2023-08-23T07:23:50Z</time>
      </trkpt>
      <trkpt lat="49.79756" lon="2.44924">
        <ele>36.3</ele>
        <time>2023-08-23T07:23:51Z</time>
      </trkpt>
      <trkpt lat="49.79755" lon="2.44924">
        <ele>36.3</ele>
        <time>2023-08-23T07:23:52Z</time>
      </trkpt>
      <trkpt lat="49.79753" lon="2.44925">
        <ele>36.3</ele>
        <time>2023-08-23T07:23:53Z</time>
      </trkpt>
      <trkpt lat="49.79752" lon="2.44926">
        <ele>36.3</ele>
        <time>2023-08-23T07:23:55Z</time>
      </trkpt>
      <trkpt lat="49.79751" lon="2.44926">
        <ele>36.3</ele>
        <time>2023-08-23T07:23:56Z</time>
      </trkpt>
      <trkpt lat="49.7975" lon="2.44926">
        <ele>36.4</ele>
        <time>2023-08-23T07:23:57Z</time>
      </trkpt>
      <trkpt lat="49.79748" lon="2.44927">
        <ele>36.4</ele>
        <time>2023-08-23T07:23:58Z</time>
      </trkpt>
      <trkpt lat="49.79747" lon="2.44927">
        <ele>36.4</ele>
        <time>2023-08-23T07:23:59Z</time>
      </trkpt>
      <trkpt lat="49.79746" lon="2.44928">
        <ele>36.4</ele>
        <time>2023-08-23T07:24:00Z</time>
      </trkpt>
      <trkpt lat="49.79744" lon="2.44928">
        <ele>36.4</ele>
        <time>2023-08-23T07:24:01Z</time>
      </trkpt>
      <trkpt lat="49.79743" lon="2.44928">
        <ele>36.4</ele>
        <time>2023-08-23T07:24:02Z</time>
      </trkpt>
      <trkpt lat="49.79741" lon="2.44928">
        <ele>36.4</ele>
        <time>2023-08-23T07:24:04Z</time>
      </trkpt>
      <trkpt lat="49.7974" lon="2.44929">
        <ele>36.5</ele>
        <time>2023-08-23T07:24:05Z</time>
      </trkpt>
      <trkpt lat="49.79739" lon="2.44929">
        <ele>36.5</ele>
        <time>2023-08-23T07:24:06Z</time>
      </trkpt>
      <trkpt lat="49.79737" lon="2.4493">
        <ele>36.5</ele>
        <time>2023-08-23T07:24:07Z</time>
      </trkpt>
      <trkpt lat="49.79736" lon="2.4493">
        <ele>36.5</ele>
        <time>2023-08-23T07:24:08Z</time>
      </trkpt>
      <trkpt lat="49.79735" lon="2.44931">
        <ele>36.5</ele>
        <time>2023-08-23T07:24:10Z</time>
      </trkpt>
      <trkpt lat="49.79734" lon="2.44931">
        <ele>36.5</ele>
        <time>2023-08-23T07:24:11Z</time>
      </trkpt>
      <trkpt lat="49.79732" lon="2.44932">
        <ele>36.5</ele>
        <time>2023-08-23T07:24:12Z</time>
      </trkpt>
      <trkpt lat="49.79731" lon="2.44932">
        <ele>36.5</ele>
        <time>2023-08-23T07:24:13Z</time>
      </trkpt>
      <trkpt lat="49.7973" lon="2.44933">
        <ele>36.5</ele>
        <time>2023-08-23T07:24:14Z</time>
      </trkpt>
      <trkpt lat="49.79729" lon="2.44933">
        <ele>36.5</ele>
        <time>2023-08-23T07:24:15Z</time>
      </trkpt>
      <trkpt lat="49.79727" lon="2.44933">
        <ele>36.5</ele>
        <time>2023-08-23T07:24:16Z</time>
      </trkpt>
      <trkpt lat="49.79726" lon="2.44934">
        <ele>36.5</ele>
        <time>2023-08-23T07:24:18Z</time>
      </trkpt>
      <trkpt lat="49.79725" lon="2.44934">
        <ele>36.6</ele>
        <time>2023-08-23T07:24:19Z</time>
      </trkpt>
      <trkpt lat="49.79724" lon="2.44935">
        <ele>36.6</ele>
        <time>2023-08-23T07:24:20Z</time>
      </trkpt>
      <trkpt lat="49.79723" lon="2.44935">
        <ele>36.6</ele>
        <time>2023-08-23T07:24:21Z</time>
      </trkpt>
      <trkpt lat="49.79722" lon="2.44936">
        <ele>36.6</ele>
        <time>2023-08-23T07:24:22Z</time>
      </trkpt>
      <trkpt lat="49.79721" lon="2.44936">
        <ele>36.6</ele>
        <time>2023-08-23T07:24:23Z</time>
      </trkpt>
      <trkpt lat="49.79719" lon="2.44937">
        <ele>36.6</ele>
        <time>2023-08-23T07:24:24Z</time>
      </trkpt>
      <trkpt lat="49.79718" lon="2.44938">
        <ele>36.6</ele>
        <time>2023-08-23T07:24:25Z</time>
      </trkpt>
      <trkpt lat="49.79716" lon="2.44938">
        <ele>36.6</ele>
        <time>2023-08-23T07:24:26Z</time>
      </trkpt>
      <trkpt lat="49.79715" lon="2.44939">
        <ele>36.7</ele>
        <time>2023-08-23T07:24:27Z</time>
      </trkpt>
      <trkpt lat="49.79714" lon="2.44939">
        <ele>36.7</ele>
        <time>2023-08-23T07:24:28Z</time>
      </trkpt>
      <trkpt lat="49.79712" lon="2.44941">
        <ele>36.7</ele>
        <time>2023-08-23T07:24:30Z</time>
      </trkpt>
      <trkpt lat="49.79711" lon="2.44942">
        <ele>36.7</ele>
        <time>2023-08-23T07:24:31Z</time>
      </trkpt>
      <trkpt lat="49.79709" lon="2.44943">
        <ele>36.8</ele>
        <time>2023-08-23T07:24:32Z</time>
      </trkpt>
      <trkpt lat="49.79708" lon="2.44944">
        <ele>36.8</ele>
        <time>2023-08-23T07:24:33Z</time>
      </trkpt>
      <trkpt lat="49.79707" lon="2.44945">
        <ele>36.8</ele>
        <time>2023-08-23T07:24:34Z</time>
      </trkpt>
      <trkpt lat="49.79705" lon="2.44946">
        <ele>36.8</ele>
        <time>2023-08-23T07:24:35Z</time>
      </trkpt>
      <trkpt lat="49.79704" lon="2.44947">
        <ele>36.8</ele>
        <time>2023-08-23T07:24:36Z</time>
      </trkpt>
      <trkpt lat="49.79701" lon="2.44948">
        <ele>36.9</ele>
        <time>2023-08-23T07:24:38Z</time>
      </trkpt>
      <trkpt lat="49.79701" lon="2.44949">
        <ele>36.9</ele>
        <time>2023-08-23T07:24:39Z</time>
      </trkpt>
      <trkpt lat="49.79699" lon="2.4495">
        <ele>36.9</ele>
        <time>2023-08-23T07:24:41Z</time>
      </trkpt>
      <trkpt lat="49.79698" lon="2.44951">
        <ele>37</ele>
        <time>2023-08-23T07:24:42Z</time>
      </trkpt>
      <trkpt lat="49.79696" lon="2.44952">
        <ele>37</ele>
        <time>2023-08-23T07:24:43Z</time>
      </trkpt>
      <trkpt lat="49.79696" lon="2.44953">
        <ele>37</ele>
        <time>2023-08-23T07:24:44Z</time>
      </trkpt>
      <trkpt lat="49.79694" lon="2.44954">
        <ele>37.1</ele>
        <time>2023-08-23T07:24:45Z</time>
      </trkpt>
      <trkpt lat="49.79693" lon="2.44955">
        <ele>37.1</ele>
        <time>2023-08-23T07:24:46Z</time>
      </trkpt>
      <trkpt lat="49.79692" lon="2.44955">
        <ele>37.1</ele>
        <time>2023-08-23T07:24:47Z</time>
      </trkpt>
      <trkpt lat="49.7969" lon="2.44956">
        <ele>37.1</ele>
        <time>2023-08-23T07:24:48Z</time>
      </trkpt>
      <trkpt lat="49.79689" lon="2.44956">
        <ele>37.1</ele>
        <time>2023-08-23T07:24:50Z</time>
      </trkpt>
      <trkpt lat="49.79688" lon="2.44956">
        <ele>37.2</ele>
        <time>2023-08-23T07:24:51Z</time>
      </trkpt>
      <trkpt lat="49.79687" lon="2.44957">
        <ele>37.2</ele>
        <time>2023-08-23T07:24:52Z</time>
      </trkpt>
      <trkpt lat="49.79686" lon="2.44957">
        <ele>37.2</ele>
        <time>2023-08-23T07:24:53Z</time>
      </trkpt>
      <trkpt lat="49.79685" lon="2.44957">
        <ele>37.2</ele>
        <time>2023-08-23T07:24:54Z</time>
      </trkpt>
      <trkpt lat="49.79682" lon="2.44958">
        <ele>37.3</ele>
        <time>2023-08-23T07:24:55Z</time>
      </trkpt>
      <trkpt lat="49.79681" lon="2.44958">
        <ele>37.3</ele>
        <time>2023-08-23T07:24:56Z</time>
      </trkpt>
      <trkpt lat="49.79681" lon="2.44959">
        <ele>37.3</ele>
        <time>2023-08-23T07:24:58Z</time>
      </trkpt>
      <trkpt lat="49.7968" lon="2.44959">
        <ele>37.3</ele>
        <time>2023-08-23T07:24:59Z</time>
      </trkpt>
      <trkpt lat="49.79679" lon="2.44959">
        <ele>37.3</ele>
        <time>2023-08-23T07:25:00Z</time>
      </trkpt>
      <trkpt lat="49.79678" lon="2.4496">
        <ele>37.3</ele>
        <time>2023-08-23T07:25:01Z</time>
      </trkpt>
      <trkpt lat="49.79676" lon="2.4496">
        <ele>37.3</ele>
        <time>2023-08-23T07:25:02Z</time>
      </trkpt>
      <trkpt lat="49.79675" lon="2.4496">
        <ele>37.3</ele>
        <time>2023-08-23T07:25:03Z</time>
      </trkpt>
      <trkpt lat="49.79675" lon="2.4496">
        <ele>37.4</ele>
        <time>2023-08-23T07:25:04Z</time>
      </trkpt>
      <trkpt lat="49.79674" lon="2.44961">
        <ele>37.4</ele>
        <time>2023-08-23T07:25:05Z</time>
      </trkpt>
      <trkpt lat="49.79673" lon="2.44961">
        <ele>37.4</ele>
        <time>2023-08-23T07:25:07Z</time>
      </trkpt>
      <trkpt lat="49.79672" lon="2.44962">
        <ele>37.4</ele>
        <time>2023-08-23T07:25:08Z</time>
      </trkpt>
      <trkpt lat="49.79671" lon="2.44962">
        <ele>37.4</ele>
        <time>2023-08-23T07:25:09Z</time>
      </trkpt>
      <trkpt lat="49.7967" lon="2.44962">
        <ele>37.4</ele>
        <time>2023-08-23T07:25:10Z</time>
      </trkpt>
      <trkpt lat="49.79669" lon="2.44963">
        <ele>37.4</ele>
        <time>2023-08-23T07:25:11Z</time>
      </trkpt>
      <trkpt lat="49.79668" lon="2.44963">
        <ele>37.4</ele>
        <time>2023-08-23T07:25:12Z</time>
      </trkpt>
      <trkpt lat="49.79667" lon="2.44964">
        <ele>37.4</ele>
        <time>2023-08-23T07:25:14Z</time>
      </trkpt>
      <trkpt lat="49.79665" lon="2.44965">
        <ele>37.4</ele>
        <time>2023-08-23T07:25:15Z</time>
      </trkpt>
      <trkpt lat="49.79664" lon="2.44965">
        <ele>37.4</ele>
        <time>2023-08-23T07:25:16Z</time>
      </trkpt>
      <trkpt lat="49.79663" lon="2.44966">
        <ele>37.4</ele>
        <time>2023-08-23T07:25:17Z</time>
      </trkpt>
      <trkpt lat="49.79661" lon="2.44967">
        <ele>37.4</ele>
        <time>2023-08-23T07:25:18Z</time>
      </trkpt>
      <trkpt lat="49.79661" lon="2.44968">
        <ele>37.4</ele>
        <time>2023-08-23T07:25:19Z</time>
      </trkpt>
      <trkpt lat="49.7966" lon="2.44969">
        <ele>37.4</ele>
        <time>2023-08-23T07:25:20Z</time>
      </trkpt>
      <trkpt lat="49.79658" lon="2.4497">
        <ele>37.3</ele>
        <time>2023-08-23T07:25:22Z</time>
      </trkpt>
      <trkpt lat="49.79657" lon="2.44971">
        <ele>37.3</ele>
        <time>2023-08-23T07:25:23Z</time>
      </trkpt>
      <trkpt lat="49.79656" lon="2.44972">
        <ele>37.3</ele>
        <time>2023-08-23T07:25:24Z</time>
      </trkpt>
      <trkpt lat="49.79654" lon="2.44973">
        <ele>37.3</ele>
        <time>2023-08-23T07:25:26Z</time>
      </trkpt>
      <trkpt lat="49.79653" lon="2.44974">
        <ele>37.3</ele>
        <time>2023-08-23T07:25:27Z</time>
      </trkpt>
      <trkpt lat="49.79651" lon="2.44975">
        <ele>37.3</ele>
        <time>2023-08-23T07:25:28Z</time>
      </trkpt>
      <trkpt lat="49.7965" lon="2.44976">
        <ele>37.3</ele>
        <time>2023-08-23T07:25:29Z</time>
      </trkpt>
      <trkpt lat="49.79649" lon="2.44977">
        <ele>37.2</ele>
        <time>2023-08-23T07:25:30Z</time>
      </trkpt>
      <trkpt lat="49.79647" lon="2.44978">
        <ele>37.2</ele>
        <time>2023-08-23T07:25:31Z</time>
      </trkpt>
      <trkpt lat="49.79646" lon="2.44979">
        <ele>37.2</ele>
        <time>2023-08-23T07:25:33Z</time>
      </trkpt>
      <trkpt lat="49.79645" lon="2.4498">
        <ele>37.2</ele>
        <time>2023-08-23T07:25:34Z</time>
      </trkpt>
      <trkpt lat="49.79643" lon="2.44982">
        <ele>37.1</ele>
        <time>2023-08-23T07:25:35Z</time>
      </trkpt>
      <trkpt lat="49.79642" lon="2.44983">
        <ele>37.1</ele>
        <time>2023-08-23T07:25:36Z</time>
      </trkpt>
      <trkpt lat="49.79641" lon="2.44983">
        <ele>37.1</ele>
        <time>2023-08-23T07:25:37Z</time>
      </trkpt>
      <trkpt lat="49.79639" lon="2.44984">
        <ele>37.1</ele>
        <time>2023-08-23T07:25:38Z</time>
      </trkpt>
      <trkpt lat="49.79638" lon="2.44985">
        <ele>37</ele>
        <time>2023-08-23T07:25:39Z</time>
      </trkpt>
      <trkpt lat="49.79636" lon="2.44986">
        <ele>37</ele>
        <time>2023-08-23T07:25:41Z</time>
      </trkpt>
      <trkpt lat="49.79635" lon="2.44987">
        <ele>37</ele>
        <time>2023-08-23T07:25:42Z</time>
      </trkpt>
      <trkpt lat="49.79633" lon="2.44988">
        <ele>36.9</ele>
        <time>2023-08-23T07:25:43Z</time>
      </trkpt>
      <trkpt lat="49.79632" lon="2.44989">
        <ele>36.9</ele>
        <time>2023-08-23T07:25:44Z</time>
      </trkpt>
      <trkpt lat="49.7963" lon="2.4499">
        <ele>36.9</ele>
        <time>2023-08-23T07:25:46Z</time>
      </trkpt>
      <trkpt lat="49.79628" lon="2.44992">
        <ele>36.8</ele>
        <time>2023-08-23T07:25:47Z</time>
      </trkpt>
      <trkpt lat="49.79627" lon="2.44993">
        <ele>36.8</ele>
        <time>2023-08-23T07:25:48Z</time>
      </trkpt>
      <trkpt lat="49.79626" lon="2.44994">
        <ele>36.8</ele>
        <time>2023-08-23T07:25:49Z</time>
      </trkpt>
      <trkpt lat="49.79625" lon="2.44995">
        <ele>36.8</ele>
        <time>2023-08-23T07:25:50Z</time>
      </trkpt>
      <trkpt lat="49.79625" lon="2.44997">
        <ele>36.7</ele>
        <time>2023-08-23T07:25:52Z</time>
      </trkpt>
      <trkpt lat="49.79623" lon="2.44999">
        <ele>36.7</ele>
        <time>2023-08-23T07:25:53Z</time>
      </trkpt>
      <trkpt lat="49.79622" lon="2.45001">
        <ele>36.7</ele>
        <time>2023-08-23T07:25:54Z</time>
      </trkpt>
      <trkpt lat="49.7962" lon="2.45003">
        <ele>36.6</ele>
        <time>2023-08-23T07:25:55Z</time>
      </trkpt>
      <trkpt lat="49.79619" lon="2.45005">
        <ele>36.6</ele>
        <time>2023-08-23T07:25:57Z</time>
      </trkpt>
      <trkpt lat="49.79618" lon="2.45007">
        <ele>36.6</ele>
        <time>2023-08-23T07:25:58Z</time>
      </trkpt>
      <trkpt lat="49.79617" lon="2.45009">
        <ele>36.5</ele>
        <time>2023-08-23T07:25:59Z</time>
      </trkpt>
      <trkpt lat="49.79616" lon="2.45012">
        <ele>36.5</ele>
        <time>2023-08-23T07:26:00Z</time>
      </trkpt>
      <trkpt lat="49.79615" lon="2.45016">
        <ele>36.4</ele>
        <time>2023-08-23T07:26:02Z</time>
      </trkpt>
      <trkpt lat="49.79614" lon="2.45018">
        <ele>36.4</ele>
        <time>2023-08-23T07:26:04Z</time>
      </trkpt>
      <trkpt lat="49.79613" lon="2.4502">
        <ele>36.3</ele>
        <time>2023-08-23T07:26:05Z</time>
      </trkpt>
      <trkpt lat="49.79613" lon="2.45022">
        <ele>36.3</ele>
        <time>2023-08-23T07:26:06Z</time>
      </trkpt>
      <trkpt lat="49.79612" lon="2.45025">
        <ele>36.2</ele>
        <time>2023-08-23T07:26:07Z</time>
      </trkpt>
      <trkpt lat="49.79612" lon="2.45027">
        <ele>36.2</ele>
        <time>2023-08-23T07:26:08Z</time>
      </trkpt>
      <trkpt lat="49.79611" lon="2.45028">
        <ele>36.2</ele>
        <time>2023-08-23T07:26:09Z</time>
      </trkpt>
      <trkpt lat="49.79611" lon="2.4503">
        <ele>36.1</ele>
        <time>2023-08-23T07:26:10Z</time>
      </trkpt>
      <trkpt lat="49.7961" lon="2.45031">
        <ele>36.1</ele>
        <time>2023-08-23T07:26:11Z</time>
      </trkpt>
      <trkpt lat="49.7961" lon="2.45033">
        <ele>36.1</ele>
        <time>2023-08-23T07:26:13Z</time>
      </trkpt>
      <trkpt lat="49.7961" lon="2.45036">
        <ele>36</ele>
        <time>2023-08-23T07:26:14Z</time>
      </trkpt>
      <trkpt lat="49.79609" lon="2.45039">
        <ele>36</ele>
        <time>2023-08-23T07:26:15Z</time>
      </trkpt>
      <trkpt lat="49.79609" lon="2.4504">
        <ele>35.9</ele>
        <time>2023-08-23T07:26:16Z</time>
      </trkpt>
      <trkpt lat="49.79608" lon="2.45043">
        <ele>35.9</ele>
        <time>2023-08-23T07:26:17Z</time>
      </trkpt>
      <trkpt lat="49.79608" lon="2.45045">
        <ele>35.8</ele>
        <time>2023-08-23T07:26:18Z</time>
      </trkpt>
      <trkpt lat="49.79607" lon="2.45047">
        <ele>35.8</ele>
        <time>2023-08-23T07:26:19Z</time>
      </trkpt>
      <trkpt lat="49.79607" lon="2.4505">
        <ele>35.7</ele>
        <time>2023-08-23T07:26:21Z</time>
      </trkpt>
      <trkpt lat="49.79606" lon="2.45052">
        <ele>35.7</ele>
        <time>2023-08-23T07:26:22Z</time>
      </trkpt>
      <trkpt lat="49.79606" lon="2.45054">
        <ele>35.6</ele>
        <time>2023-08-23T07:26:23Z</time>
      </trkpt>
      <trkpt lat="49.79606" lon="2.45056">
        <ele>35.6</ele>
        <time>2023-08-23T07:26:24Z</time>
      </trkpt>
      <trkpt lat="49.79605" lon="2.45059">
        <ele>35.5</ele>
        <time>2023-08-23T07:26:25Z</time>
      </trkpt>
      <trkpt lat="49.79604" lon="2.4506">
        <ele>35.4</ele>
        <time>2023-08-23T07:26:27Z</time>
      </trkpt>
      <trkpt lat="49.79603" lon="2.45062">
        <ele>35.4</ele>
        <time>2023-08-23T07:26:28Z</time>
      </trkpt>
      <trkpt lat="49.79603" lon="2.45063">
        <ele>35.3</ele>
        <time>2023-08-23T07:26:30Z</time>
      </trkpt>
      <trkpt lat="49.79602" lon="2.45065">
        <ele>35.3</ele>
        <time>2023-08-23T07:26:31Z</time>
      </trkpt>
      <trkpt lat="49.79601" lon="2.45066">
        <ele>35.3</ele>
        <time>2023-08-23T07:26:32Z</time>
      </trkpt>
      <trkpt lat="49.79601" lon="2.45067">
        <ele>35.2</ele>
        <time>2023-08-23T07:26:34Z</time>
      </trkpt>
      <trkpt lat="49.796" lon="2.45068">
        <ele>35.2</ele>
        <time>2023-08-23T07:26:35Z</time>
      </trkpt>
      <trkpt lat="49.79599" lon="2.4507">
        <ele>35.1</ele>
        <time>2023-08-23T07:26:36Z</time>
      </trkpt>
      <trkpt lat="49.79598" lon="2.45071">
        <ele>35.1</ele>
        <time>2023-08-23T07:26:37Z</time>
      </trkpt>
      <trkpt lat="49.79598" lon="2.45072">
        <ele>35.1</ele>
        <time>2023-08-23T07:26:38Z</time>
      </trkpt>
      <trkpt lat="49.79596" lon="2.45075">
        <ele>35</ele>
        <time>2023-08-23T07:26:40Z</time>
      </trkpt>
      <trkpt lat="49.79595" lon="2.45076">
        <ele>35</ele>
        <time>2023-08-23T07:26:41Z</time>
      </trkpt>
      <trkpt lat="49.79595" lon="2.45077">
        <ele>34.9</ele>
        <time>2023-08-23T07:26:42Z</time>
      </trkpt>
      <trkpt lat="49.79594" lon="2.45078">
        <ele>34.9</ele>
        <time>2023-08-23T07:26:44Z</time>
      </trkpt>
      <trkpt lat="49.79593" lon="2.45079">
        <ele>34.9</ele>
        <time>2023-08-23T07:26:45Z</time>
      </trkpt>
      <trkpt lat="49.79592" lon="2.4508">
        <ele>34.8</ele>
        <time>2023-08-23T07:26:46Z</time>
      </trkpt>
      <trkpt lat="49.7959" lon="2.45082">
        <ele>34.8</ele>
        <time>2023-08-23T07:26:47Z</time>
      </trkpt>
      <trkpt lat="49.7959" lon="2.45083">
        <ele>34.7</ele>
        <time>2023-08-23T07:26:48Z</time>
      </trkpt>
      <trkpt lat="49.79589" lon="2.45084">
        <ele>34.7</ele>
        <time>2023-08-23T07:26:49Z</time>
      </trkpt>
      <trkpt lat="49.79588" lon="2.45086">
        <ele>34.7</ele>
        <time>2023-08-23T07:26:50Z</time>
      </trkpt>
      <trkpt lat="49.79587" lon="2.45087">
        <ele>34.7</ele>
        <time>2023-08-23T07:26:51Z</time>
      </trkpt>
      <trkpt lat="49.79586" lon="2.45088">
        <ele>34.6</ele>
        <time>2023-08-23T07:26:52Z</time>
      </trkpt>
      <trkpt lat="49.79585" lon="2.45089">
        <ele>34.6</ele>
        <time>2023-08-23T07:26:54Z</time>
      </trkpt>
      <trkpt lat="49.79584" lon="2.4509">
        <ele>34.6</ele>
        <time>2023-08-23T07:26:55Z</time>
      </trkpt>
      <trkpt lat="49.79583" lon="2.45092">
        <ele>34.6</ele>
        <time>2023-08-23T07:26:56Z</time>
      </trkpt>
      <trkpt lat="49.79581" lon="2.45094">
        <ele>34.5</ele>
        <time>2023-08-23T07:26:57Z</time>
      </trkpt>
      <trkpt lat="49.79579" lon="2.45097">
        <ele>34.5</ele>
        <time>2023-08-23T07:26:59Z</time>
      </trkpt>
      <trkpt lat="49.79579" lon="2.45097">
        <ele>34.5</ele>
        <time>2023-08-23T07:27:00Z</time>
      </trkpt>
      <trkpt lat="49.79578" lon="2.45098">
        <ele>34.5</ele>
        <time>2023-08-23T07:27:01Z</time>
      </trkpt>
      <trkpt lat="49.79577" lon="2.45099">
        <ele>34.5</ele>
        <time>2023-08-23T07:27:02Z</time>
      </trkpt>
      <trkpt lat="49.79575" lon="2.45101">
        <ele>34.4</ele>
        <time>2023-08-23T07:27:04Z</time>
      </trkpt>
      <trkpt lat="49.79574" lon="2.45102">
        <ele>34.4</ele>
        <time>2023-08-23T07:27:05Z</time>
      </trkpt>
      <trkpt lat="49.79573" lon="2.45104">
        <ele>34.4</ele>
        <time>2023-08-23T07:27:06Z</time>
      </trkpt>
      <trkpt lat="49.79571" lon="2.45106">
        <ele>34.4</ele>
        <time>2023-08-23T07:27:07Z</time>
      </trkpt>
      <trkpt lat="49.7957" lon="2.45107">
        <ele>34.4</ele>
        <time>2023-08-23T07:27:09Z</time>
      </trkpt>
      <trkpt lat="49.79569" lon="2.45108">
        <ele>34.4</ele>
        <time>2023-08-23T07:27:10Z</time>
      </trkpt>
      <trkpt lat="49.79568" lon="2.45109">
        <ele>34.4</ele>
        <time>2023-08-23T07:27:11Z</time>
      </trkpt>
      <trkpt lat="49.79567" lon="2.4511">
        <ele>34.4</ele>
        <time>2023-08-23T07:27:12Z</time>
      </trkpt>
      <trkpt lat="49.79567" lon="2.45111">
        <ele>34.4</ele>
        <time>2023-08-23T07:27:13Z</time>
      </trkpt>
      <trkpt lat="49.79566" lon="2.45113">
        <ele>34.4</ele>
        <time>2023-08-23T07:27:14Z</time>
      </trkpt>
      <trkpt lat="49.79565" lon="2.45114">
        <ele>34.4</ele>
        <time>2023-08-23T07:27:16Z</time>
      </trkpt>
      <trkpt lat="49.79564" lon="2.45116">
        <ele>34.4</ele>
        <time>2023-08-23T07:27:17Z</time>
      </trkpt>
      <trkpt lat="49.79563" lon="2.45117">
        <ele>34.4</ele>
        <time>2023-08-23T07:27:18Z</time>
      </trkpt>
      <trkpt lat="49.79562" lon="2.45119">
        <ele>34.4</ele>
        <time>2023-08-23T07:27:20Z</time>
      </trkpt>
      <trkpt lat="49.79561" lon="2.4512">
        <ele>34.4</ele>
        <time>2023-08-23T07:27:21Z</time>
      </trkpt>
      <trkpt lat="49.7956" lon="2.45122">
        <ele>34.4</ele>
        <time>2023-08-23T07:27:22Z</time>
      </trkpt>
      <trkpt lat="49.79559" lon="2.45123">
        <ele>34.4</ele>
        <time>2023-08-23T07:27:23Z</time>
      </trkpt>
      <trkpt lat="49.79558" lon="2.45124">
        <ele>34.4</ele>
        <time>2023-08-23T07:27:24Z</time>
      </trkpt>
      <trkpt lat="49.79557" lon="2.45125">
        <ele>34.4</ele>
        <time>2023-08-23T07:27:25Z</time>
      </trkpt>
      <trkpt lat="49.79556" lon="2.45126">
        <ele>34.4</ele>
        <time>2023-08-23T07:27:27Z</time>
      </trkpt>
      <trkpt lat="49.79555" lon="2.45127">
        <ele>34.4</ele>
        <time>2023-08-23T07:27:28Z</time>
      </trkpt>
      <trkpt lat="49.79554" lon="2.45129">
        <ele>34.4</ele>
        <time>2023-08-23T07:27:29Z</time>
      </trkpt>
      <trkpt lat="49.79553" lon="2.4513">
        <ele>34.4</ele>
        <time>2023-08-23T07:27:30Z</time>
      </trkpt>
      <trkpt lat="49.79552" lon="2.45132">
        <ele>34.4</ele>
        <time>2023-08-23T07:27:31Z</time>
      </trkpt>
      <trkpt lat="49.79551" lon="2.45133">
        <ele>34.4</ele>
        <time>2023-08-23T07:27:33Z</time>
      </trkpt>
      <trkpt lat="49.7955" lon="2.45134">
        <ele>34.4</ele>
        <time>2023-08-23T07:27:34Z</time>
      </trkpt>
      <trkpt lat="49.79548" lon="2.45136">
        <ele>34.4</ele>
        <time>2023-08-23T07:27:35Z</time>
      </trkpt>
      <trkpt lat="49.79547" lon="2.45137">
        <ele>34.4</ele>
        <time>2023-08-23T07:27:36Z</time>
      </trkpt>
      <trkpt lat="49.79546" lon="2.45138">
        <ele>34.4</ele>
        <time>2023-08-23T07:27:37Z</time>
      </trkpt>
      <trkpt lat="49.79544" lon="2.45139">
        <ele>34.4</ele>
        <time>2023-08-23T07:27:38Z</time>
      </trkpt>
      <trkpt lat="49.79543" lon="2.4514">
        <ele>34.4</ele>
        <time>2023-08-23T07:27:39Z</time>
      </trkpt>
      <trkpt lat="49.79542" lon="2.45141">
        <ele>34.4</ele>
        <time>2023-08-23T07:27:40Z</time>
      </trkpt>
      <trkpt lat="49.79541" lon="2.45141">
        <ele>34.4</ele>
        <time>2023-08-23T07:27:41Z</time>
      </trkpt>
      <trkpt lat="49.7954" lon="2.45142">
        <ele>34.4</ele>
        <time>2023-08-23T07:27:43Z</time>
      </trkpt>
      <trkpt lat="49.79539" lon="2.45143">
        <ele>34.4</ele>
        <time>2023-08-23T07:27:44Z</time>
      </trkpt>
      <trkpt lat="49.79538" lon="2.45143">
        <ele>34.4</ele>
        <time>2023-08-23T07:27:45Z</time>
      </trkpt>
      <trkpt lat="49.79537" lon="2.45144">
        <ele>34.4</ele>
        <time>2023-08-23T07:27:46Z</time>
      </trkpt>
      <trkpt lat="49.79536" lon="2.45145">
        <ele>34.4</ele>
        <time>2023-08-23T07:27:47Z</time>
      </trkpt>
      <trkpt lat="49.79536" lon="2.45146">
        <ele>34.4</ele>
        <time>2023-08-23T07:27:48Z</time>
      </trkpt>
      <trkpt lat="49.79535" lon="2.45146">
        <ele>34.4</ele>
        <time>2023-08-23T07:27:49Z</time>
      </trkpt>
      <trkpt lat="49.79535" lon="2.45147">
        <ele>34.4</ele>
        <time>2023-08-23T07:27:51Z</time>
      </trkpt>
      <trkpt lat="49.79534" lon="2.45147">
        <ele>34.5</ele>
        <time>2023-08-23T07:27:52Z</time>
      </trkpt>
      <trkpt lat="49.79533" lon="2.45148">
        <ele>34.5</ele>
        <time>2023-08-23T07:27:53Z</time>
      </trkpt>
      <trkpt lat="49.79532" lon="2.45149">
        <ele>34.5</ele>
        <time>2023-08-23T07:27:55Z</time>
      </trkpt>
      <trkpt lat="49.7953" lon="2.4515">
        <ele>34.5</ele>
        <time>2023-08-23T07:27:56Z</time>
      </trkpt>
      <trkpt lat="49.7953" lon="2.4515">
        <ele>34.5</ele>
        <time>2023-08-23T07:27:57Z</time>
      </trkpt>
      <trkpt lat="49.79529" lon="2.4515">
        <ele>34.5</ele>
        <time>2023-08-23T07:27:58Z</time>
      </trkpt>
      <trkpt lat="49.79528" lon="2.45151">
        <ele>34.5</ele>
        <time>2023-08-23T07:27:59Z</time>
      </trkpt>
      <trkpt lat="49.79527" lon="2.45151">
        <ele>34.5</ele>
        <time>2023-08-23T07:28:00Z</time>
      </trkpt>
      <trkpt lat="49.79525" lon="2.45151">
        <ele>34.5</ele>
        <time>2023-08-23T07:28:01Z</time>
      </trkpt>
      <trkpt lat="49.79524" lon="2.45151">
        <ele>34.5</ele>
        <time>2023-08-23T07:28:03Z</time>
      </trkpt>
      <trkpt lat="49.79523" lon="2.45152">
        <ele>34.5</ele>
        <time>2023-08-23T07:28:04Z</time>
      </trkpt>
      <trkpt lat="49.79521" lon="2.45152">
        <ele>34.5</ele>
        <time>2023-08-23T07:28:05Z</time>
      </trkpt>
      <trkpt lat="49.7952" lon="2.45152">
        <ele>34.5</ele>
        <time>2023-08-23T07:28:06Z</time>
      </trkpt>
      <trkpt lat="49.79519" lon="2.45152">
        <ele>34.5</ele>
        <time>2023-08-23T07:28:07Z</time>
      </trkpt>
      <trkpt lat="49.79517" lon="2.45152">
        <ele>34.4</ele>
        <time>2023-08-23T07:28:08Z</time>
      </trkpt>
      <trkpt lat="49.79517" lon="2.45152">
        <ele>34.4</ele>
        <time>2023-08-23T07:28:10Z</time>
      </trkpt>
      <trkpt lat="49.79516" lon="2.45151">
        <ele>34.4</ele>
        <time>2023-08-23T07:28:11Z</time>
      </trkpt>
      <trkpt lat="49.79514" lon="2.45151">
        <ele>34.4</ele>
        <time>2023-08-23T07:28:12Z</time>
      </trkpt>
      <trkpt lat="49.79513" lon="2.45152">
        <ele>34.4</ele>
        <time>2023-08-23T07:28:13Z</time>
      </trkpt>
      <trkpt lat="49.79512" lon="2.45152">
        <ele>34.4</ele>
        <time>2023-08-23T07:28:14Z</time>
      </trkpt>
      <trkpt lat="49.7951" lon="2.45152">
        <ele>34.4</ele>
        <time>2023-08-23T07:28:15Z</time>
      </trkpt>
      <trkpt lat="49.79509" lon="2.45152">
        <ele>34.4</ele>
        <time>2023-08-23T07:28:16Z</time>
      </trkpt>
      <trkpt lat="49.79508" lon="2.45152">
        <ele>34.4</ele>
        <time>2023-08-23T07:28:17Z</time>
      </trkpt>
      <trkpt lat="49.79506" lon="2.45153">
        <ele>34.4</ele>
        <time>2023-08-23T07:28:18Z</time>
      </trkpt>
      <trkpt lat="49.79505" lon="2.45153">
        <ele>34.4</ele>
        <time>2023-08-23T07:28:20Z</time>
      </trkpt>
      <trkpt lat="49.79504" lon="2.45154">
        <ele>34.4</ele>
        <time>2023-08-23T07:28:21Z</time>
      </trkpt>
      <trkpt lat="49.79503" lon="2.45154">
        <ele>34.4</ele>
        <time>2023-08-23T07:28:22Z</time>
      </trkpt>
      <trkpt lat="49.79502" lon="2.45155">
        <ele>34.4</ele>
        <time>2023-08-23T07:28:23Z</time>
      </trkpt>
      <trkpt lat="49.79501" lon="2.45155">
        <ele>34.4</ele>
        <time>2023-08-23T07:28:25Z</time>
      </trkpt>
      <trkpt lat="49.79498" lon="2.45157">
        <ele>34.4</ele>
        <time>2023-08-23T07:28:26Z</time>
      </trkpt>
      <trkpt lat="49.79498" lon="2.45157">
        <ele>34.4</ele>
        <time>2023-08-23T07:28:27Z</time>
      </trkpt>
      <trkpt lat="49.79497" lon="2.45158">
        <ele>34.4</ele>
        <time>2023-08-23T07:28:28Z</time>
      </trkpt>
      <trkpt lat="49.79496" lon="2.45159">
        <ele>34.4</ele>
        <time>2023-08-23T07:28:29Z</time>
      </trkpt>
      <trkpt lat="49.79494" lon="2.4516">
        <ele>34.4</ele>
        <time>2023-08-23T07:28:30Z</time>
      </trkpt>
      <trkpt lat="49.79493" lon="2.45161">
        <ele>34.4</ele>
        <time>2023-08-23T07:28:31Z</time>
      </trkpt>
      <trkpt lat="49.79491" lon="2.45162">
        <ele>34.4</ele>
        <time>2023-08-23T07:28:33Z</time>
      </trkpt>
      <trkpt lat="49.79491" lon="2.45163">
        <ele>34.4</ele>
        <time>2023-08-23T07:28:34Z</time>
      </trkpt>
      <trkpt lat="49.7949" lon="2.45164">
        <ele>34.4</ele>
        <time>2023-08-23T07:28:36Z</time>
      </trkpt>
      <trkpt lat="49.79489" lon="2.45165">
        <ele>34.4</ele>
        <time>2023-08-23T07:28:37Z</time>
      </trkpt>
      <trkpt lat="49.79487" lon="2.45166">
        <ele>34.4</ele>
        <time>2023-08-23T07:28:38Z</time>
      </trkpt>
      <trkpt lat="49.79486" lon="2.45166">
        <ele>34.4</ele>
        <time>2023-08-23T07:28:39Z</time>
      </trkpt>
      <trkpt lat="49.79485" lon="2.45167">
        <ele>34.4</ele>
        <time>2023-08-23T07:28:40Z</time>
      </trkpt>
      <trkpt lat="49.79484" lon="2.45167">
        <ele>34.4</ele>
        <time>2023-08-23T07:28:41Z</time>
      </trkpt>
      <trkpt lat="49.79483" lon="2.45168">
        <ele>34.4</ele>
        <time>2023-08-23T07:28:43Z</time>
      </trkpt>
      <trkpt lat="49.79482" lon="2.45169">
        <ele>34.3</ele>
        <time>2023-08-23T07:28:44Z</time>
      </trkpt>
      <trkpt lat="49.79481" lon="2.45169">
        <ele>34.3</ele>
        <time>2023-08-23T07:28:45Z</time>
      </trkpt>
      <trkpt lat="49.7948" lon="2.4517">
        <ele>34.3</ele>
        <time>2023-08-23T07:28:46Z</time>
      </trkpt>
      <trkpt lat="49.79479" lon="2.4517">
        <ele>34.3</ele>
        <time>2023-08-23T07:28:47Z</time>
      </trkpt>
      <trkpt lat="49.79478" lon="2.45171">
        <ele>34.3</ele>
        <time>2023-08-23T07:28:48Z</time>
      </trkpt>
      <trkpt lat="49.79477" lon="2.45172">
        <ele>34.3</ele>
        <time>2023-08-23T07:28:49Z</time>
      </trkpt>
      <trkpt lat="49.79476" lon="2.45173">
        <ele>34.3</ele>
        <time>2023-08-23T07:28:51Z</time>
      </trkpt>
      <trkpt lat="49.79474" lon="2.45174">
        <ele>34.3</ele>
        <time>2023-08-23T07:28:52Z</time>
      </trkpt>
      <trkpt lat="49.79473" lon="2.45174">
        <ele>34.3</ele>
        <time>2023-08-23T07:28:54Z</time>
      </trkpt>
      <trkpt lat="49.79472" lon="2.45175">
        <ele>34.2</ele>
        <time>2023-08-23T07:28:55Z</time>
      </trkpt>
      <trkpt lat="49.79471" lon="2.45175">
        <ele>34.2</ele>
        <time>2023-08-23T07:28:56Z</time>
      </trkpt>
      <trkpt lat="49.7947" lon="2.45176">
        <ele>34.2</ele>
        <time>2023-08-23T07:28:57Z</time>
      </trkpt>
      <trkpt lat="49.79469" lon="2.45176">
        <ele>34.2</ele>
        <time>2023-08-23T07:28:58Z</time>
      </trkpt>
      <trkpt lat="49.79467" lon="2.45177">
        <ele>34.2</ele>
        <time>2023-08-23T07:28:59Z</time>
      </trkpt>
      <trkpt lat="49.79466" lon="2.45177">
        <ele>34.2</ele>
        <time>2023-08-23T07:29:01Z</time>
      </trkpt>
      <trkpt lat="49.79465" lon="2.45177">
        <ele>34.2</ele>
        <time>2023-08-23T07:29:02Z</time>
      </trkpt>
      <trkpt lat="49.79463" lon="2.45178">
        <ele>34.2</ele>
        <time>2023-08-23T07:29:03Z</time>
      </trkpt>
      <trkpt lat="49.79462" lon="2.45178">
        <ele>34.2</ele>
        <time>2023-08-23T07:29:04Z</time>
      </trkpt>
      <trkpt lat="49.79461" lon="2.45179">
        <ele>34.2</ele>
        <time>2023-08-23T07:29:05Z</time>
      </trkpt>
      <trkpt lat="49.7946" lon="2.4518">
        <ele>34.1</ele>
        <time>2023-08-23T07:29:06Z</time>
      </trkpt>
      <trkpt lat="49.79458" lon="2.45181">
        <ele>34.1</ele>
        <time>2023-08-23T07:29:08Z</time>
      </trkpt>
      <trkpt lat="49.79457" lon="2.45181">
        <ele>34.1</ele>
        <time>2023-08-23T07:29:09Z</time>
      </trkpt>
      <trkpt lat="49.79456" lon="2.45182">
        <ele>34.1</ele>
        <time>2023-08-23T07:29:10Z</time>
      </trkpt>
      <trkpt lat="49.79455" lon="2.45183">
        <ele>34.1</ele>
        <time>2023-08-23T07:29:11Z</time>
      </trkpt>
      <trkpt lat="49.79453" lon="2.45184">
        <ele>34.1</ele>
        <time>2023-08-23T07:29:12Z</time>
      </trkpt>
      <trkpt lat="49.79452" lon="2.45185">
        <ele>34.1</ele>
        <time>2023-08-23T07:29:14Z</time>
      </trkpt>
      <trkpt lat="49.79451" lon="2.45186">
        <ele>34.2</ele>
        <time>2023-08-23T07:29:15Z</time>
      </trkpt>
      <trkpt lat="49.79449" lon="2.45187">
        <ele>34.2</ele>
        <time>2023-08-23T07:29:16Z</time>
      </trkpt>
      <trkpt lat="49.79448" lon="2.45188">
        <ele>34.2</ele>
        <time>2023-08-23T07:29:17Z</time>
      </trkpt>
      <trkpt lat="49.79447" lon="2.45189">
        <ele>34.2</ele>
        <time>2023-08-23T07:29:18Z</time>
      </trkpt>
      <trkpt lat="49.79446" lon="2.45191">
        <ele>34.2</ele>
        <time>2023-08-23T07:29:19Z</time>
      </trkpt>
      <trkpt lat="49.79445" lon="2.45192">
        <ele>34.2</ele>
        <time>2023-08-23T07:29:20Z</time>
      </trkpt>
      <trkpt lat="49.79443" lon="2.45193">
        <ele>34.2</ele>
        <time>2023-08-23T07:29:22Z</time>
      </trkpt>
      <trkpt lat="49.79442" lon="2.45195">
        <ele>34.2</ele>
        <time>2023-08-23T07:29:23Z</time>
      </trkpt>
      <trkpt lat="49.79441" lon="2.45196">
        <ele>34.3</ele>
        <time>2023-08-23T07:29:24Z</time>
      </trkpt>
      <trkpt lat="49.7944" lon="2.45197">
        <ele>34.3</ele>
        <time>2023-08-23T07:29:25Z</time>
      </trkpt>
      <trkpt lat="49.79439" lon="2.45199">
        <ele>34.3</ele>
        <time>2023-08-23T07:29:26Z</time>
      </trkpt>
      <trkpt lat="49.79438" lon="2.452">
        <ele>34.3</ele>
        <time>2023-08-23T07:29:27Z</time>
      </trkpt>
      <trkpt lat="49.79437" lon="2.45202">
        <ele>34.3</ele>
        <time>2023-08-23T07:29:29Z</time>
      </trkpt>
      <trkpt lat="49.79435" lon="2.45204">
        <ele>34.4</ele>
        <time>2023-08-23T07:29:30Z</time>
      </trkpt>
      <trkpt lat="49.79435" lon="2.45205">
        <ele>34.4</ele>
        <time>2023-08-23T07:29:31Z</time>
      </trkpt>
      <trkpt lat="49.79434" lon="2.45206">
        <ele>34.4</ele>
        <time>2023-08-23T07:29:32Z</time>
      </trkpt>
      <trkpt lat="49.79433" lon="2.45209">
        <ele>34.4</ele>
        <time>2023-08-23T07:29:33Z</time>
      </trkpt>
      <trkpt lat="49.79433" lon="2.4521">
        <ele>34.4</ele>
        <time>2023-08-23T07:29:34Z</time>
      </trkpt>
      <trkpt lat="49.79432" lon="2.45211">
        <ele>34.5</ele>
        <time>2023-08-23T07:29:35Z</time>
      </trkpt>
      <trkpt lat="49.79431" lon="2.45214">
        <ele>34.5</ele>
        <time>2023-08-23T07:29:37Z</time>
      </trkpt>
      <trkpt lat="49.79431" lon="2.45215">
        <ele>34.5</ele>
        <time>2023-08-23T07:29:38Z</time>
      </trkpt>
      <trkpt lat="49.7943" lon="2.45216">
        <ele>34.5</ele>
        <time>2023-08-23T07:29:39Z</time>
      </trkpt>
      <trkpt lat="49.79429" lon="2.45217">
        <ele>34.5</ele>
        <time>2023-08-23T07:29:40Z</time>
      </trkpt>
      <trkpt lat="49.79429" lon="2.45218">
        <ele>34.6</ele>
        <time>2023-08-23T07:29:41Z</time>
      </trkpt>
      <trkpt lat="49.79428" lon="2.45219">
        <ele>34.6</ele>
        <time>2023-08-23T07:29:42Z</time>
      </trkpt>
      <trkpt lat="49.79427" lon="2.45221">
        <ele>34.6</ele>
        <time>2023-08-23T07:29:43Z</time>
      </trkpt>
      <trkpt lat="49.79426" lon="2.45222">
        <ele>34.6</ele>
        <time>2023-08-23T07:29:44Z</time>
      </trkpt>
      <trkpt lat="49.79425" lon="2.45223">
        <ele>34.6</ele>
        <time>2023-08-23T07:29:46Z</time>
      </trkpt>
      <trkpt lat="49.79424" lon="2.45224">
        <ele>34.7</ele>
        <time>2023-08-23T07:29:47Z</time>
      </trkpt>
      <trkpt lat="49.79423" lon="2.45225">
        <ele>34.7</ele>
        <time>2023-08-23T07:29:48Z</time>
      </trkpt>
      <trkpt lat="49.79422" lon="2.45226">
        <ele>34.7</ele>
        <time>2023-08-23T07:29:49Z</time>
      </trkpt>
      <trkpt lat="49.79421" lon="2.45227">
        <ele>34.7</ele>
        <time>2023-08-23T07:29:50Z</time>
      </trkpt>
      <trkpt lat="49.7942" lon="2.45228">
        <ele>34.8</ele>
        <time>2023-08-23T07:29:51Z</time>
      </trkpt>
      <trkpt lat="49.79419" lon="2.45229">
        <ele>34.8</ele>
        <time>2023-08-23T07:29:52Z</time>
      </trkpt>
      <trkpt lat="49.79419" lon="2.4523">
        <ele>34.8</ele>
        <time>2023-08-23T07:29:53Z</time>
      </trkpt>
      <trkpt lat="49.79418" lon="2.45231">
        <ele>34.8</ele>
        <time>2023-08-23T07:29:55Z</time>
      </trkpt>
      <trkpt lat="49.79417" lon="2.45232">
        <ele>34.9</ele>
        <time>2023-08-23T07:29:56Z</time>
      </trkpt>
      <trkpt lat="49.79416" lon="2.45234">
        <ele>34.9</ele>
        <time>2023-08-23T07:29:57Z</time>
      </trkpt>
      <trkpt lat="49.79415" lon="2.45235">
        <ele>34.9</ele>
        <time>2023-08-23T07:29:58Z</time>
      </trkpt>
      <trkpt lat="49.79415" lon="2.45236">
        <ele>34.9</ele>
        <time>2023-08-23T07:29:59Z</time>
      </trkpt>
      <trkpt lat="49.79413" lon="2.45239">
        <ele>35</ele>
        <time>2023-08-23T07:30:00Z</time>
      </trkpt>
      <trkpt lat="49.79413" lon="2.45239">
        <ele>35</ele>
        <time>2023-08-23T07:30:02Z</time>
      </trkpt>
      <trkpt lat="49.79412" lon="2.4524">
        <ele>35</ele>
        <time>2023-08-23T07:30:03Z</time>
      </trkpt>
      <trkpt lat="49.7941" lon="2.45243">
        <ele>35.1</ele>
        <time>2023-08-23T07:30:04Z</time>
      </trkpt>
      <trkpt lat="49.7941" lon="2.45244">
        <ele>35.1</ele>
        <time>2023-08-23T07:30:05Z</time>
      </trkpt>
      <trkpt lat="49.79409" lon="2.45245">
        <ele>35.1</ele>
        <time>2023-08-23T07:30:06Z</time>
      </trkpt>
      <trkpt lat="49.79408" lon="2.45248">
        <ele>35.2</ele>
        <time>2023-08-23T07:30:07Z</time>
      </trkpt>
      <trkpt lat="49.79408" lon="2.45249">
        <ele>35.2</ele>
        <time>2023-08-23T07:30:09Z</time>
      </trkpt>
      <trkpt lat="49.79407" lon="2.4525">
        <ele>35.2</ele>
        <time>2023-08-23T07:30:10Z</time>
      </trkpt>
      <trkpt lat="49.79406" lon="2.45251">
        <ele>35.3</ele>
        <time>2023-08-23T07:30:11Z</time>
      </trkpt>
      <trkpt lat="49.79405" lon="2.45253">
        <ele>35.3</ele>
        <time>2023-08-23T07:30:12Z</time>
      </trkpt>
      <trkpt lat="49.79404" lon="2.45256">
        <ele>35.4</ele>
        <time>2023-08-23T07:30:13Z</time>
      </trkpt>
      <trkpt lat="49.79404" lon="2.45257">
        <ele>35.4</ele>
        <time>2023-08-23T07:30:14Z</time>
      </trkpt>
      <trkpt lat="49.79403" lon="2.45258">
        <ele>35.4</ele>
        <time>2023-08-23T07:30:15Z</time>
      </trkpt>
      <trkpt lat="49.79403" lon="2.45259">
        <ele>35.4</ele>
        <time>2023-08-23T07:30:17Z</time>
      </trkpt>
      <trkpt lat="49.79402" lon="2.45261">
        <ele>35.5</ele>
        <time>2023-08-23T07:30:18Z</time>
      </trkpt>
      <trkpt lat="49.79401" lon="2.45262">
        <ele>35.5</ele>
        <time>2023-08-23T07:30:19Z</time>
      </trkpt>
      <trkpt lat="49.79399" lon="2.45263">
        <ele>35.6</ele>
        <time>2023-08-23T07:30:20Z</time>
      </trkpt>
      <trkpt lat="49.79398" lon="2.45264">
        <ele>35.6</ele>
        <time>2023-08-23T07:30:21Z</time>
      </trkpt>
      <trkpt lat="49.79397" lon="2.45265">
        <ele>35.6</ele>
        <time>2023-08-23T07:30:22Z</time>
      </trkpt>
      <trkpt lat="49.79396" lon="2.45266">
        <ele>35.7</ele>
        <time>2023-08-23T07:30:23Z</time>
      </trkpt>
      <trkpt lat="49.79395" lon="2.45267">
        <ele>35.7</ele>
        <time>2023-08-23T07:30:25Z</time>
      </trkpt>
      <trkpt lat="49.79394" lon="2.45268">
        <ele>35.8</ele>
        <time>2023-08-23T07:30:26Z</time>
      </trkpt>
      <trkpt lat="49.79393" lon="2.45269">
        <ele>35.8</ele>
        <time>2023-08-23T07:30:27Z</time>
      </trkpt>
      <trkpt lat="49.79391" lon="2.4527">
        <ele>35.9</ele>
        <time>2023-08-23T07:30:28Z</time>
      </trkpt>
      <trkpt lat="49.7939" lon="2.4527">
        <ele>35.9</ele>
        <time>2023-08-23T07:30:29Z</time>
      </trkpt>
      <trkpt lat="49.79389" lon="2.45271">
        <ele>36</ele>
        <time>2023-08-23T07:30:30Z</time>
      </trkpt>
      <trkpt lat="49.79387" lon="2.45272">
        <ele>36.1</ele>
        <time>2023-08-23T07:30:32Z</time>
      </trkpt>
      <trkpt lat="49.79386" lon="2.45272">
        <ele>36.1</ele>
        <time>2023-08-23T07:30:33Z</time>
      </trkpt>
      <trkpt lat="49.79386" lon="2.45273">
        <ele>36.2</ele>
        <time>2023-08-23T07:30:34Z</time>
      </trkpt>
      <trkpt lat="49.79385" lon="2.45273">
        <ele>36.2</ele>
        <time>2023-08-23T07:30:35Z</time>
      </trkpt>
      <trkpt lat="49.79383" lon="2.45274">
        <ele>36.3</ele>
        <time>2023-08-23T07:30:36Z</time>
      </trkpt>
      <trkpt lat="49.79382" lon="2.45275">
        <ele>36.3</ele>
        <time>2023-08-23T07:30:37Z</time>
      </trkpt>
      <trkpt lat="49.79382" lon="2.45275">
        <ele>36.4</ele>
        <time>2023-08-23T07:30:39Z</time>
      </trkpt>
      <trkpt lat="49.7938" lon="2.45276">
        <ele>36.4</ele>
        <time>2023-08-23T07:30:40Z</time>
      </trkpt>
      <trkpt lat="49.79379" lon="2.45277">
        <ele>36.5</ele>
        <time>2023-08-23T07:30:41Z</time>
      </trkpt>
      <trkpt lat="49.79378" lon="2.45278">
        <ele>36.5</ele>
        <time>2023-08-23T07:30:42Z</time>
      </trkpt>
      <trkpt lat="49.79377" lon="2.45279">
        <ele>36.6</ele>
        <time>2023-08-23T07:30:43Z</time>
      </trkpt>
      <trkpt lat="49.79377" lon="2.4528">
        <ele>36.6</ele>
        <time>2023-08-23T07:30:45Z</time>
      </trkpt>
      <trkpt lat="49.79376" lon="2.4528">
        <ele>36.6</ele>
        <time>2023-08-23T07:30:46Z</time>
      </trkpt>
      <trkpt lat="49.79375" lon="2.45281">
        <ele>36.7</ele>
        <time>2023-08-23T07:30:47Z</time>
      </trkpt>
      <trkpt lat="49.79375" lon="2.45282">
        <ele>36.7</ele>
        <time>2023-08-23T07:30:48Z</time>
      </trkpt>
      <trkpt lat="49.79374" lon="2.45283">
        <ele>36.8</ele>
        <time>2023-08-23T07:30:49Z</time>
      </trkpt>
      <trkpt lat="49.79373" lon="2.45284">
        <ele>36.8</ele>
        <time>2023-08-23T07:30:50Z</time>
      </trkpt>
      <trkpt lat="49.79372" lon="2.45285">
        <ele>36.8</ele>
        <time>2023-08-23T07:30:52Z</time>
      </trkpt>
      <trkpt lat="49.79371" lon="2.45285">
        <ele>36.9</ele>
        <time>2023-08-23T07:30:53Z</time>
      </trkpt>
      <trkpt lat="49.7937" lon="2.45286">
        <ele>36.9</ele>
        <time>2023-08-23T07:30:54Z</time>
      </trkpt>
      <trkpt lat="49.79369" lon="2.45287">
        <ele>37</ele>
        <time>2023-08-23T07:30:55Z</time>
      </trkpt>
      <trkpt lat="49.79368" lon="2.45288">
        <ele>37</ele>
        <time>2023-08-23T07:30:56Z</time>
      </trkpt>
      <trkpt lat="49.79367" lon="2.45288">
        <ele>37</ele>
        <time>2023-08-23T07:30:58Z</time>
      </trkpt>
      <trkpt lat="49.79366" lon="2.45289">
        <ele>37.1</ele>
        <time>2023-08-23T07:30:59Z</time>
      </trkpt>
      <trkpt lat="49.79365" lon="2.45289">
        <ele>37.1</ele>
        <time>2023-08-23T07:31:00Z</time>
      </trkpt>
      <trkpt lat="49.79364" lon="2.4529">
        <ele>37.2</ele>
        <time>2023-08-23T07:31:01Z</time>
      </trkpt>
      <trkpt lat="49.79363" lon="2.4529">
        <ele>37.2</ele>
        <time>2023-08-23T07:31:02Z</time>
      </trkpt>
      <trkpt lat="49.79362" lon="2.45291">
        <ele>37.2</ele>
        <time>2023-08-23T07:31:03Z</time>
      </trkpt>
      <trkpt lat="49.79361" lon="2.45291">
        <ele>37.3</ele>
        <time>2023-08-23T07:31:05Z</time>
      </trkpt>
      <trkpt lat="49.7936" lon="2.45292">
        <ele>37.3</ele>
        <time>2023-08-23T07:31:06Z</time>
      </trkpt>
      <trkpt lat="49.79359" lon="2.45293">
        <ele>37.3</ele>
        <time>2023-08-23T07:31:07Z</time>
      </trkpt>
      <trkpt lat="49.79358" lon="2.45294">
        <ele>37.4</ele>
        <time>2023-08-23T07:31:08Z</time>
      </trkpt>
      <trkpt lat="49.79358" lon="2.45295">
        <ele>37.4</ele>
        <time>2023-08-23T07:31:09Z</time>
      </trkpt>
      <trkpt lat="49.79356" lon="2.45296">
        <ele>37.5</ele>
        <time>2023-08-23T07:31:10Z</time>
      </trkpt>
      <trkpt lat="49.79355" lon="2.45297">
        <ele>37.5</ele>
        <time>2023-08-23T07:31:12Z</time>
      </trkpt>
      <trkpt lat="49.79354" lon="2.45298">
        <ele>37.6</ele>
        <time>2023-08-23T07:31:13Z</time>
      </trkpt>
      <trkpt lat="49.79352" lon="2.45299">
        <ele>37.6</ele>
        <time>2023-08-23T07:31:14Z</time>
      </trkpt>
      <trkpt lat="49.79351" lon="2.453">
        <ele>37.7</ele>
        <time>2023-08-23T07:31:15Z</time>
      </trkpt>
      <trkpt lat="49.79349" lon="2.45301">
        <ele>37.7</ele>
        <time>2023-08-23T07:31:16Z</time>
      </trkpt>
      <trkpt lat="49.79349" lon="2.45302">
        <ele>37.7</ele>
        <time>2023-08-23T07:31:18Z</time>
      </trkpt>
      <trkpt lat="49.79348" lon="2.45303">
        <ele>37.8</ele>
        <time>2023-08-23T07:31:19Z</time>
      </trkpt>
      <trkpt lat="49.79347" lon="2.45304">
        <ele>37.8</ele>
        <time>2023-08-23T07:31:20Z</time>
      </trkpt>
      <trkpt lat="49.79345" lon="2.45304">
        <ele>37.9</ele>
        <time>2023-08-23T07:31:21Z</time>
      </trkpt>
      <trkpt lat="49.79344" lon="2.45305">
        <ele>37.9</ele>
        <time>2023-08-23T07:31:22Z</time>
      </trkpt>
      <trkpt lat="49.79343" lon="2.45306">
        <ele>37.9</ele>
        <time>2023-08-23T07:31:23Z</time>
      </trkpt>
      <trkpt lat="49.79342" lon="2.45307">
        <ele>38</ele>
        <time>2023-08-23T07:31:25Z</time>
      </trkpt>
      <trkpt lat="49.79341" lon="2.45308">
        <ele>38</ele>
        <time>2023-08-23T07:31:26Z</time>
      </trkpt>
      <trkpt lat="49.7934" lon="2.45309">
        <ele>38</ele>
        <time>2023-08-23T07:31:27Z</time>
      </trkpt>
      <trkpt lat="49.79339" lon="2.4531">
        <ele>38.1</ele>
        <time>2023-08-23T07:31:28Z</time>
      </trkpt>
      <trkpt lat="49.79338" lon="2.4531">
        <ele>38.1</ele>
        <time>2023-08-23T07:31:29Z</time>
      </trkpt>
      <trkpt lat="49.79337" lon="2.45311">
        <ele>38.1</ele>
        <time>2023-08-23T07:31:30Z</time>
      </trkpt>
      <trkpt lat="49.79336" lon="2.45312">
        <ele>38.2</ele>
        <time>2023-08-23T07:31:31Z</time>
      </trkpt>
      <trkpt lat="49.79334" lon="2.45313">
        <ele>38.3</ele>
        <time>2023-08-23T07:31:33Z</time>
      </trkpt>
      <trkpt lat="49.79333" lon="2.45314">
        <ele>38.3</ele>
        <time>2023-08-23T07:31:34Z</time>
      </trkpt>
      <trkpt lat="49.79332" lon="2.45315">
        <ele>38.3</ele>
        <time>2023-08-23T07:31:35Z</time>
      </trkpt>
      <trkpt lat="49.79331" lon="2.45316">
        <ele>38.4</ele>
        <time>2023-08-23T07:31:36Z</time>
      </trkpt>
      <trkpt lat="49.7933" lon="2.45317">
        <ele>38.4</ele>
        <time>2023-08-23T07:31:37Z</time>
      </trkpt>
      <trkpt lat="49.79328" lon="2.45318">
        <ele>38.5</ele>
        <time>2023-08-23T07:31:38Z</time>
      </trkpt>
      <trkpt lat="49.79327" lon="2.45319">
        <ele>38.5</ele>
        <time>2023-08-23T07:31:39Z</time>
      </trkpt>
      <trkpt lat="49.79326" lon="2.4532">
        <ele>38.6</ele>
        <time>2023-08-23T07:31:41Z</time>
      </trkpt>
      <trkpt lat="49.79325" lon="2.45321">
        <ele>38.6</ele>
        <time>2023-08-23T07:31:42Z</time>
      </trkpt>
      <trkpt lat="49.79323" lon="2.45322">
        <ele>38.7</ele>
        <time>2023-08-23T07:31:43Z</time>
      </trkpt>
      <trkpt lat="49.79322" lon="2.45324">
        <ele>38.7</ele>
        <time>2023-08-23T07:31:44Z</time>
      </trkpt>
      <trkpt lat="49.7932" lon="2.45324">
        <ele>38.8</ele>
        <time>2023-08-23T07:31:46Z</time>
      </trkpt>
      <trkpt lat="49.79319" lon="2.45324">
        <ele>38.9</ele>
        <time>2023-08-23T07:31:47Z</time>
      </trkpt>
      <trkpt lat="49.79318" lon="2.45324">
        <ele>38.9</ele>
        <time>2023-08-23T07:31:48Z</time>
      </trkpt>
      <trkpt lat="49.79317" lon="2.45324">
        <ele>38.9</ele>
        <time>2023-08-23T07:31:49Z</time>
      </trkpt>
      <trkpt lat="49.79316" lon="2.45325">
        <ele>39</ele>
        <time>2023-08-23T07:31:50Z</time>
      </trkpt>
      <trkpt lat="49.79315" lon="2.45326">
        <ele>39</ele>
        <time>2023-08-23T07:31:51Z</time>
      </trkpt>
      <trkpt lat="49.79314" lon="2.45326">
        <ele>39.1</ele>
        <time>2023-08-23T07:31:53Z</time>
      </trkpt>
      <trkpt lat="49.79313" lon="2.45327">
        <ele>39.1</ele>
        <time>2023-08-23T07:31:54Z</time>
      </trkpt>
      <trkpt lat="49.79312" lon="2.45328">
        <ele>39.2</ele>
        <time>2023-08-23T07:31:55Z</time>
      </trkpt>
      <trkpt lat="49.79312" lon="2.45329">
        <ele>39.2</ele>
        <time>2023-08-23T07:31:56Z</time>
      </trkpt>
      <trkpt lat="49.79311" lon="2.4533">
        <ele>39.3</ele>
        <time>2023-08-23T07:31:57Z</time>
      </trkpt>
      <trkpt lat="49.79311" lon="2.45331">
        <ele>39.3</ele>
        <time>2023-08-23T07:31:59Z</time>
      </trkpt>
      <trkpt lat="49.7931" lon="2.45332">
        <ele>39.3</ele>
        <time>2023-08-23T07:32:00Z</time>
      </trkpt>
      <trkpt lat="49.79309" lon="2.45333">
        <ele>39.4</ele>
        <time>2023-08-23T07:32:01Z</time>
      </trkpt>
      <trkpt lat="49.79308" lon="2.45334">
        <ele>39.4</ele>
        <time>2023-08-23T07:32:02Z</time>
      </trkpt>
      <trkpt lat="49.79307" lon="2.45335">
        <ele>39.5</ele>
        <time>2023-08-23T07:32:03Z</time>
      </trkpt>
      <trkpt lat="49.79306" lon="2.45336">
        <ele>39.6</ele>
        <time>2023-08-23T07:32:04Z</time>
      </trkpt>
      <trkpt lat="49.79305" lon="2.45337">
        <ele>39.6</ele>
        <time>2023-08-23T07:32:05Z</time>
      </trkpt>
      <trkpt lat="49.79304" lon="2.45337">
        <ele>39.7</ele>
        <time>2023-08-23T07:32:06Z</time>
      </trkpt>
      <trkpt lat="49.79303" lon="2.45339">
        <ele>39.8</ele>
        <time>2023-08-23T07:32:08Z</time>
      </trkpt>
      <trkpt lat="49.79302" lon="2.4534">
        <ele>39.8</ele>
        <time>2023-08-23T07:32:09Z</time>
      </trkpt>
      <trkpt lat="49.79301" lon="2.4534">
        <ele>39.8</ele>
        <time>2023-08-23T07:32:10Z</time>
      </trkpt>
      <trkpt lat="49.79299" lon="2.45342">
        <ele>39.9</ele>
        <time>2023-08-23T07:32:11Z</time>
      </trkpt>
      <trkpt lat="49.79298" lon="2.45343">
        <ele>40</ele>
        <time>2023-08-23T07:32:12Z</time>
      </trkpt>
      <trkpt lat="49.79298" lon="2.45344">
        <ele>40</ele>
        <time>2023-08-23T07:32:14Z</time>
      </trkpt>
      <trkpt lat="49.79297" lon="2.45344">
        <ele>40.1</ele>
        <time>2023-08-23T07:32:15Z</time>
      </trkpt>
      <trkpt lat="49.79296" lon="2.45345">
        <ele>40.1</ele>
        <time>2023-08-23T07:32:16Z</time>
      </trkpt>
      <trkpt lat="49.79295" lon="2.45346">
        <ele>40.2</ele>
        <time>2023-08-23T07:32:17Z</time>
      </trkpt>
      <trkpt lat="49.79294" lon="2.45347">
        <ele>40.2</ele>
        <time>2023-08-23T07:32:18Z</time>
      </trkpt>
      <trkpt lat="49.79293" lon="2.45348">
        <ele>40.2</ele>
        <time>2023-08-23T07:32:19Z</time>
      </trkpt>
      <trkpt lat="49.79292" lon="2.45349">
        <ele>40.3</ele>
        <time>2023-08-23T07:32:21Z</time>
      </trkpt>
      <trkpt lat="49.79291" lon="2.4535">
        <ele>40.3</ele>
        <time>2023-08-23T07:32:22Z</time>
      </trkpt>
      <trkpt lat="49.7929" lon="2.45351">
        <ele>40.4</ele>
        <time>2023-08-23T07:32:23Z</time>
      </trkpt>
      <trkpt lat="49.79289" lon="2.45352">
        <ele>40.4</ele>
        <time>2023-08-23T07:32:24Z</time>
      </trkpt>
      <trkpt lat="49.79289" lon="2.45353">
        <ele>40.5</ele>
        <time>2023-08-23T07:32:25Z</time>
      </trkpt>
      <trkpt lat="49.79288" lon="2.45353">
        <ele>40.5</ele>
        <time>2023-08-23T07:32:26Z</time>
      </trkpt>
      <trkpt lat="49.79287" lon="2.45355">
        <ele>40.6</ele>
        <time>2023-08-23T07:32:28Z</time>
      </trkpt>
      <trkpt lat="49.79286" lon="2.45355">
        <ele>40.6</ele>
        <time>2023-08-23T07:32:29Z</time>
      </trkpt>
      <trkpt lat="49.79285" lon="2.45356">
        <ele>40.6</ele>
        <time>2023-08-23T07:32:31Z</time>
      </trkpt>
      <trkpt lat="49.79284" lon="2.45357">
        <ele>40.7</ele>
        <time>2023-08-23T07:32:32Z</time>
      </trkpt>
      <trkpt lat="49.79283" lon="2.45358">
        <ele>40.7</ele>
        <time>2023-08-23T07:32:33Z</time>
      </trkpt>
      <trkpt lat="49.79282" lon="2.45359">
        <ele>40.7</ele>
        <time>2023-08-23T07:32:34Z</time>
      </trkpt>
      <trkpt lat="49.79281" lon="2.4536">
        <ele>40.8</ele>
        <time>2023-08-23T07:32:35Z</time>
      </trkpt>
      <trkpt lat="49.79279" lon="2.45361">
        <ele>40.8</ele>
        <time>2023-08-23T07:32:37Z</time>
      </trkpt>
      <trkpt lat="49.79279" lon="2.45362">
        <ele>40.9</ele>
        <time>2023-08-23T07:32:38Z</time>
      </trkpt>
      <trkpt lat="49.79278" lon="2.45362">
        <ele>40.9</ele>
        <time>2023-08-23T07:32:39Z</time>
      </trkpt>
      <trkpt lat="49.79277" lon="2.45363">
        <ele>40.9</ele>
        <time>2023-08-23T07:32:40Z</time>
      </trkpt>
      <trkpt lat="49.79276" lon="2.45364">
        <ele>41</ele>
        <time>2023-08-23T07:32:41Z</time>
      </trkpt>
      <trkpt lat="49.79275" lon="2.45365">
        <ele>41</ele>
        <time>2023-08-23T07:32:42Z</time>
      </trkpt>
      <trkpt lat="49.79274" lon="2.45365">
        <ele>41</ele>
        <time>2023-08-23T07:32:44Z</time>
      </trkpt>
      <trkpt lat="49.79273" lon="2.45366">
        <ele>41</ele>
        <time>2023-08-23T07:32:45Z</time>
      </trkpt>
      <trkpt lat="49.79272" lon="2.45367">
        <ele>41</ele>
        <time>2023-08-23T07:32:46Z</time>
      </trkpt>
      <trkpt lat="49.79272" lon="2.45368">
        <ele>41.1</ele>
        <time>2023-08-23T07:32:47Z</time>
      </trkpt>
      <trkpt lat="49.79271" lon="2.45368">
        <ele>41.1</ele>
        <time>2023-08-23T07:32:48Z</time>
      </trkpt>
      <trkpt lat="49.7927" lon="2.45368">
        <ele>41.1</ele>
        <time>2023-08-23T07:32:49Z</time>
      </trkpt>
      <trkpt lat="49.79269" lon="2.45369">
        <ele>41.1</ele>
        <time>2023-08-23T07:32:50Z</time>
      </trkpt>
      <trkpt lat="49.79268" lon="2.45369">
        <ele>41.1</ele>
        <time>2023-08-23T07:32:51Z</time>
      </trkpt>
      <trkpt lat="49.79267" lon="2.4537">
        <ele>41.1</ele>
        <time>2023-08-23T07:32:53Z</time>
      </trkpt>
      <trkpt lat="49.79266" lon="2.45371">
        <ele>41.2</ele>
        <time>2023-08-23T07:32:54Z</time>
      </trkpt>
      <trkpt lat="49.79265" lon="2.45371">
        <ele>41.2</ele>
        <time>2023-08-23T07:32:55Z</time>
      </trkpt>
      <trkpt lat="49.79264" lon="2.45372">
        <ele>41.2</ele>
        <time>2023-08-23T07:32:56Z</time>
      </trkpt>
      <trkpt lat="49.79263" lon="2.45373">
        <ele>41.2</ele>
        <time>2023-08-23T07:32:57Z</time>
      </trkpt>
      <trkpt lat="49.79262" lon="2.45373">
        <ele>41.2</ele>
        <time>2023-08-23T07:32:58Z</time>
      </trkpt>
      <trkpt lat="49.79261" lon="2.45374">
        <ele>41.2</ele>
        <time>2023-08-23T07:32:59Z</time>
      </trkpt>
      <trkpt lat="49.7926" lon="2.45374">
        <ele>41.3</ele>
        <time>2023-08-23T07:33:01Z</time>
      </trkpt>
      <trkpt lat="49.79258" lon="2.45375">
        <ele>41.3</ele>
        <time>2023-08-23T07:33:02Z</time>
      </trkpt>
      <trkpt lat="49.79257" lon="2.45375">
        <ele>41.3</ele>
        <time>2023-08-23T07:33:03Z</time>
      </trkpt>
      <trkpt lat="49.79256" lon="2.45376">
        <ele>41.3</ele>
        <time>2023-08-23T07:33:04Z</time>
      </trkpt>
      <trkpt lat="49.79254" lon="2.45376">
        <ele>41.3</ele>
        <time>2023-08-23T07:33:05Z</time>
      </trkpt>
      <trkpt lat="49.79254" lon="2.45377">
        <ele>41.3</ele>
        <time>2023-08-23T07:33:06Z</time>
      </trkpt>
      <trkpt lat="49.79253" lon="2.45378">
        <ele>41.3</ele>
        <time>2023-08-23T07:33:07Z</time>
      </trkpt>
      <trkpt lat="49.79253" lon="2.45379">
        <ele>41.3</ele>
        <time>2023-08-23T07:33:09Z</time>
      </trkpt>
      <trkpt lat="49.79252" lon="2.45379">
        <ele>41.3</ele>
        <time>2023-08-23T07:33:10Z</time>
      </trkpt>
      <trkpt lat="49.79252" lon="2.45379">
        <ele>41.3</ele>
        <time>2023-08-23T07:33:12Z</time>
      </trkpt>
      <trkpt lat="49.79252" lon="2.45379">
        <ele>41.3</ele>
        <time>2023-08-23T07:33:13Z</time>
      </trkpt>
      <trkpt lat="49.79252" lon="2.45379">
        <ele>41.3</ele>
        <time>2023-08-23T07:33:14Z</time>
      </trkpt>
      <trkpt lat="49.79252" lon="2.45379">
        <ele>41.3</ele>
        <time>2023-08-23T07:33:16Z</time>
      </trkpt>
      <trkpt lat="49.79252" lon="2.45379">
        <ele>41.3</ele>
        <time>2023-08-23T07:33:17Z</time>
      </trkpt>
      <trkpt lat="49.79252" lon="2.45379">
        <ele>41.3</ele>
        <time>2023-08-23T07:33:19Z</time>
      </trkpt>
      <trkpt lat="49.79252" lon="2.45379">
        <ele>41.3</ele>
        <time>2023-08-23T07:33:20Z</time>
      </trkpt>
      <trkpt lat="49.79251" lon="2.45379">
        <ele>41.3</ele>
        <time>2023-08-23T07:33:22Z</time>
      </trkpt>
      <trkpt lat="49.79251" lon="2.45379">
        <ele>41.3</ele>
        <time>2023-08-23T07:33:23Z</time>
      </trkpt>
      <trkpt lat="49.79252" lon="2.45378">
        <ele>41.3</ele>
        <time>2023-08-23T07:33:25Z</time>
      </trkpt>
      <trkpt lat="49.79252" lon="2.45378">
        <ele>41.3</ele>
        <time>2023-08-23T07:33:26Z</time>
      </trkpt>
      <trkpt lat="49.79252" lon="2.45378">
        <ele>41.3</ele>
        <time>2023-08-23T07:33:27Z</time>
      </trkpt>
      <trkpt lat="49.79252" lon="2.45378">
        <ele>41.3</ele>
        <time>2023-08-23T07:33:28Z</time>
      </trkpt>
      <trkpt lat="49.79252" lon="2.45378">
        <ele>41.3</ele>
        <time>2023-08-23T07:33:29Z</time>
      </trkpt>
      <trkpt lat="49.79252" lon="2.45378">
        <ele>41.3</ele>
        <time>2023-08-23T07:33:30Z</time>
      </trkpt>
      <trkpt lat="49.79252" lon="2.45378">
        <ele>41.3</ele>
        <time>2023-08-23T07:33:31Z</time>
      </trkpt>
      <trkpt lat="49.79252" lon="2.45378">
        <ele>41.3</ele>
        <time>2023-08-23T07:33:32Z</time>
      </trkpt>
      <trkpt lat="49.79252" lon="2.45378">
        <ele>41.3</ele>
        <time>2023-08-23T07:33:33Z</time>
      </trkpt>
      <trkpt lat="49.79252" lon="2.45378">
        <ele>41.3</ele>
        <time>2023-08-23T07:33:34Z</time>
      </trkpt>
      <trkpt lat="49.79252" lon="2.45378">
        <ele>41.3</ele>
        <time>2023-08-23T07:33:35Z</time>
      </trkpt>
      <trkpt lat="49.79252" lon="2.45378">
        <ele>41.3</ele>
        <time>2023-08-23T07:33:36Z</time>
      </trkpt>
      <trkpt lat="49.79252" lon="2.45378">
        <ele>41.3</ele>
        <time>2023-08-23T07:33:37Z</time>
      </trkpt>
      <trkpt lat="49.79251" lon="2.45378">
        <ele>41.3</ele>
        <time>2023-08-23T07:33:38Z</time>
      </trkpt>
      <trkpt lat="49.79251" lon="2.45378">
        <ele>41.3</ele>
        <time>2023-08-23T07:33:39Z</time>
      </trkpt>
      <trkpt lat="49.79251" lon="2.45378">
        <ele>41.3</ele>
        <time>2023-08-23T07:33:40Z</time>
      </trkpt>
      <trkpt lat="49.79251" lon="2.45378">
        <ele>41.3</ele>
        <time>2023-08-23T07:33:41Z</time>
      </trkpt>
      <trkpt lat="49.79251" lon="2.45378">
        <ele>41.3</ele>
        <time>2023-08-23T07:33:42Z</time>
      </trkpt>
      <trkpt lat="49.79251" lon="2.45378">
        <ele>41.3</ele>
        <time>2023-08-23T07:33:43Z</time>
      </trkpt>
      <trkpt lat="49.79251" lon="2.45378">
        <ele>41.3</ele>
        <time>2023-08-23T07:33:44Z</time>
      </trkpt>
      <trkpt lat="49.79251" lon="2.45378">
        <ele>41.3</ele>
        <time>2023-08-23T07:33:45Z</time>
      </trkpt>
      <trkpt lat="49.79251" lon="2.45378">
        <ele>41.3</ele>
        <time>2023-08-23T07:33:46Z</time>
      </trkpt>
      <trkpt lat="49.79251" lon="2.45378">
        <ele>41.3</ele>
        <time>2023-08-23T07:33:47Z</time>
      </trkpt>
      <trkpt lat="49.79252" lon="2.45378">
        <ele>41.3</ele>
        <time>2023-08-23T07:33:48Z</time>
      </trkpt>
      <trkpt lat="49.79252" lon="2.45378">
        <ele>41.3</ele>
        <time>2023-08-23T07:33:49Z</time>
      </trkpt>
      <trkpt lat="49.79252" lon="2.45378">
        <ele>41.3</ele>
        <time>2023-08-23T07:33:50Z</time>
      </trkpt>
      <trkpt lat="49.79252" lon="2.45378">
        <ele>41.3</ele>
        <time>2023-08-23T07:33:51Z</time>
      </trkpt>
      <trkpt lat="49.79252" lon="2.45378">
        <ele>41.3</ele>
        <time>2023-08-23T07:33:52Z</time>
      </trkpt>
      <trkpt lat="49.79252" lon="2.45378">
        <ele>41.3</ele>
        <time>2023-08-23T07:33:53Z</time>
      </trkpt>
      <trkpt lat="49.79252" lon="2.45378">
        <ele>41.3</ele>
        <time>2023-08-23T07:33:54Z</time>
      </trkpt>
      <trkpt lat="49.79252" lon="2.45378">
        <ele>41.3</ele>
        <time>2023-08-23T07:33:55Z</time>
      </trkpt>
      <trkpt lat="49.79252" lon="2.45378">
        <ele>41.3</ele>
        <time>2023-08-23T07:33:56Z</time>
      </trkpt>
      <trkpt lat="49.79252" lon="2.45378">
        <ele>41.3</ele>
        <time>2023-08-23T07:33:57Z</time>
      </trkpt>
      <trkpt lat="49.79252" lon="2.45378">
        <ele>41.3</ele>
        <time>2023-08-23T07:33:58Z</time>
      </trkpt>
      <trkpt lat="49.79252" lon="2.45378">
        <ele>41.3</ele>
        <time>2023-08-23T07:33:59Z</time>
      </trkpt>
      <trkpt lat="49.79252" lon="2.45378">
        <ele>41.3</ele>
        <time>2023-08-23T07:34:00Z</time>
      </trkpt>
      <trkpt lat="49.79252" lon="2.45378">
        <ele>41.3</ele>
        <time>2023-08-23T07:34:01Z</time>
      </trkpt>
      <trkpt lat="49.79252" lon="2.45378">
        <ele>41.3</ele>
        <time>2023-08-23T07:34:02Z</time>
      </trkpt>
      <trkpt lat="49.79252" lon="2.45378">
        <ele>41.3</ele>
        <time>2023-08-23T07:34:03Z</time>
      </trkpt>
      <trkpt lat="49.79252" lon="2.45378">
        <ele>41.3</ele>
        <time>2023-08-23T07:34:04Z</time>
      </trkpt>
      <trkpt lat="49.79252" lon="2.45378">
        <ele>41.3</ele>
        <time>2023-08-23T07:34:05Z</time>
      </trkpt>
      <trkpt lat="49.79252" lon="2.45378">
        <ele>41.3</ele>
        <time>2023-08-23T07:34:06Z</time>
      </trkpt>
      <trkpt lat="49.79252" lon="2.45378">
        <ele>41.3</ele>
        <time>2023-08-23T07:34:07Z</time>
      </trkpt>
      <trkpt lat="49.79252" lon="2.45378">
        <ele>41.3</ele>
        <time>2023-08-23T07:34:08Z</time>
      </trkpt>
      <trkpt lat="49.79252" lon="2.45378">
        <ele>41.3</ele>
        <time>2023-08-23T07:34:09Z</time>
      </trkpt>
      <trkpt lat="49.79252" lon="2.45378">
        <ele>41.3</ele>
        <time>2023-08-23T07:34:10Z</time>
      </trkpt>
      <trkpt lat="49.79252" lon="2.45378">
        <ele>41.3</ele>
        <time>2023-08-23T07:34:11Z</time>
      </trkpt>
      <trkpt lat="49.79252" lon="2.45378">
        <ele>41.3</ele>
        <time>2023-08-23T07:34:12Z</time>
      </trkpt>
      <trkpt lat="49.79252" lon="2.45378">
        <ele>41.3</ele>
        <time>2023-08-23T07:34:13Z</time>
      </trkpt>
      <trkpt lat="49.79252" lon="2.45378">
        <ele>41.3</ele>
        <time>2023-08-23T07:34:14Z</time>
      </trkpt>
      <trkpt lat="49.79252" lon="2.45378">
        <ele>41.3</ele>
        <time>2023-08-23T07:34:15Z</time>
      </trkpt>
      <trkpt lat="49.79252" lon="2.45378">
        <ele>41.3</ele>
        <time>2023-08-23T07:34:16Z</time>
      </trkpt>
      <trkpt lat="49.79252" lon="2.45378">
        <ele>41.3</ele>
        <time>2023-08-23T07:34:17Z</time>
      </trkpt>
      <trkpt lat="49.79252" lon="2.45378">
        <ele>41.3</ele>
        <time>2023-08-23T07:34:18Z</time>
      </trkpt>
      <trkpt lat="49.79252" lon="2.45378">
        <ele>41.3</ele>
        <time>2023-08-23T07:34:19Z</time>
      </trkpt>
      <trkpt lat="49.79252" lon="2.45378">
        <ele>41.3</ele>
        <time>2023-08-23T07:34:20Z</time>
      </trkpt>
      <trkpt lat="49.79252" lon="2.45378">
        <ele>41.3</ele>
        <time>2023-08-23T07:34:21Z</time>
      </trkpt>
      <trkpt lat="49.79252" lon="2.45378">
        <ele>41.3</ele>
        <time>2023-08-23T07:34:22Z</time>
      </trkpt>
      <trkpt lat="49.79252" lon="2.45378">
        <ele>41.3</ele>
        <time>2023-08-23T07:34:23Z</time>
      </trkpt>
      <trkpt lat="49.79252" lon="2.45378">
        <ele>41.3</ele>
        <time>2023-08-23T07:34:24Z</time>
      </trkpt>
      <trkpt lat="49.79252" lon="2.45378">
        <ele>41.3</ele>
        <time>2023-08-23T07:34:25Z</time>
      </trkpt>
      <trkpt lat="49.79252" lon="2.45378">
        <ele>41.3</ele>
        <time>2023-08-23T07:34:26Z</time>
      </trkpt>
      <trkpt lat="49.79252" lon="2.45378">
        <ele>41.3</ele>
        <time>2023-08-23T07:34:27Z</time>
      </trkpt>
      <trkpt lat="49.79252" lon="2.45378">
        <ele>41.3</ele>
        <time>2023-08-23T07:34:28Z</time>
      </trkpt>
      <trkpt lat="49.79252" lon="2.45378">
        <ele>41.3</ele>
        <time>2023-08-23T07:34:29Z</time>
      </trkpt>
      <trkpt lat="49.79252" lon="2.45378">
        <ele>41.3</ele>
        <time>2023-08-23T07:34:30Z</time>
      </trkpt>
      <trkpt lat="49.79252" lon="2.45378">
        <ele>41.3</ele>
        <time>2023-08-23T07:34:31Z</time>
      </trkpt>
      <trkpt lat="49.79252" lon="2.45378">
        <ele>41.3</ele>
        <time>2023-08-23T07:34:32Z</time>
      </trkpt>
      <trkpt lat="49.79252" lon="2.45378">
        <ele>41.3</ele>
        <time>2023-08-23T07:34:33Z</time>
      </trkpt>
      <trkpt lat="49.79252" lon="2.45378">
        <ele>41.3</ele>
        <time>2023-08-23T07:34:34Z</time>
      </trkpt>
      <trkpt lat="49.79252" lon="2.45378">
        <ele>41.3</ele>
        <time>2023-08-23T07:34:35Z</time>
      </trkpt>
      <trkpt lat="49.79252" lon="2.45378">
        <ele>41.3</ele>
        <time>2023-08-23T07:34:36Z</time>
      </trkpt>
      <trkpt lat="49.79252" lon="2.45378">
        <ele>41.3</ele>
        <time>2023-08-23T07:34:37Z</time>
      </trkpt>
      <trkpt lat="49.79252" lon="2.45378">
        <ele>41.3</ele>
        <time>2023-08-23T07:34:38Z</time>
      </trkpt>
      <trkpt lat="49.79252" lon="2.45378">
        <ele>41.3</ele>
        <time>2023-08-23T07:34:39Z</time>
      </trkpt>
      <trkpt lat="49.79252" lon="2.45378">
        <ele>41.3</ele>
        <time>2023-08-23T07:34:40Z</time>
      </trkpt>
      <trkpt lat="49.79252" lon="2.45378">
        <ele>41.3</ele>
        <time>2023-08-23T07:34:41Z</time>
      </trkpt>
      <trkpt lat="49.79252" lon="2.45378">
        <ele>41.3</ele>
        <time>2023-08-23T07:34:42Z</time>
      </trkpt>
      <trkpt lat="49.79252" lon="2.45378">
        <ele>41.3</ele>
        <time>2023-08-23T07:34:43Z</time>
      </trkpt>
      <trkpt lat="49.79252" lon="2.45378">
        <ele>41.3</ele>
        <time>2023-08-23T07:34:44Z</time>
      </trkpt>
      <trkpt lat="49.79252" lon="2.45378">
        <ele>41.3</ele>
        <time>2023-08-23T07:34:45Z</time>
      </trkpt>
      <trkpt lat="49.79252" lon="2.45378">
        <ele>41.3</ele>
        <time>2023-08-23T07:34:46Z</time>
      </trkpt>
      <trkpt lat="49.79252" lon="2.45378">
        <ele>41.3</ele>
        <time>2023-08-23T07:34:47Z</time>
      </trkpt>
      <trkpt lat="49.79252" lon="2.45378">
        <ele>41.3</ele>
        <time>2023-08-23T07:34:48Z</time>
      </trkpt>
      <trkpt lat="49.79252" lon="2.45378">
        <ele>41.3</ele>
        <time>2023-08-23T07:34:49Z</time>
      </trkpt>
      <trkpt lat="49.79252" lon="2.45378">
        <ele>41.3</ele>
        <time>2023-08-23T07:34:50Z</time>
      </trkpt>
      <trkpt lat="49.79252" lon="2.45378">
        <ele>41.3</ele>
        <time>2023-08-23T07:34:51Z</time>
      </trkpt>
      <trkpt lat="49.79252" lon="2.45378">
        <ele>41.3</ele>
        <time>2023-08-23T07:34:52Z</time>
      </trkpt>
      <trkpt lat="49.79252" lon="2.45378">
        <ele>41.3</ele>
        <time>2023-08-23T07:34:53Z</time>
      </trkpt>
      <trkpt lat="49.79252" lon="2.45378">
        <ele>41.3</ele>
        <time>2023-08-23T07:34:54Z</time>
      </trkpt>
      <trkpt lat="49.79252" lon="2.45378">
        <ele>41.3</ele>
        <time>2023-08-23T07:34:55Z</time>
      </trkpt>
      <trkpt lat="49.79252" lon="2.45378">
        <ele>41.3</ele>
        <time>2023-08-23T07:34:56Z</time>
      </trkpt>
      <trkpt lat="49.79252" lon="2.45378">
        <ele>41.3</ele>
        <time>2023-08-23T07:34:57Z</time>
      </trkpt>
      <trkpt lat="49.79252" lon="2.45378">
        <ele>41.3</ele>
        <time>2023-08-23T07:34:58Z</time>
      </trkpt>
      <trkpt lat="49.79252" lon="2.45378">
        <ele>41.3</ele>
        <time>2023-08-23T07:34:59Z</time>
      </trkpt>
      <trkpt lat="49.79252" lon="2.45378">
        <ele>41.3</ele>
        <time>2023-08-23T07:35:00Z</time>
      </trkpt>
      <trkpt lat="49.79252" lon="2.45378">
        <ele>41.3</ele>
        <time>2023-08-23T07:35:01Z</time>
      </trkpt>
      <trkpt lat="49.79252" lon="2.45378">
        <ele>41.3</ele>
        <time>2023-08-23T07:35:02Z</time>
      </trkpt>
      <trkpt lat="49.79252" lon="2.45378">
        <ele>41.3</ele>
        <time>2023-08-23T07:35:03Z</time>
      </trkpt>
      <trkpt lat="49.79252" lon="2.45378">
        <ele>41.3</ele>
        <time>2023-08-23T07:35:04Z</time>
      </trkpt>
      <trkpt lat="49.79252" lon="2.45378">
        <ele>41.3</ele>
        <time>2023-08-23T07:35:05Z</time>
      </trkpt>
      <trkpt lat="49.79252" lon="2.45378">
        <ele>41.3</ele>
        <time>2023-08-23T07:35:06Z</time>
      </trkpt>
      <trkpt lat="49.79252" lon="2.45378">
        <ele>41.3</ele>
        <time>2023-08-23T07:35:07Z</time>
      </trkpt>
      <trkpt lat="49.79252" lon="2.45378">
        <ele>41.3</ele>
        <time>2023-08-23T07:35:08Z</time>
      </trkpt>
      <trkpt lat="49.79252" lon="2.45378">
        <ele>41.3</ele>
        <time>2023-08-23T07:35:09Z</time>
      </trkpt>
      <trkpt lat="49.79252" lon="2.45378">
        <ele>41.3</ele>
        <time>2023-08-23T07:35:10Z</time>
      </trkpt>
      <trkpt lat="49.79252" lon="2.45378">
        <ele>41.3</ele>
        <time>2023-08-23T07:35:11Z</time>
      </trkpt>
      <trkpt lat="49.79252" lon="2.45378">
        <ele>41.3</ele>
        <time>2023-08-23T07:35:12Z</time>
      </trkpt>
      <trkpt lat="49.79252" lon="2.45378">
        <ele>41.3</ele>
        <time>2023-08-23T07:35:13Z</time>
      </trkpt>
      <trkpt lat="49.79252" lon="2.45378">
        <ele>41.3</ele>
        <time>2023-08-23T07:35:14Z</time>
      </trkpt>
      <trkpt lat="49.79252" lon="2.45378">
        <ele>41.3</ele>
        <time>2023-08-23T07:35:15Z</time>
      </trkpt>
      <trkpt lat="49.79252" lon="2.45378">
        <ele>41.3</ele>
        <time>2023-08-23T07:35:16Z</time>
      </trkpt>
      <trkpt lat="49.79252" lon="2.45378">
        <ele>41.3</ele>
        <time>2023-08-23T07:35:17Z</time>
      </trkpt>
      <trkpt lat="49.79252" lon="2.45378">
        <ele>41.3</ele>
        <time>2023-08-23T07:35:18Z</time>
      </trkpt>
      <trkpt lat="49.79252" lon="2.45378">
        <ele>41.3</ele>
        <time>2023-08-23T07:35:19Z</time>
      </trkpt>
      <trkpt lat="49.79252" lon="2.45378">
        <ele>41.3</ele>
        <time>2023-08-23T07:35:20Z</time>
      </trkpt>
      <trkpt lat="49.79252" lon="2.45378">
        <ele>41.3</ele>
        <time>2023-08-23T07:35:21Z</time>
      </trkpt>
      <trkpt lat="49.79252" lon="2.45378">
        <ele>41.3</ele>
        <time>2023-08-23T07:35:22Z</time>
      </trkpt>
      <trkpt lat="49.79252" lon="2.45378">
        <ele>41.3</ele>
        <time>2023-08-23T07:35:23Z</time>
      </trkpt>
      <trkpt lat="49.79252" lon="2.45378">
        <ele>41.3</ele>
        <time>2023-08-23T07:35:24Z</time>
      </trkpt>
      <trkpt lat="49.79252" lon="2.45378">
        <ele>41.3</ele>
        <time>2023-08-23T07:35:25Z</time>
      </trkpt>
      <trkpt lat="49.79252" lon="2.45378">
        <ele>41.3</ele>
        <time>2023-08-23T07:35:26Z</time>
      </trkpt>
      <trkpt lat="49.79252" lon="2.45378">
        <ele>41.3</ele>
        <time>2023-08-23T07:35:27Z</time>
      </trkpt>
      <trkpt lat="49.79252" lon="2.45378">
        <ele>41.3</ele>
        <time>2023-08-23T07:35:28Z</time>
      </trkpt>
      <trkpt lat="49.79252" lon="2.45378">
        <ele>41.3</ele>
        <time>2023-08-23T07:35:29Z</time>
      </trkpt>
      <trkpt lat="49.79252" lon="2.45378">
        <ele>41.3</ele>
        <time>2023-08-23T07:35:30Z</time>
      </trkpt>
      <trkpt lat="49.79252" lon="2.45378">
        <ele>41.3</ele>
        <time>2023-08-23T07:35:31Z</time>
      </trkpt>
      <trkpt lat="49.79252" lon="2.45378">
        <ele>41.3</ele>
        <time>2023-08-23T07:35:32Z</time>
      </trkpt>
      <trkpt lat="49.79252" lon="2.45378">
        <ele>41.3</ele>
        <time>2023-08-23T07:35:33Z</time>
      </trkpt>
      <trkpt lat="49.79252" lon="2.45378">
        <ele>41.3</ele>
        <time>2023-08-23T07:35:34Z</time>
      </trkpt>
      <trkpt lat="49.79252" lon="2.45378">
        <ele>41.3</ele>
        <time>2023-08-23T07:35:35Z</time>
      </trkpt>
      <trkpt lat="49.79252" lon="2.45378">
        <ele>41.3</ele>
        <time>2023-08-23T07:35:36Z</time>
      </trkpt>
      <trkpt lat="49.79252" lon="2.45378">
        <ele>41.3</ele>
        <time>2023-08-23T07:35:37Z</time>
      </trkpt>
      <trkpt lat="49.79252" lon="2.45378">
        <ele>41.3</ele>
        <time>2023-08-23T07:35:38Z</time>
      </trkpt>
      <trkpt lat="49.79252" lon="2.45378">
        <ele>41.3</ele>
        <time>2023-08-23T07:35:39Z</time>
      </trkpt>
      <trkpt lat="49.79252" lon="2.45378">
        <ele>41.3</ele>
        <time>2023-08-23T07:35:40Z</time>
      </trkpt>
      <trkpt lat="49.79252" lon="2.45378">
        <ele>41.3</ele>
        <time>2023-08-23T07:35:41Z</time>
      </trkpt>
      <trkpt lat="49.79252" lon="2.45378">
        <ele>41.3</ele>
        <time>2023-08-23T07:35:42Z</time>
      </trkpt>
      <trkpt lat="49.79252" lon="2.45378">
        <ele>41.3</ele>
        <time>2023-08-23T07:35:43Z</time>
      </trkpt>
      <trkpt lat="49.79252" lon="2.45378">
        <ele>41.3</ele>
        <time>2023-08-23T07:35:44Z</time>
      </trkpt>
      <trkpt lat="49.79252" lon="2.45378">
        <ele>41.3</ele>
        <time>2023-08-23T07:35:45Z</time>
      </trkpt>
      <trkpt lat="49.79252" lon="2.45378">
        <ele>41.3</ele>
        <time>2023-08-23T07:35:46Z</time>
      </trkpt>
      <trkpt lat="49.79252" lon="2.45378">
        <ele>41.3</ele>
        <time>2023-08-23T07:35:47Z</time>
      </trkpt>
      <trkpt lat="49.79252" lon="2.45378">
        <ele>41.3</ele>
        <time>2023-08-23T07:35:49Z</time>
      </trkpt>
      <trkpt lat="49.79252" lon="2.45378">
        <ele>41.3</ele>
        <time>2023-08-23T07:35:50Z</time>
      </trkpt>
      <trkpt lat="49.79252" lon="2.45378">
        <ele>41.3</ele>
        <time>2023-08-23T07:35:51Z</time>
      </trkpt>
      <trkpt lat="49.79252" lon="2.45378">
        <ele>41.3</ele>
        <time>2023-08-23T07:35:52Z</time>
      </trkpt>
      <trkpt lat="49.79252" lon="2.45378">
        <ele>41.3</ele>
        <time>2023-08-23T07:35:53Z</time>
      </trkpt>
      <trkpt lat="49.79252" lon="2.45378">
        <ele>41.3</ele>
        <time>2023-08-23T07:35:54Z</time>
      </trkpt>
      <trkpt lat="49.79252" lon="2.45377">
        <ele>41.3</ele>
        <time>2023-08-23T07:35:55Z</time>
      </trkpt>
      <trkpt lat="49.79253" lon="2.45377">
        <ele>41.3</ele>
        <time>2023-08-23T07:35:56Z</time>
      </trkpt>
      <trkpt lat="49.79253" lon="2.45376">
        <ele>41.3</ele>
        <time>2023-08-23T07:35:57Z</time>
      </trkpt>
      <trkpt lat="49.79253" lon="2.45376">
        <ele>41.3</ele>
        <time>2023-08-23T07:35:58Z</time>
      </trkpt>
      <trkpt lat="49.79253" lon="2.45376">
        <ele>41.3</ele>
        <time>2023-08-23T07:35:59Z</time>
      </trkpt>
      <trkpt lat="49.79253" lon="2.45376">
        <ele>41.3</ele>
        <time>2023-08-23T07:36:00Z</time>
      </trkpt>
      <trkpt lat="49.79253" lon="2.45376">
        <ele>41.3</ele>
        <time>2023-08-23T07:36:02Z</time>
      </trkpt>
      <trkpt lat="49.79253" lon="2.45376">
        <ele>41.3</ele>
        <time>2023-08-23T07:36:03Z</time>
      </trkpt>
      <trkpt lat="49.79253" lon="2.45376">
        <ele>41.3</ele>
        <time>2023-08-23T07:36:04Z</time>
      </trkpt>
      <trkpt lat="49.79253" lon="2.45376">
        <ele>41.3</ele>
        <time>2023-08-23T07:36:05Z</time>
      </trkpt>
      <trkpt lat="49.79253" lon="2.45376">
        <ele>41.3</ele>
        <time>2023-08-23T07:36:06Z</time>
      </trkpt>
      <trkpt lat="49.79253" lon="2.45376">
        <ele>41.3</ele>
        <time>2023-08-23T07:36:07Z</time>
      </trkpt>
      <trkpt lat="49.79253" lon="2.45376">
        <ele>41.3</ele>
        <time>2023-08-23T07:36:08Z</time>
      </trkpt>
      <trkpt lat="49.79253" lon="2.45376">
        <ele>41.3</ele>
        <time>2023-08-23T07:36:09Z</time>
      </trkpt>
      <trkpt lat="49.79253" lon="2.45376">
        <ele>41.3</ele>
        <time>2023-08-23T07:36:10Z</time>
      </trkpt>
      <trkpt lat="49.79253" lon="2.45376">
        <ele>41.3</ele>
        <time>2023-08-23T07:36:11Z</time>
      </trkpt>
      <trkpt lat="49.79253" lon="2.45376">
        <ele>41.3</ele>
        <time>2023-08-23T07:36:12Z</time>
      </trkpt>
      <trkpt lat="49.79253" lon="2.45376">
        <ele>41.3</ele>
        <time>2023-08-23T07:36:13Z</time>
      </trkpt>
      <trkpt lat="49.79253" lon="2.45376">
        <ele>41.3</ele>
        <time>2023-08-23T07:36:14Z</time>
      </trkpt>
      <trkpt lat="49.79253" lon="2.45376">
        <ele>41.3</ele>
        <time>2023-08-23T07:36:15Z</time>
      </trkpt>
      <trkpt lat="49.79253" lon="2.45376">
        <ele>41.3</ele>
        <time>2023-08-23T07:36:17Z</time>
      </trkpt>
      <trkpt lat="49.79253" lon="2.45376">
        <ele>41.3</ele>
        <time>2023-08-23T07:36:18Z</time>
      </trkpt>
      <trkpt lat="49.79253" lon="2.45376">
        <ele>41.3</ele>
        <time>2023-08-23T07:36:19Z</time>
      </trkpt>
      <trkpt lat="49.79253" lon="2.45376">
        <ele>41.3</ele>
        <time>2023-08-23T07:36:20Z</time>
      </trkpt>
      <trkpt lat="49.79253" lon="2.45376">
        <ele>41.3</ele>
        <time>2023-08-23T07:36:21Z</time>
      </trkpt>
      <trkpt lat="49.79253" lon="2.45377">
        <ele>41.3</ele>
        <time>2023-08-23T07:36:23Z</time>
      </trkpt>
      <trkpt lat="49.79253" lon="2.45377">
        <ele>41.3</ele>
        <time>2023-08-23T07:36:24Z</time>
      </trkpt>
      <trkpt lat="49.79253" lon="2.45377">
        <ele>41.3</ele>
        <time>2023-08-23T07:36:25Z</time>
      </trkpt>
      <trkpt lat="49.79253" lon="2.45377">
        <ele>41.3</ele>
        <time>2023-08-23T07:36:26Z</time>
      </trkpt>
      <trkpt lat="49.79253" lon="2.45377">
        <ele>41.3</ele>
        <time>2023-08-23T07:36:27Z</time>
      </trkpt>
      <trkpt lat="49.79252" lon="2.45377">
        <ele>41.3</ele>
        <time>2023-08-23T07:36:29Z</time>
      </trkpt>
      <trkpt lat="49.79252" lon="2.45377">
        <ele>41.3</ele>
        <time>2023-08-23T07:36:30Z</time>
      </trkpt>
      <trkpt lat="49.79252" lon="2.45378">
        <ele>41.3</ele>
        <time>2023-08-23T07:36:31Z</time>
      </trkpt>
      <trkpt lat="49.79253" lon="2.45378">
        <ele>41.3</ele>
        <time>2023-08-23T07:36:32Z</time>
      </trkpt>
      <trkpt lat="49.79253" lon="2.45379">
        <ele>41.3</ele>
        <time>2023-08-23T07:36:34Z</time>
      </trkpt>
      <trkpt lat="49.79253" lon="2.45379">
        <ele>41.3</ele>
        <time>2023-08-23T07:36:35Z</time>
      </trkpt>
      <trkpt lat="49.79252" lon="2.4538">
        <ele>41.3</ele>
        <time>2023-08-23T07:36:36Z</time>
      </trkpt>
      <trkpt lat="49.79252" lon="2.4538">
        <ele>41.3</ele>
        <time>2023-08-23T07:36:37Z</time>
      </trkpt>
      <trkpt lat="49.79252" lon="2.4538">
        <ele>41.3</ele>
        <time>2023-08-23T07:36:38Z</time>
      </trkpt>
      <trkpt lat="49.79251" lon="2.45381">
        <ele>41.3</ele>
        <time>2023-08-23T07:36:39Z</time>
      </trkpt>
      <trkpt lat="49.7925" lon="2.45381">
        <ele>41.3</ele>
        <time>2023-08-23T07:36:40Z</time>
      </trkpt>
      <trkpt lat="49.79249" lon="2.45382">
        <ele>41.3</ele>
        <time>2023-08-23T07:36:42Z</time>
      </trkpt>
      <trkpt lat="49.79249" lon="2.45381">
        <ele>41.3</ele>
        <time>2023-08-23T07:36:43Z</time>
      </trkpt>
      <trkpt lat="49.79249" lon="2.45381">
        <ele>41.3</ele>
        <time>2023-08-23T07:36:44Z</time>
      </trkpt>
      <trkpt lat="49.79249" lon="2.45381">
        <ele>41.3</ele>
        <time>2023-08-23T07:36:45Z</time>
      </trkpt>
      <trkpt lat="49.79249" lon="2.45382">
        <ele>41.3</ele>
        <time>2023-08-23T07:36:46Z</time>
      </trkpt>
      <trkpt lat="49.79247" lon="2.45383">
        <ele>41.3</ele>
        <time>2023-08-23T07:36:47Z</time>
      </trkpt>
      <trkpt lat="49.79246" lon="2.45384">
        <ele>41.3</ele>
        <time>2023-08-23T07:36:48Z</time>
      </trkpt>
      <trkpt lat="49.79245" lon="2.45385">
        <ele>41.3</ele>
        <time>2023-08-23T07:36:49Z</time>
      </trkpt>
      <trkpt lat="49.79244" lon="2.45385">
        <ele>41.3</ele>
        <time>2023-08-23T07:36:51Z</time>
      </trkpt>
      <trkpt lat="49.79244" lon="2.45386">
        <ele>41.3</ele>
        <time>2023-08-23T07:36:52Z</time>
      </trkpt>
      <trkpt lat="49.79243" lon="2.45387">
        <ele>41.3</ele>
        <time>2023-08-23T07:36:53Z</time>
      </trkpt>
      <trkpt lat="49.79242" lon="2.45387">
        <ele>41.3</ele>
        <time>2023-08-23T07:36:54Z</time>
      </trkpt>
      <trkpt lat="49.79241" lon="2.45388">
        <ele>41.3</ele>
        <time>2023-08-23T07:36:55Z</time>
      </trkpt>
      <trkpt lat="49.7924" lon="2.45389">
        <ele>41.3</ele>
        <time>2023-08-23T07:36:56Z</time>
      </trkpt>
      <trkpt lat="49.79239" lon="2.4539">
        <ele>41.3</ele>
        <time>2023-08-23T07:36:57Z</time>
      </trkpt>
      <trkpt lat="49.79237" lon="2.45391">
        <ele>41.3</ele>
        <time>2023-08-23T07:36:58Z</time>
      </trkpt>
      <trkpt lat="49.79236" lon="2.45391">
        <ele>41.3</ele>
        <time>2023-08-23T07:37:00Z</time>
      </trkpt>
      <trkpt lat="49.79235" lon="2.45391">
        <ele>41.3</ele>
        <time>2023-08-23T07:37:01Z</time>
      </trkpt>
      <trkpt lat="49.79233" lon="2.45391">
        <ele>41.3</ele>
        <time>2023-08-23T07:37:02Z</time>
      </trkpt>
      <trkpt lat="49.79232" lon="2.45391">
        <ele>41.4</ele>
        <time>2023-08-23T07:37:03Z</time>
      </trkpt>
      <trkpt lat="49.7923" lon="2.45391">
        <ele>41.4</ele>
        <time>2023-08-23T07:37:04Z</time>
      </trkpt>
      <trkpt lat="49.79228" lon="2.45392">
        <ele>41.4</ele>
        <time>2023-08-23T07:37:05Z</time>
      </trkpt>
      <trkpt lat="49.79227" lon="2.45392">
        <ele>41.4</ele>
        <time>2023-08-23T07:37:07Z</time>
      </trkpt>
      <trkpt lat="49.79225" lon="2.45392">
        <ele>41.4</ele>
        <time>2023-08-23T07:37:08Z</time>
      </trkpt>
      <trkpt lat="49.79224" lon="2.45392">
        <ele>41.5</ele>
        <time>2023-08-23T07:37:09Z</time>
      </trkpt>
      <trkpt lat="49.79222" lon="2.45392">
        <ele>41.5</ele>
        <time>2023-08-23T07:37:10Z</time>
      </trkpt>
      <trkpt lat="49.79221" lon="2.45392">
        <ele>41.5</ele>
        <time>2023-08-23T07:37:11Z</time>
      </trkpt>
      <trkpt lat="49.79219" lon="2.45392">
        <ele>41.5</ele>
        <time>2023-08-23T07:37:12Z</time>
      </trkpt>
      <trkpt lat="49.79217" lon="2.45393">
        <ele>41.6</ele>
        <time>2023-08-23T07:37:13Z</time>
      </trkpt>
      <trkpt lat="49.79216" lon="2.45393">
        <ele>41.6</ele>
        <time>2023-08-23T07:37:15Z</time>
      </trkpt>
      <trkpt lat="49.79215" lon="2.45393">
        <ele>41.6</ele>
        <time>2023-08-23T07:37:16Z</time>
      </trkpt>
      <trkpt lat="49.79214" lon="2.45393">
        <ele>41.6</ele>
        <time>2023-08-23T07:37:17Z</time>
      </trkpt>
      <trkpt lat="49.79212" lon="2.45394">
        <ele>41.7</ele>
        <time>2023-08-23T07:37:18Z</time>
      </trkpt>
      <trkpt lat="49.7921" lon="2.45394">
        <ele>41.7</ele>
        <time>2023-08-23T07:37:19Z</time>
      </trkpt>
      <trkpt lat="49.79209" lon="2.45394">
        <ele>41.7</ele>
        <time>2023-08-23T07:37:20Z</time>
      </trkpt>
      <trkpt lat="49.79209" lon="2.45395">
        <ele>41.7</ele>
        <time>2023-08-23T07:37:21Z</time>
      </trkpt>
      <trkpt lat="49.79207" lon="2.45395">
        <ele>41.8</ele>
        <time>2023-08-23T07:37:23Z</time>
      </trkpt>
      <trkpt lat="49.79206" lon="2.45396">
        <ele>41.8</ele>
        <time>2023-08-23T07:37:24Z</time>
      </trkpt>
      <trkpt lat="49.79205" lon="2.45397">
        <ele>41.8</ele>
        <time>2023-08-23T07:37:26Z</time>
      </trkpt>
      <trkpt lat="49.79205" lon="2.45398">
        <ele>41.8</ele>
        <time>2023-08-23T07:37:27Z</time>
      </trkpt>
      <trkpt lat="49.79205" lon="2.45398">
        <ele>41.8</ele>
        <time>2023-08-23T07:37:28Z</time>
      </trkpt>
      <trkpt lat="49.79204" lon="2.45398">
        <ele>41.9</ele>
        <time>2023-08-23T07:37:30Z</time>
      </trkpt>
      <trkpt lat="49.79203" lon="2.45398">
        <ele>41.9</ele>
        <time>2023-08-23T07:37:31Z</time>
      </trkpt>
      <trkpt lat="49.79202" lon="2.45398">
        <ele>41.9</ele>
        <time>2023-08-23T07:37:32Z</time>
      </trkpt>
      <trkpt lat="49.79201" lon="2.45398">
        <ele>41.9</ele>
        <time>2023-08-23T07:37:33Z</time>
      </trkpt>
      <trkpt lat="49.792" lon="2.45399">
        <ele>42</ele>
        <time>2023-08-23T07:37:34Z</time>
      </trkpt>
      <trkpt lat="49.79198" lon="2.45399">
        <ele>42</ele>
        <time>2023-08-23T07:37:36Z</time>
      </trkpt>
      <trkpt lat="49.79197" lon="2.454">
        <ele>42</ele>
        <time>2023-08-23T07:37:37Z</time>
      </trkpt>
      <trkpt lat="49.79196" lon="2.454">
        <ele>42.1</ele>
        <time>2023-08-23T07:37:38Z</time>
      </trkpt>
      <trkpt lat="49.79194" lon="2.45401">
        <ele>42.1</ele>
        <time>2023-08-23T07:37:39Z</time>
      </trkpt>
      <trkpt lat="49.79193" lon="2.45402">
        <ele>42.2</ele>
        <time>2023-08-23T07:37:40Z</time>
      </trkpt>
      <trkpt lat="49.79192" lon="2.45403">
        <ele>42.2</ele>
        <time>2023-08-23T07:37:41Z</time>
      </trkpt>
      <trkpt lat="49.79191" lon="2.45405">
        <ele>42.2</ele>
        <time>2023-08-23T07:37:43Z</time>
      </trkpt>
      <trkpt lat="49.79189" lon="2.45407">
        <ele>42.3</ele>
        <time>2023-08-23T07:37:44Z</time>
      </trkpt>
      <trkpt lat="49.79189" lon="2.45409">
        <ele>42.3</ele>
        <time>2023-08-23T07:37:45Z</time>
      </trkpt>
      <trkpt lat="49.79189" lon="2.45411">
        <ele>42.2</ele>
        <time>2023-08-23T07:37:46Z</time>
      </trkpt>
      <trkpt lat="49.79188" lon="2.45412">
        <ele>42.2</ele>
        <time>2023-08-23T07:37:47Z</time>
      </trkpt>
      <trkpt lat="49.79188" lon="2.45415">
        <ele>42.2</ele>
        <time>2023-08-23T07:37:49Z</time>
      </trkpt>
      <trkpt lat="49.79188" lon="2.45418">
        <ele>42.1</ele>
        <time>2023-08-23T07:37:50Z</time>
      </trkpt>
      <trkpt lat="49.79189" lon="2.45419">
        <ele>42.1</ele>
        <time>2023-08-23T07:37:51Z</time>
      </trkpt>
      <trkpt lat="49.79189" lon="2.45421">
        <ele>42</ele>
        <time>2023-08-23T07:37:52Z</time>
      </trkpt>
      <trkpt lat="49.79189" lon="2.45422">
        <ele>42</ele>
        <time>2023-08-23T07:37:53Z</time>
      </trkpt>
      <trkpt lat="49.7919" lon="2.45424">
        <ele>41.9</ele>
        <time>2023-08-23T07:37:54Z</time>
      </trkpt>
      <trkpt lat="49.79191" lon="2.45426">
        <ele>41.9</ele>
        <time>2023-08-23T07:37:55Z</time>
      </trkpt>
      <trkpt lat="49.79191" lon="2.45428">
        <ele>41.8</ele>
        <time>2023-08-23T07:37:56Z</time>
      </trkpt>
      <trkpt lat="49.79192" lon="2.4543">
        <ele>41.7</ele>
        <time>2023-08-23T07:37:58Z</time>
      </trkpt>
      <trkpt lat="49.79193" lon="2.45432">
        <ele>41.7</ele>
        <time>2023-08-23T07:37:59Z</time>
      </trkpt>
      <trkpt lat="49.79194" lon="2.45434">
        <ele>41.6</ele>
        <time>2023-08-23T07:38:00Z</time>
      </trkpt>
      <trkpt lat="49.79194" lon="2.45436">
        <ele>41.6</ele>
        <time>2023-08-23T07:38:01Z</time>
      </trkpt>
      <trkpt lat="49.79195" lon="2.45438">
        <ele>41.5</ele>
        <time>2023-08-23T07:38:02Z</time>
      </trkpt>
      <trkpt lat="49.79195" lon="2.4544">
        <ele>41.4</ele>
        <time>2023-08-23T07:38:03Z</time>
      </trkpt>
      <trkpt lat="49.79196" lon="2.45442">
        <ele>41.3</ele>
        <time>2023-08-23T07:38:04Z</time>
      </trkpt>
      <trkpt lat="49.79197" lon="2.45446">
        <ele>41.2</ele>
        <time>2023-08-23T07:38:06Z</time>
      </trkpt>
      <trkpt lat="49.79197" lon="2.45448">
        <ele>41.2</ele>
        <time>2023-08-23T07:38:07Z</time>
      </trkpt>
      <trkpt lat="49.79198" lon="2.4545">
        <ele>41.1</ele>
        <time>2023-08-23T07:38:09Z</time>
      </trkpt>
      <trkpt lat="49.79198" lon="2.45453">
        <ele>41</ele>
        <time>2023-08-23T07:38:10Z</time>
      </trkpt>
      <trkpt lat="49.79199" lon="2.45455">
        <ele>40.9</ele>
        <time>2023-08-23T07:38:11Z</time>
      </trkpt>
      <trkpt lat="49.79199" lon="2.45457">
        <ele>40.9</ele>
        <time>2023-08-23T07:38:12Z</time>
      </trkpt>
      <trkpt lat="49.792" lon="2.45459">
        <ele>40.8</ele>
        <time>2023-08-23T07:38:13Z</time>
      </trkpt>
      <trkpt lat="49.792" lon="2.45462">
        <ele>40.7</ele>
        <time>2023-08-23T07:38:14Z</time>
      </trkpt>
      <trkpt lat="49.792" lon="2.45464">
        <ele>40.6</ele>
        <time>2023-08-23T07:38:15Z</time>
      </trkpt>
      <trkpt lat="49.79201" lon="2.45465">
        <ele>40.6</ele>
        <time>2023-08-23T07:38:16Z</time>
      </trkpt>
      <trkpt lat="49.79201" lon="2.45467">
        <ele>40.5</ele>
        <time>2023-08-23T07:38:18Z</time>
      </trkpt>
      <trkpt lat="49.79201" lon="2.45469">
        <ele>40.5</ele>
        <time>2023-08-23T07:38:19Z</time>
      </trkpt>
      <trkpt lat="49.79202" lon="2.45472">
        <ele>40.4</ele>
        <time>2023-08-23T07:38:20Z</time>
      </trkpt>
      <trkpt lat="49.79202" lon="2.45474">
        <ele>40.3</ele>
        <time>2023-08-23T07:38:21Z</time>
      </trkpt>
      <trkpt lat="49.79202" lon="2.45475">
        <ele>40.3</ele>
        <time>2023-08-23T07:38:22Z</time>
      </trkpt>
      <trkpt lat="49.79203" lon="2.45476">
        <ele>40.2</ele>
        <time>2023-08-23T07:38:24Z</time>
      </trkpt>
      <trkpt lat="49.79203" lon="2.45479">
        <ele>40.1</ele>
        <time>2023-08-23T07:38:25Z</time>
      </trkpt>
      <trkpt lat="49.79204" lon="2.45483">
        <ele>40</ele>
        <time>2023-08-23T07:38:27Z</time>
      </trkpt>
      <trkpt lat="49.79204" lon="2.45484">
        <ele>40</ele>
        <time>2023-08-23T07:38:28Z</time>
      </trkpt>
      <trkpt lat="49.79204" lon="2.45486">
        <ele>39.9</ele>
        <time>2023-08-23T07:38:29Z</time>
      </trkpt>
      <trkpt lat="49.79205" lon="2.45488">
        <ele>39.9</ele>
        <time>2023-08-23T07:38:30Z</time>
      </trkpt>
      <trkpt lat="49.79205" lon="2.45489">
        <ele>39.9</ele>
        <time>2023-08-23T07:38:31Z</time>
      </trkpt>
      <trkpt lat="49.79206" lon="2.4549">
        <ele>39.8</ele>
        <time>2023-08-23T07:38:32Z</time>
      </trkpt>
      <trkpt lat="49.79206" lon="2.45492">
        <ele>39.7</ele>
        <time>2023-08-23T07:38:33Z</time>
      </trkpt>
      <trkpt lat="49.79206" lon="2.45493">
        <ele>39.7</ele>
        <time>2023-08-23T07:38:34Z</time>
      </trkpt>
      <trkpt lat="49.79207" lon="2.45494">
        <ele>39.7</ele>
        <time>2023-08-23T07:38:36Z</time>
      </trkpt>
      <trkpt lat="49.79207" lon="2.45495">
        <ele>39.7</ele>
        <time>2023-08-23T07:38:37Z</time>
      </trkpt>
      <trkpt lat="49.79207" lon="2.45496">
        <ele>39.6</ele>
        <time>2023-08-23T07:38:38Z</time>
      </trkpt>
      <trkpt lat="49.79207" lon="2.45496">
        <ele>39.6</ele>
        <time>2023-08-23T07:38:39Z</time>
      </trkpt>
      <trkpt lat="49.79207" lon="2.45498">
        <ele>39.6</ele>
        <time>2023-08-23T07:38:40Z</time>
      </trkpt>
      <trkpt lat="49.79208" lon="2.45499">
        <ele>39.5</ele>
        <time>2023-08-23T07:38:41Z</time>
      </trkpt>
      <trkpt lat="49.79208" lon="2.45501">
        <ele>39.5</ele>
        <time>2023-08-23T07:38:42Z</time>
      </trkpt>
      <trkpt lat="49.79208" lon="2.45502">
        <ele>39.4</ele>
        <time>2023-08-23T07:38:44Z</time>
      </trkpt>
      <trkpt lat="49.79209" lon="2.45503">
        <ele>39.4</ele>
        <time>2023-08-23T07:38:45Z</time>
      </trkpt>
      <trkpt lat="49.79209" lon="2.45505">
        <ele>39.3</ele>
        <time>2023-08-23T07:38:46Z</time>
      </trkpt>
      <trkpt lat="49.7921" lon="2.45507">
        <ele>39.3</ele>
        <time>2023-08-23T07:38:47Z</time>
      </trkpt>
      <trkpt lat="49.7921" lon="2.45508">
        <ele>39.3</ele>
        <time>2023-08-23T07:38:48Z</time>
      </trkpt>
      <trkpt lat="49.79211" lon="2.4551">
        <ele>39.2</ele>
        <time>2023-08-23T07:38:49Z</time>
      </trkpt>
      <trkpt lat="49.79211" lon="2.45511">
        <ele>39.2</ele>
        <time>2023-08-23T07:38:50Z</time>
      </trkpt>
      <trkpt lat="49.79211" lon="2.45513">
        <ele>39.1</ele>
        <time>2023-08-23T07:38:52Z</time>
      </trkpt>
      <trkpt lat="49.79211" lon="2.45514">
        <ele>39.1</ele>
        <time>2023-08-23T07:38:53Z</time>
      </trkpt>
      <trkpt lat="49.79211" lon="2.45516">
        <ele>39</ele>
        <time>2023-08-23T07:38:54Z</time>
      </trkpt>
      <trkpt lat="49.79211" lon="2.45518">
        <ele>39</ele>
        <time>2023-08-23T07:38:55Z</time>
      </trkpt>
      <trkpt lat="49.79212" lon="2.4552">
        <ele>38.9</ele>
        <time>2023-08-23T07:38:56Z</time>
      </trkpt>
      <trkpt lat="49.79212" lon="2.45521">
        <ele>38.8</ele>
        <time>2023-08-23T07:38:57Z</time>
      </trkpt>
      <trkpt lat="49.79212" lon="2.45523">
        <ele>38.8</ele>
        <time>2023-08-23T07:38:58Z</time>
      </trkpt>
      <trkpt lat="49.79213" lon="2.45524">
        <ele>38.7</ele>
        <time>2023-08-23T07:38:59Z</time>
      </trkpt>
      <trkpt lat="49.79213" lon="2.45526">
        <ele>38.7</ele>
        <time>2023-08-23T07:39:01Z</time>
      </trkpt>
      <trkpt lat="49.79213" lon="2.45527">
        <ele>38.6</ele>
        <time>2023-08-23T07:39:02Z</time>
      </trkpt>
      <trkpt lat="49.79213" lon="2.45528">
        <ele>38.6</ele>
        <time>2023-08-23T07:39:03Z</time>
      </trkpt>
      <trkpt lat="49.79213" lon="2.4553">
        <ele>38.5</ele>
        <time>2023-08-23T07:39:04Z</time>
      </trkpt>
      <trkpt lat="49.79212" lon="2.45531">
        <ele>38.5</ele>
        <time>2023-08-23T07:39:05Z</time>
      </trkpt>
      <trkpt lat="49.79211" lon="2.45533">
        <ele>38.4</ele>
        <time>2023-08-23T07:39:07Z</time>
      </trkpt>
      <trkpt lat="49.79211" lon="2.45534">
        <ele>38.3</ele>
        <time>2023-08-23T07:39:08Z</time>
      </trkpt>
      <trkpt lat="49.79211" lon="2.45534">
        <ele>38.3</ele>
        <time>2023-08-23T07:39:10Z</time>
      </trkpt>
      <trkpt lat="49.79211" lon="2.45534">
        <ele>38.3</ele>
        <time>2023-08-23T07:39:11Z</time>
      </trkpt>
      <trkpt lat="49.7921" lon="2.45534">
        <ele>38.2</ele>
        <time>2023-08-23T07:39:12Z</time>
      </trkpt>
      <trkpt lat="49.79209" lon="2.45534">
        <ele>38.2</ele>
        <time>2023-08-23T07:39:13Z</time>
      </trkpt>
      <trkpt lat="49.79208" lon="2.45535">
        <ele>38.1</ele>
        <time>2023-08-23T07:39:14Z</time>
      </trkpt>
      <trkpt lat="49.79208" lon="2.45536">
        <ele>38</ele>
        <time>2023-08-23T07:39:15Z</time>
      </trkpt>
      <trkpt lat="49.79207" lon="2.45538">
        <ele>37.9</ele>
        <time>2023-08-23T07:39:16Z</time>
      </trkpt>
      <trkpt lat="49.79206" lon="2.45539">
        <ele>37.8</ele>
        <time>2023-08-23T07:39:18Z</time>
      </trkpt>
      <trkpt lat="49.79205" lon="2.4554">
        <ele>37.7</ele>
        <time>2023-08-23T07:39:19Z</time>
      </trkpt>
      <trkpt lat="49.79204" lon="2.4554">
        <ele>37.7</ele>
        <time>2023-08-23T07:39:20Z</time>
      </trkpt>
      <trkpt lat="49.79203" lon="2.4554">
        <ele>37.6</ele>
        <time>2023-08-23T07:39:21Z</time>
      </trkpt>
      <trkpt lat="49.79202" lon="2.4554">
        <ele>37.5</ele>
        <time>2023-08-23T07:39:22Z</time>
      </trkpt>
      <trkpt lat="49.79201" lon="2.4554">
        <ele>37.5</ele>
        <time>2023-08-23T07:39:23Z</time>
      </trkpt>
      <trkpt lat="49.792" lon="2.4554">
        <ele>37.4</ele>
        <time>2023-08-23T07:39:25Z</time>
      </trkpt>
      <trkpt lat="49.79199" lon="2.4554">
        <ele>37.3</ele>
        <time>2023-08-23T07:39:26Z</time>
      </trkpt>
      <trkpt lat="49.79198" lon="2.45541">
        <ele>37.2</ele>
        <time>2023-08-23T07:39:27Z</time>
      </trkpt>
      <trkpt lat="49.79196" lon="2.45541">
        <ele>37.1</ele>
        <time>2023-08-23T07:39:28Z</time>
      </trkpt>
      <trkpt lat="49.79194" lon="2.45541">
        <ele>37</ele>
        <time>2023-08-23T07:39:29Z</time>
      </trkpt>
      <trkpt lat="49.79193" lon="2.45541">
        <ele>36.9</ele>
        <time>2023-08-23T07:39:30Z</time>
      </trkpt>
      <trkpt lat="49.79192" lon="2.45541">
        <ele>36.9</ele>
        <time>2023-08-23T07:39:31Z</time>
      </trkpt>
      <trkpt lat="49.79191" lon="2.45541">
        <ele>36.8</ele>
        <time>2023-08-23T07:39:33Z</time>
      </trkpt>
      <trkpt lat="49.79189" lon="2.45542">
        <ele>36.7</ele>
        <time>2023-08-23T07:39:34Z</time>
      </trkpt>
      <trkpt lat="49.79187" lon="2.45542">
        <ele>36.6</ele>
        <time>2023-08-23T07:39:35Z</time>
      </trkpt>
      <trkpt lat="49.79186" lon="2.45543">
        <ele>36.5</ele>
        <time>2023-08-23T07:39:36Z</time>
      </trkpt>
      <trkpt lat="49.79185" lon="2.45543">
        <ele>36.5</ele>
        <time>2023-08-23T07:39:37Z</time>
      </trkpt>
      <trkpt lat="49.79184" lon="2.45544">
        <ele>36.4</ele>
        <time>2023-08-23T07:39:39Z</time>
      </trkpt>
      <trkpt lat="49.79182" lon="2.45545">
        <ele>36.3</ele>
        <time>2023-08-23T07:39:40Z</time>
      </trkpt>
      <trkpt lat="49.79181" lon="2.45546">
        <ele>36.3</ele>
        <time>2023-08-23T07:39:41Z</time>
      </trkpt>
      <trkpt lat="49.7918" lon="2.45547">
        <ele>36.2</ele>
        <time>2023-08-23T07:39:42Z</time>
      </trkpt>
      <trkpt lat="49.79179" lon="2.45548">
        <ele>36.2</ele>
        <time>2023-08-23T07:39:43Z</time>
      </trkpt>
      <trkpt lat="49.79177" lon="2.45549">
        <ele>36.1</ele>
        <time>2023-08-23T07:39:45Z</time>
      </trkpt>
      <trkpt lat="49.79175" lon="2.45549">
        <ele>36.1</ele>
        <time>2023-08-23T07:39:46Z</time>
      </trkpt>
      <trkpt lat="49.79174" lon="2.4555">
        <ele>36.1</ele>
        <time>2023-08-23T07:39:47Z</time>
      </trkpt>
      <trkpt lat="49.79173" lon="2.45551">
        <ele>36</ele>
        <time>2023-08-23T07:39:49Z</time>
      </trkpt>
      <trkpt lat="49.79171" lon="2.45552">
        <ele>36</ele>
        <time>2023-08-23T07:39:50Z</time>
      </trkpt>
      <trkpt lat="49.7917" lon="2.45553">
        <ele>35.9</ele>
        <time>2023-08-23T07:39:51Z</time>
      </trkpt>
      <trkpt lat="49.79169" lon="2.45553">
        <ele>35.9</ele>
        <time>2023-08-23T07:39:52Z</time>
      </trkpt>
      <trkpt lat="49.79167" lon="2.45555">
        <ele>35.9</ele>
        <time>2023-08-23T07:39:53Z</time>
      </trkpt>
      <trkpt lat="49.79166" lon="2.45556">
        <ele>35.9</ele>
        <time>2023-08-23T07:39:55Z</time>
      </trkpt>
      <trkpt lat="49.79165" lon="2.45556">
        <ele>35.9</ele>
        <time>2023-08-23T07:39:56Z</time>
      </trkpt>
      <trkpt lat="49.79163" lon="2.45557">
        <ele>35.8</ele>
        <time>2023-08-23T07:39:57Z</time>
      </trkpt>
      <trkpt lat="49.79162" lon="2.45558">
        <ele>35.8</ele>
        <time>2023-08-23T07:39:58Z</time>
      </trkpt>
      <trkpt lat="49.79161" lon="2.45559">
        <ele>35.8</ele>
        <time>2023-08-23T07:40:00Z</time>
      </trkpt>
      <trkpt lat="49.7916" lon="2.4556">
        <ele>35.8</ele>
        <time>2023-08-23T07:40:01Z</time>
      </trkpt>
      <trkpt lat="49.79158" lon="2.45561">
        <ele>35.8</ele>
        <time>2023-08-23T07:40:02Z</time>
      </trkpt>
      <trkpt lat="49.79156" lon="2.45561">
        <ele>35.7</ele>
        <time>2023-08-23T07:40:03Z</time>
      </trkpt>
      <trkpt lat="49.79156" lon="2.45561">
        <ele>35.7</ele>
        <time>2023-08-23T07:40:05Z</time>
      </trkpt>
      <trkpt lat="49.79155" lon="2.45561">
        <ele>35.7</ele>
        <time>2023-08-23T07:40:06Z</time>
      </trkpt>
      <trkpt lat="49.79153" lon="2.45561">
        <ele>35.7</ele>
        <time>2023-08-23T07:40:07Z</time>
      </trkpt>
      <trkpt lat="49.79152" lon="2.4556">
        <ele>36</ele>
        <time>2023-08-23T07:40:08Z</time>
      </trkpt>
      <trkpt lat="49.79151" lon="2.4556">
        <ele>36</ele>
        <time>2023-08-23T07:40:09Z</time>
      </trkpt>
      <trkpt lat="49.7915" lon="2.4556">
        <ele>36.1</ele>
        <time>2023-08-23T07:40:10Z</time>
      </trkpt>
      <trkpt lat="49.79148" lon="2.4556">
        <ele>36.1</ele>
        <time>2023-08-23T07:40:12Z</time>
      </trkpt>
      <trkpt lat="49.79147" lon="2.45559">
        <ele>36.2</ele>
        <time>2023-08-23T07:40:13Z</time>
      </trkpt>
      <trkpt lat="49.79146" lon="2.45558">
        <ele>36.2</ele>
        <time>2023-08-23T07:40:14Z</time>
      </trkpt>
      <trkpt lat="49.79146" lon="2.45558">
        <ele>36.2</ele>
        <time>2023-08-23T07:40:15Z</time>
      </trkpt>
      <trkpt lat="49.79145" lon="2.45557">
        <ele>36.3</ele>
        <time>2023-08-23T07:40:16Z</time>
      </trkpt>
      <trkpt lat="49.79144" lon="2.45556">
        <ele>36.3</ele>
        <time>2023-08-23T07:40:17Z</time>
      </trkpt>
      <trkpt lat="49.79144" lon="2.45555">
        <ele>36.4</ele>
        <time>2023-08-23T07:40:18Z</time>
      </trkpt>
      <trkpt lat="49.79143" lon="2.45554">
        <ele>36.4</ele>
        <time>2023-08-23T07:40:20Z</time>
      </trkpt>
      <trkpt lat="49.79142" lon="2.45553">
        <ele>36.4</ele>
        <time>2023-08-23T07:40:21Z</time>
      </trkpt>
      <trkpt lat="49.79142" lon="2.45552">
        <ele>36.5</ele>
        <time>2023-08-23T07:40:22Z</time>
      </trkpt>
      <trkpt lat="49.79141" lon="2.45551">
        <ele>36.5</ele>
        <time>2023-08-23T07:40:23Z</time>
      </trkpt>
      <trkpt lat="49.79141" lon="2.4555">
        <ele>36.6</ele>
        <time>2023-08-23T07:40:24Z</time>
      </trkpt>
      <trkpt lat="49.79141" lon="2.45549">
        <ele>36.6</ele>
        <time>2023-08-23T07:40:25Z</time>
      </trkpt>
      <trkpt lat="49.7914" lon="2.45548">
        <ele>36.6</ele>
        <time>2023-08-23T07:40:27Z</time>
      </trkpt>
      <trkpt lat="49.7914" lon="2.45547">
        <ele>36.7</ele>
        <time>2023-08-23T07:40:28Z</time>
      </trkpt>
      <trkpt lat="49.79139" lon="2.45546">
        <ele>36.7</ele>
        <time>2023-08-23T07:40:29Z</time>
      </trkpt>
      <trkpt lat="49.79139" lon="2.45545">
        <ele>36.7</ele>
        <time>2023-08-23T07:40:30Z</time>
      </trkpt>
      <trkpt lat="49.79138" lon="2.45543">
        <ele>36.8</ele>
        <time>2023-08-23T07:40:31Z</time>
      </trkpt>
      <trkpt lat="49.79137" lon="2.45541">
        <ele>36.9</ele>
        <time>2023-08-23T07:40:32Z</time>
      </trkpt>
      <trkpt lat="49.79136" lon="2.45539">
        <ele>36.9</ele>
        <time>2023-08-23T07:40:33Z</time>
      </trkpt>
      <trkpt lat="49.79136" lon="2.45538">
        <ele>37</ele>
        <time>2023-08-23T07:40:35Z</time>
      </trkpt>
      <trkpt lat="49.79135" lon="2.45537">
        <ele>37.1</ele>
        <time>2023-08-23T07:40:36Z</time>
      </trkpt>
      <trkpt lat="49.79134" lon="2.45536">
        <ele>37.1</ele>
        <time>2023-08-23T07:40:37Z</time>
      </trkpt>
      <trkpt lat="49.79134" lon="2.45534">
        <ele>37.2</ele>
        <time>2023-08-23T07:40:38Z</time>
      </trkpt>
      <trkpt lat="49.79134" lon="2.45533">
        <ele>37.2</ele>
        <time>2023-08-23T07:40:39Z</time>
      </trkpt>
      <trkpt lat="49.79134" lon="2.45532">
        <ele>37.2</ele>
        <time>2023-08-23T07:40:40Z</time>
      </trkpt>
      <trkpt lat="49.79134" lon="2.4553">
        <ele>37.3</ele>
        <time>2023-08-23T07:40:41Z</time>
      </trkpt>
      <trkpt lat="49.79134" lon="2.45528">
        <ele>37.3</ele>
        <time>2023-08-23T07:40:43Z</time>
      </trkpt>
      <trkpt lat="49.79134" lon="2.45527">
        <ele>37.4</ele>
        <time>2023-08-23T07:40:44Z</time>
      </trkpt>
      <trkpt lat="49.79133" lon="2.45525">
        <ele>37.5</ele>
        <time>2023-08-23T07:40:45Z</time>
      </trkpt>
      <trkpt lat="49.79133" lon="2.45523">
        <ele>37.5</ele>
        <time>2023-08-23T07:40:46Z</time>
      </trkpt>
      <trkpt lat="49.79133" lon="2.45521">
        <ele>37.6</ele>
        <time>2023-08-23T07:40:47Z</time>
      </trkpt>
      <trkpt lat="49.79132" lon="2.45519">
        <ele>37.7</ele>
        <time>2023-08-23T07:40:48Z</time>
      </trkpt>
      <trkpt lat="49.79132" lon="2.45517">
        <ele>37.7</ele>
        <time>2023-08-23T07:40:50Z</time>
      </trkpt>
      <trkpt lat="49.79131" lon="2.45516">
        <ele>37.8</ele>
        <time>2023-08-23T07:40:51Z</time>
      </trkpt>
      <trkpt lat="49.7913" lon="2.45513">
        <ele>37.9</ele>
        <time>2023-08-23T07:40:52Z</time>
      </trkpt>
      <trkpt lat="49.79129" lon="2.45512">
        <ele>38</ele>
        <time>2023-08-23T07:40:53Z</time>
      </trkpt>
      <trkpt lat="49.79129" lon="2.4551">
        <ele>38</ele>
        <time>2023-08-23T07:40:54Z</time>
      </trkpt>
      <trkpt lat="49.79128" lon="2.45509">
        <ele>38.1</ele>
        <time>2023-08-23T07:40:55Z</time>
      </trkpt>
      <trkpt lat="49.79127" lon="2.45507">
        <ele>38.1</ele>
        <time>2023-08-23T07:40:56Z</time>
      </trkpt>
      <trkpt lat="49.79127" lon="2.45506">
        <ele>38.2</ele>
        <time>2023-08-23T07:40:58Z</time>
      </trkpt>
      <trkpt lat="49.79126" lon="2.45504">
        <ele>38.2</ele>
        <time>2023-08-23T07:40:59Z</time>
      </trkpt>
      <trkpt lat="49.79126" lon="2.45502">
        <ele>38.3</ele>
        <time>2023-08-23T07:41:00Z</time>
      </trkpt>
      <trkpt lat="49.79125" lon="2.45501">
        <ele>38.4</ele>
        <time>2023-08-23T07:41:01Z</time>
      </trkpt>
      <trkpt lat="49.79125" lon="2.45499">
        <ele>38.4</ele>
        <time>2023-08-23T07:41:02Z</time>
      </trkpt>
      <trkpt lat="49.79125" lon="2.45498">
        <ele>38.5</ele>
        <time>2023-08-23T07:41:03Z</time>
      </trkpt>
      <trkpt lat="49.79124" lon="2.45496">
        <ele>38.5</ele>
        <time>2023-08-23T07:41:04Z</time>
      </trkpt>
      <trkpt lat="49.79124" lon="2.45495">
        <ele>38.6</ele>
        <time>2023-08-23T07:41:06Z</time>
      </trkpt>
      <trkpt lat="49.79123" lon="2.45493">
        <ele>38.7</ele>
        <time>2023-08-23T07:41:07Z</time>
      </trkpt>
      <trkpt lat="49.79123" lon="2.45491">
        <ele>38.7</ele>
        <time>2023-08-23T07:41:08Z</time>
      </trkpt>
      <trkpt lat="49.79122" lon="2.4549">
        <ele>38.8</ele>
        <time>2023-08-23T07:41:09Z</time>
      </trkpt>
      <trkpt lat="49.79122" lon="2.45488">
        <ele>38.8</ele>
        <time>2023-08-23T07:41:10Z</time>
      </trkpt>
      <trkpt lat="49.79122" lon="2.45487">
        <ele>38.9</ele>
        <time>2023-08-23T07:41:11Z</time>
      </trkpt>
      <trkpt lat="49.79121" lon="2.45485">
        <ele>39</ele>
        <time>2023-08-23T07:41:12Z</time>
      </trkpt>
      <trkpt lat="49.79121" lon="2.45484">
        <ele>39</ele>
        <time>2023-08-23T07:41:14Z</time>
      </trkpt>
      <trkpt lat="49.7912" lon="2.45482">
        <ele>39.1</ele>
        <time>2023-08-23T07:41:15Z</time>
      </trkpt>
      <trkpt lat="49.7912" lon="2.45481">
        <ele>39.1</ele>
        <time>2023-08-23T07:41:16Z</time>
      </trkpt>
      <trkpt lat="49.79119" lon="2.4548">
        <ele>39.2</ele>
        <time>2023-08-23T07:41:17Z</time>
      </trkpt>
      <trkpt lat="49.79119" lon="2.45478">
        <ele>39.2</ele>
        <time>2023-08-23T07:41:18Z</time>
      </trkpt>
      <trkpt lat="49.79118" lon="2.45478">
        <ele>39.3</ele>
        <time>2023-08-23T07:41:19Z</time>
      </trkpt>
      <trkpt lat="49.79117" lon="2.45477">
        <ele>39.5</ele>
        <time>2023-08-23T07:41:21Z</time>
      </trkpt>
      <trkpt lat="49.79116" lon="2.45476">
        <ele>39.5</ele>
        <time>2023-08-23T07:41:22Z</time>
      </trkpt>
      <trkpt lat="49.79114" lon="2.45476">
        <ele>39.6</ele>
        <time>2023-08-23T07:41:23Z</time>
      </trkpt>
      <trkpt lat="49.79113" lon="2.45475">
        <ele>39.7</ele>
        <time>2023-08-23T07:41:24Z</time>
      </trkpt>
      <trkpt lat="49.79112" lon="2.45473">
        <ele>39.7</ele>
        <time>2023-08-23T07:41:25Z</time>
      </trkpt>
      <trkpt lat="49.79111" lon="2.45472">
        <ele>39.8</ele>
        <time>2023-08-23T07:41:26Z</time>
      </trkpt>
      <trkpt lat="49.7911" lon="2.45471">
        <ele>39.9</ele>
        <time>2023-08-23T07:41:28Z</time>
      </trkpt>
      <trkpt lat="49.79108" lon="2.45469">
        <ele>40</ele>
        <time>2023-08-23T07:41:29Z</time>
      </trkpt>
      <trkpt lat="49.79107" lon="2.45469">
        <ele>40</ele>
        <time>2023-08-23T07:41:30Z</time>
      </trkpt>
      <trkpt lat="49.79106" lon="2.45468">
        <ele>40</ele>
        <time>2023-08-23T07:41:31Z</time>
      </trkpt>
      <trkpt lat="49.79105" lon="2.45467">
        <ele>40.1</ele>
        <time>2023-08-23T07:41:32Z</time>
      </trkpt>
      <trkpt lat="49.79104" lon="2.45467">
        <ele>40.1</ele>
        <time>2023-08-23T07:41:33Z</time>
      </trkpt>
      <trkpt lat="49.79103" lon="2.45466">
        <ele>40.2</ele>
        <time>2023-08-23T07:41:34Z</time>
      </trkpt>
      <trkpt lat="49.79102" lon="2.45466">
        <ele>40.2</ele>
        <time>2023-08-23T07:41:36Z</time>
      </trkpt>
      <trkpt lat="49.79101" lon="2.45466">
        <ele>40.3</ele>
        <time>2023-08-23T07:41:37Z</time>
      </trkpt>
      <trkpt lat="49.79099" lon="2.45466">
        <ele>40.3</ele>
        <time>2023-08-23T07:41:38Z</time>
      </trkpt>
      <trkpt lat="49.79098" lon="2.45466">
        <ele>40.4</ele>
        <time>2023-08-23T07:41:39Z</time>
      </trkpt>
      <trkpt lat="49.79096" lon="2.45466">
        <ele>40.4</ele>
        <time>2023-08-23T07:41:40Z</time>
      </trkpt>
      <trkpt lat="49.79095" lon="2.45466">
        <ele>40.3</ele>
        <time>2023-08-23T07:41:41Z</time>
      </trkpt>
      <trkpt lat="49.79092" lon="2.45467">
        <ele>40.3</ele>
        <time>2023-08-23T07:41:42Z</time>
      </trkpt>
      <trkpt lat="49.79091" lon="2.45468">
        <ele>40.3</ele>
        <time>2023-08-23T07:41:44Z</time>
      </trkpt>
      <trkpt lat="49.7909" lon="2.45468">
        <ele>40.2</ele>
        <time>2023-08-23T07:41:45Z</time>
      </trkpt>
      <trkpt lat="49.79089" lon="2.45469">
        <ele>40.2</ele>
        <time>2023-08-23T07:41:46Z</time>
      </trkpt>
      <trkpt lat="49.79088" lon="2.45469">
        <ele>40.2</ele>
        <time>2023-08-23T07:41:47Z</time>
      </trkpt>
      <trkpt lat="49.79087" lon="2.4547">
        <ele>40.1</ele>
        <time>2023-08-23T07:41:48Z</time>
      </trkpt>
      <trkpt lat="49.79086" lon="2.45471">
        <ele>40.1</ele>
        <time>2023-08-23T07:41:49Z</time>
      </trkpt>
      <trkpt lat="49.79085" lon="2.45472">
        <ele>40.1</ele>
        <time>2023-08-23T07:41:50Z</time>
      </trkpt>
      <trkpt lat="49.79084" lon="2.45474">
        <ele>40</ele>
        <time>2023-08-23T07:41:51Z</time>
      </trkpt>
      <trkpt lat="49.79083" lon="2.45475">
        <ele>40</ele>
        <time>2023-08-23T07:41:53Z</time>
      </trkpt>
      <trkpt lat="49.79082" lon="2.45476">
        <ele>39.9</ele>
        <time>2023-08-23T07:41:54Z</time>
      </trkpt>
      <trkpt lat="49.79081" lon="2.45478">
        <ele>39.9</ele>
        <time>2023-08-23T07:41:55Z</time>
      </trkpt>
      <trkpt lat="49.7908" lon="2.45479">
        <ele>39.8</ele>
        <time>2023-08-23T07:41:57Z</time>
      </trkpt>
      <trkpt lat="49.79079" lon="2.4548">
        <ele>39.8</ele>
        <time>2023-08-23T07:41:58Z</time>
      </trkpt>
      <trkpt lat="49.79078" lon="2.45482">
        <ele>39.7</ele>
        <time>2023-08-23T07:41:59Z</time>
      </trkpt>
      <trkpt lat="49.79076" lon="2.45484">
        <ele>39.6</ele>
        <time>2023-08-23T07:42:00Z</time>
      </trkpt>
      <trkpt lat="49.79075" lon="2.45484">
        <ele>39.6</ele>
        <time>2023-08-23T07:42:01Z</time>
      </trkpt>
      <trkpt lat="49.79075" lon="2.45485">
        <ele>39.6</ele>
        <time>2023-08-23T07:42:02Z</time>
      </trkpt>
      <trkpt lat="49.79073" lon="2.45487">
        <ele>39.5</ele>
        <time>2023-08-23T07:42:03Z</time>
      </trkpt>
      <trkpt lat="49.79072" lon="2.45487">
        <ele>39.4</ele>
        <time>2023-08-23T07:42:04Z</time>
      </trkpt>
      <trkpt lat="49.79071" lon="2.45488">
        <ele>39.4</ele>
        <time>2023-08-23T07:42:05Z</time>
      </trkpt>
      <trkpt lat="49.7907" lon="2.45488">
        <ele>39.4</ele>
        <time>2023-08-23T07:42:06Z</time>
      </trkpt>
      <trkpt lat="49.79069" lon="2.45489">
        <ele>39.3</ele>
        <time>2023-08-23T07:42:08Z</time>
      </trkpt>
      <trkpt lat="49.79068" lon="2.45489">
        <ele>39.2</ele>
        <time>2023-08-23T07:42:09Z</time>
      </trkpt>
      <trkpt lat="49.79067" lon="2.4549">
        <ele>39.2</ele>
        <time>2023-08-23T07:42:10Z</time>
      </trkpt>
      <trkpt lat="49.79065" lon="2.4549">
        <ele>39.1</ele>
        <time>2023-08-23T07:42:11Z</time>
      </trkpt>
      <trkpt lat="49.79064" lon="2.4549">
        <ele>39.1</ele>
        <time>2023-08-23T07:42:12Z</time>
      </trkpt>
      <trkpt lat="49.79063" lon="2.4549">
        <ele>39</ele>
        <time>2023-08-23T07:42:13Z</time>
      </trkpt>
      <trkpt lat="49.79062" lon="2.4549">
        <ele>39</ele>
        <time>2023-08-23T07:42:14Z</time>
      </trkpt>
      <trkpt lat="49.7906" lon="2.4549">
        <ele>38.9</ele>
        <time>2023-08-23T07:42:16Z</time>
      </trkpt>
      <trkpt lat="49.79059" lon="2.4549">
        <ele>38.8</ele>
        <time>2023-08-23T07:42:17Z</time>
      </trkpt>
      <trkpt lat="49.79057" lon="2.4549">
        <ele>38.8</ele>
        <time>2023-08-23T07:42:19Z</time>
      </trkpt>
      <trkpt lat="49.79056" lon="2.45491">
        <ele>38.7</ele>
        <time>2023-08-23T07:42:20Z</time>
      </trkpt>
      <trkpt lat="49.79055" lon="2.45491">
        <ele>38.7</ele>
        <time>2023-08-23T07:42:21Z</time>
      </trkpt>
      <trkpt lat="49.79054" lon="2.45492">
        <ele>38.6</ele>
        <time>2023-08-23T07:42:22Z</time>
      </trkpt>
      <trkpt lat="49.79053" lon="2.45493">
        <ele>38.6</ele>
        <time>2023-08-23T07:42:23Z</time>
      </trkpt>
      <trkpt lat="49.79052" lon="2.45493">
        <ele>38.5</ele>
        <time>2023-08-23T07:42:24Z</time>
      </trkpt>
      <trkpt lat="49.79051" lon="2.45494">
        <ele>38.5</ele>
        <time>2023-08-23T07:42:25Z</time>
      </trkpt>
      <trkpt lat="49.7905" lon="2.45494">
        <ele>38.4</ele>
        <time>2023-08-23T07:42:26Z</time>
      </trkpt>
      <trkpt lat="49.79048" lon="2.45495">
        <ele>38.4</ele>
        <time>2023-08-23T07:42:28Z</time>
      </trkpt>
      <trkpt lat="49.79047" lon="2.45496">
        <ele>38.3</ele>
        <time>2023-08-23T07:42:29Z</time>
      </trkpt>
      <trkpt lat="49.79045" lon="2.45497">
        <ele>38.3</ele>
        <time>2023-08-23T07:42:30Z</time>
      </trkpt>
      <trkpt lat="49.79044" lon="2.45497">
        <ele>38.2</ele>
        <time>2023-08-23T07:42:31Z</time>
      </trkpt>
      <trkpt lat="49.79043" lon="2.45498">
        <ele>38.2</ele>
        <time>2023-08-23T07:42:33Z</time>
      </trkpt>
      <trkpt lat="49.79042" lon="2.45499">
        <ele>38.2</ele>
        <time>2023-08-23T07:42:34Z</time>
      </trkpt>
      <trkpt lat="49.79041" lon="2.45499">
        <ele>38.1</ele>
        <time>2023-08-23T07:42:35Z</time>
      </trkpt>
      <trkpt lat="49.79039" lon="2.455">
        <ele>38.1</ele>
        <time>2023-08-23T07:42:36Z</time>
      </trkpt>
      <trkpt lat="49.79038" lon="2.45501">
        <ele>38.1</ele>
        <time>2023-08-23T07:42:37Z</time>
      </trkpt>
      <trkpt lat="49.79037" lon="2.45501">
        <ele>38.1</ele>
        <time>2023-08-23T07:42:38Z</time>
      </trkpt>
      <trkpt lat="49.79035" lon="2.45503">
        <ele>38</ele>
        <time>2023-08-23T07:42:39Z</time>
      </trkpt>
      <trkpt lat="49.79033" lon="2.45504">
        <ele>38</ele>
        <time>2023-08-23T07:42:40Z</time>
      </trkpt>
      <trkpt lat="49.79031" lon="2.45505">
        <ele>38</ele>
        <time>2023-08-23T07:42:42Z</time>
      </trkpt>
      <trkpt lat="49.7903" lon="2.45506">
        <ele>38</ele>
        <time>2023-08-23T07:42:43Z</time>
      </trkpt>
      <trkpt lat="49.79029" lon="2.45507">
        <ele>38</ele>
        <time>2023-08-23T07:42:44Z</time>
      </trkpt>
      <trkpt lat="49.79027" lon="2.45507">
        <ele>37.9</ele>
        <time>2023-08-23T07:42:45Z</time>
      </trkpt>
      <trkpt lat="49.79026" lon="2.45508">
        <ele>37.9</ele>
        <time>2023-08-23T07:42:47Z</time>
      </trkpt>
      <trkpt lat="49.79024" lon="2.45508">
        <ele>37.9</ele>
        <time>2023-08-23T07:42:48Z</time>
      </trkpt>
      <trkpt lat="49.79023" lon="2.45509">
        <ele>37.9</ele>
        <time>2023-08-23T07:42:49Z</time>
      </trkpt>
      <trkpt lat="49.79021" lon="2.45509">
        <ele>37.9</ele>
        <time>2023-08-23T07:42:50Z</time>
      </trkpt>
      <trkpt lat="49.7902" lon="2.4551">
        <ele>37.9</ele>
        <time>2023-08-23T07:42:51Z</time>
      </trkpt>
      <trkpt lat="49.79018" lon="2.45511">
        <ele>37.9</ele>
        <time>2023-08-23T07:42:52Z</time>
      </trkpt>
      <trkpt lat="49.79017" lon="2.45512">
        <ele>37.9</ele>
        <time>2023-08-23T07:42:54Z</time>
      </trkpt>
      <trkpt lat="49.79015" lon="2.45512">
        <ele>37.9</ele>
        <time>2023-08-23T07:42:55Z</time>
      </trkpt>
      <trkpt lat="49.79014" lon="2.45513">
        <ele>37.9</ele>
        <time>2023-08-23T07:42:56Z</time>
      </trkpt>
      <trkpt lat="49.79013" lon="2.45515">
        <ele>37.9</ele>
        <time>2023-08-23T07:42:57Z</time>
      </trkpt>
      <trkpt lat="49.79012" lon="2.45517">
        <ele>37.9</ele>
        <time>2023-08-23T07:42:58Z</time>
      </trkpt>
      <trkpt lat="49.79011" lon="2.45518">
        <ele>38</ele>
        <time>2023-08-23T07:43:00Z</time>
      </trkpt>
      <trkpt lat="49.7901" lon="2.4552">
        <ele>38</ele>
        <time>2023-08-23T07:43:01Z</time>
      </trkpt>
      <trkpt lat="49.79008" lon="2.45522">
        <ele>38</ele>
        <time>2023-08-23T07:43:02Z</time>
      </trkpt>
      <trkpt lat="49.79007" lon="2.45523">
        <ele>38</ele>
        <time>2023-08-23T07:43:03Z</time>
      </trkpt>
      <trkpt lat="49.79007" lon="2.45524">
        <ele>38</ele>
        <time>2023-08-23T07:43:04Z</time>
      </trkpt>
      <trkpt lat="49.79006" lon="2.45525">
        <ele>38</ele>
        <time>2023-08-23T07:43:05Z</time>
      </trkpt>
      <trkpt lat="49.79005" lon="2.45526">
        <ele>38</ele>
        <time>2023-08-23T07:43:06Z</time>
      </trkpt>
      <trkpt lat="49.79004" lon="2.45528">
        <ele>38.1</ele>
        <time>2023-08-23T07:43:07Z</time>
      </trkpt>
      <trkpt lat="49.79003" lon="2.4553">
        <ele>38.1</ele>
        <time>2023-08-23T07:43:09Z</time>
      </trkpt>
      <trkpt lat="49.79002" lon="2.4553">
        <ele>38.1</ele>
        <time>2023-08-23T07:43:10Z</time>
      </trkpt>
      <trkpt lat="49.79001" lon="2.45531">
        <ele>38.1</ele>
        <time>2023-08-23T07:43:11Z</time>
      </trkpt>
      <trkpt lat="49.79" lon="2.45532">
        <ele>38.2</ele>
        <time>2023-08-23T07:43:12Z</time>
      </trkpt>
      <trkpt lat="49.78998" lon="2.45533">
        <ele>38.2</ele>
        <time>2023-08-23T07:43:13Z</time>
      </trkpt>
      <trkpt lat="49.78997" lon="2.45534">
        <ele>38.2</ele>
        <time>2023-08-23T07:43:15Z</time>
      </trkpt>
      <trkpt lat="49.78996" lon="2.45535">
        <ele>38.2</ele>
        <time>2023-08-23T07:43:16Z</time>
      </trkpt>
      <trkpt lat="49.78995" lon="2.45537">
        <ele>38.3</ele>
        <time>2023-08-23T07:43:17Z</time>
      </trkpt>
      <trkpt lat="49.78993" lon="2.45539">
        <ele>38.3</ele>
        <time>2023-08-23T07:43:18Z</time>
      </trkpt>
      <trkpt lat="49.78992" lon="2.4554">
        <ele>38.3</ele>
        <time>2023-08-23T07:43:19Z</time>
      </trkpt>
      <trkpt lat="49.78992" lon="2.45541">
        <ele>38.3</ele>
        <time>2023-08-23T07:43:20Z</time>
      </trkpt>
      <trkpt lat="49.7899" lon="2.45542">
        <ele>38.4</ele>
        <time>2023-08-23T07:43:22Z</time>
      </trkpt>
      <trkpt lat="49.78989" lon="2.45543">
        <ele>38.4</ele>
        <time>2023-08-23T07:43:23Z</time>
      </trkpt>
      <trkpt lat="49.78987" lon="2.45544">
        <ele>38.5</ele>
        <time>2023-08-23T07:43:24Z</time>
      </trkpt>
      <trkpt lat="49.78986" lon="2.45545">
        <ele>38.5</ele>
        <time>2023-08-23T07:43:25Z</time>
      </trkpt>
      <trkpt lat="49.78985" lon="2.45547">
        <ele>38.6</ele>
        <time>2023-08-23T07:43:26Z</time>
      </trkpt>
      <trkpt lat="49.78984" lon="2.45548">
        <ele>38.6</ele>
        <time>2023-08-23T07:43:27Z</time>
      </trkpt>
      <trkpt lat="49.78982" lon="2.4555">
        <ele>38.7</ele>
        <time>2023-08-23T07:43:28Z</time>
      </trkpt>
      <trkpt lat="49.78981" lon="2.4555">
        <ele>38.7</ele>
        <time>2023-08-23T07:43:30Z</time>
      </trkpt>
      <trkpt lat="49.78981" lon="2.45551">
        <ele>38.7</ele>
        <time>2023-08-23T07:43:31Z</time>
      </trkpt>
      <trkpt lat="49.7898" lon="2.45552">
        <ele>38.7</ele>
        <time>2023-08-23T07:43:32Z</time>
      </trkpt>
      <trkpt lat="49.78978" lon="2.45553">
        <ele>38.8</ele>
        <time>2023-08-23T07:43:33Z</time>
      </trkpt>
      <trkpt lat="49.78977" lon="2.45553">
        <ele>38.8</ele>
        <time>2023-08-23T07:43:34Z</time>
      </trkpt>
      <trkpt lat="49.78975" lon="2.45551">
        <ele>38.9</ele>
        <time>2023-08-23T07:43:35Z</time>
      </trkpt>
      <trkpt lat="49.78974" lon="2.4555">
        <ele>38.9</ele>
        <time>2023-08-23T07:43:37Z</time>
      </trkpt>
      <trkpt lat="49.78973" lon="2.45549">
        <ele>39</ele>
        <time>2023-08-23T07:43:38Z</time>
      </trkpt>
      <trkpt lat="49.78972" lon="2.45548">
        <ele>39</ele>
        <time>2023-08-23T07:43:39Z</time>
      </trkpt>
      <trkpt lat="49.78971" lon="2.45547">
        <ele>39</ele>
        <time>2023-08-23T07:43:41Z</time>
      </trkpt>
      <trkpt lat="49.7897" lon="2.45545">
        <ele>39.1</ele>
        <time>2023-08-23T07:43:42Z</time>
      </trkpt>
      <trkpt lat="49.78969" lon="2.45543">
        <ele>39.1</ele>
        <time>2023-08-23T07:43:43Z</time>
      </trkpt>
      <trkpt lat="49.78968" lon="2.4554">
        <ele>39.1</ele>
        <time>2023-08-23T07:43:45Z</time>
      </trkpt>
      <trkpt lat="49.78968" lon="2.45538">
        <ele>39.2</ele>
        <time>2023-08-23T07:43:46Z</time>
      </trkpt>
      <trkpt lat="49.78967" lon="2.45535">
        <ele>39.2</ele>
        <time>2023-08-23T07:43:47Z</time>
      </trkpt>
      <trkpt lat="49.78967" lon="2.45533">
        <ele>39.2</ele>
        <time>2023-08-23T07:43:48Z</time>
      </trkpt>
      <trkpt lat="49.78966" lon="2.45531">
        <ele>39.3</ele>
        <time>2023-08-23T07:43:49Z</time>
      </trkpt>
      <trkpt lat="49.78966" lon="2.45529">
        <ele>39.3</ele>
        <time>2023-08-23T07:43:50Z</time>
      </trkpt>
      <trkpt lat="49.78965" lon="2.45526">
        <ele>39.3</ele>
        <time>2023-08-23T07:43:52Z</time>
      </trkpt>
      <trkpt lat="49.78964" lon="2.45524">
        <ele>39.4</ele>
        <time>2023-08-23T07:43:53Z</time>
      </trkpt>
      <trkpt lat="49.78964" lon="2.45522">
        <ele>39.4</ele>
        <time>2023-08-23T07:43:54Z</time>
      </trkpt>
      <trkpt lat="49.78963" lon="2.45521">
        <ele>39.4</ele>
        <time>2023-08-23T07:43:55Z</time>
      </trkpt>
      <trkpt lat="49.78962" lon="2.45518">
        <ele>39.5</ele>
        <time>2023-08-23T07:43:56Z</time>
      </trkpt>
      <trkpt lat="49.78962" lon="2.45517">
        <ele>39.5</ele>
        <time>2023-08-23T07:43:58Z</time>
      </trkpt>
      <trkpt lat="49.78961" lon="2.45516">
        <ele>39.5</ele>
        <time>2023-08-23T07:43:59Z</time>
      </trkpt>
      <trkpt lat="49.7896" lon="2.45514">
        <ele>39.6</ele>
        <time>2023-08-23T07:44:00Z</time>
      </trkpt>
      <trkpt lat="49.7896" lon="2.45512">
        <ele>39.6</ele>
        <time>2023-08-23T07:44:01Z</time>
      </trkpt>
      <trkpt lat="49.78959" lon="2.4551">
        <ele>39.6</ele>
        <time>2023-08-23T07:44:02Z</time>
      </trkpt>
      <trkpt lat="49.78958" lon="2.45508">
        <ele>39.7</ele>
        <time>2023-08-23T07:44:03Z</time>
      </trkpt>
      <trkpt lat="49.78957" lon="2.45507">
        <ele>39.7</ele>
        <time>2023-08-23T07:44:04Z</time>
      </trkpt>
      <trkpt lat="49.78957" lon="2.45505">
        <ele>39.8</ele>
        <time>2023-08-23T07:44:05Z</time>
      </trkpt>
      <trkpt lat="49.78956" lon="2.45502">
        <ele>39.8</ele>
        <time>2023-08-23T07:44:07Z</time>
      </trkpt>
      <trkpt lat="49.78955" lon="2.45501">
        <ele>39.9</ele>
        <time>2023-08-23T07:44:08Z</time>
      </trkpt>
      <trkpt lat="49.78955" lon="2.455">
        <ele>39.9</ele>
        <time>2023-08-23T07:44:09Z</time>
      </trkpt>
      <trkpt lat="49.78954" lon="2.45497">
        <ele>40</ele>
        <time>2023-08-23T07:44:10Z</time>
      </trkpt>
      <trkpt lat="49.78953" lon="2.45496">
        <ele>40</ele>
        <time>2023-08-23T07:44:11Z</time>
      </trkpt>
      <trkpt lat="49.78953" lon="2.45494">
        <ele>40.1</ele>
        <time>2023-08-23T07:44:12Z</time>
      </trkpt>
      <trkpt lat="49.78952" lon="2.45491">
        <ele>40.2</ele>
        <time>2023-08-23T07:44:13Z</time>
      </trkpt>
      <trkpt lat="49.78952" lon="2.4549">
        <ele>40.2</ele>
        <time>2023-08-23T07:44:15Z</time>
      </trkpt>
      <trkpt lat="49.78951" lon="2.45489">
        <ele>40.2</ele>
        <time>2023-08-23T07:44:16Z</time>
      </trkpt>
      <trkpt lat="49.7895" lon="2.45486">
        <ele>40.3</ele>
        <time>2023-08-23T07:44:17Z</time>
      </trkpt>
      <trkpt lat="49.78949" lon="2.45485">
        <ele>40.4</ele>
        <time>2023-08-23T07:44:18Z</time>
      </trkpt>
      <trkpt lat="49.78949" lon="2.45484">
        <ele>40.4</ele>
        <time>2023-08-23T07:44:19Z</time>
      </trkpt>
      <trkpt lat="49.78948" lon="2.45481">
        <ele>40.5</ele>
        <time>2023-08-23T07:44:21Z</time>
      </trkpt>
      <trkpt lat="49.78947" lon="2.4548">
        <ele>40.5</ele>
        <time>2023-08-23T07:44:22Z</time>
      </trkpt>
      <trkpt lat="49.78947" lon="2.45479">
        <ele>40.6</ele>
        <time>2023-08-23T07:44:23Z</time>
      </trkpt>
      <trkpt lat="49.78946" lon="2.45477">
        <ele>40.6</ele>
        <time>2023-08-23T07:44:24Z</time>
      </trkpt>
      <trkpt lat="49.78945" lon="2.45476">
        <ele>40.7</ele>
        <time>2023-08-23T07:44:25Z</time>
      </trkpt>
      <trkpt lat="49.78944" lon="2.45473">
        <ele>40.8</ele>
        <time>2023-08-23T07:44:26Z</time>
      </trkpt>
      <trkpt lat="49.78943" lon="2.45472">
        <ele>40.8</ele>
        <time>2023-08-23T07:44:28Z</time>
      </trkpt>
      <trkpt lat="49.78943" lon="2.45471">
        <ele>40.8</ele>
        <time>2023-08-23T07:44:29Z</time>
      </trkpt>
      <trkpt lat="49.78941" lon="2.45468">
        <ele>40.9</ele>
        <time>2023-08-23T07:44:30Z</time>
      </trkpt>
      <trkpt lat="49.78941" lon="2.45467">
        <ele>41</ele>
        <time>2023-08-23T07:44:31Z</time>
      </trkpt>
      <trkpt lat="49.7894" lon="2.45466">
        <ele>41</ele>
        <time>2023-08-23T07:44:32Z</time>
      </trkpt>
      <trkpt lat="49.78939" lon="2.45465">
        <ele>41.1</ele>
        <time>2023-08-23T07:44:33Z</time>
      </trkpt>
      <trkpt lat="49.78939" lon="2.45464">
        <ele>41.1</ele>
        <time>2023-08-23T07:44:34Z</time>
      </trkpt>
      <trkpt lat="49.78938" lon="2.45462">
        <ele>41.2</ele>
        <time>2023-08-23T07:44:36Z</time>
      </trkpt>
      <trkpt lat="49.78937" lon="2.4546">
        <ele>41.2</ele>
        <time>2023-08-23T07:44:37Z</time>
      </trkpt>
      <trkpt lat="49.78936" lon="2.45458">
        <ele>41.3</ele>
        <time>2023-08-23T07:44:38Z</time>
      </trkpt>
      <trkpt lat="49.78934" lon="2.45456">
        <ele>41.4</ele>
        <time>2023-08-23T07:44:40Z</time>
      </trkpt>
      <trkpt lat="49.78934" lon="2.45455">
        <ele>41.4</ele>
        <time>2023-08-23T07:44:41Z</time>
      </trkpt>
      <trkpt lat="49.78933" lon="2.45454">
        <ele>41.5</ele>
        <time>2023-08-23T07:44:42Z</time>
      </trkpt>
      <trkpt lat="49.78932" lon="2.45452">
        <ele>41.5</ele>
        <time>2023-08-23T07:44:43Z</time>
      </trkpt>
      <trkpt lat="49.78932" lon="2.45451">
        <ele>41.6</ele>
        <time>2023-08-23T07:44:44Z</time>
      </trkpt>
      <trkpt lat="49.78931" lon="2.45449">
        <ele>41.6</ele>
        <time>2023-08-23T07:44:45Z</time>
      </trkpt>
      <trkpt lat="49.7893" lon="2.45447">
        <ele>41.7</ele>
        <time>2023-08-23T07:44:46Z</time>
      </trkpt>
      <trkpt lat="49.78929" lon="2.45445">
        <ele>41.8</ele>
        <time>2023-08-23T07:44:47Z</time>
      </trkpt>
      <trkpt lat="49.78929" lon="2.45444">
        <ele>41.8</ele>
        <time>2023-08-23T07:44:49Z</time>
      </trkpt>
      <trkpt lat="49.78928" lon="2.45443">
        <ele>41.8</ele>
        <time>2023-08-23T07:44:50Z</time>
      </trkpt>
      <trkpt lat="49.78928" lon="2.45441">
        <ele>41.9</ele>
        <time>2023-08-23T07:44:51Z</time>
      </trkpt>
      <trkpt lat="49.78927" lon="2.4544">
        <ele>41.9</ele>
        <time>2023-08-23T07:44:52Z</time>
      </trkpt>
      <trkpt lat="49.78927" lon="2.45439">
        <ele>42</ele>
        <time>2023-08-23T07:44:53Z</time>
      </trkpt>
      <trkpt lat="49.78926" lon="2.45437">
        <ele>42</ele>
        <time>2023-08-23T07:44:54Z</time>
      </trkpt>
      <trkpt lat="49.78925" lon="2.45436">
        <ele>42.1</ele>
        <time>2023-08-23T07:44:55Z</time>
      </trkpt>
      <trkpt lat="49.78925" lon="2.45434">
        <ele>42.1</ele>
        <time>2023-08-23T07:44:56Z</time>
      </trkpt>
      <trkpt lat="49.78924" lon="2.45433">
        <ele>42.1</ele>
        <time>2023-08-23T07:44:58Z</time>
      </trkpt>
      <trkpt lat="49.78924" lon="2.45432">
        <ele>42.2</ele>
        <time>2023-08-23T07:44:59Z</time>
      </trkpt>
      <trkpt lat="49.78923" lon="2.4543">
        <ele>42.2</ele>
        <time>2023-08-23T07:45:00Z</time>
      </trkpt>
      <trkpt lat="49.78922" lon="2.45429">
        <ele>42.2</ele>
        <time>2023-08-23T07:45:01Z</time>
      </trkpt>
      <trkpt lat="49.78922" lon="2.45428">
        <ele>42.3</ele>
        <time>2023-08-23T07:45:02Z</time>
      </trkpt>
      <trkpt lat="49.78921" lon="2.45426">
        <ele>42.3</ele>
        <time>2023-08-23T07:45:03Z</time>
      </trkpt>
      <trkpt lat="49.7892" lon="2.45425">
        <ele>42.3</ele>
        <time>2023-08-23T07:45:04Z</time>
      </trkpt>
      <trkpt lat="49.78919" lon="2.45423">
        <ele>42.4</ele>
        <time>2023-08-23T07:45:05Z</time>
      </trkpt>
      <trkpt lat="49.78918" lon="2.45421">
        <ele>42.4</ele>
        <time>2023-08-23T07:45:06Z</time>
      </trkpt>
      <trkpt lat="49.78917" lon="2.4542">
        <ele>42.4</ele>
        <time>2023-08-23T07:45:08Z</time>
      </trkpt>
      <trkpt lat="49.78917" lon="2.45419">
        <ele>42.5</ele>
        <time>2023-08-23T07:45:09Z</time>
      </trkpt>
      <trkpt lat="49.78916" lon="2.45417">
        <ele>42.5</ele>
        <time>2023-08-23T07:45:10Z</time>
      </trkpt>
      <trkpt lat="49.78915" lon="2.45416">
        <ele>42.5</ele>
        <time>2023-08-23T07:45:11Z</time>
      </trkpt>
      <trkpt lat="49.78913" lon="2.45414">
        <ele>42.5</ele>
        <time>2023-08-23T07:45:12Z</time>
      </trkpt>
      <trkpt lat="49.78912" lon="2.45413">
        <ele>42.6</ele>
        <time>2023-08-23T07:45:13Z</time>
      </trkpt>
      <trkpt lat="49.78911" lon="2.45413">
        <ele>42.6</ele>
        <time>2023-08-23T07:45:14Z</time>
      </trkpt>
      <trkpt lat="49.78909" lon="2.45411">
        <ele>42.6</ele>
        <time>2023-08-23T07:45:16Z</time>
      </trkpt>
      <trkpt lat="49.78909" lon="2.45411">
        <ele>42.6</ele>
        <time>2023-08-23T07:45:17Z</time>
      </trkpt>
      <trkpt lat="49.78908" lon="2.4541">
        <ele>42.7</ele>
        <time>2023-08-23T07:45:18Z</time>
      </trkpt>
      <trkpt lat="49.78906" lon="2.45409">
        <ele>42.7</ele>
        <time>2023-08-23T07:45:19Z</time>
      </trkpt>
      <trkpt lat="49.78905" lon="2.45408">
        <ele>42.7</ele>
        <time>2023-08-23T07:45:20Z</time>
      </trkpt>
      <trkpt lat="49.78903" lon="2.45406">
        <ele>42.7</ele>
        <time>2023-08-23T07:45:21Z</time>
      </trkpt>
      <trkpt lat="49.78903" lon="2.45405">
        <ele>42.8</ele>
        <time>2023-08-23T07:45:22Z</time>
      </trkpt>
      <trkpt lat="49.78902" lon="2.45405">
        <ele>42.8</ele>
        <time>2023-08-23T07:45:23Z</time>
      </trkpt>
      <trkpt lat="49.789" lon="2.45403">
        <ele>42.8</ele>
        <time>2023-08-23T07:45:25Z</time>
      </trkpt>
      <trkpt lat="49.78899" lon="2.45402">
        <ele>42.8</ele>
        <time>2023-08-23T07:45:26Z</time>
      </trkpt>
      <trkpt lat="49.78899" lon="2.45402">
        <ele>42.8</ele>
        <time>2023-08-23T07:45:27Z</time>
      </trkpt>
      <trkpt lat="49.78898" lon="2.45401">
        <ele>42.9</ele>
        <time>2023-08-23T07:45:28Z</time>
      </trkpt>
      <trkpt lat="49.78897" lon="2.454">
        <ele>42.9</ele>
        <time>2023-08-23T07:45:29Z</time>
      </trkpt>
      <trkpt lat="49.78896" lon="2.45399">
        <ele>42.9</ele>
        <time>2023-08-23T07:45:30Z</time>
      </trkpt>
      <trkpt lat="49.78895" lon="2.45398">
        <ele>42.9</ele>
        <time>2023-08-23T07:45:31Z</time>
      </trkpt>
      <trkpt lat="49.78894" lon="2.45397">
        <ele>43</ele>
        <time>2023-08-23T07:45:33Z</time>
      </trkpt>
      <trkpt lat="49.78893" lon="2.45396">
        <ele>43</ele>
        <time>2023-08-23T07:45:34Z</time>
      </trkpt>
      <trkpt lat="49.78892" lon="2.45395">
        <ele>43</ele>
        <time>2023-08-23T07:45:35Z</time>
      </trkpt>
      <trkpt lat="49.78891" lon="2.45394">
        <ele>43.1</ele>
        <time>2023-08-23T07:45:36Z</time>
      </trkpt>
      <trkpt lat="49.7889" lon="2.45393">
        <ele>43.1</ele>
        <time>2023-08-23T07:45:37Z</time>
      </trkpt>
      <trkpt lat="49.7889" lon="2.45392">
        <ele>43.1</ele>
        <time>2023-08-23T07:45:39Z</time>
      </trkpt>
      <trkpt lat="49.78889" lon="2.4539">
        <ele>43.1</ele>
        <time>2023-08-23T07:45:40Z</time>
      </trkpt>
      <trkpt lat="49.78888" lon="2.45389">
        <ele>43.2</ele>
        <time>2023-08-23T07:45:41Z</time>
      </trkpt>
      <trkpt lat="49.78887" lon="2.45388">
        <ele>43.2</ele>
        <time>2023-08-23T07:45:42Z</time>
      </trkpt>
      <trkpt lat="49.78887" lon="2.45387">
        <ele>43.2</ele>
        <time>2023-08-23T07:45:43Z</time>
      </trkpt>
      <trkpt lat="49.78886" lon="2.45386">
        <ele>43.3</ele>
        <time>2023-08-23T07:45:44Z</time>
      </trkpt>
      <trkpt lat="49.78884" lon="2.45384">
        <ele>43.3</ele>
        <time>2023-08-23T07:45:45Z</time>
      </trkpt>
      <trkpt lat="49.78884" lon="2.45383">
        <ele>43.3</ele>
        <time>2023-08-23T07:45:47Z</time>
      </trkpt>
      <trkpt lat="49.78883" lon="2.45382">
        <ele>43.4</ele>
        <time>2023-08-23T07:45:48Z</time>
      </trkpt>
      <trkpt lat="49.78881" lon="2.4538">
        <ele>43.4</ele>
        <time>2023-08-23T07:45:49Z</time>
      </trkpt>
      <trkpt lat="49.7888" lon="2.4538">
        <ele>43.4</ele>
        <time>2023-08-23T07:45:50Z</time>
      </trkpt>
      <trkpt lat="49.7888" lon="2.45379">
        <ele>43.5</ele>
        <time>2023-08-23T07:45:51Z</time>
      </trkpt>
      <trkpt lat="49.78878" lon="2.45377">
        <ele>43.5</ele>
        <time>2023-08-23T07:45:52Z</time>
      </trkpt>
      <trkpt lat="49.78877" lon="2.45377">
        <ele>43.6</ele>
        <time>2023-08-23T07:45:54Z</time>
      </trkpt>
      <trkpt lat="49.78876" lon="2.45376">
        <ele>43.6</ele>
        <time>2023-08-23T07:45:55Z</time>
      </trkpt>
      <trkpt lat="49.78875" lon="2.45375">
        <ele>43.6</ele>
        <time>2023-08-23T07:45:56Z</time>
      </trkpt>
      <trkpt lat="49.78874" lon="2.45374">
        <ele>43.7</ele>
        <time>2023-08-23T07:45:57Z</time>
      </trkpt>
      <trkpt lat="49.78874" lon="2.45373">
        <ele>43.7</ele>
        <time>2023-08-23T07:45:58Z</time>
      </trkpt>
      <trkpt lat="49.78872" lon="2.45371">
        <ele>43.8</ele>
        <time>2023-08-23T07:45:59Z</time>
      </trkpt>
      <trkpt lat="49.78871" lon="2.4537">
        <ele>43.8</ele>
        <time>2023-08-23T07:46:01Z</time>
      </trkpt>
      <trkpt lat="49.78871" lon="2.45369">
        <ele>43.9</ele>
        <time>2023-08-23T07:46:02Z</time>
      </trkpt>
      <trkpt lat="49.78869" lon="2.45368">
        <ele>43.9</ele>
        <time>2023-08-23T07:46:03Z</time>
      </trkpt>
      <trkpt lat="49.78869" lon="2.45367">
        <ele>44</ele>
        <time>2023-08-23T07:46:04Z</time>
      </trkpt>
      <trkpt lat="49.78868" lon="2.45366">
        <ele>44</ele>
        <time>2023-08-23T07:46:05Z</time>
      </trkpt>
      <trkpt lat="49.78867" lon="2.45365">
        <ele>44</ele>
        <time>2023-08-23T07:46:07Z</time>
      </trkpt>
      <trkpt lat="49.78866" lon="2.45364">
        <ele>44.1</ele>
        <time>2023-08-23T07:46:08Z</time>
      </trkpt>
      <trkpt lat="49.78864" lon="2.45362">
        <ele>44.2</ele>
        <time>2023-08-23T07:46:09Z</time>
      </trkpt>
      <trkpt lat="49.78863" lon="2.45362">
        <ele>44.2</ele>
        <time>2023-08-23T07:46:10Z</time>
      </trkpt>
      <trkpt lat="49.78863" lon="2.45361">
        <ele>44.2</ele>
        <time>2023-08-23T07:46:11Z</time>
      </trkpt>
      <trkpt lat="49.78862" lon="2.4536">
        <ele>44.3</ele>
        <time>2023-08-23T07:46:12Z</time>
      </trkpt>
      <trkpt lat="49.7886" lon="2.45359">
        <ele>44.3</ele>
        <time>2023-08-23T07:46:14Z</time>
      </trkpt>
      <trkpt lat="49.7886" lon="2.45358">
        <ele>44.4</ele>
        <time>2023-08-23T07:46:15Z</time>
      </trkpt>
      <trkpt lat="49.78859" lon="2.45357">
        <ele>44.4</ele>
        <time>2023-08-23T07:46:16Z</time>
      </trkpt>
      <trkpt lat="49.78858" lon="2.45356">
        <ele>44.5</ele>
        <time>2023-08-23T07:46:17Z</time>
      </trkpt>
      <trkpt lat="49.78857" lon="2.45355">
        <ele>44.5</ele>
        <time>2023-08-23T07:46:18Z</time>
      </trkpt>
      <trkpt lat="49.78856" lon="2.45354">
        <ele>44.6</ele>
        <time>2023-08-23T07:46:20Z</time>
      </trkpt>
      <trkpt lat="49.78855" lon="2.45353">
        <ele>44.6</ele>
        <time>2023-08-23T07:46:21Z</time>
      </trkpt>
      <trkpt lat="49.78854" lon="2.45352">
        <ele>44.6</ele>
        <time>2023-08-23T07:46:22Z</time>
      </trkpt>
      <trkpt lat="49.78853" lon="2.45351">
        <ele>44.7</ele>
        <time>2023-08-23T07:46:23Z</time>
      </trkpt>
      <trkpt lat="49.78853" lon="2.4535">
        <ele>44.7</ele>
        <time>2023-08-23T07:46:24Z</time>
      </trkpt>
      <trkpt lat="49.78852" lon="2.45349">
        <ele>44.8</ele>
        <time>2023-08-23T07:46:25Z</time>
      </trkpt>
      <trkpt lat="49.7885" lon="2.45347">
        <ele>44.9</ele>
        <time>2023-08-23T07:46:27Z</time>
      </trkpt>
      <trkpt lat="49.7885" lon="2.45346">
        <ele>44.9</ele>
        <time>2023-08-23T07:46:28Z</time>
      </trkpt>
      <trkpt lat="49.78849" lon="2.45345">
        <ele>44.9</ele>
        <time>2023-08-23T07:46:29Z</time>
      </trkpt>
      <trkpt lat="49.78847" lon="2.45343">
        <ele>45</ele>
        <time>2023-08-23T07:46:30Z</time>
      </trkpt>
      <trkpt lat="49.78847" lon="2.45342">
        <ele>45.1</ele>
        <time>2023-08-23T07:46:31Z</time>
      </trkpt>
      <trkpt lat="49.78846" lon="2.45342">
        <ele>45.1</ele>
        <time>2023-08-23T07:46:32Z</time>
      </trkpt>
      <trkpt lat="49.78845" lon="2.45341">
        <ele>45.1</ele>
        <time>2023-08-23T07:46:34Z</time>
      </trkpt>
      <trkpt lat="49.78844" lon="2.4534">
        <ele>45.2</ele>
        <time>2023-08-23T07:46:35Z</time>
      </trkpt>
      <trkpt lat="49.78843" lon="2.45338">
        <ele>45.2</ele>
        <time>2023-08-23T07:46:36Z</time>
      </trkpt>
      <trkpt lat="49.78843" lon="2.45338">
        <ele>45.3</ele>
        <time>2023-08-23T07:46:37Z</time>
      </trkpt>
      <trkpt lat="49.78842" lon="2.45337">
        <ele>45.3</ele>
        <time>2023-08-23T07:46:38Z</time>
      </trkpt>
      <trkpt lat="49.78841" lon="2.45336">
        <ele>45.4</ele>
        <time>2023-08-23T07:46:39Z</time>
      </trkpt>
      <trkpt lat="49.7884" lon="2.45335">
        <ele>45.4</ele>
        <time>2023-08-23T07:46:40Z</time>
      </trkpt>
      <trkpt lat="49.78839" lon="2.45333">
        <ele>45.5</ele>
        <time>2023-08-23T07:46:42Z</time>
      </trkpt>
      <trkpt lat="49.78838" lon="2.45332">
        <ele>45.6</ele>
        <time>2023-08-23T07:46:43Z</time>
      </trkpt>
      <trkpt lat="49.78838" lon="2.45331">
        <ele>45.6</ele>
        <time>2023-08-23T07:46:44Z</time>
      </trkpt>
      <trkpt lat="49.78837" lon="2.4533">
        <ele>45.7</ele>
        <time>2023-08-23T07:46:45Z</time>
      </trkpt>
      <trkpt lat="49.78836" lon="2.45328">
        <ele>45.8</ele>
        <time>2023-08-23T07:46:46Z</time>
      </trkpt>
      <trkpt lat="49.78835" lon="2.45327">
        <ele>45.9</ele>
        <time>2023-08-23T07:46:48Z</time>
      </trkpt>
      <trkpt lat="49.78834" lon="2.45325">
        <ele>46</ele>
        <time>2023-08-23T07:46:49Z</time>
      </trkpt>
      <trkpt lat="49.78833" lon="2.45323">
        <ele>46.1</ele>
        <time>2023-08-23T07:46:50Z</time>
      </trkpt>
      <trkpt lat="49.78833" lon="2.45322">
        <ele>46.2</ele>
        <time>2023-08-23T07:46:51Z</time>
      </trkpt>
      <trkpt lat="49.78832" lon="2.4532">
        <ele>46.2</ele>
        <time>2023-08-23T07:46:52Z</time>
      </trkpt>
      <trkpt lat="49.78832" lon="2.45319">
        <ele>46.3</ele>
        <time>2023-08-23T07:46:53Z</time>
      </trkpt>
      <trkpt lat="49.78832" lon="2.45317">
        <ele>45.9</ele>
        <time>2023-08-23T07:46:54Z</time>
      </trkpt>
      <trkpt lat="49.78832" lon="2.45315">
        <ele>45.9</ele>
        <time>2023-08-23T07:46:55Z</time>
      </trkpt>
      <trkpt lat="49.78833" lon="2.45313">
        <ele>45.8</ele>
        <time>2023-08-23T07:46:57Z</time>
      </trkpt>
      <trkpt lat="49.78833" lon="2.45311">
        <ele>45.7</ele>
        <time>2023-08-23T07:46:58Z</time>
      </trkpt>
      <trkpt lat="49.78834" lon="2.45309">
        <ele>45.6</ele>
        <time>2023-08-23T07:46:59Z</time>
      </trkpt>
      <trkpt lat="49.78835" lon="2.45308">
        <ele>45.5</ele>
        <time>2023-08-23T07:47:00Z</time>
      </trkpt>
      <trkpt lat="49.78836" lon="2.45307">
        <ele>45.4</ele>
        <time>2023-08-23T07:47:01Z</time>
      </trkpt>
      <trkpt lat="49.78838" lon="2.45306">
        <ele>45.3</ele>
        <time>2023-08-23T07:47:03Z</time>
      </trkpt>
      <trkpt lat="49.78839" lon="2.45305">
        <ele>45.3</ele>
        <time>2023-08-23T07:47:04Z</time>
      </trkpt>
      <trkpt lat="49.7884" lon="2.45303">
        <ele>45.2</ele>
        <time>2023-08-23T07:47:05Z</time>
      </trkpt>
      <trkpt lat="49.78842" lon="2.45303">
        <ele>45.1</ele>
        <time>2023-08-23T07:47:06Z</time>
      </trkpt>
      <trkpt lat="49.78844" lon="2.45302">
        <ele>45</ele>
        <time>2023-08-23T07:47:07Z</time>
      </trkpt>
      <trkpt lat="49.78845" lon="2.45302">
        <ele>45</ele>
        <time>2023-08-23T07:47:08Z</time>
      </trkpt>
      <trkpt lat="49.78846" lon="2.453">
        <ele>44.9</ele>
        <time>2023-08-23T07:47:09Z</time>
      </trkpt>
      <trkpt lat="49.78847" lon="2.453">
        <ele>44.9</ele>
        <time>2023-08-23T07:47:10Z</time>
      </trkpt>
      <trkpt lat="49.78847" lon="2.45298">
        <ele>44.9</ele>
        <time>2023-08-23T07:47:12Z</time>
      </trkpt>
      <trkpt lat="49.78848" lon="2.45297">
        <ele>44.8</ele>
        <time>2023-08-23T07:47:13Z</time>
      </trkpt>
      <trkpt lat="49.78849" lon="2.45296">
        <ele>44.8</ele>
        <time>2023-08-23T07:47:14Z</time>
      </trkpt>
      <trkpt lat="49.7885" lon="2.45295">
        <ele>44.7</ele>
        <time>2023-08-23T07:47:15Z</time>
      </trkpt>
      <trkpt lat="49.7885" lon="2.45294">
        <ele>44.7</ele>
        <time>2023-08-23T07:47:16Z</time>
      </trkpt>
      <trkpt lat="49.78851" lon="2.45292">
        <ele>44.7</ele>
        <time>2023-08-23T07:47:17Z</time>
      </trkpt>
      <trkpt lat="49.78851" lon="2.45291">
        <ele>44.7</ele>
        <time>2023-08-23T07:47:18Z</time>
      </trkpt>
      <trkpt lat="49.78852" lon="2.4529">
        <ele>44.6</ele>
        <time>2023-08-23T07:47:20Z</time>
      </trkpt>
      <trkpt lat="49.78853" lon="2.45289">
        <ele>44.6</ele>
        <time>2023-08-23T07:47:21Z</time>
      </trkpt>
      <trkpt lat="49.78854" lon="2.45287">
        <ele>44.6</ele>
        <time>2023-08-23T07:47:22Z</time>
      </trkpt>
      <trkpt lat="49.78855" lon="2.45286">
        <ele>44.6</ele>
        <time>2023-08-23T07:47:23Z</time>
      </trkpt>
      <trkpt lat="49.78855" lon="2.45285">
        <ele>44.5</ele>
        <time>2023-08-23T07:47:25Z</time>
      </trkpt>
      <trkpt lat="49.78856" lon="2.45283">
        <ele>44.5</ele>
        <time>2023-08-23T07:47:26Z</time>
      </trkpt>
      <trkpt lat="49.78857" lon="2.45282">
        <ele>44.5</ele>
        <time>2023-08-23T07:47:27Z</time>
      </trkpt>
      <trkpt lat="49.78857" lon="2.45281">
        <ele>44.5</ele>
        <time>2023-08-23T07:47:28Z</time>
      </trkpt>
      <trkpt lat="49.78859" lon="2.45278">
        <ele>44.5</ele>
        <time>2023-08-23T07:47:29Z</time>
      </trkpt>
      <trkpt lat="49.78859" lon="2.45277">
        <ele>44.5</ele>
        <time>2023-08-23T07:47:30Z</time>
      </trkpt>
      <trkpt lat="49.7886" lon="2.45277">
        <ele>44.5</ele>
        <time>2023-08-23T07:47:31Z</time>
      </trkpt>
      <trkpt lat="49.78861" lon="2.45276">
        <ele>44.5</ele>
        <time>2023-08-23T07:47:33Z</time>
      </trkpt>
      <trkpt lat="49.78861" lon="2.45275">
        <ele>44.5</ele>
        <time>2023-08-23T07:47:34Z</time>
      </trkpt>
      <trkpt lat="49.78862" lon="2.45273">
        <ele>44.5</ele>
        <time>2023-08-23T07:47:35Z</time>
      </trkpt>
      <trkpt lat="49.78863" lon="2.45272">
        <ele>44.6</ele>
        <time>2023-08-23T07:47:36Z</time>
      </trkpt>
      <trkpt lat="49.78864" lon="2.45271">
        <ele>44.6</ele>
        <time>2023-08-23T07:47:37Z</time>
      </trkpt>
      <trkpt lat="49.78865" lon="2.4527">
        <ele>44.6</ele>
        <time>2023-08-23T07:47:38Z</time>
      </trkpt>
      <trkpt lat="49.78866" lon="2.45269">
        <ele>44.6</ele>
        <time>2023-08-23T07:47:39Z</time>
      </trkpt>
      <trkpt lat="49.78867" lon="2.45268">
        <ele>44.6</ele>
        <time>2023-08-23T07:47:40Z</time>
      </trkpt>
      <trkpt lat="49.78868" lon="2.45267">
        <ele>44.7</ele>
        <time>2023-08-23T07:47:42Z</time>
      </trkpt>
      <trkpt lat="49.78869" lon="2.45266">
        <ele>44.7</ele>
        <time>2023-08-23T07:47:43Z</time>
      </trkpt>
      <trkpt lat="49.7887" lon="2.45265">
        <ele>44.8</ele>
        <time>2023-08-23T07:47:44Z</time>
      </trkpt>
      <trkpt lat="49.78871" lon="2.45265">
        <ele>44.8</ele>
        <time>2023-08-23T07:47:45Z</time>
      </trkpt>
      <trkpt lat="49.78872" lon="2.45263">
        <ele>44.9</ele>
        <time>2023-08-23T07:47:46Z</time>
      </trkpt>
      <trkpt lat="49.78873" lon="2.45262">
        <ele>44.9</ele>
        <time>2023-08-23T07:47:48Z</time>
      </trkpt>
      <trkpt lat="49.78874" lon="2.45261">
        <ele>45</ele>
        <time>2023-08-23T07:47:49Z</time>
      </trkpt>
      <trkpt lat="49.78875" lon="2.45259">
        <ele>45.1</ele>
        <time>2023-08-23T07:47:50Z</time>
      </trkpt>
      <trkpt lat="49.78876" lon="2.45258">
        <ele>45.1</ele>
        <time>2023-08-23T07:47:51Z</time>
      </trkpt>
      <trkpt lat="49.78877" lon="2.45257">
        <ele>45.2</ele>
        <time>2023-08-23T07:47:52Z</time>
      </trkpt>
      <trkpt lat="49.78877" lon="2.45256">
        <ele>45.2</ele>
        <time>2023-08-23T07:47:53Z</time>
      </trkpt>
      <trkpt lat="49.78878" lon="2.45255">
        <ele>45.3</ele>
        <time>2023-08-23T07:47:55Z</time>
      </trkpt>
      <trkpt lat="49.78879" lon="2.45254">
        <ele>45.4</ele>
        <time>2023-08-23T07:47:56Z</time>
      </trkpt>
      <trkpt lat="49.7888" lon="2.45253">
        <ele>45.5</ele>
        <time>2023-08-23T07:47:57Z</time>
      </trkpt>
      <trkpt lat="49.78881" lon="2.45252">
        <ele>45.5</ele>
        <time>2023-08-23T07:47:58Z</time>
      </trkpt>
      <trkpt lat="49.78883" lon="2.4525">
        <ele>45.7</ele>
        <time>2023-08-23T07:47:59Z</time>
      </trkpt>
      <trkpt lat="49.78884" lon="2.45249">
        <ele>45.8</ele>
        <time>2023-08-23T07:48:01Z</time>
      </trkpt>
      <trkpt lat="49.78885" lon="2.45248">
        <ele>45.8</ele>
        <time>2023-08-23T07:48:02Z</time>
      </trkpt>
      <trkpt lat="49.78886" lon="2.45247">
        <ele>45.9</ele>
        <time>2023-08-23T07:48:03Z</time>
      </trkpt>
      <trkpt lat="49.78887" lon="2.45247">
        <ele>46</ele>
        <time>2023-08-23T07:48:04Z</time>
      </trkpt>
      <trkpt lat="49.78888" lon="2.45246">
        <ele>46.1</ele>
        <time>2023-08-23T07:48:05Z</time>
      </trkpt>
      <trkpt lat="49.78889" lon="2.45245">
        <ele>46.2</ele>
        <time>2023-08-23T07:48:06Z</time>
      </trkpt>
      <trkpt lat="49.7889" lon="2.45244">
        <ele>46.3</ele>
        <time>2023-08-23T07:48:08Z</time>
      </trkpt>
      <trkpt lat="49.78891" lon="2.45244">
        <ele>46.3</ele>
        <time>2023-08-23T07:48:09Z</time>
      </trkpt>
      <trkpt lat="49.78891" lon="2.45243">
        <ele>46.4</ele>
        <time>2023-08-23T07:48:10Z</time>
      </trkpt>
      <trkpt lat="49.78893" lon="2.45241">
        <ele>46.5</ele>
        <time>2023-08-23T07:48:11Z</time>
      </trkpt>
      <trkpt lat="49.78894" lon="2.4524">
        <ele>46.6</ele>
        <time>2023-08-23T07:48:12Z</time>
      </trkpt>
      <trkpt lat="49.78894" lon="2.45239">
        <ele>46.7</ele>
        <time>2023-08-23T07:48:13Z</time>
      </trkpt>
      <trkpt lat="49.78895" lon="2.45238">
        <ele>46.8</ele>
        <time>2023-08-23T07:48:15Z</time>
      </trkpt>
      <trkpt lat="49.78897" lon="2.45237">
        <ele>47</ele>
        <time>2023-08-23T07:48:16Z</time>
      </trkpt>
      <trkpt lat="49.78898" lon="2.45235">
        <ele>47.1</ele>
        <time>2023-08-23T07:48:18Z</time>
      </trkpt>
      <trkpt lat="49.78899" lon="2.45234">
        <ele>47.2</ele>
        <time>2023-08-23T07:48:19Z</time>
      </trkpt>
      <trkpt lat="49.78899" lon="2.45233">
        <ele>47.3</ele>
        <time>2023-08-23T07:48:20Z</time>
      </trkpt>
      <trkpt lat="49.789" lon="2.45232">
        <ele>47.4</ele>
        <time>2023-08-23T07:48:21Z</time>
      </trkpt>
      <trkpt lat="49.78901" lon="2.45231">
        <ele>47.5</ele>
        <time>2023-08-23T07:48:23Z</time>
      </trkpt>
      <trkpt lat="49.78901" lon="2.4523">
        <ele>47.5</ele>
        <time>2023-08-23T07:48:24Z</time>
      </trkpt>
      <trkpt lat="49.78902" lon="2.45229">
        <ele>47.6</ele>
        <time>2023-08-23T07:48:25Z</time>
      </trkpt>
      <trkpt lat="49.78902" lon="2.45228">
        <ele>47.7</ele>
        <time>2023-08-23T07:48:26Z</time>
      </trkpt>
      <trkpt lat="49.78903" lon="2.45227">
        <ele>47.8</ele>
        <time>2023-08-23T07:48:27Z</time>
      </trkpt>
      <trkpt lat="49.78903" lon="2.45226">
        <ele>47.8</ele>
        <time>2023-08-23T07:48:29Z</time>
      </trkpt>
      <trkpt lat="49.78904" lon="2.45225">
        <ele>47.9</ele>
        <time>2023-08-23T07:48:30Z</time>
      </trkpt>
      <trkpt lat="49.78904" lon="2.45224">
        <ele>48</ele>
        <time>2023-08-23T07:48:31Z</time>
      </trkpt>
      <trkpt lat="49.78905" lon="2.45223">
        <ele>48.1</ele>
        <time>2023-08-23T07:48:32Z</time>
      </trkpt>
      <trkpt lat="49.78905" lon="2.45222">
        <ele>48.2</ele>
        <time>2023-08-23T07:48:33Z</time>
      </trkpt>
      <trkpt lat="49.78905" lon="2.45221">
        <ele>48.3</ele>
        <time>2023-08-23T07:48:34Z</time>
      </trkpt>
      <trkpt lat="49.78905" lon="2.45219">
        <ele>48.4</ele>
        <time>2023-08-23T07:48:36Z</time>
      </trkpt>
      <trkpt lat="49.78906" lon="2.45218">
        <ele>48.4</ele>
        <time>2023-08-23T07:48:37Z</time>
      </trkpt>
      <trkpt lat="49.78906" lon="2.45217">
        <ele>48.5</ele>
        <time>2023-08-23T07:48:38Z</time>
      </trkpt>
      <trkpt lat="49.78906" lon="2.45216">
        <ele>48.6</ele>
        <time>2023-08-23T07:48:39Z</time>
      </trkpt>
      <trkpt lat="49.78907" lon="2.45214">
        <ele>48.7</ele>
        <time>2023-08-23T07:48:40Z</time>
      </trkpt>
      <trkpt lat="49.78907" lon="2.45213">
        <ele>48.9</ele>
        <time>2023-08-23T07:48:41Z</time>
      </trkpt>
      <trkpt lat="49.78908" lon="2.45212">
        <ele>49</ele>
        <time>2023-08-23T07:48:43Z</time>
      </trkpt>
      <trkpt lat="49.78909" lon="2.4521">
        <ele>49.1</ele>
        <time>2023-08-23T07:48:44Z</time>
      </trkpt>
      <trkpt lat="49.7891" lon="2.45209">
        <ele>49.2</ele>
        <time>2023-08-23T07:48:45Z</time>
      </trkpt>
      <trkpt lat="49.78911" lon="2.45208">
        <ele>49.3</ele>
        <time>2023-08-23T07:48:46Z</time>
      </trkpt>
      <trkpt lat="49.78913" lon="2.45206">
        <ele>49.6</ele>
        <time>2023-08-23T07:48:47Z</time>
      </trkpt>
      <trkpt lat="49.78913" lon="2.45206">
        <ele>49.7</ele>
        <time>2023-08-23T07:48:49Z</time>
      </trkpt>
      <trkpt lat="49.78914" lon="2.45205">
        <ele>49.8</ele>
        <time>2023-08-23T07:48:50Z</time>
      </trkpt>
      <trkpt lat="49.78915" lon="2.45204">
        <ele>49.9</ele>
        <time>2023-08-23T07:48:51Z</time>
      </trkpt>
      <trkpt lat="49.78916" lon="2.45204">
        <ele>50</ele>
        <time>2023-08-23T07:48:52Z</time>
      </trkpt>
      <trkpt lat="49.78917" lon="2.45203">
        <ele>50.1</ele>
        <time>2023-08-23T07:48:53Z</time>
      </trkpt>
      <trkpt lat="49.78918" lon="2.45203">
        <ele>50.2</ele>
        <time>2023-08-23T07:48:54Z</time>
      </trkpt>
      <trkpt lat="49.78919" lon="2.45202">
        <ele>50.3</ele>
        <time>2023-08-23T07:48:56Z</time>
      </trkpt>
      <trkpt lat="49.7892" lon="2.45202">
        <ele>50.5</ele>
        <time>2023-08-23T07:48:57Z</time>
      </trkpt>
      <trkpt lat="49.78921" lon="2.45201">
        <ele>50.6</ele>
        <time>2023-08-23T07:48:58Z</time>
      </trkpt>
      <trkpt lat="49.78922" lon="2.452">
        <ele>50.7</ele>
        <time>2023-08-23T07:48:59Z</time>
      </trkpt>
      <trkpt lat="49.78923" lon="2.45199">
        <ele>50.8</ele>
        <time>2023-08-23T07:49:00Z</time>
      </trkpt>
      <trkpt lat="49.78924" lon="2.45198">
        <ele>50.9</ele>
        <time>2023-08-23T07:49:01Z</time>
      </trkpt>
      <trkpt lat="49.78924" lon="2.45197">
        <ele>51</ele>
        <time>2023-08-23T07:49:02Z</time>
      </trkpt>
      <trkpt lat="49.78925" lon="2.45196">
        <ele>51.1</ele>
        <time>2023-08-23T07:49:03Z</time>
      </trkpt>
      <trkpt lat="49.78926" lon="2.45196">
        <ele>51.1</ele>
        <time>2023-08-23T07:49:04Z</time>
      </trkpt>
      <trkpt lat="49.78927" lon="2.45195">
        <ele>51.2</ele>
        <time>2023-08-23T07:49:06Z</time>
      </trkpt>
      <trkpt lat="49.78928" lon="2.45194">
        <ele>51.3</ele>
        <time>2023-08-23T07:49:07Z</time>
      </trkpt>
      <trkpt lat="49.78928" lon="2.45193">
        <ele>51.4</ele>
        <time>2023-08-23T07:49:08Z</time>
      </trkpt>
      <trkpt lat="49.78929" lon="2.45191">
        <ele>51.5</ele>
        <time>2023-08-23T07:49:09Z</time>
      </trkpt>
      <trkpt lat="49.7893" lon="2.4519">
        <ele>51.6</ele>
        <time>2023-08-23T07:49:10Z</time>
      </trkpt>
      <trkpt lat="49.7893" lon="2.45189">
        <ele>51.7</ele>
        <time>2023-08-23T07:49:12Z</time>
      </trkpt>
      <trkpt lat="49.78931" lon="2.45187">
        <ele>51.9</ele>
        <time>2023-08-23T07:49:13Z</time>
      </trkpt>
      <trkpt lat="49.78932" lon="2.45185">
        <ele>52</ele>
        <time>2023-08-23T07:49:14Z</time>
      </trkpt>
      <trkpt lat="49.78933" lon="2.45184">
        <ele>52.2</ele>
        <time>2023-08-23T07:49:15Z</time>
      </trkpt>
      <trkpt lat="49.78934" lon="2.45182">
        <ele>52.3</ele>
        <time>2023-08-23T07:49:16Z</time>
      </trkpt>
      <trkpt lat="49.78935" lon="2.45181">
        <ele>52.4</ele>
        <time>2023-08-23T07:49:17Z</time>
      </trkpt>
      <trkpt lat="49.78936" lon="2.45179">
        <ele>52.6</ele>
        <time>2023-08-23T07:49:19Z</time>
      </trkpt>
      <trkpt lat="49.78938" lon="2.45178">
        <ele>52.7</ele>
        <time>2023-08-23T07:49:20Z</time>
      </trkpt>
      <trkpt lat="49.78939" lon="2.45176">
        <ele>52.9</ele>
        <time>2023-08-23T07:49:21Z</time>
      </trkpt>
      <trkpt lat="49.7894" lon="2.45175">
        <ele>53</ele>
        <time>2023-08-23T07:49:22Z</time>
      </trkpt>
      <trkpt lat="49.7894" lon="2.45174">
        <ele>53</ele>
        <time>2023-08-23T07:49:23Z</time>
      </trkpt>
      <trkpt lat="49.78941" lon="2.45173">
        <ele>53.1</ele>
        <time>2023-08-23T07:49:24Z</time>
      </trkpt>
      <trkpt lat="49.78941" lon="2.45172">
        <ele>53.3</ele>
        <time>2023-08-23T07:49:25Z</time>
      </trkpt>
      <trkpt lat="49.78942" lon="2.4517">
        <ele>53.4</ele>
        <time>2023-08-23T07:49:27Z</time>
      </trkpt>
      <trkpt lat="49.78943" lon="2.45169">
        <ele>53.5</ele>
        <time>2023-08-23T07:49:28Z</time>
      </trkpt>
      <trkpt lat="49.78944" lon="2.45168">
        <ele>53.6</ele>
        <time>2023-08-23T07:49:29Z</time>
      </trkpt>
      <trkpt lat="49.78944" lon="2.45166">
        <ele>53.7</ele>
        <time>2023-08-23T07:49:30Z</time>
      </trkpt>
      <trkpt lat="49.78945" lon="2.45165">
        <ele>53.9</ele>
        <time>2023-08-23T07:49:31Z</time>
      </trkpt>
      <trkpt lat="49.78946" lon="2.45163">
        <ele>54</ele>
        <time>2023-08-23T07:49:32Z</time>
      </trkpt>
      <trkpt lat="49.78947" lon="2.45161">
        <ele>54.2</ele>
        <time>2023-08-23T07:49:34Z</time>
      </trkpt>
      <trkpt lat="49.78948" lon="2.45159">
        <ele>54.3</ele>
        <time>2023-08-23T07:49:35Z</time>
      </trkpt>
      <trkpt lat="49.78949" lon="2.45158">
        <ele>54.5</ele>
        <time>2023-08-23T07:49:36Z</time>
      </trkpt>
      <trkpt lat="49.7895" lon="2.45156">
        <ele>54.7</ele>
        <time>2023-08-23T07:49:37Z</time>
      </trkpt>
      <trkpt lat="49.78952" lon="2.45155">
        <ele>54.8</ele>
        <time>2023-08-23T07:49:38Z</time>
      </trkpt>
      <trkpt lat="49.78953" lon="2.45153">
        <ele>55</ele>
        <time>2023-08-23T07:49:39Z</time>
      </trkpt>
      <trkpt lat="49.78953" lon="2.45152">
        <ele>55.1</ele>
        <time>2023-08-23T07:49:40Z</time>
      </trkpt>
      <trkpt lat="49.78953" lon="2.4515">
        <ele>55.2</ele>
        <time>2023-08-23T07:49:42Z</time>
      </trkpt>
      <trkpt lat="49.78954" lon="2.45149">
        <ele>55.3</ele>
        <time>2023-08-23T07:49:43Z</time>
      </trkpt>
      <trkpt lat="49.78955" lon="2.45148">
        <ele>55.4</ele>
        <time>2023-08-23T07:49:44Z</time>
      </trkpt>
      <trkpt lat="49.78955" lon="2.45147">
        <ele>55.5</ele>
        <time>2023-08-23T07:49:45Z</time>
      </trkpt>
      <trkpt lat="49.78956" lon="2.45146">
        <ele>55.5</ele>
        <time>2023-08-23T07:49:46Z</time>
      </trkpt>
      <trkpt lat="49.78957" lon="2.45145">
        <ele>55.6</ele>
        <time>2023-08-23T07:49:47Z</time>
      </trkpt>
      <trkpt lat="49.78957" lon="2.45143">
        <ele>55.7</ele>
        <time>2023-08-23T07:49:49Z</time>
      </trkpt>
      <trkpt lat="49.78958" lon="2.45142">
        <ele>55.8</ele>
        <time>2023-08-23T07:49:50Z</time>
      </trkpt>
      <trkpt lat="49.78959" lon="2.45141">
        <ele>55.9</ele>
        <time>2023-08-23T07:49:51Z</time>
      </trkpt>
      <trkpt lat="49.78959" lon="2.4514">
        <ele>56</ele>
        <time>2023-08-23T07:49:52Z</time>
      </trkpt>
      <trkpt lat="49.7896" lon="2.45139">
        <ele>56</ele>
        <time>2023-08-23T07:49:53Z</time>
      </trkpt>
      <trkpt lat="49.78961" lon="2.45137">
        <ele>56.1</ele>
        <time>2023-08-23T07:49:55Z</time>
      </trkpt>
      <trkpt lat="49.78962" lon="2.45136">
        <ele>56.2</ele>
        <time>2023-08-23T07:49:56Z</time>
      </trkpt>
      <trkpt lat="49.78962" lon="2.45135">
        <ele>56.3</ele>
        <time>2023-08-23T07:49:57Z</time>
      </trkpt>
      <trkpt lat="49.78963" lon="2.45134">
        <ele>56.4</ele>
        <time>2023-08-23T07:49:58Z</time>
      </trkpt>
      <trkpt lat="49.78964" lon="2.45133">
        <ele>56.5</ele>
        <time>2023-08-23T07:49:59Z</time>
      </trkpt>
      <trkpt lat="49.78965" lon="2.45132">
        <ele>56.5</ele>
        <time>2023-08-23T07:50:00Z</time>
      </trkpt>
      <trkpt lat="49.78965" lon="2.45131">
        <ele>56.6</ele>
        <time>2023-08-23T07:50:02Z</time>
      </trkpt>
      <trkpt lat="49.78966" lon="2.4513">
        <ele>56.7</ele>
        <time>2023-08-23T07:50:03Z</time>
      </trkpt>
      <trkpt lat="49.78967" lon="2.45129">
        <ele>56.8</ele>
        <time>2023-08-23T07:50:04Z</time>
      </trkpt>
      <trkpt lat="49.78968" lon="2.45128">
        <ele>56.8</ele>
        <time>2023-08-23T07:50:05Z</time>
      </trkpt>
      <trkpt lat="49.78969" lon="2.45127">
        <ele>56.9</ele>
        <time>2023-08-23T07:50:06Z</time>
      </trkpt>
      <trkpt lat="49.7897" lon="2.45126">
        <ele>57</ele>
        <time>2023-08-23T07:50:08Z</time>
      </trkpt>
      <trkpt lat="49.78971" lon="2.45125">
        <ele>57.1</ele>
        <time>2023-08-23T07:50:09Z</time>
      </trkpt>
      <trkpt lat="49.78972" lon="2.45124">
        <ele>57.2</ele>
        <time>2023-08-23T07:50:10Z</time>
      </trkpt>
      <trkpt lat="49.78973" lon="2.45124">
        <ele>57.2</ele>
        <time>2023-08-23T07:50:11Z</time>
      </trkpt>
      <trkpt lat="49.78973" lon="2.45123">
        <ele>57.3</ele>
        <time>2023-08-23T07:50:12Z</time>
      </trkpt>
      <trkpt lat="49.78974" lon="2.45122">
        <ele>57.4</ele>
        <time>2023-08-23T07:50:13Z</time>
      </trkpt>
      <trkpt lat="49.78975" lon="2.45121">
        <ele>57.4</ele>
        <time>2023-08-23T07:50:14Z</time>
      </trkpt>
      <trkpt lat="49.78975" lon="2.4512">
        <ele>57.5</ele>
        <time>2023-08-23T07:50:15Z</time>
      </trkpt>
      <trkpt lat="49.78976" lon="2.45119">
        <ele>57.6</ele>
        <time>2023-08-23T07:50:17Z</time>
      </trkpt>
      <trkpt lat="49.78977" lon="2.45118">
        <ele>57.6</ele>
        <time>2023-08-23T07:50:18Z</time>
      </trkpt>
      <trkpt lat="49.78978" lon="2.45116">
        <ele>57.7</ele>
        <time>2023-08-23T07:50:19Z</time>
      </trkpt>
      <trkpt lat="49.78978" lon="2.45115">
        <ele>57.8</ele>
        <time>2023-08-23T07:50:20Z</time>
      </trkpt>
      <trkpt lat="49.78979" lon="2.45114">
        <ele>57.8</ele>
        <time>2023-08-23T07:50:21Z</time>
      </trkpt>
      <trkpt lat="49.78979" lon="2.45113">
        <ele>57.9</ele>
        <time>2023-08-23T07:50:23Z</time>
      </trkpt>
      <trkpt lat="49.7898" lon="2.45111">
        <ele>58</ele>
        <time>2023-08-23T07:50:24Z</time>
      </trkpt>
      <trkpt lat="49.78981" lon="2.4511">
        <ele>58.1</ele>
        <time>2023-08-23T07:50:25Z</time>
      </trkpt>
      <trkpt lat="49.78981" lon="2.45108">
        <ele>58.1</ele>
        <time>2023-08-23T07:50:26Z</time>
      </trkpt>
      <trkpt lat="49.78982" lon="2.45107">
        <ele>58.2</ele>
        <time>2023-08-23T07:50:27Z</time>
      </trkpt>
      <trkpt lat="49.78983" lon="2.45106">
        <ele>58.2</ele>
        <time>2023-08-23T07:50:28Z</time>
      </trkpt>
      <trkpt lat="49.78984" lon="2.45104">
        <ele>58.3</ele>
        <time>2023-08-23T07:50:30Z</time>
      </trkpt>
      <trkpt lat="49.78984" lon="2.45103">
        <ele>58.4</ele>
        <time>2023-08-23T07:50:31Z</time>
      </trkpt>
      <trkpt lat="49.78986" lon="2.45102">
        <ele>58.5</ele>
        <time>2023-08-23T07:50:32Z</time>
      </trkpt>
      <trkpt lat="49.78987" lon="2.45101">
        <ele>58.5</ele>
        <time>2023-08-23T07:50:33Z</time>
      </trkpt>
      <trkpt lat="49.78987" lon="2.451">
        <ele>58.6</ele>
        <time>2023-08-23T07:50:34Z</time>
      </trkpt>
      <trkpt lat="49.78989" lon="2.45099">
        <ele>58.7</ele>
        <time>2023-08-23T07:50:35Z</time>
      </trkpt>
      <trkpt lat="49.7899" lon="2.45098">
        <ele>58.7</ele>
        <time>2023-08-23T07:50:37Z</time>
      </trkpt>
      <trkpt lat="49.78991" lon="2.45098">
        <ele>58.7</ele>
        <time>2023-08-23T07:50:38Z</time>
      </trkpt>
      <trkpt lat="49.78992" lon="2.45096">
        <ele>58.8</ele>
        <time>2023-08-23T07:50:39Z</time>
      </trkpt>
      <trkpt lat="49.78993" lon="2.45095">
        <ele>58.8</ele>
        <time>2023-08-23T07:50:40Z</time>
      </trkpt>
      <trkpt lat="49.78994" lon="2.45095">
        <ele>58.9</ele>
        <time>2023-08-23T07:50:41Z</time>
      </trkpt>
      <trkpt lat="49.78995" lon="2.45093">
        <ele>58.9</ele>
        <time>2023-08-23T07:50:43Z</time>
      </trkpt>
      <trkpt lat="49.78996" lon="2.45092">
        <ele>59</ele>
        <time>2023-08-23T07:50:44Z</time>
      </trkpt>
      <trkpt lat="49.78997" lon="2.45092">
        <ele>59</ele>
        <time>2023-08-23T07:50:45Z</time>
      </trkpt>
      <trkpt lat="49.78998" lon="2.45091">
        <ele>59</ele>
        <time>2023-08-23T07:50:46Z</time>
      </trkpt>
      <trkpt lat="49.78999" lon="2.4509">
        <ele>59.1</ele>
        <time>2023-08-23T07:50:47Z</time>
      </trkpt>
      <trkpt lat="49.78999" lon="2.45089">
        <ele>59.1</ele>
        <time>2023-08-23T07:50:48Z</time>
      </trkpt>
      <trkpt lat="49.79" lon="2.45088">
        <ele>59.1</ele>
        <time>2023-08-23T07:50:49Z</time>
      </trkpt>
      <trkpt lat="49.79001" lon="2.45087">
        <ele>59.2</ele>
        <time>2023-08-23T07:50:51Z</time>
      </trkpt>
      <trkpt lat="49.79001" lon="2.45086">
        <ele>59.2</ele>
        <time>2023-08-23T07:50:52Z</time>
      </trkpt>
      <trkpt lat="49.79002" lon="2.45084">
        <ele>59.2</ele>
        <time>2023-08-23T07:50:53Z</time>
      </trkpt>
      <trkpt lat="49.79003" lon="2.45083">
        <ele>59.3</ele>
        <time>2023-08-23T07:50:54Z</time>
      </trkpt>
      <trkpt lat="49.79004" lon="2.45082">
        <ele>59.3</ele>
        <time>2023-08-23T07:50:55Z</time>
      </trkpt>
      <trkpt lat="49.79005" lon="2.45081">
        <ele>59.3</ele>
        <time>2023-08-23T07:50:56Z</time>
      </trkpt>
      <trkpt lat="49.79006" lon="2.45081">
        <ele>59.3</ele>
        <time>2023-08-23T07:50:58Z</time>
      </trkpt>
      <trkpt lat="49.79007" lon="2.4508">
        <ele>59.4</ele>
        <time>2023-08-23T07:50:59Z</time>
      </trkpt>
      <trkpt lat="49.79008" lon="2.45079">
        <ele>59.4</ele>
        <time>2023-08-23T07:51:00Z</time>
      </trkpt>
      <trkpt lat="49.79009" lon="2.45078">
        <ele>59.4</ele>
        <time>2023-08-23T07:51:01Z</time>
      </trkpt>
      <trkpt lat="49.7901" lon="2.45077">
        <ele>59.5</ele>
        <time>2023-08-23T07:51:02Z</time>
      </trkpt>
      <trkpt lat="49.79011" lon="2.45076">
        <ele>59.5</ele>
        <time>2023-08-23T07:51:04Z</time>
      </trkpt>
      <trkpt lat="49.79012" lon="2.45075">
        <ele>59.5</ele>
        <time>2023-08-23T07:51:05Z</time>
      </trkpt>
      <trkpt lat="49.79012" lon="2.45074">
        <ele>59.6</ele>
        <time>2023-08-23T07:51:06Z</time>
      </trkpt>
      <trkpt lat="49.79013" lon="2.45073">
        <ele>59.6</ele>
        <time>2023-08-23T07:51:07Z</time>
      </trkpt>
      <trkpt lat="49.79014" lon="2.45072">
        <ele>59.7</ele>
        <time>2023-08-23T07:51:08Z</time>
      </trkpt>
      <trkpt lat="49.79015" lon="2.45071">
        <ele>59.7</ele>
        <time>2023-08-23T07:51:10Z</time>
      </trkpt>
      <trkpt lat="49.79016" lon="2.4507">
        <ele>59.7</ele>
        <time>2023-08-23T07:51:11Z</time>
      </trkpt>
      <trkpt lat="49.79017" lon="2.45069">
        <ele>59.8</ele>
        <time>2023-08-23T07:51:12Z</time>
      </trkpt>
      <trkpt lat="49.79018" lon="2.45069">
        <ele>59.8</ele>
        <time>2023-08-23T07:51:13Z</time>
      </trkpt>
      <trkpt lat="49.79018" lon="2.45068">
        <ele>59.8</ele>
        <time>2023-08-23T07:51:14Z</time>
      </trkpt>
      <trkpt lat="49.79019" lon="2.45067">
        <ele>59.9</ele>
        <time>2023-08-23T07:51:15Z</time>
      </trkpt>
      <trkpt lat="49.7902" lon="2.45067">
        <ele>59.9</ele>
        <time>2023-08-23T07:51:16Z</time>
      </trkpt>
      <trkpt lat="49.79021" lon="2.45066">
        <ele>59.9</ele>
        <time>2023-08-23T07:51:18Z</time>
      </trkpt>
      <trkpt lat="49.79022" lon="2.45065">
        <ele>60</ele>
        <time>2023-08-23T07:51:19Z</time>
      </trkpt>
      <trkpt lat="49.79023" lon="2.45064">
        <ele>60</ele>
        <time>2023-08-23T07:51:21Z</time>
      </trkpt>
      <trkpt lat="49.79023" lon="2.45063">
        <ele>60</ele>
        <time>2023-08-23T07:51:22Z</time>
      </trkpt>
      <trkpt lat="49.79023" lon="2.45063">
        <ele>60</ele>
        <time>2023-08-23T07:51:23Z</time>
      </trkpt>
      <trkpt lat="49.79023" lon="2.45062">
        <ele>60.1</ele>
        <time>2023-08-23T07:51:25Z</time>
      </trkpt>
      <trkpt lat="49.79022" lon="2.45062">
        <ele>60.1</ele>
        <time>2023-08-23T07:51:26Z</time>
      </trkpt>
      <trkpt lat="49.79022" lon="2.45062">
        <ele>60.1</ele>
        <time>2023-08-23T07:51:28Z</time>
      </trkpt>
      <trkpt lat="49.79022" lon="2.45062">
        <ele>60.1</ele>
        <time>2023-08-23T07:51:29Z</time>
      </trkpt>
      <trkpt lat="49.79022" lon="2.45062">
        <ele>60.1</ele>
        <time>2023-08-23T07:51:30Z</time>
      </trkpt>
      <trkpt lat="49.79022" lon="2.45061">
        <ele>60.1</ele>
        <time>2023-08-23T07:51:31Z</time>
      </trkpt>
      <trkpt lat="49.79023" lon="2.45061">
        <ele>60.1</ele>
        <time>2023-08-23T07:51:33Z</time>
      </trkpt>
      <trkpt lat="49.79022" lon="2.45061">
        <ele>60.1</ele>
        <time>2023-08-23T07:51:34Z</time>
      </trkpt>
      <trkpt lat="49.79022" lon="2.45061">
        <ele>60.1</ele>
        <time>2023-08-23T07:51:36Z</time>
      </trkpt>
      <trkpt lat="49.79022" lon="2.45061">
        <ele>60.1</ele>
        <time>2023-08-23T07:51:37Z</time>
      </trkpt>
      <trkpt lat="49.79022" lon="2.45061">
        <ele>60.1</ele>
        <time>2023-08-23T07:51:39Z</time>
      </trkpt>
      <trkpt lat="49.79022" lon="2.45061">
        <ele>60.1</ele>
        <time>2023-08-23T07:51:40Z</time>
      </trkpt>
      <trkpt lat="49.79022" lon="2.45061">
        <ele>60.1</ele>
        <time>2023-08-23T07:51:41Z</time>
      </trkpt>
      <trkpt lat="49.79022" lon="2.45061">
        <ele>60.1</ele>
        <time>2023-08-23T07:51:42Z</time>
      </trkpt>
      <trkpt lat="49.79022" lon="2.45061">
        <ele>60.1</ele>
        <time>2023-08-23T07:51:43Z</time>
      </trkpt>
      <trkpt lat="49.79022" lon="2.45061">
        <ele>60.1</ele>
        <time>2023-08-23T07:51:44Z</time>
      </trkpt>
      <trkpt lat="49.79021" lon="2.45063">
        <ele>60.2</ele>
        <time>2023-08-23T07:51:45Z</time>
      </trkpt>
      <trkpt lat="49.79021" lon="2.45063">
        <ele>60.2</ele>
        <time>2023-08-23T07:51:46Z</time>
      </trkpt>
      <trkpt lat="49.79021" lon="2.45064">
        <ele>60.2</ele>
        <time>2023-08-23T07:51:48Z</time>
      </trkpt>
      <trkpt lat="49.79021" lon="2.45064">
        <ele>60.2</ele>
        <time>2023-08-23T07:51:49Z</time>
      </trkpt>
      <trkpt lat="49.79021" lon="2.45064">
        <ele>60.2</ele>
        <time>2023-08-23T07:51:50Z</time>
      </trkpt>
      <trkpt lat="49.79021" lon="2.45064">
        <ele>60.2</ele>
        <time>2023-08-23T07:51:51Z</time>
      </trkpt>
      <trkpt lat="49.79021" lon="2.45064">
        <ele>60.2</ele>
        <time>2023-08-23T07:51:52Z</time>
      </trkpt>
      <trkpt lat="49.79021" lon="2.45064">
        <ele>60.2</ele>
        <time>2023-08-23T07:51:54Z</time>
      </trkpt>
      <trkpt lat="49.79021" lon="2.45064">
        <ele>60.2</ele>
        <time>2023-08-23T07:51:55Z</time>
      </trkpt>
      <trkpt lat="49.79021" lon="2.45064">
        <ele>60.2</ele>
        <time>2023-08-23T07:51:56Z</time>
      </trkpt>
      <trkpt lat="49.79021" lon="2.45064">
        <ele>60.2</ele>
        <time>2023-08-23T07:51:57Z</time>
      </trkpt>
      <trkpt lat="49.79021" lon="2.45064">
        <ele>60.2</ele>
        <time>2023-08-23T07:51:58Z</time>
      </trkpt>
      <trkpt lat="49.79021" lon="2.45064">
        <ele>60.2</ele>
        <time>2023-08-23T07:52:00Z</time>
      </trkpt>
      <trkpt lat="49.79021" lon="2.45064">
        <ele>60.2</ele>
        <time>2023-08-23T07:52:01Z</time>
      </trkpt>
      <trkpt lat="49.79021" lon="2.45064">
        <ele>60.2</ele>
        <time>2023-08-23T07:52:02Z</time>
      </trkpt>
      <trkpt lat="49.79021" lon="2.45064">
        <ele>60.2</ele>
        <time>2023-08-23T07:52:03Z</time>
      </trkpt>
      <trkpt lat="49.79021" lon="2.45064">
        <ele>60.2</ele>
        <time>2023-08-23T07:52:04Z</time>
      </trkpt>
      <trkpt lat="49.79021" lon="2.45064">
        <ele>60.2</ele>
        <time>2023-08-23T07:52:05Z</time>
      </trkpt>
      <trkpt lat="49.79021" lon="2.45064">
        <ele>60.2</ele>
        <time>2023-08-23T07:52:06Z</time>
      </trkpt>
      <trkpt lat="49.79021" lon="2.45064">
        <ele>60.2</ele>
        <time>2023-08-23T07:52:07Z</time>
      </trkpt>
      <trkpt lat="49.79021" lon="2.45064">
        <ele>60.2</ele>
        <time>2023-08-23T07:52:08Z</time>
      </trkpt>
      <trkpt lat="49.79021" lon="2.45064">
        <ele>60.2</ele>
        <time>2023-08-23T07:52:09Z</time>
      </trkpt>
      <trkpt lat="49.79021" lon="2.45064">
        <ele>60.2</ele>
        <time>2023-08-23T07:52:10Z</time>
      </trkpt>
      <trkpt lat="49.79021" lon="2.45064">
        <ele>60.2</ele>
        <time>2023-08-23T07:52:11Z</time>
      </trkpt>
      <trkpt lat="49.79021" lon="2.45064">
        <ele>60.2</ele>
        <time>2023-08-23T07:52:12Z</time>
      </trkpt>
      <trkpt lat="49.79021" lon="2.45064">
        <ele>60.2</ele>
        <time>2023-08-23T07:52:13Z</time>
      </trkpt>
      <trkpt lat="49.79021" lon="2.45064">
        <ele>60.2</ele>
        <time>2023-08-23T07:52:14Z</time>
      </trkpt>
      <trkpt lat="49.79021" lon="2.45064">
        <ele>60.2</ele>
        <time>2023-08-23T07:52:15Z</time>
      </trkpt>
      <trkpt lat="49.79021" lon="2.45064">
        <ele>60.2</ele>
        <time>2023-08-23T07:52:16Z</time>
      </trkpt>
      <trkpt lat="49.79021" lon="2.45064">
        <ele>60.2</ele>
        <time>2023-08-23T07:52:17Z</time>
      </trkpt>
      <trkpt lat="49.79021" lon="2.45064">
        <ele>60.2</ele>
        <time>2023-08-23T07:52:18Z</time>
      </trkpt>
      <trkpt lat="49.79021" lon="2.45064">
        <ele>60.2</ele>
        <time>2023-08-23T07:52:19Z</time>
      </trkpt>
      <trkpt lat="49.79021" lon="2.45064">
        <ele>60.2</ele>
        <time>2023-08-23T07:52:20Z</time>
      </trkpt>
      <trkpt lat="49.79021" lon="2.45064">
        <ele>60.2</ele>
        <time>2023-08-23T07:52:22Z</time>
      </trkpt>
      <trkpt lat="49.79021" lon="2.45064">
        <ele>60.2</ele>
        <time>2023-08-23T07:52:23Z</time>
      </trkpt>
      <trkpt lat="49.79021" lon="2.45064">
        <ele>60.2</ele>
        <time>2023-08-23T07:52:24Z</time>
      </trkpt>
      <trkpt lat="49.79021" lon="2.45064">
        <ele>60.2</ele>
        <time>2023-08-23T07:52:25Z</time>
      </trkpt>
      <trkpt lat="49.79021" lon="2.45064">
        <ele>60.2</ele>
        <time>2023-08-23T07:52:26Z</time>
      </trkpt>
      <trkpt lat="49.79021" lon="2.45064">
        <ele>60.2</ele>
        <time>2023-08-23T07:52:27Z</time>
      </trkpt>
      <trkpt lat="49.79021" lon="2.45064">
        <ele>60.2</ele>
        <time>2023-08-23T07:52:28Z</time>
      </trkpt>
      <trkpt lat="49.79021" lon="2.45064">
        <ele>60.2</ele>
        <time>2023-08-23T07:52:29Z</time>
      </trkpt>
      <trkpt lat="49.79021" lon="2.45064">
        <ele>60.2</ele>
        <time>2023-08-23T07:52:30Z</time>
      </trkpt>
      <trkpt lat="49.79021" lon="2.45064">
        <ele>60.2</ele>
        <time>2023-08-23T07:52:31Z</time>
      </trkpt>
      <trkpt lat="49.79021" lon="2.45064">
        <ele>60.2</ele>
        <time>2023-08-23T07:52:32Z</time>
      </trkpt>
      <trkpt lat="49.79021" lon="2.45064">
        <ele>60.2</ele>
        <time>2023-08-23T07:52:33Z</time>
      </trkpt>
      <trkpt lat="49.79021" lon="2.45064">
        <ele>60.2</ele>
        <time>2023-08-23T07:52:34Z</time>
      </trkpt>
      <trkpt lat="49.79021" lon="2.45064">
        <ele>60.2</ele>
        <time>2023-08-23T07:52:35Z</time>
      </trkpt>
      <trkpt lat="49.79021" lon="2.45064">
        <ele>60.2</ele>
        <time>2023-08-23T07:52:36Z</time>
      </trkpt>
      <trkpt lat="49.79021" lon="2.45064">
        <ele>60.2</ele>
        <time>2023-08-23T07:52:37Z</time>
      </trkpt>
      <trkpt lat="49.79021" lon="2.45064">
        <ele>60.2</ele>
        <time>2023-08-23T07:52:38Z</time>
      </trkpt>
      <trkpt lat="49.79021" lon="2.45064">
        <ele>60.2</ele>
        <time>2023-08-23T07:52:39Z</time>
      </trkpt>
      <trkpt lat="49.79021" lon="2.45064">
        <ele>60.2</ele>
        <time>2023-08-23T07:52:41Z</time>
      </trkpt>
      <trkpt lat="49.79021" lon="2.45064">
        <ele>60.2</ele>
        <time>2023-08-23T07:52:43Z</time>
      </trkpt>
      <trkpt lat="49.79021" lon="2.45064">
        <ele>60.2</ele>
        <time>2023-08-23T07:52:44Z</time>
      </trkpt>
      <trkpt lat="49.79021" lon="2.45064">
        <ele>60.2</ele>
        <time>2023-08-23T07:52:45Z</time>
      </trkpt>
      <trkpt lat="49.79021" lon="2.45064">
        <ele>60.2</ele>
        <time>2023-08-23T07:52:46Z</time>
      </trkpt>
      <trkpt lat="49.79021" lon="2.45064">
        <ele>60.2</ele>
        <time>2023-08-23T07:52:47Z</time>
      </trkpt>
      <trkpt lat="49.79019" lon="2.45064">
        <ele>60.2</ele>
        <time>2023-08-23T07:52:49Z</time>
      </trkpt>
      <trkpt lat="49.7902" lon="2.45063">
        <ele>60.2</ele>
        <time>2023-08-23T07:52:50Z</time>
      </trkpt>
      <trkpt lat="49.7902" lon="2.45062">
        <ele>60.3</ele>
        <time>2023-08-23T07:52:51Z</time>
      </trkpt>
      <trkpt lat="49.79021" lon="2.45062">
        <ele>60.3</ele>
        <time>2023-08-23T07:52:52Z</time>
      </trkpt>
      <trkpt lat="49.79022" lon="2.45061">
        <ele>60.3</ele>
        <time>2023-08-23T07:52:53Z</time>
      </trkpt>
      <trkpt lat="49.79023" lon="2.4506">
        <ele>60.3</ele>
        <time>2023-08-23T07:52:55Z</time>
      </trkpt>
      <trkpt lat="49.79024" lon="2.45059">
        <ele>60.3</ele>
        <time>2023-08-23T07:52:56Z</time>
      </trkpt>
      <trkpt lat="49.79024" lon="2.45058">
        <ele>60.4</ele>
        <time>2023-08-23T07:52:57Z</time>
      </trkpt>
      <trkpt lat="49.79025" lon="2.45056">
        <ele>60.4</ele>
        <time>2023-08-23T07:52:58Z</time>
      </trkpt>
      <trkpt lat="49.79026" lon="2.45054">
        <ele>60.5</ele>
        <time>2023-08-23T07:52:59Z</time>
      </trkpt>
      <trkpt lat="49.79027" lon="2.45052">
        <ele>60.5</ele>
        <time>2023-08-23T07:53:01Z</time>
      </trkpt>
      <trkpt lat="49.79028" lon="2.4505">
        <ele>60.6</ele>
        <time>2023-08-23T07:53:02Z</time>
      </trkpt>
      <trkpt lat="49.79028" lon="2.45048">
        <ele>60.6</ele>
        <time>2023-08-23T07:53:03Z</time>
      </trkpt>
      <trkpt lat="49.79028" lon="2.45047">
        <ele>60.7</ele>
        <time>2023-08-23T07:53:04Z</time>
      </trkpt>
      <trkpt lat="49.79028" lon="2.45045">
        <ele>60.7</ele>
        <time>2023-08-23T07:53:05Z</time>
      </trkpt>
      <trkpt lat="49.79029" lon="2.45043">
        <ele>60.8</ele>
        <time>2023-08-23T07:53:06Z</time>
      </trkpt>
      <trkpt lat="49.79029" lon="2.45041">
        <ele>60.8</ele>
        <time>2023-08-23T07:53:08Z</time>
      </trkpt>
      <trkpt lat="49.7903" lon="2.45039">
        <ele>60.9</ele>
        <time>2023-08-23T07:53:09Z</time>
      </trkpt>
      <trkpt lat="49.7903" lon="2.45036">
        <ele>60.9</ele>
        <time>2023-08-23T07:53:10Z</time>
      </trkpt>
      <trkpt lat="49.79031" lon="2.45033">
        <ele>61</ele>
        <time>2023-08-23T07:53:11Z</time>
      </trkpt>
      <trkpt lat="49.79031" lon="2.45032">
        <ele>61</ele>
        <time>2023-08-23T07:53:12Z</time>
      </trkpt>
      <trkpt lat="49.79031" lon="2.4503">
        <ele>61.1</ele>
        <time>2023-08-23T07:53:13Z</time>
      </trkpt>
      <trkpt lat="49.79031" lon="2.45028">
        <ele>61.1</ele>
        <time>2023-08-23T07:53:15Z</time>
      </trkpt>
      <trkpt lat="49.79032" lon="2.45026">
        <ele>61.1</ele>
        <time>2023-08-23T07:53:16Z</time>
      </trkpt>
      <trkpt lat="49.79032" lon="2.45024">
        <ele>61.2</ele>
        <time>2023-08-23T07:53:17Z</time>
      </trkpt>
      <trkpt lat="49.79032" lon="2.45022">
        <ele>61.3</ele>
        <time>2023-08-23T07:53:18Z</time>
      </trkpt>
      <trkpt lat="49.79033" lon="2.45019">
        <ele>61.3</ele>
        <time>2023-08-23T07:53:19Z</time>
      </trkpt>
      <trkpt lat="49.79033" lon="2.45017">
        <ele>61.4</ele>
        <time>2023-08-23T07:53:21Z</time>
      </trkpt>
      <trkpt lat="49.79033" lon="2.45016">
        <ele>61.4</ele>
        <time>2023-08-23T07:53:22Z</time>
      </trkpt>
      <trkpt lat="49.79033" lon="2.45013">
        <ele>61.5</ele>
        <time>2023-08-23T07:53:23Z</time>
      </trkpt>
      <trkpt lat="49.79033" lon="2.45012">
        <ele>61.5</ele>
        <time>2023-08-23T07:53:24Z</time>
      </trkpt>
      <trkpt lat="49.79034" lon="2.4501">
        <ele>61.6</ele>
        <time>2023-08-23T07:53:25Z</time>
      </trkpt>
      <trkpt lat="49.79034" lon="2.45009">
        <ele>61.6</ele>
        <time>2023-08-23T07:53:26Z</time>
      </trkpt>
      <trkpt lat="49.79034" lon="2.45007">
        <ele>61.7</ele>
        <time>2023-08-23T07:53:28Z</time>
      </trkpt>
      <trkpt lat="49.79034" lon="2.45005">
        <ele>61.7</ele>
        <time>2023-08-23T07:53:29Z</time>
      </trkpt>
      <trkpt lat="49.79034" lon="2.45003">
        <ele>61.7</ele>
        <time>2023-08-23T07:53:30Z</time>
      </trkpt>
      <trkpt lat="49.79034" lon="2.45002">
        <ele>61.8</ele>
        <time>2023-08-23T07:53:31Z</time>
      </trkpt>
      <trkpt lat="49.79034" lon="2.45">
        <ele>61.8</ele>
        <time>2023-08-23T07:53:32Z</time>
      </trkpt>
      <trkpt lat="49.79035" lon="2.44997">
        <ele>62.1</ele>
        <time>2023-08-23T07:53:34Z</time>
      </trkpt>
      <trkpt lat="49.79035" lon="2.44995">
        <ele>62.2</ele>
        <time>2023-08-23T07:53:35Z</time>
      </trkpt>
      <trkpt lat="49.79035" lon="2.44994">
        <ele>62.2</ele>
        <time>2023-08-23T07:53:36Z</time>
      </trkpt>
      <trkpt lat="49.79035" lon="2.44992">
        <ele>62.2</ele>
        <time>2023-08-23T07:53:37Z</time>
      </trkpt>
      <trkpt lat="49.79036" lon="2.44991">
        <ele>62.3</ele>
        <time>2023-08-23T07:53:38Z</time>
      </trkpt>
      <trkpt lat="49.79036" lon="2.44989">
        <ele>62.3</ele>
        <time>2023-08-23T07:53:39Z</time>
      </trkpt>
      <trkpt lat="49.79036" lon="2.44987">
        <ele>62.4</ele>
        <time>2023-08-23T07:53:41Z</time>
      </trkpt>
      <trkpt lat="49.79037" lon="2.44986">
        <ele>62.4</ele>
        <time>2023-08-23T07:53:42Z</time>
      </trkpt>
      <trkpt lat="49.79037" lon="2.44984">
        <ele>62.4</ele>
        <time>2023-08-23T07:53:43Z</time>
      </trkpt>
      <trkpt lat="49.79038" lon="2.44982">
        <ele>62.5</ele>
        <time>2023-08-23T07:53:44Z</time>
      </trkpt>
      <trkpt lat="49.79038" lon="2.4498">
        <ele>62.5</ele>
        <time>2023-08-23T07:53:45Z</time>
      </trkpt>
      <trkpt lat="49.79039" lon="2.44979">
        <ele>62.6</ele>
        <time>2023-08-23T07:53:46Z</time>
      </trkpt>
      <trkpt lat="49.79039" lon="2.44977">
        <ele>62.6</ele>
        <time>2023-08-23T07:53:47Z</time>
      </trkpt>
      <trkpt lat="49.79039" lon="2.44976">
        <ele>62.7</ele>
        <time>2023-08-23T07:53:49Z</time>
      </trkpt>
      <trkpt lat="49.7904" lon="2.44974">
        <ele>62.8</ele>
        <time>2023-08-23T07:53:50Z</time>
      </trkpt>
      <trkpt lat="49.79041" lon="2.44971">
        <ele>62.8</ele>
        <time>2023-08-23T07:53:51Z</time>
      </trkpt>
      <trkpt lat="49.79041" lon="2.4497">
        <ele>62.9</ele>
        <time>2023-08-23T07:53:52Z</time>
      </trkpt>
      <trkpt lat="49.79042" lon="2.44969">
        <ele>62.9</ele>
        <time>2023-08-23T07:53:53Z</time>
      </trkpt>
      <trkpt lat="49.79043" lon="2.44966">
        <ele>63</ele>
        <time>2023-08-23T07:53:54Z</time>
      </trkpt>
      <trkpt lat="49.79043" lon="2.44965">
        <ele>63.1</ele>
        <time>2023-08-23T07:53:56Z</time>
      </trkpt>
      <trkpt lat="49.79044" lon="2.44964">
        <ele>63.1</ele>
        <time>2023-08-23T07:53:57Z</time>
      </trkpt>
      <trkpt lat="49.79044" lon="2.44962">
        <ele>63.1</ele>
        <time>2023-08-23T07:53:58Z</time>
      </trkpt>
      <trkpt lat="49.79045" lon="2.44961">
        <ele>63.2</ele>
        <time>2023-08-23T07:54:00Z</time>
      </trkpt>
      <trkpt lat="49.79046" lon="2.44959">
        <ele>63.3</ele>
        <time>2023-08-23T07:54:01Z</time>
      </trkpt>
      <trkpt lat="49.79046" lon="2.44958">
        <ele>63.3</ele>
        <time>2023-08-23T07:54:02Z</time>
      </trkpt>
      <trkpt lat="49.79047" lon="2.44957">
        <ele>63.4</ele>
        <time>2023-08-23T07:54:03Z</time>
      </trkpt>
      <trkpt lat="49.79047" lon="2.44955">
        <ele>63.4</ele>
        <time>2023-08-23T07:54:04Z</time>
      </trkpt>
      <trkpt lat="49.79048" lon="2.44954">
        <ele>63.4</ele>
        <time>2023-08-23T07:54:06Z</time>
      </trkpt>
      <trkpt lat="49.79049" lon="2.44953">
        <ele>63.5</ele>
        <time>2023-08-23T07:54:07Z</time>
      </trkpt>
      <trkpt lat="49.7905" lon="2.44951">
        <ele>63.6</ele>
        <time>2023-08-23T07:54:08Z</time>
      </trkpt>
      <trkpt lat="49.7905" lon="2.4495">
        <ele>63.6</ele>
        <time>2023-08-23T07:54:09Z</time>
      </trkpt>
      <trkpt lat="49.79051" lon="2.44949">
        <ele>63.7</ele>
        <time>2023-08-23T07:54:10Z</time>
      </trkpt>
      <trkpt lat="49.79052" lon="2.44948">
        <ele>63.7</ele>
        <time>2023-08-23T07:54:12Z</time>
      </trkpt>
      <trkpt lat="49.79053" lon="2.44946">
        <ele>63.8</ele>
        <time>2023-08-23T07:54:13Z</time>
      </trkpt>
      <trkpt lat="49.79054" lon="2.44945">
        <ele>63.9</ele>
        <time>2023-08-23T07:54:14Z</time>
      </trkpt>
      <trkpt lat="49.79054" lon="2.44943">
        <ele>63.9</ele>
        <time>2023-08-23T07:54:15Z</time>
      </trkpt>
      <trkpt lat="49.79055" lon="2.44942">
        <ele>64</ele>
        <time>2023-08-23T07:54:16Z</time>
      </trkpt>
      <trkpt lat="49.79055" lon="2.44941">
        <ele>64</ele>
        <time>2023-08-23T07:54:17Z</time>
      </trkpt>
      <trkpt lat="49.79056" lon="2.44939">
        <ele>64.1</ele>
        <time>2023-08-23T07:54:18Z</time>
      </trkpt>
      <trkpt lat="49.79056" lon="2.44937">
        <ele>64.1</ele>
        <time>2023-08-23T07:54:20Z</time>
      </trkpt>
      <trkpt lat="49.79057" lon="2.44936">
        <ele>64.2</ele>
        <time>2023-08-23T07:54:21Z</time>
      </trkpt>
      <trkpt lat="49.79058" lon="2.44934">
        <ele>64.3</ele>
        <time>2023-08-23T07:54:22Z</time>
      </trkpt>
      <trkpt lat="49.79058" lon="2.44932">
        <ele>64.3</ele>
        <time>2023-08-23T07:54:24Z</time>
      </trkpt>
      <trkpt lat="49.79059" lon="2.44931">
        <ele>64.4</ele>
        <time>2023-08-23T07:54:25Z</time>
      </trkpt>
      <trkpt lat="49.79059" lon="2.4493">
        <ele>64.4</ele>
        <time>2023-08-23T07:54:26Z</time>
      </trkpt>
      <trkpt lat="49.7906" lon="2.44928">
        <ele>64.5</ele>
        <time>2023-08-23T07:54:27Z</time>
      </trkpt>
      <trkpt lat="49.79061" lon="2.44927">
        <ele>64.5</ele>
        <time>2023-08-23T07:54:28Z</time>
      </trkpt>
      <trkpt lat="49.79061" lon="2.44926">
        <ele>64.6</ele>
        <time>2023-08-23T07:54:29Z</time>
      </trkpt>
      <trkpt lat="49.79062" lon="2.44925">
        <ele>64.6</ele>
        <time>2023-08-23T07:54:31Z</time>
      </trkpt>
      <trkpt lat="49.79062" lon="2.44923">
        <ele>64.7</ele>
        <time>2023-08-23T07:54:32Z</time>
      </trkpt>
      <trkpt lat="49.79063" lon="2.44922">
        <ele>64.7</ele>
        <time>2023-08-23T07:54:33Z</time>
      </trkpt>
      <trkpt lat="49.79063" lon="2.44921">
        <ele>64.8</ele>
        <time>2023-08-23T07:54:34Z</time>
      </trkpt>
      <trkpt lat="49.79064" lon="2.4492">
        <ele>64.8</ele>
        <time>2023-08-23T07:54:35Z</time>
      </trkpt>
      <trkpt lat="49.79064" lon="2.4492">
        <ele>64.8</ele>
        <time>2023-08-23T07:54:37Z</time>
      </trkpt>
      <trkpt lat="49.79065" lon="2.44919">
        <ele>64.9</ele>
        <time>2023-08-23T07:54:38Z</time>
      </trkpt>
      <trkpt lat="49.79066" lon="2.44917">
        <ele>64.9</ele>
        <time>2023-08-23T07:54:39Z</time>
      </trkpt>
      <trkpt lat="49.79066" lon="2.44916">
        <ele>65</ele>
        <time>2023-08-23T07:54:40Z</time>
      </trkpt>
      <trkpt lat="49.79067" lon="2.44916">
        <ele>65</ele>
        <time>2023-08-23T07:54:41Z</time>
      </trkpt>
      <trkpt lat="49.79068" lon="2.44915">
        <ele>65.1</ele>
        <time>2023-08-23T07:54:42Z</time>
      </trkpt>
      <trkpt lat="49.79069" lon="2.44913">
        <ele>65.2</ele>
        <time>2023-08-23T07:54:44Z</time>
      </trkpt>
      <trkpt lat="49.7907" lon="2.44912">
        <ele>65.2</ele>
        <time>2023-08-23T07:54:45Z</time>
      </trkpt>
      <trkpt lat="49.7907" lon="2.44911">
        <ele>65.3</ele>
        <time>2023-08-23T07:54:46Z</time>
      </trkpt>
      <trkpt lat="49.79071" lon="2.4491">
        <ele>65.3</ele>
        <time>2023-08-23T07:54:47Z</time>
      </trkpt>
      <trkpt lat="49.79072" lon="2.44909">
        <ele>65.4</ele>
        <time>2023-08-23T07:54:48Z</time>
      </trkpt>
      <trkpt lat="49.79072" lon="2.44907">
        <ele>65.4</ele>
        <time>2023-08-23T07:54:50Z</time>
      </trkpt>
      <trkpt lat="49.79073" lon="2.44906">
        <ele>65.5</ele>
        <time>2023-08-23T07:54:51Z</time>
      </trkpt>
      <trkpt lat="49.79074" lon="2.44905">
        <ele>65.5</ele>
        <time>2023-08-23T07:54:52Z</time>
      </trkpt>
      <trkpt lat="49.79075" lon="2.44902">
        <ele>65.6</ele>
        <time>2023-08-23T07:54:54Z</time>
      </trkpt>
      <trkpt lat="49.79075" lon="2.44901">
        <ele>65.7</ele>
        <time>2023-08-23T07:54:55Z</time>
      </trkpt>
      <trkpt lat="49.79076" lon="2.449">
        <ele>65.8</ele>
        <time>2023-08-23T07:54:56Z</time>
      </trkpt>
      <trkpt lat="49.79077" lon="2.44899">
        <ele>65.8</ele>
        <time>2023-08-23T07:54:57Z</time>
      </trkpt>
      <trkpt lat="49.79078" lon="2.44897">
        <ele>65.9</ele>
        <time>2023-08-23T07:54:59Z</time>
      </trkpt>
      <trkpt lat="49.79079" lon="2.44896">
        <ele>66</ele>
        <time>2023-08-23T07:55:00Z</time>
      </trkpt>
      <trkpt lat="49.79079" lon="2.44894">
        <ele>66</ele>
        <time>2023-08-23T07:55:01Z</time>
      </trkpt>
      <trkpt lat="49.79081" lon="2.44892">
        <ele>66.2</ele>
        <time>2023-08-23T07:55:02Z</time>
      </trkpt>
      <trkpt lat="49.79081" lon="2.44891">
        <ele>66.2</ele>
        <time>2023-08-23T07:55:03Z</time>
      </trkpt>
      <trkpt lat="49.79082" lon="2.4489">
        <ele>66.3</ele>
        <time>2023-08-23T07:55:04Z</time>
      </trkpt>
      <trkpt lat="49.79083" lon="2.44888">
        <ele>66.4</ele>
        <time>2023-08-23T07:55:05Z</time>
      </trkpt>
      <trkpt lat="49.79084" lon="2.44887">
        <ele>66.5</ele>
        <time>2023-08-23T07:55:07Z</time>
      </trkpt>
      <trkpt lat="49.79084" lon="2.44886">
        <ele>66.5</ele>
        <time>2023-08-23T07:55:08Z</time>
      </trkpt>
      <trkpt lat="49.79085" lon="2.44885">
        <ele>66.6</ele>
        <time>2023-08-23T07:55:09Z</time>
      </trkpt>
      <trkpt lat="49.79086" lon="2.44883">
        <ele>66.7</ele>
        <time>2023-08-23T07:55:10Z</time>
      </trkpt>
      <trkpt lat="49.79086" lon="2.44882">
        <ele>66.7</ele>
        <time>2023-08-23T07:55:11Z</time>
      </trkpt>
      <trkpt lat="49.79087" lon="2.44881">
        <ele>66.8</ele>
        <time>2023-08-23T07:55:12Z</time>
      </trkpt>
      <trkpt lat="49.79088" lon="2.4488">
        <ele>66.9</ele>
        <time>2023-08-23T07:55:14Z</time>
      </trkpt>
      <trkpt lat="49.79089" lon="2.44878">
        <ele>67</ele>
        <time>2023-08-23T07:55:15Z</time>
      </trkpt>
      <trkpt lat="49.7909" lon="2.44877">
        <ele>67.1</ele>
        <time>2023-08-23T07:55:16Z</time>
      </trkpt>
      <trkpt lat="49.79091" lon="2.44876">
        <ele>67.2</ele>
        <time>2023-08-23T07:55:17Z</time>
      </trkpt>
      <trkpt lat="49.79092" lon="2.44876">
        <ele>67.3</ele>
        <time>2023-08-23T07:55:18Z</time>
      </trkpt>
      <trkpt lat="49.79093" lon="2.44875">
        <ele>67.3</ele>
        <time>2023-08-23T07:55:19Z</time>
      </trkpt>
      <trkpt lat="49.79094" lon="2.44874">
        <ele>67.4</ele>
        <time>2023-08-23T07:55:20Z</time>
      </trkpt>
      <trkpt lat="49.79095" lon="2.44873">
        <ele>67.5</ele>
        <time>2023-08-23T07:55:22Z</time>
      </trkpt>
      <trkpt lat="49.79095" lon="2.44872">
        <ele>67.5</ele>
        <time>2023-08-23T07:55:23Z</time>
      </trkpt>
      <trkpt lat="49.79096" lon="2.44871">
        <ele>67.6</ele>
        <time>2023-08-23T07:55:24Z</time>
      </trkpt>
      <trkpt lat="49.79097" lon="2.4487">
        <ele>67.7</ele>
        <time>2023-08-23T07:55:25Z</time>
      </trkpt>
      <trkpt lat="49.79098" lon="2.44869">
        <ele>67.8</ele>
        <time>2023-08-23T07:55:27Z</time>
      </trkpt>
      <trkpt lat="49.79099" lon="2.44868">
        <ele>67.8</ele>
        <time>2023-08-23T07:55:28Z</time>
      </trkpt>
      <trkpt lat="49.791" lon="2.44866">
        <ele>67.9</ele>
        <time>2023-08-23T07:55:29Z</time>
      </trkpt>
      <trkpt lat="49.79101" lon="2.44865">
        <ele>68</ele>
        <time>2023-08-23T07:55:30Z</time>
      </trkpt>
      <trkpt lat="49.79102" lon="2.44864">
        <ele>68.1</ele>
        <time>2023-08-23T07:55:31Z</time>
      </trkpt>
      <trkpt lat="49.79102" lon="2.44862">
        <ele>68.2</ele>
        <time>2023-08-23T07:55:32Z</time>
      </trkpt>
      <trkpt lat="49.79103" lon="2.44861">
        <ele>68.3</ele>
        <time>2023-08-23T07:55:33Z</time>
      </trkpt>
      <trkpt lat="49.79105" lon="2.44859">
        <ele>68.4</ele>
        <time>2023-08-23T07:55:34Z</time>
      </trkpt>
      <trkpt lat="49.79105" lon="2.44858">
        <ele>68.5</ele>
        <time>2023-08-23T07:55:36Z</time>
      </trkpt>
      <trkpt lat="49.79106" lon="2.44857">
        <ele>68.6</ele>
        <time>2023-08-23T07:55:37Z</time>
      </trkpt>
      <trkpt lat="49.79107" lon="2.44856">
        <ele>68.7</ele>
        <time>2023-08-23T07:55:38Z</time>
      </trkpt>
      <trkpt lat="49.79108" lon="2.44855">
        <ele>68.7</ele>
        <time>2023-08-23T07:55:39Z</time>
      </trkpt>
      <trkpt lat="49.79108" lon="2.44854">
        <ele>68.8</ele>
        <time>2023-08-23T07:55:40Z</time>
      </trkpt>
      <trkpt lat="49.79109" lon="2.44852">
        <ele>68.9</ele>
        <time>2023-08-23T07:55:41Z</time>
      </trkpt>
      <trkpt lat="49.7911" lon="2.4485">
        <ele>69</ele>
        <time>2023-08-23T07:55:42Z</time>
      </trkpt>
      <trkpt lat="49.79111" lon="2.44848">
        <ele>69.2</ele>
        <time>2023-08-23T07:55:43Z</time>
      </trkpt>
      <trkpt lat="49.79111" lon="2.44847">
        <ele>69.2</ele>
        <time>2023-08-23T07:55:45Z</time>
      </trkpt>
      <trkpt lat="49.79112" lon="2.44846">
        <ele>69.3</ele>
        <time>2023-08-23T07:55:46Z</time>
      </trkpt>
      <trkpt lat="49.79113" lon="2.44844">
        <ele>69.4</ele>
        <time>2023-08-23T07:55:47Z</time>
      </trkpt>
      <trkpt lat="49.79113" lon="2.44843">
        <ele>69.5</ele>
        <time>2023-08-23T07:55:48Z</time>
      </trkpt>
      <trkpt lat="49.79114" lon="2.44842">
        <ele>69.5</ele>
        <time>2023-08-23T07:55:49Z</time>
      </trkpt>
      <trkpt lat="49.79115" lon="2.4484">
        <ele>69.6</ele>
        <time>2023-08-23T07:55:50Z</time>
      </trkpt>
      <trkpt lat="49.79115" lon="2.44839">
        <ele>69.7</ele>
        <time>2023-08-23T07:55:51Z</time>
      </trkpt>
      <trkpt lat="49.79116" lon="2.44837">
        <ele>69.9</ele>
        <time>2023-08-23T07:55:53Z</time>
      </trkpt>
      <trkpt lat="49.79117" lon="2.44835">
        <ele>70</ele>
        <time>2023-08-23T07:55:54Z</time>
      </trkpt>
      <trkpt lat="49.79118" lon="2.44834">
        <ele>70.1</ele>
        <time>2023-08-23T07:55:55Z</time>
      </trkpt>
      <trkpt lat="49.79118" lon="2.44832">
        <ele>70.1</ele>
        <time>2023-08-23T07:55:56Z</time>
      </trkpt>
      <trkpt lat="49.79118" lon="2.44832">
        <ele>70.2</ele>
        <time>2023-08-23T07:55:57Z</time>
      </trkpt>
      <trkpt lat="49.79119" lon="2.4483">
        <ele>70.3</ele>
        <time>2023-08-23T07:55:58Z</time>
      </trkpt>
      <trkpt lat="49.79119" lon="2.44829">
        <ele>70.4</ele>
        <time>2023-08-23T07:55:59Z</time>
      </trkpt>
      <trkpt lat="49.7912" lon="2.44827">
        <ele>70.4</ele>
        <time>2023-08-23T07:56:00Z</time>
      </trkpt>
      <trkpt lat="49.7912" lon="2.44826">
        <ele>70.5</ele>
        <time>2023-08-23T07:56:02Z</time>
      </trkpt>
      <trkpt lat="49.79121" lon="2.44825">
        <ele>70.6</ele>
        <time>2023-08-23T07:56:03Z</time>
      </trkpt>
      <trkpt lat="49.79121" lon="2.44824">
        <ele>70.6</ele>
        <time>2023-08-23T07:56:04Z</time>
      </trkpt>
      <trkpt lat="49.79121" lon="2.44823">
        <ele>70.7</ele>
        <time>2023-08-23T07:56:05Z</time>
      </trkpt>
      <trkpt lat="49.79122" lon="2.44822">
        <ele>70.8</ele>
        <time>2023-08-23T07:56:06Z</time>
      </trkpt>
      <trkpt lat="49.79123" lon="2.44821">
        <ele>70.9</ele>
        <time>2023-08-23T07:56:07Z</time>
      </trkpt>
      <trkpt lat="49.79123" lon="2.4482">
        <ele>71</ele>
        <time>2023-08-23T07:56:08Z</time>
      </trkpt>
      <trkpt lat="49.79124" lon="2.44819">
        <ele>71</ele>
        <time>2023-08-23T07:56:10Z</time>
      </trkpt>
      <trkpt lat="49.79125" lon="2.44817">
        <ele>71.1</ele>
        <time>2023-08-23T07:56:11Z</time>
      </trkpt>
      <trkpt lat="49.79126" lon="2.44816">
        <ele>71.2</ele>
        <time>2023-08-23T07:56:12Z</time>
      </trkpt>
      <trkpt lat="49.79126" lon="2.44815">
        <ele>71.3</ele>
        <time>2023-08-23T07:56:13Z</time>
      </trkpt>
      <trkpt lat="49.79127" lon="2.44814">
        <ele>71.3</ele>
        <time>2023-08-23T07:56:14Z</time>
      </trkpt>
      <trkpt lat="49.79127" lon="2.44813">
        <ele>71.4</ele>
        <time>2023-08-23T07:56:15Z</time>
      </trkpt>
      <trkpt lat="49.79128" lon="2.44812">
        <ele>71.5</ele>
        <time>2023-08-23T07:56:16Z</time>
      </trkpt>
      <trkpt lat="49.79129" lon="2.44811">
        <ele>71.6</ele>
        <time>2023-08-23T07:56:18Z</time>
      </trkpt>
      <trkpt lat="49.7913" lon="2.44809">
        <ele>71.7</ele>
        <time>2023-08-23T07:56:19Z</time>
      </trkpt>
      <trkpt lat="49.7913" lon="2.44808">
        <ele>71.8</ele>
        <time>2023-08-23T07:56:20Z</time>
      </trkpt>
      <trkpt lat="49.79131" lon="2.44807">
        <ele>71.9</ele>
        <time>2023-08-23T07:56:21Z</time>
      </trkpt>
      <trkpt lat="49.79132" lon="2.44805">
        <ele>72</ele>
        <time>2023-08-23T07:56:23Z</time>
      </trkpt>
      <trkpt lat="49.79133" lon="2.44803">
        <ele>72.2</ele>
        <time>2023-08-23T07:56:24Z</time>
      </trkpt>
      <trkpt lat="49.79134" lon="2.44801">
        <ele>72.3</ele>
        <time>2023-08-23T07:56:25Z</time>
      </trkpt>
      <trkpt lat="49.79135" lon="2.448">
        <ele>72.5</ele>
        <time>2023-08-23T07:56:26Z</time>
      </trkpt>
      <trkpt lat="49.79136" lon="2.44799">
        <ele>72.5</ele>
        <time>2023-08-23T07:56:27Z</time>
      </trkpt>
      <trkpt lat="49.79136" lon="2.44797">
        <ele>72.6</ele>
        <time>2023-08-23T07:56:28Z</time>
      </trkpt>
      <trkpt lat="49.79138" lon="2.44795">
        <ele>72.8</ele>
        <time>2023-08-23T07:56:30Z</time>
      </trkpt>
      <trkpt lat="49.79138" lon="2.44794">
        <ele>72.9</ele>
        <time>2023-08-23T07:56:31Z</time>
      </trkpt>
      <trkpt lat="49.79139" lon="2.44793">
        <ele>73</ele>
        <time>2023-08-23T07:56:32Z</time>
      </trkpt>
      <trkpt lat="49.79139" lon="2.44791">
        <ele>73.1</ele>
        <time>2023-08-23T07:56:33Z</time>
      </trkpt>
      <trkpt lat="49.7914" lon="2.4479">
        <ele>73.2</ele>
        <time>2023-08-23T07:56:34Z</time>
      </trkpt>
      <trkpt lat="49.7914" lon="2.44789">
        <ele>73.2</ele>
        <time>2023-08-23T07:56:35Z</time>
      </trkpt>
      <trkpt lat="49.7914" lon="2.44789">
        <ele>73.3</ele>
        <time>2023-08-23T07:56:36Z</time>
      </trkpt>
      <trkpt lat="49.79141" lon="2.44786">
        <ele>73.4</ele>
        <time>2023-08-23T07:56:38Z</time>
      </trkpt>
      <trkpt lat="49.79142" lon="2.44785">
        <ele>73.5</ele>
        <time>2023-08-23T07:56:39Z</time>
      </trkpt>
      <trkpt lat="49.79142" lon="2.44783">
        <ele>73.6</ele>
        <time>2023-08-23T07:56:40Z</time>
      </trkpt>
      <trkpt lat="49.79144" lon="2.44781">
        <ele>73.8</ele>
        <time>2023-08-23T07:56:41Z</time>
      </trkpt>
      <trkpt lat="49.79144" lon="2.4478">
        <ele>73.9</ele>
        <time>2023-08-23T07:56:42Z</time>
      </trkpt>
      <trkpt lat="49.79145" lon="2.44779">
        <ele>74</ele>
        <time>2023-08-23T07:56:43Z</time>
      </trkpt>
      <trkpt lat="49.79145" lon="2.44778">
        <ele>74.1</ele>
        <time>2023-08-23T07:56:45Z</time>
      </trkpt>
      <trkpt lat="49.79146" lon="2.44777">
        <ele>74.2</ele>
        <time>2023-08-23T07:56:46Z</time>
      </trkpt>
      <trkpt lat="49.79146" lon="2.44775">
        <ele>74.2</ele>
        <time>2023-08-23T07:56:47Z</time>
      </trkpt>
      <trkpt lat="49.79147" lon="2.44774">
        <ele>74.3</ele>
        <time>2023-08-23T07:56:48Z</time>
      </trkpt>
      <trkpt lat="49.79147" lon="2.44773">
        <ele>74.4</ele>
        <time>2023-08-23T07:56:49Z</time>
      </trkpt>
      <trkpt lat="49.79148" lon="2.44772">
        <ele>74.5</ele>
        <time>2023-08-23T07:56:50Z</time>
      </trkpt>
      <trkpt lat="49.79148" lon="2.44771">
        <ele>74.6</ele>
        <time>2023-08-23T07:56:51Z</time>
      </trkpt>
      <trkpt lat="49.79149" lon="2.44768">
        <ele>74.7</ele>
        <time>2023-08-23T07:56:53Z</time>
      </trkpt>
      <trkpt lat="49.79149" lon="2.44766">
        <ele>74.9</ele>
        <time>2023-08-23T07:56:54Z</time>
      </trkpt>
      <trkpt lat="49.7915" lon="2.44765">
        <ele>74.9</ele>
        <time>2023-08-23T07:56:55Z</time>
      </trkpt>
      <trkpt lat="49.7915" lon="2.44764">
        <ele>75</ele>
        <time>2023-08-23T07:56:56Z</time>
      </trkpt>
      <trkpt lat="49.7915" lon="2.44762">
        <ele>75.2</ele>
        <time>2023-08-23T07:56:58Z</time>
      </trkpt>
      <trkpt lat="49.7915" lon="2.4476">
        <ele>75.3</ele>
        <time>2023-08-23T07:56:59Z</time>
      </trkpt>
      <trkpt lat="49.79151" lon="2.44758">
        <ele>75.4</ele>
        <time>2023-08-23T07:57:00Z</time>
      </trkpt>
      <trkpt lat="49.79151" lon="2.44757">
        <ele>75.5</ele>
        <time>2023-08-23T07:57:01Z</time>
      </trkpt>
      <trkpt lat="49.79151" lon="2.44756">
        <ele>75.5</ele>
        <time>2023-08-23T07:57:02Z</time>
      </trkpt>
      <trkpt lat="49.79151" lon="2.44754">
        <ele>75.6</ele>
        <time>2023-08-23T07:57:03Z</time>
      </trkpt>
      <trkpt lat="49.79151" lon="2.44753">
        <ele>75.7</ele>
        <time>2023-08-23T07:57:04Z</time>
      </trkpt>
      <trkpt lat="49.79152" lon="2.44751">
        <ele>75.8</ele>
        <time>2023-08-23T07:57:06Z</time>
      </trkpt>
      <trkpt lat="49.79152" lon="2.44749">
        <ele>75.9</ele>
        <time>2023-08-23T07:57:07Z</time>
      </trkpt>
      <trkpt lat="49.79152" lon="2.44748">
        <ele>76</ele>
        <time>2023-08-23T07:57:08Z</time>
      </trkpt>
      <trkpt lat="49.79152" lon="2.44748">
        <ele>76</ele>
        <time>2023-08-23T07:57:09Z</time>
      </trkpt>
      <trkpt lat="49.79153" lon="2.44747">
        <ele>76.1</ele>
        <time>2023-08-23T07:57:10Z</time>
      </trkpt>
      <trkpt lat="49.79153" lon="2.44745">
        <ele>76.2</ele>
        <time>2023-08-23T07:57:11Z</time>
      </trkpt>
      <trkpt lat="49.79153" lon="2.44744">
        <ele>76.3</ele>
        <time>2023-08-23T07:57:13Z</time>
      </trkpt>
      <trkpt lat="49.79154" lon="2.44742">
        <ele>76.4</ele>
        <time>2023-08-23T07:57:14Z</time>
      </trkpt>
      <trkpt lat="49.79154" lon="2.4474">
        <ele>76.6</ele>
        <time>2023-08-23T07:57:15Z</time>
      </trkpt>
      <trkpt lat="49.79154" lon="2.44739">
        <ele>76.6</ele>
        <time>2023-08-23T07:57:16Z</time>
      </trkpt>
      <trkpt lat="49.79154" lon="2.44738">
        <ele>76.6</ele>
        <time>2023-08-23T07:57:17Z</time>
      </trkpt>
      <trkpt lat="49.79155" lon="2.44738">
        <ele>76.7</ele>
        <time>2023-08-23T07:57:18Z</time>
      </trkpt>
      <trkpt lat="49.79155" lon="2.44737">
        <ele>76.7</ele>
        <time>2023-08-23T07:57:19Z</time>
      </trkpt>
      <trkpt lat="49.79155" lon="2.44737">
        <ele>76.7</ele>
        <time>2023-08-23T07:57:21Z</time>
      </trkpt>
      <trkpt lat="49.79155" lon="2.44736">
        <ele>76.8</ele>
        <time>2023-08-23T07:57:22Z</time>
      </trkpt>
      <trkpt lat="49.79155" lon="2.44733">
        <ele>77</ele>
        <time>2023-08-23T07:57:24Z</time>
      </trkpt>
      <trkpt lat="49.79155" lon="2.44732">
        <ele>77</ele>
        <time>2023-08-23T07:57:26Z</time>
      </trkpt>
      <trkpt lat="49.79155" lon="2.44732">
        <ele>77.1</ele>
        <time>2023-08-23T07:57:27Z</time>
      </trkpt>
      <trkpt lat="49.79156" lon="2.44731">
        <ele>77.1</ele>
        <time>2023-08-23T07:57:28Z</time>
      </trkpt>
      <trkpt lat="49.79156" lon="2.4473">
        <ele>77.2</ele>
        <time>2023-08-23T07:57:29Z</time>
      </trkpt>
      <trkpt lat="49.79157" lon="2.44729">
        <ele>77.3</ele>
        <time>2023-08-23T07:57:31Z</time>
      </trkpt>
      <trkpt lat="49.79157" lon="2.44729">
        <ele>77.3</ele>
        <time>2023-08-23T07:57:32Z</time>
      </trkpt>
      <trkpt lat="49.79157" lon="2.44729">
        <ele>77.3</ele>
        <time>2023-08-23T07:57:33Z</time>
      </trkpt>
      <trkpt lat="49.79157" lon="2.44729">
        <ele>77.3</ele>
        <time>2023-08-23T07:57:34Z</time>
      </trkpt>
      <trkpt lat="49.79157" lon="2.44729">
        <ele>77.3</ele>
        <time>2023-08-23T07:57:36Z</time>
      </trkpt>
      <trkpt lat="49.79157" lon="2.44729">
        <ele>77.3</ele>
        <time>2023-08-23T07:57:37Z</time>
      </trkpt>
      <trkpt lat="49.79157" lon="2.44729">
        <ele>77.3</ele>
        <time>2023-08-23T07:57:39Z</time>
      </trkpt>
      <trkpt lat="49.79157" lon="2.44729">
        <ele>77.3</ele>
        <time>2023-08-23T07:57:40Z</time>
      </trkpt>
      <trkpt lat="49.79157" lon="2.44729">
        <ele>77.3</ele>
        <time>2023-08-23T07:57:42Z</time>
      </trkpt>
      <trkpt lat="49.79157" lon="2.44729">
        <ele>77.3</ele>
        <time>2023-08-23T07:57:43Z</time>
      </trkpt>
      <trkpt lat="49.79157" lon="2.44729">
        <ele>77.3</ele>
        <time>2023-08-23T07:57:44Z</time>
      </trkpt>
      <trkpt lat="49.79157" lon="2.44729">
        <ele>77.3</ele>
        <time>2023-08-23T07:57:46Z</time>
      </trkpt>
      <trkpt lat="49.79157" lon="2.44729">
        <ele>77.3</ele>
        <time>2023-08-23T07:57:47Z</time>
      </trkpt>
      <trkpt lat="49.79157" lon="2.44729">
        <ele>77.3</ele>
        <time>2023-08-23T07:57:49Z</time>
      </trkpt>
      <trkpt lat="49.79157" lon="2.44729">
        <ele>77.3</ele>
        <time>2023-08-23T07:57:50Z</time>
      </trkpt>
      <trkpt lat="49.79157" lon="2.44729">
        <ele>77.3</ele>
        <time>2023-08-23T07:57:52Z</time>
      </trkpt>
      <trkpt lat="49.79157" lon="2.44728">
        <ele>77.3</ele>
        <time>2023-08-23T07:57:53Z</time>
      </trkpt>
      <trkpt lat="49.79157" lon="2.44728">
        <ele>77.3</ele>
        <time>2023-08-23T07:57:54Z</time>
      </trkpt>
      <trkpt lat="49.79157" lon="2.44728">
        <ele>77.3</ele>
        <time>2023-08-23T07:57:55Z</time>
      </trkpt>
      <trkpt lat="49.79157" lon="2.44728">
        <ele>77.3</ele>
        <time>2023-08-23T07:57:56Z</time>
      </trkpt>
      <trkpt lat="49.79157" lon="2.44728">
        <ele>77.3</ele>
        <time>2023-08-23T07:57:57Z</time>
      </trkpt>
      <trkpt lat="49.79157" lon="2.44728">
        <ele>77.3</ele>
        <time>2023-08-23T07:57:58Z</time>
      </trkpt>
      <trkpt lat="49.79157" lon="2.44728">
        <ele>77.3</ele>
        <time>2023-08-23T07:57:59Z</time>
      </trkpt>
      <trkpt lat="49.79157" lon="2.44728">
        <ele>77.3</ele>
        <time>2023-08-23T07:58:00Z</time>
      </trkpt>
      <trkpt lat="49.79157" lon="2.44728">
        <ele>77.3</ele>
        <time>2023-08-23T07:58:01Z</time>
      </trkpt>
      <trkpt lat="49.79157" lon="2.44728">
        <ele>77.4</ele>
        <time>2023-08-23T07:58:02Z</time>
      </trkpt>
      <trkpt lat="49.79157" lon="2.44728">
        <ele>77.4</ele>
        <time>2023-08-23T07:58:03Z</time>
      </trkpt>
      <trkpt lat="49.79157" lon="2.44728">
        <ele>77.4</ele>
        <time>2023-08-23T07:58:04Z</time>
      </trkpt>
      <trkpt lat="49.79157" lon="2.44728">
        <ele>77.4</ele>
        <time>2023-08-23T07:58:05Z</time>
      </trkpt>
      <trkpt lat="49.79157" lon="2.44728">
        <ele>77.4</ele>
        <time>2023-08-23T07:58:06Z</time>
      </trkpt>
      <trkpt lat="49.79157" lon="2.44728">
        <ele>77.4</ele>
        <time>2023-08-23T07:58:07Z</time>
      </trkpt>
      <trkpt lat="49.79157" lon="2.44728">
        <ele>77.4</ele>
        <time>2023-08-23T07:58:08Z</time>
      </trkpt>
      <trkpt lat="49.79157" lon="2.44728">
        <ele>77.4</ele>
        <time>2023-08-23T07:58:09Z</time>
      </trkpt>
      <trkpt lat="49.79157" lon="2.44728">
        <ele>77.4</ele>
        <time>2023-08-23T07:58:10Z</time>
      </trkpt>
      <trkpt lat="49.79157" lon="2.44728">
        <ele>77.4</ele>
        <time>2023-08-23T07:58:11Z</time>
      </trkpt>
      <trkpt lat="49.79157" lon="2.44728">
        <ele>77.4</ele>
        <time>2023-08-23T07:58:12Z</time>
      </trkpt>
      <trkpt lat="49.79157" lon="2.44728">
        <ele>77.4</ele>
        <time>2023-08-23T07:58:13Z</time>
      </trkpt>
      <trkpt lat="49.79157" lon="2.44727">
        <ele>77.4</ele>
        <time>2023-08-23T07:58:14Z</time>
      </trkpt>
      <trkpt lat="49.79157" lon="2.44727">
        <ele>77.4</ele>
        <time>2023-08-23T07:58:15Z</time>
      </trkpt>
      <trkpt lat="49.79157" lon="2.44727">
        <ele>77.4</ele>
        <time>2023-08-23T07:58:16Z</time>
      </trkpt>
      <trkpt lat="49.79157" lon="2.44727">
        <ele>77.4</ele>
        <time>2023-08-23T07:58:17Z</time>
      </trkpt>
      <trkpt lat="49.79157" lon="2.44727">
        <ele>77.4</ele>
        <time>2023-08-23T07:58:18Z</time>
      </trkpt>
      <trkpt lat="49.79157" lon="2.44727">
        <ele>77.4</ele>
        <time>2023-08-23T07:58:19Z</time>
      </trkpt>
      <trkpt lat="49.79157" lon="2.44727">
        <ele>77.4</ele>
        <time>2023-08-23T07:58:20Z</time>
      </trkpt>
      <trkpt lat="49.79157" lon="2.44727">
        <ele>77.4</ele>
        <time>2023-08-23T07:58:21Z</time>
      </trkpt>
      <trkpt lat="49.79157" lon="2.44727">
        <ele>77.4</ele>
        <time>2023-08-23T07:58:22Z</time>
      </trkpt>
      <trkpt lat="49.79157" lon="2.44727">
        <ele>77.4</ele>
        <time>2023-08-23T07:58:23Z</time>
      </trkpt>
      <trkpt lat="49.79157" lon="2.44727">
        <ele>77.4</ele>
        <time>2023-08-23T07:58:24Z</time>
      </trkpt>
      <trkpt lat="49.79157" lon="2.44727">
        <ele>77.5</ele>
        <time>2023-08-23T07:58:26Z</time>
      </trkpt>
      <trkpt lat="49.79157" lon="2.44727">
        <ele>77.5</ele>
        <time>2023-08-23T07:58:27Z</time>
      </trkpt>
      <trkpt lat="49.79157" lon="2.44727">
        <ele>77.5</ele>
        <time>2023-08-23T07:58:28Z</time>
      </trkpt>
      <trkpt lat="49.79157" lon="2.44727">
        <ele>77.5</ele>
        <time>2023-08-23T07:58:29Z</time>
      </trkpt>
      <trkpt lat="49.79157" lon="2.44727">
        <ele>77.5</ele>
        <time>2023-08-23T07:58:30Z</time>
      </trkpt>
      <trkpt lat="49.79158" lon="2.44727">
        <ele>77.5</ele>
        <time>2023-08-23T07:58:32Z</time>
      </trkpt>
      <trkpt lat="49.79158" lon="2.44727">
        <ele>77.5</ele>
        <time>2023-08-23T07:58:33Z</time>
      </trkpt>
      <trkpt lat="49.79158" lon="2.44727">
        <ele>77.5</ele>
        <time>2023-08-23T07:58:34Z</time>
      </trkpt>
      <trkpt lat="49.79158" lon="2.44727">
        <ele>77.5</ele>
        <time>2023-08-23T07:58:35Z</time>
      </trkpt>
      <trkpt lat="49.79158" lon="2.44727">
        <ele>77.5</ele>
        <time>2023-08-23T07:58:36Z</time>
      </trkpt>
      <trkpt lat="49.79158" lon="2.44726">
        <ele>77.5</ele>
        <time>2023-08-23T07:58:37Z</time>
      </trkpt>
      <trkpt lat="49.79158" lon="2.44726">
        <ele>77.5</ele>
        <time>2023-08-23T07:58:38Z</time>
      </trkpt>
      <trkpt lat="49.79158" lon="2.44726">
        <ele>77.5</ele>
        <time>2023-08-23T07:58:39Z</time>
      </trkpt>
      <trkpt lat="49.79158" lon="2.44726">
        <ele>77.5</ele>
        <time>2023-08-23T07:58:40Z</time>
      </trkpt>
      <trkpt lat="49.79158" lon="2.44726">
        <ele>77.5</ele>
        <time>2023-08-23T07:58:41Z</time>
      </trkpt>
      <trkpt lat="49.79158" lon="2.44726">
        <ele>77.5</ele>
        <time>2023-08-23T07:58:42Z</time>
      </trkpt>
      <trkpt lat="49.79158" lon="2.44726">
        <ele>77.5</ele>
        <time>2023-08-23T07:58:43Z</time>
      </trkpt>
      <trkpt lat="49.79158" lon="2.44726">
        <ele>77.5</ele>
        <time>2023-08-23T07:58:44Z</time>
      </trkpt>
      <trkpt lat="49.79158" lon="2.44726">
        <ele>77.5</ele>
        <time>2023-08-23T07:58:45Z</time>
      </trkpt>
      <trkpt lat="49.79158" lon="2.44726">
        <ele>77.5</ele>
        <time>2023-08-23T07:58:46Z</time>
      </trkpt>
      <trkpt lat="49.79158" lon="2.44726">
        <ele>77.5</ele>
        <time>2023-08-23T07:58:47Z</time>
      </trkpt>
      <trkpt lat="49.79158" lon="2.44726">
        <ele>77.5</ele>
        <time>2023-08-23T07:58:48Z</time>
      </trkpt>
      <trkpt lat="49.79158" lon="2.44726">
        <ele>77.5</ele>
        <time>2023-08-23T07:58:49Z</time>
      </trkpt>
      <trkpt lat="49.79158" lon="2.44726">
        <ele>77.5</ele>
        <time>2023-08-23T07:58:50Z</time>
      </trkpt>
      <trkpt lat="49.79158" lon="2.44726">
        <ele>77.5</ele>
        <time>2023-08-23T07:58:51Z</time>
      </trkpt>
      <trkpt lat="49.79158" lon="2.44726">
        <ele>77.6</ele>
        <time>2023-08-23T07:58:52Z</time>
      </trkpt>
      <trkpt lat="49.79158" lon="2.44726">
        <ele>77.6</ele>
        <time>2023-08-23T07:58:53Z</time>
      </trkpt>
      <trkpt lat="49.79158" lon="2.44726">
        <ele>77.6</ele>
        <time>2023-08-23T07:58:54Z</time>
      </trkpt>
      <trkpt lat="49.79158" lon="2.44726">
        <ele>77.6</ele>
        <time>2023-08-23T07:58:55Z</time>
      </trkpt>
      <trkpt lat="49.79158" lon="2.44726">
        <ele>77.6</ele>
        <time>2023-08-23T07:58:56Z</time>
      </trkpt>
      <trkpt lat="49.79158" lon="2.44726">
        <ele>77.6</ele>
        <time>2023-08-23T07:58:57Z</time>
      </trkpt>
      <trkpt lat="49.79158" lon="2.44725">
        <ele>77.6</ele>
        <time>2023-08-23T07:58:58Z</time>
      </trkpt>
      <trkpt lat="49.79158" lon="2.44725">
        <ele>77.6</ele>
        <time>2023-08-23T07:58:59Z</time>
      </trkpt>
      <trkpt lat="49.79158" lon="2.44725">
        <ele>77.6</ele>
        <time>2023-08-23T07:59:00Z</time>
      </trkpt>
      <trkpt lat="49.79158" lon="2.44725">
        <ele>77.6</ele>
        <time>2023-08-23T07:59:01Z</time>
      </trkpt>
      <trkpt lat="49.79158" lon="2.44725">
        <ele>77.6</ele>
        <time>2023-08-23T07:59:03Z</time>
      </trkpt>
      <trkpt lat="49.79158" lon="2.44725">
        <ele>77.6</ele>
        <time>2023-08-23T07:59:04Z</time>
      </trkpt>
      <trkpt lat="49.79158" lon="2.44725">
        <ele>77.6</ele>
        <time>2023-08-23T07:59:05Z</time>
      </trkpt>
      <trkpt lat="49.79158" lon="2.44725">
        <ele>77.6</ele>
        <time>2023-08-23T07:59:06Z</time>
      </trkpt>
      <trkpt lat="49.79158" lon="2.44725">
        <ele>77.6</ele>
        <time>2023-08-23T07:59:07Z</time>
      </trkpt>
      <trkpt lat="49.79158" lon="2.44725">
        <ele>77.6</ele>
        <time>2023-08-23T07:59:08Z</time>
      </trkpt>
      <trkpt lat="49.79158" lon="2.44725">
        <ele>77.6</ele>
        <time>2023-08-23T07:59:09Z</time>
      </trkpt>
      <trkpt lat="49.79158" lon="2.44725">
        <ele>77.6</ele>
        <time>2023-08-23T07:59:10Z</time>
      </trkpt>
      <trkpt lat="49.79158" lon="2.44725">
        <ele>77.6</ele>
        <time>2023-08-23T07:59:11Z</time>
      </trkpt>
      <trkpt lat="49.79158" lon="2.44725">
        <ele>77.6</ele>
        <time>2023-08-23T07:59:12Z</time>
      </trkpt>
      <trkpt lat="49.79158" lon="2.44725">
        <ele>77.6</ele>
        <time>2023-08-23T07:59:13Z</time>
      </trkpt>
      <trkpt lat="49.79158" lon="2.44725">
        <ele>77.6</ele>
        <time>2023-08-23T07:59:14Z</time>
      </trkpt>
      <trkpt lat="49.79158" lon="2.44725">
        <ele>77.6</ele>
        <time>2023-08-23T07:59:15Z</time>
      </trkpt>
      <trkpt lat="49.79158" lon="2.44725">
        <ele>77.7</ele>
        <time>2023-08-23T07:59:16Z</time>
      </trkpt>
      <trkpt lat="49.79158" lon="2.44725">
        <ele>77.7</ele>
        <time>2023-08-23T07:59:17Z</time>
      </trkpt>
      <trkpt lat="49.79158" lon="2.44725">
        <ele>77.7</ele>
        <time>2023-08-23T07:59:18Z</time>
      </trkpt>
      <trkpt lat="49.79158" lon="2.44725">
        <ele>77.7</ele>
        <time>2023-08-23T07:59:19Z</time>
      </trkpt>
      <trkpt lat="49.79158" lon="2.44724">
        <ele>77.7</ele>
        <time>2023-08-23T07:59:20Z</time>
      </trkpt>
      <trkpt lat="49.79158" lon="2.44724">
        <ele>77.7</ele>
        <time>2023-08-23T07:59:21Z</time>
      </trkpt>
      <trkpt lat="49.79158" lon="2.44724">
        <ele>77.7</ele>
        <time>2023-08-23T07:59:22Z</time>
      </trkpt>
      <trkpt lat="49.79158" lon="2.44724">
        <ele>77.7</ele>
        <time>2023-08-23T07:59:23Z</time>
      </trkpt>
      <trkpt lat="49.79158" lon="2.44724">
        <ele>77.7</ele>
        <time>2023-08-23T07:59:24Z</time>
      </trkpt>
      <trkpt lat="49.79158" lon="2.44724">
        <ele>77.7</ele>
        <time>2023-08-23T07:59:25Z</time>
      </trkpt>
      <trkpt lat="49.79158" lon="2.44724">
        <ele>77.7</ele>
        <time>2023-08-23T07:59:26Z</time>
      </trkpt>
      <trkpt lat="49.79159" lon="2.44724">
        <ele>77.7</ele>
        <time>2023-08-23T07:59:27Z</time>
      </trkpt>
      <trkpt lat="49.79159" lon="2.44724">
        <ele>77.7</ele>
        <time>2023-08-23T07:59:28Z</time>
      </trkpt>
      <trkpt lat="49.79159" lon="2.44724">
        <ele>77.7</ele>
        <time>2023-08-23T07:59:29Z</time>
      </trkpt>
      <trkpt lat="49.79159" lon="2.44724">
        <ele>77.7</ele>
        <time>2023-08-23T07:59:30Z</time>
      </trkpt>
      <trkpt lat="49.79159" lon="2.44724">
        <ele>77.7</ele>
        <time>2023-08-23T07:59:31Z</time>
      </trkpt>
      <trkpt lat="49.79159" lon="2.44724">
        <ele>77.7</ele>
        <time>2023-08-23T07:59:32Z</time>
      </trkpt>
      <trkpt lat="49.79159" lon="2.44724">
        <ele>77.7</ele>
        <time>2023-08-23T07:59:33Z</time>
      </trkpt>
      <trkpt lat="49.79159" lon="2.44724">
        <ele>77.7</ele>
        <time>2023-08-23T07:59:34Z</time>
      </trkpt>
      <trkpt lat="49.79159" lon="2.44724">
        <ele>77.7</ele>
        <time>2023-08-23T07:59:35Z</time>
      </trkpt>
      <trkpt lat="49.79159" lon="2.44724">
        <ele>77.7</ele>
        <time>2023-08-23T07:59:36Z</time>
      </trkpt>
      <trkpt lat="49.79159" lon="2.44724">
        <ele>77.7</ele>
        <time>2023-08-23T07:59:37Z</time>
      </trkpt>
      <trkpt lat="49.79159" lon="2.44724">
        <ele>77.7</ele>
        <time>2023-08-23T07:59:39Z</time>
      </trkpt>
      <trkpt lat="49.79159" lon="2.44724">
        <ele>77.8</ele>
        <time>2023-08-23T07:59:40Z</time>
      </trkpt>
      <trkpt lat="49.79159" lon="2.44724">
        <ele>77.8</ele>
        <time>2023-08-23T07:59:41Z</time>
      </trkpt>
      <trkpt lat="49.79159" lon="2.44723">
        <ele>77.8</ele>
        <time>2023-08-23T07:59:42Z</time>
      </trkpt>
      <trkpt lat="49.79159" lon="2.44723">
        <ele>77.8</ele>
        <time>2023-08-23T07:59:43Z</time>
      </trkpt>
      <trkpt lat="49.79159" lon="2.44723">
        <ele>77.8</ele>
        <time>2023-08-23T07:59:44Z</time>
      </trkpt>
      <trkpt lat="49.79159" lon="2.44723">
        <ele>77.8</ele>
        <time>2023-08-23T07:59:45Z</time>
      </trkpt>
      <trkpt lat="49.79159" lon="2.44723">
        <ele>77.8</ele>
        <time>2023-08-23T07:59:46Z</time>
      </trkpt>
      <trkpt lat="49.79159" lon="2.44723">
        <ele>77.8</ele>
        <time>2023-08-23T07:59:47Z</time>
      </trkpt>
      <trkpt lat="49.79159" lon="2.44723">
        <ele>77.8</ele>
        <time>2023-08-23T07:59:48Z</time>
      </trkpt>
      <trkpt lat="49.79159" lon="2.44723">
        <ele>77.8</ele>
        <time>2023-08-23T07:59:49Z</time>
      </trkpt>
      <trkpt lat="49.79159" lon="2.44723">
        <ele>77.8</ele>
        <time>2023-08-23T07:59:50Z</time>
      </trkpt>
      <trkpt lat="49.79159" lon="2.44723">
        <ele>77.8</ele>
        <time>2023-08-23T07:59:51Z</time>
      </trkpt>
      <trkpt lat="49.79159" lon="2.44723">
        <ele>77.8</ele>
        <time>2023-08-23T07:59:52Z</time>
      </trkpt>
      <trkpt lat="49.79159" lon="2.44723">
        <ele>77.8</ele>
        <time>2023-08-23T07:59:53Z</time>
      </trkpt>
      <trkpt lat="49.79159" lon="2.44723">
        <ele>77.8</ele>
        <time>2023-08-23T07:59:54Z</time>
      </trkpt>
      <trkpt lat="49.79159" lon="2.44723">
        <ele>77.8</ele>
        <time>2023-08-23T07:59:55Z</time>
      </trkpt>
      <trkpt lat="49.79159" lon="2.44723">
        <ele>77.8</ele>
        <time>2023-08-23T07:59:56Z</time>
      </trkpt>
      <trkpt lat="49.79159" lon="2.44723">
        <ele>77.8</ele>
        <time>2023-08-23T07:59:57Z</time>
      </trkpt>
      <trkpt lat="49.79159" lon="2.44723">
        <ele>77.8</ele>
        <time>2023-08-23T07:59:58Z</time>
      </trkpt>
      <trkpt lat="49.79159" lon="2.44723">
        <ele>77.8</ele>
        <time>2023-08-23T07:59:59Z</time>
      </trkpt>
      <trkpt lat="49.79159" lon="2.44723">
        <ele>77.8</ele>
        <time>2023-08-23T08:00:01Z</time>
      </trkpt>
      <trkpt lat="49.79159" lon="2.44723">
        <ele>77.8</ele>
        <time>2023-08-23T08:00:02Z</time>
      </trkpt>
      <trkpt lat="49.79159" lon="2.44722">
        <ele>77.9</ele>
        <time>2023-08-23T08:00:03Z</time>
      </trkpt>
      <trkpt lat="49.79159" lon="2.44722">
        <ele>77.9</ele>
        <time>2023-08-23T08:00:04Z</time>
      </trkpt>
      <trkpt lat="49.79159" lon="2.44722">
        <ele>77.9</ele>
        <time>2023-08-23T08:00:05Z</time>
      </trkpt>
      <trkpt lat="49.79159" lon="2.44722">
        <ele>77.9</ele>
        <time>2023-08-23T08:00:07Z</time>
      </trkpt>
      <trkpt lat="49.79159" lon="2.44722">
        <ele>77.9</ele>
        <time>2023-08-23T08:00:08Z</time>
      </trkpt>
      <trkpt lat="49.79159" lon="2.44722">
        <ele>77.9</ele>
        <time>2023-08-23T08:00:09Z</time>
      </trkpt>
      <trkpt lat="49.79159" lon="2.44722">
        <ele>77.9</ele>
        <time>2023-08-23T08:00:10Z</time>
      </trkpt>
      <trkpt lat="49.79159" lon="2.44722">
        <ele>77.9</ele>
        <time>2023-08-23T08:00:11Z</time>
      </trkpt>
      <trkpt lat="49.79159" lon="2.44722">
        <ele>77.9</ele>
        <time>2023-08-23T08:00:13Z</time>
      </trkpt>
      <trkpt lat="49.79159" lon="2.44722">
        <ele>77.9</ele>
        <time>2023-08-23T08:00:14Z</time>
      </trkpt>
      <trkpt lat="49.79159" lon="2.44722">
        <ele>77.9</ele>
        <time>2023-08-23T08:00:15Z</time>
      </trkpt>
      <trkpt lat="49.79159" lon="2.44722">
        <ele>77.9</ele>
        <time>2023-08-23T08:00:16Z</time>
      </trkpt>
      <trkpt lat="49.79159" lon="2.44722">
        <ele>77.9</ele>
        <time>2023-08-23T08:00:17Z</time>
      </trkpt>
      <trkpt lat="49.79159" lon="2.44722">
        <ele>77.9</ele>
        <time>2023-08-23T08:00:19Z</time>
      </trkpt>
      <trkpt lat="49.79159" lon="2.44722">
        <ele>77.9</ele>
        <time>2023-08-23T08:00:20Z</time>
      </trkpt>
      <trkpt lat="49.79159" lon="2.44722">
        <ele>77.9</ele>
        <time>2023-08-23T08:00:21Z</time>
      </trkpt>
      <trkpt lat="49.79159" lon="2.44722">
        <ele>77.9</ele>
        <time>2023-08-23T08:00:22Z</time>
      </trkpt>
      <trkpt lat="49.79159" lon="2.44722">
        <ele>77.9</ele>
        <time>2023-08-23T08:00:23Z</time>
      </trkpt>
      <trkpt lat="49.79159" lon="2.44722">
        <ele>77.9</ele>
        <time>2023-08-23T08:00:25Z</time>
      </trkpt>
      <trkpt lat="49.79159" lon="2.44722">
        <ele>77.9</ele>
        <time>2023-08-23T08:00:26Z</time>
      </trkpt>
      <trkpt lat="49.7916" lon="2.44722">
        <ele>77.9</ele>
        <time>2023-08-23T08:00:27Z</time>
      </trkpt>
      <trkpt lat="49.7916" lon="2.44721">
        <ele>77.9</ele>
        <time>2023-08-23T08:00:28Z</time>
      </trkpt>
      <trkpt lat="49.7916" lon="2.44721">
        <ele>77.9</ele>
        <time>2023-08-23T08:00:29Z</time>
      </trkpt>
      <trkpt lat="49.7916" lon="2.44721">
        <ele>77.9</ele>
        <time>2023-08-23T08:00:30Z</time>
      </trkpt>
      <trkpt lat="49.7916" lon="2.44721">
        <ele>77.9</ele>
        <time>2023-08-23T08:00:31Z</time>
      </trkpt>
      <trkpt lat="49.7916" lon="2.44721">
        <ele>78</ele>
        <time>2023-08-23T08:00:32Z</time>
      </trkpt>
      <trkpt lat="49.7916" lon="2.44721">
        <ele>78</ele>
        <time>2023-08-23T08:00:33Z</time>
      </trkpt>
      <trkpt lat="49.7916" lon="2.44721">
        <ele>78</ele>
        <time>2023-08-23T08:00:34Z</time>
      </trkpt>
      <trkpt lat="49.7916" lon="2.44721">
        <ele>78</ele>
        <time>2023-08-23T08:00:35Z</time>
      </trkpt>
      <trkpt lat="49.7916" lon="2.44721">
        <ele>78</ele>
        <time>2023-08-23T08:00:37Z</time>
      </trkpt>
      <trkpt lat="49.7916" lon="2.44721">
        <ele>78</ele>
        <time>2023-08-23T08:00:38Z</time>
      </trkpt>
      <trkpt lat="49.7916" lon="2.44721">
        <ele>78</ele>
        <time>2023-08-23T08:00:39Z</time>
      </trkpt>
      <trkpt lat="49.7916" lon="2.44721">
        <ele>78</ele>
        <time>2023-08-23T08:00:40Z</time>
      </trkpt>
      <trkpt lat="49.7916" lon="2.44721">
        <ele>78</ele>
        <time>2023-08-23T08:00:41Z</time>
      </trkpt>
      <trkpt lat="49.7916" lon="2.44721">
        <ele>78</ele>
        <time>2023-08-23T08:00:42Z</time>
      </trkpt>
      <trkpt lat="49.79161" lon="2.44719">
        <ele>78.1</ele>
        <time>2023-08-23T08:00:44Z</time>
      </trkpt>
      <trkpt lat="49.79162" lon="2.44717">
        <ele>78.3</ele>
        <time>2023-08-23T08:00:45Z</time>
      </trkpt>
      <trkpt lat="49.79162" lon="2.44716">
        <ele>78.4</ele>
        <time>2023-08-23T08:00:46Z</time>
      </trkpt>
      <trkpt lat="49.79164" lon="2.44713">
        <ele>78.6</ele>
        <time>2023-08-23T08:00:48Z</time>
      </trkpt>
      <trkpt lat="49.79164" lon="2.44711">
        <ele>78.7</ele>
        <time>2023-08-23T08:00:49Z</time>
      </trkpt>
      <trkpt lat="49.79165" lon="2.4471">
        <ele>78.8</ele>
        <time>2023-08-23T08:00:50Z</time>
      </trkpt>
      <trkpt lat="49.79165" lon="2.44708">
        <ele>78.9</ele>
        <time>2023-08-23T08:00:52Z</time>
      </trkpt>
      <trkpt lat="49.79165" lon="2.44706">
        <ele>79</ele>
        <time>2023-08-23T08:00:53Z</time>
      </trkpt>
      <trkpt lat="49.79166" lon="2.44705">
        <ele>79.1</ele>
        <time>2023-08-23T08:00:54Z</time>
      </trkpt>
      <trkpt lat="49.79166" lon="2.44703">
        <ele>79.2</ele>
        <time>2023-08-23T08:00:55Z</time>
      </trkpt>
      <trkpt lat="49.79167" lon="2.447">
        <ele>79.4</ele>
        <time>2023-08-23T08:00:56Z</time>
      </trkpt>
      <trkpt lat="49.79167" lon="2.44699">
        <ele>79.5</ele>
        <time>2023-08-23T08:00:57Z</time>
      </trkpt>
      <trkpt lat="49.79167" lon="2.44698">
        <ele>79.6</ele>
        <time>2023-08-23T08:00:58Z</time>
      </trkpt>
      <trkpt lat="49.79168" lon="2.44695">
        <ele>79.7</ele>
        <time>2023-08-23T08:01:00Z</time>
      </trkpt>
      <trkpt lat="49.79168" lon="2.44694">
        <ele>79.8</ele>
        <time>2023-08-23T08:01:01Z</time>
      </trkpt>
      <trkpt lat="49.79169" lon="2.44692">
        <ele>79.9</ele>
        <time>2023-08-23T08:01:02Z</time>
      </trkpt>
      <trkpt lat="49.79169" lon="2.44691">
        <ele>80</ele>
        <time>2023-08-23T08:01:03Z</time>
      </trkpt>
      <trkpt lat="49.7917" lon="2.44689">
        <ele>80.2</ele>
        <time>2023-08-23T08:01:04Z</time>
      </trkpt>
      <trkpt lat="49.79171" lon="2.44686">
        <ele>80.4</ele>
        <time>2023-08-23T08:01:05Z</time>
      </trkpt>
      <trkpt lat="49.79171" lon="2.44685">
        <ele>80.5</ele>
        <time>2023-08-23T08:01:07Z</time>
      </trkpt>
      <trkpt lat="49.79172" lon="2.44683">
        <ele>80.6</ele>
        <time>2023-08-23T08:01:08Z</time>
      </trkpt>
      <trkpt lat="49.79173" lon="2.4468">
        <ele>80.7</ele>
        <time>2023-08-23T08:01:09Z</time>
      </trkpt>
      <trkpt lat="49.79173" lon="2.44679">
        <ele>80.8</ele>
        <time>2023-08-23T08:01:10Z</time>
      </trkpt>
      <trkpt lat="49.79174" lon="2.44678">
        <ele>80.9</ele>
        <time>2023-08-23T08:01:11Z</time>
      </trkpt>
      <trkpt lat="49.79174" lon="2.44677">
        <ele>81</ele>
        <time>2023-08-23T08:01:12Z</time>
      </trkpt>
      <trkpt lat="49.79174" lon="2.44676">
        <ele>81</ele>
        <time>2023-08-23T08:01:13Z</time>
      </trkpt>
      <trkpt lat="49.79175" lon="2.44675">
        <ele>81.1</ele>
        <time>2023-08-23T08:01:15Z</time>
      </trkpt>
      <trkpt lat="49.79175" lon="2.44674">
        <ele>81.2</ele>
        <time>2023-08-23T08:01:16Z</time>
      </trkpt>
      <trkpt lat="49.79176" lon="2.44672">
        <ele>81.3</ele>
        <time>2023-08-23T08:01:17Z</time>
      </trkpt>
      <trkpt lat="49.79177" lon="2.44671">
        <ele>81.4</ele>
        <time>2023-08-23T08:01:18Z</time>
      </trkpt>
      <trkpt lat="49.79177" lon="2.44669">
        <ele>81.5</ele>
        <time>2023-08-23T08:01:19Z</time>
      </trkpt>
      <trkpt lat="49.79178" lon="2.44667">
        <ele>81.6</ele>
        <time>2023-08-23T08:01:20Z</time>
      </trkpt>
      <trkpt lat="49.79178" lon="2.44666">
        <ele>81.7</ele>
        <time>2023-08-23T08:01:21Z</time>
      </trkpt>
      <trkpt lat="49.79179" lon="2.44664">
        <ele>81.8</ele>
        <time>2023-08-23T08:01:23Z</time>
      </trkpt>
      <trkpt lat="49.79179" lon="2.44663">
        <ele>81.9</ele>
        <time>2023-08-23T08:01:24Z</time>
      </trkpt>
      <trkpt lat="49.7918" lon="2.44662">
        <ele>82</ele>
        <time>2023-08-23T08:01:25Z</time>
      </trkpt>
      <trkpt lat="49.7918" lon="2.44662">
        <ele>82</ele>
        <time>2023-08-23T08:01:26Z</time>
      </trkpt>
      <trkpt lat="49.7918" lon="2.44661">
        <ele>82</ele>
        <time>2023-08-23T08:01:27Z</time>
      </trkpt>
      <trkpt lat="49.79181" lon="2.4466">
        <ele>82.1</ele>
        <time>2023-08-23T08:01:28Z</time>
      </trkpt>
      <trkpt lat="49.79181" lon="2.44659">
        <ele>82.2</ele>
        <time>2023-08-23T08:01:30Z</time>
      </trkpt>
      <trkpt lat="49.79182" lon="2.44658">
        <ele>82.2</ele>
        <time>2023-08-23T08:01:31Z</time>
      </trkpt>
      <trkpt lat="49.79183" lon="2.44657">
        <ele>82.3</ele>
        <time>2023-08-23T08:01:32Z</time>
      </trkpt>
      <trkpt lat="49.79183" lon="2.44656">
        <ele>82.4</ele>
        <time>2023-08-23T08:01:33Z</time>
      </trkpt>
      <trkpt lat="49.79184" lon="2.44655">
        <ele>82.5</ele>
        <time>2023-08-23T08:01:34Z</time>
      </trkpt>
      <trkpt lat="49.79185" lon="2.44654">
        <ele>82.6</ele>
        <time>2023-08-23T08:01:35Z</time>
      </trkpt>
      <trkpt lat="49.79186" lon="2.44652">
        <ele>82.8</ele>
        <time>2023-08-23T08:01:37Z</time>
      </trkpt>
      <trkpt lat="49.79187" lon="2.44651">
        <ele>82.8</ele>
        <time>2023-08-23T08:01:38Z</time>
      </trkpt>
      <trkpt lat="49.79187" lon="2.44649">
        <ele>82.9</ele>
        <time>2023-08-23T08:01:39Z</time>
      </trkpt>
      <trkpt lat="49.79188" lon="2.44648">
        <ele>83</ele>
        <time>2023-08-23T08:01:40Z</time>
      </trkpt>
      <trkpt lat="49.79188" lon="2.44646">
        <ele>83.1</ele>
        <time>2023-08-23T08:01:41Z</time>
      </trkpt>
      <trkpt lat="49.79189" lon="2.44644">
        <ele>83.2</ele>
        <time>2023-08-23T08:01:43Z</time>
      </trkpt>
      <trkpt lat="49.7919" lon="2.44643">
        <ele>83.3</ele>
        <time>2023-08-23T08:01:44Z</time>
      </trkpt>
      <trkpt lat="49.79191" lon="2.44643">
        <ele>83.4</ele>
        <time>2023-08-23T08:01:45Z</time>
      </trkpt>
      <trkpt lat="49.79191" lon="2.44642">
        <ele>83.4</ele>
        <time>2023-08-23T08:01:46Z</time>
      </trkpt>
      <trkpt lat="49.79191" lon="2.44642">
        <ele>83.4</ele>
        <time>2023-08-23T08:01:47Z</time>
      </trkpt>
      <trkpt lat="49.79192" lon="2.4464">
        <ele>83.5</ele>
        <time>2023-08-23T08:01:48Z</time>
      </trkpt>
      <trkpt lat="49.79192" lon="2.44639">
        <ele>83.6</ele>
        <time>2023-08-23T08:01:50Z</time>
      </trkpt>
      <trkpt lat="49.79193" lon="2.44638">
        <ele>83.7</ele>
        <time>2023-08-23T08:01:51Z</time>
      </trkpt>
      <trkpt lat="49.79194" lon="2.44636">
        <ele>83.8</ele>
        <time>2023-08-23T08:01:52Z</time>
      </trkpt>
      <trkpt lat="49.79194" lon="2.44635">
        <ele>83.8</ele>
        <time>2023-08-23T08:01:53Z</time>
      </trkpt>
      <trkpt lat="49.79195" lon="2.44634">
        <ele>83.9</ele>
        <time>2023-08-23T08:01:54Z</time>
      </trkpt>
      <trkpt lat="49.79196" lon="2.44633">
        <ele>84</ele>
        <time>2023-08-23T08:01:56Z</time>
      </trkpt>
      <trkpt lat="49.79197" lon="2.44632">
        <ele>84.1</ele>
        <time>2023-08-23T08:01:57Z</time>
      </trkpt>
      <trkpt lat="49.79198" lon="2.44631">
        <ele>84.2</ele>
        <time>2023-08-23T08:01:58Z</time>
      </trkpt>
      <trkpt lat="49.79198" lon="2.4463">
        <ele>84.2</ele>
        <time>2023-08-23T08:01:59Z</time>
      </trkpt>
      <trkpt lat="49.79199" lon="2.44629">
        <ele>84.3</ele>
        <time>2023-08-23T08:02:00Z</time>
      </trkpt>
      <trkpt lat="49.792" lon="2.44629">
        <ele>84.4</ele>
        <time>2023-08-23T08:02:01Z</time>
      </trkpt>
      <trkpt lat="49.79201" lon="2.44628">
        <ele>84.5</ele>
        <time>2023-08-23T08:02:03Z</time>
      </trkpt>
      <trkpt lat="49.79202" lon="2.44626">
        <ele>84.6</ele>
        <time>2023-08-23T08:02:04Z</time>
      </trkpt>
      <trkpt lat="49.79203" lon="2.44625">
        <ele>84.7</ele>
        <time>2023-08-23T08:02:05Z</time>
      </trkpt>
      <trkpt lat="49.79204" lon="2.44623">
        <ele>84.8</ele>
        <time>2023-08-23T08:02:06Z</time>
      </trkpt>
      <trkpt lat="49.79204" lon="2.44622">
        <ele>84.9</ele>
        <time>2023-08-23T08:02:07Z</time>
      </trkpt>
      <trkpt lat="49.79205" lon="2.44621">
        <ele>85</ele>
        <time>2023-08-23T08:02:09Z</time>
      </trkpt>
      <trkpt lat="49.79206" lon="2.44619">
        <ele>85.1</ele>
        <time>2023-08-23T08:02:10Z</time>
      </trkpt>
      <trkpt lat="49.79207" lon="2.44617">
        <ele>85.1</ele>
        <time>2023-08-23T08:02:11Z</time>
      </trkpt>
      <trkpt lat="49.79207" lon="2.44617">
        <ele>85.2</ele>
        <time>2023-08-23T08:02:12Z</time>
      </trkpt>
      <trkpt lat="49.79209" lon="2.44618">
        <ele>85.3</ele>
        <time>2023-08-23T08:02:13Z</time>
      </trkpt>
      <trkpt lat="49.79209" lon="2.44619">
        <ele>85.4</ele>
        <time>2023-08-23T08:02:14Z</time>
      </trkpt>
      <trkpt lat="49.7921" lon="2.4462">
        <ele>85.4</ele>
        <time>2023-08-23T08:02:16Z</time>
      </trkpt>
      <trkpt lat="49.7921" lon="2.44621">
        <ele>85.5</ele>
        <time>2023-08-23T08:02:17Z</time>
      </trkpt>
      <trkpt lat="49.79212" lon="2.44624">
        <ele>85.7</ele>
        <time>2023-08-23T08:02:19Z</time>
      </trkpt>
      <trkpt lat="49.79213" lon="2.44625">
        <ele>85.7</ele>
        <time>2023-08-23T08:02:20Z</time>
      </trkpt>
      <trkpt lat="49.79213" lon="2.44626">
        <ele>85.8</ele>
        <time>2023-08-23T08:02:22Z</time>
      </trkpt>
      <trkpt lat="49.79213" lon="2.44626">
        <ele>85.8</ele>
        <time>2023-08-23T08:02:23Z</time>
      </trkpt>
      <trkpt lat="49.79212" lon="2.44627">
        <ele>85.9</ele>
        <time>2023-08-23T08:02:25Z</time>
      </trkpt>
      <trkpt lat="49.79212" lon="2.44627">
        <ele>85.9</ele>
        <time>2023-08-23T08:02:26Z</time>
      </trkpt>
      <trkpt lat="49.79212" lon="2.44627">
        <ele>85.9</ele>
        <time>2023-08-23T08:02:29Z</time>
      </trkpt>
      <trkpt lat="49.79211" lon="2.44628">
        <ele>85.9</ele>
        <time>2023-08-23T08:02:30Z</time>
      </trkpt>
      <trkpt lat="49.79211" lon="2.44628">
        <ele>86</ele>
        <time>2023-08-23T08:02:31Z</time>
      </trkpt>
      <trkpt lat="49.7921" lon="2.44628">
        <ele>86</ele>
        <time>2023-08-23T08:02:33Z</time>
      </trkpt>
      <trkpt lat="49.7921" lon="2.44629">
        <ele>86</ele>
        <time>2023-08-23T08:02:34Z</time>
      </trkpt>
      <trkpt lat="49.79209" lon="2.44628">
        <ele>86.1</ele>
        <time>2023-08-23T08:02:35Z</time>
      </trkpt>
      <trkpt lat="49.79209" lon="2.44628">
        <ele>86.1</ele>
        <time>2023-08-23T08:02:36Z</time>
      </trkpt>
      <trkpt lat="49.79207" lon="2.44626">
        <ele>86.3</ele>
        <time>2023-08-23T08:02:37Z</time>
      </trkpt>
      <trkpt lat="49.79206" lon="2.44626">
        <ele>86.3</ele>
        <time>2023-08-23T08:02:38Z</time>
      </trkpt>
      <trkpt lat="49.79205" lon="2.44625">
        <ele>86.4</ele>
        <time>2023-08-23T08:02:39Z</time>
      </trkpt>
      <trkpt lat="49.79205" lon="2.44623">
        <ele>86.5</ele>
        <time>2023-08-23T08:02:40Z</time>
      </trkpt>
      <trkpt lat="49.79207" lon="2.44624">
        <ele>86.6</ele>
        <time>2023-08-23T08:02:41Z</time>
      </trkpt>
      <trkpt lat="49.79208" lon="2.44622">
        <ele>86.7</ele>
        <time>2023-08-23T08:02:43Z</time>
      </trkpt>
      <trkpt lat="49.79209" lon="2.4462">
        <ele>86.8</ele>
        <time>2023-08-23T08:02:44Z</time>
      </trkpt>
      <trkpt lat="49.7921" lon="2.44615">
        <ele>87</ele>
        <time>2023-08-23T08:02:45Z</time>
      </trkpt>
      <trkpt lat="49.7921" lon="2.44613">
        <ele>87.1</ele>
        <time>2023-08-23T08:02:46Z</time>
      </trkpt>
      <trkpt lat="49.7921" lon="2.44611">
        <ele>87.2</ele>
        <time>2023-08-23T08:02:47Z</time>
      </trkpt>
      <trkpt lat="49.79211" lon="2.44608">
        <ele>87.3</ele>
        <time>2023-08-23T08:02:48Z</time>
      </trkpt>
      <trkpt lat="49.79212" lon="2.44606">
        <ele>87.4</ele>
        <time>2023-08-23T08:02:49Z</time>
      </trkpt>
      <trkpt lat="49.79212" lon="2.44604">
        <ele>87.4</ele>
        <time>2023-08-23T08:02:50Z</time>
      </trkpt>
      <trkpt lat="49.79213" lon="2.44602">
        <ele>87.5</ele>
        <time>2023-08-23T08:02:52Z</time>
      </trkpt>
      <trkpt lat="49.79214" lon="2.44601">
        <ele>87.6</ele>
        <time>2023-08-23T08:02:53Z</time>
      </trkpt>
      <trkpt lat="49.79215" lon="2.44601">
        <ele>87.7</ele>
        <time>2023-08-23T08:02:54Z</time>
      </trkpt>
      <trkpt lat="49.79216" lon="2.446">
        <ele>87.7</ele>
        <time>2023-08-23T08:02:55Z</time>
      </trkpt>
      <trkpt lat="49.79217" lon="2.446">
        <ele>87.8</ele>
        <time>2023-08-23T08:02:56Z</time>
      </trkpt>
      <trkpt lat="49.79219" lon="2.44598">
        <ele>87.9</ele>
        <time>2023-08-23T08:02:57Z</time>
      </trkpt>
      <trkpt lat="49.79219" lon="2.44597">
        <ele>88</ele>
        <time>2023-08-23T08:02:58Z</time>
      </trkpt>
      <trkpt lat="49.7922" lon="2.44597">
        <ele>88</ele>
        <time>2023-08-23T08:02:59Z</time>
      </trkpt>
      <trkpt lat="49.79221" lon="2.44596">
        <ele>88.1</ele>
        <time>2023-08-23T08:03:01Z</time>
      </trkpt>
      <trkpt lat="49.79221" lon="2.44594">
        <ele>88.1</ele>
        <time>2023-08-23T08:03:02Z</time>
      </trkpt>
      <trkpt lat="49.79222" lon="2.44593">
        <ele>88.2</ele>
        <time>2023-08-23T08:03:03Z</time>
      </trkpt>
      <trkpt lat="49.79223" lon="2.44592">
        <ele>88.3</ele>
        <time>2023-08-23T08:03:04Z</time>
      </trkpt>
      <trkpt lat="49.79224" lon="2.44591">
        <ele>88.3</ele>
        <time>2023-08-23T08:03:05Z</time>
      </trkpt>
      <trkpt lat="49.79224" lon="2.44589">
        <ele>88.4</ele>
        <time>2023-08-23T08:03:06Z</time>
      </trkpt>
      <trkpt lat="49.79225" lon="2.44587">
        <ele>88.5</ele>
        <time>2023-08-23T08:03:07Z</time>
      </trkpt>
      <trkpt lat="49.79226" lon="2.44585">
        <ele>88.6</ele>
        <time>2023-08-23T08:03:09Z</time>
      </trkpt>
      <trkpt lat="49.79227" lon="2.44583">
        <ele>88.7</ele>
        <time>2023-08-23T08:03:10Z</time>
      </trkpt>
      <trkpt lat="49.79228" lon="2.44581">
        <ele>88.8</ele>
        <time>2023-08-23T08:03:11Z</time>
      </trkpt>
      <trkpt lat="49.79229" lon="2.4458">
        <ele>88.9</ele>
        <time>2023-08-23T08:03:12Z</time>
      </trkpt>
      <trkpt lat="49.7923" lon="2.44578">
        <ele>88.9</ele>
        <time>2023-08-23T08:03:13Z</time>
      </trkpt>
      <trkpt lat="49.79231" lon="2.44576">
        <ele>89</ele>
        <time>2023-08-23T08:03:14Z</time>
      </trkpt>
      <trkpt lat="49.79232" lon="2.44574">
        <ele>89.1</ele>
        <time>2023-08-23T08:03:15Z</time>
      </trkpt>
      <trkpt lat="49.79233" lon="2.44572">
        <ele>89.2</ele>
        <time>2023-08-23T08:03:17Z</time>
      </trkpt>
      <trkpt lat="49.79234" lon="2.44571">
        <ele>89.3</ele>
        <time>2023-08-23T08:03:18Z</time>
      </trkpt>
      <trkpt lat="49.79235" lon="2.44568">
        <ele>89.4</ele>
        <time>2023-08-23T08:03:19Z</time>
      </trkpt>
      <trkpt lat="49.79236" lon="2.44566">
        <ele>89.5</ele>
        <time>2023-08-23T08:03:20Z</time>
      </trkpt>
      <trkpt lat="49.79236" lon="2.44565">
        <ele>89.5</ele>
        <time>2023-08-23T08:03:21Z</time>
      </trkpt>
      <trkpt lat="49.79237" lon="2.44563">
        <ele>89.6</ele>
        <time>2023-08-23T08:03:22Z</time>
      </trkpt>
      <trkpt lat="49.79238" lon="2.44561">
        <ele>89.7</ele>
        <time>2023-08-23T08:03:23Z</time>
      </trkpt>
      <trkpt lat="49.79238" lon="2.44559">
        <ele>89.8</ele>
        <time>2023-08-23T08:03:24Z</time>
      </trkpt>
      <trkpt lat="49.79239" lon="2.44557">
        <ele>89.8</ele>
        <time>2023-08-23T08:03:26Z</time>
      </trkpt>
      <trkpt lat="49.79239" lon="2.44555">
        <ele>89.9</ele>
        <time>2023-08-23T08:03:27Z</time>
      </trkpt>
      <trkpt lat="49.7924" lon="2.44553">
        <ele>90</ele>
        <time>2023-08-23T08:03:28Z</time>
      </trkpt>
      <trkpt lat="49.7924" lon="2.44551">
        <ele>90.1</ele>
        <time>2023-08-23T08:03:29Z</time>
      </trkpt>
      <trkpt lat="49.79241" lon="2.44549">
        <ele>90.1</ele>
        <time>2023-08-23T08:03:30Z</time>
      </trkpt>
      <trkpt lat="49.79241" lon="2.44547">
        <ele>90.2</ele>
        <time>2023-08-23T08:03:31Z</time>
      </trkpt>
      <trkpt lat="49.79242" lon="2.44545">
        <ele>90.3</ele>
        <time>2023-08-23T08:03:32Z</time>
      </trkpt>
      <trkpt lat="49.79243" lon="2.44543">
        <ele>90.4</ele>
        <time>2023-08-23T08:03:34Z</time>
      </trkpt>
      <trkpt lat="49.79243" lon="2.44541">
        <ele>90.5</ele>
        <time>2023-08-23T08:03:35Z</time>
      </trkpt>
      <trkpt lat="49.79244" lon="2.44537">
        <ele>90.6</ele>
        <time>2023-08-23T08:03:36Z</time>
      </trkpt>
      <trkpt lat="49.79244" lon="2.44536">
        <ele>90.6</ele>
        <time>2023-08-23T08:03:37Z</time>
      </trkpt>
      <trkpt lat="49.79245" lon="2.44535">
        <ele>90.7</ele>
        <time>2023-08-23T08:03:38Z</time>
      </trkpt>
      <trkpt lat="49.79245" lon="2.44533">
        <ele>90.7</ele>
        <time>2023-08-23T08:03:39Z</time>
      </trkpt>
      <trkpt lat="49.79246" lon="2.44531">
        <ele>90.8</ele>
        <time>2023-08-23T08:03:40Z</time>
      </trkpt>
      <trkpt lat="49.79246" lon="2.44529">
        <ele>90.9</ele>
        <time>2023-08-23T08:03:42Z</time>
      </trkpt>
      <trkpt lat="49.79247" lon="2.44527">
        <ele>91</ele>
        <time>2023-08-23T08:03:43Z</time>
      </trkpt>
      <trkpt lat="49.79247" lon="2.44524">
        <ele>91.1</ele>
        <time>2023-08-23T08:03:44Z</time>
      </trkpt>
      <trkpt lat="49.79247" lon="2.44523">
        <ele>91.1</ele>
        <time>2023-08-23T08:03:45Z</time>
      </trkpt>
      <trkpt lat="49.79248" lon="2.44521">
        <ele>91.2</ele>
        <time>2023-08-23T08:03:46Z</time>
      </trkpt>
      <trkpt lat="49.79248" lon="2.4452">
        <ele>91.2</ele>
        <time>2023-08-23T08:03:47Z</time>
      </trkpt>
      <trkpt lat="49.79248" lon="2.44518">
        <ele>91.3</ele>
        <time>2023-08-23T08:03:48Z</time>
      </trkpt>
      <trkpt lat="49.79249" lon="2.44516">
        <ele>91.4</ele>
        <time>2023-08-23T08:03:49Z</time>
      </trkpt>
      <trkpt lat="49.79249" lon="2.44513">
        <ele>91.5</ele>
        <time>2023-08-23T08:03:50Z</time>
      </trkpt>
      <trkpt lat="49.79249" lon="2.44512">
        <ele>91.5</ele>
        <time>2023-08-23T08:03:52Z</time>
      </trkpt>
      <trkpt lat="49.79249" lon="2.4451">
        <ele>91.6</ele>
        <time>2023-08-23T08:03:53Z</time>
      </trkpt>
      <trkpt lat="49.7925" lon="2.44507">
        <ele>91.7</ele>
        <time>2023-08-23T08:03:54Z</time>
      </trkpt>
      <trkpt lat="49.7925" lon="2.44506">
        <ele>91.7</ele>
        <time>2023-08-23T08:03:55Z</time>
      </trkpt>
      <trkpt lat="49.7925" lon="2.44505">
        <ele>91.8</ele>
        <time>2023-08-23T08:03:56Z</time>
      </trkpt>
      <trkpt lat="49.79251" lon="2.44501">
        <ele>91.9</ele>
        <time>2023-08-23T08:03:57Z</time>
      </trkpt>
      <trkpt lat="49.79251" lon="2.445">
        <ele>91.9</ele>
        <time>2023-08-23T08:03:58Z</time>
      </trkpt>
      <trkpt lat="49.79251" lon="2.44499">
        <ele>92</ele>
        <time>2023-08-23T08:03:59Z</time>
      </trkpt>
      <trkpt lat="49.79251" lon="2.44495">
        <ele>92.1</ele>
        <time>2023-08-23T08:04:00Z</time>
      </trkpt>
      <trkpt lat="49.79251" lon="2.44494">
        <ele>92.1</ele>
        <time>2023-08-23T08:04:02Z</time>
      </trkpt>
      <trkpt lat="49.79251" lon="2.44492">
        <ele>92.2</ele>
        <time>2023-08-23T08:04:03Z</time>
      </trkpt>
      <trkpt lat="49.79251" lon="2.4449">
        <ele>92.2</ele>
        <time>2023-08-23T08:04:04Z</time>
      </trkpt>
      <trkpt lat="49.79251" lon="2.44489">
        <ele>92.3</ele>
        <time>2023-08-23T08:04:05Z</time>
      </trkpt>
      <trkpt lat="49.79251" lon="2.44487">
        <ele>92.4</ele>
        <time>2023-08-23T08:04:06Z</time>
      </trkpt>
      <trkpt lat="49.79251" lon="2.44485">
        <ele>92.4</ele>
        <time>2023-08-23T08:04:07Z</time>
      </trkpt>
      <trkpt lat="49.79251" lon="2.44483">
        <ele>92.5</ele>
        <time>2023-08-23T08:04:08Z</time>
      </trkpt>
      <trkpt lat="49.79251" lon="2.44481">
        <ele>92.5</ele>
        <time>2023-08-23T08:04:10Z</time>
      </trkpt>
      <trkpt lat="49.79251" lon="2.44479">
        <ele>92.6</ele>
        <time>2023-08-23T08:04:11Z</time>
      </trkpt>
      <trkpt lat="49.79251" lon="2.44477">
        <ele>92.7</ele>
        <time>2023-08-23T08:04:12Z</time>
      </trkpt>
      <trkpt lat="49.7925" lon="2.44475">
        <ele>92.7</ele>
        <time>2023-08-23T08:04:13Z</time>
      </trkpt>
      <trkpt lat="49.7925" lon="2.44473">
        <ele>92.8</ele>
        <time>2023-08-23T08:04:14Z</time>
      </trkpt>
      <trkpt lat="49.7925" lon="2.44471">
        <ele>92.8</ele>
        <time>2023-08-23T08:04:15Z</time>
      </trkpt>
      <trkpt lat="49.7925" lon="2.44468">
        <ele>92.9</ele>
        <time>2023-08-23T08:04:17Z</time>
      </trkpt>
      <trkpt lat="49.7925" lon="2.44466">
        <ele>93</ele>
        <time>2023-08-23T08:04:19Z</time>
      </trkpt>
      <trkpt lat="49.79249" lon="2.44464">
        <ele>93</ele>
        <time>2023-08-23T08:04:20Z</time>
      </trkpt>
      <trkpt lat="49.79249" lon="2.44462">
        <ele>93.1</ele>
        <time>2023-08-23T08:04:21Z</time>
      </trkpt>
      <trkpt lat="49.79249" lon="2.44459">
        <ele>93.2</ele>
        <time>2023-08-23T08:04:22Z</time>
      </trkpt>
      <trkpt lat="49.79249" lon="2.44457">
        <ele>93.2</ele>
        <time>2023-08-23T08:04:23Z</time>
      </trkpt>
      <trkpt lat="49.79249" lon="2.44456">
        <ele>93.3</ele>
        <time>2023-08-23T08:04:24Z</time>
      </trkpt>
      <trkpt lat="49.79248" lon="2.44454">
        <ele>93.3</ele>
        <time>2023-08-23T08:04:25Z</time>
      </trkpt>
      <trkpt lat="49.79248" lon="2.44453">
        <ele>93.3</ele>
        <time>2023-08-23T08:04:27Z</time>
      </trkpt>
      <trkpt lat="49.79248" lon="2.44451">
        <ele>93.4</ele>
        <time>2023-08-23T08:04:28Z</time>
      </trkpt>
      <trkpt lat="49.79248" lon="2.44448">
        <ele>93.5</ele>
        <time>2023-08-23T08:04:29Z</time>
      </trkpt>
      <trkpt lat="49.79248" lon="2.44447">
        <ele>93.5</ele>
        <time>2023-08-23T08:04:30Z</time>
      </trkpt>
      <trkpt lat="49.79248" lon="2.44445">
        <ele>93.5</ele>
        <time>2023-08-23T08:04:31Z</time>
      </trkpt>
      <trkpt lat="49.79248" lon="2.44442">
        <ele>93.6</ele>
        <time>2023-08-23T08:04:32Z</time>
      </trkpt>
      <trkpt lat="49.79248" lon="2.4444">
        <ele>93.6</ele>
        <time>2023-08-23T08:04:33Z</time>
      </trkpt>
      <trkpt lat="49.79248" lon="2.44439">
        <ele>93.7</ele>
        <time>2023-08-23T08:04:35Z</time>
      </trkpt>
      <trkpt lat="49.79248" lon="2.44437">
        <ele>93.7</ele>
        <time>2023-08-23T08:04:36Z</time>
      </trkpt>
      <trkpt lat="49.79248" lon="2.44436">
        <ele>93.8</ele>
        <time>2023-08-23T08:04:37Z</time>
      </trkpt>
      <trkpt lat="49.79248" lon="2.44434">
        <ele>93.8</ele>
        <time>2023-08-23T08:04:38Z</time>
      </trkpt>
      <trkpt lat="49.79248" lon="2.44432">
        <ele>93.8</ele>
        <time>2023-08-23T08:04:39Z</time>
      </trkpt>
      <trkpt lat="49.79248" lon="2.4443">
        <ele>93.9</ele>
        <time>2023-08-23T08:04:40Z</time>
      </trkpt>
      <trkpt lat="49.79248" lon="2.44429">
        <ele>93.9</ele>
        <time>2023-08-23T08:04:41Z</time>
      </trkpt>
      <trkpt lat="49.79248" lon="2.44425">
        <ele>94</ele>
        <time>2023-08-23T08:04:42Z</time>
      </trkpt>
      <trkpt lat="49.79248" lon="2.44424">
        <ele>94</ele>
        <time>2023-08-23T08:04:43Z</time>
      </trkpt>
      <trkpt lat="49.79248" lon="2.44422">
        <ele>94</ele>
        <time>2023-08-23T08:04:45Z</time>
      </trkpt>
      <trkpt lat="49.79248" lon="2.44421">
        <ele>94.1</ele>
        <time>2023-08-23T08:04:46Z</time>
      </trkpt>
      <trkpt lat="49.79248" lon="2.44419">
        <ele>94.1</ele>
        <time>2023-08-23T08:04:47Z</time>
      </trkpt>
      <trkpt lat="49.79248" lon="2.44418">
        <ele>94.1</ele>
        <time>2023-08-23T08:04:48Z</time>
      </trkpt>
      <trkpt lat="49.79248" lon="2.44414">
        <ele>94.2</ele>
        <time>2023-08-23T08:04:49Z</time>
      </trkpt>
      <trkpt lat="49.79247" lon="2.44413">
        <ele>94.2</ele>
        <time>2023-08-23T08:04:50Z</time>
      </trkpt>
      <trkpt lat="49.79247" lon="2.44411">
        <ele>94.3</ele>
        <time>2023-08-23T08:04:52Z</time>
      </trkpt>
      <trkpt lat="49.79247" lon="2.44409">
        <ele>94.3</ele>
        <time>2023-08-23T08:04:53Z</time>
      </trkpt>
      <trkpt lat="49.79247" lon="2.44408">
        <ele>94.3</ele>
        <time>2023-08-23T08:04:54Z</time>
      </trkpt>
      <trkpt lat="49.79247" lon="2.44406">
        <ele>94.4</ele>
        <time>2023-08-23T08:04:55Z</time>
      </trkpt>
      <trkpt lat="49.79247" lon="2.44403">
        <ele>94.4</ele>
        <time>2023-08-23T08:04:56Z</time>
      </trkpt>
      <trkpt lat="49.79247" lon="2.44401">
        <ele>94.4</ele>
        <time>2023-08-23T08:04:58Z</time>
      </trkpt>
      <trkpt lat="49.79247" lon="2.444">
        <ele>94.5</ele>
        <time>2023-08-23T08:04:59Z</time>
      </trkpt>
      <trkpt lat="49.79247" lon="2.44396">
        <ele>94.5</ele>
        <time>2023-08-23T08:05:00Z</time>
      </trkpt>
      <trkpt lat="49.79247" lon="2.44395">
        <ele>94.5</ele>
        <time>2023-08-23T08:05:02Z</time>
      </trkpt>
      <trkpt lat="49.79247" lon="2.44394">
        <ele>94.6</ele>
        <time>2023-08-23T08:05:03Z</time>
      </trkpt>
      <trkpt lat="49.79246" lon="2.44393">
        <ele>94.6</ele>
        <time>2023-08-23T08:05:04Z</time>
      </trkpt>
      <trkpt lat="49.79246" lon="2.44391">
        <ele>94.6</ele>
        <time>2023-08-23T08:05:05Z</time>
      </trkpt>
      <trkpt lat="49.79246" lon="2.44389">
        <ele>94.6</ele>
        <time>2023-08-23T08:05:06Z</time>
      </trkpt>
      <trkpt lat="49.79245" lon="2.44387">
        <ele>94.7</ele>
        <time>2023-08-23T08:05:07Z</time>
      </trkpt>
      <trkpt lat="49.79245" lon="2.44385">
        <ele>94.7</ele>
        <time>2023-08-23T08:05:08Z</time>
      </trkpt>
      <trkpt lat="49.79245" lon="2.44383">
        <ele>94.7</ele>
        <time>2023-08-23T08:05:10Z</time>
      </trkpt>
      <trkpt lat="49.79245" lon="2.44382">
        <ele>94.8</ele>
        <time>2023-08-23T08:05:11Z</time>
      </trkpt>
      <trkpt lat="49.79245" lon="2.4438">
        <ele>94.8</ele>
        <time>2023-08-23T08:05:12Z</time>
      </trkpt>
      <trkpt lat="49.79245" lon="2.44379">
        <ele>94.8</ele>
        <time>2023-08-23T08:05:14Z</time>
      </trkpt>
      <trkpt lat="49.79244" lon="2.44376">
        <ele>94.8</ele>
        <time>2023-08-23T08:05:15Z</time>
      </trkpt>
      <trkpt lat="49.79244" lon="2.44374">
        <ele>94.9</ele>
        <time>2023-08-23T08:05:16Z</time>
      </trkpt>
      <trkpt lat="49.79244" lon="2.44371">
        <ele>94.9</ele>
        <time>2023-08-23T08:05:17Z</time>
      </trkpt>
      <trkpt lat="49.79244" lon="2.44369">
        <ele>94.9</ele>
        <time>2023-08-23T08:05:19Z</time>
      </trkpt>
      <trkpt lat="49.79244" lon="2.44368">
        <ele>95</ele>
        <time>2023-08-23T08:05:20Z</time>
      </trkpt>
      <trkpt lat="49.79244" lon="2.44365">
        <ele>95</ele>
        <time>2023-08-23T08:05:21Z</time>
      </trkpt>
      <trkpt lat="49.79243" lon="2.44363">
        <ele>95</ele>
        <time>2023-08-23T08:05:22Z</time>
      </trkpt>
      <trkpt lat="49.79243" lon="2.44361">
        <ele>95.1</ele>
        <time>2023-08-23T08:05:23Z</time>
      </trkpt>
      <trkpt lat="49.79243" lon="2.44359">
        <ele>95.1</ele>
        <time>2023-08-23T08:05:24Z</time>
      </trkpt>
      <trkpt lat="49.79243" lon="2.44357">
        <ele>95.1</ele>
        <time>2023-08-23T08:05:25Z</time>
      </trkpt>
      <trkpt lat="49.79242" lon="2.44355">
        <ele>95.1</ele>
        <time>2023-08-23T08:05:27Z</time>
      </trkpt>
      <trkpt lat="49.79242" lon="2.44354">
        <ele>95.1</ele>
        <time>2023-08-23T08:05:28Z</time>
      </trkpt>
      <trkpt lat="49.79242" lon="2.4435">
        <ele>95.2</ele>
        <time>2023-08-23T08:05:29Z</time>
      </trkpt>
      <trkpt lat="49.79242" lon="2.44349">
        <ele>95.2</ele>
        <time>2023-08-23T08:05:30Z</time>
      </trkpt>
      <trkpt lat="49.79242" lon="2.44348">
        <ele>95.2</ele>
        <time>2023-08-23T08:05:31Z</time>
      </trkpt>
      <trkpt lat="49.79242" lon="2.44344">
        <ele>95.2</ele>
        <time>2023-08-23T08:05:32Z</time>
      </trkpt>
      <trkpt lat="49.79242" lon="2.44343">
        <ele>95.3</ele>
        <time>2023-08-23T08:05:33Z</time>
      </trkpt>
      <trkpt lat="49.79242" lon="2.44342">
        <ele>95.3</ele>
        <time>2023-08-23T08:05:34Z</time>
      </trkpt>
      <trkpt lat="49.79242" lon="2.44339">
        <ele>95.3</ele>
        <time>2023-08-23T08:05:36Z</time>
      </trkpt>
      <trkpt lat="49.79242" lon="2.44337">
        <ele>95.3</ele>
        <time>2023-08-23T08:05:37Z</time>
      </trkpt>
      <trkpt lat="49.79243" lon="2.44336">
        <ele>95.3</ele>
        <time>2023-08-23T08:05:38Z</time>
      </trkpt>
      <trkpt lat="49.79243" lon="2.44334">
        <ele>95.4</ele>
        <time>2023-08-23T08:05:39Z</time>
      </trkpt>
      <trkpt lat="49.79243" lon="2.44332">
        <ele>95.4</ele>
        <time>2023-08-23T08:05:40Z</time>
      </trkpt>
      <trkpt lat="49.79244" lon="2.44329">
        <ele>95.4</ele>
        <time>2023-08-23T08:05:41Z</time>
      </trkpt>
      <trkpt lat="49.79244" lon="2.44328">
        <ele>95.4</ele>
        <time>2023-08-23T08:05:42Z</time>
      </trkpt>
      <trkpt lat="49.79244" lon="2.44326">
        <ele>95.4</ele>
        <time>2023-08-23T08:05:43Z</time>
      </trkpt>
      <trkpt lat="49.79245" lon="2.44324">
        <ele>95.5</ele>
        <time>2023-08-23T08:05:45Z</time>
      </trkpt>
      <trkpt lat="49.79245" lon="2.44322">
        <ele>95.5</ele>
        <time>2023-08-23T08:05:46Z</time>
      </trkpt>
      <trkpt lat="49.79246" lon="2.44321">
        <ele>95.5</ele>
        <time>2023-08-23T08:05:47Z</time>
      </trkpt>
      <trkpt lat="49.79247" lon="2.44318">
        <ele>95.5</ele>
        <time>2023-08-23T08:05:48Z</time>
      </trkpt>
      <trkpt lat="49.79247" lon="2.44317">
        <ele>95.5</ele>
        <time>2023-08-23T08:05:49Z</time>
      </trkpt>
      <trkpt lat="49.79248" lon="2.44316">
        <ele>95.5</ele>
        <time>2023-08-23T08:05:50Z</time>
      </trkpt>
      <trkpt lat="49.79249" lon="2.44313">
        <ele>95.6</ele>
        <time>2023-08-23T08:05:51Z</time>
      </trkpt>
      <trkpt lat="49.7925" lon="2.44312">
        <ele>95.6</ele>
        <time>2023-08-23T08:05:52Z</time>
      </trkpt>
      <trkpt lat="49.7925" lon="2.44311">
        <ele>95.6</ele>
        <time>2023-08-23T08:05:54Z</time>
      </trkpt>
      <trkpt lat="49.79251" lon="2.4431">
        <ele>95.6</ele>
        <time>2023-08-23T08:05:55Z</time>
      </trkpt>
      <trkpt lat="49.79251" lon="2.44308">
        <ele>95.6</ele>
        <time>2023-08-23T08:05:56Z</time>
      </trkpt>
      <trkpt lat="49.79252" lon="2.44307">
        <ele>95.6</ele>
        <time>2023-08-23T08:05:57Z</time>
      </trkpt>
      <trkpt lat="49.79253" lon="2.44306">
        <ele>95.6</ele>
        <time>2023-08-23T08:05:58Z</time>
      </trkpt>
      <trkpt lat="49.79253" lon="2.44304">
        <ele>95.6</ele>
        <time>2023-08-23T08:05:59Z</time>
      </trkpt>
      <trkpt lat="49.79254" lon="2.44303">
        <ele>95.6</ele>
        <time>2023-08-23T08:06:00Z</time>
      </trkpt>
      <trkpt lat="49.79256" lon="2.44301">
        <ele>95.6</ele>
        <time>2023-08-23T08:06:02Z</time>
      </trkpt>
      <trkpt lat="49.79256" lon="2.443">
        <ele>95.6</ele>
        <time>2023-08-23T08:06:03Z</time>
      </trkpt>
      <trkpt lat="49.79257" lon="2.44299">
        <ele>95.6</ele>
        <time>2023-08-23T08:06:04Z</time>
      </trkpt>
      <trkpt lat="49.79258" lon="2.44298">
        <ele>95.6</ele>
        <time>2023-08-23T08:06:06Z</time>
      </trkpt>
      <trkpt lat="49.7926" lon="2.44296">
        <ele>95.6</ele>
        <time>2023-08-23T08:06:07Z</time>
      </trkpt>
      <trkpt lat="49.79261" lon="2.44295">
        <ele>95.6</ele>
        <time>2023-08-23T08:06:08Z</time>
      </trkpt>
      <trkpt lat="49.79262" lon="2.44293">
        <ele>95.6</ele>
        <time>2023-08-23T08:06:09Z</time>
      </trkpt>
      <trkpt lat="49.79264" lon="2.44291">
        <ele>95.6</ele>
        <time>2023-08-23T08:06:10Z</time>
      </trkpt>
      <trkpt lat="49.79264" lon="2.4429">
        <ele>95.6</ele>
        <time>2023-08-23T08:06:11Z</time>
      </trkpt>
      <trkpt lat="49.79265" lon="2.4429">
        <ele>95.6</ele>
        <time>2023-08-23T08:06:12Z</time>
      </trkpt>
      <trkpt lat="49.79266" lon="2.44288">
        <ele>95.6</ele>
        <time>2023-08-23T08:06:14Z</time>
      </trkpt>
      <trkpt lat="49.79267" lon="2.44287">
        <ele>95.6</ele>
        <time>2023-08-23T08:06:15Z</time>
      </trkpt>
      <trkpt lat="49.79269" lon="2.44286">
        <ele>95.6</ele>
        <time>2023-08-23T08:06:16Z</time>
      </trkpt>
      <trkpt lat="49.7927" lon="2.44284">
        <ele>95.6</ele>
        <time>2023-08-23T08:06:17Z</time>
      </trkpt>
      <trkpt lat="49.79271" lon="2.44284">
        <ele>95.6</ele>
        <time>2023-08-23T08:06:18Z</time>
      </trkpt>
      <trkpt lat="49.79272" lon="2.44283">
        <ele>95.5</ele>
        <time>2023-08-23T08:06:19Z</time>
      </trkpt>
      <trkpt lat="49.79274" lon="2.44282">
        <ele>95.5</ele>
        <time>2023-08-23T08:06:20Z</time>
      </trkpt>
      <trkpt lat="49.79275" lon="2.44282">
        <ele>95.5</ele>
        <time>2023-08-23T08:06:22Z</time>
      </trkpt>
      <trkpt lat="49.79276" lon="2.44282">
        <ele>95.5</ele>
        <time>2023-08-23T08:06:23Z</time>
      </trkpt>
      <trkpt lat="49.79278" lon="2.44281">
        <ele>95.5</ele>
        <time>2023-08-23T08:06:24Z</time>
      </trkpt>
      <trkpt lat="49.79279" lon="2.4428">
        <ele>95.5</ele>
        <time>2023-08-23T08:06:25Z</time>
      </trkpt>
      <trkpt lat="49.79279" lon="2.4428">
        <ele>95.5</ele>
        <time>2023-08-23T08:06:26Z</time>
      </trkpt>
      <trkpt lat="49.79281" lon="2.44278">
        <ele>95.5</ele>
        <time>2023-08-23T08:06:28Z</time>
      </trkpt>
      <trkpt lat="49.79282" lon="2.44277">
        <ele>95.4</ele>
        <time>2023-08-23T08:06:29Z</time>
      </trkpt>
      <trkpt lat="49.79284" lon="2.44275">
        <ele>95.4</ele>
        <time>2023-08-23T08:06:30Z</time>
      </trkpt>
      <trkpt lat="49.79285" lon="2.44275">
        <ele>95.4</ele>
        <time>2023-08-23T08:06:32Z</time>
      </trkpt>
      <trkpt lat="49.79286" lon="2.44274">
        <ele>95.4</ele>
        <time>2023-08-23T08:06:33Z</time>
      </trkpt>
      <trkpt lat="49.79287" lon="2.44273">
        <ele>95.4</ele>
        <time>2023-08-23T08:06:34Z</time>
      </trkpt>
      <trkpt lat="49.79288" lon="2.44272">
        <ele>95.4</ele>
        <time>2023-08-23T08:06:35Z</time>
      </trkpt>
      <trkpt lat="49.7929" lon="2.44271">
        <ele>95.4</ele>
        <time>2023-08-23T08:06:36Z</time>
      </trkpt>
      <trkpt lat="49.79291" lon="2.4427">
        <ele>95.3</ele>
        <time>2023-08-23T08:06:38Z</time>
      </trkpt>
      <trkpt lat="49.79292" lon="2.44269">
        <ele>95.3</ele>
        <time>2023-08-23T08:06:40Z</time>
      </trkpt>
      <trkpt lat="49.79293" lon="2.44268">
        <ele>95.3</ele>
        <time>2023-08-23T08:06:41Z</time>
      </trkpt>
      <trkpt lat="49.79294" lon="2.44267">
        <ele>95.3</ele>
        <time>2023-08-23T08:06:42Z</time>
      </trkpt>
      <trkpt lat="49.79296" lon="2.44266">
        <ele>95.3</ele>
        <time>2023-08-23T08:06:43Z</time>
      </trkpt>
      <trkpt lat="49.79297" lon="2.44266">
        <ele>95.2</ele>
        <time>2023-08-23T08:06:44Z</time>
      </trkpt>
      <trkpt lat="49.79299" lon="2.44264">
        <ele>95.2</ele>
        <time>2023-08-23T08:06:45Z</time>
      </trkpt>
      <trkpt lat="49.793" lon="2.44263">
        <ele>95.2</ele>
        <time>2023-08-23T08:06:47Z</time>
      </trkpt>
      <trkpt lat="49.79302" lon="2.44262">
        <ele>95.1</ele>
        <time>2023-08-23T08:06:48Z</time>
      </trkpt>
      <trkpt lat="49.79303" lon="2.44261">
        <ele>95.1</ele>
        <time>2023-08-23T08:06:50Z</time>
      </trkpt>
      <trkpt lat="49.79304" lon="2.4426">
        <ele>95.1</ele>
        <time>2023-08-23T08:06:51Z</time>
      </trkpt>
      <trkpt lat="49.79305" lon="2.44259">
        <ele>95.1</ele>
        <time>2023-08-23T08:06:52Z</time>
      </trkpt>
      <trkpt lat="49.79306" lon="2.44258">
        <ele>95.1</ele>
        <time>2023-08-23T08:06:53Z</time>
      </trkpt>
      <trkpt lat="49.79308" lon="2.44257">
        <ele>95</ele>
        <time>2023-08-23T08:06:54Z</time>
      </trkpt>
      <trkpt lat="49.79309" lon="2.44256">
        <ele>95</ele>
        <time>2023-08-23T08:06:55Z</time>
      </trkpt>
      <trkpt lat="49.79309" lon="2.44255">
        <ele>95</ele>
        <time>2023-08-23T08:06:56Z</time>
      </trkpt>
      <trkpt lat="49.79312" lon="2.44253">
        <ele>94.9</ele>
        <time>2023-08-23T08:06:57Z</time>
      </trkpt>
      <trkpt lat="49.79313" lon="2.44252">
        <ele>94.9</ele>
        <time>2023-08-23T08:06:59Z</time>
      </trkpt>
      <trkpt lat="49.79314" lon="2.44251">
        <ele>94.9</ele>
        <time>2023-08-23T08:07:00Z</time>
      </trkpt>
      <trkpt lat="49.79316" lon="2.44249">
        <ele>94.8</ele>
        <time>2023-08-23T08:07:02Z</time>
      </trkpt>
      <trkpt lat="49.79317" lon="2.44248">
        <ele>94.8</ele>
        <time>2023-08-23T08:07:03Z</time>
      </trkpt>
      <trkpt lat="49.79318" lon="2.44247">
        <ele>94.8</ele>
        <time>2023-08-23T08:07:04Z</time>
      </trkpt>
      <trkpt lat="49.79319" lon="2.44246">
        <ele>94.7</ele>
        <time>2023-08-23T08:07:05Z</time>
      </trkpt>
      <trkpt lat="49.7932" lon="2.44245">
        <ele>94.7</ele>
        <time>2023-08-23T08:07:06Z</time>
      </trkpt>
      <trkpt lat="49.79323" lon="2.44243">
        <ele>94.7</ele>
        <time>2023-08-23T08:07:08Z</time>
      </trkpt>
      <trkpt lat="49.79324" lon="2.44242">
        <ele>94.6</ele>
        <time>2023-08-23T08:07:10Z</time>
      </trkpt>
      <trkpt lat="49.79324" lon="2.44241">
        <ele>94.6</ele>
        <time>2023-08-23T08:07:11Z</time>
      </trkpt>
      <trkpt lat="49.79325" lon="2.4424">
        <ele>94.6</ele>
        <time>2023-08-23T08:07:12Z</time>
      </trkpt>
      <trkpt lat="49.79326" lon="2.44239">
        <ele>94.6</ele>
        <time>2023-08-23T08:07:13Z</time>
      </trkpt>
      <trkpt lat="49.79328" lon="2.44237">
        <ele>94.5</ele>
        <time>2023-08-23T08:07:14Z</time>
      </trkpt>
      <trkpt lat="49.79328" lon="2.44237">
        <ele>94.5</ele>
        <time>2023-08-23T08:07:15Z</time>
      </trkpt>
      <trkpt lat="49.79329" lon="2.44236">
        <ele>94.5</ele>
        <time>2023-08-23T08:07:16Z</time>
      </trkpt>
      <trkpt lat="49.7933" lon="2.44235">
        <ele>94.4</ele>
        <time>2023-08-23T08:07:17Z</time>
      </trkpt>
      <trkpt lat="49.79331" lon="2.44234">
        <ele>94.4</ele>
        <time>2023-08-23T08:07:18Z</time>
      </trkpt>
      <trkpt lat="49.79332" lon="2.44233">
        <ele>94.4</ele>
        <time>2023-08-23T08:07:20Z</time>
      </trkpt>
      <trkpt lat="49.79334" lon="2.44231">
        <ele>94.3</ele>
        <time>2023-08-23T08:07:21Z</time>
      </trkpt>
      <trkpt lat="49.79335" lon="2.44231">
        <ele>94.3</ele>
        <time>2023-08-23T08:07:22Z</time>
      </trkpt>
      <trkpt lat="49.79336" lon="2.4423">
        <ele>94.3</ele>
        <time>2023-08-23T08:07:23Z</time>
      </trkpt>
      <trkpt lat="49.79337" lon="2.44229">
        <ele>94.2</ele>
        <time>2023-08-23T08:07:24Z</time>
      </trkpt>
      <trkpt lat="49.79338" lon="2.44228">
        <ele>94.2</ele>
        <time>2023-08-23T08:07:25Z</time>
      </trkpt>
      <trkpt lat="49.79338" lon="2.44227">
        <ele>94.2</ele>
        <time>2023-08-23T08:07:26Z</time>
      </trkpt>
      <trkpt lat="49.79339" lon="2.44226">
        <ele>94.1</ele>
        <time>2023-08-23T08:07:27Z</time>
      </trkpt>
      <trkpt lat="49.7934" lon="2.44225">
        <ele>94.1</ele>
        <time>2023-08-23T08:07:28Z</time>
      </trkpt>
      <trkpt lat="49.79341" lon="2.44224">
        <ele>94.1</ele>
        <time>2023-08-23T08:07:30Z</time>
      </trkpt>
      <trkpt lat="49.79343" lon="2.44222">
        <ele>94</ele>
        <time>2023-08-23T08:07:32Z</time>
      </trkpt>
      <trkpt lat="49.79346" lon="2.4422">
        <ele>93.9</ele>
        <time>2023-08-23T08:07:33Z</time>
      </trkpt>
      <trkpt lat="49.79347" lon="2.44218">
        <ele>93.9</ele>
        <time>2023-08-23T08:07:35Z</time>
      </trkpt>
      <trkpt lat="49.79347" lon="2.44217">
        <ele>93.8</ele>
        <time>2023-08-23T08:07:36Z</time>
      </trkpt>
      <trkpt lat="49.79348" lon="2.44216">
        <ele>93.8</ele>
        <time>2023-08-23T08:07:37Z</time>
      </trkpt>
      <trkpt lat="49.79349" lon="2.44216">
        <ele>93.8</ele>
        <time>2023-08-23T08:07:38Z</time>
      </trkpt>
      <trkpt lat="49.7935" lon="2.44215">
        <ele>93.8</ele>
        <time>2023-08-23T08:07:39Z</time>
      </trkpt>
      <trkpt lat="49.79352" lon="2.44214">
        <ele>93.7</ele>
        <time>2023-08-23T08:07:40Z</time>
      </trkpt>
      <trkpt lat="49.79353" lon="2.44213">
        <ele>93.7</ele>
        <time>2023-08-23T08:07:41Z</time>
      </trkpt>
      <trkpt lat="49.79354" lon="2.44212">
        <ele>93.7</ele>
        <time>2023-08-23T08:07:42Z</time>
      </trkpt>
      <trkpt lat="49.79356" lon="2.44211">
        <ele>93.6</ele>
        <time>2023-08-23T08:07:44Z</time>
      </trkpt>
      <trkpt lat="49.79357" lon="2.4421">
        <ele>93.6</ele>
        <time>2023-08-23T08:07:45Z</time>
      </trkpt>
      <trkpt lat="49.79358" lon="2.4421">
        <ele>93.6</ele>
        <time>2023-08-23T08:07:46Z</time>
      </trkpt>
      <trkpt lat="49.79358" lon="2.44208">
        <ele>93.6</ele>
        <time>2023-08-23T08:07:47Z</time>
      </trkpt>
      <trkpt lat="49.79358" lon="2.44207">
        <ele>93.6</ele>
        <time>2023-08-23T08:07:48Z</time>
      </trkpt>
      <trkpt lat="49.79358" lon="2.44205">
        <ele>93.6</ele>
        <time>2023-08-23T08:07:49Z</time>
      </trkpt>
      <trkpt lat="49.79359" lon="2.44203">
        <ele>93.5</ele>
        <time>2023-08-23T08:07:50Z</time>
      </trkpt>
      <trkpt lat="49.79359" lon="2.44201">
        <ele>93.5</ele>
        <time>2023-08-23T08:07:51Z</time>
      </trkpt>
      <trkpt lat="49.79359" lon="2.442">
        <ele>93.5</ele>
        <time>2023-08-23T08:07:53Z</time>
      </trkpt>
      <trkpt lat="49.7936" lon="2.44199">
        <ele>93.5</ele>
        <time>2023-08-23T08:07:54Z</time>
      </trkpt>
      <trkpt lat="49.7936" lon="2.44197">
        <ele>93.5</ele>
        <time>2023-08-23T08:07:55Z</time>
      </trkpt>
      <trkpt lat="49.79361" lon="2.44196">
        <ele>93.5</ele>
        <time>2023-08-23T08:07:56Z</time>
      </trkpt>
      <trkpt lat="49.79362" lon="2.44195">
        <ele>93.5</ele>
        <time>2023-08-23T08:07:57Z</time>
      </trkpt>
      <trkpt lat="49.79363" lon="2.44194">
        <ele>93.5</ele>
        <time>2023-08-23T08:07:58Z</time>
      </trkpt>
      <trkpt lat="49.79363" lon="2.44193">
        <ele>93.5</ele>
        <time>2023-08-23T08:07:59Z</time>
      </trkpt>
      <trkpt lat="49.79364" lon="2.44191">
        <ele>93.5</ele>
        <time>2023-08-23T08:08:00Z</time>
      </trkpt>
      <trkpt lat="49.79364" lon="2.4419">
        <ele>93.5</ele>
        <time>2023-08-23T08:08:02Z</time>
      </trkpt>
      <trkpt lat="49.79365" lon="2.44188">
        <ele>93.5</ele>
        <time>2023-08-23T08:08:03Z</time>
      </trkpt>
      <trkpt lat="49.79365" lon="2.44186">
        <ele>93.5</ele>
        <time>2023-08-23T08:08:04Z</time>
      </trkpt>
      <trkpt lat="49.79365" lon="2.44185">
        <ele>93.5</ele>
        <time>2023-08-23T08:08:05Z</time>
      </trkpt>
      <trkpt lat="49.79365" lon="2.44184">
        <ele>93.5</ele>
        <time>2023-08-23T08:08:06Z</time>
      </trkpt>
      <trkpt lat="49.79364" lon="2.44183">
        <ele>93.5</ele>
        <time>2023-08-23T08:08:07Z</time>
      </trkpt>
      <trkpt lat="49.79364" lon="2.44182">
        <ele>93.5</ele>
        <time>2023-08-23T08:08:08Z</time>
      </trkpt>
      <trkpt lat="49.79364" lon="2.4418">
        <ele>93.5</ele>
        <time>2023-08-23T08:08:09Z</time>
      </trkpt>
      <trkpt lat="49.79364" lon="2.44179">
        <ele>93.5</ele>
        <time>2023-08-23T08:08:11Z</time>
      </trkpt>
      <trkpt lat="49.79364" lon="2.44177">
        <ele>93.5</ele>
        <time>2023-08-23T08:08:12Z</time>
      </trkpt>
      <trkpt lat="49.79364" lon="2.44176">
        <ele>93.5</ele>
        <time>2023-08-23T08:08:13Z</time>
      </trkpt>
      <trkpt lat="49.79363" lon="2.44174">
        <ele>93.6</ele>
        <time>2023-08-23T08:08:14Z</time>
      </trkpt>
      <trkpt lat="49.79361" lon="2.44171">
        <ele>93.6</ele>
        <time>2023-08-23T08:08:16Z</time>
      </trkpt>
      <trkpt lat="49.7936" lon="2.4417">
        <ele>93.6</ele>
        <time>2023-08-23T08:08:18Z</time>
      </trkpt>
      <trkpt lat="49.7936" lon="2.44168">
        <ele>93.6</ele>
        <time>2023-08-23T08:08:19Z</time>
      </trkpt>
      <trkpt lat="49.79359" lon="2.44167">
        <ele>93.6</ele>
        <time>2023-08-23T08:08:20Z</time>
      </trkpt>
      <trkpt lat="49.79358" lon="2.44166">
        <ele>93.7</ele>
        <time>2023-08-23T08:08:21Z</time>
      </trkpt>
      <trkpt lat="49.79358" lon="2.44164">
        <ele>93.7</ele>
        <time>2023-08-23T08:08:22Z</time>
      </trkpt>
      <trkpt lat="49.79357" lon="2.44163">
        <ele>93.7</ele>
        <time>2023-08-23T08:08:23Z</time>
      </trkpt>
      <trkpt lat="49.79357" lon="2.44161">
        <ele>93.7</ele>
        <time>2023-08-23T08:08:25Z</time>
      </trkpt>
      <trkpt lat="49.79356" lon="2.4416">
        <ele>93.8</ele>
        <time>2023-08-23T08:08:26Z</time>
      </trkpt>
      <trkpt lat="49.79356" lon="2.44159">
        <ele>93.8</ele>
        <time>2023-08-23T08:08:27Z</time>
      </trkpt>
      <trkpt lat="49.79356" lon="2.44159">
        <ele>93.8</ele>
        <time>2023-08-23T08:08:29Z</time>
      </trkpt>
      <trkpt lat="49.79355" lon="2.44159">
        <ele>93.8</ele>
        <time>2023-08-23T08:08:30Z</time>
      </trkpt>
      <trkpt lat="49.79354" lon="2.44159">
        <ele>93.8</ele>
        <time>2023-08-23T08:08:31Z</time>
      </trkpt>
      <trkpt lat="49.79353" lon="2.44159">
        <ele>93.8</ele>
        <time>2023-08-23T08:08:33Z</time>
      </trkpt>
      <trkpt lat="49.79353" lon="2.44159">
        <ele>93.8</ele>
        <time>2023-08-23T08:08:34Z</time>
      </trkpt>
      <trkpt lat="49.79353" lon="2.4416">
        <ele>93.8</ele>
        <time>2023-08-23T08:08:36Z</time>
      </trkpt>
      <trkpt lat="49.79353" lon="2.44159">
        <ele>93.8</ele>
        <time>2023-08-23T08:08:37Z</time>
      </trkpt>
      <trkpt lat="49.79352" lon="2.44159">
        <ele>93.8</ele>
        <time>2023-08-23T08:08:38Z</time>
      </trkpt>
      <trkpt lat="49.79352" lon="2.44158">
        <ele>93.9</ele>
        <time>2023-08-23T08:08:39Z</time>
      </trkpt>
      <trkpt lat="49.79352" lon="2.44157">
        <ele>93.9</ele>
        <time>2023-08-23T08:08:40Z</time>
      </trkpt>
      <trkpt lat="49.79351" lon="2.44155">
        <ele>93.9</ele>
        <time>2023-08-23T08:08:41Z</time>
      </trkpt>
      <trkpt lat="49.79351" lon="2.44154">
        <ele>93.9</ele>
        <time>2023-08-23T08:08:43Z</time>
      </trkpt>
      <trkpt lat="49.79351" lon="2.44153">
        <ele>93.9</ele>
        <time>2023-08-23T08:08:44Z</time>
      </trkpt>
      <trkpt lat="49.79351" lon="2.44152">
        <ele>93.9</ele>
        <time>2023-08-23T08:08:45Z</time>
      </trkpt>
      <trkpt lat="49.79351" lon="2.44152">
        <ele>93.9</ele>
        <time>2023-08-23T08:08:46Z</time>
      </trkpt>
      <trkpt lat="49.79351" lon="2.44152">
        <ele>93.9</ele>
        <time>2023-08-23T08:08:48Z</time>
      </trkpt>
      <trkpt lat="49.79351" lon="2.44152">
        <ele>93.9</ele>
        <time>2023-08-23T08:08:49Z</time>
      </trkpt>
      <trkpt lat="49.79351" lon="2.44152">
        <ele>93.9</ele>
        <time>2023-08-23T08:08:50Z</time>
      </trkpt>
      <trkpt lat="49.79351" lon="2.44152">
        <ele>93.9</ele>
        <time>2023-08-23T08:08:51Z</time>
      </trkpt>
      <trkpt lat="49.79351" lon="2.44153">
        <ele>93.9</ele>
        <time>2023-08-23T08:08:53Z</time>
      </trkpt>
      <trkpt lat="49.79352" lon="2.44153">
        <ele>93.9</ele>
        <time>2023-08-23T08:08:55Z</time>
      </trkpt>
      <trkpt lat="49.79352" lon="2.44153">
        <ele>93.9</ele>
        <time>2023-08-23T08:08:56Z</time>
      </trkpt>
      <trkpt lat="49.79352" lon="2.44153">
        <ele>93.9</ele>
        <time>2023-08-23T08:08:57Z</time>
      </trkpt>
      <trkpt lat="49.79352" lon="2.44153">
        <ele>93.9</ele>
        <time>2023-08-23T08:08:58Z</time>
      </trkpt>
      <trkpt lat="49.79352" lon="2.44154">
        <ele>93.9</ele>
        <time>2023-08-23T08:09:00Z</time>
      </trkpt>
      <trkpt lat="49.79352" lon="2.44154">
        <ele>93.9</ele>
        <time>2023-08-23T08:09:02Z</time>
      </trkpt>
      <trkpt lat="49.79352" lon="2.44154">
        <ele>93.9</ele>
        <time>2023-08-23T08:09:04Z</time>
      </trkpt>
      <trkpt lat="49.79352" lon="2.44154">
        <ele>93.9</ele>
        <time>2023-08-23T08:09:05Z</time>
      </trkpt>
      <trkpt lat="49.79352" lon="2.44154">
        <ele>94</ele>
        <time>2023-08-23T08:09:06Z</time>
      </trkpt>
      <trkpt lat="49.79352" lon="2.44154">
        <ele>94</ele>
        <time>2023-08-23T08:09:08Z</time>
      </trkpt>
      <trkpt lat="49.79353" lon="2.44155">
        <ele>94</ele>
        <time>2023-08-23T08:09:09Z</time>
      </trkpt>
      <trkpt lat="49.79353" lon="2.44155">
        <ele>94</ele>
        <time>2023-08-23T08:09:10Z</time>
      </trkpt>
      <trkpt lat="49.79353" lon="2.44155">
        <ele>94</ele>
        <time>2023-08-23T08:09:11Z</time>
      </trkpt>
      <trkpt lat="49.79353" lon="2.44155">
        <ele>94</ele>
        <time>2023-08-23T08:09:12Z</time>
      </trkpt>
      <trkpt lat="49.79353" lon="2.44155">
        <ele>94</ele>
        <time>2023-08-23T08:09:13Z</time>
      </trkpt>
      <trkpt lat="49.79353" lon="2.44155">
        <ele>94</ele>
        <time>2023-08-23T08:09:15Z</time>
      </trkpt>
      <trkpt lat="49.79353" lon="2.44156">
        <ele>94</ele>
        <time>2023-08-23T08:09:16Z</time>
      </trkpt>
      <trkpt lat="49.79353" lon="2.44156">
        <ele>94</ele>
        <time>2023-08-23T08:09:17Z</time>
      </trkpt>
      <trkpt lat="49.79353" lon="2.44156">
        <ele>94</ele>
        <time>2023-08-23T08:09:19Z</time>
      </trkpt>
      <trkpt lat="49.79354" lon="2.44156">
        <ele>94</ele>
        <time>2023-08-23T08:09:21Z</time>
      </trkpt>
      <trkpt lat="49.79354" lon="2.44156">
        <ele>94</ele>
        <time>2023-08-23T08:09:22Z</time>
      </trkpt>
      <trkpt lat="49.79354" lon="2.44157">
        <ele>94</ele>
        <time>2023-08-23T08:09:23Z</time>
      </trkpt>
      <trkpt lat="49.79354" lon="2.44157">
        <ele>94</ele>
        <time>2023-08-23T08:09:24Z</time>
      </trkpt>
      <trkpt lat="49.79354" lon="2.44157">
        <ele>94</ele>
        <time>2023-08-23T08:09:26Z</time>
      </trkpt>
      <trkpt lat="49.79354" lon="2.44157">
        <ele>94</ele>
        <time>2023-08-23T08:09:28Z</time>
      </trkpt>
      <trkpt lat="49.79354" lon="2.44157">
        <ele>94</ele>
        <time>2023-08-23T08:09:29Z</time>
      </trkpt>
      <trkpt lat="49.79354" lon="2.44157">
        <ele>94</ele>
        <time>2023-08-23T08:09:31Z</time>
      </trkpt>
      <trkpt lat="49.79354" lon="2.44158">
        <ele>94</ele>
        <time>2023-08-23T08:09:32Z</time>
      </trkpt>
      <trkpt lat="49.79354" lon="2.44158">
        <ele>94</ele>
        <time>2023-08-23T08:09:34Z</time>
      </trkpt>
      <trkpt lat="49.79355" lon="2.44158">
        <ele>94</ele>
        <time>2023-08-23T08:09:36Z</time>
      </trkpt>
      <trkpt lat="49.79355" lon="2.44158">
        <ele>94</ele>
        <time>2023-08-23T08:09:38Z</time>
      </trkpt>
      <trkpt lat="49.79355" lon="2.44158">
        <ele>94</ele>
        <time>2023-08-23T08:09:39Z</time>
      </trkpt>
      <trkpt lat="49.79355" lon="2.44158">
        <ele>94</ele>
        <time>2023-08-23T08:09:40Z</time>
      </trkpt>
      <trkpt lat="49.79355" lon="2.44159">
        <ele>94</ele>
        <time>2023-08-23T08:09:42Z</time>
      </trkpt>
      <trkpt lat="49.79355" lon="2.44159">
        <ele>94</ele>
        <time>2023-08-23T08:09:43Z</time>
      </trkpt>
      <trkpt lat="49.79355" lon="2.44159">
        <ele>94</ele>
        <time>2023-08-23T08:09:44Z</time>
      </trkpt>
      <trkpt lat="49.79355" lon="2.44159">
        <ele>94</ele>
        <time>2023-08-23T08:09:45Z</time>
      </trkpt>
      <trkpt lat="49.79355" lon="2.44159">
        <ele>94</ele>
        <time>2023-08-23T08:09:46Z</time>
      </trkpt>
      <trkpt lat="49.79357" lon="2.44164">
        <ele>94</ele>
        <time>2023-08-23T08:09:47Z</time>
      </trkpt>
      <trkpt lat="49.79356" lon="2.4416">
        <ele>94</ele>
        <time>2023-08-23T08:09:48Z</time>
      </trkpt>
      <trkpt lat="49.79355" lon="2.44159">
        <ele>94</ele>
        <time>2023-08-23T08:09:49Z</time>
      </trkpt>
      <trkpt lat="49.79354" lon="2.44157">
        <ele>94</ele>
        <time>2023-08-23T08:09:50Z</time>
      </trkpt>
      <trkpt lat="49.79353" lon="2.44156">
        <ele>94</ele>
        <time>2023-08-23T08:09:51Z</time>
      </trkpt>
      <trkpt lat="49.79353" lon="2.44154">
        <ele>94</ele>
        <time>2023-08-23T08:09:53Z</time>
      </trkpt>
      <trkpt lat="49.79352" lon="2.44152">
        <ele>94</ele>
        <time>2023-08-23T08:09:54Z</time>
      </trkpt>
      <trkpt lat="49.79351" lon="2.44151">
        <ele>94</ele>
        <time>2023-08-23T08:09:55Z</time>
      </trkpt>
      <trkpt lat="49.7935" lon="2.44149">
        <ele>94</ele>
        <time>2023-08-23T08:09:56Z</time>
      </trkpt>
      <trkpt lat="49.79349" lon="2.44147">
        <ele>94</ele>
        <time>2023-08-23T08:09:57Z</time>
      </trkpt>
      <trkpt lat="49.79348" lon="2.44145">
        <ele>94</ele>
        <time>2023-08-23T08:09:58Z</time>
      </trkpt>
      <trkpt lat="49.79347" lon="2.44143">
        <ele>94</ele>
        <time>2023-08-23T08:10:00Z</time>
      </trkpt>
      <trkpt lat="49.79345" lon="2.44141">
        <ele>94</ele>
        <time>2023-08-23T08:10:01Z</time>
      </trkpt>
      <trkpt lat="49.79344" lon="2.44139">
        <ele>94</ele>
        <time>2023-08-23T08:10:02Z</time>
      </trkpt>
      <trkpt lat="49.79343" lon="2.44137">
        <ele>94</ele>
        <time>2023-08-23T08:10:03Z</time>
      </trkpt>
      <trkpt lat="49.79342" lon="2.44136">
        <ele>94</ele>
        <time>2023-08-23T08:10:04Z</time>
      </trkpt>
      <trkpt lat="49.79341" lon="2.44134">
        <ele>94</ele>
        <time>2023-08-23T08:10:05Z</time>
      </trkpt>
      <trkpt lat="49.7934" lon="2.44132">
        <ele>94</ele>
        <time>2023-08-23T08:10:06Z</time>
      </trkpt>
      <trkpt lat="49.79338" lon="2.44131">
        <ele>94</ele>
        <time>2023-08-23T08:10:08Z</time>
      </trkpt>
      <trkpt lat="49.79337" lon="2.44129">
        <ele>94</ele>
        <time>2023-08-23T08:10:09Z</time>
      </trkpt>
      <trkpt lat="49.79336" lon="2.44125">
        <ele>94</ele>
        <time>2023-08-23T08:10:10Z</time>
      </trkpt>
      <trkpt lat="49.79335" lon="2.44124">
        <ele>94</ele>
        <time>2023-08-23T08:10:11Z</time>
      </trkpt>
      <trkpt lat="49.79333" lon="2.4412">
        <ele>94</ele>
        <time>2023-08-23T08:10:12Z</time>
      </trkpt>
      <trkpt lat="49.79333" lon="2.44119">
        <ele>94.1</ele>
        <time>2023-08-23T08:10:13Z</time>
      </trkpt>
      <trkpt lat="49.79331" lon="2.44117">
        <ele>94.1</ele>
        <time>2023-08-23T08:10:14Z</time>
      </trkpt>
      <trkpt lat="49.79331" lon="2.44116">
        <ele>94.1</ele>
        <time>2023-08-23T08:10:15Z</time>
      </trkpt>
      <trkpt lat="49.79329" lon="2.44113">
        <ele>94.1</ele>
        <time>2023-08-23T08:10:16Z</time>
      </trkpt>
      <trkpt lat="49.79329" lon="2.44111">
        <ele>94.1</ele>
        <time>2023-08-23T08:10:18Z</time>
      </trkpt>
      <trkpt lat="49.79328" lon="2.4411">
        <ele>94.1</ele>
        <time>2023-08-23T08:10:19Z</time>
      </trkpt>
      <trkpt lat="49.79327" lon="2.44109">
        <ele>94.1</ele>
        <time>2023-08-23T08:10:20Z</time>
      </trkpt>
      <trkpt lat="49.79327" lon="2.44107">
        <ele>94.1</ele>
        <time>2023-08-23T08:10:21Z</time>
      </trkpt>
      <trkpt lat="49.79325" lon="2.44105">
        <ele>94.1</ele>
        <time>2023-08-23T08:10:22Z</time>
      </trkpt>
      <trkpt lat="49.79325" lon="2.44104">
        <ele>94.1</ele>
        <time>2023-08-23T08:10:23Z</time>
      </trkpt>
      <trkpt lat="49.79324" lon="2.44103">
        <ele>94.1</ele>
        <time>2023-08-23T08:10:24Z</time>
      </trkpt>
      <trkpt lat="49.79323" lon="2.441">
        <ele>94.1</ele>
        <time>2023-08-23T08:10:26Z</time>
      </trkpt>
      <trkpt lat="49.79322" lon="2.44099">
        <ele>94.1</ele>
        <time>2023-08-23T08:10:27Z</time>
      </trkpt>
      <trkpt lat="49.79322" lon="2.44098">
        <ele>94.1</ele>
        <time>2023-08-23T08:10:28Z</time>
      </trkpt>
      <trkpt lat="49.79321" lon="2.44097">
        <ele>94.1</ele>
        <time>2023-08-23T08:10:29Z</time>
      </trkpt>
      <trkpt lat="49.79321" lon="2.44095">
        <ele>94.1</ele>
        <time>2023-08-23T08:10:30Z</time>
      </trkpt>
      <trkpt lat="49.7932" lon="2.44094">
        <ele>94.1</ele>
        <time>2023-08-23T08:10:31Z</time>
      </trkpt>
      <trkpt lat="49.79319" lon="2.44092">
        <ele>94.1</ele>
        <time>2023-08-23T08:10:32Z</time>
      </trkpt>
      <trkpt lat="49.79319" lon="2.4409">
        <ele>94.1</ele>
        <time>2023-08-23T08:10:34Z</time>
      </trkpt>
      <trkpt lat="49.79318" lon="2.44088">
        <ele>94.1</ele>
        <time>2023-08-23T08:10:35Z</time>
      </trkpt>
      <trkpt lat="49.79317" lon="2.44086">
        <ele>94.2</ele>
        <time>2023-08-23T08:10:36Z</time>
      </trkpt>
      <trkpt lat="49.79316" lon="2.44083">
        <ele>94.2</ele>
        <time>2023-08-23T08:10:37Z</time>
      </trkpt>
      <trkpt lat="49.79315" lon="2.44082">
        <ele>94.2</ele>
        <time>2023-08-23T08:10:38Z</time>
      </trkpt>
      <trkpt lat="49.79315" lon="2.44081">
        <ele>94.2</ele>
        <time>2023-08-23T08:10:39Z</time>
      </trkpt>
      <trkpt lat="49.79314" lon="2.4408">
        <ele>94.2</ele>
        <time>2023-08-23T08:10:41Z</time>
      </trkpt>
      <trkpt lat="49.79313" lon="2.44078">
        <ele>94.2</ele>
        <time>2023-08-23T08:10:42Z</time>
      </trkpt>
      <trkpt lat="49.79313" lon="2.44077">
        <ele>94.2</ele>
        <time>2023-08-23T08:10:43Z</time>
      </trkpt>
      <trkpt lat="49.79312" lon="2.44075">
        <ele>94.2</ele>
        <time>2023-08-23T08:10:44Z</time>
      </trkpt>
      <trkpt lat="49.79311" lon="2.44073">
        <ele>94.3</ele>
        <time>2023-08-23T08:10:46Z</time>
      </trkpt>
      <trkpt lat="49.7931" lon="2.44071">
        <ele>94.3</ele>
        <time>2023-08-23T08:10:47Z</time>
      </trkpt>
      <trkpt lat="49.79309" lon="2.4407">
        <ele>94.3</ele>
        <time>2023-08-23T08:10:48Z</time>
      </trkpt>
      <trkpt lat="49.79309" lon="2.44069">
        <ele>94.3</ele>
        <time>2023-08-23T08:10:49Z</time>
      </trkpt>
      <trkpt lat="49.79308" lon="2.44068">
        <ele>94.3</ele>
        <time>2023-08-23T08:10:50Z</time>
      </trkpt>
      <trkpt lat="49.79307" lon="2.44067">
        <ele>94.4</ele>
        <time>2023-08-23T08:10:51Z</time>
      </trkpt>
      <trkpt lat="49.79306" lon="2.44065">
        <ele>94.4</ele>
        <time>2023-08-23T08:10:53Z</time>
      </trkpt>
      <trkpt lat="49.79305" lon="2.44063">
        <ele>94.4</ele>
        <time>2023-08-23T08:10:54Z</time>
      </trkpt>
      <trkpt lat="49.79305" lon="2.44061">
        <ele>94.4</ele>
        <time>2023-08-23T08:10:55Z</time>
      </trkpt>
      <trkpt lat="49.79304" lon="2.44058">
        <ele>94.5</ele>
        <time>2023-08-23T08:10:56Z</time>
      </trkpt>
      <trkpt lat="49.79303" lon="2.44057">
        <ele>94.5</ele>
        <time>2023-08-23T08:10:57Z</time>
      </trkpt>
      <trkpt lat="49.79303" lon="2.44056">
        <ele>94.5</ele>
        <time>2023-08-23T08:10:58Z</time>
      </trkpt>
      <trkpt lat="49.79302" lon="2.44054">
        <ele>94.5</ele>
        <time>2023-08-23T08:11:00Z</time>
      </trkpt>
      <trkpt lat="49.79301" lon="2.44052">
        <ele>94.5</ele>
        <time>2023-08-23T08:11:01Z</time>
      </trkpt>
      <trkpt lat="49.793" lon="2.44049">
        <ele>94.6</ele>
        <time>2023-08-23T08:11:02Z</time>
      </trkpt>
      <trkpt lat="49.79299" lon="2.44048">
        <ele>94.6</ele>
        <time>2023-08-23T08:11:04Z</time>
      </trkpt>
      <trkpt lat="49.79298" lon="2.44047">
        <ele>94.6</ele>
        <time>2023-08-23T08:11:05Z</time>
      </trkpt>
      <trkpt lat="49.79297" lon="2.44046">
        <ele>94.6</ele>
        <time>2023-08-23T08:11:06Z</time>
      </trkpt>
      <trkpt lat="49.79296" lon="2.44045">
        <ele>94.6</ele>
        <time>2023-08-23T08:11:07Z</time>
      </trkpt>
      <trkpt lat="49.79295" lon="2.44042">
        <ele>94.7</ele>
        <time>2023-08-23T08:11:08Z</time>
      </trkpt>
      <trkpt lat="49.79295" lon="2.44041">
        <ele>94.7</ele>
        <time>2023-08-23T08:11:09Z</time>
      </trkpt>
      <trkpt lat="49.79294" lon="2.4404">
        <ele>94.7</ele>
        <time>2023-08-23T08:11:10Z</time>
      </trkpt>
      <trkpt lat="49.79293" lon="2.44039">
        <ele>94.7</ele>
        <time>2023-08-23T08:11:11Z</time>
      </trkpt>
      <trkpt lat="49.79292" lon="2.44038">
        <ele>94.7</ele>
        <time>2023-08-23T08:11:12Z</time>
      </trkpt>
      <trkpt lat="49.79292" lon="2.44036">
        <ele>94.7</ele>
        <time>2023-08-23T08:11:14Z</time>
      </trkpt>
      <trkpt lat="49.79291" lon="2.44035">
        <ele>94.7</ele>
        <time>2023-08-23T08:11:15Z</time>
      </trkpt>
      <trkpt lat="49.79289" lon="2.44032">
        <ele>94.7</ele>
        <time>2023-08-23T08:11:16Z</time>
      </trkpt>
      <trkpt lat="49.79288" lon="2.4403">
        <ele>94.8</ele>
        <time>2023-08-23T08:11:18Z</time>
      </trkpt>
      <trkpt lat="49.79287" lon="2.44029">
        <ele>94.8</ele>
        <time>2023-08-23T08:11:19Z</time>
      </trkpt>
      <trkpt lat="49.79286" lon="2.44027">
        <ele>94.8</ele>
        <time>2023-08-23T08:11:20Z</time>
      </trkpt>
      <trkpt lat="49.79285" lon="2.44026">
        <ele>94.8</ele>
        <time>2023-08-23T08:11:21Z</time>
      </trkpt>
      <trkpt lat="49.79284" lon="2.44024">
        <ele>94.8</ele>
        <time>2023-08-23T08:11:22Z</time>
      </trkpt>
      <trkpt lat="49.79283" lon="2.44022">
        <ele>94.8</ele>
        <time>2023-08-23T08:11:24Z</time>
      </trkpt>
      <trkpt lat="49.79282" lon="2.44021">
        <ele>94.8</ele>
        <time>2023-08-23T08:11:25Z</time>
      </trkpt>
      <trkpt lat="49.79281" lon="2.4402">
        <ele>94.8</ele>
        <time>2023-08-23T08:11:26Z</time>
      </trkpt>
      <trkpt lat="49.79281" lon="2.44018">
        <ele>94.8</ele>
        <time>2023-08-23T08:11:27Z</time>
      </trkpt>
      <trkpt lat="49.7928" lon="2.44017">
        <ele>94.8</ele>
        <time>2023-08-23T08:11:28Z</time>
      </trkpt>
      <trkpt lat="49.79279" lon="2.44015">
        <ele>94.8</ele>
        <time>2023-08-23T08:11:29Z</time>
      </trkpt>
      <trkpt lat="49.79278" lon="2.44013">
        <ele>94.8</ele>
        <time>2023-08-23T08:11:30Z</time>
      </trkpt>
      <trkpt lat="49.79278" lon="2.44012">
        <ele>94.8</ele>
        <time>2023-08-23T08:11:31Z</time>
      </trkpt>
      <trkpt lat="49.79277" lon="2.44011">
        <ele>94.8</ele>
        <time>2023-08-23T08:11:32Z</time>
      </trkpt>
      <trkpt lat="49.79276" lon="2.44008">
        <ele>94.8</ele>
        <time>2023-08-23T08:11:34Z</time>
      </trkpt>
      <trkpt lat="49.79276" lon="2.44007">
        <ele>94.9</ele>
        <time>2023-08-23T08:11:35Z</time>
      </trkpt>
      <trkpt lat="49.79275" lon="2.44006">
        <ele>94.9</ele>
        <time>2023-08-23T08:11:36Z</time>
      </trkpt>
      <trkpt lat="49.79275" lon="2.44004">
        <ele>94.9</ele>
        <time>2023-08-23T08:11:37Z</time>
      </trkpt>
      <trkpt lat="49.79274" lon="2.44003">
        <ele>94.9</ele>
        <time>2023-08-23T08:11:38Z</time>
      </trkpt>
      <trkpt lat="49.79273" lon="2.44001">
        <ele>94.9</ele>
        <time>2023-08-23T08:11:39Z</time>
      </trkpt>
      <trkpt lat="49.79272" lon="2.43999">
        <ele>94.9</ele>
        <time>2023-08-23T08:11:41Z</time>
      </trkpt>
      <trkpt lat="49.79271" lon="2.43998">
        <ele>94.9</ele>
        <time>2023-08-23T08:11:42Z</time>
      </trkpt>
      <trkpt lat="49.79271" lon="2.43997">
        <ele>94.9</ele>
        <time>2023-08-23T08:11:43Z</time>
      </trkpt>
      <trkpt lat="49.7927" lon="2.43995">
        <ele>95</ele>
        <time>2023-08-23T08:11:44Z</time>
      </trkpt>
      <trkpt lat="49.79269" lon="2.43993">
        <ele>95</ele>
        <time>2023-08-23T08:11:45Z</time>
      </trkpt>
      <trkpt lat="49.79268" lon="2.43991">
        <ele>95</ele>
        <time>2023-08-23T08:11:46Z</time>
      </trkpt>
      <trkpt lat="49.79268" lon="2.4399">
        <ele>95</ele>
        <time>2023-08-23T08:11:48Z</time>
      </trkpt>
      <trkpt lat="49.79267" lon="2.43988">
        <ele>95.1</ele>
        <time>2023-08-23T08:11:49Z</time>
      </trkpt>
      <trkpt lat="49.79266" lon="2.43985">
        <ele>95.1</ele>
        <time>2023-08-23T08:11:50Z</time>
      </trkpt>
      <trkpt lat="49.79266" lon="2.43984">
        <ele>95.1</ele>
        <time>2023-08-23T08:11:51Z</time>
      </trkpt>
      <trkpt lat="49.79266" lon="2.43983">
        <ele>95.2</ele>
        <time>2023-08-23T08:11:52Z</time>
      </trkpt>
      <trkpt lat="49.79265" lon="2.4398">
        <ele>95.2</ele>
        <time>2023-08-23T08:11:53Z</time>
      </trkpt>
      <trkpt lat="49.79264" lon="2.43979">
        <ele>95.3</ele>
        <time>2023-08-23T08:11:54Z</time>
      </trkpt>
      <trkpt lat="49.79264" lon="2.43978">
        <ele>95.3</ele>
        <time>2023-08-23T08:11:55Z</time>
      </trkpt>
      <trkpt lat="49.79263" lon="2.43976">
        <ele>95.3</ele>
        <time>2023-08-23T08:11:57Z</time>
      </trkpt>
      <trkpt lat="49.79262" lon="2.43975">
        <ele>95.3</ele>
        <time>2023-08-23T08:11:58Z</time>
      </trkpt>
      <trkpt lat="49.79262" lon="2.43974">
        <ele>95.4</ele>
        <time>2023-08-23T08:11:59Z</time>
      </trkpt>
      <trkpt lat="49.7926" lon="2.43971">
        <ele>95.4</ele>
        <time>2023-08-23T08:12:00Z</time>
      </trkpt>
      <trkpt lat="49.7926" lon="2.4397">
        <ele>95.5</ele>
        <time>2023-08-23T08:12:01Z</time>
      </trkpt>
      <trkpt lat="49.79259" lon="2.43969">
        <ele>95.5</ele>
        <time>2023-08-23T08:12:02Z</time>
      </trkpt>
      <trkpt lat="49.79259" lon="2.43968">
        <ele>95.5</ele>
        <time>2023-08-23T08:12:03Z</time>
      </trkpt>
      <trkpt lat="49.79258" lon="2.43966">
        <ele>95.5</ele>
        <time>2023-08-23T08:12:04Z</time>
      </trkpt>
      <trkpt lat="49.79257" lon="2.43965">
        <ele>95.6</ele>
        <time>2023-08-23T08:12:05Z</time>
      </trkpt>
      <trkpt lat="49.79256" lon="2.43963">
        <ele>95.6</ele>
        <time>2023-08-23T08:12:07Z</time>
      </trkpt>
      <trkpt lat="49.79256" lon="2.43961">
        <ele>95.6</ele>
        <time>2023-08-23T08:12:08Z</time>
      </trkpt>
      <trkpt lat="49.79255" lon="2.4396">
        <ele>95.7</ele>
        <time>2023-08-23T08:12:09Z</time>
      </trkpt>
      <trkpt lat="49.79255" lon="2.43958">
        <ele>95.7</ele>
        <time>2023-08-23T08:12:10Z</time>
      </trkpt>
      <trkpt lat="49.79254" lon="2.43956">
        <ele>95.7</ele>
        <time>2023-08-23T08:12:11Z</time>
      </trkpt>
      <trkpt lat="49.79253" lon="2.43954">
        <ele>95.8</ele>
        <time>2023-08-23T08:12:12Z</time>
      </trkpt>
      <trkpt lat="49.79252" lon="2.43953">
        <ele>95.8</ele>
        <time>2023-08-23T08:12:13Z</time>
      </trkpt>
      <trkpt lat="49.79252" lon="2.43951">
        <ele>95.8</ele>
        <time>2023-08-23T08:12:14Z</time>
      </trkpt>
      <trkpt lat="49.79251" lon="2.4395">
        <ele>95.8</ele>
        <time>2023-08-23T08:12:15Z</time>
      </trkpt>
      <trkpt lat="49.7925" lon="2.43948">
        <ele>95.8</ele>
        <time>2023-08-23T08:12:17Z</time>
      </trkpt>
      <trkpt lat="49.79249" lon="2.43946">
        <ele>95.9</ele>
        <time>2023-08-23T08:12:18Z</time>
      </trkpt>
      <trkpt lat="49.79248" lon="2.43945">
        <ele>95.9</ele>
        <time>2023-08-23T08:12:19Z</time>
      </trkpt>
      <trkpt lat="49.79247" lon="2.43943">
        <ele>95.9</ele>
        <time>2023-08-23T08:12:20Z</time>
      </trkpt>
      <trkpt lat="49.79246" lon="2.43941">
        <ele>95.9</ele>
        <time>2023-08-23T08:12:21Z</time>
      </trkpt>
      <trkpt lat="49.79245" lon="2.4394">
        <ele>95.9</ele>
        <time>2023-08-23T08:12:22Z</time>
      </trkpt>
      <trkpt lat="49.79245" lon="2.43938">
        <ele>96</ele>
        <time>2023-08-23T08:12:23Z</time>
      </trkpt>
      <trkpt lat="49.79243" lon="2.43935">
        <ele>96</ele>
        <time>2023-08-23T08:12:25Z</time>
      </trkpt>
      <trkpt lat="49.79243" lon="2.43934">
        <ele>96</ele>
        <time>2023-08-23T08:12:26Z</time>
      </trkpt>
      <trkpt lat="49.79242" lon="2.43933">
        <ele>96</ele>
        <time>2023-08-23T08:12:27Z</time>
      </trkpt>
      <trkpt lat="49.7924" lon="2.4393">
        <ele>96</ele>
        <time>2023-08-23T08:12:28Z</time>
      </trkpt>
      <trkpt lat="49.7924" lon="2.43929">
        <ele>96</ele>
        <time>2023-08-23T08:12:29Z</time>
      </trkpt>
      <trkpt lat="49.79239" lon="2.43927">
        <ele>96.1</ele>
        <time>2023-08-23T08:12:31Z</time>
      </trkpt>
      <trkpt lat="49.79238" lon="2.43925">
        <ele>96.1</ele>
        <time>2023-08-23T08:12:32Z</time>
      </trkpt>
      <trkpt lat="49.79237" lon="2.43923">
        <ele>96.1</ele>
        <time>2023-08-23T08:12:33Z</time>
      </trkpt>
      <trkpt lat="49.79236" lon="2.43921">
        <ele>96.1</ele>
        <time>2023-08-23T08:12:34Z</time>
      </trkpt>
      <trkpt lat="49.79235" lon="2.43919">
        <ele>96.1</ele>
        <time>2023-08-23T08:12:35Z</time>
      </trkpt>
      <trkpt lat="49.79235" lon="2.43918">
        <ele>96.1</ele>
        <time>2023-08-23T08:12:36Z</time>
      </trkpt>
      <trkpt lat="49.79234" lon="2.43917">
        <ele>96.1</ele>
        <time>2023-08-23T08:12:37Z</time>
      </trkpt>
      <trkpt lat="49.79233" lon="2.43914">
        <ele>96.2</ele>
        <time>2023-08-23T08:12:39Z</time>
      </trkpt>
      <trkpt lat="49.79233" lon="2.43913">
        <ele>96.2</ele>
        <time>2023-08-23T08:12:40Z</time>
      </trkpt>
      <trkpt lat="49.79232" lon="2.43912">
        <ele>96.2</ele>
        <time>2023-08-23T08:12:41Z</time>
      </trkpt>
      <trkpt lat="49.79231" lon="2.4391">
        <ele>96.2</ele>
        <time>2023-08-23T08:12:42Z</time>
      </trkpt>
      <trkpt lat="49.7923" lon="2.43909">
        <ele>96.2</ele>
        <time>2023-08-23T08:12:43Z</time>
      </trkpt>
      <trkpt lat="49.7923" lon="2.43907">
        <ele>96.2</ele>
        <time>2023-08-23T08:12:44Z</time>
      </trkpt>
      <trkpt lat="49.79229" lon="2.43906">
        <ele>96.3</ele>
        <time>2023-08-23T08:12:45Z</time>
      </trkpt>
      <trkpt lat="49.79228" lon="2.43904">
        <ele>96.3</ele>
        <time>2023-08-23T08:12:46Z</time>
      </trkpt>
      <trkpt lat="49.79227" lon="2.43903">
        <ele>96.3</ele>
        <time>2023-08-23T08:12:48Z</time>
      </trkpt>
      <trkpt lat="49.79226" lon="2.43901">
        <ele>96.3</ele>
        <time>2023-08-23T08:12:49Z</time>
      </trkpt>
      <trkpt lat="49.79226" lon="2.43899">
        <ele>96.4</ele>
        <time>2023-08-23T08:12:50Z</time>
      </trkpt>
      <trkpt lat="49.79225" lon="2.43898">
        <ele>96.4</ele>
        <time>2023-08-23T08:12:52Z</time>
      </trkpt>
      <trkpt lat="49.79225" lon="2.43897">
        <ele>96.4</ele>
        <time>2023-08-23T08:12:53Z</time>
      </trkpt>
      <trkpt lat="49.79224" lon="2.43895">
        <ele>96.4</ele>
        <time>2023-08-23T08:12:54Z</time>
      </trkpt>
      <trkpt lat="49.79223" lon="2.43892">
        <ele>96.5</ele>
        <time>2023-08-23T08:12:55Z</time>
      </trkpt>
      <trkpt lat="49.79223" lon="2.43891">
        <ele>96.5</ele>
        <time>2023-08-23T08:12:56Z</time>
      </trkpt>
      <trkpt lat="49.79222" lon="2.4389">
        <ele>96.5</ele>
        <time>2023-08-23T08:12:57Z</time>
      </trkpt>
      <trkpt lat="49.79221" lon="2.43887">
        <ele>96.6</ele>
        <time>2023-08-23T08:12:58Z</time>
      </trkpt>
      <trkpt lat="49.79221" lon="2.43886">
        <ele>96.6</ele>
        <time>2023-08-23T08:12:59Z</time>
      </trkpt>
      <trkpt lat="49.7922" lon="2.43885">
        <ele>96.6</ele>
        <time>2023-08-23T08:13:00Z</time>
      </trkpt>
      <trkpt lat="49.79219" lon="2.43882">
        <ele>96.7</ele>
        <time>2023-08-23T08:13:02Z</time>
      </trkpt>
      <trkpt lat="49.79219" lon="2.43881">
        <ele>96.7</ele>
        <time>2023-08-23T08:13:03Z</time>
      </trkpt>
      <trkpt lat="49.79218" lon="2.4388">
        <ele>96.7</ele>
        <time>2023-08-23T08:13:04Z</time>
      </trkpt>
      <trkpt lat="49.79218" lon="2.43878">
        <ele>96.8</ele>
        <time>2023-08-23T08:13:05Z</time>
      </trkpt>
      <trkpt lat="49.79217" lon="2.43876">
        <ele>96.8</ele>
        <time>2023-08-23T08:13:06Z</time>
      </trkpt>
      <trkpt lat="49.79216" lon="2.43875">
        <ele>96.8</ele>
        <time>2023-08-23T08:13:07Z</time>
      </trkpt>
      <trkpt lat="49.79215" lon="2.43873">
        <ele>96.9</ele>
        <time>2023-08-23T08:13:08Z</time>
      </trkpt>
      <trkpt lat="49.79214" lon="2.4387">
        <ele>96.9</ele>
        <time>2023-08-23T08:13:09Z</time>
      </trkpt>
      <trkpt lat="49.79213" lon="2.43869">
        <ele>97</ele>
        <time>2023-08-23T08:13:11Z</time>
      </trkpt>
      <trkpt lat="49.79213" lon="2.43868">
        <ele>97</ele>
        <time>2023-08-23T08:13:12Z</time>
      </trkpt>
      <trkpt lat="49.79212" lon="2.43866">
        <ele>97.1</ele>
        <time>2023-08-23T08:13:13Z</time>
      </trkpt>
      <trkpt lat="49.79211" lon="2.43865">
        <ele>97.1</ele>
        <time>2023-08-23T08:13:14Z</time>
      </trkpt>
      <trkpt lat="49.7921" lon="2.43863">
        <ele>97.1</ele>
        <time>2023-08-23T08:13:15Z</time>
      </trkpt>
      <trkpt lat="49.79209" lon="2.4386">
        <ele>97.2</ele>
        <time>2023-08-23T08:13:17Z</time>
      </trkpt>
      <trkpt lat="49.79208" lon="2.43858">
        <ele>97.3</ele>
        <time>2023-08-23T08:13:19Z</time>
      </trkpt>
      <trkpt lat="49.79207" lon="2.43857">
        <ele>97.3</ele>
        <time>2023-08-23T08:13:20Z</time>
      </trkpt>
      <trkpt lat="49.79206" lon="2.43855">
        <ele>97.4</ele>
        <time>2023-08-23T08:13:21Z</time>
      </trkpt>
      <trkpt lat="49.79205" lon="2.43854">
        <ele>97.4</ele>
        <time>2023-08-23T08:13:22Z</time>
      </trkpt>
      <trkpt lat="49.79204" lon="2.43853">
        <ele>97.4</ele>
        <time>2023-08-23T08:13:23Z</time>
      </trkpt>
      <trkpt lat="49.79203" lon="2.43851">
        <ele>97.5</ele>
        <time>2023-08-23T08:13:24Z</time>
      </trkpt>
      <trkpt lat="49.79202" lon="2.4385">
        <ele>97.5</ele>
        <time>2023-08-23T08:13:25Z</time>
      </trkpt>
      <trkpt lat="49.79201" lon="2.43849">
        <ele>97.6</ele>
        <time>2023-08-23T08:13:27Z</time>
      </trkpt>
      <trkpt lat="49.792" lon="2.43847">
        <ele>97.6</ele>
        <time>2023-08-23T08:13:28Z</time>
      </trkpt>
      <trkpt lat="49.79199" lon="2.43846">
        <ele>97.7</ele>
        <time>2023-08-23T08:13:29Z</time>
      </trkpt>
      <trkpt lat="49.79199" lon="2.43844">
        <ele>97.7</ele>
        <time>2023-08-23T08:13:30Z</time>
      </trkpt>
      <trkpt lat="49.79198" lon="2.43843">
        <ele>97.7</ele>
        <time>2023-08-23T08:13:31Z</time>
      </trkpt>
      <trkpt lat="49.79197" lon="2.43842">
        <ele>97.8</ele>
        <time>2023-08-23T08:13:32Z</time>
      </trkpt>
      <trkpt lat="49.79196" lon="2.43841">
        <ele>97.8</ele>
        <time>2023-08-23T08:13:34Z</time>
      </trkpt>
      <trkpt lat="49.79195" lon="2.4384">
        <ele>97.8</ele>
        <time>2023-08-23T08:13:35Z</time>
      </trkpt>
      <trkpt lat="49.79194" lon="2.43838">
        <ele>97.9</ele>
        <time>2023-08-23T08:13:36Z</time>
      </trkpt>
      <trkpt lat="49.79193" lon="2.43837">
        <ele>97.9</ele>
        <time>2023-08-23T08:13:37Z</time>
      </trkpt>
      <trkpt lat="49.79193" lon="2.43836">
        <ele>97.9</ele>
        <time>2023-08-23T08:13:38Z</time>
      </trkpt>
      <trkpt lat="49.79192" lon="2.43834">
        <ele>98</ele>
        <time>2023-08-23T08:13:39Z</time>
      </trkpt>
      <trkpt lat="49.79191" lon="2.43833">
        <ele>98</ele>
        <time>2023-08-23T08:13:40Z</time>
      </trkpt>
      <trkpt lat="49.79189" lon="2.43832">
        <ele>98</ele>
        <time>2023-08-23T08:13:42Z</time>
      </trkpt>
      <trkpt lat="49.79189" lon="2.43831">
        <ele>98.1</ele>
        <time>2023-08-23T08:13:43Z</time>
      </trkpt>
      <trkpt lat="49.79188" lon="2.4383">
        <ele>98.1</ele>
        <time>2023-08-23T08:13:44Z</time>
      </trkpt>
      <trkpt lat="49.79186" lon="2.43828">
        <ele>98.1</ele>
        <time>2023-08-23T08:13:45Z</time>
      </trkpt>
      <trkpt lat="49.79186" lon="2.43827">
        <ele>98.1</ele>
        <time>2023-08-23T08:13:46Z</time>
      </trkpt>
      <trkpt lat="49.79185" lon="2.43826">
        <ele>98.2</ele>
        <time>2023-08-23T08:13:47Z</time>
      </trkpt>
      <trkpt lat="49.79183" lon="2.43824">
        <ele>98.2</ele>
        <time>2023-08-23T08:13:48Z</time>
      </trkpt>
      <trkpt lat="49.79182" lon="2.43824">
        <ele>98.2</ele>
        <time>2023-08-23T08:13:49Z</time>
      </trkpt>
      <trkpt lat="49.79182" lon="2.43823">
        <ele>98.2</ele>
        <time>2023-08-23T08:13:51Z</time>
      </trkpt>
      <trkpt lat="49.79181" lon="2.43822">
        <ele>98.2</ele>
        <time>2023-08-23T08:13:52Z</time>
      </trkpt>
      <trkpt lat="49.7918" lon="2.43821">
        <ele>98.3</ele>
        <time>2023-08-23T08:13:53Z</time>
      </trkpt>
      <trkpt lat="49.79179" lon="2.43821">
        <ele>98.3</ele>
        <time>2023-08-23T08:13:54Z</time>
      </trkpt>
      <trkpt lat="49.79177" lon="2.43819">
        <ele>98.3</ele>
        <time>2023-08-23T08:13:55Z</time>
      </trkpt>
      <trkpt lat="49.79176" lon="2.43818">
        <ele>98.4</ele>
        <time>2023-08-23T08:13:57Z</time>
      </trkpt>
      <trkpt lat="49.79175" lon="2.43817">
        <ele>98.4</ele>
        <time>2023-08-23T08:13:59Z</time>
      </trkpt>
      <trkpt lat="49.79174" lon="2.43816">
        <ele>98.4</ele>
        <time>2023-08-23T08:14:00Z</time>
      </trkpt>
      <trkpt lat="49.79173" lon="2.43815">
        <ele>98.5</ele>
        <time>2023-08-23T08:14:01Z</time>
      </trkpt>
      <trkpt lat="49.79172" lon="2.43814">
        <ele>98.5</ele>
        <time>2023-08-23T08:14:02Z</time>
      </trkpt>
      <trkpt lat="49.79171" lon="2.43813">
        <ele>98.6</ele>
        <time>2023-08-23T08:14:03Z</time>
      </trkpt>
      <trkpt lat="49.7917" lon="2.43812">
        <ele>98.6</ele>
        <time>2023-08-23T08:14:04Z</time>
      </trkpt>
      <trkpt lat="49.79168" lon="2.43811">
        <ele>98.7</ele>
        <time>2023-08-23T08:14:05Z</time>
      </trkpt>
      <trkpt lat="49.79168" lon="2.4381">
        <ele>98.7</ele>
        <time>2023-08-23T08:14:07Z</time>
      </trkpt>
      <trkpt lat="49.79167" lon="2.43809">
        <ele>98.7</ele>
        <time>2023-08-23T08:14:08Z</time>
      </trkpt>
      <trkpt lat="49.79166" lon="2.43808">
        <ele>98.8</ele>
        <time>2023-08-23T08:14:10Z</time>
      </trkpt>
      <trkpt lat="49.79164" lon="2.43808">
        <ele>98.8</ele>
        <time>2023-08-23T08:14:12Z</time>
      </trkpt>
      <trkpt lat="49.79164" lon="2.43808">
        <ele>98.8</ele>
        <time>2023-08-23T08:14:13Z</time>
      </trkpt>
      <trkpt lat="49.79164" lon="2.43809">
        <ele>98.9</ele>
        <time>2023-08-23T08:14:14Z</time>
      </trkpt>
      <trkpt lat="49.79164" lon="2.43809">
        <ele>98.9</ele>
        <time>2023-08-23T08:14:15Z</time>
      </trkpt>
      <trkpt lat="49.79164" lon="2.43809">
        <ele>98.9</ele>
        <time>2023-08-23T08:14:18Z</time>
      </trkpt>
      <trkpt lat="49.79163" lon="2.43809">
        <ele>98.9</ele>
        <time>2023-08-23T08:14:19Z</time>
      </trkpt>
      <trkpt lat="49.79163" lon="2.43809">
        <ele>98.9</ele>
        <time>2023-08-23T08:14:21Z</time>
      </trkpt>
      <trkpt lat="49.79163" lon="2.43809">
        <ele>98.9</ele>
        <time>2023-08-23T08:14:22Z</time>
      </trkpt>
      <trkpt lat="49.79163" lon="2.43809">
        <ele>98.9</ele>
        <time>2023-08-23T08:14:25Z</time>
      </trkpt>
      <trkpt lat="49.79163" lon="2.43809">
        <ele>98.9</ele>
        <time>2023-08-23T08:14:26Z</time>
      </trkpt>
      <trkpt lat="49.79163" lon="2.43808">
        <ele>98.9</ele>
        <time>2023-08-23T08:14:27Z</time>
      </trkpt>
      <trkpt lat="49.79163" lon="2.43808">
        <ele>98.9</ele>
        <time>2023-08-23T08:14:28Z</time>
      </trkpt>
      <trkpt lat="49.79162" lon="2.43808">
        <ele>98.9</ele>
        <time>2023-08-23T08:14:29Z</time>
      </trkpt>
      <trkpt lat="49.79162" lon="2.43807">
        <ele>98.9</ele>
        <time>2023-08-23T08:14:30Z</time>
      </trkpt>
      <trkpt lat="49.79162" lon="2.43806">
        <ele>99</ele>
        <time>2023-08-23T08:14:31Z</time>
      </trkpt>
      <trkpt lat="49.79161" lon="2.43805">
        <ele>99</ele>
        <time>2023-08-23T08:14:32Z</time>
      </trkpt>
      <trkpt lat="49.79161" lon="2.43804">
        <ele>99</ele>
        <time>2023-08-23T08:14:33Z</time>
      </trkpt>
      <trkpt lat="49.7916" lon="2.43803">
        <ele>99.1</ele>
        <time>2023-08-23T08:14:34Z</time>
      </trkpt>
      <trkpt lat="49.79159" lon="2.43802">
        <ele>99.1</ele>
        <time>2023-08-23T08:14:35Z</time>
      </trkpt>
      <trkpt lat="49.79158" lon="2.43801">
        <ele>99.1</ele>
        <time>2023-08-23T08:14:37Z</time>
      </trkpt>
      <trkpt lat="49.79157" lon="2.438">
        <ele>99.2</ele>
        <time>2023-08-23T08:14:38Z</time>
      </trkpt>
      <trkpt lat="49.79157" lon="2.438">
        <ele>99.2</ele>
        <time>2023-08-23T08:14:40Z</time>
      </trkpt>
      <trkpt lat="49.79157" lon="2.438">
        <ele>99.2</ele>
        <time>2023-08-23T08:14:41Z</time>
      </trkpt>
      <trkpt lat="49.79156" lon="2.43799">
        <ele>99.2</ele>
        <time>2023-08-23T08:14:42Z</time>
      </trkpt>
      <trkpt lat="49.79156" lon="2.43798">
        <ele>99.3</ele>
        <time>2023-08-23T08:14:44Z</time>
      </trkpt>
      <trkpt lat="49.79156" lon="2.43797">
        <ele>99.3</ele>
        <time>2023-08-23T08:14:45Z</time>
      </trkpt>
      <trkpt lat="49.79155" lon="2.43796">
        <ele>99.3</ele>
        <time>2023-08-23T08:14:46Z</time>
      </trkpt>
      <trkpt lat="49.79155" lon="2.43795">
        <ele>99.3</ele>
        <time>2023-08-23T08:14:47Z</time>
      </trkpt>
      <trkpt lat="49.79154" lon="2.43794">
        <ele>99.4</ele>
        <time>2023-08-23T08:14:49Z</time>
      </trkpt>
      <trkpt lat="49.79154" lon="2.43793">
        <ele>99.4</ele>
        <time>2023-08-23T08:14:50Z</time>
      </trkpt>
      <trkpt lat="49.79153" lon="2.43792">
        <ele>99.5</ele>
        <time>2023-08-23T08:14:51Z</time>
      </trkpt>
      <trkpt lat="49.79152" lon="2.43791">
        <ele>99.5</ele>
        <time>2023-08-23T08:14:52Z</time>
      </trkpt>
      <trkpt lat="49.79151" lon="2.43789">
        <ele>99.5</ele>
        <time>2023-08-23T08:14:53Z</time>
      </trkpt>
      <trkpt lat="49.79151" lon="2.43788">
        <ele>99.6</ele>
        <time>2023-08-23T08:14:54Z</time>
      </trkpt>
      <trkpt lat="49.79149" lon="2.43786">
        <ele>99.7</ele>
        <time>2023-08-23T08:14:56Z</time>
      </trkpt>
      <trkpt lat="49.79148" lon="2.43785">
        <ele>99.7</ele>
        <time>2023-08-23T08:14:57Z</time>
      </trkpt>
      <trkpt lat="49.79148" lon="2.43784">
        <ele>99.7</ele>
        <time>2023-08-23T08:14:58Z</time>
      </trkpt>
      <trkpt lat="49.79146" lon="2.43781">
        <ele>99.8</ele>
        <time>2023-08-23T08:14:59Z</time>
      </trkpt>
      <trkpt lat="49.79146" lon="2.4378">
        <ele>99.8</ele>
        <time>2023-08-23T08:15:00Z</time>
      </trkpt>
      <trkpt lat="49.79145" lon="2.43779">
        <ele>99.9</ele>
        <time>2023-08-23T08:15:01Z</time>
      </trkpt>
      <trkpt lat="49.79144" lon="2.43777">
        <ele>99.9</ele>
        <time>2023-08-23T08:15:02Z</time>
      </trkpt>
      <trkpt lat="49.79143" lon="2.43776">
        <ele>100</ele>
        <time>2023-08-23T08:15:04Z</time>
      </trkpt>
      <trkpt lat="49.79142" lon="2.43776">
        <ele>100</ele>
        <time>2023-08-23T08:15:05Z</time>
      </trkpt>
      <trkpt lat="49.79141" lon="2.43776">
        <ele>100</ele>
        <time>2023-08-23T08:15:06Z</time>
      </trkpt>
      <trkpt lat="49.7914" lon="2.43776">
        <ele>100.1</ele>
        <time>2023-08-23T08:15:07Z</time>
      </trkpt>
      <trkpt lat="49.7914" lon="2.43776">
        <ele>100.1</ele>
        <time>2023-08-23T08:15:08Z</time>
      </trkpt>
      <trkpt lat="49.79139" lon="2.43776">
        <ele>100.1</ele>
        <time>2023-08-23T08:15:10Z</time>
      </trkpt>
      <trkpt lat="49.7914" lon="2.43777">
        <ele>100.1</ele>
        <time>2023-08-23T08:15:12Z</time>
      </trkpt>
      <trkpt lat="49.7914" lon="2.43777">
        <ele>100.1</ele>
        <time>2023-08-23T08:15:14Z</time>
      </trkpt>
      <trkpt lat="49.7914" lon="2.43776">
        <ele>100.1</ele>
        <time>2023-08-23T08:15:15Z</time>
      </trkpt>
      <trkpt lat="49.79139" lon="2.43776">
        <ele>100.1</ele>
        <time>2023-08-23T08:15:16Z</time>
      </trkpt>
      <trkpt lat="49.79139" lon="2.43775">
        <ele>100.2</ele>
        <time>2023-08-23T08:15:18Z</time>
      </trkpt>
      <trkpt lat="49.79138" lon="2.43775">
        <ele>100.2</ele>
        <time>2023-08-23T08:15:19Z</time>
      </trkpt>
      <trkpt lat="49.79137" lon="2.43774">
        <ele>100.2</ele>
        <time>2023-08-23T08:15:20Z</time>
      </trkpt>
      <trkpt lat="49.79135" lon="2.43771">
        <ele>100.3</ele>
        <time>2023-08-23T08:15:21Z</time>
      </trkpt>
      <trkpt lat="49.79134" lon="2.43771">
        <ele>100.3</ele>
        <time>2023-08-23T08:15:22Z</time>
      </trkpt>
      <trkpt lat="49.79134" lon="2.4377">
        <ele>100.4</ele>
        <time>2023-08-23T08:15:23Z</time>
      </trkpt>
      <trkpt lat="49.79133" lon="2.43768">
        <ele>100.4</ele>
        <time>2023-08-23T08:15:24Z</time>
      </trkpt>
      <trkpt lat="49.79131" lon="2.43767">
        <ele>100.5</ele>
        <time>2023-08-23T08:15:26Z</time>
      </trkpt>
      <trkpt lat="49.7913" lon="2.43765">
        <ele>100.5</ele>
        <time>2023-08-23T08:15:27Z</time>
      </trkpt>
      <trkpt lat="49.79129" lon="2.43763">
        <ele>100.6</ele>
        <time>2023-08-23T08:15:28Z</time>
      </trkpt>
      <trkpt lat="49.79128" lon="2.43762">
        <ele>100.6</ele>
        <time>2023-08-23T08:15:29Z</time>
      </trkpt>
      <trkpt lat="49.79127" lon="2.4376">
        <ele>100.7</ele>
        <time>2023-08-23T08:15:30Z</time>
      </trkpt>
      <trkpt lat="49.79125" lon="2.43758">
        <ele>100.7</ele>
        <time>2023-08-23T08:15:31Z</time>
      </trkpt>
      <trkpt lat="49.79125" lon="2.43757">
        <ele>100.8</ele>
        <time>2023-08-23T08:15:32Z</time>
      </trkpt>
      <trkpt lat="49.79124" lon="2.43756">
        <ele>100.8</ele>
        <time>2023-08-23T08:15:33Z</time>
      </trkpt>
      <trkpt lat="49.79122" lon="2.43754">
        <ele>100.8</ele>
        <time>2023-08-23T08:15:34Z</time>
      </trkpt>
      <trkpt lat="49.79122" lon="2.43753">
        <ele>100.9</ele>
        <time>2023-08-23T08:15:36Z</time>
      </trkpt>
      <trkpt lat="49.79121" lon="2.43752">
        <ele>100.9</ele>
        <time>2023-08-23T08:15:37Z</time>
      </trkpt>
      <trkpt lat="49.79119" lon="2.4375">
        <ele>101</ele>
        <time>2023-08-23T08:15:38Z</time>
      </trkpt>
      <trkpt lat="49.79119" lon="2.43749">
        <ele>101</ele>
        <time>2023-08-23T08:15:39Z</time>
      </trkpt>
      <trkpt lat="49.79118" lon="2.43749">
        <ele>101</ele>
        <time>2023-08-23T08:15:40Z</time>
      </trkpt>
      <trkpt lat="49.79116" lon="2.43747">
        <ele>101.1</ele>
        <time>2023-08-23T08:15:42Z</time>
      </trkpt>
      <trkpt lat="49.79116" lon="2.43746">
        <ele>101.1</ele>
        <time>2023-08-23T08:15:43Z</time>
      </trkpt>
      <trkpt lat="49.79114" lon="2.43743">
        <ele>101.1</ele>
        <time>2023-08-23T08:15:45Z</time>
      </trkpt>
      <trkpt lat="49.79114" lon="2.43742">
        <ele>101.1</ele>
        <time>2023-08-23T08:15:46Z</time>
      </trkpt>
      <trkpt lat="49.79113" lon="2.43741">
        <ele>101.2</ele>
        <time>2023-08-23T08:15:47Z</time>
      </trkpt>
      <trkpt lat="49.79112" lon="2.43739">
        <ele>101.2</ele>
        <time>2023-08-23T08:15:48Z</time>
      </trkpt>
      <trkpt lat="49.79111" lon="2.43738">
        <ele>101.2</ele>
        <time>2023-08-23T08:15:50Z</time>
      </trkpt>
      <trkpt lat="49.79111" lon="2.43737">
        <ele>101.2</ele>
        <time>2023-08-23T08:15:51Z</time>
      </trkpt>
      <trkpt lat="49.7911" lon="2.43736">
        <ele>101.2</ele>
        <time>2023-08-23T08:15:52Z</time>
      </trkpt>
      <trkpt lat="49.79109" lon="2.43735">
        <ele>101.2</ele>
        <time>2023-08-23T08:15:53Z</time>
      </trkpt>
      <trkpt lat="49.79108" lon="2.43734">
        <ele>101.2</ele>
        <time>2023-08-23T08:15:54Z</time>
      </trkpt>
      <trkpt lat="49.79107" lon="2.43733">
        <ele>101.2</ele>
        <time>2023-08-23T08:15:55Z</time>
      </trkpt>
      <trkpt lat="49.79106" lon="2.43732">
        <ele>101.2</ele>
        <time>2023-08-23T08:15:56Z</time>
      </trkpt>
      <trkpt lat="49.79105" lon="2.43731">
        <ele>101.2</ele>
        <time>2023-08-23T08:15:57Z</time>
      </trkpt>
      <trkpt lat="49.79104" lon="2.43729">
        <ele>101.2</ele>
        <time>2023-08-23T08:15:59Z</time>
      </trkpt>
      <trkpt lat="49.79103" lon="2.43728">
        <ele>101.2</ele>
        <time>2023-08-23T08:16:00Z</time>
      </trkpt>
      <trkpt lat="49.79102" lon="2.43727">
        <ele>101.2</ele>
        <time>2023-08-23T08:16:01Z</time>
      </trkpt>
      <trkpt lat="49.79101" lon="2.43726">
        <ele>101.2</ele>
        <time>2023-08-23T08:16:02Z</time>
      </trkpt>
      <trkpt lat="49.791" lon="2.43725">
        <ele>101.2</ele>
        <time>2023-08-23T08:16:03Z</time>
      </trkpt>
      <trkpt lat="49.79098" lon="2.43723">
        <ele>101.2</ele>
        <time>2023-08-23T08:16:04Z</time>
      </trkpt>
      <trkpt lat="49.79098" lon="2.43722">
        <ele>101.2</ele>
        <time>2023-08-23T08:16:05Z</time>
      </trkpt>
      <trkpt lat="49.79097" lon="2.43721">
        <ele>101.2</ele>
        <time>2023-08-23T08:16:06Z</time>
      </trkpt>
      <trkpt lat="49.79095" lon="2.43719">
        <ele>101.2</ele>
        <time>2023-08-23T08:16:08Z</time>
      </trkpt>
      <trkpt lat="49.79095" lon="2.43718">
        <ele>101.2</ele>
        <time>2023-08-23T08:16:09Z</time>
      </trkpt>
      <trkpt lat="49.79094" lon="2.43717">
        <ele>101.2</ele>
        <time>2023-08-23T08:16:10Z</time>
      </trkpt>
      <trkpt lat="49.79093" lon="2.43714">
        <ele>101.2</ele>
        <time>2023-08-23T08:16:11Z</time>
      </trkpt>
      <trkpt lat="49.79093" lon="2.43713">
        <ele>101.2</ele>
        <time>2023-08-23T08:16:13Z</time>
      </trkpt>
      <trkpt lat="49.79092" lon="2.43712">
        <ele>101.2</ele>
        <time>2023-08-23T08:16:14Z</time>
      </trkpt>
      <trkpt lat="49.79091" lon="2.43709">
        <ele>101.2</ele>
        <time>2023-08-23T08:16:15Z</time>
      </trkpt>
      <trkpt lat="49.7909" lon="2.43708">
        <ele>101.2</ele>
        <time>2023-08-23T08:16:16Z</time>
      </trkpt>
      <trkpt lat="49.7909" lon="2.43707">
        <ele>101.2</ele>
        <time>2023-08-23T08:16:17Z</time>
      </trkpt>
      <trkpt lat="49.79088" lon="2.43704">
        <ele>101.2</ele>
        <time>2023-08-23T08:16:18Z</time>
      </trkpt>
      <trkpt lat="49.79088" lon="2.43703">
        <ele>101.2</ele>
        <time>2023-08-23T08:16:20Z</time>
      </trkpt>
      <trkpt lat="49.79087" lon="2.43701">
        <ele>101.2</ele>
        <time>2023-08-23T08:16:23Z</time>
      </trkpt>
      <trkpt lat="49.79086" lon="2.437">
        <ele>101.2</ele>
        <time>2023-08-23T08:16:24Z</time>
      </trkpt>
      <trkpt lat="49.79086" lon="2.43698">
        <ele>101.2</ele>
        <time>2023-08-23T08:16:25Z</time>
      </trkpt>
      <trkpt lat="49.79085" lon="2.43697">
        <ele>101.2</ele>
        <time>2023-08-23T08:16:26Z</time>
      </trkpt>
      <trkpt lat="49.79084" lon="2.43694">
        <ele>101.2</ele>
        <time>2023-08-23T08:16:27Z</time>
      </trkpt>
      <trkpt lat="49.79084" lon="2.43692">
        <ele>101.2</ele>
        <time>2023-08-23T08:16:28Z</time>
      </trkpt>
      <trkpt lat="49.79084" lon="2.43691">
        <ele>101.2</ele>
        <time>2023-08-23T08:16:29Z</time>
      </trkpt>
      <trkpt lat="49.79083" lon="2.43688">
        <ele>101.2</ele>
        <time>2023-08-23T08:16:30Z</time>
      </trkpt>
      <trkpt lat="49.79083" lon="2.43687">
        <ele>101.2</ele>
        <time>2023-08-23T08:16:32Z</time>
      </trkpt>
      <trkpt lat="49.79083" lon="2.43685">
        <ele>101.2</ele>
        <time>2023-08-23T08:16:33Z</time>
      </trkpt>
      <trkpt lat="49.79081" lon="2.43682">
        <ele>101.2</ele>
        <time>2023-08-23T08:16:34Z</time>
      </trkpt>
      <trkpt lat="49.79081" lon="2.43681">
        <ele>101.2</ele>
        <time>2023-08-23T08:16:35Z</time>
      </trkpt>
      <trkpt lat="49.79081" lon="2.4368">
        <ele>101.2</ele>
        <time>2023-08-23T08:16:36Z</time>
      </trkpt>
      <trkpt lat="49.7908" lon="2.43678">
        <ele>101.3</ele>
        <time>2023-08-23T08:16:37Z</time>
      </trkpt>
      <trkpt lat="49.7908" lon="2.43677">
        <ele>101.3</ele>
        <time>2023-08-23T08:16:39Z</time>
      </trkpt>
      <trkpt lat="49.79079" lon="2.43676">
        <ele>101.3</ele>
        <time>2023-08-23T08:16:40Z</time>
      </trkpt>
      <trkpt lat="49.79078" lon="2.43674">
        <ele>101.3</ele>
        <time>2023-08-23T08:16:41Z</time>
      </trkpt>
      <trkpt lat="49.79078" lon="2.43672">
        <ele>101.3</ele>
        <time>2023-08-23T08:16:42Z</time>
      </trkpt>
      <trkpt lat="49.79077" lon="2.4367">
        <ele>101.3</ele>
        <time>2023-08-23T08:16:43Z</time>
      </trkpt>
      <trkpt lat="49.79076" lon="2.43667">
        <ele>101.3</ele>
        <time>2023-08-23T08:16:45Z</time>
      </trkpt>
      <trkpt lat="49.79076" lon="2.43665">
        <ele>101.3</ele>
        <time>2023-08-23T08:16:46Z</time>
      </trkpt>
      <trkpt lat="49.79075" lon="2.43663">
        <ele>101.3</ele>
        <time>2023-08-23T08:16:48Z</time>
      </trkpt>
      <trkpt lat="49.79075" lon="2.43662">
        <ele>101.3</ele>
        <time>2023-08-23T08:16:49Z</time>
      </trkpt>
      <trkpt lat="49.79074" lon="2.43659">
        <ele>101.4</ele>
        <time>2023-08-23T08:16:50Z</time>
      </trkpt>
      <trkpt lat="49.79073" lon="2.43658">
        <ele>101.4</ele>
        <time>2023-08-23T08:16:51Z</time>
      </trkpt>
      <trkpt lat="49.79073" lon="2.43657">
        <ele>101.4</ele>
        <time>2023-08-23T08:16:52Z</time>
      </trkpt>
      <trkpt lat="49.79072" lon="2.43654">
        <ele>101.4</ele>
        <time>2023-08-23T08:16:53Z</time>
      </trkpt>
      <trkpt lat="49.79071" lon="2.43653">
        <ele>101.4</ele>
        <time>2023-08-23T08:16:54Z</time>
      </trkpt>
      <trkpt lat="49.7907" lon="2.43652">
        <ele>101.4</ele>
        <time>2023-08-23T08:16:56Z</time>
      </trkpt>
      <trkpt lat="49.7907" lon="2.43651">
        <ele>101.4</ele>
        <time>2023-08-23T08:16:57Z</time>
      </trkpt>
      <trkpt lat="49.79069" lon="2.43649">
        <ele>101.4</ele>
        <time>2023-08-23T08:16:58Z</time>
      </trkpt>
      <trkpt lat="49.79068" lon="2.43648">
        <ele>101.5</ele>
        <time>2023-08-23T08:16:59Z</time>
      </trkpt>
      <trkpt lat="49.79067" lon="2.43646">
        <ele>101.5</ele>
        <time>2023-08-23T08:17:01Z</time>
      </trkpt>
      <trkpt lat="49.79066" lon="2.43645">
        <ele>101.5</ele>
        <time>2023-08-23T08:17:02Z</time>
      </trkpt>
      <trkpt lat="49.79066" lon="2.43644">
        <ele>101.5</ele>
        <time>2023-08-23T08:17:03Z</time>
      </trkpt>
      <trkpt lat="49.79064" lon="2.43641">
        <ele>101.5</ele>
        <time>2023-08-23T08:17:05Z</time>
      </trkpt>
      <trkpt lat="49.79063" lon="2.43639">
        <ele>101.5</ele>
        <time>2023-08-23T08:17:06Z</time>
      </trkpt>
      <trkpt lat="49.79062" lon="2.43637">
        <ele>101.6</ele>
        <time>2023-08-23T08:17:07Z</time>
      </trkpt>
      <trkpt lat="49.79061" lon="2.43636">
        <ele>101.6</ele>
        <time>2023-08-23T08:17:08Z</time>
      </trkpt>
      <trkpt lat="49.79061" lon="2.43634">
        <ele>101.6</ele>
        <time>2023-08-23T08:17:09Z</time>
      </trkpt>
      <trkpt lat="49.7906" lon="2.43632">
        <ele>101.6</ele>
        <time>2023-08-23T08:17:10Z</time>
      </trkpt>
      <trkpt lat="49.79058" lon="2.43629">
        <ele>101.6</ele>
        <time>2023-08-23T08:17:11Z</time>
      </trkpt>
      <trkpt lat="49.79058" lon="2.43628">
        <ele>101.6</ele>
        <time>2023-08-23T08:17:13Z</time>
      </trkpt>
      <trkpt lat="49.79057" lon="2.43626">
        <ele>101.6</ele>
        <time>2023-08-23T08:17:14Z</time>
      </trkpt>
      <trkpt lat="49.79056" lon="2.43624">
        <ele>101.6</ele>
        <time>2023-08-23T08:17:15Z</time>
      </trkpt>
      <trkpt lat="49.79055" lon="2.43622">
        <ele>101.6</ele>
        <time>2023-08-23T08:17:17Z</time>
      </trkpt>
      <trkpt lat="49.79055" lon="2.43621">
        <ele>101.6</ele>
        <time>2023-08-23T08:17:18Z</time>
      </trkpt>
      <trkpt lat="49.79054" lon="2.43619">
        <ele>101.6</ele>
        <time>2023-08-23T08:17:19Z</time>
      </trkpt>
      <trkpt lat="49.79053" lon="2.43618">
        <ele>101.6</ele>
        <time>2023-08-23T08:17:20Z</time>
      </trkpt>
      <trkpt lat="49.79053" lon="2.43617">
        <ele>101.6</ele>
        <time>2023-08-23T08:17:21Z</time>
      </trkpt>
      <trkpt lat="49.79052" lon="2.43615">
        <ele>101.6</ele>
        <time>2023-08-23T08:17:23Z</time>
      </trkpt>
      <trkpt lat="49.79051" lon="2.43613">
        <ele>101.6</ele>
        <time>2023-08-23T08:17:24Z</time>
      </trkpt>
      <trkpt lat="49.79049" lon="2.43611">
        <ele>101.6</ele>
        <time>2023-08-23T08:17:25Z</time>
      </trkpt>
      <trkpt lat="49.79049" lon="2.43609">
        <ele>101.6</ele>
        <time>2023-08-23T08:17:26Z</time>
      </trkpt>
      <trkpt lat="49.79048" lon="2.43608">
        <ele>101.6</ele>
        <time>2023-08-23T08:17:27Z</time>
      </trkpt>
      <trkpt lat="49.79047" lon="2.43606">
        <ele>101.6</ele>
        <time>2023-08-23T08:17:28Z</time>
      </trkpt>
      <trkpt lat="49.79046" lon="2.43604">
        <ele>101.6</ele>
        <time>2023-08-23T08:17:29Z</time>
      </trkpt>
      <trkpt lat="49.79046" lon="2.43602">
        <ele>101.6</ele>
        <time>2023-08-23T08:17:30Z</time>
      </trkpt>
      <trkpt lat="49.79045" lon="2.436">
        <ele>101.6</ele>
        <time>2023-08-23T08:17:32Z</time>
      </trkpt>
      <trkpt lat="49.79044" lon="2.43598">
        <ele>101.7</ele>
        <time>2023-08-23T08:17:33Z</time>
      </trkpt>
      <trkpt lat="49.79043" lon="2.43596">
        <ele>101.7</ele>
        <time>2023-08-23T08:17:34Z</time>
      </trkpt>
      <trkpt lat="49.79042" lon="2.43594">
        <ele>101.7</ele>
        <time>2023-08-23T08:17:36Z</time>
      </trkpt>
      <trkpt lat="49.79042" lon="2.43593">
        <ele>101.7</ele>
        <time>2023-08-23T08:17:37Z</time>
      </trkpt>
      <trkpt lat="49.79041" lon="2.43592">
        <ele>101.7</ele>
        <time>2023-08-23T08:17:38Z</time>
      </trkpt>
      <trkpt lat="49.79041" lon="2.4359">
        <ele>101.6</ele>
        <time>2023-08-23T08:17:39Z</time>
      </trkpt>
      <trkpt lat="49.7904" lon="2.43589">
        <ele>101.6</ele>
        <time>2023-08-23T08:17:40Z</time>
      </trkpt>
      <trkpt lat="49.79039" lon="2.43588">
        <ele>101.6</ele>
        <time>2023-08-23T08:17:41Z</time>
      </trkpt>
      <trkpt lat="49.79039" lon="2.43587">
        <ele>101.6</ele>
        <time>2023-08-23T08:17:42Z</time>
      </trkpt>
      <trkpt lat="49.79038" lon="2.43586">
        <ele>101.6</ele>
        <time>2023-08-23T08:17:44Z</time>
      </trkpt>
      <trkpt lat="49.79037" lon="2.43584">
        <ele>101.6</ele>
        <time>2023-08-23T08:17:45Z</time>
      </trkpt>
      <trkpt lat="49.79037" lon="2.43582">
        <ele>101.6</ele>
        <time>2023-08-23T08:17:46Z</time>
      </trkpt>
      <trkpt lat="49.79036" lon="2.43581">
        <ele>101.6</ele>
        <time>2023-08-23T08:17:47Z</time>
      </trkpt>
      <trkpt lat="49.79035" lon="2.4358">
        <ele>101.6</ele>
        <time>2023-08-23T08:17:48Z</time>
      </trkpt>
      <trkpt lat="49.79035" lon="2.43578">
        <ele>101.6</ele>
        <time>2023-08-23T08:17:49Z</time>
      </trkpt>
      <trkpt lat="49.79034" lon="2.43577">
        <ele>101.6</ele>
        <time>2023-08-23T08:17:50Z</time>
      </trkpt>
      <trkpt lat="49.79034" lon="2.43575">
        <ele>101.6</ele>
        <time>2023-08-23T08:17:51Z</time>
      </trkpt>
      <trkpt lat="49.79033" lon="2.43573">
        <ele>101.6</ele>
        <time>2023-08-23T08:17:53Z</time>
      </trkpt>
      <trkpt lat="49.79032" lon="2.43572">
        <ele>101.6</ele>
        <time>2023-08-23T08:17:54Z</time>
      </trkpt>
      <trkpt lat="49.79032" lon="2.43571">
        <ele>101.6</ele>
        <time>2023-08-23T08:17:55Z</time>
      </trkpt>
      <trkpt lat="49.79032" lon="2.43569">
        <ele>101.6</ele>
        <time>2023-08-23T08:17:56Z</time>
      </trkpt>
      <trkpt lat="49.79032" lon="2.43568">
        <ele>101.6</ele>
        <time>2023-08-23T08:17:57Z</time>
      </trkpt>
      <trkpt lat="49.79031" lon="2.43567">
        <ele>101.6</ele>
        <time>2023-08-23T08:17:58Z</time>
      </trkpt>
      <trkpt lat="49.79031" lon="2.43566">
        <ele>101.6</ele>
        <time>2023-08-23T08:17:59Z</time>
      </trkpt>
      <trkpt lat="49.79031" lon="2.43565">
        <ele>101.6</ele>
        <time>2023-08-23T08:18:01Z</time>
      </trkpt>
      <trkpt lat="49.79031" lon="2.43564">
        <ele>101.6</ele>
        <time>2023-08-23T08:18:02Z</time>
      </trkpt>
      <trkpt lat="49.7903" lon="2.43563">
        <ele>101.6</ele>
        <time>2023-08-23T08:18:03Z</time>
      </trkpt>
      <trkpt lat="49.7903" lon="2.43561">
        <ele>101.6</ele>
        <time>2023-08-23T08:18:04Z</time>
      </trkpt>
      <trkpt lat="49.7903" lon="2.43559">
        <ele>101.6</ele>
        <time>2023-08-23T08:18:05Z</time>
      </trkpt>
      <trkpt lat="49.7903" lon="2.43558">
        <ele>101.6</ele>
        <time>2023-08-23T08:18:07Z</time>
      </trkpt>
      <trkpt lat="49.79031" lon="2.43557">
        <ele>101.3</ele>
        <time>2023-08-23T08:18:08Z</time>
      </trkpt>
      <trkpt lat="49.79031" lon="2.43556">
        <ele>101.3</ele>
        <time>2023-08-23T08:18:09Z</time>
      </trkpt>
      <trkpt lat="49.79031" lon="2.43555">
        <ele>101.2</ele>
        <time>2023-08-23T08:18:11Z</time>
      </trkpt>
      <trkpt lat="49.79032" lon="2.43553">
        <ele>101.2</ele>
        <time>2023-08-23T08:18:12Z</time>
      </trkpt>
      <trkpt lat="49.79032" lon="2.43552">
        <ele>101.2</ele>
        <time>2023-08-23T08:18:13Z</time>
      </trkpt>
      <trkpt lat="49.79032" lon="2.43551">
        <ele>101.1</ele>
        <time>2023-08-23T08:18:16Z</time>
      </trkpt>
      <trkpt lat="49.79032" lon="2.43551">
        <ele>101.1</ele>
        <time>2023-08-23T08:18:17Z</time>
      </trkpt>
      <trkpt lat="49.79032" lon="2.4355">
        <ele>101.1</ele>
        <time>2023-08-23T08:18:18Z</time>
      </trkpt>
      <trkpt lat="49.79033" lon="2.4355">
        <ele>101.1</ele>
        <time>2023-08-23T08:18:20Z</time>
      </trkpt>
      <trkpt lat="49.79033" lon="2.4355">
        <ele>101.1</ele>
        <time>2023-08-23T08:18:21Z</time>
      </trkpt>
      <trkpt lat="49.79033" lon="2.4355">
        <ele>101.1</ele>
        <time>2023-08-23T08:18:23Z</time>
      </trkpt>
      <trkpt lat="49.79033" lon="2.4355">
        <ele>101.1</ele>
        <time>2023-08-23T08:18:24Z</time>
      </trkpt>
      <trkpt lat="49.79033" lon="2.4355">
        <ele>101.1</ele>
        <time>2023-08-23T08:18:25Z</time>
      </trkpt>
      <trkpt lat="49.79033" lon="2.4355">
        <ele>101.1</ele>
        <time>2023-08-23T08:18:27Z</time>
      </trkpt>
      <trkpt lat="49.79033" lon="2.4355">
        <ele>101.1</ele>
        <time>2023-08-23T08:18:28Z</time>
      </trkpt>
      <trkpt lat="49.79033" lon="2.4355">
        <ele>101</ele>
        <time>2023-08-23T08:18:30Z</time>
      </trkpt>
      <trkpt lat="49.79033" lon="2.4355">
        <ele>101</ele>
        <time>2023-08-23T08:18:31Z</time>
      </trkpt>
      <trkpt lat="49.79033" lon="2.4355">
        <ele>101</ele>
        <time>2023-08-23T08:18:33Z</time>
      </trkpt>
      <trkpt lat="49.79033" lon="2.4355">
        <ele>101</ele>
        <time>2023-08-23T08:18:34Z</time>
      </trkpt>
      <trkpt lat="49.79033" lon="2.4355">
        <ele>101</ele>
        <time>2023-08-23T08:18:35Z</time>
      </trkpt>
      <trkpt lat="49.79033" lon="2.4355">
        <ele>101</ele>
        <time>2023-08-23T08:18:37Z</time>
      </trkpt>
      <trkpt lat="49.79033" lon="2.4355">
        <ele>101</ele>
        <time>2023-08-23T08:18:38Z</time>
      </trkpt>
      <trkpt lat="49.79033" lon="2.4355">
        <ele>101</ele>
        <time>2023-08-23T08:18:39Z</time>
      </trkpt>
      <trkpt lat="49.79033" lon="2.4355">
        <ele>101</ele>
        <time>2023-08-23T08:18:41Z</time>
      </trkpt>
      <trkpt lat="49.79033" lon="2.4355">
        <ele>101</ele>
        <time>2023-08-23T08:18:42Z</time>
      </trkpt>
      <trkpt lat="49.79033" lon="2.4355">
        <ele>101</ele>
        <time>2023-08-23T08:18:43Z</time>
      </trkpt>
      <trkpt lat="49.79033" lon="2.4355">
        <ele>101</ele>
        <time>2023-08-23T08:18:44Z</time>
      </trkpt>
      <trkpt lat="49.79033" lon="2.4355">
        <ele>101</ele>
        <time>2023-08-23T08:18:45Z</time>
      </trkpt>
      <trkpt lat="49.79033" lon="2.4355">
        <ele>101</ele>
        <time>2023-08-23T08:18:46Z</time>
      </trkpt>
      <trkpt lat="49.79033" lon="2.4355">
        <ele>101</ele>
        <time>2023-08-23T08:18:47Z</time>
      </trkpt>
      <trkpt lat="49.79033" lon="2.4355">
        <ele>101</ele>
        <time>2023-08-23T08:18:48Z</time>
      </trkpt>
      <trkpt lat="49.79033" lon="2.4355">
        <ele>101</ele>
        <time>2023-08-23T08:18:49Z</time>
      </trkpt>
      <trkpt lat="49.79033" lon="2.4355">
        <ele>101</ele>
        <time>2023-08-23T08:18:51Z</time>
      </trkpt>
      <trkpt lat="49.79033" lon="2.4355">
        <ele>101</ele>
        <time>2023-08-23T08:18:52Z</time>
      </trkpt>
      <trkpt lat="49.79033" lon="2.4355">
        <ele>101</ele>
        <time>2023-08-23T08:18:53Z</time>
      </trkpt>
      <trkpt lat="49.79033" lon="2.4355">
        <ele>101</ele>
        <time>2023-08-23T08:18:55Z</time>
      </trkpt>
      <trkpt lat="49.79033" lon="2.4355">
        <ele>101</ele>
        <time>2023-08-23T08:18:56Z</time>
      </trkpt>
      <trkpt lat="49.79033" lon="2.4355">
        <ele>101</ele>
        <time>2023-08-23T08:18:57Z</time>
      </trkpt>
      <trkpt lat="49.79033" lon="2.4355">
        <ele>101</ele>
        <time>2023-08-23T08:18:58Z</time>
      </trkpt>
      <trkpt lat="49.79033" lon="2.4355">
        <ele>101</ele>
        <time>2023-08-23T08:18:59Z</time>
      </trkpt>
      <trkpt lat="49.79033" lon="2.4355">
        <ele>101</ele>
        <time>2023-08-23T08:19:00Z</time>
      </trkpt>
      <trkpt lat="49.79033" lon="2.4355">
        <ele>101</ele>
        <time>2023-08-23T08:19:02Z</time>
      </trkpt>
      <trkpt lat="49.79033" lon="2.4355">
        <ele>101</ele>
        <time>2023-08-23T08:19:04Z</time>
      </trkpt>
      <trkpt lat="49.79033" lon="2.4355">
        <ele>101</ele>
        <time>2023-08-23T08:19:05Z</time>
      </trkpt>
      <trkpt lat="49.79033" lon="2.4355">
        <ele>101</ele>
        <time>2023-08-23T08:19:06Z</time>
      </trkpt>
      <trkpt lat="49.79033" lon="2.4355">
        <ele>101</ele>
        <time>2023-08-23T08:19:08Z</time>
      </trkpt>
      <trkpt lat="49.79033" lon="2.4355">
        <ele>101</ele>
        <time>2023-08-23T08:19:09Z</time>
      </trkpt>
      <trkpt lat="49.79033" lon="2.4355">
        <ele>101</ele>
        <time>2023-08-23T08:19:10Z</time>
      </trkpt>
      <trkpt lat="49.79033" lon="2.4355">
        <ele>101</ele>
        <time>2023-08-23T08:19:11Z</time>
      </trkpt>
      <trkpt lat="49.79033" lon="2.4355">
        <ele>101</ele>
        <time>2023-08-23T08:19:12Z</time>
      </trkpt>
      <trkpt lat="49.79033" lon="2.4355">
        <ele>101</ele>
        <time>2023-08-23T08:19:13Z</time>
      </trkpt>
      <trkpt lat="49.79033" lon="2.4355">
        <ele>101</ele>
        <time>2023-08-23T08:19:14Z</time>
      </trkpt>
      <trkpt lat="49.79033" lon="2.4355">
        <ele>101</ele>
        <time>2023-08-23T08:19:15Z</time>
      </trkpt>
      <trkpt lat="49.79033" lon="2.4355">
        <ele>101</ele>
        <time>2023-08-23T08:19:16Z</time>
      </trkpt>
      <trkpt lat="49.79033" lon="2.4355">
        <ele>101</ele>
        <time>2023-08-23T08:19:17Z</time>
      </trkpt>
      <trkpt lat="49.79033" lon="2.4355">
        <ele>101</ele>
        <time>2023-08-23T08:19:18Z</time>
      </trkpt>
      <trkpt lat="49.79033" lon="2.4355">
        <ele>101</ele>
        <time>2023-08-23T08:19:19Z</time>
      </trkpt>
      <trkpt lat="49.79033" lon="2.4355">
        <ele>101</ele>
        <time>2023-08-23T08:19:20Z</time>
      </trkpt>
      <trkpt lat="49.79033" lon="2.4355">
        <ele>101</ele>
        <time>2023-08-23T08:19:21Z</time>
      </trkpt>
      <trkpt lat="49.79033" lon="2.4355">
        <ele>101</ele>
        <time>2023-08-23T08:19:22Z</time>
      </trkpt>
      <trkpt lat="49.79033" lon="2.4355">
        <ele>101</ele>
        <time>2023-08-23T08:19:23Z</time>
      </trkpt>
      <trkpt lat="49.79033" lon="2.4355">
        <ele>101</ele>
        <time>2023-08-23T08:19:24Z</time>
      </trkpt>
      <trkpt lat="49.79033" lon="2.4355">
        <ele>101</ele>
        <time>2023-08-23T08:19:25Z</time>
      </trkpt>
      <trkpt lat="49.79033" lon="2.4355">
        <ele>101</ele>
        <time>2023-08-23T08:19:26Z</time>
      </trkpt>
      <trkpt lat="49.79033" lon="2.4355">
        <ele>101</ele>
        <time>2023-08-23T08:19:28Z</time>
      </trkpt>
      <trkpt lat="49.79033" lon="2.4355">
        <ele>101</ele>
        <time>2023-08-23T08:19:29Z</time>
      </trkpt>
      <trkpt lat="49.79033" lon="2.4355">
        <ele>101</ele>
        <time>2023-08-23T08:19:30Z</time>
      </trkpt>
      <trkpt lat="49.79033" lon="2.4355">
        <ele>101</ele>
        <time>2023-08-23T08:19:31Z</time>
      </trkpt>
      <trkpt lat="49.79033" lon="2.4355">
        <ele>101</ele>
        <time>2023-08-23T08:19:32Z</time>
      </trkpt>
      <trkpt lat="49.79033" lon="2.4355">
        <ele>101</ele>
        <time>2023-08-23T08:19:33Z</time>
      </trkpt>
      <trkpt lat="49.79033" lon="2.4355">
        <ele>101</ele>
        <time>2023-08-23T08:19:34Z</time>
      </trkpt>
      <trkpt lat="49.79033" lon="2.4355">
        <ele>101</ele>
        <time>2023-08-23T08:19:35Z</time>
      </trkpt>
      <trkpt lat="49.79033" lon="2.4355">
        <ele>101</ele>
        <time>2023-08-23T08:19:36Z</time>
      </trkpt>
      <trkpt lat="49.79033" lon="2.4355">
        <ele>101</ele>
        <time>2023-08-23T08:19:37Z</time>
      </trkpt>
      <trkpt lat="49.79033" lon="2.4355">
        <ele>101</ele>
        <time>2023-08-23T08:19:39Z</time>
      </trkpt>
      <trkpt lat="49.79033" lon="2.4355">
        <ele>101</ele>
        <time>2023-08-23T08:19:41Z</time>
      </trkpt>
      <trkpt lat="49.79033" lon="2.4355">
        <ele>101</ele>
        <time>2023-08-23T08:19:42Z</time>
      </trkpt>
      <trkpt lat="49.79033" lon="2.4355">
        <ele>101</ele>
        <time>2023-08-23T08:19:43Z</time>
      </trkpt>
      <trkpt lat="49.79033" lon="2.4355">
        <ele>101</ele>
        <time>2023-08-23T08:19:45Z</time>
      </trkpt>
      <trkpt lat="49.79033" lon="2.4355">
        <ele>101</ele>
        <time>2023-08-23T08:19:46Z</time>
      </trkpt>
      <trkpt lat="49.79033" lon="2.4355">
        <ele>101</ele>
        <time>2023-08-23T08:19:48Z</time>
      </trkpt>
      <trkpt lat="49.79033" lon="2.4355">
        <ele>101</ele>
        <time>2023-08-23T08:19:49Z</time>
      </trkpt>
      <trkpt lat="49.79033" lon="2.4355">
        <ele>101</ele>
        <time>2023-08-23T08:19:50Z</time>
      </trkpt>
      <trkpt lat="49.79033" lon="2.4355">
        <ele>101</ele>
        <time>2023-08-23T08:19:51Z</time>
      </trkpt>
      <trkpt lat="49.79033" lon="2.4355">
        <ele>101</ele>
        <time>2023-08-23T08:19:52Z</time>
      </trkpt>
      <trkpt lat="49.79033" lon="2.4355">
        <ele>101</ele>
        <time>2023-08-23T08:19:53Z</time>
      </trkpt>
      <trkpt lat="49.79033" lon="2.4355">
        <ele>101</ele>
        <time>2023-08-23T08:19:54Z</time>
      </trkpt>
      <trkpt lat="49.79033" lon="2.4355">
        <ele>101</ele>
        <time>2023-08-23T08:19:55Z</time>
      </trkpt>
      <trkpt lat="49.79033" lon="2.4355">
        <ele>101</ele>
        <time>2023-08-23T08:19:56Z</time>
      </trkpt>
      <trkpt lat="49.79033" lon="2.4355">
        <ele>101</ele>
        <time>2023-08-23T08:19:58Z</time>
      </trkpt>
      <trkpt lat="49.79033" lon="2.4355">
        <ele>101</ele>
        <time>2023-08-23T08:19:59Z</time>
      </trkpt>
      <trkpt lat="49.79033" lon="2.4355">
        <ele>101</ele>
        <time>2023-08-23T08:20:00Z</time>
      </trkpt>
      <trkpt lat="49.79033" lon="2.4355">
        <ele>101</ele>
        <time>2023-08-23T08:20:02Z</time>
      </trkpt>
      <trkpt lat="49.79033" lon="2.4355">
        <ele>101</ele>
        <time>2023-08-23T08:20:03Z</time>
      </trkpt>
      <trkpt lat="49.79033" lon="2.4355">
        <ele>101</ele>
        <time>2023-08-23T08:20:04Z</time>
      </trkpt>
      <trkpt lat="49.79033" lon="2.4355">
        <ele>101</ele>
        <time>2023-08-23T08:20:05Z</time>
      </trkpt>
      <trkpt lat="49.79033" lon="2.4355">
        <ele>101</ele>
        <time>2023-08-23T08:20:07Z</time>
      </trkpt>
      <trkpt lat="49.79033" lon="2.4355">
        <ele>101</ele>
        <time>2023-08-23T08:20:08Z</time>
      </trkpt>
      <trkpt lat="49.79033" lon="2.4355">
        <ele>101</ele>
        <time>2023-08-23T08:20:09Z</time>
      </trkpt>
      <trkpt lat="49.79033" lon="2.4355">
        <ele>101</ele>
        <time>2023-08-23T08:20:11Z</time>
      </trkpt>
      <trkpt lat="49.79033" lon="2.4355">
        <ele>101</ele>
        <time>2023-08-23T08:20:12Z</time>
      </trkpt>
      <trkpt lat="49.79033" lon="2.4355">
        <ele>101</ele>
        <time>2023-08-23T08:20:14Z</time>
      </trkpt>
      <trkpt lat="49.79033" lon="2.4355">
        <ele>101</ele>
        <time>2023-08-23T08:20:16Z</time>
      </trkpt>
      <trkpt lat="49.79033" lon="2.4355">
        <ele>101</ele>
        <time>2023-08-23T08:20:17Z</time>
      </trkpt>
      <trkpt lat="49.79033" lon="2.4355">
        <ele>101</ele>
        <time>2023-08-23T08:20:18Z</time>
      </trkpt>
      <trkpt lat="49.79033" lon="2.4355">
        <ele>101</ele>
        <time>2023-08-23T08:20:20Z</time>
      </trkpt>
      <trkpt lat="49.79033" lon="2.4355">
        <ele>101</ele>
        <time>2023-08-23T08:20:21Z</time>
      </trkpt>
      <trkpt lat="49.79033" lon="2.4355">
        <ele>101</ele>
        <time>2023-08-23T08:20:23Z</time>
      </trkpt>
      <trkpt lat="49.79033" lon="2.4355">
        <ele>101</ele>
        <time>2023-08-23T08:20:24Z</time>
      </trkpt>
      <trkpt lat="49.79033" lon="2.4355">
        <ele>101</ele>
        <time>2023-08-23T08:20:25Z</time>
      </trkpt>
      <trkpt lat="49.79033" lon="2.4355">
        <ele>101</ele>
        <time>2023-08-23T08:20:26Z</time>
      </trkpt>
      <trkpt lat="49.79033" lon="2.4355">
        <ele>101</ele>
        <time>2023-08-23T08:20:27Z</time>
      </trkpt>
      <trkpt lat="49.79033" lon="2.4355">
        <ele>101</ele>
        <time>2023-08-23T08:20:29Z</time>
      </trkpt>
      <trkpt lat="49.79033" lon="2.4355">
        <ele>101</ele>
        <time>2023-08-23T08:20:30Z</time>
      </trkpt>
      <trkpt lat="49.79033" lon="2.4355">
        <ele>101</ele>
        <time>2023-08-23T08:20:31Z</time>
      </trkpt>
      <trkpt lat="49.79032" lon="2.43543">
        <ele>100.8</ele>
        <time>2023-08-23T08:20:33Z</time>
      </trkpt>
      <trkpt lat="49.79031" lon="2.4354">
        <ele>100.7</ele>
        <time>2023-08-23T08:20:34Z</time>
      </trkpt>
      <trkpt lat="49.79031" lon="2.43539">
        <ele>100.7</ele>
        <time>2023-08-23T08:20:36Z</time>
      </trkpt>
      <trkpt lat="49.79031" lon="2.43539">
        <ele>100.7</ele>
        <time>2023-08-23T08:20:37Z</time>
      </trkpt>
      <trkpt lat="49.79031" lon="2.43539">
        <ele>100.7</ele>
        <time>2023-08-23T08:20:39Z</time>
      </trkpt>
      <trkpt lat="49.79031" lon="2.43539">
        <ele>100.7</ele>
        <time>2023-08-23T08:20:40Z</time>
      </trkpt>
      <trkpt lat="49.79031" lon="2.43539">
        <ele>100.7</ele>
        <time>2023-08-23T08:20:42Z</time>
      </trkpt>
      <trkpt lat="49.79031" lon="2.43539">
        <ele>100.7</ele>
        <time>2023-08-23T08:20:43Z</time>
      </trkpt>
      <trkpt lat="49.79031" lon="2.43539">
        <ele>100.7</ele>
        <time>2023-08-23T08:20:44Z</time>
      </trkpt>
      <trkpt lat="49.79031" lon="2.43539">
        <ele>100.7</ele>
        <time>2023-08-23T08:20:45Z</time>
      </trkpt>
      <trkpt lat="49.79031" lon="2.43539">
        <ele>100.7</ele>
        <time>2023-08-23T08:20:47Z</time>
      </trkpt>
      <trkpt lat="49.79031" lon="2.43539">
        <ele>100.7</ele>
        <time>2023-08-23T08:20:48Z</time>
      </trkpt>
      <trkpt lat="49.79031" lon="2.43539">
        <ele>100.7</ele>
        <time>2023-08-23T08:20:49Z</time>
      </trkpt>
      <trkpt lat="49.79031" lon="2.43539">
        <ele>100.7</ele>
        <time>2023-08-23T08:20:50Z</time>
      </trkpt>
      <trkpt lat="49.79031" lon="2.43539">
        <ele>100.7</ele>
        <time>2023-08-23T08:20:52Z</time>
      </trkpt>
      <trkpt lat="49.79031" lon="2.43539">
        <ele>100.7</ele>
        <time>2023-08-23T08:20:54Z</time>
      </trkpt>
      <trkpt lat="49.79031" lon="2.43539">
        <ele>100.7</ele>
        <time>2023-08-23T08:20:55Z</time>
      </trkpt>
      <trkpt lat="49.79031" lon="2.43539">
        <ele>100.7</ele>
        <time>2023-08-23T08:20:56Z</time>
      </trkpt>
      <trkpt lat="49.79031" lon="2.43539">
        <ele>100.7</ele>
        <time>2023-08-23T08:20:57Z</time>
      </trkpt>
      <trkpt lat="49.79031" lon="2.43539">
        <ele>100.7</ele>
        <time>2023-08-23T08:20:58Z</time>
      </trkpt>
      <trkpt lat="49.79031" lon="2.43539">
        <ele>100.7</ele>
        <time>2023-08-23T08:21:00Z</time>
      </trkpt>
      <trkpt lat="49.79031" lon="2.43539">
        <ele>100.7</ele>
        <time>2023-08-23T08:21:02Z</time>
      </trkpt>
      <trkpt lat="49.79031" lon="2.43538">
        <ele>100.7</ele>
        <time>2023-08-23T08:21:03Z</time>
      </trkpt>
      <trkpt lat="49.79031" lon="2.43537">
        <ele>100.6</ele>
        <time>2023-08-23T08:21:04Z</time>
      </trkpt>
      <trkpt lat="49.79031" lon="2.43536">
        <ele>100.6</ele>
        <time>2023-08-23T08:21:06Z</time>
      </trkpt>
      <trkpt lat="49.79032" lon="2.43535">
        <ele>100.6</ele>
        <time>2023-08-23T08:21:08Z</time>
      </trkpt>
      <trkpt lat="49.79032" lon="2.43534">
        <ele>100.5</ele>
        <time>2023-08-23T08:21:09Z</time>
      </trkpt>
      <trkpt lat="49.79032" lon="2.43533">
        <ele>100.5</ele>
        <time>2023-08-23T08:21:11Z</time>
      </trkpt>
      <trkpt lat="49.79032" lon="2.43532">
        <ele>100.4</ele>
        <time>2023-08-23T08:21:12Z</time>
      </trkpt>
      <trkpt lat="49.79033" lon="2.43532">
        <ele>100.4</ele>
        <time>2023-08-23T08:21:13Z</time>
      </trkpt>
      <trkpt lat="49.79034" lon="2.43531">
        <ele>100.3</ele>
        <time>2023-08-23T08:21:14Z</time>
      </trkpt>
      <trkpt lat="49.79034" lon="2.4353">
        <ele>100.3</ele>
        <time>2023-08-23T08:21:15Z</time>
      </trkpt>
      <trkpt lat="49.79035" lon="2.43529">
        <ele>100.3</ele>
        <time>2023-08-23T08:21:16Z</time>
      </trkpt>
      <trkpt lat="49.79035" lon="2.43528">
        <ele>100.2</ele>
        <time>2023-08-23T08:21:17Z</time>
      </trkpt>
      <trkpt lat="49.79036" lon="2.43527">
        <ele>100.2</ele>
        <time>2023-08-23T08:21:19Z</time>
      </trkpt>
      <trkpt lat="49.79036" lon="2.43525">
        <ele>100.1</ele>
        <time>2023-08-23T08:21:20Z</time>
      </trkpt>
      <trkpt lat="49.79037" lon="2.43525">
        <ele>100.1</ele>
        <time>2023-08-23T08:21:22Z</time>
      </trkpt>
      <trkpt lat="49.79038" lon="2.43524">
        <ele>100</ele>
        <time>2023-08-23T08:21:23Z</time>
      </trkpt>
      <trkpt lat="49.79038" lon="2.43524">
        <ele>100</ele>
        <time>2023-08-23T08:21:24Z</time>
      </trkpt>
      <trkpt lat="49.79039" lon="2.43523">
        <ele>100</ele>
        <time>2023-08-23T08:21:25Z</time>
      </trkpt>
      <trkpt lat="49.79039" lon="2.43523">
        <ele>99.9</ele>
        <time>2023-08-23T08:21:26Z</time>
      </trkpt>
      <trkpt lat="49.7904" lon="2.43523">
        <ele>99.9</ele>
        <time>2023-08-23T08:21:27Z</time>
      </trkpt>
      <trkpt lat="49.79041" lon="2.43523">
        <ele>99.9</ele>
        <time>2023-08-23T08:21:29Z</time>
      </trkpt>
      <trkpt lat="49.79042" lon="2.43523">
        <ele>99.8</ele>
        <time>2023-08-23T08:21:31Z</time>
      </trkpt>
      <trkpt lat="49.79043" lon="2.43523">
        <ele>99.8</ele>
        <time>2023-08-23T08:21:32Z</time>
      </trkpt>
      <trkpt lat="49.79044" lon="2.43523">
        <ele>99.7</ele>
        <time>2023-08-23T08:21:33Z</time>
      </trkpt>
      <trkpt lat="49.79045" lon="2.43522">
        <ele>99.7</ele>
        <time>2023-08-23T08:21:34Z</time>
      </trkpt>
      <trkpt lat="49.79046" lon="2.43522">
        <ele>99.6</ele>
        <time>2023-08-23T08:21:35Z</time>
      </trkpt>
      <trkpt lat="49.79047" lon="2.43521">
        <ele>99.5</ele>
        <time>2023-08-23T08:21:36Z</time>
      </trkpt>
      <trkpt lat="49.79048" lon="2.4352">
        <ele>99.5</ele>
        <time>2023-08-23T08:21:37Z</time>
      </trkpt>
      <trkpt lat="49.79049" lon="2.4352">
        <ele>99.4</ele>
        <time>2023-08-23T08:21:38Z</time>
      </trkpt>
      <trkpt lat="49.79051" lon="2.43519">
        <ele>99.3</ele>
        <time>2023-08-23T08:21:40Z</time>
      </trkpt>
      <trkpt lat="49.79052" lon="2.43519">
        <ele>99.2</ele>
        <time>2023-08-23T08:21:41Z</time>
      </trkpt>
      <trkpt lat="49.79053" lon="2.43518">
        <ele>99.1</ele>
        <time>2023-08-23T08:21:42Z</time>
      </trkpt>
      <trkpt lat="49.79055" lon="2.43517">
        <ele>99</ele>
        <time>2023-08-23T08:21:43Z</time>
      </trkpt>
      <trkpt lat="49.79057" lon="2.43516">
        <ele>98.9</ele>
        <time>2023-08-23T08:21:44Z</time>
      </trkpt>
      <trkpt lat="49.79058" lon="2.43515">
        <ele>98.8</ele>
        <time>2023-08-23T08:21:45Z</time>
      </trkpt>
      <trkpt lat="49.7906" lon="2.43514">
        <ele>98.6</ele>
        <time>2023-08-23T08:21:47Z</time>
      </trkpt>
      <trkpt lat="49.79061" lon="2.43513">
        <ele>98.5</ele>
        <time>2023-08-23T08:21:49Z</time>
      </trkpt>
      <trkpt lat="49.79062" lon="2.43512">
        <ele>98.4</ele>
        <time>2023-08-23T08:21:50Z</time>
      </trkpt>
      <trkpt lat="49.79063" lon="2.43512">
        <ele>98.4</ele>
        <time>2023-08-23T08:21:51Z</time>
      </trkpt>
      <trkpt lat="49.79064" lon="2.43511">
        <ele>98.3</ele>
        <time>2023-08-23T08:21:52Z</time>
      </trkpt>
      <trkpt lat="49.79064" lon="2.4351">
        <ele>98.2</ele>
        <time>2023-08-23T08:21:53Z</time>
      </trkpt>
      <trkpt lat="49.79066" lon="2.43509">
        <ele>98.1</ele>
        <time>2023-08-23T08:21:54Z</time>
      </trkpt>
      <trkpt lat="49.79066" lon="2.43508">
        <ele>98</ele>
        <time>2023-08-23T08:21:55Z</time>
      </trkpt>
      <trkpt lat="49.79068" lon="2.43506">
        <ele>97.8</ele>
        <time>2023-08-23T08:21:57Z</time>
      </trkpt>
      <trkpt lat="49.79068" lon="2.43505">
        <ele>97.7</ele>
        <time>2023-08-23T08:21:58Z</time>
      </trkpt>
      <trkpt lat="49.79069" lon="2.43504">
        <ele>97.7</ele>
        <time>2023-08-23T08:21:59Z</time>
      </trkpt>
      <trkpt lat="49.7907" lon="2.43503">
        <ele>97.6</ele>
        <time>2023-08-23T08:22:00Z</time>
      </trkpt>
      <trkpt lat="49.79071" lon="2.43502">
        <ele>97.4</ele>
        <time>2023-08-23T08:22:01Z</time>
      </trkpt>
      <trkpt lat="49.79072" lon="2.43501">
        <ele>97.3</ele>
        <time>2023-08-23T08:22:02Z</time>
      </trkpt>
      <trkpt lat="49.79074" lon="2.43499">
        <ele>97.1</ele>
        <time>2023-08-23T08:22:04Z</time>
      </trkpt>
      <trkpt lat="49.79075" lon="2.43498">
        <ele>97</ele>
        <time>2023-08-23T08:22:05Z</time>
      </trkpt>
      <trkpt lat="49.79075" lon="2.43498">
        <ele>96.9</ele>
        <time>2023-08-23T08:22:06Z</time>
      </trkpt>
      <trkpt lat="49.79077" lon="2.43496">
        <ele>96.7</ele>
        <time>2023-08-23T08:22:07Z</time>
      </trkpt>
      <trkpt lat="49.79078" lon="2.43495">
        <ele>96.7</ele>
        <time>2023-08-23T08:22:08Z</time>
      </trkpt>
      <trkpt lat="49.79078" lon="2.43495">
        <ele>96.6</ele>
        <time>2023-08-23T08:22:09Z</time>
      </trkpt>
      <trkpt lat="49.79079" lon="2.43494">
        <ele>96.5</ele>
        <time>2023-08-23T08:22:10Z</time>
      </trkpt>
      <trkpt lat="49.79081" lon="2.43493">
        <ele>96.3</ele>
        <time>2023-08-23T08:22:11Z</time>
      </trkpt>
      <trkpt lat="49.79081" lon="2.43492">
        <ele>96.2</ele>
        <time>2023-08-23T08:22:13Z</time>
      </trkpt>
      <trkpt lat="49.79082" lon="2.43491">
        <ele>96.1</ele>
        <time>2023-08-23T08:22:14Z</time>
      </trkpt>
      <trkpt lat="49.79083" lon="2.43489">
        <ele>96</ele>
        <time>2023-08-23T08:22:15Z</time>
      </trkpt>
      <trkpt lat="49.79084" lon="2.43488">
        <ele>95.9</ele>
        <time>2023-08-23T08:22:16Z</time>
      </trkpt>
      <trkpt lat="49.79085" lon="2.43487">
        <ele>95.8</ele>
        <time>2023-08-23T08:22:17Z</time>
      </trkpt>
      <trkpt lat="49.79086" lon="2.43486">
        <ele>95.7</ele>
        <time>2023-08-23T08:22:18Z</time>
      </trkpt>
      <trkpt lat="49.79087" lon="2.43485">
        <ele>95.6</ele>
        <time>2023-08-23T08:22:19Z</time>
      </trkpt>
      <trkpt lat="49.79088" lon="2.43483">
        <ele>95.4</ele>
        <time>2023-08-23T08:22:20Z</time>
      </trkpt>
      <trkpt lat="49.79089" lon="2.43482">
        <ele>95.3</ele>
        <time>2023-08-23T08:22:22Z</time>
      </trkpt>
      <trkpt lat="49.79089" lon="2.43481">
        <ele>95.2</ele>
        <time>2023-08-23T08:22:23Z</time>
      </trkpt>
      <trkpt lat="49.79091" lon="2.43479">
        <ele>95</ele>
        <time>2023-08-23T08:22:24Z</time>
      </trkpt>
      <trkpt lat="49.79092" lon="2.43478">
        <ele>94.9</ele>
        <time>2023-08-23T08:22:25Z</time>
      </trkpt>
      <trkpt lat="49.79092" lon="2.43477">
        <ele>94.9</ele>
        <time>2023-08-23T08:22:26Z</time>
      </trkpt>
      <trkpt lat="49.79093" lon="2.43476">
        <ele>94.7</ele>
        <time>2023-08-23T08:22:27Z</time>
      </trkpt>
      <trkpt lat="49.79094" lon="2.43475">
        <ele>94.6</ele>
        <time>2023-08-23T08:22:28Z</time>
      </trkpt>
      <trkpt lat="49.79095" lon="2.43474">
        <ele>94.5</ele>
        <time>2023-08-23T08:22:29Z</time>
      </trkpt>
      <trkpt lat="49.79096" lon="2.43472">
        <ele>94.4</ele>
        <time>2023-08-23T08:22:30Z</time>
      </trkpt>
      <trkpt lat="49.79098" lon="2.43471">
        <ele>94.2</ele>
        <time>2023-08-23T08:22:32Z</time>
      </trkpt>
      <trkpt lat="49.79099" lon="2.4347">
        <ele>94.1</ele>
        <time>2023-08-23T08:22:33Z</time>
      </trkpt>
      <trkpt lat="49.791" lon="2.43468">
        <ele>93.9</ele>
        <time>2023-08-23T08:22:34Z</time>
      </trkpt>
      <trkpt lat="49.79101" lon="2.43467">
        <ele>93.8</ele>
        <time>2023-08-23T08:22:35Z</time>
      </trkpt>
      <trkpt lat="49.79102" lon="2.43466">
        <ele>93.7</ele>
        <time>2023-08-23T08:22:37Z</time>
      </trkpt>
      <trkpt lat="49.79103" lon="2.43466">
        <ele>93.6</ele>
        <time>2023-08-23T08:22:38Z</time>
      </trkpt>
      <trkpt lat="49.79104" lon="2.43465">
        <ele>93.4</ele>
        <time>2023-08-23T08:22:39Z</time>
      </trkpt>
      <trkpt lat="49.79105" lon="2.43463">
        <ele>93.2</ele>
        <time>2023-08-23T08:22:40Z</time>
      </trkpt>
      <trkpt lat="49.79107" lon="2.43461">
        <ele>92.9</ele>
        <time>2023-08-23T08:22:42Z</time>
      </trkpt>
      <trkpt lat="49.79108" lon="2.4346">
        <ele>92.7</ele>
        <time>2023-08-23T08:22:43Z</time>
      </trkpt>
      <trkpt lat="49.79109" lon="2.43459">
        <ele>92.6</ele>
        <time>2023-08-23T08:22:44Z</time>
      </trkpt>
      <trkpt lat="49.79111" lon="2.43457">
        <ele>92.2</ele>
        <time>2023-08-23T08:22:46Z</time>
      </trkpt>
      <trkpt lat="49.79112" lon="2.43456">
        <ele>92.1</ele>
        <time>2023-08-23T08:22:47Z</time>
      </trkpt>
      <trkpt lat="49.79112" lon="2.43455">
        <ele>92</ele>
        <time>2023-08-23T08:22:48Z</time>
      </trkpt>
      <trkpt lat="49.79114" lon="2.43453">
        <ele>91.6</ele>
        <time>2023-08-23T08:22:49Z</time>
      </trkpt>
      <trkpt lat="49.79115" lon="2.43452">
        <ele>91.5</ele>
        <time>2023-08-23T08:22:50Z</time>
      </trkpt>
      <trkpt lat="49.79115" lon="2.43451">
        <ele>91.3</ele>
        <time>2023-08-23T08:22:51Z</time>
      </trkpt>
      <trkpt lat="49.79117" lon="2.43449">
        <ele>90.9</ele>
        <time>2023-08-23T08:22:52Z</time>
      </trkpt>
      <trkpt lat="49.79118" lon="2.43448">
        <ele>90.8</ele>
        <time>2023-08-23T08:22:54Z</time>
      </trkpt>
      <trkpt lat="49.79118" lon="2.43448">
        <ele>90.6</ele>
        <time>2023-08-23T08:22:55Z</time>
      </trkpt>
      <trkpt lat="49.7912" lon="2.43446">
        <ele>90.2</ele>
        <time>2023-08-23T08:22:56Z</time>
      </trkpt>
      <trkpt lat="49.79121" lon="2.43445">
        <ele>90</ele>
        <time>2023-08-23T08:22:57Z</time>
      </trkpt>
      <trkpt lat="49.79122" lon="2.43445">
        <ele>89.9</ele>
        <time>2023-08-23T08:22:58Z</time>
      </trkpt>
      <trkpt lat="49.79123" lon="2.43443">
        <ele>89.4</ele>
        <time>2023-08-23T08:22:59Z</time>
      </trkpt>
      <trkpt lat="49.79124" lon="2.43442">
        <ele>89.3</ele>
        <time>2023-08-23T08:23:01Z</time>
      </trkpt>
      <trkpt lat="49.79125" lon="2.43441">
        <ele>89.1</ele>
        <time>2023-08-23T08:23:02Z</time>
      </trkpt>
      <trkpt lat="49.79126" lon="2.43439">
        <ele>88.8</ele>
        <time>2023-08-23T08:23:03Z</time>
      </trkpt>
      <trkpt lat="49.79127" lon="2.43438">
        <ele>88.5</ele>
        <time>2023-08-23T08:23:04Z</time>
      </trkpt>
      <trkpt lat="49.79128" lon="2.43437">
        <ele>88.2</ele>
        <time>2023-08-23T08:23:05Z</time>
      </trkpt>
      <trkpt lat="49.79129" lon="2.43435">
        <ele>88</ele>
        <time>2023-08-23T08:23:07Z</time>
      </trkpt>
      <trkpt lat="49.7913" lon="2.43434">
        <ele>87.8</ele>
        <time>2023-08-23T08:23:08Z</time>
      </trkpt>
      <trkpt lat="49.79132" lon="2.43432">
        <ele>87.4</ele>
        <time>2023-08-23T08:23:10Z</time>
      </trkpt>
      <trkpt lat="49.79132" lon="2.43432">
        <ele>87.3</ele>
        <time>2023-08-23T08:23:11Z</time>
      </trkpt>
      <trkpt lat="49.79133" lon="2.43431">
        <ele>87.1</ele>
        <time>2023-08-23T08:23:12Z</time>
      </trkpt>
      <trkpt lat="49.79134" lon="2.4343">
        <ele>86.9</ele>
        <time>2023-08-23T08:23:13Z</time>
      </trkpt>
      <trkpt lat="49.79135" lon="2.43429">
        <ele>86.8</ele>
        <time>2023-08-23T08:23:14Z</time>
      </trkpt>
      <trkpt lat="49.79136" lon="2.43428">
        <ele>86.6</ele>
        <time>2023-08-23T08:23:15Z</time>
      </trkpt>
      <trkpt lat="49.79137" lon="2.43427">
        <ele>86.5</ele>
        <time>2023-08-23T08:23:16Z</time>
      </trkpt>
      <trkpt lat="49.79138" lon="2.43426">
        <ele>86.3</ele>
        <time>2023-08-23T08:23:18Z</time>
      </trkpt>
      <trkpt lat="49.79139" lon="2.43425">
        <ele>86.2</ele>
        <time>2023-08-23T08:23:19Z</time>
      </trkpt>
      <trkpt lat="49.7914" lon="2.43423">
        <ele>86</ele>
        <time>2023-08-23T08:23:20Z</time>
      </trkpt>
      <trkpt lat="49.79141" lon="2.43422">
        <ele>85.9</ele>
        <time>2023-08-23T08:23:21Z</time>
      </trkpt>
      <trkpt lat="49.79143" lon="2.4342">
        <ele>85.6</ele>
        <time>2023-08-23T08:23:23Z</time>
      </trkpt>
      <trkpt lat="49.79144" lon="2.43419">
        <ele>85.5</ele>
        <time>2023-08-23T08:23:24Z</time>
      </trkpt>
      <trkpt lat="49.79144" lon="2.43418">
        <ele>85.4</ele>
        <time>2023-08-23T08:23:25Z</time>
      </trkpt>
      <trkpt lat="49.79146" lon="2.43417">
        <ele>85.3</ele>
        <time>2023-08-23T08:23:26Z</time>
      </trkpt>
      <trkpt lat="49.79147" lon="2.43416">
        <ele>85.1</ele>
        <time>2023-08-23T08:23:27Z</time>
      </trkpt>
      <trkpt lat="49.79148" lon="2.43415">
        <ele>84.9</ele>
        <time>2023-08-23T08:23:28Z</time>
      </trkpt>
      <trkpt lat="49.79149" lon="2.43414">
        <ele>84.8</ele>
        <time>2023-08-23T08:23:29Z</time>
      </trkpt>
      <trkpt lat="49.7915" lon="2.43413">
        <ele>84.7</ele>
        <time>2023-08-23T08:23:31Z</time>
      </trkpt>
      <trkpt lat="49.79152" lon="2.43411">
        <ele>84.4</ele>
        <time>2023-08-23T08:23:32Z</time>
      </trkpt>
      <trkpt lat="49.79153" lon="2.4341">
        <ele>84.3</ele>
        <time>2023-08-23T08:23:33Z</time>
      </trkpt>
      <trkpt lat="49.79153" lon="2.43409">
        <ele>84.2</ele>
        <time>2023-08-23T08:23:34Z</time>
      </trkpt>
      <trkpt lat="49.79155" lon="2.43408">
        <ele>84</ele>
        <time>2023-08-23T08:23:35Z</time>
      </trkpt>
      <trkpt lat="49.79156" lon="2.43407">
        <ele>83.8</ele>
        <time>2023-08-23T08:23:36Z</time>
      </trkpt>
      <trkpt lat="49.79156" lon="2.43406">
        <ele>83.7</ele>
        <time>2023-08-23T08:23:37Z</time>
      </trkpt>
      <trkpt lat="49.79157" lon="2.43404">
        <ele>83.5</ele>
        <time>2023-08-23T08:23:39Z</time>
      </trkpt>
      <trkpt lat="49.79158" lon="2.43403">
        <ele>83.4</ele>
        <time>2023-08-23T08:23:40Z</time>
      </trkpt>
      <trkpt lat="49.79159" lon="2.43402">
        <ele>83.3</ele>
        <time>2023-08-23T08:23:41Z</time>
      </trkpt>
      <trkpt lat="49.79161" lon="2.43401">
        <ele>83</ele>
        <time>2023-08-23T08:23:42Z</time>
      </trkpt>
      <trkpt lat="49.79161" lon="2.434">
        <ele>82.9</ele>
        <time>2023-08-23T08:23:43Z</time>
      </trkpt>
      <trkpt lat="49.79162" lon="2.43399">
        <ele>82.8</ele>
        <time>2023-08-23T08:23:44Z</time>
      </trkpt>
      <trkpt lat="49.79163" lon="2.43398">
        <ele>82.6</ele>
        <time>2023-08-23T08:23:45Z</time>
      </trkpt>
      <trkpt lat="49.79164" lon="2.43397">
        <ele>82.4</ele>
        <time>2023-08-23T08:23:46Z</time>
      </trkpt>
      <trkpt lat="49.79165" lon="2.43396">
        <ele>82.2</ele>
        <time>2023-08-23T08:23:48Z</time>
      </trkpt>
      <trkpt lat="49.79166" lon="2.43394">
        <ele>82.1</ele>
        <time>2023-08-23T08:23:49Z</time>
      </trkpt>
      <trkpt lat="49.79167" lon="2.43392">
        <ele>81.9</ele>
        <time>2023-08-23T08:23:50Z</time>
      </trkpt>
      <trkpt lat="49.79167" lon="2.4339">
        <ele>81.7</ele>
        <time>2023-08-23T08:23:51Z</time>
      </trkpt>
      <trkpt lat="49.79168" lon="2.43389">
        <ele>81.5</ele>
        <time>2023-08-23T08:23:52Z</time>
      </trkpt>
      <trkpt lat="49.79168" lon="2.43387">
        <ele>81.4</ele>
        <time>2023-08-23T08:23:53Z</time>
      </trkpt>
      <trkpt lat="49.79169" lon="2.43384">
        <ele>81.1</ele>
        <time>2023-08-23T08:23:54Z</time>
      </trkpt>
      <trkpt lat="49.7917" lon="2.43383">
        <ele>80.9</ele>
        <time>2023-08-23T08:23:56Z</time>
      </trkpt>
      <trkpt lat="49.7917" lon="2.43381">
        <ele>80.8</ele>
        <time>2023-08-23T08:23:57Z</time>
      </trkpt>
      <trkpt lat="49.79171" lon="2.4338">
        <ele>80.6</ele>
        <time>2023-08-23T08:23:59Z</time>
      </trkpt>
      <trkpt lat="49.79172" lon="2.43378">
        <ele>80.4</ele>
        <time>2023-08-23T08:24:00Z</time>
      </trkpt>
      <trkpt lat="49.79172" lon="2.43376">
        <ele>80.2</ele>
        <time>2023-08-23T08:24:01Z</time>
      </trkpt>
      <trkpt lat="49.79173" lon="2.43375">
        <ele>80.1</ele>
        <time>2023-08-23T08:24:02Z</time>
      </trkpt>
      <trkpt lat="49.79174" lon="2.43373">
        <ele>79.9</ele>
        <time>2023-08-23T08:24:03Z</time>
      </trkpt>
      <trkpt lat="49.79174" lon="2.43371">
        <ele>79.7</ele>
        <time>2023-08-23T08:24:04Z</time>
      </trkpt>
      <trkpt lat="49.79175" lon="2.4337">
        <ele>79.5</ele>
        <time>2023-08-23T08:24:05Z</time>
      </trkpt>
      <trkpt lat="49.79175" lon="2.43368">
        <ele>79.4</ele>
        <time>2023-08-23T08:24:07Z</time>
      </trkpt>
      <trkpt lat="49.79175" lon="2.43367">
        <ele>79.3</ele>
        <time>2023-08-23T08:24:08Z</time>
      </trkpt>
      <trkpt lat="49.79175" lon="2.43366">
        <ele>79.1</ele>
        <time>2023-08-23T08:24:09Z</time>
      </trkpt>
      <trkpt lat="49.79176" lon="2.43365">
        <ele>79</ele>
        <time>2023-08-23T08:24:10Z</time>
      </trkpt>
      <trkpt lat="49.79176" lon="2.43363">
        <ele>78.8</ele>
        <time>2023-08-23T08:24:11Z</time>
      </trkpt>
      <trkpt lat="49.79176" lon="2.4336">
        <ele>78.5</ele>
        <time>2023-08-23T08:24:13Z</time>
      </trkpt>
      <trkpt lat="49.79176" lon="2.43358">
        <ele>78.3</ele>
        <time>2023-08-23T08:24:14Z</time>
      </trkpt>
      <trkpt lat="49.79177" lon="2.43355">
        <ele>78</ele>
        <time>2023-08-23T08:24:16Z</time>
      </trkpt>
      <trkpt lat="49.79177" lon="2.43353">
        <ele>77.9</ele>
        <time>2023-08-23T08:24:17Z</time>
      </trkpt>
      <trkpt lat="49.79177" lon="2.43352">
        <ele>77.7</ele>
        <time>2023-08-23T08:24:19Z</time>
      </trkpt>
      <trkpt lat="49.79177" lon="2.4335">
        <ele>77.6</ele>
        <time>2023-08-23T08:24:20Z</time>
      </trkpt>
      <trkpt lat="49.79177" lon="2.43349">
        <ele>77.5</ele>
        <time>2023-08-23T08:24:21Z</time>
      </trkpt>
      <trkpt lat="49.79177" lon="2.43347">
        <ele>77.4</ele>
        <time>2023-08-23T08:24:22Z</time>
      </trkpt>
      <trkpt lat="49.79178" lon="2.43346">
        <ele>77.2</ele>
        <time>2023-08-23T08:24:23Z</time>
      </trkpt>
      <trkpt lat="49.79178" lon="2.43344">
        <ele>77.1</ele>
        <time>2023-08-23T08:24:24Z</time>
      </trkpt>
      <trkpt lat="49.79179" lon="2.43341">
        <ele>76.9</ele>
        <time>2023-08-23T08:24:25Z</time>
      </trkpt>
      <trkpt lat="49.79179" lon="2.4334">
        <ele>76.7</ele>
        <time>2023-08-23T08:24:27Z</time>
      </trkpt>
      <trkpt lat="49.79179" lon="2.43338">
        <ele>76.6</ele>
        <time>2023-08-23T08:24:28Z</time>
      </trkpt>
      <trkpt lat="49.7918" lon="2.43337">
        <ele>76.5</ele>
        <time>2023-08-23T08:24:29Z</time>
      </trkpt>
      <trkpt lat="49.79181" lon="2.43335">
        <ele>76.3</ele>
        <time>2023-08-23T08:24:30Z</time>
      </trkpt>
      <trkpt lat="49.79182" lon="2.43334">
        <ele>76.2</ele>
        <time>2023-08-23T08:24:31Z</time>
      </trkpt>
      <trkpt lat="49.79183" lon="2.43332">
        <ele>76.1</ele>
        <time>2023-08-23T08:24:33Z</time>
      </trkpt>
      <trkpt lat="49.79185" lon="2.43331">
        <ele>75.9</ele>
        <time>2023-08-23T08:24:34Z</time>
      </trkpt>
      <trkpt lat="49.79186" lon="2.4333">
        <ele>75.7</ele>
        <time>2023-08-23T08:24:35Z</time>
      </trkpt>
      <trkpt lat="49.79187" lon="2.43329">
        <ele>75.6</ele>
        <time>2023-08-23T08:24:36Z</time>
      </trkpt>
      <trkpt lat="49.79189" lon="2.43328">
        <ele>75.5</ele>
        <time>2023-08-23T08:24:37Z</time>
      </trkpt>
      <trkpt lat="49.7919" lon="2.43328">
        <ele>75.3</ele>
        <time>2023-08-23T08:24:38Z</time>
      </trkpt>
      <trkpt lat="49.79193" lon="2.43328">
        <ele>75</ele>
        <time>2023-08-23T08:24:40Z</time>
      </trkpt>
      <trkpt lat="49.79194" lon="2.4333">
        <ele>74.9</ele>
        <time>2023-08-23T08:24:41Z</time>
      </trkpt>
      <trkpt lat="49.79196" lon="2.43331">
        <ele>74.7</ele>
        <time>2023-08-23T08:24:42Z</time>
      </trkpt>
      <trkpt lat="49.79198" lon="2.43334">
        <ele>74.4</ele>
        <time>2023-08-23T08:24:44Z</time>
      </trkpt>
      <trkpt lat="49.79199" lon="2.43335">
        <ele>74.3</ele>
        <time>2023-08-23T08:24:45Z</time>
      </trkpt>
      <trkpt lat="49.792" lon="2.43336">
        <ele>74.2</ele>
        <time>2023-08-23T08:24:46Z</time>
      </trkpt>
      <trkpt lat="49.79201" lon="2.43337">
        <ele>74</ele>
        <time>2023-08-23T08:24:47Z</time>
      </trkpt>
      <trkpt lat="49.79202" lon="2.43339">
        <ele>73.9</ele>
        <time>2023-08-23T08:24:48Z</time>
      </trkpt>
      <trkpt lat="49.79203" lon="2.43341">
        <ele>73.7</ele>
        <time>2023-08-23T08:24:49Z</time>
      </trkpt>
      <trkpt lat="49.79204" lon="2.43343">
        <ele>73.6</ele>
        <time>2023-08-23T08:24:50Z</time>
      </trkpt>
      <trkpt lat="49.79205" lon="2.43345">
        <ele>73.4</ele>
        <time>2023-08-23T08:24:52Z</time>
      </trkpt>
      <trkpt lat="49.79206" lon="2.43347">
        <ele>73.2</ele>
        <time>2023-08-23T08:24:53Z</time>
      </trkpt>
      <trkpt lat="49.79207" lon="2.43349">
        <ele>73.1</ele>
        <time>2023-08-23T08:24:54Z</time>
      </trkpt>
      <trkpt lat="49.79207" lon="2.43353">
        <ele>72.9</ele>
        <time>2023-08-23T08:24:55Z</time>
      </trkpt>
      <trkpt lat="49.79207" lon="2.43354">
        <ele>72.8</ele>
        <time>2023-08-23T08:24:56Z</time>
      </trkpt>
      <trkpt lat="49.79207" lon="2.43356">
        <ele>72.7</ele>
        <time>2023-08-23T08:24:57Z</time>
      </trkpt>
      <trkpt lat="49.79207" lon="2.43358">
        <ele>72.6</ele>
        <time>2023-08-23T08:24:59Z</time>
      </trkpt>
      <trkpt lat="49.79207" lon="2.4336">
        <ele>72.5</ele>
        <time>2023-08-23T08:25:00Z</time>
      </trkpt>
      <trkpt lat="49.79207" lon="2.43363">
        <ele>72.3</ele>
        <time>2023-08-23T08:25:01Z</time>
      </trkpt>
      <trkpt lat="49.79206" lon="2.43364">
        <ele>72.2</ele>
        <time>2023-08-23T08:25:02Z</time>
      </trkpt>
      <trkpt lat="49.79205" lon="2.43366">
        <ele>72.1</ele>
        <time>2023-08-23T08:25:03Z</time>
      </trkpt>
      <trkpt lat="49.79203" lon="2.43365">
        <ele>71.9</ele>
        <time>2023-08-23T08:25:05Z</time>
      </trkpt>
      <trkpt lat="49.79202" lon="2.43365">
        <ele>71.8</ele>
        <time>2023-08-23T08:25:06Z</time>
      </trkpt>
      <trkpt lat="49.792" lon="2.43363">
        <ele>71.7</ele>
        <time>2023-08-23T08:25:07Z</time>
      </trkpt>
      <trkpt lat="49.79199" lon="2.43363">
        <ele>71.6</ele>
        <time>2023-08-23T08:25:08Z</time>
      </trkpt>
      <trkpt lat="49.79199" lon="2.43362">
        <ele>71.6</ele>
        <time>2023-08-23T08:25:09Z</time>
      </trkpt>
      <trkpt lat="49.79198" lon="2.43362">
        <ele>71.5</ele>
        <time>2023-08-23T08:25:10Z</time>
      </trkpt>
      <trkpt lat="49.79197" lon="2.43362">
        <ele>71.5</ele>
        <time>2023-08-23T08:25:12Z</time>
      </trkpt>
      <trkpt lat="49.79197" lon="2.43362">
        <ele>71.5</ele>
        <time>2023-08-23T08:25:13Z</time>
      </trkpt>
      <trkpt lat="49.79197" lon="2.43362">
        <ele>71.5</ele>
        <time>2023-08-23T08:25:15Z</time>
      </trkpt>
      <trkpt lat="49.79197" lon="2.43362">
        <ele>71.5</ele>
        <time>2023-08-23T08:25:16Z</time>
      </trkpt>
      <trkpt lat="49.79197" lon="2.43362">
        <ele>71.5</ele>
        <time>2023-08-23T08:25:18Z</time>
      </trkpt>
      <trkpt lat="49.79197" lon="2.43362">
        <ele>71.5</ele>
        <time>2023-08-23T08:25:19Z</time>
      </trkpt>
      <trkpt lat="49.79197" lon="2.43361">
        <ele>71.5</ele>
        <time>2023-08-23T08:25:20Z</time>
      </trkpt>
      <trkpt lat="49.79197" lon="2.43361">
        <ele>71.4</ele>
        <time>2023-08-23T08:25:23Z</time>
      </trkpt>
      <trkpt lat="49.79197" lon="2.43361">
        <ele>71.4</ele>
        <time>2023-08-23T08:25:24Z</time>
      </trkpt>
      <trkpt lat="49.79197" lon="2.43362">
        <ele>71.4</ele>
        <time>2023-08-23T08:25:25Z</time>
      </trkpt>
      <trkpt lat="49.79198" lon="2.43363">
        <ele>71.3</ele>
        <time>2023-08-23T08:25:26Z</time>
      </trkpt>
      <trkpt lat="49.79198" lon="2.43364">
        <ele>71.3</ele>
        <time>2023-08-23T08:25:27Z</time>
      </trkpt>
      <trkpt lat="49.79198" lon="2.43364">
        <ele>71.3</ele>
        <time>2023-08-23T08:25:28Z</time>
      </trkpt>
      <trkpt lat="49.79199" lon="2.43364">
        <ele>71.2</ele>
        <time>2023-08-23T08:25:29Z</time>
      </trkpt>
      <trkpt lat="49.79199" lon="2.43365">
        <ele>71.2</ele>
        <time>2023-08-23T08:25:31Z</time>
      </trkpt>
      <trkpt lat="49.79199" lon="2.43366">
        <ele>71.2</ele>
        <time>2023-08-23T08:25:32Z</time>
      </trkpt>
      <trkpt lat="49.79199" lon="2.43366">
        <ele>71.2</ele>
        <time>2023-08-23T08:25:33Z</time>
      </trkpt>
      <trkpt lat="49.79199" lon="2.43365">
        <ele>71.1</ele>
        <time>2023-08-23T08:25:34Z</time>
      </trkpt>
      <trkpt lat="49.79199" lon="2.43365">
        <ele>71.1</ele>
        <time>2023-08-23T08:25:36Z</time>
      </trkpt>
      <trkpt lat="49.792" lon="2.43366">
        <ele>71.1</ele>
        <time>2023-08-23T08:25:37Z</time>
      </trkpt>
      <trkpt lat="49.792" lon="2.43366">
        <ele>71.1</ele>
        <time>2023-08-23T08:25:38Z</time>
      </trkpt>
      <trkpt lat="49.792" lon="2.43366">
        <ele>71.1</ele>
        <time>2023-08-23T08:25:40Z</time>
      </trkpt>
      <trkpt lat="49.79201" lon="2.43367">
        <ele>71</ele>
        <time>2023-08-23T08:25:41Z</time>
      </trkpt>
      <trkpt lat="49.79201" lon="2.43367">
        <ele>71</ele>
        <time>2023-08-23T08:25:42Z</time>
      </trkpt>
      <trkpt lat="49.79201" lon="2.43368">
        <ele>71</ele>
        <time>2023-08-23T08:25:43Z</time>
      </trkpt>
      <trkpt lat="49.79202" lon="2.43368">
        <ele>70.9</ele>
        <time>2023-08-23T08:25:44Z</time>
      </trkpt>
      <trkpt lat="49.79203" lon="2.43368">
        <ele>70.9</ele>
        <time>2023-08-23T08:25:46Z</time>
      </trkpt>
      <trkpt lat="49.79204" lon="2.43369">
        <ele>70.9</ele>
        <time>2023-08-23T08:25:47Z</time>
      </trkpt>
      <trkpt lat="49.79204" lon="2.4337">
        <ele>70.8</ele>
        <time>2023-08-23T08:25:48Z</time>
      </trkpt>
      <trkpt lat="49.79205" lon="2.43371">
        <ele>70.8</ele>
        <time>2023-08-23T08:25:50Z</time>
      </trkpt>
      <trkpt lat="49.79205" lon="2.43372">
        <ele>70.8</ele>
        <time>2023-08-23T08:25:51Z</time>
      </trkpt>
      <trkpt lat="49.79206" lon="2.43373">
        <ele>70.7</ele>
        <time>2023-08-23T08:25:52Z</time>
      </trkpt>
      <trkpt lat="49.79207" lon="2.43374">
        <ele>70.7</ele>
        <time>2023-08-23T08:25:53Z</time>
      </trkpt>
      <trkpt lat="49.79208" lon="2.43375">
        <ele>70.7</ele>
        <time>2023-08-23T08:25:54Z</time>
      </trkpt>
      <trkpt lat="49.79208" lon="2.43376">
        <ele>70.6</ele>
        <time>2023-08-23T08:25:55Z</time>
      </trkpt>
      <trkpt lat="49.79209" lon="2.43377">
        <ele>70.6</ele>
        <time>2023-08-23T08:25:57Z</time>
      </trkpt>
      <trkpt lat="49.7921" lon="2.43378">
        <ele>70.6</ele>
        <time>2023-08-23T08:25:58Z</time>
      </trkpt>
      <trkpt lat="49.79211" lon="2.43379">
        <ele>70.5</ele>
        <time>2023-08-23T08:25:59Z</time>
      </trkpt>
      <trkpt lat="49.79212" lon="2.43381">
        <ele>70.5</ele>
        <time>2023-08-23T08:26:00Z</time>
      </trkpt>
      <trkpt lat="49.79213" lon="2.43383">
        <ele>70.4</ele>
        <time>2023-08-23T08:26:01Z</time>
      </trkpt>
      <trkpt lat="49.79214" lon="2.43384">
        <ele>70.4</ele>
        <time>2023-08-23T08:26:02Z</time>
      </trkpt>
      <trkpt lat="49.79215" lon="2.43384">
        <ele>70.4</ele>
        <time>2023-08-23T08:26:03Z</time>
      </trkpt>
      <trkpt lat="49.79216" lon="2.43386">
        <ele>70.3</ele>
        <time>2023-08-23T08:26:05Z</time>
      </trkpt>
      <trkpt lat="49.79217" lon="2.43387">
        <ele>70.3</ele>
        <time>2023-08-23T08:26:06Z</time>
      </trkpt>
      <trkpt lat="49.79218" lon="2.43388">
        <ele>70.3</ele>
        <time>2023-08-23T08:26:07Z</time>
      </trkpt>
      <trkpt lat="49.79218" lon="2.43389">
        <ele>70.3</ele>
        <time>2023-08-23T08:26:08Z</time>
      </trkpt>
      <trkpt lat="49.79219" lon="2.4339">
        <ele>70.3</ele>
        <time>2023-08-23T08:26:09Z</time>
      </trkpt>
      <trkpt lat="49.7922" lon="2.4339">
        <ele>70.2</ele>
        <time>2023-08-23T08:26:10Z</time>
      </trkpt>
      <trkpt lat="49.79222" lon="2.43391">
        <ele>70.2</ele>
        <time>2023-08-23T08:26:11Z</time>
      </trkpt>
      <trkpt lat="49.79223" lon="2.43392">
        <ele>70.1</ele>
        <time>2023-08-23T08:26:13Z</time>
      </trkpt>
      <trkpt lat="49.79224" lon="2.43392">
        <ele>70.1</ele>
        <time>2023-08-23T08:26:14Z</time>
      </trkpt>
      <trkpt lat="49.79225" lon="2.43393">
        <ele>70.1</ele>
        <time>2023-08-23T08:26:16Z</time>
      </trkpt>
      <trkpt lat="49.79226" lon="2.43393">
        <ele>70.1</ele>
        <time>2023-08-23T08:26:17Z</time>
      </trkpt>
      <trkpt lat="49.79227" lon="2.43393">
        <ele>70</ele>
        <time>2023-08-23T08:26:18Z</time>
      </trkpt>
      <trkpt lat="49.79227" lon="2.43394">
        <ele>70</ele>
        <time>2023-08-23T08:26:19Z</time>
      </trkpt>
      <trkpt lat="49.79228" lon="2.43396">
        <ele>70</ele>
        <time>2023-08-23T08:26:20Z</time>
      </trkpt>
      <trkpt lat="49.79229" lon="2.434">
        <ele>69.9</ele>
        <time>2023-08-23T08:26:22Z</time>
      </trkpt>
      <trkpt lat="49.7923" lon="2.43404">
        <ele>69.8</ele>
        <time>2023-08-23T08:26:23Z</time>
      </trkpt>
      <trkpt lat="49.79232" lon="2.43409">
        <ele>69.6</ele>
        <time>2023-08-23T08:26:24Z</time>
      </trkpt>
      <trkpt lat="49.79233" lon="2.4341">
        <ele>69.6</ele>
        <time>2023-08-23T08:26:25Z</time>
      </trkpt>
      <trkpt lat="49.79234" lon="2.43415">
        <ele>69.4</ele>
        <time>2023-08-23T08:26:27Z</time>
      </trkpt>
      <trkpt lat="49.79235" lon="2.43416">
        <ele>69.4</ele>
        <time>2023-08-23T08:26:28Z</time>
      </trkpt>
      <trkpt lat="49.79236" lon="2.43418">
        <ele>69.3</ele>
        <time>2023-08-23T08:26:29Z</time>
      </trkpt>
      <trkpt lat="49.79237" lon="2.4342">
        <ele>69.2</ele>
        <time>2023-08-23T08:26:30Z</time>
      </trkpt>
      <trkpt lat="49.79238" lon="2.43422">
        <ele>69.1</ele>
        <time>2023-08-23T08:26:31Z</time>
      </trkpt>
      <trkpt lat="49.79239" lon="2.43423">
        <ele>69</ele>
        <time>2023-08-23T08:26:32Z</time>
      </trkpt>
      <trkpt lat="49.7924" lon="2.43425">
        <ele>68.9</ele>
        <time>2023-08-23T08:26:34Z</time>
      </trkpt>
      <trkpt lat="49.79241" lon="2.43427">
        <ele>68.7</ele>
        <time>2023-08-23T08:26:35Z</time>
      </trkpt>
      <trkpt lat="49.79242" lon="2.43429">
        <ele>68.6</ele>
        <time>2023-08-23T08:26:36Z</time>
      </trkpt>
      <trkpt lat="49.79243" lon="2.43431">
        <ele>68.5</ele>
        <time>2023-08-23T08:26:37Z</time>
      </trkpt>
      <trkpt lat="49.79245" lon="2.43432">
        <ele>68.4</ele>
        <time>2023-08-23T08:26:38Z</time>
      </trkpt>
      <trkpt lat="49.79246" lon="2.43434">
        <ele>68.3</ele>
        <time>2023-08-23T08:26:39Z</time>
      </trkpt>
      <trkpt lat="49.79247" lon="2.43436">
        <ele>68.2</ele>
        <time>2023-08-23T08:26:40Z</time>
      </trkpt>
      <trkpt lat="49.79248" lon="2.43437">
        <ele>68.1</ele>
        <time>2023-08-23T08:26:42Z</time>
      </trkpt>
      <trkpt lat="49.79248" lon="2.43439">
        <ele>68</ele>
        <time>2023-08-23T08:26:43Z</time>
      </trkpt>
      <trkpt lat="49.79249" lon="2.43441">
        <ele>67.8</ele>
        <time>2023-08-23T08:26:44Z</time>
      </trkpt>
      <trkpt lat="49.79251" lon="2.43445">
        <ele>67.7</ele>
        <time>2023-08-23T08:26:45Z</time>
      </trkpt>
      <trkpt lat="49.79253" lon="2.43449">
        <ele>67.5</ele>
        <time>2023-08-23T08:26:47Z</time>
      </trkpt>
      <trkpt lat="49.79253" lon="2.43451">
        <ele>67.4</ele>
        <time>2023-08-23T08:26:48Z</time>
      </trkpt>
      <trkpt lat="49.79254" lon="2.43453">
        <ele>67.3</ele>
        <time>2023-08-23T08:26:49Z</time>
      </trkpt>
      <trkpt lat="49.79255" lon="2.43455">
        <ele>67.2</ele>
        <time>2023-08-23T08:26:50Z</time>
      </trkpt>
      <trkpt lat="49.79257" lon="2.43458">
        <ele>67.1</ele>
        <time>2023-08-23T08:26:52Z</time>
      </trkpt>
      <trkpt lat="49.79258" lon="2.4346">
        <ele>67.1</ele>
        <time>2023-08-23T08:26:54Z</time>
      </trkpt>
      <trkpt lat="49.79259" lon="2.43462">
        <ele>67</ele>
        <time>2023-08-23T08:26:55Z</time>
      </trkpt>
      <trkpt lat="49.7926" lon="2.43463">
        <ele>67</ele>
        <time>2023-08-23T08:26:56Z</time>
      </trkpt>
      <trkpt lat="49.79261" lon="2.43466">
        <ele>67</ele>
        <time>2023-08-23T08:26:57Z</time>
      </trkpt>
      <trkpt lat="49.79262" lon="2.43469">
        <ele>66.9</ele>
        <time>2023-08-23T08:26:59Z</time>
      </trkpt>
      <trkpt lat="49.79263" lon="2.4347">
        <ele>66.9</ele>
        <time>2023-08-23T08:27:00Z</time>
      </trkpt>
      <trkpt lat="49.79263" lon="2.43471">
        <ele>66.9</ele>
        <time>2023-08-23T08:27:01Z</time>
      </trkpt>
      <trkpt lat="49.79264" lon="2.43474">
        <ele>66.9</ele>
        <time>2023-08-23T08:27:02Z</time>
      </trkpt>
      <trkpt lat="49.79264" lon="2.43476">
        <ele>66.9</ele>
        <time>2023-08-23T08:27:03Z</time>
      </trkpt>
      <trkpt lat="49.79265" lon="2.43478">
        <ele>67</ele>
        <time>2023-08-23T08:27:04Z</time>
      </trkpt>
      <trkpt lat="49.79265" lon="2.4348">
        <ele>67</ele>
        <time>2023-08-23T08:27:06Z</time>
      </trkpt>
      <trkpt lat="49.79266" lon="2.43481">
        <ele>67</ele>
        <time>2023-08-23T08:27:07Z</time>
      </trkpt>
      <trkpt lat="49.79267" lon="2.43484">
        <ele>67</ele>
        <time>2023-08-23T08:27:08Z</time>
      </trkpt>
      <trkpt lat="49.79269" lon="2.43485">
        <ele>67.1</ele>
        <time>2023-08-23T08:27:09Z</time>
      </trkpt>
      <trkpt lat="49.7927" lon="2.43487">
        <ele>67.1</ele>
        <time>2023-08-23T08:27:11Z</time>
      </trkpt>
      <trkpt lat="49.79271" lon="2.43489">
        <ele>67.2</ele>
        <time>2023-08-23T08:27:12Z</time>
      </trkpt>
      <trkpt lat="49.79272" lon="2.43491">
        <ele>67.3</ele>
        <time>2023-08-23T08:27:13Z</time>
      </trkpt>
      <trkpt lat="49.79273" lon="2.43492">
        <ele>67.3</ele>
        <time>2023-08-23T08:27:14Z</time>
      </trkpt>
      <trkpt lat="49.79272" lon="2.43495">
        <ele>67.4</ele>
        <time>2023-08-23T08:27:16Z</time>
      </trkpt>
      <trkpt lat="49.7927" lon="2.43495">
        <ele>67.4</ele>
        <time>2023-08-23T08:27:17Z</time>
      </trkpt>
      <trkpt lat="49.79267" lon="2.43493">
        <ele>67.5</ele>
        <time>2023-08-23T08:27:20Z</time>
      </trkpt>
      <trkpt lat="49.79267" lon="2.43493">
        <ele>67.6</ele>
        <time>2023-08-23T08:27:22Z</time>
      </trkpt>
      <trkpt lat="49.79267" lon="2.43493">
        <ele>67.6</ele>
        <time>2023-08-23T08:27:23Z</time>
      </trkpt>
      <trkpt lat="49.79268" lon="2.43492">
        <ele>67.6</ele>
        <time>2023-08-23T08:27:24Z</time>
      </trkpt>
      <trkpt lat="49.79267" lon="2.43492">
        <ele>67.6</ele>
        <time>2023-08-23T08:27:26Z</time>
      </trkpt>
      <trkpt lat="49.79268" lon="2.43492">
        <ele>67.6</ele>
        <time>2023-08-23T08:27:27Z</time>
      </trkpt>
      <trkpt lat="49.79268" lon="2.43492">
        <ele>67.6</ele>
        <time>2023-08-23T08:27:29Z</time>
      </trkpt>
      <trkpt lat="49.79268" lon="2.43493">
        <ele>67.6</ele>
        <time>2023-08-23T08:27:30Z</time>
      </trkpt>
      <trkpt lat="49.79268" lon="2.43493">
        <ele>67.6</ele>
        <time>2023-08-23T08:27:32Z</time>
      </trkpt>
      <trkpt lat="49.79269" lon="2.43493">
        <ele>67.6</ele>
        <time>2023-08-23T08:27:33Z</time>
      </trkpt>
      <trkpt lat="49.7927" lon="2.43494">
        <ele>67.7</ele>
        <time>2023-08-23T08:27:34Z</time>
      </trkpt>
      <trkpt lat="49.79271" lon="2.43495">
        <ele>67.8</ele>
        <time>2023-08-23T08:27:35Z</time>
      </trkpt>
      <trkpt lat="49.79272" lon="2.43496">
        <ele>67.8</ele>
        <time>2023-08-23T08:27:36Z</time>
      </trkpt>
      <trkpt lat="49.79274" lon="2.43497">
        <ele>67.9</ele>
        <time>2023-08-23T08:27:37Z</time>
      </trkpt>
      <trkpt lat="49.79277" lon="2.435">
        <ele>68</ele>
        <time>2023-08-23T08:27:39Z</time>
      </trkpt>
      <trkpt lat="49.79278" lon="2.43502">
        <ele>68</ele>
        <time>2023-08-23T08:27:41Z</time>
      </trkpt>
      <trkpt lat="49.7928" lon="2.43504">
        <ele>68.1</ele>
        <time>2023-08-23T08:27:42Z</time>
      </trkpt>
      <trkpt lat="49.79281" lon="2.43506">
        <ele>68.1</ele>
        <time>2023-08-23T08:27:43Z</time>
      </trkpt>
      <trkpt lat="49.79282" lon="2.43507">
        <ele>68.1</ele>
        <time>2023-08-23T08:27:44Z</time>
      </trkpt>
      <trkpt lat="49.79283" lon="2.43509">
        <ele>68.2</ele>
        <time>2023-08-23T08:27:45Z</time>
      </trkpt>
      <trkpt lat="49.79284" lon="2.4351">
        <ele>68.2</ele>
        <time>2023-08-23T08:27:47Z</time>
      </trkpt>
      <trkpt lat="49.79285" lon="2.43512">
        <ele>68.2</ele>
        <time>2023-08-23T08:27:48Z</time>
      </trkpt>
      <trkpt lat="49.79287" lon="2.43515">
        <ele>68.3</ele>
        <time>2023-08-23T08:27:49Z</time>
      </trkpt>
      <trkpt lat="49.79288" lon="2.43516">
        <ele>68.3</ele>
        <time>2023-08-23T08:27:50Z</time>
      </trkpt>
      <trkpt lat="49.79288" lon="2.43517">
        <ele>68.3</ele>
        <time>2023-08-23T08:27:51Z</time>
      </trkpt>
      <trkpt lat="49.79289" lon="2.43519">
        <ele>68.3</ele>
        <time>2023-08-23T08:27:53Z</time>
      </trkpt>
      <trkpt lat="49.79289" lon="2.43521">
        <ele>68.4</ele>
        <time>2023-08-23T08:27:54Z</time>
      </trkpt>
      <trkpt lat="49.7929" lon="2.43524">
        <ele>68.4</ele>
        <time>2023-08-23T08:27:55Z</time>
      </trkpt>
      <trkpt lat="49.79291" lon="2.43525">
        <ele>68.4</ele>
        <time>2023-08-23T08:27:56Z</time>
      </trkpt>
      <trkpt lat="49.79291" lon="2.43526">
        <ele>68.4</ele>
        <time>2023-08-23T08:27:57Z</time>
      </trkpt>
      <trkpt lat="49.79292" lon="2.43527">
        <ele>68.5</ele>
        <time>2023-08-23T08:27:58Z</time>
      </trkpt>
      <trkpt lat="49.79293" lon="2.43528">
        <ele>68.5</ele>
        <time>2023-08-23T08:27:59Z</time>
      </trkpt>
      <trkpt lat="49.79294" lon="2.43529">
        <ele>68.5</ele>
        <time>2023-08-23T08:28:01Z</time>
      </trkpt>
      <trkpt lat="49.79294" lon="2.4353">
        <ele>68.5</ele>
        <time>2023-08-23T08:28:02Z</time>
      </trkpt>
      <trkpt lat="49.79295" lon="2.43531">
        <ele>68.5</ele>
        <time>2023-08-23T08:28:03Z</time>
      </trkpt>
      <trkpt lat="49.79296" lon="2.43532">
        <ele>68.6</ele>
        <time>2023-08-23T08:28:04Z</time>
      </trkpt>
      <trkpt lat="49.79296" lon="2.43532">
        <ele>68.6</ele>
        <time>2023-08-23T08:28:05Z</time>
      </trkpt>
      <trkpt lat="49.79296" lon="2.43533">
        <ele>68.6</ele>
        <time>2023-08-23T08:28:06Z</time>
      </trkpt>
      <trkpt lat="49.79297" lon="2.43534">
        <ele>68.6</ele>
        <time>2023-08-23T08:28:07Z</time>
      </trkpt>
      <trkpt lat="49.79297" lon="2.43535">
        <ele>68.6</ele>
        <time>2023-08-23T08:28:09Z</time>
      </trkpt>
      <trkpt lat="49.79298" lon="2.43536">
        <ele>68.6</ele>
        <time>2023-08-23T08:28:10Z</time>
      </trkpt>
      <trkpt lat="49.79299" lon="2.43539">
        <ele>68.7</ele>
        <time>2023-08-23T08:28:11Z</time>
      </trkpt>
      <trkpt lat="49.79299" lon="2.4354">
        <ele>68.7</ele>
        <time>2023-08-23T08:28:12Z</time>
      </trkpt>
      <trkpt lat="49.79299" lon="2.43541">
        <ele>68.7</ele>
        <time>2023-08-23T08:28:13Z</time>
      </trkpt>
      <trkpt lat="49.793" lon="2.43543">
        <ele>68.7</ele>
        <time>2023-08-23T08:28:14Z</time>
      </trkpt>
      <trkpt lat="49.79301" lon="2.43545">
        <ele>68.8</ele>
        <time>2023-08-23T08:28:16Z</time>
      </trkpt>
      <trkpt lat="49.79301" lon="2.43547">
        <ele>68.8</ele>
        <time>2023-08-23T08:28:17Z</time>
      </trkpt>
      <trkpt lat="49.79302" lon="2.43549">
        <ele>68.8</ele>
        <time>2023-08-23T08:28:18Z</time>
      </trkpt>
      <trkpt lat="49.79303" lon="2.43552">
        <ele>68.9</ele>
        <time>2023-08-23T08:28:19Z</time>
      </trkpt>
      <trkpt lat="49.79303" lon="2.43553">
        <ele>68.9</ele>
        <time>2023-08-23T08:28:20Z</time>
      </trkpt>
      <trkpt lat="49.79304" lon="2.43554">
        <ele>68.9</ele>
        <time>2023-08-23T08:28:21Z</time>
      </trkpt>
      <trkpt lat="49.79305" lon="2.43557">
        <ele>69</ele>
        <time>2023-08-23T08:28:23Z</time>
      </trkpt>
      <trkpt lat="49.79305" lon="2.43558">
        <ele>69</ele>
        <time>2023-08-23T08:28:24Z</time>
      </trkpt>
      <trkpt lat="49.79306" lon="2.43559">
        <ele>69</ele>
        <time>2023-08-23T08:28:25Z</time>
      </trkpt>
      <trkpt lat="49.79307" lon="2.43561">
        <ele>69.1</ele>
        <time>2023-08-23T08:28:26Z</time>
      </trkpt>
      <trkpt lat="49.79307" lon="2.43562">
        <ele>69.1</ele>
        <time>2023-08-23T08:28:27Z</time>
      </trkpt>
      <trkpt lat="49.79308" lon="2.43564">
        <ele>69.1</ele>
        <time>2023-08-23T08:28:28Z</time>
      </trkpt>
      <trkpt lat="49.79309" lon="2.43566">
        <ele>69.2</ele>
        <time>2023-08-23T08:28:30Z</time>
      </trkpt>
      <trkpt lat="49.79309" lon="2.43568">
        <ele>69.2</ele>
        <time>2023-08-23T08:28:31Z</time>
      </trkpt>
      <trkpt lat="49.7931" lon="2.43569">
        <ele>69.2</ele>
        <time>2023-08-23T08:28:32Z</time>
      </trkpt>
      <trkpt lat="49.79311" lon="2.43571">
        <ele>69.3</ele>
        <time>2023-08-23T08:28:33Z</time>
      </trkpt>
      <trkpt lat="49.79311" lon="2.43572">
        <ele>69.3</ele>
        <time>2023-08-23T08:28:34Z</time>
      </trkpt>
      <trkpt lat="49.79312" lon="2.43573">
        <ele>69.3</ele>
        <time>2023-08-23T08:28:35Z</time>
      </trkpt>
      <trkpt lat="49.79312" lon="2.43575">
        <ele>69.4</ele>
        <time>2023-08-23T08:28:37Z</time>
      </trkpt>
      <trkpt lat="49.79313" lon="2.43577">
        <ele>69.4</ele>
        <time>2023-08-23T08:28:38Z</time>
      </trkpt>
      <trkpt lat="49.79314" lon="2.43578">
        <ele>69.4</ele>
        <time>2023-08-23T08:28:39Z</time>
      </trkpt>
      <trkpt lat="49.79314" lon="2.4358">
        <ele>69.4</ele>
        <time>2023-08-23T08:28:40Z</time>
      </trkpt>
      <trkpt lat="49.79315" lon="2.43582">
        <ele>69.5</ele>
        <time>2023-08-23T08:28:41Z</time>
      </trkpt>
      <trkpt lat="49.79316" lon="2.43583">
        <ele>69.5</ele>
        <time>2023-08-23T08:28:42Z</time>
      </trkpt>
      <trkpt lat="49.79318" lon="2.43586">
        <ele>69.5</ele>
        <time>2023-08-23T08:28:44Z</time>
      </trkpt>
      <trkpt lat="49.79319" lon="2.43589">
        <ele>69.6</ele>
        <time>2023-08-23T08:28:46Z</time>
      </trkpt>
      <trkpt lat="49.7932" lon="2.4359">
        <ele>69.6</ele>
        <time>2023-08-23T08:28:47Z</time>
      </trkpt>
      <trkpt lat="49.7932" lon="2.43591">
        <ele>69.6</ele>
        <time>2023-08-23T08:28:48Z</time>
      </trkpt>
      <trkpt lat="49.79321" lon="2.43594">
        <ele>69.6</ele>
        <time>2023-08-23T08:28:49Z</time>
      </trkpt>
      <trkpt lat="49.79322" lon="2.43595">
        <ele>69.6</ele>
        <time>2023-08-23T08:28:50Z</time>
      </trkpt>
      <trkpt lat="49.79323" lon="2.43596">
        <ele>69.6</ele>
        <time>2023-08-23T08:28:51Z</time>
      </trkpt>
      <trkpt lat="49.79324" lon="2.43597">
        <ele>69.6</ele>
        <time>2023-08-23T08:28:53Z</time>
      </trkpt>
      <trkpt lat="49.79325" lon="2.43599">
        <ele>69.6</ele>
        <time>2023-08-23T08:28:54Z</time>
      </trkpt>
      <trkpt lat="49.79326" lon="2.43601">
        <ele>69.7</ele>
        <time>2023-08-23T08:28:55Z</time>
      </trkpt>
      <trkpt lat="49.79328" lon="2.43602">
        <ele>69.7</ele>
        <time>2023-08-23T08:28:56Z</time>
      </trkpt>
      <trkpt lat="49.79329" lon="2.43604">
        <ele>69.7</ele>
        <time>2023-08-23T08:28:57Z</time>
      </trkpt>
      <trkpt lat="49.7933" lon="2.43605">
        <ele>69.7</ele>
        <time>2023-08-23T08:28:58Z</time>
      </trkpt>
      <trkpt lat="49.79332" lon="2.43607">
        <ele>69.7</ele>
        <time>2023-08-23T08:29:00Z</time>
      </trkpt>
      <trkpt lat="49.79332" lon="2.43608">
        <ele>69.8</ele>
        <time>2023-08-23T08:29:01Z</time>
      </trkpt>
      <trkpt lat="49.79333" lon="2.43609">
        <ele>69.8</ele>
        <time>2023-08-23T08:29:02Z</time>
      </trkpt>
      <trkpt lat="49.79334" lon="2.4361">
        <ele>69.8</ele>
        <time>2023-08-23T08:29:03Z</time>
      </trkpt>
      <trkpt lat="49.79335" lon="2.43612">
        <ele>69.8</ele>
        <time>2023-08-23T08:29:04Z</time>
      </trkpt>
      <trkpt lat="49.79336" lon="2.43614">
        <ele>69.8</ele>
        <time>2023-08-23T08:29:05Z</time>
      </trkpt>
      <trkpt lat="49.79337" lon="2.43615">
        <ele>69.8</ele>
        <time>2023-08-23T08:29:06Z</time>
      </trkpt>
      <trkpt lat="49.79338" lon="2.43617">
        <ele>69.9</ele>
        <time>2023-08-23T08:29:08Z</time>
      </trkpt>
      <trkpt lat="49.79338" lon="2.43619">
        <ele>69.9</ele>
        <time>2023-08-23T08:29:09Z</time>
      </trkpt>
      <trkpt lat="49.79339" lon="2.43621">
        <ele>69.9</ele>
        <time>2023-08-23T08:29:10Z</time>
      </trkpt>
      <trkpt lat="49.7934" lon="2.43622">
        <ele>69.9</ele>
        <time>2023-08-23T08:29:11Z</time>
      </trkpt>
      <trkpt lat="49.79341" lon="2.43624">
        <ele>69.9</ele>
        <time>2023-08-23T08:29:12Z</time>
      </trkpt>
      <trkpt lat="49.79343" lon="2.43626">
        <ele>70</ele>
        <time>2023-08-23T08:29:13Z</time>
      </trkpt>
      <trkpt lat="49.79343" lon="2.43628">
        <ele>70</ele>
        <time>2023-08-23T08:29:15Z</time>
      </trkpt>
      <trkpt lat="49.79344" lon="2.43629">
        <ele>70</ele>
        <time>2023-08-23T08:29:16Z</time>
      </trkpt>
      <trkpt lat="49.79345" lon="2.43631">
        <ele>70</ele>
        <time>2023-08-23T08:29:17Z</time>
      </trkpt>
      <trkpt lat="49.79345" lon="2.43632">
        <ele>70</ele>
        <time>2023-08-23T08:29:18Z</time>
      </trkpt>
      <trkpt lat="49.79346" lon="2.43633">
        <ele>70</ele>
        <time>2023-08-23T08:29:19Z</time>
      </trkpt>
      <trkpt lat="49.79347" lon="2.43635">
        <ele>70</ele>
        <time>2023-08-23T08:29:20Z</time>
      </trkpt>
      <trkpt lat="49.79347" lon="2.43636">
        <ele>70.1</ele>
        <time>2023-08-23T08:29:22Z</time>
      </trkpt>
      <trkpt lat="49.79348" lon="2.43637">
        <ele>70.1</ele>
        <time>2023-08-23T08:29:23Z</time>
      </trkpt>
      <trkpt lat="49.79349" lon="2.43638">
        <ele>70.1</ele>
        <time>2023-08-23T08:29:24Z</time>
      </trkpt>
      <trkpt lat="49.79349" lon="2.43639">
        <ele>70.1</ele>
        <time>2023-08-23T08:29:25Z</time>
      </trkpt>
      <trkpt lat="49.7935" lon="2.43641">
        <ele>70.1</ele>
        <time>2023-08-23T08:29:26Z</time>
      </trkpt>
      <trkpt lat="49.79352" lon="2.43643">
        <ele>70.1</ele>
        <time>2023-08-23T08:29:27Z</time>
      </trkpt>
      <trkpt lat="49.79353" lon="2.43644">
        <ele>70.1</ele>
        <time>2023-08-23T08:29:29Z</time>
      </trkpt>
      <trkpt lat="49.79354" lon="2.43645">
        <ele>70.1</ele>
        <time>2023-08-23T08:29:30Z</time>
      </trkpt>
      <trkpt lat="49.79354" lon="2.43647">
        <ele>70.1</ele>
        <time>2023-08-23T08:29:31Z</time>
      </trkpt>
      <trkpt lat="49.79355" lon="2.43648">
        <ele>70.1</ele>
        <time>2023-08-23T08:29:32Z</time>
      </trkpt>
      <trkpt lat="49.79356" lon="2.43649">
        <ele>70.1</ele>
        <time>2023-08-23T08:29:33Z</time>
      </trkpt>
      <trkpt lat="49.79357" lon="2.4365">
        <ele>70.1</ele>
        <time>2023-08-23T08:29:34Z</time>
      </trkpt>
      <trkpt lat="49.79357" lon="2.43652">
        <ele>70.1</ele>
        <time>2023-08-23T08:29:35Z</time>
      </trkpt>
      <trkpt lat="49.79358" lon="2.43653">
        <ele>70.1</ele>
        <time>2023-08-23T08:29:37Z</time>
      </trkpt>
      <trkpt lat="49.79359" lon="2.43654">
        <ele>70.1</ele>
        <time>2023-08-23T08:29:38Z</time>
      </trkpt>
      <trkpt lat="49.79359" lon="2.43656">
        <ele>70.1</ele>
        <time>2023-08-23T08:29:39Z</time>
      </trkpt>
      <trkpt lat="49.7936" lon="2.43657">
        <ele>70.1</ele>
        <time>2023-08-23T08:29:40Z</time>
      </trkpt>
      <trkpt lat="49.7936" lon="2.43658">
        <ele>70.1</ele>
        <time>2023-08-23T08:29:41Z</time>
      </trkpt>
      <trkpt lat="49.79361" lon="2.43659">
        <ele>70.1</ele>
        <time>2023-08-23T08:29:42Z</time>
      </trkpt>
      <trkpt lat="49.79361" lon="2.43661">
        <ele>70</ele>
        <time>2023-08-23T08:29:43Z</time>
      </trkpt>
      <trkpt lat="49.79362" lon="2.43662">
        <ele>70</ele>
        <time>2023-08-23T08:29:45Z</time>
      </trkpt>
      <trkpt lat="49.79363" lon="2.43663">
        <ele>70</ele>
        <time>2023-08-23T08:29:46Z</time>
      </trkpt>
      <trkpt lat="49.79364" lon="2.43664">
        <ele>70</ele>
        <time>2023-08-23T08:29:47Z</time>
      </trkpt>
      <trkpt lat="49.79364" lon="2.43665">
        <ele>70</ele>
        <time>2023-08-23T08:29:48Z</time>
      </trkpt>
      <trkpt lat="49.79365" lon="2.43666">
        <ele>70</ele>
        <time>2023-08-23T08:29:49Z</time>
      </trkpt>
      <trkpt lat="49.79366" lon="2.43667">
        <ele>70</ele>
        <time>2023-08-23T08:29:50Z</time>
      </trkpt>
      <trkpt lat="49.79366" lon="2.43668">
        <ele>70</ele>
        <time>2023-08-23T08:29:51Z</time>
      </trkpt>
      <trkpt lat="49.79367" lon="2.43669">
        <ele>70</ele>
        <time>2023-08-23T08:29:53Z</time>
      </trkpt>
      <trkpt lat="49.79368" lon="2.43671">
        <ele>70</ele>
        <time>2023-08-23T08:29:54Z</time>
      </trkpt>
      <trkpt lat="49.7937" lon="2.43673">
        <ele>70</ele>
        <time>2023-08-23T08:29:55Z</time>
      </trkpt>
      <trkpt lat="49.79371" lon="2.43675">
        <ele>70</ele>
        <time>2023-08-23T08:29:56Z</time>
      </trkpt>
      <trkpt lat="49.79372" lon="2.43676">
        <ele>70</ele>
        <time>2023-08-23T08:29:57Z</time>
      </trkpt>
      <trkpt lat="49.79372" lon="2.43677">
        <ele>70</ele>
        <time>2023-08-23T08:29:58Z</time>
      </trkpt>
      <trkpt lat="49.79373" lon="2.43678">
        <ele>70</ele>
        <time>2023-08-23T08:29:59Z</time>
      </trkpt>
      <trkpt lat="49.79373" lon="2.43679">
        <ele>70</ele>
        <time>2023-08-23T08:30:01Z</time>
      </trkpt>
      <trkpt lat="49.79374" lon="2.43681">
        <ele>70</ele>
        <time>2023-08-23T08:30:02Z</time>
      </trkpt>
      <trkpt lat="49.79375" lon="2.43682">
        <ele>70</ele>
        <time>2023-08-23T08:30:03Z</time>
      </trkpt>
      <trkpt lat="49.79375" lon="2.43683">
        <ele>69.9</ele>
        <time>2023-08-23T08:30:04Z</time>
      </trkpt>
      <trkpt lat="49.79376" lon="2.43684">
        <ele>69.9</ele>
        <time>2023-08-23T08:30:05Z</time>
      </trkpt>
      <trkpt lat="49.79378" lon="2.43686">
        <ele>69.9</ele>
        <time>2023-08-23T08:30:06Z</time>
      </trkpt>
      <trkpt lat="49.79379" lon="2.43688">
        <ele>69.9</ele>
        <time>2023-08-23T08:30:08Z</time>
      </trkpt>
      <trkpt lat="49.79379" lon="2.43689">
        <ele>69.9</ele>
        <time>2023-08-23T08:30:09Z</time>
      </trkpt>
      <trkpt lat="49.79381" lon="2.43691">
        <ele>69.9</ele>
        <time>2023-08-23T08:30:10Z</time>
      </trkpt>
      <trkpt lat="49.79381" lon="2.43692">
        <ele>69.8</ele>
        <time>2023-08-23T08:30:12Z</time>
      </trkpt>
      <trkpt lat="49.79382" lon="2.43693">
        <ele>69.8</ele>
        <time>2023-08-23T08:30:13Z</time>
      </trkpt>
      <trkpt lat="49.79383" lon="2.43695">
        <ele>69.8</ele>
        <time>2023-08-23T08:30:14Z</time>
      </trkpt>
      <trkpt lat="49.79384" lon="2.43696">
        <ele>69.8</ele>
        <time>2023-08-23T08:30:15Z</time>
      </trkpt>
      <trkpt lat="49.79386" lon="2.43698">
        <ele>69.7</ele>
        <time>2023-08-23T08:30:17Z</time>
      </trkpt>
      <trkpt lat="49.79387" lon="2.437">
        <ele>69.7</ele>
        <time>2023-08-23T08:30:18Z</time>
      </trkpt>
      <trkpt lat="49.79388" lon="2.43701">
        <ele>69.7</ele>
        <time>2023-08-23T08:30:20Z</time>
      </trkpt>
      <trkpt lat="49.79389" lon="2.43702">
        <ele>69.7</ele>
        <time>2023-08-23T08:30:21Z</time>
      </trkpt>
      <trkpt lat="49.7939" lon="2.43703">
        <ele>69.6</ele>
        <time>2023-08-23T08:30:22Z</time>
      </trkpt>
      <trkpt lat="49.79392" lon="2.43705">
        <ele>69.6</ele>
        <time>2023-08-23T08:30:23Z</time>
      </trkpt>
      <trkpt lat="49.79393" lon="2.43705">
        <ele>69.6</ele>
        <time>2023-08-23T08:30:24Z</time>
      </trkpt>
      <trkpt lat="49.79394" lon="2.43706">
        <ele>69.6</ele>
        <time>2023-08-23T08:30:26Z</time>
      </trkpt>
      <trkpt lat="49.79395" lon="2.43708">
        <ele>69.6</ele>
        <time>2023-08-23T08:30:27Z</time>
      </trkpt>
      <trkpt lat="49.79396" lon="2.43709">
        <ele>69.6</ele>
        <time>2023-08-23T08:30:28Z</time>
      </trkpt>
      <trkpt lat="49.79397" lon="2.4371">
        <ele>69.6</ele>
        <time>2023-08-23T08:30:29Z</time>
      </trkpt>
      <trkpt lat="49.79399" lon="2.43712">
        <ele>69.6</ele>
        <time>2023-08-23T08:30:30Z</time>
      </trkpt>
      <trkpt lat="49.794" lon="2.43712">
        <ele>69.6</ele>
        <time>2023-08-23T08:30:31Z</time>
      </trkpt>
      <trkpt lat="49.794" lon="2.43713">
        <ele>69.6</ele>
        <time>2023-08-23T08:30:32Z</time>
      </trkpt>
      <trkpt lat="49.79401" lon="2.43714">
        <ele>69.6</ele>
        <time>2023-08-23T08:30:34Z</time>
      </trkpt>
      <trkpt lat="49.79402" lon="2.43715">
        <ele>69.6</ele>
        <time>2023-08-23T08:30:35Z</time>
      </trkpt>
      <trkpt lat="49.79403" lon="2.43715">
        <ele>69.6</ele>
        <time>2023-08-23T08:30:36Z</time>
      </trkpt>
      <trkpt lat="49.79404" lon="2.43717">
        <ele>69.6</ele>
        <time>2023-08-23T08:30:37Z</time>
      </trkpt>
      <trkpt lat="49.79405" lon="2.43717">
        <ele>69.6</ele>
        <time>2023-08-23T08:30:38Z</time>
      </trkpt>
      <trkpt lat="49.79406" lon="2.43718">
        <ele>69.6</ele>
        <time>2023-08-23T08:30:40Z</time>
      </trkpt>
      <trkpt lat="49.79408" lon="2.43719">
        <ele>69.7</ele>
        <time>2023-08-23T08:30:41Z</time>
      </trkpt>
      <trkpt lat="49.79409" lon="2.4372">
        <ele>69.7</ele>
        <time>2023-08-23T08:30:42Z</time>
      </trkpt>
      <trkpt lat="49.7941" lon="2.4372">
        <ele>69.7</ele>
        <time>2023-08-23T08:30:44Z</time>
      </trkpt>
      <trkpt lat="49.79411" lon="2.43721">
        <ele>69.7</ele>
        <time>2023-08-23T08:30:45Z</time>
      </trkpt>
      <trkpt lat="49.79412" lon="2.43721">
        <ele>69.7</ele>
        <time>2023-08-23T08:30:46Z</time>
      </trkpt>
      <trkpt lat="49.79413" lon="2.43722">
        <ele>69.7</ele>
        <time>2023-08-23T08:30:47Z</time>
      </trkpt>
      <trkpt lat="49.79414" lon="2.43723">
        <ele>69.8</ele>
        <time>2023-08-23T08:30:48Z</time>
      </trkpt>
      <trkpt lat="49.79415" lon="2.43724">
        <ele>69.8</ele>
        <time>2023-08-23T08:30:49Z</time>
      </trkpt>
      <trkpt lat="49.79417" lon="2.43726">
        <ele>69.8</ele>
        <time>2023-08-23T08:30:50Z</time>
      </trkpt>
      <trkpt lat="49.79417" lon="2.43726">
        <ele>69.9</ele>
        <time>2023-08-23T08:30:51Z</time>
      </trkpt>
      <trkpt lat="49.79418" lon="2.43727">
        <ele>69.9</ele>
        <time>2023-08-23T08:30:52Z</time>
      </trkpt>
      <trkpt lat="49.7942" lon="2.43729">
        <ele>69.9</ele>
        <time>2023-08-23T08:30:54Z</time>
      </trkpt>
      <trkpt lat="49.79421" lon="2.4373">
        <ele>69.9</ele>
        <time>2023-08-23T08:30:55Z</time>
      </trkpt>
      <trkpt lat="49.79421" lon="2.43731">
        <ele>70</ele>
        <time>2023-08-23T08:30:56Z</time>
      </trkpt>
      <trkpt lat="49.79422" lon="2.43731">
        <ele>70</ele>
        <time>2023-08-23T08:30:57Z</time>
      </trkpt>
      <trkpt lat="49.79423" lon="2.43732">
        <ele>70</ele>
        <time>2023-08-23T08:30:58Z</time>
      </trkpt>
      <trkpt lat="49.79424" lon="2.43733">
        <ele>70.1</ele>
        <time>2023-08-23T08:30:59Z</time>
      </trkpt>
      <trkpt lat="49.79425" lon="2.43734">
        <ele>70.1</ele>
        <time>2023-08-23T08:31:00Z</time>
      </trkpt>
      <trkpt lat="49.79427" lon="2.43735">
        <ele>70.1</ele>
        <time>2023-08-23T08:31:02Z</time>
      </trkpt>
      <trkpt lat="49.79428" lon="2.43735">
        <ele>70.2</ele>
        <time>2023-08-23T08:31:03Z</time>
      </trkpt>
      <trkpt lat="49.79429" lon="2.43736">
        <ele>70.2</ele>
        <time>2023-08-23T08:31:05Z</time>
      </trkpt>
      <trkpt lat="49.7943" lon="2.43736">
        <ele>70.2</ele>
        <time>2023-08-23T08:31:06Z</time>
      </trkpt>
      <trkpt lat="49.79431" lon="2.43736">
        <ele>70.2</ele>
        <time>2023-08-23T08:31:07Z</time>
      </trkpt>
      <trkpt lat="49.79432" lon="2.43736">
        <ele>70.3</ele>
        <time>2023-08-23T08:31:08Z</time>
      </trkpt>
      <trkpt lat="49.79433" lon="2.43737">
        <ele>70.3</ele>
        <time>2023-08-23T08:31:09Z</time>
      </trkpt>
      <trkpt lat="49.79434" lon="2.43737">
        <ele>70.3</ele>
        <time>2023-08-23T08:31:10Z</time>
      </trkpt>
      <trkpt lat="49.79435" lon="2.43738">
        <ele>70.4</ele>
        <time>2023-08-23T08:31:11Z</time>
      </trkpt>
      <trkpt lat="49.79436" lon="2.43738">
        <ele>70.4</ele>
        <time>2023-08-23T08:31:12Z</time>
      </trkpt>
      <trkpt lat="49.79438" lon="2.43739">
        <ele>70.4</ele>
        <time>2023-08-23T08:31:14Z</time>
      </trkpt>
      <trkpt lat="49.79439" lon="2.4374">
        <ele>70.5</ele>
        <time>2023-08-23T08:31:15Z</time>
      </trkpt>
      <trkpt lat="49.7944" lon="2.4374">
        <ele>70.5</ele>
        <time>2023-08-23T08:31:16Z</time>
      </trkpt>
      <trkpt lat="49.79441" lon="2.43741">
        <ele>70.5</ele>
        <time>2023-08-23T08:31:17Z</time>
      </trkpt>
      <trkpt lat="49.79442" lon="2.43742">
        <ele>70.6</ele>
        <time>2023-08-23T08:31:18Z</time>
      </trkpt>
      <trkpt lat="49.79443" lon="2.43743">
        <ele>70.6</ele>
        <time>2023-08-23T08:31:20Z</time>
      </trkpt>
      <trkpt lat="49.79445" lon="2.43744">
        <ele>70.6</ele>
        <time>2023-08-23T08:31:21Z</time>
      </trkpt>
      <trkpt lat="49.79446" lon="2.43746">
        <ele>70.7</ele>
        <time>2023-08-23T08:31:22Z</time>
      </trkpt>
      <trkpt lat="49.79448" lon="2.43747">
        <ele>70.7</ele>
        <time>2023-08-23T08:31:23Z</time>
      </trkpt>
      <trkpt lat="49.79449" lon="2.43748">
        <ele>70.8</ele>
        <time>2023-08-23T08:31:24Z</time>
      </trkpt>
      <trkpt lat="49.79451" lon="2.43749">
        <ele>70.8</ele>
        <time>2023-08-23T08:31:25Z</time>
      </trkpt>
      <trkpt lat="49.79452" lon="2.43751">
        <ele>70.8</ele>
        <time>2023-08-23T08:31:27Z</time>
      </trkpt>
      <trkpt lat="49.79454" lon="2.43752">
        <ele>70.9</ele>
        <time>2023-08-23T08:31:28Z</time>
      </trkpt>
      <trkpt lat="49.79456" lon="2.43752">
        <ele>70.9</ele>
        <time>2023-08-23T08:31:29Z</time>
      </trkpt>
      <trkpt lat="49.79457" lon="2.43753">
        <ele>70.9</ele>
        <time>2023-08-23T08:31:30Z</time>
      </trkpt>
      <trkpt lat="49.79459" lon="2.43754">
        <ele>70.9</ele>
        <time>2023-08-23T08:31:31Z</time>
      </trkpt>
      <trkpt lat="49.7946" lon="2.43755">
        <ele>71</ele>
        <time>2023-08-23T08:31:33Z</time>
      </trkpt>
      <trkpt lat="49.79461" lon="2.43755">
        <ele>71</ele>
        <time>2023-08-23T08:31:34Z</time>
      </trkpt>
      <trkpt lat="49.79463" lon="2.43756">
        <ele>71</ele>
        <time>2023-08-23T08:31:35Z</time>
      </trkpt>
      <trkpt lat="49.79464" lon="2.43757">
        <ele>71</ele>
        <time>2023-08-23T08:31:36Z</time>
      </trkpt>
      <trkpt lat="49.79465" lon="2.43758">
        <ele>71</ele>
        <time>2023-08-23T08:31:37Z</time>
      </trkpt>
      <trkpt lat="49.79466" lon="2.43759">
        <ele>71</ele>
        <time>2023-08-23T08:31:38Z</time>
      </trkpt>
      <trkpt lat="49.79467" lon="2.43759">
        <ele>71</ele>
        <time>2023-08-23T08:31:39Z</time>
      </trkpt>
      <trkpt lat="49.79468" lon="2.4376">
        <ele>71</ele>
        <time>2023-08-23T08:31:41Z</time>
      </trkpt>
      <trkpt lat="49.79469" lon="2.43761">
        <ele>71</ele>
        <time>2023-08-23T08:31:42Z</time>
      </trkpt>
      <trkpt lat="49.79471" lon="2.43762">
        <ele>71</ele>
        <time>2023-08-23T08:31:43Z</time>
      </trkpt>
      <trkpt lat="49.79472" lon="2.43763">
        <ele>70.9</ele>
        <time>2023-08-23T08:31:45Z</time>
      </trkpt>
      <trkpt lat="49.79473" lon="2.43764">
        <ele>70.9</ele>
        <time>2023-08-23T08:31:46Z</time>
      </trkpt>
      <trkpt lat="49.79474" lon="2.43765">
        <ele>70.9</ele>
        <time>2023-08-23T08:31:47Z</time>
      </trkpt>
      <trkpt lat="49.79475" lon="2.43766">
        <ele>70.9</ele>
        <time>2023-08-23T08:31:48Z</time>
      </trkpt>
      <trkpt lat="49.79476" lon="2.43767">
        <ele>70.9</ele>
        <time>2023-08-23T08:31:49Z</time>
      </trkpt>
      <trkpt lat="49.79477" lon="2.43767">
        <ele>70.9</ele>
        <time>2023-08-23T08:31:50Z</time>
      </trkpt>
      <trkpt lat="49.79479" lon="2.43769">
        <ele>70.9</ele>
        <time>2023-08-23T08:31:51Z</time>
      </trkpt>
      <trkpt lat="49.7948" lon="2.43769">
        <ele>70.9</ele>
        <time>2023-08-23T08:31:53Z</time>
      </trkpt>
      <trkpt lat="49.7948" lon="2.4377">
        <ele>70.9</ele>
        <time>2023-08-23T08:31:54Z</time>
      </trkpt>
      <trkpt lat="49.79481" lon="2.43771">
        <ele>70.8</ele>
        <time>2023-08-23T08:31:55Z</time>
      </trkpt>
      <trkpt lat="49.79482" lon="2.43772">
        <ele>70.8</ele>
        <time>2023-08-23T08:31:57Z</time>
      </trkpt>
      <trkpt lat="49.79483" lon="2.43773">
        <ele>70.8</ele>
        <time>2023-08-23T08:31:58Z</time>
      </trkpt>
      <trkpt lat="49.79484" lon="2.43774">
        <ele>70.8</ele>
        <time>2023-08-23T08:31:59Z</time>
      </trkpt>
      <trkpt lat="49.79485" lon="2.43774">
        <ele>70.8</ele>
        <time>2023-08-23T08:32:00Z</time>
      </trkpt>
      <trkpt lat="49.79486" lon="2.43775">
        <ele>70.8</ele>
        <time>2023-08-23T08:32:01Z</time>
      </trkpt>
      <trkpt lat="49.79487" lon="2.43776">
        <ele>70.8</ele>
        <time>2023-08-23T08:32:02Z</time>
      </trkpt>
      <trkpt lat="49.79488" lon="2.43777">
        <ele>70.7</ele>
        <time>2023-08-23T08:32:03Z</time>
      </trkpt>
      <trkpt lat="49.79489" lon="2.43778">
        <ele>70.7</ele>
        <time>2023-08-23T08:32:05Z</time>
      </trkpt>
      <trkpt lat="49.79491" lon="2.43778">
        <ele>70.7</ele>
        <time>2023-08-23T08:32:06Z</time>
      </trkpt>
      <trkpt lat="49.79492" lon="2.43779">
        <ele>70.7</ele>
        <time>2023-08-23T08:32:07Z</time>
      </trkpt>
      <trkpt lat="49.79494" lon="2.4378">
        <ele>70.6</ele>
        <time>2023-08-23T08:32:08Z</time>
      </trkpt>
      <trkpt lat="49.79495" lon="2.4378">
        <ele>70.6</ele>
        <time>2023-08-23T08:32:09Z</time>
      </trkpt>
      <trkpt lat="49.79496" lon="2.43781">
        <ele>70.6</ele>
        <time>2023-08-23T08:32:10Z</time>
      </trkpt>
      <trkpt lat="49.79498" lon="2.43782">
        <ele>70.6</ele>
        <time>2023-08-23T08:32:11Z</time>
      </trkpt>
      <trkpt lat="49.79499" lon="2.43782">
        <ele>70.5</ele>
        <time>2023-08-23T08:32:13Z</time>
      </trkpt>
      <trkpt lat="49.795" lon="2.43782">
        <ele>70.5</ele>
        <time>2023-08-23T08:32:14Z</time>
      </trkpt>
      <trkpt lat="49.79502" lon="2.43783">
        <ele>70.5</ele>
        <time>2023-08-23T08:32:15Z</time>
      </trkpt>
      <trkpt lat="49.79503" lon="2.43783">
        <ele>70.4</ele>
        <time>2023-08-23T08:32:17Z</time>
      </trkpt>
      <trkpt lat="49.79504" lon="2.43784">
        <ele>70.4</ele>
        <time>2023-08-23T08:32:18Z</time>
      </trkpt>
      <trkpt lat="49.79506" lon="2.43784">
        <ele>70.3</ele>
        <time>2023-08-23T08:32:19Z</time>
      </trkpt>
      <trkpt lat="49.79507" lon="2.43785">
        <ele>70.3</ele>
        <time>2023-08-23T08:32:20Z</time>
      </trkpt>
      <trkpt lat="49.79509" lon="2.43785">
        <ele>70.3</ele>
        <time>2023-08-23T08:32:21Z</time>
      </trkpt>
      <trkpt lat="49.7951" lon="2.43785">
        <ele>70.2</ele>
        <time>2023-08-23T08:32:22Z</time>
      </trkpt>
      <trkpt lat="49.79511" lon="2.43786">
        <ele>70.2</ele>
        <time>2023-08-23T08:32:23Z</time>
      </trkpt>
      <trkpt lat="49.79512" lon="2.43787">
        <ele>70.1</ele>
        <time>2023-08-23T08:32:25Z</time>
      </trkpt>
      <trkpt lat="49.79514" lon="2.43787">
        <ele>70.1</ele>
        <time>2023-08-23T08:32:26Z</time>
      </trkpt>
      <trkpt lat="49.79515" lon="2.43788">
        <ele>70</ele>
        <time>2023-08-23T08:32:27Z</time>
      </trkpt>
      <trkpt lat="49.79516" lon="2.43789">
        <ele>70</ele>
        <time>2023-08-23T08:32:28Z</time>
      </trkpt>
      <trkpt lat="49.79518" lon="2.4379">
        <ele>69.9</ele>
        <time>2023-08-23T08:32:29Z</time>
      </trkpt>
      <trkpt lat="49.7952" lon="2.4379">
        <ele>69.8</ele>
        <time>2023-08-23T08:32:31Z</time>
      </trkpt>
      <trkpt lat="49.79521" lon="2.43791">
        <ele>69.8</ele>
        <time>2023-08-23T08:32:32Z</time>
      </trkpt>
      <trkpt lat="49.79521" lon="2.43791">
        <ele>69.7</ele>
        <time>2023-08-23T08:32:33Z</time>
      </trkpt>
      <trkpt lat="49.79522" lon="2.43792">
        <ele>69.7</ele>
        <time>2023-08-23T08:32:34Z</time>
      </trkpt>
      <trkpt lat="49.79524" lon="2.43792">
        <ele>69.6</ele>
        <time>2023-08-23T08:32:35Z</time>
      </trkpt>
      <trkpt lat="49.79525" lon="2.43793">
        <ele>69.6</ele>
        <time>2023-08-23T08:32:36Z</time>
      </trkpt>
      <trkpt lat="49.79527" lon="2.43794">
        <ele>69.5</ele>
        <time>2023-08-23T08:32:37Z</time>
      </trkpt>
      <trkpt lat="49.79528" lon="2.43795">
        <ele>69.4</ele>
        <time>2023-08-23T08:32:39Z</time>
      </trkpt>
      <trkpt lat="49.79528" lon="2.43795">
        <ele>69.4</ele>
        <time>2023-08-23T08:32:40Z</time>
      </trkpt>
      <trkpt lat="49.7953" lon="2.43796">
        <ele>69.3</ele>
        <time>2023-08-23T08:32:41Z</time>
      </trkpt>
      <trkpt lat="49.79531" lon="2.43797">
        <ele>69.3</ele>
        <time>2023-08-23T08:32:43Z</time>
      </trkpt>
      <trkpt lat="49.79533" lon="2.43797">
        <ele>69.2</ele>
        <time>2023-08-23T08:32:44Z</time>
      </trkpt>
      <trkpt lat="49.79534" lon="2.43797">
        <ele>69.2</ele>
        <time>2023-08-23T08:32:45Z</time>
      </trkpt>
      <trkpt lat="49.79535" lon="2.43798">
        <ele>69.2</ele>
        <time>2023-08-23T08:32:46Z</time>
      </trkpt>
      <trkpt lat="49.79537" lon="2.43799">
        <ele>69.1</ele>
        <time>2023-08-23T08:32:47Z</time>
      </trkpt>
      <trkpt lat="49.79538" lon="2.438">
        <ele>69.1</ele>
        <time>2023-08-23T08:32:48Z</time>
      </trkpt>
      <trkpt lat="49.7954" lon="2.43801">
        <ele>69</ele>
        <time>2023-08-23T08:32:50Z</time>
      </trkpt>
      <trkpt lat="49.79543" lon="2.43803">
        <ele>69</ele>
        <time>2023-08-23T08:32:51Z</time>
      </trkpt>
      <trkpt lat="49.79544" lon="2.43804">
        <ele>69</ele>
        <time>2023-08-23T08:32:52Z</time>
      </trkpt>
      <trkpt lat="49.79545" lon="2.43805">
        <ele>69</ele>
        <time>2023-08-23T08:32:53Z</time>
      </trkpt>
      <trkpt lat="49.79546" lon="2.43806">
        <ele>69</ele>
        <time>2023-08-23T08:32:54Z</time>
      </trkpt>
      <trkpt lat="49.79548" lon="2.43806">
        <ele>69</ele>
        <time>2023-08-23T08:32:55Z</time>
      </trkpt>
      <trkpt lat="49.79549" lon="2.43807">
        <ele>69</ele>
        <time>2023-08-23T08:32:56Z</time>
      </trkpt>
      <trkpt lat="49.7955" lon="2.43808">
        <ele>69</ele>
        <time>2023-08-23T08:32:58Z</time>
      </trkpt>
      <trkpt lat="49.79552" lon="2.43808">
        <ele>69</ele>
        <time>2023-08-23T08:32:59Z</time>
      </trkpt>
      <trkpt lat="49.79553" lon="2.43808">
        <ele>69</ele>
        <time>2023-08-23T08:33:00Z</time>
      </trkpt>
      <trkpt lat="49.79553" lon="2.43808">
        <ele>69</ele>
        <time>2023-08-23T08:33:01Z</time>
      </trkpt>
      <trkpt lat="49.79554" lon="2.43809">
        <ele>69</ele>
        <time>2023-08-23T08:33:02Z</time>
      </trkpt>
      <trkpt lat="49.79555" lon="2.43809">
        <ele>69</ele>
        <time>2023-08-23T08:33:04Z</time>
      </trkpt>
      <trkpt lat="49.79556" lon="2.4381">
        <ele>69</ele>
        <time>2023-08-23T08:33:05Z</time>
      </trkpt>
      <trkpt lat="49.79557" lon="2.4381">
        <ele>69</ele>
        <time>2023-08-23T08:33:06Z</time>
      </trkpt>
      <trkpt lat="49.79559" lon="2.43811">
        <ele>69</ele>
        <time>2023-08-23T08:33:07Z</time>
      </trkpt>
      <trkpt lat="49.79561" lon="2.43811">
        <ele>69</ele>
        <time>2023-08-23T08:33:08Z</time>
      </trkpt>
      <trkpt lat="49.79562" lon="2.43811">
        <ele>69</ele>
        <time>2023-08-23T08:33:09Z</time>
      </trkpt>
      <trkpt lat="49.79563" lon="2.43811">
        <ele>69</ele>
        <time>2023-08-23T08:33:11Z</time>
      </trkpt>
      <trkpt lat="49.79564" lon="2.43812">
        <ele>69</ele>
        <time>2023-08-23T08:33:12Z</time>
      </trkpt>
      <trkpt lat="49.79565" lon="2.43812">
        <ele>69</ele>
        <time>2023-08-23T08:33:13Z</time>
      </trkpt>
      <trkpt lat="49.79566" lon="2.43812">
        <ele>69</ele>
        <time>2023-08-23T08:33:14Z</time>
      </trkpt>
      <trkpt lat="49.79568" lon="2.43813">
        <ele>69</ele>
        <time>2023-08-23T08:33:15Z</time>
      </trkpt>
      <trkpt lat="49.79569" lon="2.43813">
        <ele>69</ele>
        <time>2023-08-23T08:33:16Z</time>
      </trkpt>
      <trkpt lat="49.7957" lon="2.43813">
        <ele>69</ele>
        <time>2023-08-23T08:33:18Z</time>
      </trkpt>
      <trkpt lat="49.79571" lon="2.43814">
        <ele>69</ele>
        <time>2023-08-23T08:33:19Z</time>
      </trkpt>
      <trkpt lat="49.79572" lon="2.43814">
        <ele>69</ele>
        <time>2023-08-23T08:33:20Z</time>
      </trkpt>
      <trkpt lat="49.79573" lon="2.43814">
        <ele>69</ele>
        <time>2023-08-23T08:33:21Z</time>
      </trkpt>
      <trkpt lat="49.79574" lon="2.43815">
        <ele>69.1</ele>
        <time>2023-08-23T08:33:22Z</time>
      </trkpt>
      <trkpt lat="49.79576" lon="2.43815">
        <ele>69.1</ele>
        <time>2023-08-23T08:33:23Z</time>
      </trkpt>
      <trkpt lat="49.79578" lon="2.43816">
        <ele>69.1</ele>
        <time>2023-08-23T08:33:24Z</time>
      </trkpt>
      <trkpt lat="49.79579" lon="2.43816">
        <ele>69.1</ele>
        <time>2023-08-23T08:33:26Z</time>
      </trkpt>
      <trkpt lat="49.7958" lon="2.43817">
        <ele>69.1</ele>
        <time>2023-08-23T08:33:27Z</time>
      </trkpt>
      <trkpt lat="49.79581" lon="2.43817">
        <ele>69.1</ele>
        <time>2023-08-23T08:33:28Z</time>
      </trkpt>
      <trkpt lat="49.79582" lon="2.43818">
        <ele>69.1</ele>
        <time>2023-08-23T08:33:29Z</time>
      </trkpt>
      <trkpt lat="49.79584" lon="2.43819">
        <ele>69.1</ele>
        <time>2023-08-23T08:33:30Z</time>
      </trkpt>
      <trkpt lat="49.79585" lon="2.4382">
        <ele>69.1</ele>
        <time>2023-08-23T08:33:31Z</time>
      </trkpt>
      <trkpt lat="49.79586" lon="2.4382">
        <ele>69.1</ele>
        <time>2023-08-23T08:33:33Z</time>
      </trkpt>
      <trkpt lat="49.79587" lon="2.43819">
        <ele>69.1</ele>
        <time>2023-08-23T08:33:34Z</time>
      </trkpt>
      <trkpt lat="49.79588" lon="2.43818">
        <ele>69.1</ele>
        <time>2023-08-23T08:33:35Z</time>
      </trkpt>
      <trkpt lat="49.79589" lon="2.43817">
        <ele>69.1</ele>
        <time>2023-08-23T08:33:36Z</time>
      </trkpt>
      <trkpt lat="49.7959" lon="2.43817">
        <ele>69.1</ele>
        <time>2023-08-23T08:33:37Z</time>
      </trkpt>
      <trkpt lat="49.7959" lon="2.43816">
        <ele>69.1</ele>
        <time>2023-08-23T08:33:39Z</time>
      </trkpt>
      <trkpt lat="49.7959" lon="2.43815">
        <ele>69.1</ele>
        <time>2023-08-23T08:33:40Z</time>
      </trkpt>
      <trkpt lat="49.7959" lon="2.43815">
        <ele>69.1</ele>
        <time>2023-08-23T08:33:41Z</time>
      </trkpt>
      <trkpt lat="49.7959" lon="2.43815">
        <ele>69.1</ele>
        <time>2023-08-23T08:33:43Z</time>
      </trkpt>
      <trkpt lat="49.7959" lon="2.43815">
        <ele>69.1</ele>
        <time>2023-08-23T08:33:44Z</time>
      </trkpt>
      <trkpt lat="49.7959" lon="2.43815">
        <ele>69.1</ele>
        <time>2023-08-23T08:33:46Z</time>
      </trkpt>
      <trkpt lat="49.7959" lon="2.43815">
        <ele>69.1</ele>
        <time>2023-08-23T08:33:47Z</time>
      </trkpt>
      <trkpt lat="49.7959" lon="2.43815">
        <ele>69.1</ele>
        <time>2023-08-23T08:33:49Z</time>
      </trkpt>
      <trkpt lat="49.7959" lon="2.43815">
        <ele>69.1</ele>
        <time>2023-08-23T08:33:50Z</time>
      </trkpt>
      <trkpt lat="49.7959" lon="2.43815">
        <ele>69.2</ele>
        <time>2023-08-23T08:33:52Z</time>
      </trkpt>
      <trkpt lat="49.7959" lon="2.43815">
        <ele>69.2</ele>
        <time>2023-08-23T08:33:53Z</time>
      </trkpt>
      <trkpt lat="49.7959" lon="2.43815">
        <ele>69.2</ele>
        <time>2023-08-23T08:33:54Z</time>
      </trkpt>
      <trkpt lat="49.7959" lon="2.43815">
        <ele>69.2</ele>
        <time>2023-08-23T08:33:55Z</time>
      </trkpt>
      <trkpt lat="49.79589" lon="2.43816">
        <ele>69.2</ele>
        <time>2023-08-23T08:33:56Z</time>
      </trkpt>
      <trkpt lat="49.79589" lon="2.43816">
        <ele>69.2</ele>
        <time>2023-08-23T08:33:57Z</time>
      </trkpt>
      <trkpt lat="49.79589" lon="2.43816">
        <ele>69.2</ele>
        <time>2023-08-23T08:33:58Z</time>
      </trkpt>
      <trkpt lat="49.79589" lon="2.43816">
        <ele>69.2</ele>
        <time>2023-08-23T08:33:59Z</time>
      </trkpt>
      <trkpt lat="49.79589" lon="2.43816">
        <ele>69.2</ele>
        <time>2023-08-23T08:34:00Z</time>
      </trkpt>
      <trkpt lat="49.79589" lon="2.43816">
        <ele>69.2</ele>
        <time>2023-08-23T08:34:01Z</time>
      </trkpt>
      <trkpt lat="49.79589" lon="2.43816">
        <ele>69.2</ele>
        <time>2023-08-23T08:34:02Z</time>
      </trkpt>
      <trkpt lat="49.79589" lon="2.43816">
        <ele>69.2</ele>
        <time>2023-08-23T08:34:03Z</time>
      </trkpt>
      <trkpt lat="49.79589" lon="2.43816">
        <ele>69.2</ele>
        <time>2023-08-23T08:34:04Z</time>
      </trkpt>
      <trkpt lat="49.79589" lon="2.43816">
        <ele>69.2</ele>
        <time>2023-08-23T08:34:05Z</time>
      </trkpt>
      <trkpt lat="49.79589" lon="2.43817">
        <ele>69.2</ele>
        <time>2023-08-23T08:34:06Z</time>
      </trkpt>
      <trkpt lat="49.79589" lon="2.43817">
        <ele>69.2</ele>
        <time>2023-08-23T08:34:07Z</time>
      </trkpt>
      <trkpt lat="49.79589" lon="2.43817">
        <ele>69.2</ele>
        <time>2023-08-23T08:34:08Z</time>
      </trkpt>
      <trkpt lat="49.7959" lon="2.43816">
        <ele>69.2</ele>
        <time>2023-08-23T08:34:10Z</time>
      </trkpt>
      <trkpt lat="49.7959" lon="2.43816">
        <ele>69.2</ele>
        <time>2023-08-23T08:34:11Z</time>
      </trkpt>
      <trkpt lat="49.7959" lon="2.43816">
        <ele>69.2</ele>
        <time>2023-08-23T08:34:12Z</time>
      </trkpt>
      <trkpt lat="49.79591" lon="2.43816">
        <ele>69.2</ele>
        <time>2023-08-23T08:34:13Z</time>
      </trkpt>
      <trkpt lat="49.79591" lon="2.43817">
        <ele>69.2</ele>
        <time>2023-08-23T08:34:14Z</time>
      </trkpt>
      <trkpt lat="49.79592" lon="2.43817">
        <ele>69.3</ele>
        <time>2023-08-23T08:34:16Z</time>
      </trkpt>
      <trkpt lat="49.79593" lon="2.43817">
        <ele>69.3</ele>
        <time>2023-08-23T08:34:17Z</time>
      </trkpt>
      <trkpt lat="49.79593" lon="2.43818">
        <ele>69.3</ele>
        <time>2023-08-23T08:34:19Z</time>
      </trkpt>
      <trkpt lat="49.79594" lon="2.43818">
        <ele>69.3</ele>
        <time>2023-08-23T08:34:20Z</time>
      </trkpt>
      <trkpt lat="49.79594" lon="2.43818">
        <ele>69.3</ele>
        <time>2023-08-23T08:34:23Z</time>
      </trkpt>
      <trkpt lat="49.79594" lon="2.43818">
        <ele>69.3</ele>
        <time>2023-08-23T08:34:24Z</time>
      </trkpt>
      <trkpt lat="49.79594" lon="2.43819">
        <ele>69.3</ele>
        <time>2023-08-23T08:34:26Z</time>
      </trkpt>
      <trkpt lat="49.79594" lon="2.43819">
        <ele>69.3</ele>
        <time>2023-08-23T08:34:27Z</time>
      </trkpt>
      <trkpt lat="49.79595" lon="2.4382">
        <ele>69.3</ele>
        <time>2023-08-23T08:34:28Z</time>
      </trkpt>
      <trkpt lat="49.79595" lon="2.4382">
        <ele>69.4</ele>
        <time>2023-08-23T08:34:29Z</time>
      </trkpt>
      <trkpt lat="49.79596" lon="2.43821">
        <ele>69.4</ele>
        <time>2023-08-23T08:34:30Z</time>
      </trkpt>
      <trkpt lat="49.79597" lon="2.43822">
        <ele>69.4</ele>
        <time>2023-08-23T08:34:31Z</time>
      </trkpt>
      <trkpt lat="49.79598" lon="2.43823">
        <ele>69.5</ele>
        <time>2023-08-23T08:34:32Z</time>
      </trkpt>
      <trkpt lat="49.79599" lon="2.43824">
        <ele>69.5</ele>
        <time>2023-08-23T08:34:34Z</time>
      </trkpt>
      <trkpt lat="49.79599" lon="2.43824">
        <ele>69.5</ele>
        <time>2023-08-23T08:34:35Z</time>
      </trkpt>
      <trkpt lat="49.79601" lon="2.43825">
        <ele>69.6</ele>
        <time>2023-08-23T08:34:36Z</time>
      </trkpt>
      <trkpt lat="49.79601" lon="2.43826">
        <ele>69.6</ele>
        <time>2023-08-23T08:34:37Z</time>
      </trkpt>
      <trkpt lat="49.79602" lon="2.43827">
        <ele>69.7</ele>
        <time>2023-08-23T08:34:38Z</time>
      </trkpt>
      <trkpt lat="49.79604" lon="2.43828">
        <ele>69.8</ele>
        <time>2023-08-23T08:34:40Z</time>
      </trkpt>
      <trkpt lat="49.79605" lon="2.43829">
        <ele>69.8</ele>
        <time>2023-08-23T08:34:41Z</time>
      </trkpt>
      <trkpt lat="49.79606" lon="2.4383">
        <ele>69.9</ele>
        <time>2023-08-23T08:34:42Z</time>
      </trkpt>
      <trkpt lat="49.79608" lon="2.43831">
        <ele>70</ele>
        <time>2023-08-23T08:34:44Z</time>
      </trkpt>
      <trkpt lat="49.79609" lon="2.43831">
        <ele>70.1</ele>
        <time>2023-08-23T08:34:45Z</time>
      </trkpt>
      <trkpt lat="49.7961" lon="2.43831">
        <ele>70.1</ele>
        <time>2023-08-23T08:34:46Z</time>
      </trkpt>
      <trkpt lat="49.79611" lon="2.43832">
        <ele>70.2</ele>
        <time>2023-08-23T08:34:47Z</time>
      </trkpt>
      <trkpt lat="49.79612" lon="2.43833">
        <ele>70.3</ele>
        <time>2023-08-23T08:34:48Z</time>
      </trkpt>
      <trkpt lat="49.79613" lon="2.43834">
        <ele>70.4</ele>
        <time>2023-08-23T08:34:50Z</time>
      </trkpt>
      <trkpt lat="49.79615" lon="2.43835">
        <ele>70.5</ele>
        <time>2023-08-23T08:34:51Z</time>
      </trkpt>
      <trkpt lat="49.79616" lon="2.43836">
        <ele>70.6</ele>
        <time>2023-08-23T08:34:52Z</time>
      </trkpt>
      <trkpt lat="49.79617" lon="2.43836">
        <ele>70.6</ele>
        <time>2023-08-23T08:34:53Z</time>
      </trkpt>
      <trkpt lat="49.79618" lon="2.43837">
        <ele>70.7</ele>
        <time>2023-08-23T08:34:54Z</time>
      </trkpt>
      <trkpt lat="49.79619" lon="2.43838">
        <ele>70.8</ele>
        <time>2023-08-23T08:34:55Z</time>
      </trkpt>
      <trkpt lat="49.7962" lon="2.43839">
        <ele>70.9</ele>
        <time>2023-08-23T08:34:57Z</time>
      </trkpt>
      <trkpt lat="49.79621" lon="2.43839">
        <ele>70.9</ele>
        <time>2023-08-23T08:34:58Z</time>
      </trkpt>
      <trkpt lat="49.79622" lon="2.4384">
        <ele>71</ele>
        <time>2023-08-23T08:34:59Z</time>
      </trkpt>
      <trkpt lat="49.79623" lon="2.43841">
        <ele>71.1</ele>
        <time>2023-08-23T08:35:00Z</time>
      </trkpt>
      <trkpt lat="49.79624" lon="2.43841">
        <ele>71.2</ele>
        <time>2023-08-23T08:35:02Z</time>
      </trkpt>
      <trkpt lat="49.79625" lon="2.43842">
        <ele>71.3</ele>
        <time>2023-08-23T08:35:03Z</time>
      </trkpt>
      <trkpt lat="49.79626" lon="2.43842">
        <ele>71.4</ele>
        <time>2023-08-23T08:35:04Z</time>
      </trkpt>
      <trkpt lat="49.79627" lon="2.43843">
        <ele>71.4</ele>
        <time>2023-08-23T08:35:05Z</time>
      </trkpt>
      <trkpt lat="49.79628" lon="2.43843">
        <ele>71.5</ele>
        <time>2023-08-23T08:35:06Z</time>
      </trkpt>
      <trkpt lat="49.79629" lon="2.43844">
        <ele>71.6</ele>
        <time>2023-08-23T08:35:07Z</time>
      </trkpt>
      <trkpt lat="49.7963" lon="2.43845">
        <ele>71.8</ele>
        <time>2023-08-23T08:35:09Z</time>
      </trkpt>
      <trkpt lat="49.79631" lon="2.43846">
        <ele>71.9</ele>
        <time>2023-08-23T08:35:10Z</time>
      </trkpt>
      <trkpt lat="49.79632" lon="2.43846">
        <ele>71.9</ele>
        <time>2023-08-23T08:35:11Z</time>
      </trkpt>
      <trkpt lat="49.79632" lon="2.43847">
        <ele>72</ele>
        <time>2023-08-23T08:35:12Z</time>
      </trkpt>
      <trkpt lat="49.79633" lon="2.43847">
        <ele>72.1</ele>
        <time>2023-08-23T08:35:13Z</time>
      </trkpt>
      <trkpt lat="49.79634" lon="2.43848">
        <ele>72.2</ele>
        <time>2023-08-23T08:35:14Z</time>
      </trkpt>
      <trkpt lat="49.79635" lon="2.43848">
        <ele>72.3</ele>
        <time>2023-08-23T08:35:15Z</time>
      </trkpt>
      <trkpt lat="49.79636" lon="2.43848">
        <ele>72.4</ele>
        <time>2023-08-23T08:35:17Z</time>
      </trkpt>
      <trkpt lat="49.79637" lon="2.43848">
        <ele>72.5</ele>
        <time>2023-08-23T08:35:18Z</time>
      </trkpt>
      <trkpt lat="49.79638" lon="2.43849">
        <ele>72.5</ele>
        <time>2023-08-23T08:35:19Z</time>
      </trkpt>
      <trkpt lat="49.79639" lon="2.43849">
        <ele>72.6</ele>
        <time>2023-08-23T08:35:20Z</time>
      </trkpt>
      <trkpt lat="49.7964" lon="2.43849">
        <ele>72.7</ele>
        <time>2023-08-23T08:35:21Z</time>
      </trkpt>
      <trkpt lat="49.79641" lon="2.43849">
        <ele>72.8</ele>
        <time>2023-08-23T08:35:22Z</time>
      </trkpt>
      <trkpt lat="49.79642" lon="2.43849">
        <ele>72.9</ele>
        <time>2023-08-23T08:35:24Z</time>
      </trkpt>
      <trkpt lat="49.79642" lon="2.43849">
        <ele>72.9</ele>
        <time>2023-08-23T08:35:25Z</time>
      </trkpt>
      <trkpt lat="49.79642" lon="2.43849">
        <ele>72.9</ele>
        <time>2023-08-23T08:35:27Z</time>
      </trkpt>
      <trkpt lat="49.79643" lon="2.4385">
        <ele>73</ele>
        <time>2023-08-23T08:35:28Z</time>
      </trkpt>
      <trkpt lat="49.79643" lon="2.4385">
        <ele>73</ele>
        <time>2023-08-23T08:35:30Z</time>
      </trkpt>
      <trkpt lat="49.79644" lon="2.4385">
        <ele>73.1</ele>
        <time>2023-08-23T08:35:31Z</time>
      </trkpt>
      <trkpt lat="49.79645" lon="2.43851">
        <ele>73.2</ele>
        <time>2023-08-23T08:35:32Z</time>
      </trkpt>
      <trkpt lat="49.79646" lon="2.43851">
        <ele>73.2</ele>
        <time>2023-08-23T08:35:34Z</time>
      </trkpt>
      <trkpt lat="49.79646" lon="2.43852">
        <ele>73.3</ele>
        <time>2023-08-23T08:35:35Z</time>
      </trkpt>
      <trkpt lat="49.79647" lon="2.43853">
        <ele>73.4</ele>
        <time>2023-08-23T08:35:36Z</time>
      </trkpt>
      <trkpt lat="49.79648" lon="2.43853">
        <ele>73.4</ele>
        <time>2023-08-23T08:35:37Z</time>
      </trkpt>
      <trkpt lat="49.79649" lon="2.43854">
        <ele>73.5</ele>
        <time>2023-08-23T08:35:38Z</time>
      </trkpt>
      <trkpt lat="49.79649" lon="2.43854">
        <ele>73.5</ele>
        <time>2023-08-23T08:35:40Z</time>
      </trkpt>
      <trkpt lat="49.79649" lon="2.43855">
        <ele>73.6</ele>
        <time>2023-08-23T08:35:41Z</time>
      </trkpt>
      <trkpt lat="49.79649" lon="2.43855">
        <ele>73.6</ele>
        <time>2023-08-23T08:35:43Z</time>
      </trkpt>
      <trkpt lat="49.7965" lon="2.43855">
        <ele>73.6</ele>
        <time>2023-08-23T08:35:44Z</time>
      </trkpt>
      <trkpt lat="49.7965" lon="2.43856">
        <ele>73.7</ele>
        <time>2023-08-23T08:35:45Z</time>
      </trkpt>
      <trkpt lat="49.79651" lon="2.43856">
        <ele>73.7</ele>
        <time>2023-08-23T08:35:46Z</time>
      </trkpt>
      <trkpt lat="49.79651" lon="2.43857">
        <ele>73.8</ele>
        <time>2023-08-23T08:35:47Z</time>
      </trkpt>
      <trkpt lat="49.79652" lon="2.43859">
        <ele>74.3</ele>
        <time>2023-08-23T08:35:48Z</time>
      </trkpt>
      <trkpt lat="49.79652" lon="2.43858">
        <ele>74.3</ele>
        <time>2023-08-23T08:35:49Z</time>
      </trkpt>
      <trkpt lat="49.79652" lon="2.43858">
        <ele>74.3</ele>
        <time>2023-08-23T08:35:50Z</time>
      </trkpt>
      <trkpt lat="49.79651" lon="2.43858">
        <ele>74.3</ele>
        <time>2023-08-23T08:35:52Z</time>
      </trkpt>
      <trkpt lat="49.79651" lon="2.43858">
        <ele>74.3</ele>
        <time>2023-08-23T08:35:53Z</time>
      </trkpt>
      <trkpt lat="49.79651" lon="2.43858">
        <ele>74.3</ele>
        <time>2023-08-23T08:35:54Z</time>
      </trkpt>
      <trkpt lat="49.79651" lon="2.43857">
        <ele>74.3</ele>
        <time>2023-08-23T08:36:01Z</time>
      </trkpt>
      <trkpt lat="49.79651" lon="2.43857">
        <ele>74.3</ele>
        <time>2023-08-23T08:36:02Z</time>
      </trkpt>
      <trkpt lat="49.79651" lon="2.43857">
        <ele>74.3</ele>
        <time>2023-08-23T08:36:04Z</time>
      </trkpt>
      <trkpt lat="49.79651" lon="2.43857">
        <ele>74.3</ele>
        <time>2023-08-23T08:36:05Z</time>
      </trkpt>
      <trkpt lat="49.79651" lon="2.43857">
        <ele>74.3</ele>
        <time>2023-08-23T08:36:07Z</time>
      </trkpt>
      <trkpt lat="49.79651" lon="2.43857">
        <ele>74.3</ele>
        <time>2023-08-23T08:36:08Z</time>
      </trkpt>
      <trkpt lat="49.7965" lon="2.43857">
        <ele>74.3</ele>
        <time>2023-08-23T08:36:10Z</time>
      </trkpt>
      <trkpt lat="49.7965" lon="2.43857">
        <ele>74.3</ele>
        <time>2023-08-23T08:36:11Z</time>
      </trkpt>
      <trkpt lat="49.7965" lon="2.43857">
        <ele>74.3</ele>
        <time>2023-08-23T08:36:12Z</time>
      </trkpt>
      <trkpt lat="49.7965" lon="2.43857">
        <ele>74.3</ele>
        <time>2023-08-23T08:36:14Z</time>
      </trkpt>
      <trkpt lat="49.7965" lon="2.43857">
        <ele>74.3</ele>
        <time>2023-08-23T08:36:15Z</time>
      </trkpt>
      <trkpt lat="49.7965" lon="2.43857">
        <ele>74.3</ele>
        <time>2023-08-23T08:36:16Z</time>
      </trkpt>
      <trkpt lat="49.7965" lon="2.43856">
        <ele>74.3</ele>
        <time>2023-08-23T08:36:17Z</time>
      </trkpt>
      <trkpt lat="49.7965" lon="2.43856">
        <ele>74.3</ele>
        <time>2023-08-23T08:36:18Z</time>
      </trkpt>
      <trkpt lat="49.7965" lon="2.43856">
        <ele>74.3</ele>
        <time>2023-08-23T08:36:19Z</time>
      </trkpt>
      <trkpt lat="49.79649" lon="2.43856">
        <ele>74.3</ele>
        <time>2023-08-23T08:36:20Z</time>
      </trkpt>
      <trkpt lat="49.79649" lon="2.43856">
        <ele>74.3</ele>
        <time>2023-08-23T08:36:21Z</time>
      </trkpt>
      <trkpt lat="49.79649" lon="2.43856">
        <ele>74.3</ele>
        <time>2023-08-23T08:36:22Z</time>
      </trkpt>
      <trkpt lat="49.79649" lon="2.43856">
        <ele>74.3</ele>
        <time>2023-08-23T08:36:23Z</time>
      </trkpt>
      <trkpt lat="49.79649" lon="2.43856">
        <ele>74.3</ele>
        <time>2023-08-23T08:36:24Z</time>
      </trkpt>
      <trkpt lat="49.79649" lon="2.43856">
        <ele>74.3</ele>
        <time>2023-08-23T08:36:25Z</time>
      </trkpt>
      <trkpt lat="49.79649" lon="2.43856">
        <ele>74.3</ele>
        <time>2023-08-23T08:36:26Z</time>
      </trkpt>
      <trkpt lat="49.79649" lon="2.43856">
        <ele>74.3</ele>
        <time>2023-08-23T08:36:27Z</time>
      </trkpt>
      <trkpt lat="49.79649" lon="2.43856">
        <ele>74.3</ele>
        <time>2023-08-23T08:36:28Z</time>
      </trkpt>
      <trkpt lat="49.79649" lon="2.43855">
        <ele>74.3</ele>
        <time>2023-08-23T08:36:29Z</time>
      </trkpt>
      <trkpt lat="49.79648" lon="2.43855">
        <ele>74.3</ele>
        <time>2023-08-23T08:36:30Z</time>
      </trkpt>
      <trkpt lat="49.79648" lon="2.43855">
        <ele>74.3</ele>
        <time>2023-08-23T08:36:31Z</time>
      </trkpt>
      <trkpt lat="49.79648" lon="2.43855">
        <ele>74.3</ele>
        <time>2023-08-23T08:36:32Z</time>
      </trkpt>
      <trkpt lat="49.79648" lon="2.43855">
        <ele>74.3</ele>
        <time>2023-08-23T08:36:34Z</time>
      </trkpt>
      <trkpt lat="49.79648" lon="2.43855">
        <ele>74.3</ele>
        <time>2023-08-23T08:36:35Z</time>
      </trkpt>
      <trkpt lat="49.79648" lon="2.43855">
        <ele>74.3</ele>
        <time>2023-08-23T08:36:36Z</time>
      </trkpt>
      <trkpt lat="49.79648" lon="2.43855">
        <ele>74.3</ele>
        <time>2023-08-23T08:36:37Z</time>
      </trkpt>
      <trkpt lat="49.79648" lon="2.43855">
        <ele>74.3</ele>
        <time>2023-08-23T08:36:38Z</time>
      </trkpt>
      <trkpt lat="49.79648" lon="2.43855">
        <ele>74.3</ele>
        <time>2023-08-23T08:36:39Z</time>
      </trkpt>
      <trkpt lat="49.79647" lon="2.43855">
        <ele>74.3</ele>
        <time>2023-08-23T08:36:40Z</time>
      </trkpt>
      <trkpt lat="49.79647" lon="2.43855">
        <ele>74.3</ele>
        <time>2023-08-23T08:36:41Z</time>
      </trkpt>
      <trkpt lat="49.79647" lon="2.43854">
        <ele>74.3</ele>
        <time>2023-08-23T08:36:42Z</time>
      </trkpt>
      <trkpt lat="49.79647" lon="2.43854">
        <ele>74.3</ele>
        <time>2023-08-23T08:36:43Z</time>
      </trkpt>
      <trkpt lat="49.79647" lon="2.43854">
        <ele>74.3</ele>
        <time>2023-08-23T08:36:44Z</time>
      </trkpt>
      <trkpt lat="49.79647" lon="2.43854">
        <ele>74.3</ele>
        <time>2023-08-23T08:36:45Z</time>
      </trkpt>
      <trkpt lat="49.79647" lon="2.43854">
        <ele>74.3</ele>
        <time>2023-08-23T08:36:46Z</time>
      </trkpt>
      <trkpt lat="49.79647" lon="2.43854">
        <ele>74.3</ele>
        <time>2023-08-23T08:36:47Z</time>
      </trkpt>
      <trkpt lat="49.79647" lon="2.43854">
        <ele>74.3</ele>
        <time>2023-08-23T08:36:48Z</time>
      </trkpt>
      <trkpt lat="49.79646" lon="2.43854">
        <ele>74.3</ele>
        <time>2023-08-23T08:36:49Z</time>
      </trkpt>
      <trkpt lat="49.79646" lon="2.43854">
        <ele>74.3</ele>
        <time>2023-08-23T08:36:50Z</time>
      </trkpt>
      <trkpt lat="49.79646" lon="2.43854">
        <ele>74.3</ele>
        <time>2023-08-23T08:36:51Z</time>
      </trkpt>
      <trkpt lat="49.79646" lon="2.43854">
        <ele>74.3</ele>
        <time>2023-08-23T08:36:52Z</time>
      </trkpt>
      <trkpt lat="49.79646" lon="2.43854">
        <ele>74.3</ele>
        <time>2023-08-23T08:36:53Z</time>
      </trkpt>
      <trkpt lat="49.79646" lon="2.43853">
        <ele>74.3</ele>
        <time>2023-08-23T08:36:54Z</time>
      </trkpt>
      <trkpt lat="49.79644" lon="2.43851">
        <ele>74.3</ele>
        <time>2023-08-23T08:36:55Z</time>
      </trkpt>
      <trkpt lat="49.79643" lon="2.4385">
        <ele>74.8</ele>
        <time>2023-08-23T08:36:56Z</time>
      </trkpt>
      <trkpt lat="49.79643" lon="2.43851">
        <ele>74.8</ele>
        <time>2023-08-23T08:36:57Z</time>
      </trkpt>
      <trkpt lat="49.79643" lon="2.43852">
        <ele>74.8</ele>
        <time>2023-08-23T08:36:58Z</time>
      </trkpt>
      <trkpt lat="49.79643" lon="2.43854">
        <ele>74.9</ele>
        <time>2023-08-23T08:36:59Z</time>
      </trkpt>
      <trkpt lat="49.79643" lon="2.43855">
        <ele>74.9</ele>
        <time>2023-08-23T08:37:00Z</time>
      </trkpt>
      <trkpt lat="49.79643" lon="2.43856">
        <ele>74.9</ele>
        <time>2023-08-23T08:37:01Z</time>
      </trkpt>
      <trkpt lat="49.79643" lon="2.43857">
        <ele>75</ele>
        <time>2023-08-23T08:37:02Z</time>
      </trkpt>
      <trkpt lat="49.79643" lon="2.43859">
        <ele>75</ele>
        <time>2023-08-23T08:37:03Z</time>
      </trkpt>
      <trkpt lat="49.79641" lon="2.43863">
        <ele>75.2</ele>
        <time>2023-08-23T08:37:05Z</time>
      </trkpt>
      <trkpt lat="49.79639" lon="2.43866">
        <ele>75.3</ele>
        <time>2023-08-23T08:37:07Z</time>
      </trkpt>
      <trkpt lat="49.79638" lon="2.43867">
        <ele>75.3</ele>
        <time>2023-08-23T08:37:09Z</time>
      </trkpt>
      <trkpt lat="49.79638" lon="2.43868">
        <ele>75.3</ele>
        <time>2023-08-23T08:37:10Z</time>
      </trkpt>
      <trkpt lat="49.79637" lon="2.43868">
        <ele>75.4</ele>
        <time>2023-08-23T08:37:11Z</time>
      </trkpt>
      <trkpt lat="49.79637" lon="2.43869">
        <ele>75.4</ele>
        <time>2023-08-23T08:37:12Z</time>
      </trkpt>
      <trkpt lat="49.79637" lon="2.4387">
        <ele>75.4</ele>
        <time>2023-08-23T08:37:13Z</time>
      </trkpt>
      <trkpt lat="49.79637" lon="2.4387">
        <ele>75.4</ele>
        <time>2023-08-23T08:37:15Z</time>
      </trkpt>
      <trkpt lat="49.79637" lon="2.43871">
        <ele>75.4</ele>
        <time>2023-08-23T08:37:16Z</time>
      </trkpt>
      <trkpt lat="49.79637" lon="2.43872">
        <ele>75.5</ele>
        <time>2023-08-23T08:37:17Z</time>
      </trkpt>
      <trkpt lat="49.79637" lon="2.43874">
        <ele>75.5</ele>
        <time>2023-08-23T08:37:18Z</time>
      </trkpt>
      <trkpt lat="49.79636" lon="2.43875">
        <ele>75.6</ele>
        <time>2023-08-23T08:37:19Z</time>
      </trkpt>
      <trkpt lat="49.79636" lon="2.43877">
        <ele>75.6</ele>
        <time>2023-08-23T08:37:20Z</time>
      </trkpt>
      <trkpt lat="49.79636" lon="2.43879">
        <ele>75.7</ele>
        <time>2023-08-23T08:37:22Z</time>
      </trkpt>
      <trkpt lat="49.79637" lon="2.43882">
        <ele>75.7</ele>
        <time>2023-08-23T08:37:23Z</time>
      </trkpt>
      <trkpt lat="49.79637" lon="2.43883">
        <ele>75.8</ele>
        <time>2023-08-23T08:37:24Z</time>
      </trkpt>
      <trkpt lat="49.79638" lon="2.43884">
        <ele>75.8</ele>
        <time>2023-08-23T08:37:25Z</time>
      </trkpt>
      <trkpt lat="49.79638" lon="2.43886">
        <ele>75.9</ele>
        <time>2023-08-23T08:37:26Z</time>
      </trkpt>
      <trkpt lat="49.79638" lon="2.43888">
        <ele>75.9</ele>
        <time>2023-08-23T08:37:27Z</time>
      </trkpt>
      <trkpt lat="49.79638" lon="2.4389">
        <ele>76</ele>
        <time>2023-08-23T08:37:28Z</time>
      </trkpt>
      <trkpt lat="49.79638" lon="2.43892">
        <ele>76</ele>
        <time>2023-08-23T08:37:30Z</time>
      </trkpt>
      <trkpt lat="49.79638" lon="2.43893">
        <ele>76</ele>
        <time>2023-08-23T08:37:31Z</time>
      </trkpt>
      <trkpt lat="49.79637" lon="2.43894">
        <ele>76.1</ele>
        <time>2023-08-23T08:37:32Z</time>
      </trkpt>
      <trkpt lat="49.79637" lon="2.43895">
        <ele>76.1</ele>
        <time>2023-08-23T08:37:33Z</time>
      </trkpt>
      <trkpt lat="49.79636" lon="2.43897">
        <ele>76.1</ele>
        <time>2023-08-23T08:37:34Z</time>
      </trkpt>
      <trkpt lat="49.79636" lon="2.43898">
        <ele>76.2</ele>
        <time>2023-08-23T08:37:35Z</time>
      </trkpt>
      <trkpt lat="49.79635" lon="2.43899">
        <ele>76.2</ele>
        <time>2023-08-23T08:37:37Z</time>
      </trkpt>
      <trkpt lat="49.79634" lon="2.43901">
        <ele>76.3</ele>
        <time>2023-08-23T08:37:38Z</time>
      </trkpt>
      <trkpt lat="49.79633" lon="2.43902">
        <ele>76.3</ele>
        <time>2023-08-23T08:37:39Z</time>
      </trkpt>
      <trkpt lat="49.79632" lon="2.43903">
        <ele>76.4</ele>
        <time>2023-08-23T08:37:40Z</time>
      </trkpt>
      <trkpt lat="49.79632" lon="2.43904">
        <ele>76.4</ele>
        <time>2023-08-23T08:37:41Z</time>
      </trkpt>
      <trkpt lat="49.79631" lon="2.43905">
        <ele>76.4</ele>
        <time>2023-08-23T08:37:43Z</time>
      </trkpt>
      <trkpt lat="49.7963" lon="2.43906">
        <ele>76.5</ele>
        <time>2023-08-23T08:37:44Z</time>
      </trkpt>
      <trkpt lat="49.79629" lon="2.43907">
        <ele>76.5</ele>
        <time>2023-08-23T08:37:45Z</time>
      </trkpt>
      <trkpt lat="49.79629" lon="2.43908">
        <ele>76.5</ele>
        <time>2023-08-23T08:37:46Z</time>
      </trkpt>
      <trkpt lat="49.79628" lon="2.43909">
        <ele>76.6</ele>
        <time>2023-08-23T08:37:47Z</time>
      </trkpt>
      <trkpt lat="49.79627" lon="2.4391">
        <ele>76.6</ele>
        <time>2023-08-23T08:37:48Z</time>
      </trkpt>
      <trkpt lat="49.79625" lon="2.43912">
        <ele>76.6</ele>
        <time>2023-08-23T08:37:50Z</time>
      </trkpt>
      <trkpt lat="49.79624" lon="2.43913">
        <ele>76.7</ele>
        <time>2023-08-23T08:37:52Z</time>
      </trkpt>
      <trkpt lat="49.79623" lon="2.43914">
        <ele>76.7</ele>
        <time>2023-08-23T08:37:53Z</time>
      </trkpt>
      <trkpt lat="49.79623" lon="2.43915">
        <ele>76.8</ele>
        <time>2023-08-23T08:37:54Z</time>
      </trkpt>
      <trkpt lat="49.79622" lon="2.43917">
        <ele>76.8</ele>
        <time>2023-08-23T08:37:56Z</time>
      </trkpt>
      <trkpt lat="49.79621" lon="2.43918">
        <ele>76.8</ele>
        <time>2023-08-23T08:37:58Z</time>
      </trkpt>
      <trkpt lat="49.7962" lon="2.43919">
        <ele>76.9</ele>
        <time>2023-08-23T08:37:59Z</time>
      </trkpt>
      <trkpt lat="49.7962" lon="2.43921">
        <ele>76.9</ele>
        <time>2023-08-23T08:38:00Z</time>
      </trkpt>
      <trkpt lat="49.79619" lon="2.43922">
        <ele>76.9</ele>
        <time>2023-08-23T08:38:02Z</time>
      </trkpt>
      <trkpt lat="49.79618" lon="2.43923">
        <ele>77</ele>
        <time>2023-08-23T08:38:03Z</time>
      </trkpt>
      <trkpt lat="49.79617" lon="2.43924">
        <ele>77</ele>
        <time>2023-08-23T08:38:05Z</time>
      </trkpt>
      <trkpt lat="49.79616" lon="2.43925">
        <ele>77</ele>
        <time>2023-08-23T08:38:06Z</time>
      </trkpt>
      <trkpt lat="49.79615" lon="2.43926">
        <ele>77.1</ele>
        <time>2023-08-23T08:38:07Z</time>
      </trkpt>
      <trkpt lat="49.79615" lon="2.43927">
        <ele>77.1</ele>
        <time>2023-08-23T08:38:08Z</time>
      </trkpt>
      <trkpt lat="49.79614" lon="2.43928">
        <ele>77.1</ele>
        <time>2023-08-23T08:38:09Z</time>
      </trkpt>
      <trkpt lat="49.79613" lon="2.43929">
        <ele>77.1</ele>
        <time>2023-08-23T08:38:10Z</time>
      </trkpt>
      <trkpt lat="49.79612" lon="2.4393">
        <ele>77.2</ele>
        <time>2023-08-23T08:38:12Z</time>
      </trkpt>
      <trkpt lat="49.79611" lon="2.43931">
        <ele>77.2</ele>
        <time>2023-08-23T08:38:13Z</time>
      </trkpt>
      <trkpt lat="49.7961" lon="2.43932">
        <ele>77.2</ele>
        <time>2023-08-23T08:38:14Z</time>
      </trkpt>
      <trkpt lat="49.79609" lon="2.43933">
        <ele>77.3</ele>
        <time>2023-08-23T08:38:15Z</time>
      </trkpt>
      <trkpt lat="49.79608" lon="2.43934">
        <ele>77.3</ele>
        <time>2023-08-23T08:38:16Z</time>
      </trkpt>
      <trkpt lat="49.79607" lon="2.43934">
        <ele>77.3</ele>
        <time>2023-08-23T08:38:18Z</time>
      </trkpt>
      <trkpt lat="49.79606" lon="2.43935">
        <ele>77.4</ele>
        <time>2023-08-23T08:38:19Z</time>
      </trkpt>
      <trkpt lat="49.79605" lon="2.43936">
        <ele>77.4</ele>
        <time>2023-08-23T08:38:20Z</time>
      </trkpt>
      <trkpt lat="49.79603" lon="2.43938">
        <ele>77.5</ele>
        <time>2023-08-23T08:38:21Z</time>
      </trkpt>
      <trkpt lat="49.79602" lon="2.43939">
        <ele>77.5</ele>
        <time>2023-08-23T08:38:22Z</time>
      </trkpt>
      <trkpt lat="49.79601" lon="2.43939">
        <ele>77.5</ele>
        <time>2023-08-23T08:38:24Z</time>
      </trkpt>
      <trkpt lat="49.796" lon="2.4394">
        <ele>77.6</ele>
        <time>2023-08-23T08:38:25Z</time>
      </trkpt>
      <trkpt lat="49.79599" lon="2.43941">
        <ele>77.6</ele>
        <time>2023-08-23T08:38:27Z</time>
      </trkpt>
      <trkpt lat="49.79598" lon="2.43942">
        <ele>77.6</ele>
        <time>2023-08-23T08:38:28Z</time>
      </trkpt>
      <trkpt lat="49.79597" lon="2.43943">
        <ele>77.7</ele>
        <time>2023-08-23T08:38:29Z</time>
      </trkpt>
      <trkpt lat="49.79596" lon="2.43944">
        <ele>77.7</ele>
        <time>2023-08-23T08:38:30Z</time>
      </trkpt>
      <trkpt lat="49.79596" lon="2.43944">
        <ele>77.7</ele>
        <time>2023-08-23T08:38:32Z</time>
      </trkpt>
      <trkpt lat="49.79595" lon="2.43945">
        <ele>77.8</ele>
        <time>2023-08-23T08:38:33Z</time>
      </trkpt>
      <trkpt lat="49.79594" lon="2.43945">
        <ele>77.8</ele>
        <time>2023-08-23T08:38:34Z</time>
      </trkpt>
      <trkpt lat="49.79593" lon="2.43946">
        <ele>77.8</ele>
        <time>2023-08-23T08:38:35Z</time>
      </trkpt>
      <trkpt lat="49.79592" lon="2.43947">
        <ele>77.9</ele>
        <time>2023-08-23T08:38:36Z</time>
      </trkpt>
      <trkpt lat="49.79591" lon="2.43948">
        <ele>77.9</ele>
        <time>2023-08-23T08:38:38Z</time>
      </trkpt>
      <trkpt lat="49.7959" lon="2.43949">
        <ele>77.9</ele>
        <time>2023-08-23T08:38:39Z</time>
      </trkpt>
      <trkpt lat="49.79589" lon="2.4395">
        <ele>78</ele>
        <time>2023-08-23T08:38:40Z</time>
      </trkpt>
      <trkpt lat="49.79588" lon="2.43951">
        <ele>78</ele>
        <time>2023-08-23T08:38:41Z</time>
      </trkpt>
      <trkpt lat="49.79587" lon="2.43952">
        <ele>78</ele>
        <time>2023-08-23T08:38:43Z</time>
      </trkpt>
      <trkpt lat="49.79586" lon="2.43953">
        <ele>78.1</ele>
        <time>2023-08-23T08:38:44Z</time>
      </trkpt>
      <trkpt lat="49.79585" lon="2.43954">
        <ele>78.1</ele>
        <time>2023-08-23T08:38:45Z</time>
      </trkpt>
      <trkpt lat="49.79585" lon="2.43955">
        <ele>78.1</ele>
        <time>2023-08-23T08:38:46Z</time>
      </trkpt>
      <trkpt lat="49.79583" lon="2.43956">
        <ele>78.2</ele>
        <time>2023-08-23T08:38:47Z</time>
      </trkpt>
      <trkpt lat="49.79582" lon="2.43957">
        <ele>78.2</ele>
        <time>2023-08-23T08:38:49Z</time>
      </trkpt>
      <trkpt lat="49.7958" lon="2.43959">
        <ele>78.3</ele>
        <time>2023-08-23T08:38:50Z</time>
      </trkpt>
      <trkpt lat="49.7958" lon="2.4396">
        <ele>78.3</ele>
        <time>2023-08-23T08:38:51Z</time>
      </trkpt>
      <trkpt lat="49.79579" lon="2.4396">
        <ele>78.4</ele>
        <time>2023-08-23T08:38:52Z</time>
      </trkpt>
      <trkpt lat="49.79578" lon="2.43961">
        <ele>78.4</ele>
        <time>2023-08-23T08:38:54Z</time>
      </trkpt>
      <trkpt lat="49.79577" lon="2.43962">
        <ele>78.4</ele>
        <time>2023-08-23T08:38:55Z</time>
      </trkpt>
      <trkpt lat="49.79576" lon="2.43963">
        <ele>78.5</ele>
        <time>2023-08-23T08:38:56Z</time>
      </trkpt>
      <trkpt lat="49.79575" lon="2.43964">
        <ele>78.5</ele>
        <time>2023-08-23T08:38:57Z</time>
      </trkpt>
      <trkpt lat="49.79574" lon="2.43965">
        <ele>78.5</ele>
        <time>2023-08-23T08:38:58Z</time>
      </trkpt>
      <trkpt lat="49.79573" lon="2.43966">
        <ele>78.6</ele>
        <time>2023-08-23T08:39:00Z</time>
      </trkpt>
      <trkpt lat="49.79572" lon="2.43968">
        <ele>78.6</ele>
        <time>2023-08-23T08:39:01Z</time>
      </trkpt>
      <trkpt lat="49.79571" lon="2.43969">
        <ele>78.7</ele>
        <time>2023-08-23T08:39:02Z</time>
      </trkpt>
      <trkpt lat="49.7957" lon="2.43969">
        <ele>78.7</ele>
        <time>2023-08-23T08:39:03Z</time>
      </trkpt>
      <trkpt lat="49.79569" lon="2.4397">
        <ele>78.7</ele>
        <time>2023-08-23T08:39:04Z</time>
      </trkpt>
      <trkpt lat="49.79568" lon="2.43971">
        <ele>78.8</ele>
        <time>2023-08-23T08:39:06Z</time>
      </trkpt>
      <trkpt lat="49.79567" lon="2.43972">
        <ele>78.8</ele>
        <time>2023-08-23T08:39:07Z</time>
      </trkpt>
      <trkpt lat="49.79567" lon="2.43973">
        <ele>78.8</ele>
        <time>2023-08-23T08:39:08Z</time>
      </trkpt>
      <trkpt lat="49.79566" lon="2.43975">
        <ele>78.9</ele>
        <time>2023-08-23T08:39:10Z</time>
      </trkpt>
      <trkpt lat="49.79566" lon="2.43976">
        <ele>78.9</ele>
        <time>2023-08-23T08:39:12Z</time>
      </trkpt>
      <trkpt lat="49.79567" lon="2.43977">
        <ele>78.9</ele>
        <time>2023-08-23T08:39:13Z</time>
      </trkpt>
      <trkpt lat="49.79567" lon="2.43979">
        <ele>79</ele>
        <time>2023-08-23T08:39:14Z</time>
      </trkpt>
      <trkpt lat="49.79567" lon="2.4398">
        <ele>79</ele>
        <time>2023-08-23T08:39:16Z</time>
      </trkpt>
      <trkpt lat="49.79567" lon="2.4398">
        <ele>79</ele>
        <time>2023-08-23T08:39:17Z</time>
      </trkpt>
      <trkpt lat="49.79566" lon="2.43979">
        <ele>79</ele>
        <time>2023-08-23T08:39:19Z</time>
      </trkpt>
      <trkpt lat="49.79565" lon="2.43979">
        <ele>79.1</ele>
        <time>2023-08-23T08:39:20Z</time>
      </trkpt>
      <trkpt lat="49.79565" lon="2.43978">
        <ele>79.1</ele>
        <time>2023-08-23T08:39:21Z</time>
      </trkpt>
      <trkpt lat="49.79565" lon="2.43977">
        <ele>79.1</ele>
        <time>2023-08-23T08:39:22Z</time>
      </trkpt>
      <trkpt lat="49.79565" lon="2.43977">
        <ele>79.1</ele>
        <time>2023-08-23T08:39:24Z</time>
      </trkpt>
      <trkpt lat="49.79564" lon="2.43976">
        <ele>79.1</ele>
        <time>2023-08-23T08:39:26Z</time>
      </trkpt>
      <trkpt lat="49.79564" lon="2.43976">
        <ele>79.1</ele>
        <time>2023-08-23T08:39:27Z</time>
      </trkpt>
      <trkpt lat="49.79564" lon="2.43975">
        <ele>79.2</ele>
        <time>2023-08-23T08:39:29Z</time>
      </trkpt>
      <trkpt lat="49.79564" lon="2.43974">
        <ele>79.2</ele>
        <time>2023-08-23T08:39:30Z</time>
      </trkpt>
      <trkpt lat="49.79564" lon="2.43974">
        <ele>79.2</ele>
        <time>2023-08-23T08:39:31Z</time>
      </trkpt>
      <trkpt lat="49.79565" lon="2.43972">
        <ele>79.2</ele>
        <time>2023-08-23T08:39:33Z</time>
      </trkpt>
      <trkpt lat="49.79566" lon="2.43971">
        <ele>79.3</ele>
        <time>2023-08-23T08:39:34Z</time>
      </trkpt>
      <trkpt lat="49.79566" lon="2.4397">
        <ele>79.3</ele>
        <time>2023-08-23T08:39:35Z</time>
      </trkpt>
      <trkpt lat="49.79566" lon="2.4397">
        <ele>79.3</ele>
        <time>2023-08-23T08:39:36Z</time>
      </trkpt>
      <trkpt lat="49.79565" lon="2.43969">
        <ele>79.3</ele>
        <time>2023-08-23T08:39:37Z</time>
      </trkpt>
      <trkpt lat="49.79566" lon="2.43968">
        <ele>79.4</ele>
        <time>2023-08-23T08:39:38Z</time>
      </trkpt>
      <trkpt lat="49.79565" lon="2.43967">
        <ele>79.4</ele>
        <time>2023-08-23T08:39:39Z</time>
      </trkpt>
      <trkpt lat="49.79565" lon="2.43967">
        <ele>79.4</ele>
        <time>2023-08-23T08:39:41Z</time>
      </trkpt>
      <trkpt lat="49.79564" lon="2.43968">
        <ele>79.4</ele>
        <time>2023-08-23T08:39:42Z</time>
      </trkpt>
      <trkpt lat="49.79564" lon="2.43971">
        <ele>79.5</ele>
        <time>2023-08-23T08:39:43Z</time>
      </trkpt>
      <trkpt lat="49.79564" lon="2.43976">
        <ele>79.6</ele>
        <time>2023-08-23T08:39:44Z</time>
      </trkpt>
      <trkpt lat="49.79566" lon="2.43982">
        <ele>79.7</ele>
        <time>2023-08-23T08:39:46Z</time>
      </trkpt>
      <trkpt lat="49.79564" lon="2.43983">
        <ele>80.3</ele>
        <time>2023-08-23T08:39:48Z</time>
      </trkpt>
      <trkpt lat="49.79563" lon="2.43984">
        <ele>80.4</ele>
        <time>2023-08-23T08:39:49Z</time>
      </trkpt>
      <trkpt lat="49.79563" lon="2.43984">
        <ele>80.4</ele>
        <time>2023-08-23T08:39:51Z</time>
      </trkpt>
      <trkpt lat="49.79564" lon="2.43983">
        <ele>80.5</ele>
        <time>2023-08-23T08:39:52Z</time>
      </trkpt>
      <trkpt lat="49.79565" lon="2.43983">
        <ele>80.5</ele>
        <time>2023-08-23T08:39:53Z</time>
      </trkpt>
      <trkpt lat="49.79565" lon="2.43984">
        <ele>80.6</ele>
        <time>2023-08-23T08:39:54Z</time>
      </trkpt>
      <trkpt lat="49.79566" lon="2.43985">
        <ele>80.6</ele>
        <time>2023-08-23T08:39:55Z</time>
      </trkpt>
      <trkpt lat="49.79567" lon="2.43987">
        <ele>80.7</ele>
        <time>2023-08-23T08:39:56Z</time>
      </trkpt>
      <trkpt lat="49.79567" lon="2.4399">
        <ele>80.8</ele>
        <time>2023-08-23T08:39:57Z</time>
      </trkpt>
      <trkpt lat="49.79567" lon="2.43993">
        <ele>80.9</ele>
        <time>2023-08-23T08:39:58Z</time>
      </trkpt>
      <trkpt lat="49.79568" lon="2.43995">
        <ele>80.9</ele>
        <time>2023-08-23T08:39:59Z</time>
      </trkpt>
      <trkpt lat="49.79568" lon="2.43997">
        <ele>81</ele>
        <time>2023-08-23T08:40:01Z</time>
      </trkpt>
      <trkpt lat="49.79569" lon="2.43998">
        <ele>81</ele>
        <time>2023-08-23T08:40:02Z</time>
      </trkpt>
      <trkpt lat="49.7957" lon="2.43999">
        <ele>81.1</ele>
        <time>2023-08-23T08:40:03Z</time>
      </trkpt>
      <trkpt lat="49.7957" lon="2.44">
        <ele>81.1</ele>
        <time>2023-08-23T08:40:04Z</time>
      </trkpt>
      <trkpt lat="49.79571" lon="2.44001">
        <ele>81.1</ele>
        <time>2023-08-23T08:40:05Z</time>
      </trkpt>
      <trkpt lat="49.79571" lon="2.44002">
        <ele>81.1</ele>
        <time>2023-08-23T08:40:07Z</time>
      </trkpt>
      <trkpt lat="49.79571" lon="2.44003">
        <ele>81.2</ele>
        <time>2023-08-23T08:40:08Z</time>
      </trkpt>
      <trkpt lat="49.79572" lon="2.44004">
        <ele>81.2</ele>
        <time>2023-08-23T08:40:10Z</time>
      </trkpt>
      <trkpt lat="49.79573" lon="2.44005">
        <ele>81.2</ele>
        <time>2023-08-23T08:40:11Z</time>
      </trkpt>
      <trkpt lat="49.79573" lon="2.44005">
        <ele>81.3</ele>
        <time>2023-08-23T08:40:12Z</time>
      </trkpt>
      <trkpt lat="49.79574" lon="2.44006">
        <ele>81.3</ele>
        <time>2023-08-23T08:40:13Z</time>
      </trkpt>
      <trkpt lat="49.79575" lon="2.44007">
        <ele>81.3</ele>
        <time>2023-08-23T08:40:14Z</time>
      </trkpt>
      <trkpt lat="49.79576" lon="2.44008">
        <ele>81.4</ele>
        <time>2023-08-23T08:40:15Z</time>
      </trkpt>
      <trkpt lat="49.79577" lon="2.4401">
        <ele>81.4</ele>
        <time>2023-08-23T08:40:17Z</time>
      </trkpt>
      <trkpt lat="49.79577" lon="2.44011">
        <ele>81.4</ele>
        <time>2023-08-23T08:40:18Z</time>
      </trkpt>
      <trkpt lat="49.79578" lon="2.44012">
        <ele>81.5</ele>
        <time>2023-08-23T08:40:19Z</time>
      </trkpt>
      <trkpt lat="49.79578" lon="2.44012">
        <ele>81.5</ele>
        <time>2023-08-23T08:40:20Z</time>
      </trkpt>
      <trkpt lat="49.79579" lon="2.44013">
        <ele>81.5</ele>
        <time>2023-08-23T08:40:21Z</time>
      </trkpt>
      <trkpt lat="49.79581" lon="2.44016">
        <ele>81.6</ele>
        <time>2023-08-23T08:40:22Z</time>
      </trkpt>
      <trkpt lat="49.79583" lon="2.44018">
        <ele>81.7</ele>
        <time>2023-08-23T08:40:24Z</time>
      </trkpt>
      <trkpt lat="49.79584" lon="2.44019">
        <ele>81.7</ele>
        <time>2023-08-23T08:40:25Z</time>
      </trkpt>
      <trkpt lat="49.79585" lon="2.4402">
        <ele>81.8</ele>
        <time>2023-08-23T08:40:26Z</time>
      </trkpt>
      <trkpt lat="49.79587" lon="2.44023">
        <ele>81.9</ele>
        <time>2023-08-23T08:40:27Z</time>
      </trkpt>
      <trkpt lat="49.79588" lon="2.44023">
        <ele>81.9</ele>
        <time>2023-08-23T08:40:28Z</time>
      </trkpt>
      <trkpt lat="49.7959" lon="2.44026">
        <ele>82</ele>
        <time>2023-08-23T08:40:29Z</time>
      </trkpt>
      <trkpt lat="49.79591" lon="2.44027">
        <ele>82</ele>
        <time>2023-08-23T08:40:31Z</time>
      </trkpt>
      <trkpt lat="49.79592" lon="2.44028">
        <ele>82</ele>
        <time>2023-08-23T08:40:32Z</time>
      </trkpt>
      <trkpt lat="49.79593" lon="2.44029">
        <ele>82.1</ele>
        <time>2023-08-23T08:40:33Z</time>
      </trkpt>
      <trkpt lat="49.79594" lon="2.4403">
        <ele>82.1</ele>
        <time>2023-08-23T08:40:34Z</time>
      </trkpt>
      <trkpt lat="49.79595" lon="2.44032">
        <ele>82.2</ele>
        <time>2023-08-23T08:40:35Z</time>
      </trkpt>
      <trkpt lat="49.79596" lon="2.44032">
        <ele>82.2</ele>
        <time>2023-08-23T08:40:37Z</time>
      </trkpt>
      <trkpt lat="49.79597" lon="2.44033">
        <ele>82.3</ele>
        <time>2023-08-23T08:40:38Z</time>
      </trkpt>
      <trkpt lat="49.79598" lon="2.44035">
        <ele>82.4</ele>
        <time>2023-08-23T08:40:39Z</time>
      </trkpt>
      <trkpt lat="49.79599" lon="2.44036">
        <ele>82.4</ele>
        <time>2023-08-23T08:40:40Z</time>
      </trkpt>
      <trkpt lat="49.79601" lon="2.44037">
        <ele>82.5</ele>
        <time>2023-08-23T08:40:41Z</time>
      </trkpt>
      <trkpt lat="49.79603" lon="2.4404">
        <ele>82.6</ele>
        <time>2023-08-23T08:40:43Z</time>
      </trkpt>
      <trkpt lat="49.79604" lon="2.44041">
        <ele>82.7</ele>
        <time>2023-08-23T08:40:44Z</time>
      </trkpt>
      <trkpt lat="49.79605" lon="2.44043">
        <ele>82.7</ele>
        <time>2023-08-23T08:40:46Z</time>
      </trkpt>
      <trkpt lat="49.79606" lon="2.44044">
        <ele>82.8</ele>
        <time>2023-08-23T08:40:47Z</time>
      </trkpt>
      <trkpt lat="49.79607" lon="2.44045">
        <ele>82.8</ele>
        <time>2023-08-23T08:40:48Z</time>
      </trkpt>
      <trkpt lat="49.79608" lon="2.44047">
        <ele>82.9</ele>
        <time>2023-08-23T08:40:50Z</time>
      </trkpt>
      <trkpt lat="49.79609" lon="2.44047">
        <ele>83</ele>
        <time>2023-08-23T08:40:51Z</time>
      </trkpt>
      <trkpt lat="49.7961" lon="2.44048">
        <ele>83</ele>
        <time>2023-08-23T08:40:52Z</time>
      </trkpt>
      <trkpt lat="49.79611" lon="2.4405">
        <ele>83.1</ele>
        <time>2023-08-23T08:40:53Z</time>
      </trkpt>
      <trkpt lat="49.79612" lon="2.44051">
        <ele>83.1</ele>
        <time>2023-08-23T08:40:54Z</time>
      </trkpt>
      <trkpt lat="49.79613" lon="2.44052">
        <ele>83.2</ele>
        <time>2023-08-23T08:40:55Z</time>
      </trkpt>
      <trkpt lat="49.79615" lon="2.44055">
        <ele>83.3</ele>
        <time>2023-08-23T08:40:57Z</time>
      </trkpt>
      <trkpt lat="49.79615" lon="2.44056">
        <ele>83.3</ele>
        <time>2023-08-23T08:40:58Z</time>
      </trkpt>
      <trkpt lat="49.79616" lon="2.44057">
        <ele>83.4</ele>
        <time>2023-08-23T08:40:59Z</time>
      </trkpt>
      <trkpt lat="49.79617" lon="2.44058">
        <ele>83.4</ele>
        <time>2023-08-23T08:41:00Z</time>
      </trkpt>
      <trkpt lat="49.79618" lon="2.44059">
        <ele>83.5</ele>
        <time>2023-08-23T08:41:02Z</time>
      </trkpt>
      <trkpt lat="49.79618" lon="2.4406">
        <ele>83.5</ele>
        <time>2023-08-23T08:41:03Z</time>
      </trkpt>
      <trkpt lat="49.79619" lon="2.44062">
        <ele>83.5</ele>
        <time>2023-08-23T08:41:04Z</time>
      </trkpt>
      <trkpt lat="49.79619" lon="2.44063">
        <ele>83.6</ele>
        <time>2023-08-23T08:41:05Z</time>
      </trkpt>
      <trkpt lat="49.7962" lon="2.44064">
        <ele>83.6</ele>
        <time>2023-08-23T08:41:06Z</time>
      </trkpt>
      <trkpt lat="49.79621" lon="2.44066">
        <ele>83.6</ele>
        <time>2023-08-23T08:41:07Z</time>
      </trkpt>
      <trkpt lat="49.79621" lon="2.44067">
        <ele>83.7</ele>
        <time>2023-08-23T08:41:09Z</time>
      </trkpt>
      <trkpt lat="49.79622" lon="2.44068">
        <ele>83.7</ele>
        <time>2023-08-23T08:41:10Z</time>
      </trkpt>
      <trkpt lat="49.79622" lon="2.44069">
        <ele>83.7</ele>
        <time>2023-08-23T08:41:11Z</time>
      </trkpt>
      <trkpt lat="49.79623" lon="2.4407">
        <ele>83.8</ele>
        <time>2023-08-23T08:41:12Z</time>
      </trkpt>
      <trkpt lat="49.79624" lon="2.44072">
        <ele>83.8</ele>
        <time>2023-08-23T08:41:13Z</time>
      </trkpt>
      <trkpt lat="49.79625" lon="2.44073">
        <ele>83.8</ele>
        <time>2023-08-23T08:41:15Z</time>
      </trkpt>
      <trkpt lat="49.79626" lon="2.44074">
        <ele>83.9</ele>
        <time>2023-08-23T08:41:16Z</time>
      </trkpt>
      <trkpt lat="49.79626" lon="2.44076">
        <ele>83.9</ele>
        <time>2023-08-23T08:41:17Z</time>
      </trkpt>
      <trkpt lat="49.79627" lon="2.44077">
        <ele>83.9</ele>
        <time>2023-08-23T08:41:18Z</time>
      </trkpt>
      <trkpt lat="49.79628" lon="2.44079">
        <ele>84</ele>
        <time>2023-08-23T08:41:19Z</time>
      </trkpt>
      <trkpt lat="49.79628" lon="2.4408">
        <ele>84</ele>
        <time>2023-08-23T08:41:21Z</time>
      </trkpt>
      <trkpt lat="49.79628" lon="2.44081">
        <ele>84</ele>
        <time>2023-08-23T08:41:22Z</time>
      </trkpt>
      <trkpt lat="49.7963" lon="2.44083">
        <ele>84.1</ele>
        <time>2023-08-23T08:41:23Z</time>
      </trkpt>
      <trkpt lat="49.7963" lon="2.44084">
        <ele>84.1</ele>
        <time>2023-08-23T08:41:24Z</time>
      </trkpt>
      <trkpt lat="49.79631" lon="2.44085">
        <ele>84.1</ele>
        <time>2023-08-23T08:41:25Z</time>
      </trkpt>
      <trkpt lat="49.79633" lon="2.44087">
        <ele>84.2</ele>
        <time>2023-08-23T08:41:27Z</time>
      </trkpt>
      <trkpt lat="49.79633" lon="2.44088">
        <ele>84.2</ele>
        <time>2023-08-23T08:41:28Z</time>
      </trkpt>
      <trkpt lat="49.79634" lon="2.44089">
        <ele>84.2</ele>
        <time>2023-08-23T08:41:29Z</time>
      </trkpt>
      <trkpt lat="49.79635" lon="2.4409">
        <ele>84.3</ele>
        <time>2023-08-23T08:41:30Z</time>
      </trkpt>
      <trkpt lat="49.79636" lon="2.44091">
        <ele>84.3</ele>
        <time>2023-08-23T08:41:31Z</time>
      </trkpt>
      <trkpt lat="49.79638" lon="2.44093">
        <ele>84.3</ele>
        <time>2023-08-23T08:41:32Z</time>
      </trkpt>
      <trkpt lat="49.79639" lon="2.44093">
        <ele>84.3</ele>
        <time>2023-08-23T08:41:34Z</time>
      </trkpt>
      <trkpt lat="49.7964" lon="2.44094">
        <ele>84.4</ele>
        <time>2023-08-23T08:41:35Z</time>
      </trkpt>
      <trkpt lat="49.79641" lon="2.44095">
        <ele>84.4</ele>
        <time>2023-08-23T08:41:36Z</time>
      </trkpt>
      <trkpt lat="49.79642" lon="2.44096">
        <ele>84.4</ele>
        <time>2023-08-23T08:41:37Z</time>
      </trkpt>
      <trkpt lat="49.79643" lon="2.44097">
        <ele>84.4</ele>
        <time>2023-08-23T08:41:38Z</time>
      </trkpt>
      <trkpt lat="49.79644" lon="2.44099">
        <ele>84.4</ele>
        <time>2023-08-23T08:41:39Z</time>
      </trkpt>
      <trkpt lat="49.79645" lon="2.441">
        <ele>84.4</ele>
        <time>2023-08-23T08:41:41Z</time>
      </trkpt>
      <trkpt lat="49.79646" lon="2.44102">
        <ele>84.4</ele>
        <time>2023-08-23T08:41:42Z</time>
      </trkpt>
      <trkpt lat="49.79648" lon="2.44104">
        <ele>84.4</ele>
        <time>2023-08-23T08:41:43Z</time>
      </trkpt>
      <trkpt lat="49.79649" lon="2.44105">
        <ele>84.4</ele>
        <time>2023-08-23T08:41:44Z</time>
      </trkpt>
      <trkpt lat="49.79649" lon="2.44105">
        <ele>84.4</ele>
        <time>2023-08-23T08:41:45Z</time>
      </trkpt>
      <trkpt lat="49.7965" lon="2.44107">
        <ele>84.5</ele>
        <time>2023-08-23T08:41:46Z</time>
      </trkpt>
      <trkpt lat="49.79652" lon="2.44108">
        <ele>84.5</ele>
        <time>2023-08-23T08:41:47Z</time>
      </trkpt>
      <trkpt lat="49.79653" lon="2.44109">
        <ele>84.5</ele>
        <time>2023-08-23T08:41:49Z</time>
      </trkpt>
      <trkpt lat="49.79654" lon="2.4411">
        <ele>84.5</ele>
        <time>2023-08-23T08:41:50Z</time>
      </trkpt>
      <trkpt lat="49.79655" lon="2.44112">
        <ele>84.5</ele>
        <time>2023-08-23T08:41:51Z</time>
      </trkpt>
      <trkpt lat="49.79656" lon="2.44113">
        <ele>84.5</ele>
        <time>2023-08-23T08:41:52Z</time>
      </trkpt>
      <trkpt lat="49.79657" lon="2.44114">
        <ele>84.5</ele>
        <time>2023-08-23T08:41:53Z</time>
      </trkpt>
      <trkpt lat="49.79659" lon="2.44115">
        <ele>84.5</ele>
        <time>2023-08-23T08:41:54Z</time>
      </trkpt>
      <trkpt lat="49.7966" lon="2.44117">
        <ele>84.5</ele>
        <time>2023-08-23T08:41:55Z</time>
      </trkpt>
      <trkpt lat="49.79661" lon="2.44118">
        <ele>84.5</ele>
        <time>2023-08-23T08:41:57Z</time>
      </trkpt>
      <trkpt lat="49.79662" lon="2.4412">
        <ele>84.5</ele>
        <time>2023-08-23T08:41:58Z</time>
      </trkpt>
      <trkpt lat="49.79663" lon="2.44121">
        <ele>84.5</ele>
        <time>2023-08-23T08:41:59Z</time>
      </trkpt>
      <trkpt lat="49.79664" lon="2.44123">
        <ele>84.5</ele>
        <time>2023-08-23T08:42:00Z</time>
      </trkpt>
      <trkpt lat="49.79665" lon="2.44124">
        <ele>84.5</ele>
        <time>2023-08-23T08:42:01Z</time>
      </trkpt>
      <trkpt lat="49.79666" lon="2.44126">
        <ele>84.5</ele>
        <time>2023-08-23T08:42:03Z</time>
      </trkpt>
      <trkpt lat="49.79667" lon="2.44127">
        <ele>84.5</ele>
        <time>2023-08-23T08:42:04Z</time>
      </trkpt>
      <trkpt lat="49.79668" lon="2.44129">
        <ele>84.5</ele>
        <time>2023-08-23T08:42:05Z</time>
      </trkpt>
      <trkpt lat="49.79668" lon="2.4413">
        <ele>84.4</ele>
        <time>2023-08-23T08:42:06Z</time>
      </trkpt>
      <trkpt lat="49.7967" lon="2.44132">
        <ele>84.4</ele>
        <time>2023-08-23T08:42:08Z</time>
      </trkpt>
      <trkpt lat="49.7967" lon="2.44133">
        <ele>84.4</ele>
        <time>2023-08-23T08:42:09Z</time>
      </trkpt>
      <trkpt lat="49.79672" lon="2.44136">
        <ele>84.4</ele>
        <time>2023-08-23T08:42:10Z</time>
      </trkpt>
      <trkpt lat="49.79673" lon="2.44137">
        <ele>84.4</ele>
        <time>2023-08-23T08:42:11Z</time>
      </trkpt>
      <trkpt lat="49.79674" lon="2.44138">
        <ele>84.3</ele>
        <time>2023-08-23T08:42:12Z</time>
      </trkpt>
      <trkpt lat="49.79675" lon="2.44139">
        <ele>84.3</ele>
        <time>2023-08-23T08:42:13Z</time>
      </trkpt>
      <trkpt lat="49.79676" lon="2.4414">
        <ele>84.3</ele>
        <time>2023-08-23T08:42:15Z</time>
      </trkpt>
      <trkpt lat="49.79677" lon="2.44142">
        <ele>84.3</ele>
        <time>2023-08-23T08:42:16Z</time>
      </trkpt>
      <trkpt lat="49.79678" lon="2.44143">
        <ele>84.2</ele>
        <time>2023-08-23T08:42:17Z</time>
      </trkpt>
      <trkpt lat="49.79678" lon="2.44144">
        <ele>84.2</ele>
        <time>2023-08-23T08:42:18Z</time>
      </trkpt>
      <trkpt lat="49.79679" lon="2.44146">
        <ele>84.2</ele>
        <time>2023-08-23T08:42:19Z</time>
      </trkpt>
      <trkpt lat="49.7968" lon="2.44147">
        <ele>84.1</ele>
        <time>2023-08-23T08:42:20Z</time>
      </trkpt>
      <trkpt lat="49.79681" lon="2.44148">
        <ele>84.1</ele>
        <time>2023-08-23T08:42:22Z</time>
      </trkpt>
      <trkpt lat="49.79684" lon="2.44151">
        <ele>84</ele>
        <time>2023-08-23T08:42:24Z</time>
      </trkpt>
      <trkpt lat="49.79685" lon="2.44153">
        <ele>84</ele>
        <time>2023-08-23T08:42:26Z</time>
      </trkpt>
      <trkpt lat="49.79686" lon="2.44154">
        <ele>84</ele>
        <time>2023-08-23T08:42:27Z</time>
      </trkpt>
      <trkpt lat="49.79687" lon="2.44155">
        <ele>84</ele>
        <time>2023-08-23T08:42:28Z</time>
      </trkpt>
      <trkpt lat="49.79688" lon="2.44156">
        <ele>83.9</ele>
        <time>2023-08-23T08:42:29Z</time>
      </trkpt>
      <trkpt lat="49.79689" lon="2.44158">
        <ele>83.9</ele>
        <time>2023-08-23T08:42:30Z</time>
      </trkpt>
      <trkpt lat="49.7969" lon="2.4416">
        <ele>83.8</ele>
        <time>2023-08-23T08:42:31Z</time>
      </trkpt>
      <trkpt lat="49.79691" lon="2.44161">
        <ele>83.8</ele>
        <time>2023-08-23T08:42:32Z</time>
      </trkpt>
      <trkpt lat="49.79692" lon="2.44161">
        <ele>83.8</ele>
        <time>2023-08-23T08:42:33Z</time>
      </trkpt>
      <trkpt lat="49.79693" lon="2.44164">
        <ele>83.7</ele>
        <time>2023-08-23T08:42:34Z</time>
      </trkpt>
      <trkpt lat="49.79694" lon="2.44164">
        <ele>83.7</ele>
        <time>2023-08-23T08:42:36Z</time>
      </trkpt>
      <trkpt lat="49.79694" lon="2.44165">
        <ele>83.7</ele>
        <time>2023-08-23T08:42:37Z</time>
      </trkpt>
      <trkpt lat="49.79695" lon="2.44167">
        <ele>83.7</ele>
        <time>2023-08-23T08:42:38Z</time>
      </trkpt>
      <trkpt lat="49.79696" lon="2.44169">
        <ele>83.6</ele>
        <time>2023-08-23T08:42:39Z</time>
      </trkpt>
      <trkpt lat="49.79697" lon="2.44171">
        <ele>83.6</ele>
        <time>2023-08-23T08:42:40Z</time>
      </trkpt>
      <trkpt lat="49.79698" lon="2.44173">
        <ele>83.5</ele>
        <time>2023-08-23T08:42:42Z</time>
      </trkpt>
      <trkpt lat="49.79698" lon="2.44174">
        <ele>83.5</ele>
        <time>2023-08-23T08:42:43Z</time>
      </trkpt>
      <trkpt lat="49.797" lon="2.44175">
        <ele>83.4</ele>
        <time>2023-08-23T08:42:44Z</time>
      </trkpt>
      <trkpt lat="49.79701" lon="2.44177">
        <ele>83.4</ele>
        <time>2023-08-23T08:42:45Z</time>
      </trkpt>
      <trkpt lat="49.79702" lon="2.44179">
        <ele>83.3</ele>
        <time>2023-08-23T08:42:46Z</time>
      </trkpt>
      <trkpt lat="49.79703" lon="2.4418">
        <ele>83.3</ele>
        <time>2023-08-23T08:42:47Z</time>
      </trkpt>
      <trkpt lat="49.79703" lon="2.44181">
        <ele>83.3</ele>
        <time>2023-08-23T08:42:48Z</time>
      </trkpt>
      <trkpt lat="49.79705" lon="2.44183">
        <ele>83.2</ele>
        <time>2023-08-23T08:42:49Z</time>
      </trkpt>
      <trkpt lat="49.79705" lon="2.44184">
        <ele>83.1</ele>
        <time>2023-08-23T08:42:51Z</time>
      </trkpt>
      <trkpt lat="49.79706" lon="2.44185">
        <ele>83.1</ele>
        <time>2023-08-23T08:42:52Z</time>
      </trkpt>
      <trkpt lat="49.79707" lon="2.44187">
        <ele>83</ele>
        <time>2023-08-23T08:42:53Z</time>
      </trkpt>
      <trkpt lat="49.79708" lon="2.44188">
        <ele>83</ele>
        <time>2023-08-23T08:42:54Z</time>
      </trkpt>
      <trkpt lat="49.79708" lon="2.44189">
        <ele>83</ele>
        <time>2023-08-23T08:42:55Z</time>
      </trkpt>
      <trkpt lat="49.7971" lon="2.44191">
        <ele>82.9</ele>
        <time>2023-08-23T08:42:56Z</time>
      </trkpt>
      <trkpt lat="49.79711" lon="2.44192">
        <ele>82.8</ele>
        <time>2023-08-23T08:42:57Z</time>
      </trkpt>
      <trkpt lat="49.79711" lon="2.44193">
        <ele>82.8</ele>
        <time>2023-08-23T08:42:59Z</time>
      </trkpt>
      <trkpt lat="49.79712" lon="2.44194">
        <ele>82.8</ele>
        <time>2023-08-23T08:43:00Z</time>
      </trkpt>
      <trkpt lat="49.79713" lon="2.44195">
        <ele>82.7</ele>
        <time>2023-08-23T08:43:01Z</time>
      </trkpt>
      <trkpt lat="49.79713" lon="2.44196">
        <ele>82.7</ele>
        <time>2023-08-23T08:43:02Z</time>
      </trkpt>
      <trkpt lat="49.79714" lon="2.44197">
        <ele>82.6</ele>
        <time>2023-08-23T08:43:03Z</time>
      </trkpt>
      <trkpt lat="49.79715" lon="2.44199">
        <ele>82.6</ele>
        <time>2023-08-23T08:43:04Z</time>
      </trkpt>
      <trkpt lat="49.79716" lon="2.442">
        <ele>82.5</ele>
        <time>2023-08-23T08:43:05Z</time>
      </trkpt>
      <trkpt lat="49.79718" lon="2.44202">
        <ele>82.4</ele>
        <time>2023-08-23T08:43:06Z</time>
      </trkpt>
      <trkpt lat="49.79718" lon="2.44203">
        <ele>82.4</ele>
        <time>2023-08-23T08:43:08Z</time>
      </trkpt>
      <trkpt lat="49.79719" lon="2.44204">
        <ele>82.3</ele>
        <time>2023-08-23T08:43:09Z</time>
      </trkpt>
      <trkpt lat="49.79721" lon="2.44206">
        <ele>82.3</ele>
        <time>2023-08-23T08:43:10Z</time>
      </trkpt>
      <trkpt lat="49.79721" lon="2.44207">
        <ele>82.2</ele>
        <time>2023-08-23T08:43:11Z</time>
      </trkpt>
      <trkpt lat="49.79722" lon="2.44208">
        <ele>82.2</ele>
        <time>2023-08-23T08:43:12Z</time>
      </trkpt>
      <trkpt lat="49.79724" lon="2.4421">
        <ele>82.1</ele>
        <time>2023-08-23T08:43:13Z</time>
      </trkpt>
      <trkpt lat="49.79725" lon="2.44211">
        <ele>82</ele>
        <time>2023-08-23T08:43:14Z</time>
      </trkpt>
      <trkpt lat="49.79725" lon="2.44212">
        <ele>82</ele>
        <time>2023-08-23T08:43:15Z</time>
      </trkpt>
      <trkpt lat="49.79727" lon="2.44213">
        <ele>81.9</ele>
        <time>2023-08-23T08:43:17Z</time>
      </trkpt>
      <trkpt lat="49.79728" lon="2.44214">
        <ele>81.9</ele>
        <time>2023-08-23T08:43:18Z</time>
      </trkpt>
      <trkpt lat="49.79729" lon="2.44216">
        <ele>81.8</ele>
        <time>2023-08-23T08:43:19Z</time>
      </trkpt>
      <trkpt lat="49.7973" lon="2.44217">
        <ele>81.8</ele>
        <time>2023-08-23T08:43:20Z</time>
      </trkpt>
      <trkpt lat="49.79731" lon="2.44217">
        <ele>81.8</ele>
        <time>2023-08-23T08:43:21Z</time>
      </trkpt>
      <trkpt lat="49.79732" lon="2.44218">
        <ele>81.7</ele>
        <time>2023-08-23T08:43:22Z</time>
      </trkpt>
      <trkpt lat="49.79733" lon="2.44219">
        <ele>81.7</ele>
        <time>2023-08-23T08:43:23Z</time>
      </trkpt>
      <trkpt lat="49.79734" lon="2.44221">
        <ele>81.6</ele>
        <time>2023-08-23T08:43:25Z</time>
      </trkpt>
      <trkpt lat="49.79735" lon="2.44222">
        <ele>81.6</ele>
        <time>2023-08-23T08:43:26Z</time>
      </trkpt>
      <trkpt lat="49.79736" lon="2.44223">
        <ele>81.6</ele>
        <time>2023-08-23T08:43:27Z</time>
      </trkpt>
      <trkpt lat="49.79736" lon="2.44224">
        <ele>81.5</ele>
        <time>2023-08-23T08:43:28Z</time>
      </trkpt>
      <trkpt lat="49.79737" lon="2.44225">
        <ele>81.5</ele>
        <time>2023-08-23T08:43:29Z</time>
      </trkpt>
      <trkpt lat="49.79738" lon="2.44226">
        <ele>81.5</ele>
        <time>2023-08-23T08:43:31Z</time>
      </trkpt>
      <trkpt lat="49.79739" lon="2.44226">
        <ele>81.5</ele>
        <time>2023-08-23T08:43:32Z</time>
      </trkpt>
      <trkpt lat="49.7974" lon="2.44227">
        <ele>81.4</ele>
        <time>2023-08-23T08:43:33Z</time>
      </trkpt>
      <trkpt lat="49.79741" lon="2.44228">
        <ele>81.4</ele>
        <time>2023-08-23T08:43:34Z</time>
      </trkpt>
      <trkpt lat="49.79742" lon="2.44229">
        <ele>81.4</ele>
        <time>2023-08-23T08:43:35Z</time>
      </trkpt>
      <trkpt lat="49.79744" lon="2.4423">
        <ele>81.3</ele>
        <time>2023-08-23T08:43:36Z</time>
      </trkpt>
      <trkpt lat="49.79745" lon="2.44231">
        <ele>81.3</ele>
        <time>2023-08-23T08:43:37Z</time>
      </trkpt>
      <trkpt lat="49.79746" lon="2.44232">
        <ele>81.2</ele>
        <time>2023-08-23T08:43:39Z</time>
      </trkpt>
      <trkpt lat="49.79746" lon="2.44233">
        <ele>81.2</ele>
        <time>2023-08-23T08:43:40Z</time>
      </trkpt>
      <trkpt lat="49.79747" lon="2.44233">
        <ele>81.2</ele>
        <time>2023-08-23T08:43:41Z</time>
      </trkpt>
      <trkpt lat="49.79748" lon="2.44234">
        <ele>81.2</ele>
        <time>2023-08-23T08:43:42Z</time>
      </trkpt>
      <trkpt lat="49.7975" lon="2.44236">
        <ele>81.1</ele>
        <time>2023-08-23T08:43:43Z</time>
      </trkpt>
      <trkpt lat="49.79751" lon="2.44237">
        <ele>81</ele>
        <time>2023-08-23T08:43:44Z</time>
      </trkpt>
      <trkpt lat="49.79752" lon="2.44238">
        <ele>81</ele>
        <time>2023-08-23T08:43:46Z</time>
      </trkpt>
      <trkpt lat="49.79753" lon="2.44239">
        <ele>81</ele>
        <time>2023-08-23T08:43:47Z</time>
      </trkpt>
      <trkpt lat="49.79754" lon="2.4424">
        <ele>80.9</ele>
        <time>2023-08-23T08:43:48Z</time>
      </trkpt>
      <trkpt lat="49.79755" lon="2.4424">
        <ele>80.9</ele>
        <time>2023-08-23T08:43:49Z</time>
      </trkpt>
      <trkpt lat="49.79756" lon="2.44242">
        <ele>80.9</ele>
        <time>2023-08-23T08:43:50Z</time>
      </trkpt>
      <trkpt lat="49.79757" lon="2.44243">
        <ele>80.8</ele>
        <time>2023-08-23T08:43:51Z</time>
      </trkpt>
      <trkpt lat="49.79757" lon="2.44244">
        <ele>80.8</ele>
        <time>2023-08-23T08:43:53Z</time>
      </trkpt>
      <trkpt lat="49.79758" lon="2.44245">
        <ele>80.7</ele>
        <time>2023-08-23T08:43:54Z</time>
      </trkpt>
      <trkpt lat="49.79759" lon="2.44246">
        <ele>80.7</ele>
        <time>2023-08-23T08:43:55Z</time>
      </trkpt>
      <trkpt lat="49.7976" lon="2.44247">
        <ele>80.7</ele>
        <time>2023-08-23T08:43:56Z</time>
      </trkpt>
      <trkpt lat="49.79762" lon="2.44249">
        <ele>80.6</ele>
        <time>2023-08-23T08:43:57Z</time>
      </trkpt>
      <trkpt lat="49.79763" lon="2.4425">
        <ele>80.5</ele>
        <time>2023-08-23T08:43:58Z</time>
      </trkpt>
      <trkpt lat="49.79764" lon="2.44251">
        <ele>80.5</ele>
        <time>2023-08-23T08:44:00Z</time>
      </trkpt>
      <trkpt lat="49.79765" lon="2.44251">
        <ele>80.5</ele>
        <time>2023-08-23T08:44:01Z</time>
      </trkpt>
      <trkpt lat="49.79766" lon="2.44252">
        <ele>80.4</ele>
        <time>2023-08-23T08:44:02Z</time>
      </trkpt>
      <trkpt lat="49.79767" lon="2.44253">
        <ele>80.4</ele>
        <time>2023-08-23T08:44:03Z</time>
      </trkpt>
      <trkpt lat="49.79768" lon="2.44255">
        <ele>80.3</ele>
        <time>2023-08-23T08:44:04Z</time>
      </trkpt>
      <trkpt lat="49.79769" lon="2.44256">
        <ele>80.3</ele>
        <time>2023-08-23T08:44:05Z</time>
      </trkpt>
      <trkpt lat="49.7977" lon="2.44257">
        <ele>80.2</ele>
        <time>2023-08-23T08:44:07Z</time>
      </trkpt>
      <trkpt lat="49.79771" lon="2.44259">
        <ele>80.2</ele>
        <time>2023-08-23T08:44:08Z</time>
      </trkpt>
      <trkpt lat="49.79773" lon="2.4426">
        <ele>80.1</ele>
        <time>2023-08-23T08:44:09Z</time>
      </trkpt>
      <trkpt lat="49.79774" lon="2.44261">
        <ele>80.1</ele>
        <time>2023-08-23T08:44:10Z</time>
      </trkpt>
      <trkpt lat="49.79775" lon="2.44263">
        <ele>80</ele>
        <time>2023-08-23T08:44:11Z</time>
      </trkpt>
      <trkpt lat="49.79776" lon="2.44264">
        <ele>79.9</ele>
        <time>2023-08-23T08:44:12Z</time>
      </trkpt>
      <trkpt lat="49.79777" lon="2.44265">
        <ele>79.9</ele>
        <time>2023-08-23T08:44:14Z</time>
      </trkpt>
      <trkpt lat="49.79778" lon="2.44265">
        <ele>79.8</ele>
        <time>2023-08-23T08:44:15Z</time>
      </trkpt>
      <trkpt lat="49.79779" lon="2.44266">
        <ele>79.8</ele>
        <time>2023-08-23T08:44:16Z</time>
      </trkpt>
      <trkpt lat="49.79781" lon="2.44267">
        <ele>79.7</ele>
        <time>2023-08-23T08:44:17Z</time>
      </trkpt>
      <trkpt lat="49.79782" lon="2.44268">
        <ele>79.7</ele>
        <time>2023-08-23T08:44:18Z</time>
      </trkpt>
      <trkpt lat="49.79783" lon="2.44269">
        <ele>79.6</ele>
        <time>2023-08-23T08:44:19Z</time>
      </trkpt>
      <trkpt lat="49.79784" lon="2.4427">
        <ele>79.5</ele>
        <time>2023-08-23T08:44:21Z</time>
      </trkpt>
      <trkpt lat="49.79785" lon="2.44271">
        <ele>79.5</ele>
        <time>2023-08-23T08:44:22Z</time>
      </trkpt>
      <trkpt lat="49.79786" lon="2.44272">
        <ele>79.5</ele>
        <time>2023-08-23T08:44:23Z</time>
      </trkpt>
      <trkpt lat="49.79787" lon="2.44273">
        <ele>79.4</ele>
        <time>2023-08-23T08:44:24Z</time>
      </trkpt>
      <trkpt lat="49.79788" lon="2.44274">
        <ele>79.4</ele>
        <time>2023-08-23T08:44:25Z</time>
      </trkpt>
      <trkpt lat="49.7979" lon="2.44276">
        <ele>79.3</ele>
        <time>2023-08-23T08:44:26Z</time>
      </trkpt>
      <trkpt lat="49.79791" lon="2.44277">
        <ele>79.2</ele>
        <time>2023-08-23T08:44:28Z</time>
      </trkpt>
      <trkpt lat="49.79792" lon="2.44278">
        <ele>79.2</ele>
        <time>2023-08-23T08:44:29Z</time>
      </trkpt>
      <trkpt lat="49.79793" lon="2.44279">
        <ele>79.1</ele>
        <time>2023-08-23T08:44:30Z</time>
      </trkpt>
      <trkpt lat="49.79794" lon="2.44279">
        <ele>79.1</ele>
        <time>2023-08-23T08:44:31Z</time>
      </trkpt>
      <trkpt lat="49.79795" lon="2.4428">
        <ele>79</ele>
        <time>2023-08-23T08:44:33Z</time>
      </trkpt>
      <trkpt lat="49.79796" lon="2.44281">
        <ele>79</ele>
        <time>2023-08-23T08:44:34Z</time>
      </trkpt>
      <trkpt lat="49.79797" lon="2.44282">
        <ele>79</ele>
        <time>2023-08-23T08:44:35Z</time>
      </trkpt>
      <trkpt lat="49.79798" lon="2.44283">
        <ele>78.9</ele>
        <time>2023-08-23T08:44:36Z</time>
      </trkpt>
      <trkpt lat="49.79798" lon="2.44284">
        <ele>78.9</ele>
        <time>2023-08-23T08:44:37Z</time>
      </trkpt>
      <trkpt lat="49.798" lon="2.44284">
        <ele>78.8</ele>
        <time>2023-08-23T08:44:39Z</time>
      </trkpt>
      <trkpt lat="49.798" lon="2.44285">
        <ele>78.8</ele>
        <time>2023-08-23T08:44:40Z</time>
      </trkpt>
      <trkpt lat="49.79801" lon="2.44286">
        <ele>78.8</ele>
        <time>2023-08-23T08:44:41Z</time>
      </trkpt>
      <trkpt lat="49.79802" lon="2.44287">
        <ele>78.7</ele>
        <time>2023-08-23T08:44:42Z</time>
      </trkpt>
      <trkpt lat="49.79802" lon="2.44288">
        <ele>78.7</ele>
        <time>2023-08-23T08:44:44Z</time>
      </trkpt>
      <trkpt lat="49.79803" lon="2.44288">
        <ele>78.7</ele>
        <time>2023-08-23T08:44:45Z</time>
      </trkpt>
      <trkpt lat="49.79803" lon="2.44289">
        <ele>78.6</ele>
        <time>2023-08-23T08:44:46Z</time>
      </trkpt>
      <trkpt lat="49.79805" lon="2.4429">
        <ele>78.6</ele>
        <time>2023-08-23T08:44:48Z</time>
      </trkpt>
      <trkpt lat="49.79805" lon="2.4429">
        <ele>78.5</ele>
        <time>2023-08-23T08:44:49Z</time>
      </trkpt>
      <trkpt lat="49.79806" lon="2.44291">
        <ele>78.5</ele>
        <time>2023-08-23T08:44:50Z</time>
      </trkpt>
      <trkpt lat="49.79806" lon="2.44291">
        <ele>78.5</ele>
        <time>2023-08-23T08:44:52Z</time>
      </trkpt>
      <trkpt lat="49.79806" lon="2.44291">
        <ele>78.5</ele>
        <time>2023-08-23T08:44:53Z</time>
      </trkpt>
      <trkpt lat="49.79806" lon="2.44291">
        <ele>78.5</ele>
        <time>2023-08-23T08:44:55Z</time>
      </trkpt>
      <trkpt lat="49.79806" lon="2.44291">
        <ele>78.5</ele>
        <time>2023-08-23T08:44:56Z</time>
      </trkpt>
      <trkpt lat="49.79807" lon="2.44291">
        <ele>78.5</ele>
        <time>2023-08-23T08:44:57Z</time>
      </trkpt>
      <trkpt lat="49.79807" lon="2.44291">
        <ele>78.5</ele>
        <time>2023-08-23T08:44:59Z</time>
      </trkpt>
      <trkpt lat="49.79807" lon="2.44291">
        <ele>78.5</ele>
        <time>2023-08-23T08:45:00Z</time>
      </trkpt>
      <trkpt lat="49.79807" lon="2.44292">
        <ele>78.5</ele>
        <time>2023-08-23T08:45:01Z</time>
      </trkpt>
      <trkpt lat="49.79807" lon="2.44292">
        <ele>78.5</ele>
        <time>2023-08-23T08:45:02Z</time>
      </trkpt>
      <trkpt lat="49.79807" lon="2.44292">
        <ele>78.5</ele>
        <time>2023-08-23T08:45:04Z</time>
      </trkpt>
      <trkpt lat="49.79807" lon="2.44292">
        <ele>78.5</ele>
        <time>2023-08-23T08:45:05Z</time>
      </trkpt>
      <trkpt lat="49.79807" lon="2.44292">
        <ele>78.4</ele>
        <time>2023-08-23T08:45:06Z</time>
      </trkpt>
      <trkpt lat="49.79808" lon="2.44292">
        <ele>78.4</ele>
        <time>2023-08-23T08:45:07Z</time>
      </trkpt>
      <trkpt lat="49.79808" lon="2.44292">
        <ele>78.4</ele>
        <time>2023-08-23T08:45:08Z</time>
      </trkpt>
      <trkpt lat="49.79808" lon="2.44292">
        <ele>78.4</ele>
        <time>2023-08-23T08:45:09Z</time>
      </trkpt>
      <trkpt lat="49.79808" lon="2.44292">
        <ele>78.4</ele>
        <time>2023-08-23T08:45:10Z</time>
      </trkpt>
      <trkpt lat="49.79808" lon="2.44293">
        <ele>78.4</ele>
        <time>2023-08-23T08:45:11Z</time>
      </trkpt>
      <trkpt lat="49.79808" lon="2.44293">
        <ele>78.4</ele>
        <time>2023-08-23T08:45:12Z</time>
      </trkpt>
      <trkpt lat="49.79808" lon="2.44293">
        <ele>78.4</ele>
        <time>2023-08-23T08:45:14Z</time>
      </trkpt>
      <trkpt lat="49.79808" lon="2.44293">
        <ele>78.4</ele>
        <time>2023-08-23T08:45:15Z</time>
      </trkpt>
      <trkpt lat="49.79809" lon="2.44293">
        <ele>78.4</ele>
        <time>2023-08-23T08:45:16Z</time>
      </trkpt>
      <trkpt lat="49.7981" lon="2.44294">
        <ele>78.3</ele>
        <time>2023-08-23T08:45:17Z</time>
      </trkpt>
      <trkpt lat="49.79811" lon="2.44295">
        <ele>78.3</ele>
        <time>2023-08-23T08:45:18Z</time>
      </trkpt>
      <trkpt lat="49.79813" lon="2.44297">
        <ele>78.2</ele>
        <time>2023-08-23T08:45:19Z</time>
      </trkpt>
      <trkpt lat="49.79814" lon="2.44297">
        <ele>78.1</ele>
        <time>2023-08-23T08:45:21Z</time>
      </trkpt>
      <trkpt lat="49.79814" lon="2.44298">
        <ele>78.1</ele>
        <time>2023-08-23T08:45:22Z</time>
      </trkpt>
      <trkpt lat="49.79816" lon="2.44299">
        <ele>78</ele>
        <time>2023-08-23T08:45:23Z</time>
      </trkpt>
      <trkpt lat="49.79817" lon="2.443">
        <ele>77.9</ele>
        <time>2023-08-23T08:45:24Z</time>
      </trkpt>
      <trkpt lat="49.79818" lon="2.44301">
        <ele>77.8</ele>
        <time>2023-08-23T08:45:25Z</time>
      </trkpt>
      <trkpt lat="49.79819" lon="2.44302">
        <ele>77.8</ele>
        <time>2023-08-23T08:45:26Z</time>
      </trkpt>
      <trkpt lat="49.7982" lon="2.44303">
        <ele>77.7</ele>
        <time>2023-08-23T08:45:28Z</time>
      </trkpt>
      <trkpt lat="49.79822" lon="2.44304">
        <ele>77.6</ele>
        <time>2023-08-23T08:45:29Z</time>
      </trkpt>
      <trkpt lat="49.79823" lon="2.44304">
        <ele>77.5</ele>
        <time>2023-08-23T08:45:30Z</time>
      </trkpt>
      <trkpt lat="49.79824" lon="2.44305">
        <ele>77.5</ele>
        <time>2023-08-23T08:45:31Z</time>
      </trkpt>
      <trkpt lat="49.79825" lon="2.44305">
        <ele>77.4</ele>
        <time>2023-08-23T08:45:32Z</time>
      </trkpt>
      <trkpt lat="49.79826" lon="2.44306">
        <ele>77.3</ele>
        <time>2023-08-23T08:45:33Z</time>
      </trkpt>
      <trkpt lat="49.79827" lon="2.44307">
        <ele>77.2</ele>
        <time>2023-08-23T08:45:35Z</time>
      </trkpt>
      <trkpt lat="49.79828" lon="2.44308">
        <ele>77.1</ele>
        <time>2023-08-23T08:45:36Z</time>
      </trkpt>
      <trkpt lat="49.79829" lon="2.44308">
        <ele>77</ele>
        <time>2023-08-23T08:45:37Z</time>
      </trkpt>
      <trkpt lat="49.7983" lon="2.44309">
        <ele>77</ele>
        <time>2023-08-23T08:45:38Z</time>
      </trkpt>
      <trkpt lat="49.79832" lon="2.4431">
        <ele>76.8</ele>
        <time>2023-08-23T08:45:39Z</time>
      </trkpt>
      <trkpt lat="49.79833" lon="2.44311">
        <ele>76.7</ele>
        <time>2023-08-23T08:45:41Z</time>
      </trkpt>
      <trkpt lat="49.79834" lon="2.44311">
        <ele>76.7</ele>
        <time>2023-08-23T08:45:42Z</time>
      </trkpt>
      <trkpt lat="49.79835" lon="2.44312">
        <ele>76.6</ele>
        <time>2023-08-23T08:45:43Z</time>
      </trkpt>
      <trkpt lat="49.79836" lon="2.44314">
        <ele>76.5</ele>
        <time>2023-08-23T08:45:44Z</time>
      </trkpt>
      <trkpt lat="49.79839" lon="2.44316">
        <ele>76.3</ele>
        <time>2023-08-23T08:45:45Z</time>
      </trkpt>
      <trkpt lat="49.7984" lon="2.44316">
        <ele>76.3</ele>
        <time>2023-08-23T08:45:46Z</time>
      </trkpt>
      <trkpt lat="49.79842" lon="2.44318">
        <ele>76.1</ele>
        <time>2023-08-23T08:45:48Z</time>
      </trkpt>
      <trkpt lat="49.79842" lon="2.44318">
        <ele>76.1</ele>
        <time>2023-08-23T08:45:49Z</time>
      </trkpt>
      <trkpt lat="49.79843" lon="2.44319">
        <ele>76.1</ele>
        <time>2023-08-23T08:45:50Z</time>
      </trkpt>
      <trkpt lat="49.79844" lon="2.4432">
        <ele>76</ele>
        <time>2023-08-23T08:45:51Z</time>
      </trkpt>
      <trkpt lat="49.79845" lon="2.4432">
        <ele>76</ele>
        <time>2023-08-23T08:45:53Z</time>
      </trkpt>
      <trkpt lat="49.79846" lon="2.4432">
        <ele>75.9</ele>
        <time>2023-08-23T08:45:54Z</time>
      </trkpt>
      <trkpt lat="49.79846" lon="2.4432">
        <ele>75.9</ele>
        <time>2023-08-23T08:45:56Z</time>
      </trkpt>
      <trkpt lat="49.79847" lon="2.4432">
        <ele>75.8</ele>
        <time>2023-08-23T08:45:57Z</time>
      </trkpt>
      <trkpt lat="49.79847" lon="2.4432">
        <ele>75.8</ele>
        <time>2023-08-23T08:45:59Z</time>
      </trkpt>
      <trkpt lat="49.79847" lon="2.44319">
        <ele>75.8</ele>
        <time>2023-08-23T08:46:00Z</time>
      </trkpt>
      <trkpt lat="49.79847" lon="2.44319">
        <ele>75.8</ele>
        <time>2023-08-23T08:46:01Z</time>
      </trkpt>
      <trkpt lat="49.79847" lon="2.44319">
        <ele>75.8</ele>
        <time>2023-08-23T08:46:03Z</time>
      </trkpt>
      <trkpt lat="49.79847" lon="2.44319">
        <ele>75.8</ele>
        <time>2023-08-23T08:46:04Z</time>
      </trkpt>
      <trkpt lat="49.79847" lon="2.44319">
        <ele>75.8</ele>
        <time>2023-08-23T08:46:06Z</time>
      </trkpt>
      <trkpt lat="49.79847" lon="2.44319">
        <ele>75.8</ele>
        <time>2023-08-23T08:46:07Z</time>
      </trkpt>
      <trkpt lat="49.79847" lon="2.44319">
        <ele>75.8</ele>
        <time>2023-08-23T08:46:09Z</time>
      </trkpt>
      <trkpt lat="49.79847" lon="2.44319">
        <ele>75.8</ele>
        <time>2023-08-23T08:46:10Z</time>
      </trkpt>
      <trkpt lat="49.79847" lon="2.44319">
        <ele>75.8</ele>
        <time>2023-08-23T08:46:11Z</time>
      </trkpt>
      <trkpt lat="49.79847" lon="2.44319">
        <ele>75.8</ele>
        <time>2023-08-23T08:46:13Z</time>
      </trkpt>
      <trkpt lat="49.79847" lon="2.44319">
        <ele>75.8</ele>
        <time>2023-08-23T08:46:14Z</time>
      </trkpt>
      <trkpt lat="49.79847" lon="2.44318">
        <ele>75.7</ele>
        <time>2023-08-23T08:46:15Z</time>
      </trkpt>
      <trkpt lat="49.79846" lon="2.44317">
        <ele>75.7</ele>
        <time>2023-08-23T08:46:16Z</time>
      </trkpt>
      <trkpt lat="49.79846" lon="2.44317">
        <ele>75.7</ele>
        <time>2023-08-23T08:46:17Z</time>
      </trkpt>
      <trkpt lat="49.79846" lon="2.44317">
        <ele>75.7</ele>
        <time>2023-08-23T08:46:18Z</time>
      </trkpt>
      <trkpt lat="49.79847" lon="2.44318">
        <ele>75.6</ele>
        <time>2023-08-23T08:46:19Z</time>
      </trkpt>
      <trkpt lat="49.79848" lon="2.44318">
        <ele>75.6</ele>
        <time>2023-08-23T08:46:21Z</time>
      </trkpt>
      <trkpt lat="49.79848" lon="2.44318">
        <ele>75.6</ele>
        <time>2023-08-23T08:46:22Z</time>
      </trkpt>
      <trkpt lat="49.79848" lon="2.44317">
        <ele>75.6</ele>
        <time>2023-08-23T08:46:23Z</time>
      </trkpt>
      <trkpt lat="49.79848" lon="2.44317">
        <ele>75.6</ele>
        <time>2023-08-23T08:46:24Z</time>
      </trkpt>
      <trkpt lat="49.79848" lon="2.44317">
        <ele>75.6</ele>
        <time>2023-08-23T08:46:25Z</time>
      </trkpt>
      <trkpt lat="49.79849" lon="2.44318">
        <ele>75.5</ele>
        <time>2023-08-23T08:46:27Z</time>
      </trkpt>
      <trkpt lat="49.79849" lon="2.44318">
        <ele>75.5</ele>
        <time>2023-08-23T08:46:28Z</time>
      </trkpt>
      <trkpt lat="49.79849" lon="2.44318">
        <ele>75.5</ele>
        <time>2023-08-23T08:46:29Z</time>
      </trkpt>
      <trkpt lat="49.7985" lon="2.44318">
        <ele>75.5</ele>
        <time>2023-08-23T08:46:30Z</time>
      </trkpt>
      <trkpt lat="49.79851" lon="2.44318">
        <ele>75.4</ele>
        <time>2023-08-23T08:46:32Z</time>
      </trkpt>
      <trkpt lat="49.79852" lon="2.44319">
        <ele>75.4</ele>
        <time>2023-08-23T08:46:33Z</time>
      </trkpt>
      <trkpt lat="49.79853" lon="2.44319">
        <ele>75.3</ele>
        <time>2023-08-23T08:46:34Z</time>
      </trkpt>
      <trkpt lat="49.79853" lon="2.4432">
        <ele>75.3</ele>
        <time>2023-08-23T08:46:35Z</time>
      </trkpt>
      <trkpt lat="49.79854" lon="2.44321">
        <ele>75.3</ele>
        <time>2023-08-23T08:46:36Z</time>
      </trkpt>
      <trkpt lat="49.79855" lon="2.44321">
        <ele>75.2</ele>
        <time>2023-08-23T08:46:37Z</time>
      </trkpt>
      <trkpt lat="49.79855" lon="2.44322">
        <ele>75.2</ele>
        <time>2023-08-23T08:46:39Z</time>
      </trkpt>
      <trkpt lat="49.79856" lon="2.44323">
        <ele>75.1</ele>
        <time>2023-08-23T08:46:40Z</time>
      </trkpt>
      <trkpt lat="49.79857" lon="2.44324">
        <ele>75.1</ele>
        <time>2023-08-23T08:46:41Z</time>
      </trkpt>
      <trkpt lat="49.79858" lon="2.44325">
        <ele>75.1</ele>
        <time>2023-08-23T08:46:42Z</time>
      </trkpt>
      <trkpt lat="49.79859" lon="2.44326">
        <ele>75</ele>
        <time>2023-08-23T08:46:43Z</time>
      </trkpt>
      <trkpt lat="49.79861" lon="2.44327">
        <ele>74.9</ele>
        <time>2023-08-23T08:46:45Z</time>
      </trkpt>
      <trkpt lat="49.79861" lon="2.44327">
        <ele>74.9</ele>
        <time>2023-08-23T08:46:46Z</time>
      </trkpt>
      <trkpt lat="49.79862" lon="2.44328">
        <ele>74.8</ele>
        <time>2023-08-23T08:46:47Z</time>
      </trkpt>
      <trkpt lat="49.79864" lon="2.44329">
        <ele>74.8</ele>
        <time>2023-08-23T08:46:48Z</time>
      </trkpt>
      <trkpt lat="49.79865" lon="2.4433">
        <ele>74.7</ele>
        <time>2023-08-23T08:46:49Z</time>
      </trkpt>
      <trkpt lat="49.79866" lon="2.4433">
        <ele>74.7</ele>
        <time>2023-08-23T08:46:50Z</time>
      </trkpt>
      <trkpt lat="49.79867" lon="2.44331">
        <ele>74.6</ele>
        <time>2023-08-23T08:46:52Z</time>
      </trkpt>
      <trkpt lat="49.7987" lon="2.44333">
        <ele>74.5</ele>
        <time>2023-08-23T08:46:54Z</time>
      </trkpt>
      <trkpt lat="49.79872" lon="2.44335">
        <ele>74.4</ele>
        <time>2023-08-23T08:46:56Z</time>
      </trkpt>
      <trkpt lat="49.79873" lon="2.44335">
        <ele>74.4</ele>
        <time>2023-08-23T08:46:57Z</time>
      </trkpt>
      <trkpt lat="49.79874" lon="2.44337">
        <ele>74.3</ele>
        <time>2023-08-23T08:46:58Z</time>
      </trkpt>
      <trkpt lat="49.79875" lon="2.44337">
        <ele>74.3</ele>
        <time>2023-08-23T08:46:59Z</time>
      </trkpt>
      <trkpt lat="49.79876" lon="2.44338">
        <ele>74.3</ele>
        <time>2023-08-23T08:47:00Z</time>
      </trkpt>
      <trkpt lat="49.79877" lon="2.44339">
        <ele>74.2</ele>
        <time>2023-08-23T08:47:02Z</time>
      </trkpt>
      <trkpt lat="49.79878" lon="2.4434">
        <ele>74.2</ele>
        <time>2023-08-23T08:47:03Z</time>
      </trkpt>
      <trkpt lat="49.79879" lon="2.4434">
        <ele>74.2</ele>
        <time>2023-08-23T08:47:04Z</time>
      </trkpt>
      <trkpt lat="49.79881" lon="2.44342">
        <ele>74.1</ele>
        <time>2023-08-23T08:47:05Z</time>
      </trkpt>
      <trkpt lat="49.79882" lon="2.44342">
        <ele>74.1</ele>
        <time>2023-08-23T08:47:06Z</time>
      </trkpt>
      <trkpt lat="49.79882" lon="2.44343">
        <ele>74</ele>
        <time>2023-08-23T08:47:07Z</time>
      </trkpt>
      <trkpt lat="49.79883" lon="2.44343">
        <ele>74</ele>
        <time>2023-08-23T08:47:08Z</time>
      </trkpt>
      <trkpt lat="49.79884" lon="2.44344">
        <ele>74</ele>
        <time>2023-08-23T08:47:10Z</time>
      </trkpt>
      <trkpt lat="49.79888" lon="2.44346">
        <ele>73.9</ele>
        <time>2023-08-23T08:47:12Z</time>
      </trkpt>
      <trkpt lat="49.79889" lon="2.44347">
        <ele>73.8</ele>
        <time>2023-08-23T08:47:14Z</time>
      </trkpt>
      <trkpt lat="49.7989" lon="2.44347">
        <ele>73.8</ele>
        <time>2023-08-23T08:47:15Z</time>
      </trkpt>
      <trkpt lat="49.79891" lon="2.44348">
        <ele>73.7</ele>
        <time>2023-08-23T08:47:16Z</time>
      </trkpt>
      <trkpt lat="49.79893" lon="2.44349">
        <ele>73.7</ele>
        <time>2023-08-23T08:47:17Z</time>
      </trkpt>
      <trkpt lat="49.79894" lon="2.4435">
        <ele>73.6</ele>
        <time>2023-08-23T08:47:18Z</time>
      </trkpt>
      <trkpt lat="49.79895" lon="2.4435">
        <ele>73.6</ele>
        <time>2023-08-23T08:47:19Z</time>
      </trkpt>
      <trkpt lat="49.79896" lon="2.44351">
        <ele>73.5</ele>
        <time>2023-08-23T08:47:21Z</time>
      </trkpt>
      <trkpt lat="49.79897" lon="2.44352">
        <ele>73.5</ele>
        <time>2023-08-23T08:47:22Z</time>
      </trkpt>
      <trkpt lat="49.79899" lon="2.44354">
        <ele>73.4</ele>
        <time>2023-08-23T08:47:23Z</time>
      </trkpt>
      <trkpt lat="49.799" lon="2.44355">
        <ele>73.4</ele>
        <time>2023-08-23T08:47:24Z</time>
      </trkpt>
      <trkpt lat="49.79901" lon="2.44355">
        <ele>73.3</ele>
        <time>2023-08-23T08:47:25Z</time>
      </trkpt>
      <trkpt lat="49.79903" lon="2.44356">
        <ele>73.3</ele>
        <time>2023-08-23T08:47:26Z</time>
      </trkpt>
      <trkpt lat="49.79904" lon="2.44357">
        <ele>73.2</ele>
        <time>2023-08-23T08:47:27Z</time>
      </trkpt>
      <trkpt lat="49.79905" lon="2.44358">
        <ele>73.2</ele>
        <time>2023-08-23T08:47:29Z</time>
      </trkpt>
      <trkpt lat="49.79906" lon="2.44359">
        <ele>73.1</ele>
        <time>2023-08-23T08:47:30Z</time>
      </trkpt>
      <trkpt lat="49.79907" lon="2.44359">
        <ele>73</ele>
        <time>2023-08-23T08:47:31Z</time>
      </trkpt>
      <trkpt lat="49.79909" lon="2.44361">
        <ele>72.9</ele>
        <time>2023-08-23T08:47:33Z</time>
      </trkpt>
      <trkpt lat="49.7991" lon="2.44362">
        <ele>72.9</ele>
        <time>2023-08-23T08:47:34Z</time>
      </trkpt>
      <trkpt lat="49.79912" lon="2.44363">
        <ele>72.8</ele>
        <time>2023-08-23T08:47:35Z</time>
      </trkpt>
      <trkpt lat="49.79914" lon="2.44364">
        <ele>72.7</ele>
        <time>2023-08-23T08:47:36Z</time>
      </trkpt>
      <trkpt lat="49.79915" lon="2.44365">
        <ele>72.7</ele>
        <time>2023-08-23T08:47:37Z</time>
      </trkpt>
      <trkpt lat="49.79915" lon="2.44365">
        <ele>72.7</ele>
        <time>2023-08-23T08:47:38Z</time>
      </trkpt>
      <trkpt lat="49.79917" lon="2.44366">
        <ele>72.6</ele>
        <time>2023-08-23T08:47:40Z</time>
      </trkpt>
      <trkpt lat="49.79918" lon="2.44367">
        <ele>72.5</ele>
        <time>2023-08-23T08:47:41Z</time>
      </trkpt>
      <trkpt lat="49.79919" lon="2.44368">
        <ele>72.5</ele>
        <time>2023-08-23T08:47:42Z</time>
      </trkpt>
      <trkpt lat="49.79921" lon="2.44369">
        <ele>72.4</ele>
        <time>2023-08-23T08:47:43Z</time>
      </trkpt>
      <trkpt lat="49.79922" lon="2.4437">
        <ele>72.4</ele>
        <time>2023-08-23T08:47:44Z</time>
      </trkpt>
      <trkpt lat="49.79923" lon="2.44371">
        <ele>72.4</ele>
        <time>2023-08-23T08:47:45Z</time>
      </trkpt>
      <trkpt lat="49.79924" lon="2.44372">
        <ele>72.3</ele>
        <time>2023-08-23T08:47:46Z</time>
      </trkpt>
      <trkpt lat="49.79926" lon="2.44373">
        <ele>72.2</ele>
        <time>2023-08-23T08:47:47Z</time>
      </trkpt>
      <trkpt lat="49.79927" lon="2.44374">
        <ele>72.2</ele>
        <time>2023-08-23T08:47:48Z</time>
      </trkpt>
      <trkpt lat="49.79928" lon="2.44374">
        <ele>72.2</ele>
        <time>2023-08-23T08:47:50Z</time>
      </trkpt>
      <trkpt lat="49.79929" lon="2.44375">
        <ele>72.1</ele>
        <time>2023-08-23T08:47:51Z</time>
      </trkpt>
      <trkpt lat="49.7993" lon="2.44375">
        <ele>72.1</ele>
        <time>2023-08-23T08:47:53Z</time>
      </trkpt>
      <trkpt lat="49.79931" lon="2.44376">
        <ele>72</ele>
        <time>2023-08-23T08:47:54Z</time>
      </trkpt>
      <trkpt lat="49.79932" lon="2.44377">
        <ele>72</ele>
        <time>2023-08-23T08:47:55Z</time>
      </trkpt>
      <trkpt lat="49.79933" lon="2.44377">
        <ele>71.9</ele>
        <time>2023-08-23T08:47:56Z</time>
      </trkpt>
      <trkpt lat="49.79935" lon="2.44378">
        <ele>71.9</ele>
        <time>2023-08-23T08:47:57Z</time>
      </trkpt>
      <trkpt lat="49.79936" lon="2.44379">
        <ele>71.8</ele>
        <time>2023-08-23T08:47:58Z</time>
      </trkpt>
      <trkpt lat="49.79937" lon="2.44379">
        <ele>71.8</ele>
        <time>2023-08-23T08:48:00Z</time>
      </trkpt>
      <trkpt lat="49.79938" lon="2.4438">
        <ele>71.8</ele>
        <time>2023-08-23T08:48:01Z</time>
      </trkpt>
      <trkpt lat="49.79939" lon="2.4438">
        <ele>71.7</ele>
        <time>2023-08-23T08:48:02Z</time>
      </trkpt>
      <trkpt lat="49.7994" lon="2.44381">
        <ele>71.7</ele>
        <time>2023-08-23T08:48:03Z</time>
      </trkpt>
      <trkpt lat="49.79941" lon="2.44381">
        <ele>71.6</ele>
        <time>2023-08-23T08:48:04Z</time>
      </trkpt>
      <trkpt lat="49.79942" lon="2.44382">
        <ele>71.6</ele>
        <time>2023-08-23T08:48:05Z</time>
      </trkpt>
      <trkpt lat="49.79943" lon="2.44383">
        <ele>71.5</ele>
        <time>2023-08-23T08:48:06Z</time>
      </trkpt>
      <trkpt lat="49.79944" lon="2.44384">
        <ele>71.5</ele>
        <time>2023-08-23T08:48:08Z</time>
      </trkpt>
      <trkpt lat="49.79945" lon="2.44384">
        <ele>71.4</ele>
        <time>2023-08-23T08:48:09Z</time>
      </trkpt>
      <trkpt lat="49.79947" lon="2.44385">
        <ele>71.3</ele>
        <time>2023-08-23T08:48:11Z</time>
      </trkpt>
      <trkpt lat="49.79947" lon="2.44385">
        <ele>71.3</ele>
        <time>2023-08-23T08:48:12Z</time>
      </trkpt>
      <trkpt lat="49.79946" lon="2.44387">
        <ele>71.2</ele>
        <time>2023-08-23T08:48:14Z</time>
      </trkpt>
      <trkpt lat="49.79946" lon="2.44388">
        <ele>71.2</ele>
        <time>2023-08-23T08:48:15Z</time>
      </trkpt>
      <trkpt lat="49.79946" lon="2.44388">
        <ele>71.2</ele>
        <time>2023-08-23T08:48:16Z</time>
      </trkpt>
      <trkpt lat="49.79946" lon="2.44389">
        <ele>71.1</ele>
        <time>2023-08-23T08:48:18Z</time>
      </trkpt>
      <trkpt lat="49.79947" lon="2.44389">
        <ele>71.1</ele>
        <time>2023-08-23T08:48:19Z</time>
      </trkpt>
      <trkpt lat="49.79947" lon="2.44389">
        <ele>71.1</ele>
        <time>2023-08-23T08:48:20Z</time>
      </trkpt>
      <trkpt lat="49.79948" lon="2.4439">
        <ele>71</ele>
        <time>2023-08-23T08:48:21Z</time>
      </trkpt>
      <trkpt lat="49.79949" lon="2.4439">
        <ele>70.9</ele>
        <time>2023-08-23T08:48:22Z</time>
      </trkpt>
      <trkpt lat="49.79951" lon="2.44391">
        <ele>70.8</ele>
        <time>2023-08-23T08:48:23Z</time>
      </trkpt>
      <trkpt lat="49.79952" lon="2.44391">
        <ele>70.8</ele>
        <time>2023-08-23T08:48:25Z</time>
      </trkpt>
      <trkpt lat="49.79953" lon="2.44391">
        <ele>70.7</ele>
        <time>2023-08-23T08:48:26Z</time>
      </trkpt>
      <trkpt lat="49.79955" lon="2.44392">
        <ele>70.6</ele>
        <time>2023-08-23T08:48:27Z</time>
      </trkpt>
      <trkpt lat="49.79956" lon="2.44392">
        <ele>70.5</ele>
        <time>2023-08-23T08:48:28Z</time>
      </trkpt>
      <trkpt lat="49.79957" lon="2.44392">
        <ele>70.5</ele>
        <time>2023-08-23T08:48:29Z</time>
      </trkpt>
      <trkpt lat="49.79959" lon="2.44393">
        <ele>70.3</ele>
        <time>2023-08-23T08:48:30Z</time>
      </trkpt>
      <trkpt lat="49.7996" lon="2.44393">
        <ele>70.3</ele>
        <time>2023-08-23T08:48:31Z</time>
      </trkpt>
      <trkpt lat="49.79961" lon="2.44393">
        <ele>70.2</ele>
        <time>2023-08-23T08:48:32Z</time>
      </trkpt>
      <trkpt lat="49.79963" lon="2.44394">
        <ele>70.1</ele>
        <time>2023-08-23T08:48:34Z</time>
      </trkpt>
      <trkpt lat="49.79964" lon="2.44395">
        <ele>70.1</ele>
        <time>2023-08-23T08:48:35Z</time>
      </trkpt>
      <trkpt lat="49.79964" lon="2.44395">
        <ele>70</ele>
        <time>2023-08-23T08:48:36Z</time>
      </trkpt>
      <trkpt lat="49.79966" lon="2.44396">
        <ele>69.9</ele>
        <time>2023-08-23T08:48:37Z</time>
      </trkpt>
      <trkpt lat="49.79967" lon="2.44396">
        <ele>69.9</ele>
        <time>2023-08-23T08:48:38Z</time>
      </trkpt>
      <trkpt lat="49.79968" lon="2.44397">
        <ele>69.8</ele>
        <time>2023-08-23T08:48:39Z</time>
      </trkpt>
      <trkpt lat="49.79969" lon="2.44397">
        <ele>69.7</ele>
        <time>2023-08-23T08:48:40Z</time>
      </trkpt>
      <trkpt lat="49.7997" lon="2.44398">
        <ele>69.7</ele>
        <time>2023-08-23T08:48:42Z</time>
      </trkpt>
      <trkpt lat="49.79971" lon="2.44399">
        <ele>69.6</ele>
        <time>2023-08-23T08:48:43Z</time>
      </trkpt>
      <trkpt lat="49.79973" lon="2.444">
        <ele>69.5</ele>
        <time>2023-08-23T08:48:44Z</time>
      </trkpt>
      <trkpt lat="49.79974" lon="2.444">
        <ele>69.4</ele>
        <time>2023-08-23T08:48:45Z</time>
      </trkpt>
      <trkpt lat="49.79974" lon="2.44401">
        <ele>69.4</ele>
        <time>2023-08-23T08:48:46Z</time>
      </trkpt>
      <trkpt lat="49.79976" lon="2.44402">
        <ele>69.3</ele>
        <time>2023-08-23T08:48:47Z</time>
      </trkpt>
      <trkpt lat="49.79977" lon="2.44402">
        <ele>69.2</ele>
        <time>2023-08-23T08:48:48Z</time>
      </trkpt>
      <trkpt lat="49.79978" lon="2.44402">
        <ele>69.2</ele>
        <time>2023-08-23T08:48:49Z</time>
      </trkpt>
      <trkpt lat="49.7998" lon="2.44403">
        <ele>69.1</ele>
        <time>2023-08-23T08:48:51Z</time>
      </trkpt>
      <trkpt lat="49.79981" lon="2.44403">
        <ele>69</ele>
        <time>2023-08-23T08:48:52Z</time>
      </trkpt>
      <trkpt lat="49.79983" lon="2.44403">
        <ele>68.9</ele>
        <time>2023-08-23T08:48:53Z</time>
      </trkpt>
      <trkpt lat="49.79984" lon="2.44404">
        <ele>68.8</ele>
        <time>2023-08-23T08:48:54Z</time>
      </trkpt>
      <trkpt lat="49.79986" lon="2.44405">
        <ele>68.7</ele>
        <time>2023-08-23T08:48:56Z</time>
      </trkpt>
      <trkpt lat="49.79987" lon="2.44406">
        <ele>68.6</ele>
        <time>2023-08-23T08:48:57Z</time>
      </trkpt>
      <trkpt lat="49.79988" lon="2.44406">
        <ele>68.5</ele>
        <time>2023-08-23T08:48:58Z</time>
      </trkpt>
      <trkpt lat="49.7999" lon="2.44408">
        <ele>68.4</ele>
        <time>2023-08-23T08:49:00Z</time>
      </trkpt>
      <trkpt lat="49.79992" lon="2.44409">
        <ele>68.3</ele>
        <time>2023-08-23T08:49:01Z</time>
      </trkpt>
      <trkpt lat="49.79993" lon="2.4441">
        <ele>68.2</ele>
        <time>2023-08-23T08:49:02Z</time>
      </trkpt>
      <trkpt lat="49.79994" lon="2.44411">
        <ele>68.1</ele>
        <time>2023-08-23T08:49:03Z</time>
      </trkpt>
      <trkpt lat="49.79996" lon="2.44412">
        <ele>67.9</ele>
        <time>2023-08-23T08:49:05Z</time>
      </trkpt>
      <trkpt lat="49.79997" lon="2.44413">
        <ele>67.8</ele>
        <time>2023-08-23T08:49:07Z</time>
      </trkpt>
      <trkpt lat="49.79998" lon="2.44413">
        <ele>67.8</ele>
        <time>2023-08-23T08:49:08Z</time>
      </trkpt>
      <trkpt lat="49.8" lon="2.44414">
        <ele>67.7</ele>
        <time>2023-08-23T08:49:09Z</time>
      </trkpt>
      <trkpt lat="49.80001" lon="2.44415">
        <ele>67.6</ele>
        <time>2023-08-23T08:49:10Z</time>
      </trkpt>
      <trkpt lat="49.80003" lon="2.44415">
        <ele>67.4</ele>
        <time>2023-08-23T08:49:12Z</time>
      </trkpt>
      <trkpt lat="49.80003" lon="2.44416">
        <ele>67.4</ele>
        <time>2023-08-23T08:49:13Z</time>
      </trkpt>
      <trkpt lat="49.80004" lon="2.44416">
        <ele>67.3</ele>
        <time>2023-08-23T08:49:14Z</time>
      </trkpt>
      <trkpt lat="49.80005" lon="2.44417">
        <ele>67.3</ele>
        <time>2023-08-23T08:49:15Z</time>
      </trkpt>
      <trkpt lat="49.80006" lon="2.44417">
        <ele>67.2</ele>
        <time>2023-08-23T08:49:16Z</time>
      </trkpt>
      <trkpt lat="49.80006" lon="2.44417">
        <ele>67.2</ele>
        <time>2023-08-23T08:49:17Z</time>
      </trkpt>
      <trkpt lat="49.80007" lon="2.44417">
        <ele>67.1</ele>
        <time>2023-08-23T08:49:19Z</time>
      </trkpt>
      <trkpt lat="49.80008" lon="2.44416">
        <ele>67</ele>
        <time>2023-08-23T08:49:20Z</time>
      </trkpt>
      <trkpt lat="49.80008" lon="2.44415">
        <ele>67</ele>
        <time>2023-08-23T08:49:21Z</time>
      </trkpt>
      <trkpt lat="49.80009" lon="2.44415">
        <ele>66.9</ele>
        <time>2023-08-23T08:49:22Z</time>
      </trkpt>
      <trkpt lat="49.8001" lon="2.44415">
        <ele>66.8</ele>
        <time>2023-08-23T08:49:23Z</time>
      </trkpt>
      <trkpt lat="49.80011" lon="2.44416">
        <ele>66.7</ele>
        <time>2023-08-23T08:49:24Z</time>
      </trkpt>
      <trkpt lat="49.80012" lon="2.44416">
        <ele>66.7</ele>
        <time>2023-08-23T08:49:25Z</time>
      </trkpt>
      <trkpt lat="49.80013" lon="2.44417">
        <ele>66.6</ele>
        <time>2023-08-23T08:49:27Z</time>
      </trkpt>
      <trkpt lat="49.80014" lon="2.44418">
        <ele>66.5</ele>
        <time>2023-08-23T08:49:28Z</time>
      </trkpt>
      <trkpt lat="49.80015" lon="2.44418">
        <ele>66.5</ele>
        <time>2023-08-23T08:49:29Z</time>
      </trkpt>
      <trkpt lat="49.80016" lon="2.44419">
        <ele>66.4</ele>
        <time>2023-08-23T08:49:30Z</time>
      </trkpt>
      <trkpt lat="49.80017" lon="2.44419">
        <ele>66.3</ele>
        <time>2023-08-23T08:49:31Z</time>
      </trkpt>
      <trkpt lat="49.80018" lon="2.4442">
        <ele>66.2</ele>
        <time>2023-08-23T08:49:32Z</time>
      </trkpt>
      <trkpt lat="49.80019" lon="2.4442">
        <ele>66.2</ele>
        <time>2023-08-23T08:49:33Z</time>
      </trkpt>
      <trkpt lat="49.80019" lon="2.44421">
        <ele>66.1</ele>
        <time>2023-08-23T08:49:34Z</time>
      </trkpt>
      <trkpt lat="49.80021" lon="2.44421">
        <ele>66</ele>
        <time>2023-08-23T08:49:35Z</time>
      </trkpt>
      <trkpt lat="49.80022" lon="2.44422">
        <ele>66</ele>
        <time>2023-08-23T08:49:37Z</time>
      </trkpt>
      <trkpt lat="49.80023" lon="2.44423">
        <ele>65.8</ele>
        <time>2023-08-23T08:49:39Z</time>
      </trkpt>
      <trkpt lat="49.80025" lon="2.44423">
        <ele>65.8</ele>
        <time>2023-08-23T08:49:40Z</time>
      </trkpt>
      <trkpt lat="49.80026" lon="2.44424">
        <ele>65.7</ele>
        <time>2023-08-23T08:49:41Z</time>
      </trkpt>
      <trkpt lat="49.80027" lon="2.44424">
        <ele>65.6</ele>
        <time>2023-08-23T08:49:42Z</time>
      </trkpt>
      <trkpt lat="49.80028" lon="2.44424">
        <ele>65.5</ele>
        <time>2023-08-23T08:49:43Z</time>
      </trkpt>
      <trkpt lat="49.8003" lon="2.44424">
        <ele>65.4</ele>
        <time>2023-08-23T08:49:44Z</time>
      </trkpt>
      <trkpt lat="49.80032" lon="2.44424">
        <ele>65.3</ele>
        <time>2023-08-23T08:49:46Z</time>
      </trkpt>
      <trkpt lat="49.80033" lon="2.44425">
        <ele>65.2</ele>
        <time>2023-08-23T08:49:47Z</time>
      </trkpt>
      <trkpt lat="49.80034" lon="2.44425">
        <ele>65.2</ele>
        <time>2023-08-23T08:49:49Z</time>
      </trkpt>
      <trkpt lat="49.80035" lon="2.44425">
        <ele>65.1</ele>
        <time>2023-08-23T08:49:50Z</time>
      </trkpt>
      <trkpt lat="49.80036" lon="2.44425">
        <ele>65</ele>
        <time>2023-08-23T08:49:51Z</time>
      </trkpt>
      <trkpt lat="49.80037" lon="2.44425">
        <ele>65</ele>
        <time>2023-08-23T08:49:52Z</time>
      </trkpt>
      <trkpt lat="49.80038" lon="2.44425">
        <ele>64.9</ele>
        <time>2023-08-23T08:49:53Z</time>
      </trkpt>
      <trkpt lat="49.80039" lon="2.44425">
        <ele>64.9</ele>
        <time>2023-08-23T08:49:54Z</time>
      </trkpt>
      <trkpt lat="49.8004" lon="2.44425">
        <ele>64.8</ele>
        <time>2023-08-23T08:49:55Z</time>
      </trkpt>
      <trkpt lat="49.80042" lon="2.44425">
        <ele>64.7</ele>
        <time>2023-08-23T08:49:57Z</time>
      </trkpt>
      <trkpt lat="49.80043" lon="2.44425">
        <ele>64.7</ele>
        <time>2023-08-23T08:49:58Z</time>
      </trkpt>
      <trkpt lat="49.80044" lon="2.44424">
        <ele>64.6</ele>
        <time>2023-08-23T08:49:59Z</time>
      </trkpt>
      <trkpt lat="49.80046" lon="2.44424">
        <ele>64.5</ele>
        <time>2023-08-23T08:50:00Z</time>
      </trkpt>
      <trkpt lat="49.80048" lon="2.44424">
        <ele>64.4</ele>
        <time>2023-08-23T08:50:01Z</time>
      </trkpt>
      <trkpt lat="49.80049" lon="2.44424">
        <ele>64.4</ele>
        <time>2023-08-23T08:50:02Z</time>
      </trkpt>
      <trkpt lat="49.80049" lon="2.44424">
        <ele>64.4</ele>
        <time>2023-08-23T08:50:03Z</time>
      </trkpt>
      <trkpt lat="49.8005" lon="2.44424">
        <ele>64.3</ele>
        <time>2023-08-23T08:50:04Z</time>
      </trkpt>
      <trkpt lat="49.80052" lon="2.44424">
        <ele>64.3</ele>
        <time>2023-08-23T08:50:06Z</time>
      </trkpt>
      <trkpt lat="49.80053" lon="2.44424">
        <ele>64.2</ele>
        <time>2023-08-23T08:50:07Z</time>
      </trkpt>
      <trkpt lat="49.80057" lon="2.44423">
        <ele>64</ele>
        <time>2023-08-23T08:50:09Z</time>
      </trkpt>
      <trkpt lat="49.80058" lon="2.44422">
        <ele>64</ele>
        <time>2023-08-23T08:50:11Z</time>
      </trkpt>
      <trkpt lat="49.80059" lon="2.44422">
        <ele>64</ele>
        <time>2023-08-23T08:50:12Z</time>
      </trkpt>
      <trkpt lat="49.80059" lon="2.44421">
        <ele>63.9</ele>
        <time>2023-08-23T08:50:13Z</time>
      </trkpt>
      <trkpt lat="49.80061" lon="2.44421">
        <ele>63.9</ele>
        <time>2023-08-23T08:50:14Z</time>
      </trkpt>
      <trkpt lat="49.80063" lon="2.44419">
        <ele>63.8</ele>
        <time>2023-08-23T08:50:16Z</time>
      </trkpt>
      <trkpt lat="49.80064" lon="2.44417">
        <ele>63.7</ele>
        <time>2023-08-23T08:50:18Z</time>
      </trkpt>
      <trkpt lat="49.80066" lon="2.44416">
        <ele>63.6</ele>
        <time>2023-08-23T08:50:19Z</time>
      </trkpt>
      <trkpt lat="49.80067" lon="2.44415">
        <ele>63.5</ele>
        <time>2023-08-23T08:50:20Z</time>
      </trkpt>
      <trkpt lat="49.80068" lon="2.44415">
        <ele>63.5</ele>
        <time>2023-08-23T08:50:21Z</time>
      </trkpt>
      <trkpt lat="49.80069" lon="2.44414">
        <ele>63.4</ele>
        <time>2023-08-23T08:50:22Z</time>
      </trkpt>
      <trkpt lat="49.8007" lon="2.44414">
        <ele>63.3</ele>
        <time>2023-08-23T08:50:23Z</time>
      </trkpt>
      <trkpt lat="49.80072" lon="2.44413">
        <ele>63.2</ele>
        <time>2023-08-23T08:50:24Z</time>
      </trkpt>
      <trkpt lat="49.80073" lon="2.44412">
        <ele>63.1</ele>
        <time>2023-08-23T08:50:25Z</time>
      </trkpt>
      <trkpt lat="49.80074" lon="2.44412">
        <ele>63</ele>
        <time>2023-08-23T08:50:27Z</time>
      </trkpt>
      <trkpt lat="49.80076" lon="2.44411">
        <ele>62.9</ele>
        <time>2023-08-23T08:50:28Z</time>
      </trkpt>
      <trkpt lat="49.80077" lon="2.4441">
        <ele>62.8</ele>
        <time>2023-08-23T08:50:29Z</time>
      </trkpt>
      <trkpt lat="49.80078" lon="2.4441">
        <ele>62.7</ele>
        <time>2023-08-23T08:50:30Z</time>
      </trkpt>
      <trkpt lat="49.8008" lon="2.44409">
        <ele>62.5</ele>
        <time>2023-08-23T08:50:32Z</time>
      </trkpt>
      <trkpt lat="49.80081" lon="2.44408">
        <ele>62.4</ele>
        <time>2023-08-23T08:50:34Z</time>
      </trkpt>
      <trkpt lat="49.80084" lon="2.44407">
        <ele>62.2</ele>
        <time>2023-08-23T08:50:35Z</time>
      </trkpt>
      <trkpt lat="49.80085" lon="2.44406">
        <ele>62.1</ele>
        <time>2023-08-23T08:50:36Z</time>
      </trkpt>
      <trkpt lat="49.80086" lon="2.44405">
        <ele>62</ele>
        <time>2023-08-23T08:50:37Z</time>
      </trkpt>
      <trkpt lat="49.80087" lon="2.44404">
        <ele>61.8</ele>
        <time>2023-08-23T08:50:39Z</time>
      </trkpt>
      <trkpt lat="49.80088" lon="2.44404">
        <ele>61.7</ele>
        <time>2023-08-23T08:50:40Z</time>
      </trkpt>
      <trkpt lat="49.8009" lon="2.44403">
        <ele>61.5</ele>
        <time>2023-08-23T08:50:41Z</time>
      </trkpt>
      <trkpt lat="49.80091" lon="2.44403">
        <ele>61.5</ele>
        <time>2023-08-23T08:50:42Z</time>
      </trkpt>
      <trkpt lat="49.80092" lon="2.44402">
        <ele>61.4</ele>
        <time>2023-08-23T08:50:43Z</time>
      </trkpt>
      <trkpt lat="49.80093" lon="2.44402">
        <ele>61.3</ele>
        <time>2023-08-23T08:50:45Z</time>
      </trkpt>
      <trkpt lat="49.80095" lon="2.44402">
        <ele>61.2</ele>
        <time>2023-08-23T08:50:46Z</time>
      </trkpt>
      <trkpt lat="49.80097" lon="2.44401">
        <ele>61</ele>
        <time>2023-08-23T08:50:48Z</time>
      </trkpt>
      <trkpt lat="49.80098" lon="2.44401">
        <ele>60.9</ele>
        <time>2023-08-23T08:50:49Z</time>
      </trkpt>
      <trkpt lat="49.801" lon="2.444">
        <ele>60.8</ele>
        <time>2023-08-23T08:50:50Z</time>
      </trkpt>
      <trkpt lat="49.80102" lon="2.44399">
        <ele>60.6</ele>
        <time>2023-08-23T08:50:51Z</time>
      </trkpt>
      <trkpt lat="49.80103" lon="2.44399">
        <ele>60.5</ele>
        <time>2023-08-23T08:50:52Z</time>
      </trkpt>
      <trkpt lat="49.80104" lon="2.44398">
        <ele>60.5</ele>
        <time>2023-08-23T08:50:53Z</time>
      </trkpt>
      <trkpt lat="49.80105" lon="2.44397">
        <ele>60.4</ele>
        <time>2023-08-23T08:50:54Z</time>
      </trkpt>
      <trkpt lat="49.80106" lon="2.44396">
        <ele>60.3</ele>
        <time>2023-08-23T08:50:56Z</time>
      </trkpt>
      <trkpt lat="49.80107" lon="2.44395">
        <ele>60.2</ele>
        <time>2023-08-23T08:50:57Z</time>
      </trkpt>
      <trkpt lat="49.80108" lon="2.44395">
        <ele>60.1</ele>
        <time>2023-08-23T08:50:58Z</time>
      </trkpt>
      <trkpt lat="49.8011" lon="2.44394">
        <ele>60</ele>
        <time>2023-08-23T08:50:59Z</time>
      </trkpt>
      <trkpt lat="49.80111" lon="2.44394">
        <ele>59.9</ele>
        <time>2023-08-23T08:51:00Z</time>
      </trkpt>
      <trkpt lat="49.80112" lon="2.44394">
        <ele>59.8</ele>
        <time>2023-08-23T08:51:01Z</time>
      </trkpt>
      <trkpt lat="49.80113" lon="2.44394">
        <ele>59.8</ele>
        <time>2023-08-23T08:51:02Z</time>
      </trkpt>
      <trkpt lat="49.80114" lon="2.44393">
        <ele>59.7</ele>
        <time>2023-08-23T08:51:04Z</time>
      </trkpt>
      <trkpt lat="49.80114" lon="2.44393">
        <ele>59.6</ele>
        <time>2023-08-23T08:51:05Z</time>
      </trkpt>
      <trkpt lat="49.80117" lon="2.44392">
        <ele>59.5</ele>
        <time>2023-08-23T08:51:06Z</time>
      </trkpt>
      <trkpt lat="49.80117" lon="2.44392">
        <ele>59.4</ele>
        <time>2023-08-23T08:51:07Z</time>
      </trkpt>
      <trkpt lat="49.80118" lon="2.44391">
        <ele>59.4</ele>
        <time>2023-08-23T08:51:08Z</time>
      </trkpt>
      <trkpt lat="49.8012" lon="2.44391">
        <ele>59.3</ele>
        <time>2023-08-23T08:51:09Z</time>
      </trkpt>
      <trkpt lat="49.80121" lon="2.4439">
        <ele>59.2</ele>
        <time>2023-08-23T08:51:10Z</time>
      </trkpt>
      <trkpt lat="49.80122" lon="2.4439">
        <ele>59.1</ele>
        <time>2023-08-23T08:51:11Z</time>
      </trkpt>
      <trkpt lat="49.80123" lon="2.4439">
        <ele>59</ele>
        <time>2023-08-23T08:51:13Z</time>
      </trkpt>
      <trkpt lat="49.80123" lon="2.4439">
        <ele>59</ele>
        <time>2023-08-23T08:51:14Z</time>
      </trkpt>
      <trkpt lat="49.80124" lon="2.44389">
        <ele>58.9</ele>
        <time>2023-08-23T08:51:15Z</time>
      </trkpt>
      <trkpt lat="49.80125" lon="2.44388">
        <ele>58.8</ele>
        <time>2023-08-23T08:51:16Z</time>
      </trkpt>
      <trkpt lat="49.80126" lon="2.44388">
        <ele>58.8</ele>
        <time>2023-08-23T08:51:17Z</time>
      </trkpt>
      <trkpt lat="49.80128" lon="2.44387">
        <ele>58.7</ele>
        <time>2023-08-23T08:51:18Z</time>
      </trkpt>
      <trkpt lat="49.80129" lon="2.44387">
        <ele>58.6</ele>
        <time>2023-08-23T08:51:19Z</time>
      </trkpt>
      <trkpt lat="49.8013" lon="2.44386">
        <ele>58.5</ele>
        <time>2023-08-23T08:51:20Z</time>
      </trkpt>
      <trkpt lat="49.80131" lon="2.44386">
        <ele>58.4</ele>
        <time>2023-08-23T08:51:21Z</time>
      </trkpt>
      <trkpt lat="49.80132" lon="2.44384">
        <ele>58.3</ele>
        <time>2023-08-23T08:51:23Z</time>
      </trkpt>
      <trkpt lat="49.80133" lon="2.44383">
        <ele>58.2</ele>
        <time>2023-08-23T08:51:24Z</time>
      </trkpt>
      <trkpt lat="49.80134" lon="2.44382">
        <ele>58.2</ele>
        <time>2023-08-23T08:51:25Z</time>
      </trkpt>
      <trkpt lat="49.80136" lon="2.44381">
        <ele>58</ele>
        <time>2023-08-23T08:51:26Z</time>
      </trkpt>
      <trkpt lat="49.80136" lon="2.4438">
        <ele>57.9</ele>
        <time>2023-08-23T08:51:27Z</time>
      </trkpt>
      <trkpt lat="49.80137" lon="2.44379">
        <ele>57.9</ele>
        <time>2023-08-23T08:51:28Z</time>
      </trkpt>
      <trkpt lat="49.80138" lon="2.44378">
        <ele>57.8</ele>
        <time>2023-08-23T08:51:29Z</time>
      </trkpt>
      <trkpt lat="49.80139" lon="2.44377">
        <ele>57.7</ele>
        <time>2023-08-23T08:51:31Z</time>
      </trkpt>
      <trkpt lat="49.8014" lon="2.44377">
        <ele>57.6</ele>
        <time>2023-08-23T08:51:32Z</time>
      </trkpt>
      <trkpt lat="49.80141" lon="2.44375">
        <ele>57.5</ele>
        <time>2023-08-23T08:51:33Z</time>
      </trkpt>
      <trkpt lat="49.80142" lon="2.44374">
        <ele>57.4</ele>
        <time>2023-08-23T08:51:34Z</time>
      </trkpt>
      <trkpt lat="49.80143" lon="2.44373">
        <ele>57.3</ele>
        <time>2023-08-23T08:51:35Z</time>
      </trkpt>
      <trkpt lat="49.80145" lon="2.44372">
        <ele>57.2</ele>
        <time>2023-08-23T08:51:36Z</time>
      </trkpt>
      <trkpt lat="49.80145" lon="2.44371">
        <ele>57.1</ele>
        <time>2023-08-23T08:51:37Z</time>
      </trkpt>
      <trkpt lat="49.80146" lon="2.44371">
        <ele>57</ele>
        <time>2023-08-23T08:51:39Z</time>
      </trkpt>
      <trkpt lat="49.80147" lon="2.4437">
        <ele>56.9</ele>
        <time>2023-08-23T08:51:40Z</time>
      </trkpt>
      <trkpt lat="49.80148" lon="2.44369">
        <ele>56.8</ele>
        <time>2023-08-23T08:51:41Z</time>
      </trkpt>
      <trkpt lat="49.80149" lon="2.44369">
        <ele>56.8</ele>
        <time>2023-08-23T08:51:42Z</time>
      </trkpt>
      <trkpt lat="49.80151" lon="2.44368">
        <ele>56.6</ele>
        <time>2023-08-23T08:51:43Z</time>
      </trkpt>
      <trkpt lat="49.80152" lon="2.44367">
        <ele>56.5</ele>
        <time>2023-08-23T08:51:44Z</time>
      </trkpt>
      <trkpt lat="49.80153" lon="2.44366">
        <ele>56.4</ele>
        <time>2023-08-23T08:51:45Z</time>
      </trkpt>
      <trkpt lat="49.80155" lon="2.44366">
        <ele>56.3</ele>
        <time>2023-08-23T08:51:46Z</time>
      </trkpt>
      <trkpt lat="49.80156" lon="2.44365">
        <ele>56.1</ele>
        <time>2023-08-23T08:51:48Z</time>
      </trkpt>
      <trkpt lat="49.80157" lon="2.44364">
        <ele>56</ele>
        <time>2023-08-23T08:51:49Z</time>
      </trkpt>
      <trkpt lat="49.80159" lon="2.44363">
        <ele>55.9</ele>
        <time>2023-08-23T08:51:50Z</time>
      </trkpt>
      <trkpt lat="49.80162" lon="2.44361">
        <ele>55.6</ele>
        <time>2023-08-23T08:51:52Z</time>
      </trkpt>
      <trkpt lat="49.80162" lon="2.44361">
        <ele>55.5</ele>
        <time>2023-08-23T08:51:53Z</time>
      </trkpt>
      <trkpt lat="49.80164" lon="2.4436">
        <ele>55.3</ele>
        <time>2023-08-23T08:51:54Z</time>
      </trkpt>
      <trkpt lat="49.80165" lon="2.4436">
        <ele>55.2</ele>
        <time>2023-08-23T08:51:55Z</time>
      </trkpt>
      <trkpt lat="49.80167" lon="2.44359">
        <ele>55</ele>
        <time>2023-08-23T08:51:56Z</time>
      </trkpt>
      <trkpt lat="49.80168" lon="2.44358">
        <ele>54.9</ele>
        <time>2023-08-23T08:51:57Z</time>
      </trkpt>
      <trkpt lat="49.80169" lon="2.44358">
        <ele>54.8</ele>
        <time>2023-08-23T08:51:58Z</time>
      </trkpt>
      <trkpt lat="49.80169" lon="2.44358">
        <ele>54.7</ele>
        <time>2023-08-23T08:51:59Z</time>
      </trkpt>
      <trkpt lat="49.8017" lon="2.44358">
        <ele>54.7</ele>
        <time>2023-08-23T08:52:00Z</time>
      </trkpt>
      <trkpt lat="49.80171" lon="2.44357">
        <ele>54.5</ele>
        <time>2023-08-23T08:52:02Z</time>
      </trkpt>
      <trkpt lat="49.80172" lon="2.44356">
        <ele>54.4</ele>
        <time>2023-08-23T08:52:03Z</time>
      </trkpt>
      <trkpt lat="49.80174" lon="2.44356">
        <ele>54.3</ele>
        <time>2023-08-23T08:52:04Z</time>
      </trkpt>
      <trkpt lat="49.80175" lon="2.44355">
        <ele>54.2</ele>
        <time>2023-08-23T08:52:05Z</time>
      </trkpt>
      <trkpt lat="49.80177" lon="2.44355">
        <ele>54</ele>
        <time>2023-08-23T08:52:06Z</time>
      </trkpt>
      <trkpt lat="49.80177" lon="2.44354">
        <ele>53.9</ele>
        <time>2023-08-23T08:52:07Z</time>
      </trkpt>
      <trkpt lat="49.80178" lon="2.44354">
        <ele>53.8</ele>
        <time>2023-08-23T08:52:08Z</time>
      </trkpt>
      <trkpt lat="49.80179" lon="2.44353">
        <ele>53.7</ele>
        <time>2023-08-23T08:52:10Z</time>
      </trkpt>
      <trkpt lat="49.8018" lon="2.44353">
        <ele>53.6</ele>
        <time>2023-08-23T08:52:11Z</time>
      </trkpt>
      <trkpt lat="49.80181" lon="2.44353">
        <ele>53.5</ele>
        <time>2023-08-23T08:52:12Z</time>
      </trkpt>
      <trkpt lat="49.80183" lon="2.44353">
        <ele>53.4</ele>
        <time>2023-08-23T08:52:13Z</time>
      </trkpt>
      <trkpt lat="49.80184" lon="2.44353">
        <ele>53.3</ele>
        <time>2023-08-23T08:52:14Z</time>
      </trkpt>
      <trkpt lat="49.80185" lon="2.44353">
        <ele>53.2</ele>
        <time>2023-08-23T08:52:16Z</time>
      </trkpt>
      <trkpt lat="49.80186" lon="2.44353">
        <ele>53.1</ele>
        <time>2023-08-23T08:52:17Z</time>
      </trkpt>
      <trkpt lat="49.80188" lon="2.44353">
        <ele>52.9</ele>
        <time>2023-08-23T08:52:18Z</time>
      </trkpt>
      <trkpt lat="49.80191" lon="2.44354">
        <ele>52.6</ele>
        <time>2023-08-23T08:52:19Z</time>
      </trkpt>
      <trkpt lat="49.80192" lon="2.44354">
        <ele>52.5</ele>
        <time>2023-08-23T08:52:20Z</time>
      </trkpt>
      <trkpt lat="49.80193" lon="2.44354">
        <ele>52.4</ele>
        <time>2023-08-23T08:52:21Z</time>
      </trkpt>
      <trkpt lat="49.80195" lon="2.44354">
        <ele>52.2</ele>
        <time>2023-08-23T08:52:22Z</time>
      </trkpt>
      <trkpt lat="49.80198" lon="2.44354">
        <ele>52</ele>
        <time>2023-08-23T08:52:23Z</time>
      </trkpt>
      <trkpt lat="49.80199" lon="2.44355">
        <ele>51.9</ele>
        <time>2023-08-23T08:52:25Z</time>
      </trkpt>
      <trkpt lat="49.802" lon="2.44355">
        <ele>51.8</ele>
        <time>2023-08-23T08:52:26Z</time>
      </trkpt>
      <trkpt lat="49.80201" lon="2.44355">
        <ele>51.7</ele>
        <time>2023-08-23T08:52:27Z</time>
      </trkpt>
      <trkpt lat="49.80202" lon="2.44355">
        <ele>51.6</ele>
        <time>2023-08-23T08:52:28Z</time>
      </trkpt>
      <trkpt lat="49.80204" lon="2.44356">
        <ele>51.4</ele>
        <time>2023-08-23T08:52:29Z</time>
      </trkpt>
      <trkpt lat="49.80205" lon="2.44356">
        <ele>51.3</ele>
        <time>2023-08-23T08:52:30Z</time>
      </trkpt>
      <trkpt lat="49.80205" lon="2.44356">
        <ele>51.3</ele>
        <time>2023-08-23T08:52:31Z</time>
      </trkpt>
      <trkpt lat="49.80206" lon="2.44357">
        <ele>51.2</ele>
        <time>2023-08-23T08:52:33Z</time>
      </trkpt>
      <trkpt lat="49.80207" lon="2.44358">
        <ele>51.1</ele>
        <time>2023-08-23T08:52:34Z</time>
      </trkpt>
      <trkpt lat="49.80209" lon="2.44358">
        <ele>50.9</ele>
        <time>2023-08-23T08:52:35Z</time>
      </trkpt>
      <trkpt lat="49.8021" lon="2.44358">
        <ele>50.8</ele>
        <time>2023-08-23T08:52:36Z</time>
      </trkpt>
      <trkpt lat="49.80211" lon="2.44359">
        <ele>50.7</ele>
        <time>2023-08-23T08:52:37Z</time>
      </trkpt>
      <trkpt lat="49.80212" lon="2.44359">
        <ele>50.7</ele>
        <time>2023-08-23T08:52:38Z</time>
      </trkpt>
      <trkpt lat="49.80213" lon="2.44359">
        <ele>50.6</ele>
        <time>2023-08-23T08:52:40Z</time>
      </trkpt>
      <trkpt lat="49.80214" lon="2.44359">
        <ele>50.5</ele>
        <time>2023-08-23T08:52:41Z</time>
      </trkpt>
      <trkpt lat="49.80215" lon="2.44359">
        <ele>50.4</ele>
        <time>2023-08-23T08:52:42Z</time>
      </trkpt>
      <trkpt lat="49.80217" lon="2.44359">
        <ele>50.3</ele>
        <time>2023-08-23T08:52:43Z</time>
      </trkpt>
      <trkpt lat="49.80218" lon="2.4436">
        <ele>50.2</ele>
        <time>2023-08-23T08:52:44Z</time>
      </trkpt>
      <trkpt lat="49.80219" lon="2.4436">
        <ele>50.1</ele>
        <time>2023-08-23T08:52:45Z</time>
      </trkpt>
      <trkpt lat="49.80221" lon="2.4436">
        <ele>50</ele>
        <time>2023-08-23T08:52:46Z</time>
      </trkpt>
      <trkpt lat="49.80222" lon="2.4436">
        <ele>49.9</ele>
        <time>2023-08-23T08:52:48Z</time>
      </trkpt>
      <trkpt lat="49.80224" lon="2.4436">
        <ele>49.7</ele>
        <time>2023-08-23T08:52:49Z</time>
      </trkpt>
      <trkpt lat="49.80225" lon="2.4436">
        <ele>49.7</ele>
        <time>2023-08-23T08:52:50Z</time>
      </trkpt>
      <trkpt lat="49.80226" lon="2.4436">
        <ele>49.6</ele>
        <time>2023-08-23T08:52:51Z</time>
      </trkpt>
      <trkpt lat="49.80227" lon="2.4436">
        <ele>49.5</ele>
        <time>2023-08-23T08:52:52Z</time>
      </trkpt>
      <trkpt lat="49.80229" lon="2.4436">
        <ele>49.4</ele>
        <time>2023-08-23T08:52:53Z</time>
      </trkpt>
      <trkpt lat="49.80231" lon="2.44361">
        <ele>49.2</ele>
        <time>2023-08-23T08:52:54Z</time>
      </trkpt>
      <trkpt lat="49.80231" lon="2.44361">
        <ele>49.2</ele>
        <time>2023-08-23T08:52:55Z</time>
      </trkpt>
      <trkpt lat="49.80232" lon="2.44361">
        <ele>49.1</ele>
        <time>2023-08-23T08:52:56Z</time>
      </trkpt>
      <trkpt lat="49.80234" lon="2.44362">
        <ele>49</ele>
        <time>2023-08-23T08:52:58Z</time>
      </trkpt>
      <trkpt lat="49.80235" lon="2.44362">
        <ele>48.9</ele>
        <time>2023-08-23T08:52:59Z</time>
      </trkpt>
      <trkpt lat="49.80236" lon="2.44362">
        <ele>48.9</ele>
        <time>2023-08-23T08:53:00Z</time>
      </trkpt>
      <trkpt lat="49.80238" lon="2.44362">
        <ele>48.7</ele>
        <time>2023-08-23T08:53:01Z</time>
      </trkpt>
      <trkpt lat="49.80239" lon="2.44362">
        <ele>48.6</ele>
        <time>2023-08-23T08:53:02Z</time>
      </trkpt>
      <trkpt lat="49.8024" lon="2.44363">
        <ele>48.6</ele>
        <time>2023-08-23T08:53:03Z</time>
      </trkpt>
      <trkpt lat="49.80242" lon="2.44363">
        <ele>48.4</ele>
        <time>2023-08-23T08:53:05Z</time>
      </trkpt>
      <trkpt lat="49.80243" lon="2.44363">
        <ele>48.4</ele>
        <time>2023-08-23T08:53:06Z</time>
      </trkpt>
      <trkpt lat="49.80244" lon="2.44363">
        <ele>48.3</ele>
        <time>2023-08-23T08:53:07Z</time>
      </trkpt>
      <trkpt lat="49.80245" lon="2.44363">
        <ele>48.2</ele>
        <time>2023-08-23T08:53:08Z</time>
      </trkpt>
      <trkpt lat="49.80246" lon="2.44364">
        <ele>48.1</ele>
        <time>2023-08-23T08:53:09Z</time>
      </trkpt>
      <trkpt lat="49.80248" lon="2.44364">
        <ele>48</ele>
        <time>2023-08-23T08:53:10Z</time>
      </trkpt>
      <trkpt lat="49.80249" lon="2.44364">
        <ele>47.9</ele>
        <time>2023-08-23T08:53:11Z</time>
      </trkpt>
      <trkpt lat="49.8025" lon="2.44364">
        <ele>47.8</ele>
        <time>2023-08-23T08:53:12Z</time>
      </trkpt>
      <trkpt lat="49.80251" lon="2.44364">
        <ele>47.8</ele>
        <time>2023-08-23T08:53:14Z</time>
      </trkpt>
      <trkpt lat="49.80252" lon="2.44365">
        <ele>47.7</ele>
        <time>2023-08-23T08:53:15Z</time>
      </trkpt>
      <trkpt lat="49.80254" lon="2.44365">
        <ele>47.6</ele>
        <time>2023-08-23T08:53:16Z</time>
      </trkpt>
      <trkpt lat="49.80255" lon="2.44365">
        <ele>47.5</ele>
        <time>2023-08-23T08:53:17Z</time>
      </trkpt>
      <trkpt lat="49.80256" lon="2.44365">
        <ele>47.5</ele>
        <time>2023-08-23T08:53:18Z</time>
      </trkpt>
      <trkpt lat="49.80257" lon="2.44365">
        <ele>47.4</ele>
        <time>2023-08-23T08:53:20Z</time>
      </trkpt>
      <trkpt lat="49.80258" lon="2.44365">
        <ele>47.3</ele>
        <time>2023-08-23T08:53:21Z</time>
      </trkpt>
      <trkpt lat="49.80259" lon="2.44365">
        <ele>47.2</ele>
        <time>2023-08-23T08:53:22Z</time>
      </trkpt>
      <trkpt lat="49.8026" lon="2.44366">
        <ele>47.1</ele>
        <time>2023-08-23T08:53:23Z</time>
      </trkpt>
      <trkpt lat="49.80262" lon="2.44366">
        <ele>47</ele>
        <time>2023-08-23T08:53:24Z</time>
      </trkpt>
      <trkpt lat="49.80263" lon="2.44366">
        <ele>47</ele>
        <time>2023-08-23T08:53:25Z</time>
      </trkpt>
      <trkpt lat="49.80264" lon="2.44366">
        <ele>46.9</ele>
        <time>2023-08-23T08:53:27Z</time>
      </trkpt>
      <trkpt lat="49.80265" lon="2.44367">
        <ele>46.9</ele>
        <time>2023-08-23T08:53:28Z</time>
      </trkpt>
      <trkpt lat="49.80266" lon="2.44367">
        <ele>46.8</ele>
        <time>2023-08-23T08:53:29Z</time>
      </trkpt>
      <trkpt lat="49.80268" lon="2.44367">
        <ele>46.6</ele>
        <time>2023-08-23T08:53:30Z</time>
      </trkpt>
      <trkpt lat="49.80269" lon="2.44367">
        <ele>46.6</ele>
        <time>2023-08-23T08:53:31Z</time>
      </trkpt>
      <trkpt lat="49.8027" lon="2.44367">
        <ele>46.5</ele>
        <time>2023-08-23T08:53:32Z</time>
      </trkpt>
      <trkpt lat="49.80271" lon="2.44368">
        <ele>46.5</ele>
        <time>2023-08-23T08:53:33Z</time>
      </trkpt>
      <trkpt lat="49.80272" lon="2.44368">
        <ele>46.4</ele>
        <time>2023-08-23T08:53:35Z</time>
      </trkpt>
      <trkpt lat="49.80273" lon="2.44368">
        <ele>46.3</ele>
        <time>2023-08-23T08:53:36Z</time>
      </trkpt>
      <trkpt lat="49.80274" lon="2.44368">
        <ele>46.3</ele>
        <time>2023-08-23T08:53:37Z</time>
      </trkpt>
      <trkpt lat="49.80276" lon="2.44368">
        <ele>46.2</ele>
        <time>2023-08-23T08:53:38Z</time>
      </trkpt>
      <trkpt lat="49.80277" lon="2.44369">
        <ele>46.1</ele>
        <time>2023-08-23T08:53:39Z</time>
      </trkpt>
      <trkpt lat="49.80279" lon="2.44369">
        <ele>46</ele>
        <time>2023-08-23T08:53:40Z</time>
      </trkpt>
      <trkpt lat="49.8028" lon="2.44369">
        <ele>46</ele>
        <time>2023-08-23T08:53:42Z</time>
      </trkpt>
      <trkpt lat="49.80281" lon="2.4437">
        <ele>45.9</ele>
        <time>2023-08-23T08:53:43Z</time>
      </trkpt>
      <trkpt lat="49.80282" lon="2.4437">
        <ele>45.9</ele>
        <time>2023-08-23T08:53:44Z</time>
      </trkpt>
      <trkpt lat="49.80283" lon="2.4437">
        <ele>45.8</ele>
        <time>2023-08-23T08:53:45Z</time>
      </trkpt>
      <trkpt lat="49.80284" lon="2.44371">
        <ele>45.7</ele>
        <time>2023-08-23T08:53:46Z</time>
      </trkpt>
      <trkpt lat="49.80285" lon="2.44371">
        <ele>45.7</ele>
        <time>2023-08-23T08:53:47Z</time>
      </trkpt>
      <trkpt lat="49.80286" lon="2.44371">
        <ele>45.6</ele>
        <time>2023-08-23T08:53:49Z</time>
      </trkpt>
      <trkpt lat="49.80287" lon="2.44371">
        <ele>45.6</ele>
        <time>2023-08-23T08:53:50Z</time>
      </trkpt>
      <trkpt lat="49.80288" lon="2.44371">
        <ele>45.6</ele>
        <time>2023-08-23T08:53:51Z</time>
      </trkpt>
      <trkpt lat="49.80288" lon="2.44371">
        <ele>45.5</ele>
        <time>2023-08-23T08:53:52Z</time>
      </trkpt>
      <trkpt lat="49.80291" lon="2.44372">
        <ele>45.4</ele>
        <time>2023-08-23T08:53:53Z</time>
      </trkpt>
      <trkpt lat="49.80291" lon="2.44372">
        <ele>45.4</ele>
        <time>2023-08-23T08:53:54Z</time>
      </trkpt>
      <trkpt lat="49.80292" lon="2.44372">
        <ele>45.3</ele>
        <time>2023-08-23T08:53:55Z</time>
      </trkpt>
      <trkpt lat="49.80294" lon="2.44372">
        <ele>45.3</ele>
        <time>2023-08-23T08:53:57Z</time>
      </trkpt>
      <trkpt lat="49.80295" lon="2.44372">
        <ele>45.2</ele>
        <time>2023-08-23T08:53:58Z</time>
      </trkpt>
      <trkpt lat="49.80296" lon="2.44372">
        <ele>45.2</ele>
        <time>2023-08-23T08:53:59Z</time>
      </trkpt>
      <trkpt lat="49.80298" lon="2.44372">
        <ele>45.1</ele>
        <time>2023-08-23T08:54:00Z</time>
      </trkpt>
      <trkpt lat="49.80299" lon="2.44373">
        <ele>45.1</ele>
        <time>2023-08-23T08:54:01Z</time>
      </trkpt>
      <trkpt lat="49.803" lon="2.44373">
        <ele>45</ele>
        <time>2023-08-23T08:54:02Z</time>
      </trkpt>
      <trkpt lat="49.80301" lon="2.44374">
        <ele>45</ele>
        <time>2023-08-23T08:54:03Z</time>
      </trkpt>
      <trkpt lat="49.80302" lon="2.44374">
        <ele>44.9</ele>
        <time>2023-08-23T08:54:05Z</time>
      </trkpt>
      <trkpt lat="49.80303" lon="2.44375">
        <ele>44.9</ele>
        <time>2023-08-23T08:54:06Z</time>
      </trkpt>
      <trkpt lat="49.80305" lon="2.44375">
        <ele>44.8</ele>
        <time>2023-08-23T08:54:07Z</time>
      </trkpt>
      <trkpt lat="49.80306" lon="2.44375">
        <ele>44.8</ele>
        <time>2023-08-23T08:54:08Z</time>
      </trkpt>
      <trkpt lat="49.80307" lon="2.44375">
        <ele>44.7</ele>
        <time>2023-08-23T08:54:09Z</time>
      </trkpt>
      <trkpt lat="49.80308" lon="2.44375">
        <ele>44.7</ele>
        <time>2023-08-23T08:54:10Z</time>
      </trkpt>
      <trkpt lat="49.80309" lon="2.44375">
        <ele>44.6</ele>
        <time>2023-08-23T08:54:11Z</time>
      </trkpt>
      <trkpt lat="49.8031" lon="2.44375">
        <ele>44.6</ele>
        <time>2023-08-23T08:54:12Z</time>
      </trkpt>
      <trkpt lat="49.80311" lon="2.44375">
        <ele>44.5</ele>
        <time>2023-08-23T08:54:14Z</time>
      </trkpt>
      <trkpt lat="49.80313" lon="2.44375">
        <ele>44.5</ele>
        <time>2023-08-23T08:54:15Z</time>
      </trkpt>
      <trkpt lat="49.80314" lon="2.44375">
        <ele>44.4</ele>
        <time>2023-08-23T08:54:16Z</time>
      </trkpt>
      <trkpt lat="49.80315" lon="2.44375">
        <ele>44.4</ele>
        <time>2023-08-23T08:54:17Z</time>
      </trkpt>
      <trkpt lat="49.80316" lon="2.44375">
        <ele>44.4</ele>
        <time>2023-08-23T08:54:18Z</time>
      </trkpt>
      <trkpt lat="49.80317" lon="2.44375">
        <ele>44.3</ele>
        <time>2023-08-23T08:54:19Z</time>
      </trkpt>
      <trkpt lat="49.80318" lon="2.44375">
        <ele>44.3</ele>
        <time>2023-08-23T08:54:21Z</time>
      </trkpt>
      <trkpt lat="49.80319" lon="2.44376">
        <ele>44.2</ele>
        <time>2023-08-23T08:54:22Z</time>
      </trkpt>
      <trkpt lat="49.8032" lon="2.44376">
        <ele>44.2</ele>
        <time>2023-08-23T08:54:23Z</time>
      </trkpt>
      <trkpt lat="49.80321" lon="2.44376">
        <ele>44.1</ele>
        <time>2023-08-23T08:54:24Z</time>
      </trkpt>
      <trkpt lat="49.80322" lon="2.44377">
        <ele>44.1</ele>
        <time>2023-08-23T08:54:25Z</time>
      </trkpt>
      <trkpt lat="49.80323" lon="2.44377">
        <ele>44</ele>
        <time>2023-08-23T08:54:26Z</time>
      </trkpt>
      <trkpt lat="49.80324" lon="2.44377">
        <ele>44</ele>
        <time>2023-08-23T08:54:27Z</time>
      </trkpt>
      <trkpt lat="49.80326" lon="2.44377">
        <ele>44</ele>
        <time>2023-08-23T08:54:28Z</time>
      </trkpt>
      <trkpt lat="49.80327" lon="2.44377">
        <ele>43.9</ele>
        <time>2023-08-23T08:54:30Z</time>
      </trkpt>
      <trkpt lat="49.80328" lon="2.44378">
        <ele>43.9</ele>
        <time>2023-08-23T08:54:31Z</time>
      </trkpt>
      <trkpt lat="49.80329" lon="2.44378">
        <ele>43.8</ele>
        <time>2023-08-23T08:54:32Z</time>
      </trkpt>
      <trkpt lat="49.8033" lon="2.44378">
        <ele>43.8</ele>
        <time>2023-08-23T08:54:33Z</time>
      </trkpt>
      <trkpt lat="49.80331" lon="2.44378">
        <ele>43.7</ele>
        <time>2023-08-23T08:54:34Z</time>
      </trkpt>
      <trkpt lat="49.80333" lon="2.44379">
        <ele>43.7</ele>
        <time>2023-08-23T08:54:35Z</time>
      </trkpt>
      <trkpt lat="49.80334" lon="2.44379">
        <ele>43.6</ele>
        <time>2023-08-23T08:54:37Z</time>
      </trkpt>
      <trkpt lat="49.80335" lon="2.44379">
        <ele>43.6</ele>
        <time>2023-08-23T08:54:38Z</time>
      </trkpt>
      <trkpt lat="49.80336" lon="2.44379">
        <ele>43.5</ele>
        <time>2023-08-23T08:54:39Z</time>
      </trkpt>
      <trkpt lat="49.80337" lon="2.4438">
        <ele>43.5</ele>
        <time>2023-08-23T08:54:40Z</time>
      </trkpt>
      <trkpt lat="49.80338" lon="2.4438">
        <ele>43.4</ele>
        <time>2023-08-23T08:54:41Z</time>
      </trkpt>
      <trkpt lat="49.80339" lon="2.4438">
        <ele>43.4</ele>
        <time>2023-08-23T08:54:42Z</time>
      </trkpt>
      <trkpt lat="49.8034" lon="2.4438">
        <ele>43.4</ele>
        <time>2023-08-23T08:54:44Z</time>
      </trkpt>
      <trkpt lat="49.80341" lon="2.4438">
        <ele>43.3</ele>
        <time>2023-08-23T08:54:45Z</time>
      </trkpt>
      <trkpt lat="49.80342" lon="2.4438">
        <ele>43.3</ele>
        <time>2023-08-23T08:54:46Z</time>
      </trkpt>
      <trkpt lat="49.80344" lon="2.4438">
        <ele>43.2</ele>
        <time>2023-08-23T08:54:47Z</time>
      </trkpt>
      <trkpt lat="49.80345" lon="2.4438">
        <ele>43.2</ele>
        <time>2023-08-23T08:54:48Z</time>
      </trkpt>
      <trkpt lat="49.80347" lon="2.4438">
        <ele>43.1</ele>
        <time>2023-08-23T08:54:49Z</time>
      </trkpt>
      <trkpt lat="49.80348" lon="2.4438">
        <ele>43.1</ele>
        <time>2023-08-23T08:54:50Z</time>
      </trkpt>
      <trkpt lat="49.80349" lon="2.4438">
        <ele>43.1</ele>
        <time>2023-08-23T08:54:52Z</time>
      </trkpt>
      <trkpt lat="49.8035" lon="2.4438">
        <ele>43</ele>
        <time>2023-08-23T08:54:53Z</time>
      </trkpt>
      <trkpt lat="49.80351" lon="2.44381">
        <ele>43</ele>
        <time>2023-08-23T08:54:54Z</time>
      </trkpt>
      <trkpt lat="49.80352" lon="2.44381">
        <ele>43</ele>
        <time>2023-08-23T08:54:55Z</time>
      </trkpt>
      <trkpt lat="49.80353" lon="2.44381">
        <ele>42.9</ele>
        <time>2023-08-23T08:54:56Z</time>
      </trkpt>
      <trkpt lat="49.80354" lon="2.44381">
        <ele>43.1</ele>
        <time>2023-08-23T08:54:57Z</time>
      </trkpt>
      <trkpt lat="49.80355" lon="2.44381">
        <ele>43.3</ele>
        <time>2023-08-23T08:54:59Z</time>
      </trkpt>
      <trkpt lat="49.80357" lon="2.44381">
        <ele>43.4</ele>
        <time>2023-08-23T08:55:00Z</time>
      </trkpt>
      <trkpt lat="49.80358" lon="2.44382">
        <ele>43.6</ele>
        <time>2023-08-23T08:55:01Z</time>
      </trkpt>
      <trkpt lat="49.80359" lon="2.44382">
        <ele>43.7</ele>
        <time>2023-08-23T08:55:02Z</time>
      </trkpt>
      <trkpt lat="49.8036" lon="2.44381">
        <ele>43.9</ele>
        <time>2023-08-23T08:55:03Z</time>
      </trkpt>
      <trkpt lat="49.80361" lon="2.44381">
        <ele>44</ele>
        <time>2023-08-23T08:55:05Z</time>
      </trkpt>
      <trkpt lat="49.80361" lon="2.4438">
        <ele>44.1</ele>
        <time>2023-08-23T08:55:06Z</time>
      </trkpt>
      <trkpt lat="49.80362" lon="2.4438">
        <ele>44.2</ele>
        <time>2023-08-23T08:55:07Z</time>
      </trkpt>
      <trkpt lat="49.80362" lon="2.44379">
        <ele>44.3</ele>
        <time>2023-08-23T08:55:08Z</time>
      </trkpt>
      <trkpt lat="49.80363" lon="2.4438">
        <ele>44.4</ele>
        <time>2023-08-23T08:55:09Z</time>
      </trkpt>
      <trkpt lat="49.80364" lon="2.4438">
        <ele>44.5</ele>
        <time>2023-08-23T08:55:11Z</time>
      </trkpt>
      <trkpt lat="49.80365" lon="2.44381">
        <ele>44.6</ele>
        <time>2023-08-23T08:55:12Z</time>
      </trkpt>
      <trkpt lat="49.80366" lon="2.44381">
        <ele>44.7</ele>
        <time>2023-08-23T08:55:13Z</time>
      </trkpt>
      <trkpt lat="49.80367" lon="2.44381">
        <ele>44.6</ele>
        <time>2023-08-23T08:55:15Z</time>
      </trkpt>
      <trkpt lat="49.80368" lon="2.44381">
        <ele>44.6</ele>
        <time>2023-08-23T08:55:16Z</time>
      </trkpt>
      <trkpt lat="49.80369" lon="2.4438">
        <ele>44.6</ele>
        <time>2023-08-23T08:55:18Z</time>
      </trkpt>
      <trkpt lat="49.8037" lon="2.4438">
        <ele>44.6</ele>
        <time>2023-08-23T08:55:20Z</time>
      </trkpt>
      <trkpt lat="49.8037" lon="2.44379">
        <ele>44.6</ele>
        <time>2023-08-23T08:55:21Z</time>
      </trkpt>
      <trkpt lat="49.80371" lon="2.44378">
        <ele>44.5</ele>
        <time>2023-08-23T08:55:23Z</time>
      </trkpt>
      <trkpt lat="49.80372" lon="2.44378">
        <ele>44.5</ele>
        <time>2023-08-23T08:55:24Z</time>
      </trkpt>
      <trkpt lat="49.80372" lon="2.44379">
        <ele>44.5</ele>
        <time>2023-08-23T08:55:26Z</time>
      </trkpt>
      <trkpt lat="49.80373" lon="2.4438">
        <ele>44.5</ele>
        <time>2023-08-23T08:55:27Z</time>
      </trkpt>
      <trkpt lat="49.80373" lon="2.4438">
        <ele>44.5</ele>
        <time>2023-08-23T08:55:28Z</time>
      </trkpt>
      <trkpt lat="49.80373" lon="2.44381">
        <ele>44.5</ele>
        <time>2023-08-23T08:55:30Z</time>
      </trkpt>
      <trkpt lat="49.80372" lon="2.44381">
        <ele>44.5</ele>
        <time>2023-08-23T08:55:31Z</time>
      </trkpt>
      <trkpt lat="49.80372" lon="2.44382">
        <ele>44.4</ele>
        <time>2023-08-23T08:55:33Z</time>
      </trkpt>
      <trkpt lat="49.80372" lon="2.44382">
        <ele>44.4</ele>
        <time>2023-08-23T08:55:34Z</time>
      </trkpt>
      <trkpt lat="49.80372" lon="2.44382">
        <ele>44.4</ele>
        <time>2023-08-23T08:55:35Z</time>
      </trkpt>
      <trkpt lat="49.80372" lon="2.44383">
        <ele>44.4</ele>
        <time>2023-08-23T08:55:37Z</time>
      </trkpt>
      <trkpt lat="49.80372" lon="2.44382">
        <ele>44.4</ele>
        <time>2023-08-23T08:55:38Z</time>
      </trkpt>
      <trkpt lat="49.80372" lon="2.44382">
        <ele>44.4</ele>
        <time>2023-08-23T08:55:39Z</time>
      </trkpt>
      <trkpt lat="49.80372" lon="2.44382">
        <ele>44.4</ele>
        <time>2023-08-23T08:55:40Z</time>
      </trkpt>
      <trkpt lat="49.80372" lon="2.44382">
        <ele>44.4</ele>
        <time>2023-08-23T08:55:41Z</time>
      </trkpt>
      <trkpt lat="49.80372" lon="2.44382">
        <ele>44.4</ele>
        <time>2023-08-23T08:55:42Z</time>
      </trkpt>
      <trkpt lat="49.80372" lon="2.44382">
        <ele>44.4</ele>
        <time>2023-08-23T08:55:43Z</time>
      </trkpt>
      <trkpt lat="49.80372" lon="2.44382">
        <ele>44.4</ele>
        <time>2023-08-23T08:55:44Z</time>
      </trkpt>
      <trkpt lat="49.80372" lon="2.44382">
        <ele>44.4</ele>
        <time>2023-08-23T08:55:45Z</time>
      </trkpt>
      <trkpt lat="49.80372" lon="2.44382">
        <ele>44.4</ele>
        <time>2023-08-23T08:55:46Z</time>
      </trkpt>
      <trkpt lat="49.80372" lon="2.44382">
        <ele>44.4</ele>
        <time>2023-08-23T08:55:47Z</time>
      </trkpt>
      <trkpt lat="49.80372" lon="2.44382">
        <ele>44.4</ele>
        <time>2023-08-23T08:55:48Z</time>
      </trkpt>
      <trkpt lat="49.80372" lon="2.44382">
        <ele>44.4</ele>
        <time>2023-08-23T08:55:49Z</time>
      </trkpt>
      <trkpt lat="49.80372" lon="2.44382">
        <ele>44.4</ele>
        <time>2023-08-23T08:55:50Z</time>
      </trkpt>
      <trkpt lat="49.80372" lon="2.44382">
        <ele>44.4</ele>
        <time>2023-08-23T08:55:51Z</time>
      </trkpt>
      <trkpt lat="49.80372" lon="2.44382">
        <ele>44.4</ele>
        <time>2023-08-23T08:55:52Z</time>
      </trkpt>
      <trkpt lat="49.80372" lon="2.44382">
        <ele>44.4</ele>
        <time>2023-08-23T08:55:53Z</time>
      </trkpt>
      <trkpt lat="49.80372" lon="2.44382">
        <ele>44.4</ele>
        <time>2023-08-23T08:55:54Z</time>
      </trkpt>
      <trkpt lat="49.80372" lon="2.44382">
        <ele>44.4</ele>
        <time>2023-08-23T08:55:55Z</time>
      </trkpt>
      <trkpt lat="49.80372" lon="2.44382">
        <ele>44.4</ele>
        <time>2023-08-23T08:55:56Z</time>
      </trkpt>
      <trkpt lat="49.80372" lon="2.44382">
        <ele>44.4</ele>
        <time>2023-08-23T08:55:57Z</time>
      </trkpt>
      <trkpt lat="49.80372" lon="2.44382">
        <ele>44.4</ele>
        <time>2023-08-23T08:55:58Z</time>
      </trkpt>
      <trkpt lat="49.80372" lon="2.44382">
        <ele>44.4</ele>
        <time>2023-08-23T08:55:59Z</time>
      </trkpt>
      <trkpt lat="49.80372" lon="2.44382">
        <ele>44.4</ele>
        <time>2023-08-23T08:56:00Z</time>
      </trkpt>
      <trkpt lat="49.80372" lon="2.44382">
        <ele>44.4</ele>
        <time>2023-08-23T08:56:01Z</time>
      </trkpt>
      <trkpt lat="49.80372" lon="2.44382">
        <ele>44.4</ele>
        <time>2023-08-23T08:56:02Z</time>
      </trkpt>
      <trkpt lat="49.80372" lon="2.44382">
        <ele>44.4</ele>
        <time>2023-08-23T08:56:03Z</time>
      </trkpt>
      <trkpt lat="49.80372" lon="2.44382">
        <ele>44.4</ele>
        <time>2023-08-23T08:56:04Z</time>
      </trkpt>
      <trkpt lat="49.80372" lon="2.44382">
        <ele>44.4</ele>
        <time>2023-08-23T08:56:05Z</time>
      </trkpt>
      <trkpt lat="49.80372" lon="2.44382">
        <ele>44.4</ele>
        <time>2023-08-23T08:56:06Z</time>
      </trkpt>
      <trkpt lat="49.80372" lon="2.44382">
        <ele>44.4</ele>
        <time>2023-08-23T08:56:07Z</time>
      </trkpt>
      <trkpt lat="49.80372" lon="2.44382">
        <ele>44.4</ele>
        <time>2023-08-23T08:56:08Z</time>
      </trkpt>
      <trkpt lat="49.80372" lon="2.44382">
        <ele>44.4</ele>
        <time>2023-08-23T08:56:09Z</time>
      </trkpt>
      <trkpt lat="49.80372" lon="2.44382">
        <ele>44.4</ele>
        <time>2023-08-23T08:56:10Z</time>
      </trkpt>
      <trkpt lat="49.80372" lon="2.44382">
        <ele>44.4</ele>
        <time>2023-08-23T08:56:11Z</time>
      </trkpt>
      <trkpt lat="49.80372" lon="2.44382">
        <ele>44.4</ele>
        <time>2023-08-23T08:56:12Z</time>
      </trkpt>
      <trkpt lat="49.80372" lon="2.44382">
        <ele>44.4</ele>
        <time>2023-08-23T08:56:13Z</time>
      </trkpt>
      <trkpt lat="49.80372" lon="2.44382">
        <ele>44.4</ele>
        <time>2023-08-23T08:56:14Z</time>
      </trkpt>
      <trkpt lat="49.80372" lon="2.44382">
        <ele>44.4</ele>
        <time>2023-08-23T08:56:15Z</time>
      </trkpt>
      <trkpt lat="49.80372" lon="2.44382">
        <ele>44.4</ele>
        <time>2023-08-23T08:56:16Z</time>
      </trkpt>
      <trkpt lat="49.80372" lon="2.44382">
        <ele>44.4</ele>
        <time>2023-08-23T08:56:17Z</time>
      </trkpt>
      <trkpt lat="49.80372" lon="2.44382">
        <ele>44.4</ele>
        <time>2023-08-23T08:56:18Z</time>
      </trkpt>
      <trkpt lat="49.80372" lon="2.44382">
        <ele>44.4</ele>
        <time>2023-08-23T08:56:19Z</time>
      </trkpt>
      <trkpt lat="49.80372" lon="2.44382">
        <ele>44.4</ele>
        <time>2023-08-23T08:56:20Z</time>
      </trkpt>
      <trkpt lat="49.80372" lon="2.44382">
        <ele>44.4</ele>
        <time>2023-08-23T08:56:21Z</time>
      </trkpt>
      <trkpt lat="49.80372" lon="2.44382">
        <ele>44.4</ele>
        <time>2023-08-23T08:56:22Z</time>
      </trkpt>
      <trkpt lat="49.80372" lon="2.44382">
        <ele>44.4</ele>
        <time>2023-08-23T08:56:23Z</time>
      </trkpt>
      <trkpt lat="49.80372" lon="2.44382">
        <ele>44.4</ele>
        <time>2023-08-23T08:56:24Z</time>
      </trkpt>
      <trkpt lat="49.80372" lon="2.44382">
        <ele>44.4</ele>
        <time>2023-08-23T08:56:25Z</time>
      </trkpt>
      <trkpt lat="49.80372" lon="2.44382">
        <ele>44.4</ele>
        <time>2023-08-23T08:56:26Z</time>
      </trkpt>
      <trkpt lat="49.80372" lon="2.44382">
        <ele>44.4</ele>
        <time>2023-08-23T08:56:27Z</time>
      </trkpt>
      <trkpt lat="49.80372" lon="2.44382">
        <ele>44.4</ele>
        <time>2023-08-23T08:56:28Z</time>
      </trkpt>
      <trkpt lat="49.80372" lon="2.44382">
        <ele>44.4</ele>
        <time>2023-08-23T08:56:29Z</time>
      </trkpt>
      <trkpt lat="49.80372" lon="2.44382">
        <ele>44.4</ele>
        <time>2023-08-23T08:56:30Z</time>
      </trkpt>
      <trkpt lat="49.80372" lon="2.44382">
        <ele>44.4</ele>
        <time>2023-08-23T08:56:31Z</time>
      </trkpt>
      <trkpt lat="49.80372" lon="2.44382">
        <ele>44.4</ele>
        <time>2023-08-23T08:56:32Z</time>
      </trkpt>
      <trkpt lat="49.80372" lon="2.44382">
        <ele>44.4</ele>
        <time>2023-08-23T08:56:33Z</time>
      </trkpt>
      <trkpt lat="49.80372" lon="2.44382">
        <ele>44.4</ele>
        <time>2023-08-23T08:56:34Z</time>
      </trkpt>
      <trkpt lat="49.80372" lon="2.44382">
        <ele>44.4</ele>
        <time>2023-08-23T08:56:35Z</time>
      </trkpt>
      <trkpt lat="49.80372" lon="2.44382">
        <ele>44.4</ele>
        <time>2023-08-23T08:56:36Z</time>
      </trkpt>
      <trkpt lat="49.80372" lon="2.44382">
        <ele>44.4</ele>
        <time>2023-08-23T08:56:37Z</time>
      </trkpt>
      <trkpt lat="49.8037" lon="2.4438">
        <ele>44.4</ele>
        <time>2023-08-23T08:56:38Z</time>
      </trkpt>
      <trkpt lat="49.80369" lon="2.44379">
        <ele>44.4</ele>
        <time>2023-08-23T08:56:39Z</time>
      </trkpt>
      <trkpt lat="49.8037" lon="2.44379">
        <ele>44.3</ele>
        <time>2023-08-23T08:56:40Z</time>
      </trkpt>
      <trkpt lat="49.8037" lon="2.4438">
        <ele>44.3</ele>
        <time>2023-08-23T08:56:41Z</time>
      </trkpt>
      <trkpt lat="49.80371" lon="2.4438">
        <ele>44.3</ele>
        <time>2023-08-23T08:56:42Z</time>
      </trkpt>
      <trkpt lat="49.80372" lon="2.44381">
        <ele>44.3</ele>
        <time>2023-08-23T08:56:43Z</time>
      </trkpt>
      <trkpt lat="49.80373" lon="2.44381">
        <ele>44.3</ele>
        <time>2023-08-23T08:56:44Z</time>
      </trkpt>
      <trkpt lat="49.80373" lon="2.44381">
        <ele>44.2</ele>
        <time>2023-08-23T08:56:45Z</time>
      </trkpt>
      <trkpt lat="49.80374" lon="2.44382">
        <ele>44.2</ele>
        <time>2023-08-23T08:56:47Z</time>
      </trkpt>
      <trkpt lat="49.80375" lon="2.44382">
        <ele>44.2</ele>
        <time>2023-08-23T08:56:48Z</time>
      </trkpt>
      <trkpt lat="49.80376" lon="2.44382">
        <ele>44.2</ele>
        <time>2023-08-23T08:56:49Z</time>
      </trkpt>
      <trkpt lat="49.80377" lon="2.44383">
        <ele>44.2</ele>
        <time>2023-08-23T08:56:50Z</time>
      </trkpt>
      <trkpt lat="49.80378" lon="2.44383">
        <ele>44.1</ele>
        <time>2023-08-23T08:56:51Z</time>
      </trkpt>
      <trkpt lat="49.80379" lon="2.44384">
        <ele>44.1</ele>
        <time>2023-08-23T08:56:52Z</time>
      </trkpt>
      <trkpt lat="49.80379" lon="2.44385">
        <ele>44.1</ele>
        <time>2023-08-23T08:56:53Z</time>
      </trkpt>
      <trkpt lat="49.8038" lon="2.44386">
        <ele>44.1</ele>
        <time>2023-08-23T08:56:55Z</time>
      </trkpt>
      <trkpt lat="49.80381" lon="2.44387">
        <ele>44</ele>
        <time>2023-08-23T08:56:56Z</time>
      </trkpt>
      <trkpt lat="49.80382" lon="2.44388">
        <ele>44</ele>
        <time>2023-08-23T08:56:57Z</time>
      </trkpt>
      <trkpt lat="49.80383" lon="2.44389">
        <ele>44</ele>
        <time>2023-08-23T08:56:58Z</time>
      </trkpt>
      <trkpt lat="49.80384" lon="2.4439">
        <ele>43.9</ele>
        <time>2023-08-23T08:56:59Z</time>
      </trkpt>
      <trkpt lat="49.80385" lon="2.44391">
        <ele>43.9</ele>
        <time>2023-08-23T08:57:01Z</time>
      </trkpt>
      <trkpt lat="49.80386" lon="2.44392">
        <ele>43.8</ele>
        <time>2023-08-23T08:57:02Z</time>
      </trkpt>
      <trkpt lat="49.80387" lon="2.44392">
        <ele>43.8</ele>
        <time>2023-08-23T08:57:03Z</time>
      </trkpt>
      <trkpt lat="49.80388" lon="2.44393">
        <ele>43.8</ele>
        <time>2023-08-23T08:57:04Z</time>
      </trkpt>
      <trkpt lat="49.8039" lon="2.44394">
        <ele>43.7</ele>
        <time>2023-08-23T08:57:05Z</time>
      </trkpt>
      <trkpt lat="49.80391" lon="2.44395">
        <ele>43.7</ele>
        <time>2023-08-23T08:57:06Z</time>
      </trkpt>
      <trkpt lat="49.80393" lon="2.44395">
        <ele>43.6</ele>
        <time>2023-08-23T08:57:08Z</time>
      </trkpt>
      <trkpt lat="49.80394" lon="2.44396">
        <ele>43.6</ele>
        <time>2023-08-23T08:57:09Z</time>
      </trkpt>
      <trkpt lat="49.80395" lon="2.44396">
        <ele>43.5</ele>
        <time>2023-08-23T08:57:10Z</time>
      </trkpt>
      <trkpt lat="49.80396" lon="2.44396">
        <ele>43.5</ele>
        <time>2023-08-23T08:57:11Z</time>
      </trkpt>
      <trkpt lat="49.80397" lon="2.44397">
        <ele>43.5</ele>
        <time>2023-08-23T08:57:12Z</time>
      </trkpt>
      <trkpt lat="49.80398" lon="2.44397">
        <ele>43.4</ele>
        <time>2023-08-23T08:57:13Z</time>
      </trkpt>
      <trkpt lat="49.80399" lon="2.44397">
        <ele>43.4</ele>
        <time>2023-08-23T08:57:14Z</time>
      </trkpt>
      <trkpt lat="49.804" lon="2.44397">
        <ele>43.4</ele>
        <time>2023-08-23T08:57:16Z</time>
      </trkpt>
      <trkpt lat="49.80401" lon="2.44397">
        <ele>43.3</ele>
        <time>2023-08-23T08:57:17Z</time>
      </trkpt>
      <trkpt lat="49.80403" lon="2.44398">
        <ele>43.2</ele>
        <time>2023-08-23T08:57:18Z</time>
      </trkpt>
      <trkpt lat="49.80404" lon="2.44398">
        <ele>43.2</ele>
        <time>2023-08-23T08:57:19Z</time>
      </trkpt>
      <trkpt lat="49.80405" lon="2.44399">
        <ele>43.2</ele>
        <time>2023-08-23T08:57:20Z</time>
      </trkpt>
      <trkpt lat="49.80406" lon="2.44399">
        <ele>43.2</ele>
        <time>2023-08-23T08:57:21Z</time>
      </trkpt>
      <trkpt lat="49.80407" lon="2.444">
        <ele>43.1</ele>
        <time>2023-08-23T08:57:22Z</time>
      </trkpt>
      <trkpt lat="49.80409" lon="2.444">
        <ele>43.1</ele>
        <time>2023-08-23T08:57:24Z</time>
      </trkpt>
      <trkpt lat="49.8041" lon="2.44401">
        <ele>43</ele>
        <time>2023-08-23T08:57:25Z</time>
      </trkpt>
      <trkpt lat="49.80411" lon="2.44401">
        <ele>43</ele>
        <time>2023-08-23T08:57:26Z</time>
      </trkpt>
      <trkpt lat="49.80413" lon="2.44402">
        <ele>43</ele>
        <time>2023-08-23T08:57:27Z</time>
      </trkpt>
      <trkpt lat="49.80414" lon="2.44402">
        <ele>42.9</ele>
        <time>2023-08-23T08:57:28Z</time>
      </trkpt>
      <trkpt lat="49.80415" lon="2.44403">
        <ele>42.9</ele>
        <time>2023-08-23T08:57:29Z</time>
      </trkpt>
      <trkpt lat="49.80417" lon="2.44403">
        <ele>42.8</ele>
        <time>2023-08-23T08:57:30Z</time>
      </trkpt>
      <trkpt lat="49.80419" lon="2.44405">
        <ele>42.8</ele>
        <time>2023-08-23T08:57:31Z</time>
      </trkpt>
      <trkpt lat="49.8042" lon="2.44405">
        <ele>42.7</ele>
        <time>2023-08-23T08:57:33Z</time>
      </trkpt>
      <trkpt lat="49.80421" lon="2.44406">
        <ele>42.7</ele>
        <time>2023-08-23T08:57:34Z</time>
      </trkpt>
      <trkpt lat="49.80422" lon="2.44406">
        <ele>42.7</ele>
        <time>2023-08-23T08:57:35Z</time>
      </trkpt>
      <trkpt lat="49.80423" lon="2.44407">
        <ele>42.7</ele>
        <time>2023-08-23T08:57:36Z</time>
      </trkpt>
      <trkpt lat="49.80425" lon="2.44407">
        <ele>42.6</ele>
        <time>2023-08-23T08:57:37Z</time>
      </trkpt>
      <trkpt lat="49.80426" lon="2.44408">
        <ele>42.6</ele>
        <time>2023-08-23T08:57:38Z</time>
      </trkpt>
      <trkpt lat="49.80427" lon="2.44408">
        <ele>42.6</ele>
        <time>2023-08-23T08:57:39Z</time>
      </trkpt>
      <trkpt lat="49.80428" lon="2.44409">
        <ele>42.5</ele>
        <time>2023-08-23T08:57:40Z</time>
      </trkpt>
      <trkpt lat="49.8043" lon="2.44409">
        <ele>42.5</ele>
        <time>2023-08-23T08:57:42Z</time>
      </trkpt>
      <trkpt lat="49.80431" lon="2.4441">
        <ele>42.5</ele>
        <time>2023-08-23T08:57:43Z</time>
      </trkpt>
      <trkpt lat="49.80432" lon="2.4441">
        <ele>42.5</ele>
        <time>2023-08-23T08:57:44Z</time>
      </trkpt>
      <trkpt lat="49.80433" lon="2.44411">
        <ele>42.4</ele>
        <time>2023-08-23T08:57:45Z</time>
      </trkpt>
      <trkpt lat="49.80434" lon="2.44411">
        <ele>42.4</ele>
        <time>2023-08-23T08:57:46Z</time>
      </trkpt>
      <trkpt lat="49.80436" lon="2.44412">
        <ele>42.4</ele>
        <time>2023-08-23T08:57:47Z</time>
      </trkpt>
      <trkpt lat="49.80437" lon="2.44413">
        <ele>42.3</ele>
        <time>2023-08-23T08:57:48Z</time>
      </trkpt>
      <trkpt lat="49.80438" lon="2.44413">
        <ele>42.3</ele>
        <time>2023-08-23T08:57:49Z</time>
      </trkpt>
      <trkpt lat="49.80438" lon="2.44414">
        <ele>42.3</ele>
        <time>2023-08-23T08:57:50Z</time>
      </trkpt>
      <trkpt lat="49.8044" lon="2.44415">
        <ele>42.3</ele>
        <time>2023-08-23T08:57:52Z</time>
      </trkpt>
      <trkpt lat="49.80441" lon="2.44416">
        <ele>42.2</ele>
        <time>2023-08-23T08:57:53Z</time>
      </trkpt>
      <trkpt lat="49.80442" lon="2.44416">
        <ele>42.2</ele>
        <time>2023-08-23T08:57:54Z</time>
      </trkpt>
      <trkpt lat="49.80444" lon="2.44417">
        <ele>42.2</ele>
        <time>2023-08-23T08:57:55Z</time>
      </trkpt>
      <trkpt lat="49.80445" lon="2.44418">
        <ele>42.1</ele>
        <time>2023-08-23T08:57:56Z</time>
      </trkpt>
      <trkpt lat="49.80446" lon="2.44418">
        <ele>42.1</ele>
        <time>2023-08-23T08:57:57Z</time>
      </trkpt>
      <trkpt lat="49.80447" lon="2.44418">
        <ele>42.1</ele>
        <time>2023-08-23T08:57:58Z</time>
      </trkpt>
      <trkpt lat="49.80448" lon="2.44419">
        <ele>42.1</ele>
        <time>2023-08-23T08:57:59Z</time>
      </trkpt>
      <trkpt lat="49.80449" lon="2.4442">
        <ele>42</ele>
        <time>2023-08-23T08:58:01Z</time>
      </trkpt>
      <trkpt lat="49.8045" lon="2.4442">
        <ele>42</ele>
        <time>2023-08-23T08:58:02Z</time>
      </trkpt>
      <trkpt lat="49.80451" lon="2.44421">
        <ele>42</ele>
        <time>2023-08-23T08:58:03Z</time>
      </trkpt>
      <trkpt lat="49.80453" lon="2.44422">
        <ele>42</ele>
        <time>2023-08-23T08:58:04Z</time>
      </trkpt>
      <trkpt lat="49.80454" lon="2.44423">
        <ele>41.9</ele>
        <time>2023-08-23T08:58:05Z</time>
      </trkpt>
      <trkpt lat="49.80455" lon="2.44423">
        <ele>41.9</ele>
        <time>2023-08-23T08:58:06Z</time>
      </trkpt>
      <trkpt lat="49.80456" lon="2.44424">
        <ele>41.9</ele>
        <time>2023-08-23T08:58:07Z</time>
      </trkpt>
      <trkpt lat="49.80457" lon="2.44424">
        <ele>41.9</ele>
        <time>2023-08-23T08:58:08Z</time>
      </trkpt>
      <trkpt lat="49.80458" lon="2.44425">
        <ele>41.8</ele>
        <time>2023-08-23T08:58:10Z</time>
      </trkpt>
      <trkpt lat="49.8046" lon="2.44426">
        <ele>41.8</ele>
        <time>2023-08-23T08:58:11Z</time>
      </trkpt>
      <trkpt lat="49.80461" lon="2.44426">
        <ele>41.8</ele>
        <time>2023-08-23T08:58:12Z</time>
      </trkpt>
      <trkpt lat="49.80464" lon="2.44427">
        <ele>41.7</ele>
        <time>2023-08-23T08:58:14Z</time>
      </trkpt>
      <trkpt lat="49.80465" lon="2.44428">
        <ele>41.7</ele>
        <time>2023-08-23T08:58:15Z</time>
      </trkpt>
      <trkpt lat="49.80466" lon="2.44428">
        <ele>41.7</ele>
        <time>2023-08-23T08:58:16Z</time>
      </trkpt>
      <trkpt lat="49.80468" lon="2.44429">
        <ele>41.7</ele>
        <time>2023-08-23T08:58:17Z</time>
      </trkpt>
      <trkpt lat="49.8047" lon="2.4443">
        <ele>41.6</ele>
        <time>2023-08-23T08:58:18Z</time>
      </trkpt>
      <trkpt lat="49.80471" lon="2.4443">
        <ele>41.6</ele>
        <time>2023-08-23T08:58:20Z</time>
      </trkpt>
      <trkpt lat="49.80471" lon="2.4443">
        <ele>41.6</ele>
        <time>2023-08-23T08:58:21Z</time>
      </trkpt>
      <trkpt lat="49.80473" lon="2.44431">
        <ele>41.6</ele>
        <time>2023-08-23T08:58:22Z</time>
      </trkpt>
      <trkpt lat="49.80474" lon="2.44431">
        <ele>41.6</ele>
        <time>2023-08-23T08:58:23Z</time>
      </trkpt>
      <trkpt lat="49.80476" lon="2.44432">
        <ele>41.5</ele>
        <time>2023-08-23T08:58:24Z</time>
      </trkpt>
      <trkpt lat="49.80477" lon="2.44432">
        <ele>41.5</ele>
        <time>2023-08-23T08:58:25Z</time>
      </trkpt>
      <trkpt lat="49.80478" lon="2.44433">
        <ele>41.5</ele>
        <time>2023-08-23T08:58:26Z</time>
      </trkpt>
      <trkpt lat="49.80479" lon="2.44433">
        <ele>41.4</ele>
        <time>2023-08-23T08:58:27Z</time>
      </trkpt>
      <trkpt lat="49.80481" lon="2.44434">
        <ele>41.4</ele>
        <time>2023-08-23T08:58:29Z</time>
      </trkpt>
      <trkpt lat="49.80482" lon="2.44435">
        <ele>41.4</ele>
        <time>2023-08-23T08:58:30Z</time>
      </trkpt>
      <trkpt lat="49.80484" lon="2.44435">
        <ele>41.4</ele>
        <time>2023-08-23T08:58:31Z</time>
      </trkpt>
      <trkpt lat="49.80485" lon="2.44436">
        <ele>41.3</ele>
        <time>2023-08-23T08:58:32Z</time>
      </trkpt>
      <trkpt lat="49.80486" lon="2.44437">
        <ele>41.3</ele>
        <time>2023-08-23T08:58:34Z</time>
      </trkpt>
      <trkpt lat="49.80487" lon="2.44437">
        <ele>41.2</ele>
        <time>2023-08-23T08:58:35Z</time>
      </trkpt>
      <trkpt lat="49.80488" lon="2.44438">
        <ele>41.2</ele>
        <time>2023-08-23T08:58:36Z</time>
      </trkpt>
      <trkpt lat="49.80489" lon="2.44439">
        <ele>41.2</ele>
        <time>2023-08-23T08:58:37Z</time>
      </trkpt>
      <trkpt lat="49.8049" lon="2.44439">
        <ele>41.1</ele>
        <time>2023-08-23T08:58:38Z</time>
      </trkpt>
      <trkpt lat="49.80492" lon="2.4444">
        <ele>41.1</ele>
        <time>2023-08-23T08:58:39Z</time>
      </trkpt>
      <trkpt lat="49.80493" lon="2.4444">
        <ele>41.1</ele>
        <time>2023-08-23T08:58:40Z</time>
      </trkpt>
      <trkpt lat="49.80495" lon="2.44441">
        <ele>41</ele>
        <time>2023-08-23T08:58:41Z</time>
      </trkpt>
      <trkpt lat="49.80495" lon="2.44441">
        <ele>41</ele>
        <time>2023-08-23T08:58:43Z</time>
      </trkpt>
      <trkpt lat="49.80496" lon="2.44442">
        <ele>40.9</ele>
        <time>2023-08-23T08:58:44Z</time>
      </trkpt>
      <trkpt lat="49.80498" lon="2.44442">
        <ele>40.9</ele>
        <time>2023-08-23T08:58:45Z</time>
      </trkpt>
      <trkpt lat="49.80499" lon="2.44443">
        <ele>40.8</ele>
        <time>2023-08-23T08:58:46Z</time>
      </trkpt>
      <trkpt lat="49.805" lon="2.44443">
        <ele>40.8</ele>
        <time>2023-08-23T08:58:47Z</time>
      </trkpt>
      <trkpt lat="49.80501" lon="2.44443">
        <ele>40.8</ele>
        <time>2023-08-23T08:58:48Z</time>
      </trkpt>
      <trkpt lat="49.80502" lon="2.44443">
        <ele>40.7</ele>
        <time>2023-08-23T08:58:49Z</time>
      </trkpt>
      <trkpt lat="49.80504" lon="2.44444">
        <ele>40.7</ele>
        <time>2023-08-23T08:58:50Z</time>
      </trkpt>
      <trkpt lat="49.80505" lon="2.44444">
        <ele>40.7</ele>
        <time>2023-08-23T08:58:52Z</time>
      </trkpt>
      <trkpt lat="49.80506" lon="2.44444">
        <ele>40.6</ele>
        <time>2023-08-23T08:58:53Z</time>
      </trkpt>
      <trkpt lat="49.80507" lon="2.44444">
        <ele>40.6</ele>
        <time>2023-08-23T08:58:54Z</time>
      </trkpt>
      <trkpt lat="49.80509" lon="2.44445">
        <ele>40.5</ele>
        <time>2023-08-23T08:58:55Z</time>
      </trkpt>
      <trkpt lat="49.8051" lon="2.44446">
        <ele>40.5</ele>
        <time>2023-08-23T08:58:56Z</time>
      </trkpt>
      <trkpt lat="49.80512" lon="2.44446">
        <ele>40.4</ele>
        <time>2023-08-23T08:58:57Z</time>
      </trkpt>
      <trkpt lat="49.80514" lon="2.44447">
        <ele>40.4</ele>
        <time>2023-08-23T08:58:59Z</time>
      </trkpt>
      <trkpt lat="49.80515" lon="2.44447">
        <ele>40.3</ele>
        <time>2023-08-23T08:59:00Z</time>
      </trkpt>
      <trkpt lat="49.80517" lon="2.44448">
        <ele>40.3</ele>
        <time>2023-08-23T08:59:02Z</time>
      </trkpt>
      <trkpt lat="49.80519" lon="2.44449">
        <ele>40.2</ele>
        <time>2023-08-23T08:59:03Z</time>
      </trkpt>
      <trkpt lat="49.8052" lon="2.44449">
        <ele>40.2</ele>
        <time>2023-08-23T08:59:04Z</time>
      </trkpt>
      <trkpt lat="49.80521" lon="2.44449">
        <ele>40.1</ele>
        <time>2023-08-23T08:59:05Z</time>
      </trkpt>
      <trkpt lat="49.80523" lon="2.4445">
        <ele>40.1</ele>
        <time>2023-08-23T08:59:06Z</time>
      </trkpt>
      <trkpt lat="49.80524" lon="2.44451">
        <ele>40</ele>
        <time>2023-08-23T08:59:07Z</time>
      </trkpt>
      <trkpt lat="49.80525" lon="2.44451">
        <ele>40</ele>
        <time>2023-08-23T08:59:09Z</time>
      </trkpt>
      <trkpt lat="49.80526" lon="2.44452">
        <ele>40</ele>
        <time>2023-08-23T08:59:10Z</time>
      </trkpt>
      <trkpt lat="49.80527" lon="2.44453">
        <ele>40</ele>
        <time>2023-08-23T08:59:11Z</time>
      </trkpt>
      <trkpt lat="49.80529" lon="2.44453">
        <ele>39.9</ele>
        <time>2023-08-23T08:59:12Z</time>
      </trkpt>
      <trkpt lat="49.8053" lon="2.44454">
        <ele>39.9</ele>
        <time>2023-08-23T08:59:13Z</time>
      </trkpt>
      <trkpt lat="49.80532" lon="2.44454">
        <ele>39.8</ele>
        <time>2023-08-23T08:59:15Z</time>
      </trkpt>
      <trkpt lat="49.80533" lon="2.44455">
        <ele>39.8</ele>
        <time>2023-08-23T08:59:16Z</time>
      </trkpt>
      <trkpt lat="49.80536" lon="2.44456">
        <ele>39.7</ele>
        <time>2023-08-23T08:59:17Z</time>
      </trkpt>
      <trkpt lat="49.80537" lon="2.44456">
        <ele>39.7</ele>
        <time>2023-08-23T08:59:18Z</time>
      </trkpt>
      <trkpt lat="49.80539" lon="2.44457">
        <ele>39.7</ele>
        <time>2023-08-23T08:59:20Z</time>
      </trkpt>
      <trkpt lat="49.8054" lon="2.44457">
        <ele>39.6</ele>
        <time>2023-08-23T08:59:21Z</time>
      </trkpt>
      <trkpt lat="49.80541" lon="2.44457">
        <ele>39.6</ele>
        <time>2023-08-23T08:59:22Z</time>
      </trkpt>
      <trkpt lat="49.80542" lon="2.44458">
        <ele>39.6</ele>
        <time>2023-08-23T08:59:23Z</time>
      </trkpt>
      <trkpt lat="49.80544" lon="2.44458">
        <ele>39.5</ele>
        <time>2023-08-23T08:59:24Z</time>
      </trkpt>
      <trkpt lat="49.80545" lon="2.44459">
        <ele>39.5</ele>
        <time>2023-08-23T08:59:25Z</time>
      </trkpt>
      <trkpt lat="49.80547" lon="2.44459">
        <ele>39.4</ele>
        <time>2023-08-23T08:59:26Z</time>
      </trkpt>
      <trkpt lat="49.80548" lon="2.4446">
        <ele>39.4</ele>
        <time>2023-08-23T08:59:28Z</time>
      </trkpt>
      <trkpt lat="49.80549" lon="2.4446">
        <ele>39.4</ele>
        <time>2023-08-23T08:59:29Z</time>
      </trkpt>
      <trkpt lat="49.8055" lon="2.4446">
        <ele>39.4</ele>
        <time>2023-08-23T08:59:30Z</time>
      </trkpt>
      <trkpt lat="49.80552" lon="2.44461">
        <ele>39.3</ele>
        <time>2023-08-23T08:59:32Z</time>
      </trkpt>
      <trkpt lat="49.80554" lon="2.44461">
        <ele>39.3</ele>
        <time>2023-08-23T08:59:33Z</time>
      </trkpt>
      <trkpt lat="49.80555" lon="2.44462">
        <ele>39.3</ele>
        <time>2023-08-23T08:59:34Z</time>
      </trkpt>
      <trkpt lat="49.80556" lon="2.44463">
        <ele>39.2</ele>
        <time>2023-08-23T08:59:35Z</time>
      </trkpt>
      <trkpt lat="49.80558" lon="2.44464">
        <ele>39.2</ele>
        <time>2023-08-23T08:59:36Z</time>
      </trkpt>
      <trkpt lat="49.80559" lon="2.44464">
        <ele>39.2</ele>
        <time>2023-08-23T08:59:38Z</time>
      </trkpt>
      <trkpt lat="49.80559" lon="2.44465">
        <ele>39.1</ele>
        <time>2023-08-23T08:59:39Z</time>
      </trkpt>
      <trkpt lat="49.80561" lon="2.44466">
        <ele>39.1</ele>
        <time>2023-08-23T08:59:40Z</time>
      </trkpt>
      <trkpt lat="49.80562" lon="2.44466">
        <ele>39.1</ele>
        <time>2023-08-23T08:59:41Z</time>
      </trkpt>
      <trkpt lat="49.80563" lon="2.44467">
        <ele>39.1</ele>
        <time>2023-08-23T08:59:42Z</time>
      </trkpt>
      <trkpt lat="49.80564" lon="2.44467">
        <ele>39</ele>
        <time>2023-08-23T08:59:44Z</time>
      </trkpt>
      <trkpt lat="49.80565" lon="2.44467">
        <ele>39</ele>
        <time>2023-08-23T08:59:45Z</time>
      </trkpt>
      <trkpt lat="49.80566" lon="2.44468">
        <ele>39</ele>
        <time>2023-08-23T08:59:46Z</time>
      </trkpt>
      <trkpt lat="49.80567" lon="2.44468">
        <ele>39</ele>
        <time>2023-08-23T08:59:47Z</time>
      </trkpt>
      <trkpt lat="49.80569" lon="2.44469">
        <ele>38.9</ele>
        <time>2023-08-23T08:59:49Z</time>
      </trkpt>
      <trkpt lat="49.8057" lon="2.44469">
        <ele>38.9</ele>
        <time>2023-08-23T08:59:50Z</time>
      </trkpt>
      <trkpt lat="49.80571" lon="2.4447">
        <ele>38.9</ele>
        <time>2023-08-23T08:59:51Z</time>
      </trkpt>
      <trkpt lat="49.80572" lon="2.4447">
        <ele>38.8</ele>
        <time>2023-08-23T08:59:52Z</time>
      </trkpt>
      <trkpt lat="49.80573" lon="2.44471">
        <ele>38.8</ele>
        <time>2023-08-23T08:59:53Z</time>
      </trkpt>
      <trkpt lat="49.80574" lon="2.44471">
        <ele>38.8</ele>
        <time>2023-08-23T08:59:54Z</time>
      </trkpt>
      <trkpt lat="49.80575" lon="2.44472">
        <ele>38.8</ele>
        <time>2023-08-23T08:59:56Z</time>
      </trkpt>
      <trkpt lat="49.80576" lon="2.44473">
        <ele>38.8</ele>
        <time>2023-08-23T08:59:57Z</time>
      </trkpt>
      <trkpt lat="49.80578" lon="2.44474">
        <ele>38.8</ele>
        <time>2023-08-23T08:59:58Z</time>
      </trkpt>
      <trkpt lat="49.80579" lon="2.44474">
        <ele>38.7</ele>
        <time>2023-08-23T08:59:59Z</time>
      </trkpt>
      <trkpt lat="49.8058" lon="2.44475">
        <ele>38.7</ele>
        <time>2023-08-23T09:00:00Z</time>
      </trkpt>
      <trkpt lat="49.80581" lon="2.44476">
        <ele>38.7</ele>
        <time>2023-08-23T09:00:01Z</time>
      </trkpt>
      <trkpt lat="49.80583" lon="2.44476">
        <ele>38.7</ele>
        <time>2023-08-23T09:00:03Z</time>
      </trkpt>
      <trkpt lat="49.80584" lon="2.44477">
        <ele>38.7</ele>
        <time>2023-08-23T09:00:04Z</time>
      </trkpt>
      <trkpt lat="49.80585" lon="2.44477">
        <ele>38.7</ele>
        <time>2023-08-23T09:00:05Z</time>
      </trkpt>
      <trkpt lat="49.80588" lon="2.44478">
        <ele>38.7</ele>
        <time>2023-08-23T09:00:07Z</time>
      </trkpt>
      <trkpt lat="49.80588" lon="2.44478">
        <ele>38.7</ele>
        <time>2023-08-23T09:00:08Z</time>
      </trkpt>
      <trkpt lat="49.80589" lon="2.44479">
        <ele>38.6</ele>
        <time>2023-08-23T09:00:09Z</time>
      </trkpt>
      <trkpt lat="49.80591" lon="2.44479">
        <ele>38.6</ele>
        <time>2023-08-23T09:00:10Z</time>
      </trkpt>
      <trkpt lat="49.80593" lon="2.44479">
        <ele>38.6</ele>
        <time>2023-08-23T09:00:12Z</time>
      </trkpt>
      <trkpt lat="49.80594" lon="2.4448">
        <ele>38.6</ele>
        <time>2023-08-23T09:00:13Z</time>
      </trkpt>
      <trkpt lat="49.80595" lon="2.4448">
        <ele>38.6</ele>
        <time>2023-08-23T09:00:14Z</time>
      </trkpt>
      <trkpt lat="49.80597" lon="2.44481">
        <ele>38.6</ele>
        <time>2023-08-23T09:00:15Z</time>
      </trkpt>
      <trkpt lat="49.80598" lon="2.44481">
        <ele>38.5</ele>
        <time>2023-08-23T09:00:16Z</time>
      </trkpt>
      <trkpt lat="49.80599" lon="2.44481">
        <ele>38.5</ele>
        <time>2023-08-23T09:00:17Z</time>
      </trkpt>
      <trkpt lat="49.80601" lon="2.44482">
        <ele>38.5</ele>
        <time>2023-08-23T09:00:18Z</time>
      </trkpt>
      <trkpt lat="49.80602" lon="2.44483">
        <ele>38.4</ele>
        <time>2023-08-23T09:00:20Z</time>
      </trkpt>
      <trkpt lat="49.80604" lon="2.44484">
        <ele>38.4</ele>
        <time>2023-08-23T09:00:21Z</time>
      </trkpt>
      <trkpt lat="49.80605" lon="2.44484">
        <ele>38.4</ele>
        <time>2023-08-23T09:00:22Z</time>
      </trkpt>
      <trkpt lat="49.80605" lon="2.44484">
        <ele>38.4</ele>
        <time>2023-08-23T09:00:23Z</time>
      </trkpt>
      <trkpt lat="49.80607" lon="2.44485">
        <ele>38.3</ele>
        <time>2023-08-23T09:00:24Z</time>
      </trkpt>
      <trkpt lat="49.80608" lon="2.44485">
        <ele>38.3</ele>
        <time>2023-08-23T09:00:25Z</time>
      </trkpt>
      <trkpt lat="49.80609" lon="2.44486">
        <ele>38.2</ele>
        <time>2023-08-23T09:00:26Z</time>
      </trkpt>
      <trkpt lat="49.8061" lon="2.44486">
        <ele>38.2</ele>
        <time>2023-08-23T09:00:27Z</time>
      </trkpt>
      <trkpt lat="49.80611" lon="2.44487">
        <ele>38.2</ele>
        <time>2023-08-23T09:00:28Z</time>
      </trkpt>
      <trkpt lat="49.80612" lon="2.44487">
        <ele>38.1</ele>
        <time>2023-08-23T09:00:30Z</time>
      </trkpt>
      <trkpt lat="49.80614" lon="2.44488">
        <ele>38.1</ele>
        <time>2023-08-23T09:00:31Z</time>
      </trkpt>
      <trkpt lat="49.80615" lon="2.44489">
        <ele>38</ele>
        <time>2023-08-23T09:00:32Z</time>
      </trkpt>
      <trkpt lat="49.80616" lon="2.44489">
        <ele>38</ele>
        <time>2023-08-23T09:00:33Z</time>
      </trkpt>
      <trkpt lat="49.80618" lon="2.44493">
        <ele>37.9</ele>
        <time>2023-08-23T09:00:35Z</time>
      </trkpt>
      <trkpt lat="49.80619" lon="2.44495">
        <ele>37.9</ele>
        <time>2023-08-23T09:00:37Z</time>
      </trkpt>
      <trkpt lat="49.8062" lon="2.44496">
        <ele>37.8</ele>
        <time>2023-08-23T09:00:38Z</time>
      </trkpt>
      <trkpt lat="49.80621" lon="2.44496">
        <ele>37.8</ele>
        <time>2023-08-23T09:00:39Z</time>
      </trkpt>
      <trkpt lat="49.80623" lon="2.44497">
        <ele>37.7</ele>
        <time>2023-08-23T09:00:40Z</time>
      </trkpt>
      <trkpt lat="49.80624" lon="2.44497">
        <ele>37.6</ele>
        <time>2023-08-23T09:00:41Z</time>
      </trkpt>
      <trkpt lat="49.80626" lon="2.44498">
        <ele>37.6</ele>
        <time>2023-08-23T09:00:42Z</time>
      </trkpt>
      <trkpt lat="49.80627" lon="2.44498">
        <ele>37.5</ele>
        <time>2023-08-23T09:00:44Z</time>
      </trkpt>
      <trkpt lat="49.80629" lon="2.44498">
        <ele>37.5</ele>
        <time>2023-08-23T09:00:45Z</time>
      </trkpt>
      <trkpt lat="49.80631" lon="2.44499">
        <ele>37.4</ele>
        <time>2023-08-23T09:00:46Z</time>
      </trkpt>
      <trkpt lat="49.80632" lon="2.44499">
        <ele>37.3</ele>
        <time>2023-08-23T09:00:47Z</time>
      </trkpt>
      <trkpt lat="49.80633" lon="2.445">
        <ele>37.3</ele>
        <time>2023-08-23T09:00:48Z</time>
      </trkpt>
      <trkpt lat="49.80635" lon="2.445">
        <ele>37.2</ele>
        <time>2023-08-23T09:00:49Z</time>
      </trkpt>
      <trkpt lat="49.80635" lon="2.445">
        <ele>37.2</ele>
        <time>2023-08-23T09:00:51Z</time>
      </trkpt>
      <trkpt lat="49.80636" lon="2.445">
        <ele>37.2</ele>
        <time>2023-08-23T09:00:52Z</time>
      </trkpt>
      <trkpt lat="49.80637" lon="2.44501">
        <ele>37.1</ele>
        <time>2023-08-23T09:00:53Z</time>
      </trkpt>
      <trkpt lat="49.80638" lon="2.44501">
        <ele>37.1</ele>
        <time>2023-08-23T09:00:54Z</time>
      </trkpt>
      <trkpt lat="49.8064" lon="2.44501">
        <ele>37</ele>
        <time>2023-08-23T09:00:55Z</time>
      </trkpt>
      <trkpt lat="49.80641" lon="2.44502">
        <ele>37</ele>
        <time>2023-08-23T09:00:56Z</time>
      </trkpt>
      <trkpt lat="49.80642" lon="2.44502">
        <ele>36.9</ele>
        <time>2023-08-23T09:00:58Z</time>
      </trkpt>
      <trkpt lat="49.80645" lon="2.44503">
        <ele>36.8</ele>
        <time>2023-08-23T09:00:59Z</time>
      </trkpt>
      <trkpt lat="49.80646" lon="2.44503">
        <ele>36.8</ele>
        <time>2023-08-23T09:01:01Z</time>
      </trkpt>
      <trkpt lat="49.80647" lon="2.44504">
        <ele>36.7</ele>
        <time>2023-08-23T09:01:02Z</time>
      </trkpt>
      <trkpt lat="49.80648" lon="2.44504">
        <ele>36.7</ele>
        <time>2023-08-23T09:01:03Z</time>
      </trkpt>
      <trkpt lat="49.80649" lon="2.44505">
        <ele>36.7</ele>
        <time>2023-08-23T09:01:04Z</time>
      </trkpt>
      <trkpt lat="49.80651" lon="2.44506">
        <ele>36.6</ele>
        <time>2023-08-23T09:01:06Z</time>
      </trkpt>
      <trkpt lat="49.80652" lon="2.44506">
        <ele>36.5</ele>
        <time>2023-08-23T09:01:07Z</time>
      </trkpt>
      <trkpt lat="49.80653" lon="2.44506">
        <ele>36.5</ele>
        <time>2023-08-23T09:01:08Z</time>
      </trkpt>
      <trkpt lat="49.80654" lon="2.44507">
        <ele>36.5</ele>
        <time>2023-08-23T09:01:09Z</time>
      </trkpt>
      <trkpt lat="49.80655" lon="2.44507">
        <ele>36.4</ele>
        <time>2023-08-23T09:01:10Z</time>
      </trkpt>
      <trkpt lat="49.80656" lon="2.44508">
        <ele>36.4</ele>
        <time>2023-08-23T09:01:11Z</time>
      </trkpt>
      <trkpt lat="49.80658" lon="2.44509">
        <ele>36.3</ele>
        <time>2023-08-23T09:01:12Z</time>
      </trkpt>
      <trkpt lat="49.80659" lon="2.44509">
        <ele>36.2</ele>
        <time>2023-08-23T09:01:13Z</time>
      </trkpt>
      <trkpt lat="49.80659" lon="2.4451">
        <ele>36.2</ele>
        <time>2023-08-23T09:01:14Z</time>
      </trkpt>
      <trkpt lat="49.80664" lon="2.44512">
        <ele>36</ele>
        <time>2023-08-23T09:01:17Z</time>
      </trkpt>
      <trkpt lat="49.80665" lon="2.44513">
        <ele>35.9</ele>
        <time>2023-08-23T09:01:18Z</time>
      </trkpt>
      <trkpt lat="49.80666" lon="2.44513">
        <ele>35.9</ele>
        <time>2023-08-23T09:01:20Z</time>
      </trkpt>
      <trkpt lat="49.80667" lon="2.44514">
        <ele>35.8</ele>
        <time>2023-08-23T09:01:21Z</time>
      </trkpt>
      <trkpt lat="49.80668" lon="2.44514">
        <ele>35.8</ele>
        <time>2023-08-23T09:01:22Z</time>
      </trkpt>
      <trkpt lat="49.80669" lon="2.44515">
        <ele>35.7</ele>
        <time>2023-08-23T09:01:23Z</time>
      </trkpt>
      <trkpt lat="49.8067" lon="2.44516">
        <ele>35.7</ele>
        <time>2023-08-23T09:01:24Z</time>
      </trkpt>
      <trkpt lat="49.80671" lon="2.44516">
        <ele>35.6</ele>
        <time>2023-08-23T09:01:25Z</time>
      </trkpt>
      <trkpt lat="49.80672" lon="2.44517">
        <ele>35.6</ele>
        <time>2023-08-23T09:01:26Z</time>
      </trkpt>
      <trkpt lat="49.80673" lon="2.44517">
        <ele>35.5</ele>
        <time>2023-08-23T09:01:27Z</time>
      </trkpt>
      <trkpt lat="49.80674" lon="2.44518">
        <ele>35.5</ele>
        <time>2023-08-23T09:01:29Z</time>
      </trkpt>
      <trkpt lat="49.80675" lon="2.44519">
        <ele>35.4</ele>
        <time>2023-08-23T09:01:30Z</time>
      </trkpt>
      <trkpt lat="49.80677" lon="2.4452">
        <ele>35.3</ele>
        <time>2023-08-23T09:01:31Z</time>
      </trkpt>
      <trkpt lat="49.80678" lon="2.4452">
        <ele>35.3</ele>
        <time>2023-08-23T09:01:32Z</time>
      </trkpt>
      <trkpt lat="49.80679" lon="2.4452">
        <ele>35.2</ele>
        <time>2023-08-23T09:01:33Z</time>
      </trkpt>
      <trkpt lat="49.80681" lon="2.44521">
        <ele>35.1</ele>
        <time>2023-08-23T09:01:34Z</time>
      </trkpt>
      <trkpt lat="49.80681" lon="2.44522">
        <ele>35.1</ele>
        <time>2023-08-23T09:01:35Z</time>
      </trkpt>
      <trkpt lat="49.80682" lon="2.44522">
        <ele>35</ele>
        <time>2023-08-23T09:01:36Z</time>
      </trkpt>
      <trkpt lat="49.80684" lon="2.44522">
        <ele>35</ele>
        <time>2023-08-23T09:01:38Z</time>
      </trkpt>
      <trkpt lat="49.80685" lon="2.44523">
        <ele>34.9</ele>
        <time>2023-08-23T09:01:39Z</time>
      </trkpt>
      <trkpt lat="49.80687" lon="2.44524">
        <ele>34.8</ele>
        <time>2023-08-23T09:01:40Z</time>
      </trkpt>
      <trkpt lat="49.80688" lon="2.44524">
        <ele>34.7</ele>
        <time>2023-08-23T09:01:41Z</time>
      </trkpt>
      <trkpt lat="49.8069" lon="2.44525">
        <ele>34.7</ele>
        <time>2023-08-23T09:01:42Z</time>
      </trkpt>
      <trkpt lat="49.80691" lon="2.44525">
        <ele>34.6</ele>
        <time>2023-08-23T09:01:44Z</time>
      </trkpt>
      <trkpt lat="49.80692" lon="2.44526">
        <ele>34.6</ele>
        <time>2023-08-23T09:01:45Z</time>
      </trkpt>
      <trkpt lat="49.80694" lon="2.44527">
        <ele>34.5</ele>
        <time>2023-08-23T09:01:46Z</time>
      </trkpt>
      <trkpt lat="49.80696" lon="2.44528">
        <ele>34.4</ele>
        <time>2023-08-23T09:01:47Z</time>
      </trkpt>
      <trkpt lat="49.80697" lon="2.44528">
        <ele>34.4</ele>
        <time>2023-08-23T09:01:48Z</time>
      </trkpt>
      <trkpt lat="49.80698" lon="2.44528">
        <ele>34.4</ele>
        <time>2023-08-23T09:01:49Z</time>
      </trkpt>
      <trkpt lat="49.807" lon="2.4453">
        <ele>34.3</ele>
        <time>2023-08-23T09:01:50Z</time>
      </trkpt>
      <trkpt lat="49.80701" lon="2.4453">
        <ele>34.2</ele>
        <time>2023-08-23T09:01:52Z</time>
      </trkpt>
      <trkpt lat="49.80702" lon="2.4453">
        <ele>34.2</ele>
        <time>2023-08-23T09:01:53Z</time>
      </trkpt>
      <trkpt lat="49.80703" lon="2.44531">
        <ele>34.1</ele>
        <time>2023-08-23T09:01:54Z</time>
      </trkpt>
      <trkpt lat="49.80704" lon="2.44531">
        <ele>34.1</ele>
        <time>2023-08-23T09:01:55Z</time>
      </trkpt>
      <trkpt lat="49.80705" lon="2.44532">
        <ele>34</ele>
        <time>2023-08-23T09:01:56Z</time>
      </trkpt>
      <trkpt lat="49.80707" lon="2.44532">
        <ele>34</ele>
        <time>2023-08-23T09:01:57Z</time>
      </trkpt>
      <trkpt lat="49.80708" lon="2.44531">
        <ele>33.9</ele>
        <time>2023-08-23T09:01:59Z</time>
      </trkpt>
      <trkpt lat="49.80709" lon="2.4453">
        <ele>33.8</ele>
        <time>2023-08-23T09:02:00Z</time>
      </trkpt>
      <trkpt lat="49.8071" lon="2.44529">
        <ele>33.9</ele>
        <time>2023-08-23T09:02:01Z</time>
      </trkpt>
      <trkpt lat="49.80711" lon="2.44527">
        <ele>33.9</ele>
        <time>2023-08-23T09:02:02Z</time>
      </trkpt>
      <trkpt lat="49.80712" lon="2.44525">
        <ele>33.9</ele>
        <time>2023-08-23T09:02:03Z</time>
      </trkpt>
      <trkpt lat="49.80712" lon="2.44523">
        <ele>33.9</ele>
        <time>2023-08-23T09:02:04Z</time>
      </trkpt>
      <trkpt lat="49.80712" lon="2.44521">
        <ele>33.9</ele>
        <time>2023-08-23T09:02:06Z</time>
      </trkpt>
      <trkpt lat="49.80712" lon="2.44519">
        <ele>33.9</ele>
        <time>2023-08-23T09:02:07Z</time>
      </trkpt>
      <trkpt lat="49.80711" lon="2.44514">
        <ele>34</ele>
        <time>2023-08-23T09:02:08Z</time>
      </trkpt>
      <trkpt lat="49.80711" lon="2.44513">
        <ele>34</ele>
        <time>2023-08-23T09:02:09Z</time>
      </trkpt>
      <trkpt lat="49.8071" lon="2.44511">
        <ele>34</ele>
        <time>2023-08-23T09:02:11Z</time>
      </trkpt>
      <trkpt lat="49.8071" lon="2.44508">
        <ele>34</ele>
        <time>2023-08-23T09:02:12Z</time>
      </trkpt>
      <trkpt lat="49.80709" lon="2.44506">
        <ele>34</ele>
        <time>2023-08-23T09:02:13Z</time>
      </trkpt>
      <trkpt lat="49.80709" lon="2.44504">
        <ele>34</ele>
        <time>2023-08-23T09:02:14Z</time>
      </trkpt>
      <trkpt lat="49.80708" lon="2.44501">
        <ele>34</ele>
        <time>2023-08-23T09:02:15Z</time>
      </trkpt>
      <trkpt lat="49.80708" lon="2.44499">
        <ele>34</ele>
        <time>2023-08-23T09:02:16Z</time>
      </trkpt>
      <trkpt lat="49.80707" lon="2.44496">
        <ele>34.1</ele>
        <time>2023-08-23T09:02:18Z</time>
      </trkpt>
      <trkpt lat="49.80707" lon="2.44494">
        <ele>34.1</ele>
        <time>2023-08-23T09:02:19Z</time>
      </trkpt>
      <trkpt lat="49.80706" lon="2.44492">
        <ele>34.1</ele>
        <time>2023-08-23T09:02:20Z</time>
      </trkpt>
      <trkpt lat="49.80705" lon="2.44489">
        <ele>34.1</ele>
        <time>2023-08-23T09:02:21Z</time>
      </trkpt>
      <trkpt lat="49.80705" lon="2.44487">
        <ele>34.1</ele>
        <time>2023-08-23T09:02:22Z</time>
      </trkpt>
      <trkpt lat="49.80705" lon="2.44484">
        <ele>34.1</ele>
        <time>2023-08-23T09:02:23Z</time>
      </trkpt>
      <trkpt lat="49.80704" lon="2.44482">
        <ele>34.1</ele>
        <time>2023-08-23T09:02:24Z</time>
      </trkpt>
      <trkpt lat="49.80704" lon="2.44479">
        <ele>34.1</ele>
        <time>2023-08-23T09:02:25Z</time>
      </trkpt>
      <trkpt lat="49.80704" lon="2.44477">
        <ele>34.1</ele>
        <time>2023-08-23T09:02:27Z</time>
      </trkpt>
      <trkpt lat="49.80704" lon="2.44475">
        <ele>34.1</ele>
        <time>2023-08-23T09:02:28Z</time>
      </trkpt>
      <trkpt lat="49.80704" lon="2.44472">
        <ele>34.2</ele>
        <time>2023-08-23T09:02:29Z</time>
      </trkpt>
      <trkpt lat="49.80704" lon="2.4447">
        <ele>34.2</ele>
        <time>2023-08-23T09:02:30Z</time>
      </trkpt>
      <trkpt lat="49.80703" lon="2.44468">
        <ele>34.2</ele>
        <time>2023-08-23T09:02:31Z</time>
      </trkpt>
      <trkpt lat="49.80703" lon="2.44464">
        <ele>34.2</ele>
        <time>2023-08-23T09:02:33Z</time>
      </trkpt>
      <trkpt lat="49.80703" lon="2.44462">
        <ele>34.2</ele>
        <time>2023-08-23T09:02:35Z</time>
      </trkpt>
      <trkpt lat="49.80703" lon="2.44461">
        <ele>34.2</ele>
        <time>2023-08-23T09:02:36Z</time>
      </trkpt>
      <trkpt lat="49.80703" lon="2.44458">
        <ele>34.2</ele>
        <time>2023-08-23T09:02:38Z</time>
      </trkpt>
      <trkpt lat="49.80703" lon="2.44455">
        <ele>34.2</ele>
        <time>2023-08-23T09:02:39Z</time>
      </trkpt>
      <trkpt lat="49.80702" lon="2.44453">
        <ele>34.2</ele>
        <time>2023-08-23T09:02:40Z</time>
      </trkpt>
      <trkpt lat="49.80702" lon="2.44451">
        <ele>34.2</ele>
        <time>2023-08-23T09:02:41Z</time>
      </trkpt>
      <trkpt lat="49.80702" lon="2.4445">
        <ele>34.2</ele>
        <time>2023-08-23T09:02:43Z</time>
      </trkpt>
      <trkpt lat="49.80702" lon="2.44448">
        <ele>34.2</ele>
        <time>2023-08-23T09:02:44Z</time>
      </trkpt>
      <trkpt lat="49.80702" lon="2.44446">
        <ele>34.2</ele>
        <time>2023-08-23T09:02:45Z</time>
      </trkpt>
      <trkpt lat="49.80702" lon="2.44444">
        <ele>34.2</ele>
        <time>2023-08-23T09:02:46Z</time>
      </trkpt>
      <trkpt lat="49.80702" lon="2.44441">
        <ele>34.2</ele>
        <time>2023-08-23T09:02:47Z</time>
      </trkpt>
      <trkpt lat="49.80702" lon="2.4444">
        <ele>34.2</ele>
        <time>2023-08-23T09:02:48Z</time>
      </trkpt>
      <trkpt lat="49.80702" lon="2.44438">
        <ele>34.2</ele>
        <time>2023-08-23T09:02:49Z</time>
      </trkpt>
      <trkpt lat="49.80702" lon="2.44436">
        <ele>34.2</ele>
        <time>2023-08-23T09:02:50Z</time>
      </trkpt>
      <trkpt lat="49.80702" lon="2.44435">
        <ele>34.2</ele>
        <time>2023-08-23T09:02:51Z</time>
      </trkpt>
      <trkpt lat="49.80702" lon="2.44432">
        <ele>34.2</ele>
        <time>2023-08-23T09:02:53Z</time>
      </trkpt>
      <trkpt lat="49.80702" lon="2.4443">
        <ele>34.2</ele>
        <time>2023-08-23T09:02:54Z</time>
      </trkpt>
      <trkpt lat="49.80702" lon="2.44428">
        <ele>34.2</ele>
        <time>2023-08-23T09:02:55Z</time>
      </trkpt>
      <trkpt lat="49.80701" lon="2.44425">
        <ele>34.2</ele>
        <time>2023-08-23T09:02:56Z</time>
      </trkpt>
      <trkpt lat="49.80701" lon="2.44423">
        <ele>34.2</ele>
        <time>2023-08-23T09:02:57Z</time>
      </trkpt>
      <trkpt lat="49.80701" lon="2.44422">
        <ele>34.2</ele>
        <time>2023-08-23T09:02:58Z</time>
      </trkpt>
      <trkpt lat="49.80701" lon="2.44418">
        <ele>34.2</ele>
        <time>2023-08-23T09:02:59Z</time>
      </trkpt>
      <trkpt lat="49.807" lon="2.44417">
        <ele>34.2</ele>
        <time>2023-08-23T09:03:01Z</time>
      </trkpt>
      <trkpt lat="49.807" lon="2.44415">
        <ele>34.2</ele>
        <time>2023-08-23T09:03:02Z</time>
      </trkpt>
      <trkpt lat="49.807" lon="2.44414">
        <ele>34.2</ele>
        <time>2023-08-23T09:03:03Z</time>
      </trkpt>
      <trkpt lat="49.807" lon="2.44412">
        <ele>34.2</ele>
        <time>2023-08-23T09:03:04Z</time>
      </trkpt>
      <trkpt lat="49.80699" lon="2.4441">
        <ele>34.2</ele>
        <time>2023-08-23T09:03:05Z</time>
      </trkpt>
      <trkpt lat="49.80699" lon="2.44408">
        <ele>34.2</ele>
        <time>2023-08-23T09:03:06Z</time>
      </trkpt>
      <trkpt lat="49.80699" lon="2.44406">
        <ele>34.2</ele>
        <time>2023-08-23T09:03:08Z</time>
      </trkpt>
      <trkpt lat="49.80699" lon="2.44403">
        <ele>34.2</ele>
        <time>2023-08-23T09:03:09Z</time>
      </trkpt>
      <trkpt lat="49.80699" lon="2.44402">
        <ele>34.2</ele>
        <time>2023-08-23T09:03:10Z</time>
      </trkpt>
      <trkpt lat="49.80699" lon="2.444">
        <ele>34.2</ele>
        <time>2023-08-23T09:03:11Z</time>
      </trkpt>
      <trkpt lat="49.80699" lon="2.44398">
        <ele>34.2</ele>
        <time>2023-08-23T09:03:12Z</time>
      </trkpt>
      <trkpt lat="49.80699" lon="2.44395">
        <ele>34.2</ele>
        <time>2023-08-23T09:03:14Z</time>
      </trkpt>
      <trkpt lat="49.80699" lon="2.44393">
        <ele>34.2</ele>
        <time>2023-08-23T09:03:15Z</time>
      </trkpt>
      <trkpt lat="49.80699" lon="2.44392">
        <ele>34.2</ele>
        <time>2023-08-23T09:03:17Z</time>
      </trkpt>
      <trkpt lat="49.80699" lon="2.44391">
        <ele>34.2</ele>
        <time>2023-08-23T09:03:18Z</time>
      </trkpt>
      <trkpt lat="49.80699" lon="2.4439">
        <ele>34.2</ele>
        <time>2023-08-23T09:03:19Z</time>
      </trkpt>
      <trkpt lat="49.80699" lon="2.44388">
        <ele>34.2</ele>
        <time>2023-08-23T09:03:20Z</time>
      </trkpt>
      <trkpt lat="49.80699" lon="2.44386">
        <ele>34.2</ele>
        <time>2023-08-23T09:03:21Z</time>
      </trkpt>
      <trkpt lat="49.807" lon="2.44384">
        <ele>34.1</ele>
        <time>2023-08-23T09:03:22Z</time>
      </trkpt>
      <trkpt lat="49.807" lon="2.44383">
        <ele>34.1</ele>
        <time>2023-08-23T09:03:23Z</time>
      </trkpt>
      <trkpt lat="49.807" lon="2.44382">
        <ele>34.1</ele>
        <time>2023-08-23T09:03:24Z</time>
      </trkpt>
      <trkpt lat="49.807" lon="2.44381">
        <ele>34.1</ele>
        <time>2023-08-23T09:03:25Z</time>
      </trkpt>
      <trkpt lat="49.80701" lon="2.44378">
        <ele>34.1</ele>
        <time>2023-08-23T09:03:27Z</time>
      </trkpt>
      <trkpt lat="49.80701" lon="2.44377">
        <ele>34.1</ele>
        <time>2023-08-23T09:03:28Z</time>
      </trkpt>
      <trkpt lat="49.80701" lon="2.44375">
        <ele>34.1</ele>
        <time>2023-08-23T09:03:29Z</time>
      </trkpt>
      <trkpt lat="49.80701" lon="2.44374">
        <ele>34.1</ele>
        <time>2023-08-23T09:03:31Z</time>
      </trkpt>
      <trkpt lat="49.80702" lon="2.44373">
        <ele>34.1</ele>
        <time>2023-08-23T09:03:32Z</time>
      </trkpt>
      <trkpt lat="49.80702" lon="2.44372">
        <ele>34.1</ele>
        <time>2023-08-23T09:03:33Z</time>
      </trkpt>
      <trkpt lat="49.80702" lon="2.4437">
        <ele>34.1</ele>
        <time>2023-08-23T09:03:34Z</time>
      </trkpt>
      <trkpt lat="49.80703" lon="2.44369">
        <ele>34.1</ele>
        <time>2023-08-23T09:03:36Z</time>
      </trkpt>
      <trkpt lat="49.80703" lon="2.44368">
        <ele>34.1</ele>
        <time>2023-08-23T09:03:37Z</time>
      </trkpt>
      <trkpt lat="49.80704" lon="2.44366">
        <ele>34.1</ele>
        <time>2023-08-23T09:03:38Z</time>
      </trkpt>
      <trkpt lat="49.80705" lon="2.44364">
        <ele>34.1</ele>
        <time>2023-08-23T09:03:39Z</time>
      </trkpt>
      <trkpt lat="49.80705" lon="2.44363">
        <ele>34.1</ele>
        <time>2023-08-23T09:03:40Z</time>
      </trkpt>
      <trkpt lat="49.80705" lon="2.44362">
        <ele>34.1</ele>
        <time>2023-08-23T09:03:41Z</time>
      </trkpt>
      <trkpt lat="49.80706" lon="2.4436">
        <ele>34.1</ele>
        <time>2023-08-23T09:03:43Z</time>
      </trkpt>
      <trkpt lat="49.80706" lon="2.44359">
        <ele>34.1</ele>
        <time>2023-08-23T09:03:44Z</time>
      </trkpt>
      <trkpt lat="49.80707" lon="2.44357">
        <ele>34.1</ele>
        <time>2023-08-23T09:03:45Z</time>
      </trkpt>
      <trkpt lat="49.80707" lon="2.44355">
        <ele>34.1</ele>
        <time>2023-08-23T09:03:46Z</time>
      </trkpt>
      <trkpt lat="49.80708" lon="2.44354">
        <ele>34.1</ele>
        <time>2023-08-23T09:03:47Z</time>
      </trkpt>
      <trkpt lat="49.80708" lon="2.44352">
        <ele>34.1</ele>
        <time>2023-08-23T09:03:48Z</time>
      </trkpt>
      <trkpt lat="49.80709" lon="2.4435">
        <ele>34.1</ele>
        <time>2023-08-23T09:03:49Z</time>
      </trkpt>
      <trkpt lat="49.80709" lon="2.44349">
        <ele>34</ele>
        <time>2023-08-23T09:03:51Z</time>
      </trkpt>
      <trkpt lat="49.80709" lon="2.44347">
        <ele>34</ele>
        <time>2023-08-23T09:03:52Z</time>
      </trkpt>
      <trkpt lat="49.80709" lon="2.44345">
        <ele>34</ele>
        <time>2023-08-23T09:03:53Z</time>
      </trkpt>
      <trkpt lat="49.80709" lon="2.44343">
        <ele>34</ele>
        <time>2023-08-23T09:03:54Z</time>
      </trkpt>
      <trkpt lat="49.8071" lon="2.44341">
        <ele>34</ele>
        <time>2023-08-23T09:03:55Z</time>
      </trkpt>
      <trkpt lat="49.8071" lon="2.44339">
        <ele>34</ele>
        <time>2023-08-23T09:03:56Z</time>
      </trkpt>
      <trkpt lat="49.80709" lon="2.44337">
        <ele>34</ele>
        <time>2023-08-23T09:03:58Z</time>
      </trkpt>
      <trkpt lat="49.80709" lon="2.44335">
        <ele>34</ele>
        <time>2023-08-23T09:03:59Z</time>
      </trkpt>
      <trkpt lat="49.80709" lon="2.44333">
        <ele>34</ele>
        <time>2023-08-23T09:04:00Z</time>
      </trkpt>
      <trkpt lat="49.80708" lon="2.44331">
        <ele>34</ele>
        <time>2023-08-23T09:04:01Z</time>
      </trkpt>
      <trkpt lat="49.80708" lon="2.44329">
        <ele>34</ele>
        <time>2023-08-23T09:04:02Z</time>
      </trkpt>
      <trkpt lat="49.80707" lon="2.44327">
        <ele>34</ele>
        <time>2023-08-23T09:04:04Z</time>
      </trkpt>
      <trkpt lat="49.80707" lon="2.44325">
        <ele>34</ele>
        <time>2023-08-23T09:04:05Z</time>
      </trkpt>
      <trkpt lat="49.80706" lon="2.44323">
        <ele>33.9</ele>
        <time>2023-08-23T09:04:06Z</time>
      </trkpt>
      <trkpt lat="49.80705" lon="2.4432">
        <ele>33.9</ele>
        <time>2023-08-23T09:04:07Z</time>
      </trkpt>
      <trkpt lat="49.80705" lon="2.44318">
        <ele>33.9</ele>
        <time>2023-08-23T09:04:08Z</time>
      </trkpt>
      <trkpt lat="49.80704" lon="2.44315">
        <ele>33.9</ele>
        <time>2023-08-23T09:04:09Z</time>
      </trkpt>
      <trkpt lat="49.80704" lon="2.44313">
        <ele>33.9</ele>
        <time>2023-08-23T09:04:11Z</time>
      </trkpt>
      <trkpt lat="49.80703" lon="2.44311">
        <ele>33.9</ele>
        <time>2023-08-23T09:04:12Z</time>
      </trkpt>
      <trkpt lat="49.80703" lon="2.4431">
        <ele>33.9</ele>
        <time>2023-08-23T09:04:13Z</time>
      </trkpt>
      <trkpt lat="49.80703" lon="2.44308">
        <ele>33.9</ele>
        <time>2023-08-23T09:04:14Z</time>
      </trkpt>
      <trkpt lat="49.80702" lon="2.44306">
        <ele>33.9</ele>
        <time>2023-08-23T09:04:16Z</time>
      </trkpt>
      <trkpt lat="49.80702" lon="2.44303">
        <ele>33.9</ele>
        <time>2023-08-23T09:04:18Z</time>
      </trkpt>
      <trkpt lat="49.80702" lon="2.44303">
        <ele>33.9</ele>
        <time>2023-08-23T09:04:19Z</time>
      </trkpt>
      <trkpt lat="49.80702" lon="2.44301">
        <ele>33.9</ele>
        <time>2023-08-23T09:04:20Z</time>
      </trkpt>
      <trkpt lat="49.80702" lon="2.443">
        <ele>33.9</ele>
        <time>2023-08-23T09:04:21Z</time>
      </trkpt>
      <trkpt lat="49.80702" lon="2.44298">
        <ele>33.9</ele>
        <time>2023-08-23T09:04:22Z</time>
      </trkpt>
      <trkpt lat="49.80702" lon="2.44297">
        <ele>33.9</ele>
        <time>2023-08-23T09:04:24Z</time>
      </trkpt>
      <trkpt lat="49.80702" lon="2.44296">
        <ele>33.9</ele>
        <time>2023-08-23T09:04:25Z</time>
      </trkpt>
      <trkpt lat="49.80701" lon="2.44295">
        <ele>33.9</ele>
        <time>2023-08-23T09:04:26Z</time>
      </trkpt>
      <trkpt lat="49.80701" lon="2.44294">
        <ele>33.9</ele>
        <time>2023-08-23T09:04:27Z</time>
      </trkpt>
      <trkpt lat="49.80701" lon="2.44292">
        <ele>33.9</ele>
        <time>2023-08-23T09:04:28Z</time>
      </trkpt>
      <trkpt lat="49.80701" lon="2.44291">
        <ele>33.9</ele>
        <time>2023-08-23T09:04:30Z</time>
      </trkpt>
      <trkpt lat="49.80701" lon="2.4429">
        <ele>33.9</ele>
        <time>2023-08-23T09:04:31Z</time>
      </trkpt>
      <trkpt lat="49.80701" lon="2.44288">
        <ele>33.9</ele>
        <time>2023-08-23T09:04:32Z</time>
      </trkpt>
      <trkpt lat="49.80701" lon="2.44287">
        <ele>33.9</ele>
        <time>2023-08-23T09:04:33Z</time>
      </trkpt>
      <trkpt lat="49.80701" lon="2.44285">
        <ele>33.9</ele>
        <time>2023-08-23T09:04:34Z</time>
      </trkpt>
      <trkpt lat="49.80701" lon="2.44283">
        <ele>33.9</ele>
        <time>2023-08-23T09:04:35Z</time>
      </trkpt>
      <trkpt lat="49.80701" lon="2.44282">
        <ele>33.9</ele>
        <time>2023-08-23T09:04:36Z</time>
      </trkpt>
      <trkpt lat="49.80701" lon="2.4428">
        <ele>33.9</ele>
        <time>2023-08-23T09:04:37Z</time>
      </trkpt>
      <trkpt lat="49.80701" lon="2.44279">
        <ele>33.9</ele>
        <time>2023-08-23T09:04:39Z</time>
      </trkpt>
      <trkpt lat="49.80701" lon="2.44277">
        <ele>33.9</ele>
        <time>2023-08-23T09:04:40Z</time>
      </trkpt>
      <trkpt lat="49.80701" lon="2.44276">
        <ele>33.9</ele>
        <time>2023-08-23T09:04:41Z</time>
      </trkpt>
      <trkpt lat="49.80701" lon="2.44272">
        <ele>34</ele>
        <time>2023-08-23T09:04:42Z</time>
      </trkpt>
      <trkpt lat="49.80701" lon="2.44271">
        <ele>34</ele>
        <time>2023-08-23T09:04:43Z</time>
      </trkpt>
      <trkpt lat="49.80702" lon="2.4427">
        <ele>34</ele>
        <time>2023-08-23T09:04:44Z</time>
      </trkpt>
      <trkpt lat="49.80702" lon="2.44268">
        <ele>34</ele>
        <time>2023-08-23T09:04:45Z</time>
      </trkpt>
      <trkpt lat="49.80702" lon="2.44267">
        <ele>34</ele>
        <time>2023-08-23T09:04:47Z</time>
      </trkpt>
      <trkpt lat="49.80702" lon="2.44265">
        <ele>34</ele>
        <time>2023-08-23T09:04:48Z</time>
      </trkpt>
      <trkpt lat="49.80702" lon="2.44263">
        <ele>34</ele>
        <time>2023-08-23T09:04:49Z</time>
      </trkpt>
      <trkpt lat="49.80703" lon="2.4426">
        <ele>34</ele>
        <time>2023-08-23T09:04:50Z</time>
      </trkpt>
      <trkpt lat="49.80703" lon="2.44259">
        <ele>34</ele>
        <time>2023-08-23T09:04:52Z</time>
      </trkpt>
      <trkpt lat="49.80703" lon="2.44257">
        <ele>34</ele>
        <time>2023-08-23T09:04:53Z</time>
      </trkpt>
      <trkpt lat="49.80703" lon="2.44255">
        <ele>34</ele>
        <time>2023-08-23T09:04:54Z</time>
      </trkpt>
      <trkpt lat="49.80703" lon="2.44253">
        <ele>34</ele>
        <time>2023-08-23T09:04:55Z</time>
      </trkpt>
      <trkpt lat="49.80703" lon="2.44252">
        <ele>34</ele>
        <time>2023-08-23T09:04:56Z</time>
      </trkpt>
      <trkpt lat="49.80703" lon="2.4425">
        <ele>33.9</ele>
        <time>2023-08-23T09:04:57Z</time>
      </trkpt>
      <trkpt lat="49.80703" lon="2.44248">
        <ele>33.9</ele>
        <time>2023-08-23T09:04:59Z</time>
      </trkpt>
      <trkpt lat="49.80703" lon="2.44247">
        <ele>33.9</ele>
        <time>2023-08-23T09:05:00Z</time>
      </trkpt>
      <trkpt lat="49.80703" lon="2.44245">
        <ele>33.9</ele>
        <time>2023-08-23T09:05:01Z</time>
      </trkpt>
      <trkpt lat="49.80704" lon="2.44243">
        <ele>33.9</ele>
        <time>2023-08-23T09:05:03Z</time>
      </trkpt>
      <trkpt lat="49.80703" lon="2.44243">
        <ele>33.9</ele>
        <time>2023-08-23T09:05:05Z</time>
      </trkpt>
      <trkpt lat="49.80703" lon="2.44243">
        <ele>33.9</ele>
        <time>2023-08-23T09:05:06Z</time>
      </trkpt>
      <trkpt lat="49.80703" lon="2.44243">
        <ele>33.9</ele>
        <time>2023-08-23T09:05:07Z</time>
      </trkpt>
      <trkpt lat="49.80703" lon="2.44243">
        <ele>33.9</ele>
        <time>2023-08-23T09:05:08Z</time>
      </trkpt>
      <trkpt lat="49.80703" lon="2.44244">
        <ele>33.9</ele>
        <time>2023-08-23T09:05:10Z</time>
      </trkpt>
      <trkpt lat="49.80703" lon="2.44243">
        <ele>33.9</ele>
        <time>2023-08-23T09:05:11Z</time>
      </trkpt>
      <trkpt lat="49.80703" lon="2.44243">
        <ele>33.9</ele>
        <time>2023-08-23T09:05:12Z</time>
      </trkpt>
      <trkpt lat="49.80702" lon="2.44242">
        <ele>33.9</ele>
        <time>2023-08-23T09:05:14Z</time>
      </trkpt>
      <trkpt lat="49.80702" lon="2.44241">
        <ele>33.9</ele>
        <time>2023-08-23T09:05:15Z</time>
      </trkpt>
      <trkpt lat="49.80702" lon="2.4424">
        <ele>33.9</ele>
        <time>2023-08-23T09:05:16Z</time>
      </trkpt>
      <trkpt lat="49.80702" lon="2.44239">
        <ele>33.8</ele>
        <time>2023-08-23T09:05:17Z</time>
      </trkpt>
      <trkpt lat="49.80701" lon="2.44237">
        <ele>33.8</ele>
        <time>2023-08-23T09:05:18Z</time>
      </trkpt>
      <trkpt lat="49.807" lon="2.44235">
        <ele>33.8</ele>
        <time>2023-08-23T09:05:20Z</time>
      </trkpt>
      <trkpt lat="49.80698" lon="2.44233">
        <ele>33.8</ele>
        <time>2023-08-23T09:05:21Z</time>
      </trkpt>
      <trkpt lat="49.80697" lon="2.44233">
        <ele>33.8</ele>
        <time>2023-08-23T09:05:22Z</time>
      </trkpt>
      <trkpt lat="49.80697" lon="2.44232">
        <ele>33.8</ele>
        <time>2023-08-23T09:05:23Z</time>
      </trkpt>
      <trkpt lat="49.80695" lon="2.44232">
        <ele>33.7</ele>
        <time>2023-08-23T09:05:25Z</time>
      </trkpt>
      <trkpt lat="49.80694" lon="2.44232">
        <ele>33.7</ele>
        <time>2023-08-23T09:05:26Z</time>
      </trkpt>
      <trkpt lat="49.80693" lon="2.44232">
        <ele>33.7</ele>
        <time>2023-08-23T09:05:27Z</time>
      </trkpt>
      <trkpt lat="49.8069" lon="2.44232">
        <ele>33.7</ele>
        <time>2023-08-23T09:05:28Z</time>
      </trkpt>
      <trkpt lat="49.80689" lon="2.44232">
        <ele>33.7</ele>
        <time>2023-08-23T09:05:29Z</time>
      </trkpt>
      <trkpt lat="49.80688" lon="2.44233">
        <ele>33.7</ele>
        <time>2023-08-23T09:05:30Z</time>
      </trkpt>
      <trkpt lat="49.80686" lon="2.44234">
        <ele>33.7</ele>
        <time>2023-08-23T09:05:32Z</time>
      </trkpt>
      <trkpt lat="49.80684" lon="2.44234">
        <ele>33.7</ele>
        <time>2023-08-23T09:05:34Z</time>
      </trkpt>
      <trkpt lat="49.80683" lon="2.44235">
        <ele>33.7</ele>
        <time>2023-08-23T09:05:35Z</time>
      </trkpt>
      <trkpt lat="49.80681" lon="2.44235">
        <ele>33.7</ele>
        <time>2023-08-23T09:05:37Z</time>
      </trkpt>
      <trkpt lat="49.8068" lon="2.44235">
        <ele>33.7</ele>
        <time>2023-08-23T09:05:38Z</time>
      </trkpt>
      <trkpt lat="49.80679" lon="2.44235">
        <ele>33.7</ele>
        <time>2023-08-23T09:05:39Z</time>
      </trkpt>
      <trkpt lat="49.80678" lon="2.44235">
        <ele>33.7</ele>
        <time>2023-08-23T09:05:40Z</time>
      </trkpt>
      <trkpt lat="49.80677" lon="2.44235">
        <ele>33.7</ele>
        <time>2023-08-23T09:05:41Z</time>
      </trkpt>
      <trkpt lat="49.80676" lon="2.44235">
        <ele>33.7</ele>
        <time>2023-08-23T09:05:42Z</time>
      </trkpt>
      <trkpt lat="49.80675" lon="2.44235">
        <ele>33.7</ele>
        <time>2023-08-23T09:05:44Z</time>
      </trkpt>
      <trkpt lat="49.80674" lon="2.44235">
        <ele>33.7</ele>
        <time>2023-08-23T09:05:45Z</time>
      </trkpt>
      <trkpt lat="49.80673" lon="2.44235">
        <ele>33.7</ele>
        <time>2023-08-23T09:05:46Z</time>
      </trkpt>
      <trkpt lat="49.80672" lon="2.44235">
        <ele>33.7</ele>
        <time>2023-08-23T09:05:47Z</time>
      </trkpt>
      <trkpt lat="49.80671" lon="2.44234">
        <ele>33.7</ele>
        <time>2023-08-23T09:05:48Z</time>
      </trkpt>
      <trkpt lat="49.8067" lon="2.44234">
        <ele>33.7</ele>
        <time>2023-08-23T09:05:49Z</time>
      </trkpt>
      <trkpt lat="49.80669" lon="2.44234">
        <ele>33.7</ele>
        <time>2023-08-23T09:05:51Z</time>
      </trkpt>
      <trkpt lat="49.80668" lon="2.44233">
        <ele>33.8</ele>
        <time>2023-08-23T09:05:52Z</time>
      </trkpt>
      <trkpt lat="49.80667" lon="2.44233">
        <ele>33.8</ele>
        <time>2023-08-23T09:05:53Z</time>
      </trkpt>
      <trkpt lat="49.80666" lon="2.44232">
        <ele>33.8</ele>
        <time>2023-08-23T09:05:54Z</time>
      </trkpt>
      <trkpt lat="49.80665" lon="2.44231">
        <ele>33.9</ele>
        <time>2023-08-23T09:05:55Z</time>
      </trkpt>
      <trkpt lat="49.80664" lon="2.4423">
        <ele>33.9</ele>
        <time>2023-08-23T09:05:56Z</time>
      </trkpt>
      <trkpt lat="49.80664" lon="2.44228">
        <ele>33.8</ele>
        <time>2023-08-23T09:05:58Z</time>
      </trkpt>
      <trkpt lat="49.80663" lon="2.44225">
        <ele>33.8</ele>
        <time>2023-08-23T09:05:59Z</time>
      </trkpt>
      <trkpt lat="49.80662" lon="2.44223">
        <ele>33.8</ele>
        <time>2023-08-23T09:06:00Z</time>
      </trkpt>
      <trkpt lat="49.80662" lon="2.44218">
        <ele>33.8</ele>
        <time>2023-08-23T09:06:01Z</time>
      </trkpt>
      <trkpt lat="49.80662" lon="2.44217">
        <ele>33.8</ele>
        <time>2023-08-23T09:06:02Z</time>
      </trkpt>
      <trkpt lat="49.80662" lon="2.44214">
        <ele>33.8</ele>
        <time>2023-08-23T09:06:04Z</time>
      </trkpt>
      <trkpt lat="49.80662" lon="2.44212">
        <ele>33.7</ele>
        <time>2023-08-23T09:06:05Z</time>
      </trkpt>
      <trkpt lat="49.80663" lon="2.4421">
        <ele>33.7</ele>
        <time>2023-08-23T09:06:06Z</time>
      </trkpt>
      <trkpt lat="49.80663" lon="2.44209">
        <ele>33.7</ele>
        <time>2023-08-23T09:06:07Z</time>
      </trkpt>
      <trkpt lat="49.80663" lon="2.44206">
        <ele>33.7</ele>
        <time>2023-08-23T09:06:09Z</time>
      </trkpt>
      <trkpt lat="49.80664" lon="2.44205">
        <ele>33.7</ele>
        <time>2023-08-23T09:06:10Z</time>
      </trkpt>
      <trkpt lat="49.80664" lon="2.44203">
        <ele>33.7</ele>
        <time>2023-08-23T09:06:11Z</time>
      </trkpt>
      <trkpt lat="49.80664" lon="2.44202">
        <ele>33.7</ele>
        <time>2023-08-23T09:06:12Z</time>
      </trkpt>
      <trkpt lat="49.80664" lon="2.442">
        <ele>33.7</ele>
        <time>2023-08-23T09:06:13Z</time>
      </trkpt>
      <trkpt lat="49.80663" lon="2.44198">
        <ele>33.7</ele>
        <time>2023-08-23T09:06:15Z</time>
      </trkpt>
      <trkpt lat="49.80662" lon="2.44198">
        <ele>33.7</ele>
        <time>2023-08-23T09:06:17Z</time>
      </trkpt>
      <trkpt lat="49.80662" lon="2.44197">
        <ele>33.7</ele>
        <time>2023-08-23T09:06:18Z</time>
      </trkpt>
      <trkpt lat="49.80661" lon="2.44196">
        <ele>33.7</ele>
        <time>2023-08-23T09:06:20Z</time>
      </trkpt>
      <trkpt lat="49.80661" lon="2.44196">
        <ele>33.7</ele>
        <time>2023-08-23T09:06:21Z</time>
      </trkpt>
      <trkpt lat="49.8066" lon="2.44197">
        <ele>33.7</ele>
        <time>2023-08-23T09:06:22Z</time>
      </trkpt>
      <trkpt lat="49.80661" lon="2.44197">
        <ele>33.7</ele>
        <time>2023-08-23T09:06:23Z</time>
      </trkpt>
      <trkpt lat="49.80661" lon="2.44196">
        <ele>33.7</ele>
        <time>2023-08-23T09:06:24Z</time>
      </trkpt>
      <trkpt lat="49.80661" lon="2.44195">
        <ele>33.7</ele>
        <time>2023-08-23T09:06:25Z</time>
      </trkpt>
      <trkpt lat="49.80661" lon="2.44194">
        <ele>33.7</ele>
        <time>2023-08-23T09:06:27Z</time>
      </trkpt>
      <trkpt lat="49.80661" lon="2.44193">
        <ele>33.7</ele>
        <time>2023-08-23T09:06:29Z</time>
      </trkpt>
      <trkpt lat="49.80662" lon="2.44193">
        <ele>33.7</ele>
        <time>2023-08-23T09:06:30Z</time>
      </trkpt>
      <trkpt lat="49.80662" lon="2.44191">
        <ele>33.7</ele>
        <time>2023-08-23T09:06:31Z</time>
      </trkpt>
      <trkpt lat="49.80663" lon="2.44191">
        <ele>33.7</ele>
        <time>2023-08-23T09:06:32Z</time>
      </trkpt>
      <trkpt lat="49.80663" lon="2.44189">
        <ele>33.7</ele>
        <time>2023-08-23T09:06:33Z</time>
      </trkpt>
      <trkpt lat="49.80663" lon="2.44188">
        <ele>33.7</ele>
        <time>2023-08-23T09:06:35Z</time>
      </trkpt>
      <trkpt lat="49.80664" lon="2.44186">
        <ele>33.7</ele>
        <time>2023-08-23T09:06:36Z</time>
      </trkpt>
      <trkpt lat="49.80664" lon="2.44185">
        <ele>33.7</ele>
        <time>2023-08-23T09:06:37Z</time>
      </trkpt>
      <trkpt lat="49.80664" lon="2.44183">
        <ele>33.7</ele>
        <time>2023-08-23T09:06:38Z</time>
      </trkpt>
      <trkpt lat="49.80664" lon="2.44181">
        <ele>33.7</ele>
        <time>2023-08-23T09:06:39Z</time>
      </trkpt>
      <trkpt lat="49.80664" lon="2.44179">
        <ele>33.7</ele>
        <time>2023-08-23T09:06:40Z</time>
      </trkpt>
      <trkpt lat="49.80664" lon="2.44178">
        <ele>33.7</ele>
        <time>2023-08-23T09:06:42Z</time>
      </trkpt>
      <trkpt lat="49.80664" lon="2.44176">
        <ele>33.7</ele>
        <time>2023-08-23T09:06:43Z</time>
      </trkpt>
      <trkpt lat="49.80663" lon="2.44174">
        <ele>33.7</ele>
        <time>2023-08-23T09:06:44Z</time>
      </trkpt>
      <trkpt lat="49.80663" lon="2.44171">
        <ele>33.7</ele>
        <time>2023-08-23T09:06:45Z</time>
      </trkpt>
      <trkpt lat="49.80663" lon="2.4417">
        <ele>33.7</ele>
        <time>2023-08-23T09:06:46Z</time>
      </trkpt>
      <trkpt lat="49.80662" lon="2.44168">
        <ele>33.7</ele>
        <time>2023-08-23T09:06:47Z</time>
      </trkpt>
      <trkpt lat="49.80662" lon="2.44167">
        <ele>33.7</ele>
        <time>2023-08-23T09:06:48Z</time>
      </trkpt>
      <trkpt lat="49.80662" lon="2.44165">
        <ele>33.7</ele>
        <time>2023-08-23T09:06:50Z</time>
      </trkpt>
      <trkpt lat="49.80661" lon="2.44163">
        <ele>33.7</ele>
        <time>2023-08-23T09:06:51Z</time>
      </trkpt>
      <trkpt lat="49.80661" lon="2.4416">
        <ele>33.7</ele>
        <time>2023-08-23T09:06:52Z</time>
      </trkpt>
      <trkpt lat="49.80661" lon="2.44158">
        <ele>33.7</ele>
        <time>2023-08-23T09:06:53Z</time>
      </trkpt>
      <trkpt lat="49.80661" lon="2.44157">
        <ele>33.7</ele>
        <time>2023-08-23T09:06:54Z</time>
      </trkpt>
      <trkpt lat="49.80661" lon="2.44154">
        <ele>33.7</ele>
        <time>2023-08-23T09:06:55Z</time>
      </trkpt>
      <trkpt lat="49.8066" lon="2.44152">
        <ele>33.8</ele>
        <time>2023-08-23T09:06:57Z</time>
      </trkpt>
      <trkpt lat="49.8066" lon="2.44151">
        <ele>33.8</ele>
        <time>2023-08-23T09:06:58Z</time>
      </trkpt>
      <trkpt lat="49.8066" lon="2.44148">
        <ele>33.8</ele>
        <time>2023-08-23T09:07:00Z</time>
      </trkpt>
      <trkpt lat="49.8066" lon="2.44146">
        <ele>33.8</ele>
        <time>2023-08-23T09:07:01Z</time>
      </trkpt>
      <trkpt lat="49.8066" lon="2.44143">
        <ele>33.8</ele>
        <time>2023-08-23T09:07:02Z</time>
      </trkpt>
      <trkpt lat="49.8066" lon="2.44142">
        <ele>33.8</ele>
        <time>2023-08-23T09:07:03Z</time>
      </trkpt>
      <trkpt lat="49.8066" lon="2.44141">
        <ele>33.8</ele>
        <time>2023-08-23T09:07:04Z</time>
      </trkpt>
      <trkpt lat="49.80661" lon="2.44137">
        <ele>33.9</ele>
        <time>2023-08-23T09:07:05Z</time>
      </trkpt>
      <trkpt lat="49.80661" lon="2.44136">
        <ele>33.9</ele>
        <time>2023-08-23T09:07:07Z</time>
      </trkpt>
      <trkpt lat="49.80661" lon="2.44135">
        <ele>33.9</ele>
        <time>2023-08-23T09:07:08Z</time>
      </trkpt>
      <trkpt lat="49.80661" lon="2.44131">
        <ele>33.9</ele>
        <time>2023-08-23T09:07:09Z</time>
      </trkpt>
      <trkpt lat="49.80661" lon="2.44129">
        <ele>33.9</ele>
        <time>2023-08-23T09:07:11Z</time>
      </trkpt>
      <trkpt lat="49.80661" lon="2.44128">
        <ele>33.9</ele>
        <time>2023-08-23T09:07:12Z</time>
      </trkpt>
      <trkpt lat="49.80661" lon="2.44126">
        <ele>34</ele>
        <time>2023-08-23T09:07:13Z</time>
      </trkpt>
      <trkpt lat="49.80661" lon="2.44124">
        <ele>34</ele>
        <time>2023-08-23T09:07:14Z</time>
      </trkpt>
      <trkpt lat="49.80661" lon="2.44123">
        <ele>34</ele>
        <time>2023-08-23T09:07:15Z</time>
      </trkpt>
      <trkpt lat="49.80661" lon="2.44121">
        <ele>34</ele>
        <time>2023-08-23T09:07:17Z</time>
      </trkpt>
      <trkpt lat="49.80662" lon="2.44119">
        <ele>34</ele>
        <time>2023-08-23T09:07:18Z</time>
      </trkpt>
      <trkpt lat="49.80662" lon="2.44116">
        <ele>34</ele>
        <time>2023-08-23T09:07:19Z</time>
      </trkpt>
      <trkpt lat="49.80662" lon="2.44115">
        <ele>34</ele>
        <time>2023-08-23T09:07:20Z</time>
      </trkpt>
      <trkpt lat="49.80662" lon="2.44114">
        <ele>34</ele>
        <time>2023-08-23T09:07:21Z</time>
      </trkpt>
      <trkpt lat="49.80662" lon="2.4411">
        <ele>34.1</ele>
        <time>2023-08-23T09:07:23Z</time>
      </trkpt>
      <trkpt lat="49.80662" lon="2.44109">
        <ele>34.1</ele>
        <time>2023-08-23T09:07:24Z</time>
      </trkpt>
      <trkpt lat="49.80662" lon="2.44107">
        <ele>34.1</ele>
        <time>2023-08-23T09:07:25Z</time>
      </trkpt>
      <trkpt lat="49.80661" lon="2.44105">
        <ele>34.1</ele>
        <time>2023-08-23T09:07:26Z</time>
      </trkpt>
      <trkpt lat="49.8066" lon="2.44104">
        <ele>34.1</ele>
        <time>2023-08-23T09:07:27Z</time>
      </trkpt>
      <trkpt lat="49.80658" lon="2.44103">
        <ele>34.1</ele>
        <time>2023-08-23T09:07:28Z</time>
      </trkpt>
      <trkpt lat="49.80657" lon="2.44102">
        <ele>34.1</ele>
        <time>2023-08-23T09:07:30Z</time>
      </trkpt>
      <trkpt lat="49.80657" lon="2.44101">
        <ele>34.1</ele>
        <time>2023-08-23T09:07:31Z</time>
      </trkpt>
      <trkpt lat="49.80655" lon="2.44102">
        <ele>34.1</ele>
        <time>2023-08-23T09:07:32Z</time>
      </trkpt>
      <trkpt lat="49.80654" lon="2.44102">
        <ele>34.1</ele>
        <time>2023-08-23T09:07:33Z</time>
      </trkpt>
      <trkpt lat="49.80651" lon="2.44102">
        <ele>34.1</ele>
        <time>2023-08-23T09:07:34Z</time>
      </trkpt>
      <trkpt lat="49.8065" lon="2.44102">
        <ele>34.1</ele>
        <time>2023-08-23T09:07:35Z</time>
      </trkpt>
      <trkpt lat="49.8065" lon="2.44101">
        <ele>34.1</ele>
        <time>2023-08-23T09:07:36Z</time>
      </trkpt>
      <trkpt lat="49.80647" lon="2.44101">
        <ele>34.1</ele>
        <time>2023-08-23T09:07:38Z</time>
      </trkpt>
      <trkpt lat="49.80647" lon="2.44101">
        <ele>34.1</ele>
        <time>2023-08-23T09:07:39Z</time>
      </trkpt>
      <trkpt lat="49.80646" lon="2.441">
        <ele>34.1</ele>
        <time>2023-08-23T09:07:40Z</time>
      </trkpt>
      <trkpt lat="49.80644" lon="2.441">
        <ele>34.1</ele>
        <time>2023-08-23T09:07:41Z</time>
      </trkpt>
      <trkpt lat="49.80643" lon="2.441">
        <ele>34.1</ele>
        <time>2023-08-23T09:07:42Z</time>
      </trkpt>
      <trkpt lat="49.80642" lon="2.441">
        <ele>34.1</ele>
        <time>2023-08-23T09:07:43Z</time>
      </trkpt>
      <trkpt lat="49.80641" lon="2.44099">
        <ele>34.1</ele>
        <time>2023-08-23T09:07:45Z</time>
      </trkpt>
      <trkpt lat="49.8064" lon="2.44099">
        <ele>34.2</ele>
        <time>2023-08-23T09:07:46Z</time>
      </trkpt>
      <trkpt lat="49.80639" lon="2.44099">
        <ele>34.2</ele>
        <time>2023-08-23T09:07:47Z</time>
      </trkpt>
      <trkpt lat="49.80638" lon="2.44099">
        <ele>34.2</ele>
        <time>2023-08-23T09:07:48Z</time>
      </trkpt>
      <trkpt lat="49.80636" lon="2.44098">
        <ele>34.2</ele>
        <time>2023-08-23T09:07:49Z</time>
      </trkpt>
      <trkpt lat="49.80635" lon="2.44098">
        <ele>34.2</ele>
        <time>2023-08-23T09:07:50Z</time>
      </trkpt>
      <trkpt lat="49.80634" lon="2.44098">
        <ele>34.2</ele>
        <time>2023-08-23T09:07:51Z</time>
      </trkpt>
      <trkpt lat="49.80633" lon="2.44098">
        <ele>34.2</ele>
        <time>2023-08-23T09:07:53Z</time>
      </trkpt>
      <trkpt lat="49.80632" lon="2.44097">
        <ele>34.2</ele>
        <time>2023-08-23T09:07:54Z</time>
      </trkpt>
      <trkpt lat="49.80631" lon="2.44097">
        <ele>34.3</ele>
        <time>2023-08-23T09:07:55Z</time>
      </trkpt>
      <trkpt lat="49.80631" lon="2.44097">
        <ele>34.3</ele>
        <time>2023-08-23T09:07:56Z</time>
      </trkpt>
      <trkpt lat="49.80631" lon="2.44097">
        <ele>34.3</ele>
        <time>2023-08-23T09:07:57Z</time>
      </trkpt>
      <trkpt lat="49.80631" lon="2.44096">
        <ele>34.3</ele>
        <time>2023-08-23T09:07:59Z</time>
      </trkpt>
      <trkpt lat="49.80631" lon="2.44096">
        <ele>34.3</ele>
        <time>2023-08-23T09:08:00Z</time>
      </trkpt>
      <trkpt lat="49.80631" lon="2.44096">
        <ele>34.3</ele>
        <time>2023-08-23T09:08:01Z</time>
      </trkpt>
      <trkpt lat="49.80631" lon="2.44096">
        <ele>34.3</ele>
        <time>2023-08-23T09:08:03Z</time>
      </trkpt>
      <trkpt lat="49.80631" lon="2.44096">
        <ele>34.3</ele>
        <time>2023-08-23T09:08:04Z</time>
      </trkpt>
      <trkpt lat="49.80631" lon="2.44096">
        <ele>34.3</ele>
        <time>2023-08-23T09:08:06Z</time>
      </trkpt>
      <trkpt lat="49.80631" lon="2.44095">
        <ele>34.3</ele>
        <time>2023-08-23T09:08:07Z</time>
      </trkpt>
      <trkpt lat="49.80631" lon="2.44095">
        <ele>34.3</ele>
        <time>2023-08-23T09:08:09Z</time>
      </trkpt>
      <trkpt lat="49.80631" lon="2.44095">
        <ele>34.3</ele>
        <time>2023-08-23T09:08:10Z</time>
      </trkpt>
      <trkpt lat="49.80631" lon="2.44095">
        <ele>34.3</ele>
        <time>2023-08-23T09:08:11Z</time>
      </trkpt>
      <trkpt lat="49.8063" lon="2.44095">
        <ele>34.3</ele>
        <time>2023-08-23T09:08:13Z</time>
      </trkpt>
      <trkpt lat="49.8063" lon="2.44095">
        <ele>34.3</ele>
        <time>2023-08-23T09:08:14Z</time>
      </trkpt>
      <trkpt lat="49.8063" lon="2.44094">
        <ele>34.3</ele>
        <time>2023-08-23T09:08:16Z</time>
      </trkpt>
      <trkpt lat="49.8063" lon="2.44094">
        <ele>34.3</ele>
        <time>2023-08-23T09:08:17Z</time>
      </trkpt>
      <trkpt lat="49.8063" lon="2.44094">
        <ele>34.3</ele>
        <time>2023-08-23T09:08:18Z</time>
      </trkpt>
      <trkpt lat="49.8063" lon="2.44094">
        <ele>34.3</ele>
        <time>2023-08-23T09:08:19Z</time>
      </trkpt>
      <trkpt lat="49.8063" lon="2.44094">
        <ele>34.3</ele>
        <time>2023-08-23T09:08:20Z</time>
      </trkpt>
      <trkpt lat="49.8063" lon="2.44094">
        <ele>34.3</ele>
        <time>2023-08-23T09:08:21Z</time>
      </trkpt>
      <trkpt lat="49.8063" lon="2.44093">
        <ele>34.3</ele>
        <time>2023-08-23T09:08:22Z</time>
      </trkpt>
      <trkpt lat="49.8063" lon="2.44093">
        <ele>34.3</ele>
        <time>2023-08-23T09:08:23Z</time>
      </trkpt>
      <trkpt lat="49.8063" lon="2.44093">
        <ele>34.3</ele>
        <time>2023-08-23T09:08:24Z</time>
      </trkpt>
      <trkpt lat="49.8063" lon="2.44093">
        <ele>34.3</ele>
        <time>2023-08-23T09:08:25Z</time>
      </trkpt>
      <trkpt lat="49.8063" lon="2.44093">
        <ele>34.3</ele>
        <time>2023-08-23T09:08:26Z</time>
      </trkpt>
      <trkpt lat="49.8063" lon="2.44092">
        <ele>34.3</ele>
        <time>2023-08-23T09:08:27Z</time>
      </trkpt>
      <trkpt lat="49.8063" lon="2.44092">
        <ele>34.3</ele>
        <time>2023-08-23T09:08:28Z</time>
      </trkpt>
      <trkpt lat="49.8063" lon="2.44092">
        <ele>34.3</ele>
        <time>2023-08-23T09:08:29Z</time>
      </trkpt>
      <trkpt lat="49.8063" lon="2.44092">
        <ele>34.3</ele>
        <time>2023-08-23T09:08:30Z</time>
      </trkpt>
      <trkpt lat="49.8063" lon="2.44092">
        <ele>34.3</ele>
        <time>2023-08-23T09:08:31Z</time>
      </trkpt>
      <trkpt lat="49.80629" lon="2.44092">
        <ele>34.3</ele>
        <time>2023-08-23T09:08:32Z</time>
      </trkpt>
      <trkpt lat="49.80629" lon="2.44091">
        <ele>34.3</ele>
        <time>2023-08-23T09:08:33Z</time>
      </trkpt>
      <trkpt lat="49.80629" lon="2.44091">
        <ele>34.3</ele>
        <time>2023-08-23T09:08:34Z</time>
      </trkpt>
      <trkpt lat="49.80629" lon="2.44091">
        <ele>34.3</ele>
        <time>2023-08-23T09:08:36Z</time>
      </trkpt>
      <trkpt lat="49.80629" lon="2.44091">
        <ele>34.3</ele>
        <time>2023-08-23T09:08:37Z</time>
      </trkpt>
      <trkpt lat="49.80629" lon="2.44091">
        <ele>34.3</ele>
        <time>2023-08-23T09:08:39Z</time>
      </trkpt>
      <trkpt lat="49.80629" lon="2.44091">
        <ele>34.3</ele>
        <time>2023-08-23T09:08:40Z</time>
      </trkpt>
      <trkpt lat="49.80629" lon="2.4409">
        <ele>34.3</ele>
        <time>2023-08-23T09:08:42Z</time>
      </trkpt>
      <trkpt lat="49.80629" lon="2.4409">
        <ele>34.3</ele>
        <time>2023-08-23T09:08:43Z</time>
      </trkpt>
      <trkpt lat="49.80629" lon="2.4409">
        <ele>34.3</ele>
        <time>2023-08-23T09:08:45Z</time>
      </trkpt>
      <trkpt lat="49.80629" lon="2.4409">
        <ele>34.3</ele>
        <time>2023-08-23T09:08:46Z</time>
      </trkpt>
      <trkpt lat="49.80629" lon="2.4409">
        <ele>34.3</ele>
        <time>2023-08-23T09:08:47Z</time>
      </trkpt>
      <trkpt lat="49.80629" lon="2.4409">
        <ele>34.3</ele>
        <time>2023-08-23T09:08:49Z</time>
      </trkpt>
      <trkpt lat="49.80629" lon="2.44089">
        <ele>34.3</ele>
        <time>2023-08-23T09:08:50Z</time>
      </trkpt>
      <trkpt lat="49.80629" lon="2.44089">
        <ele>34.3</ele>
        <time>2023-08-23T09:08:51Z</time>
      </trkpt>
      <trkpt lat="49.80629" lon="2.44089">
        <ele>34.3</ele>
        <time>2023-08-23T09:08:52Z</time>
      </trkpt>
      <trkpt lat="49.80629" lon="2.44089">
        <ele>34.3</ele>
        <time>2023-08-23T09:08:53Z</time>
      </trkpt>
      <trkpt lat="49.80629" lon="2.44089">
        <ele>34.3</ele>
        <time>2023-08-23T09:08:54Z</time>
      </trkpt>
      <trkpt lat="49.80629" lon="2.44089">
        <ele>34.3</ele>
        <time>2023-08-23T09:08:55Z</time>
      </trkpt>
      <trkpt lat="49.80628" lon="2.44088">
        <ele>34.3</ele>
        <time>2023-08-23T09:08:57Z</time>
      </trkpt>
      <trkpt lat="49.80628" lon="2.44088">
        <ele>34.3</ele>
        <time>2023-08-23T09:08:58Z</time>
      </trkpt>
      <trkpt lat="49.80628" lon="2.44088">
        <ele>34.3</ele>
        <time>2023-08-23T09:08:59Z</time>
      </trkpt>
      <trkpt lat="49.80627" lon="2.44086">
        <ele>34.3</ele>
        <time>2023-08-23T09:09:00Z</time>
      </trkpt>
      <trkpt lat="49.80626" lon="2.44084">
        <ele>34.3</ele>
        <time>2023-08-23T09:09:02Z</time>
      </trkpt>
      <trkpt lat="49.80625" lon="2.44081">
        <ele>34.3</ele>
        <time>2023-08-23T09:09:03Z</time>
      </trkpt>
      <trkpt lat="49.80624" lon="2.44078">
        <ele>34.3</ele>
        <time>2023-08-23T09:09:05Z</time>
      </trkpt>
      <trkpt lat="49.80624" lon="2.44075">
        <ele>34.3</ele>
        <time>2023-08-23T09:09:06Z</time>
      </trkpt>
      <trkpt lat="49.80624" lon="2.44074">
        <ele>34.3</ele>
        <time>2023-08-23T09:09:07Z</time>
      </trkpt>
      <trkpt lat="49.80623" lon="2.44072">
        <ele>34.3</ele>
        <time>2023-08-23T09:09:08Z</time>
      </trkpt>
      <trkpt lat="49.80623" lon="2.44069">
        <ele>34.2</ele>
        <time>2023-08-23T09:09:09Z</time>
      </trkpt>
      <trkpt lat="49.80623" lon="2.44067">
        <ele>34.2</ele>
        <time>2023-08-23T09:09:10Z</time>
      </trkpt>
      <trkpt lat="49.80623" lon="2.44065">
        <ele>34.2</ele>
        <time>2023-08-23T09:09:12Z</time>
      </trkpt>
      <trkpt lat="49.80622" lon="2.44063">
        <ele>34.2</ele>
        <time>2023-08-23T09:09:13Z</time>
      </trkpt>
      <trkpt lat="49.80622" lon="2.4406">
        <ele>34.2</ele>
        <time>2023-08-23T09:09:14Z</time>
      </trkpt>
      <trkpt lat="49.80621" lon="2.44058">
        <ele>34.2</ele>
        <time>2023-08-23T09:09:15Z</time>
      </trkpt>
      <trkpt lat="49.80621" lon="2.44055">
        <ele>34.2</ele>
        <time>2023-08-23T09:09:16Z</time>
      </trkpt>
      <trkpt lat="49.8062" lon="2.44053">
        <ele>34.2</ele>
        <time>2023-08-23T09:09:18Z</time>
      </trkpt>
      <trkpt lat="49.8062" lon="2.4405">
        <ele>34.2</ele>
        <time>2023-08-23T09:09:19Z</time>
      </trkpt>
      <trkpt lat="49.8062" lon="2.44048">
        <ele>34.2</ele>
        <time>2023-08-23T09:09:20Z</time>
      </trkpt>
      <trkpt lat="49.8062" lon="2.44046">
        <ele>34.2</ele>
        <time>2023-08-23T09:09:21Z</time>
      </trkpt>
      <trkpt lat="49.8062" lon="2.44044">
        <ele>34.2</ele>
        <time>2023-08-23T09:09:22Z</time>
      </trkpt>
      <trkpt lat="49.80621" lon="2.4404">
        <ele>34.2</ele>
        <time>2023-08-23T09:09:23Z</time>
      </trkpt>
      <trkpt lat="49.80621" lon="2.44039">
        <ele>34.2</ele>
        <time>2023-08-23T09:09:25Z</time>
      </trkpt>
      <trkpt lat="49.80621" lon="2.44038">
        <ele>34.2</ele>
        <time>2023-08-23T09:09:26Z</time>
      </trkpt>
      <trkpt lat="49.80622" lon="2.44035">
        <ele>34.2</ele>
        <time>2023-08-23T09:09:27Z</time>
      </trkpt>
      <trkpt lat="49.80622" lon="2.44033">
        <ele>34.2</ele>
        <time>2023-08-23T09:09:28Z</time>
      </trkpt>
      <trkpt lat="49.80622" lon="2.44032">
        <ele>34.2</ele>
        <time>2023-08-23T09:09:29Z</time>
      </trkpt>
      <trkpt lat="49.80622" lon="2.4403">
        <ele>34.2</ele>
        <time>2023-08-23T09:09:30Z</time>
      </trkpt>
      <trkpt lat="49.80623" lon="2.44029">
        <ele>34.2</ele>
        <time>2023-08-23T09:09:31Z</time>
      </trkpt>
      <trkpt lat="49.80623" lon="2.44027">
        <ele>34.2</ele>
        <time>2023-08-23T09:09:32Z</time>
      </trkpt>
      <trkpt lat="49.80624" lon="2.44024">
        <ele>34.2</ele>
        <time>2023-08-23T09:09:33Z</time>
      </trkpt>
      <trkpt lat="49.80624" lon="2.44023">
        <ele>34.2</ele>
        <time>2023-08-23T09:09:35Z</time>
      </trkpt>
      <trkpt lat="49.80624" lon="2.44022">
        <ele>34.2</ele>
        <time>2023-08-23T09:09:36Z</time>
      </trkpt>
      <trkpt lat="49.80625" lon="2.44019">
        <ele>34.3</ele>
        <time>2023-08-23T09:09:37Z</time>
      </trkpt>
      <trkpt lat="49.80625" lon="2.44018">
        <ele>34.3</ele>
        <time>2023-08-23T09:09:38Z</time>
      </trkpt>
      <trkpt lat="49.80625" lon="2.44017">
        <ele>34.3</ele>
        <time>2023-08-23T09:09:39Z</time>
      </trkpt>
      <trkpt lat="49.80625" lon="2.44016">
        <ele>34.3</ele>
        <time>2023-08-23T09:09:41Z</time>
      </trkpt>
      <trkpt lat="49.80625" lon="2.44014">
        <ele>34.3</ele>
        <time>2023-08-23T09:09:42Z</time>
      </trkpt>
      <trkpt lat="49.80625" lon="2.44012">
        <ele>34.3</ele>
        <time>2023-08-23T09:09:43Z</time>
      </trkpt>
      <trkpt lat="49.80625" lon="2.44009">
        <ele>34.3</ele>
        <time>2023-08-23T09:09:44Z</time>
      </trkpt>
      <trkpt lat="49.80625" lon="2.44008">
        <ele>34.3</ele>
        <time>2023-08-23T09:09:45Z</time>
      </trkpt>
      <trkpt lat="49.80625" lon="2.44006">
        <ele>34.3</ele>
        <time>2023-08-23T09:09:47Z</time>
      </trkpt>
      <trkpt lat="49.80625" lon="2.44004">
        <ele>34.3</ele>
        <time>2023-08-23T09:09:48Z</time>
      </trkpt>
      <trkpt lat="49.80625" lon="2.44003">
        <ele>34.4</ele>
        <time>2023-08-23T09:09:49Z</time>
      </trkpt>
      <trkpt lat="49.80625" lon="2.44001">
        <ele>34.4</ele>
        <time>2023-08-23T09:09:50Z</time>
      </trkpt>
      <trkpt lat="49.80625" lon="2.43999">
        <ele>34.4</ele>
        <time>2023-08-23T09:09:51Z</time>
      </trkpt>
      <trkpt lat="49.80625" lon="2.43997">
        <ele>34.4</ele>
        <time>2023-08-23T09:09:52Z</time>
      </trkpt>
      <trkpt lat="49.80625" lon="2.43994">
        <ele>34.4</ele>
        <time>2023-08-23T09:09:53Z</time>
      </trkpt>
      <trkpt lat="49.80625" lon="2.43992">
        <ele>34.4</ele>
        <time>2023-08-23T09:09:54Z</time>
      </trkpt>
      <trkpt lat="49.80625" lon="2.4399">
        <ele>34.5</ele>
        <time>2023-08-23T09:09:56Z</time>
      </trkpt>
      <trkpt lat="49.80625" lon="2.43989">
        <ele>34.5</ele>
        <time>2023-08-23T09:09:58Z</time>
      </trkpt>
      <trkpt lat="49.80625" lon="2.43987">
        <ele>34.5</ele>
        <time>2023-08-23T09:09:59Z</time>
      </trkpt>
      <trkpt lat="49.80624" lon="2.43986">
        <ele>34.5</ele>
        <time>2023-08-23T09:10:00Z</time>
      </trkpt>
      <trkpt lat="49.80624" lon="2.43983">
        <ele>34.5</ele>
        <time>2023-08-23T09:10:01Z</time>
      </trkpt>
      <trkpt lat="49.80624" lon="2.43981">
        <ele>34.5</ele>
        <time>2023-08-23T09:10:02Z</time>
      </trkpt>
      <trkpt lat="49.80624" lon="2.4398">
        <ele>34.6</ele>
        <time>2023-08-23T09:10:03Z</time>
      </trkpt>
      <trkpt lat="49.80624" lon="2.43978">
        <ele>34.6</ele>
        <time>2023-08-23T09:10:04Z</time>
      </trkpt>
      <trkpt lat="49.80624" lon="2.43977">
        <ele>34.6</ele>
        <time>2023-08-23T09:10:05Z</time>
      </trkpt>
      <trkpt lat="49.80623" lon="2.43975">
        <ele>34.6</ele>
        <time>2023-08-23T09:10:07Z</time>
      </trkpt>
      <trkpt lat="49.80623" lon="2.43973">
        <ele>34.6</ele>
        <time>2023-08-23T09:10:08Z</time>
      </trkpt>
      <trkpt lat="49.80622" lon="2.43971">
        <ele>34.7</ele>
        <time>2023-08-23T09:10:09Z</time>
      </trkpt>
      <trkpt lat="49.80622" lon="2.43969">
        <ele>34.7</ele>
        <time>2023-08-23T09:10:11Z</time>
      </trkpt>
      <trkpt lat="49.8062" lon="2.43966">
        <ele>34.7</ele>
        <time>2023-08-23T09:10:12Z</time>
      </trkpt>
      <trkpt lat="49.8062" lon="2.43964">
        <ele>34.8</ele>
        <time>2023-08-23T09:10:13Z</time>
      </trkpt>
      <trkpt lat="49.80619" lon="2.43963">
        <ele>34.8</ele>
        <time>2023-08-23T09:10:14Z</time>
      </trkpt>
      <trkpt lat="49.80619" lon="2.4396">
        <ele>34.8</ele>
        <time>2023-08-23T09:10:15Z</time>
      </trkpt>
      <trkpt lat="49.80617" lon="2.43957">
        <ele>34.9</ele>
        <time>2023-08-23T09:10:17Z</time>
      </trkpt>
      <trkpt lat="49.80617" lon="2.43955">
        <ele>34.9</ele>
        <time>2023-08-23T09:10:18Z</time>
      </trkpt>
      <trkpt lat="49.80617" lon="2.43954">
        <ele>34.9</ele>
        <time>2023-08-23T09:10:19Z</time>
      </trkpt>
      <trkpt lat="49.80616" lon="2.43951">
        <ele>35</ele>
        <time>2023-08-23T09:10:21Z</time>
      </trkpt>
      <trkpt lat="49.80615" lon="2.4395">
        <ele>35</ele>
        <time>2023-08-23T09:10:22Z</time>
      </trkpt>
      <trkpt lat="49.80615" lon="2.43949">
        <ele>35</ele>
        <time>2023-08-23T09:10:23Z</time>
      </trkpt>
      <trkpt lat="49.80614" lon="2.43948">
        <ele>35</ele>
        <time>2023-08-23T09:10:24Z</time>
      </trkpt>
      <trkpt lat="49.80613" lon="2.43946">
        <ele>35.1</ele>
        <time>2023-08-23T09:10:25Z</time>
      </trkpt>
      <trkpt lat="49.80612" lon="2.43945">
        <ele>35.1</ele>
        <time>2023-08-23T09:10:27Z</time>
      </trkpt>
      <trkpt lat="49.8061" lon="2.43943">
        <ele>35.1</ele>
        <time>2023-08-23T09:10:28Z</time>
      </trkpt>
      <trkpt lat="49.80609" lon="2.43942">
        <ele>35.1</ele>
        <time>2023-08-23T09:10:29Z</time>
      </trkpt>
      <trkpt lat="49.80609" lon="2.43942">
        <ele>35.2</ele>
        <time>2023-08-23T09:10:30Z</time>
      </trkpt>
      <trkpt lat="49.80607" lon="2.43941">
        <ele>35.2</ele>
        <time>2023-08-23T09:10:31Z</time>
      </trkpt>
      <trkpt lat="49.80606" lon="2.4394">
        <ele>35.3</ele>
        <time>2023-08-23T09:10:32Z</time>
      </trkpt>
      <trkpt lat="49.80604" lon="2.4394">
        <ele>35.3</ele>
        <time>2023-08-23T09:10:33Z</time>
      </trkpt>
      <trkpt lat="49.80603" lon="2.4394">
        <ele>35.3</ele>
        <time>2023-08-23T09:10:34Z</time>
      </trkpt>
      <trkpt lat="49.80601" lon="2.4394">
        <ele>35.3</ele>
        <time>2023-08-23T09:10:35Z</time>
      </trkpt>
      <trkpt lat="49.806" lon="2.4394">
        <ele>35.3</ele>
        <time>2023-08-23T09:10:36Z</time>
      </trkpt>
      <trkpt lat="49.80597" lon="2.4394">
        <ele>35.4</ele>
        <time>2023-08-23T09:10:38Z</time>
      </trkpt>
      <trkpt lat="49.80596" lon="2.4394">
        <ele>35.4</ele>
        <time>2023-08-23T09:10:39Z</time>
      </trkpt>
      <trkpt lat="49.80594" lon="2.43941">
        <ele>35.4</ele>
        <time>2023-08-23T09:10:40Z</time>
      </trkpt>
      <trkpt lat="49.80593" lon="2.43941">
        <ele>35.4</ele>
        <time>2023-08-23T09:10:42Z</time>
      </trkpt>
      <trkpt lat="49.80592" lon="2.43941">
        <ele>35.4</ele>
        <time>2023-08-23T09:10:43Z</time>
      </trkpt>
      <trkpt lat="49.80591" lon="2.43941">
        <ele>35.4</ele>
        <time>2023-08-23T09:10:44Z</time>
      </trkpt>
      <trkpt lat="49.80589" lon="2.43941">
        <ele>35.5</ele>
        <time>2023-08-23T09:10:45Z</time>
      </trkpt>
      <trkpt lat="49.80587" lon="2.43941">
        <ele>35.5</ele>
        <time>2023-08-23T09:10:46Z</time>
      </trkpt>
      <trkpt lat="49.80587" lon="2.43941">
        <ele>35.5</ele>
        <time>2023-08-23T09:10:47Z</time>
      </trkpt>
      <trkpt lat="49.80586" lon="2.43941">
        <ele>35.5</ele>
        <time>2023-08-23T09:10:48Z</time>
      </trkpt>
      <trkpt lat="49.80584" lon="2.43942">
        <ele>35.5</ele>
        <time>2023-08-23T09:10:49Z</time>
      </trkpt>
      <trkpt lat="49.80583" lon="2.43942">
        <ele>35.6</ele>
        <time>2023-08-23T09:10:51Z</time>
      </trkpt>
      <trkpt lat="49.80582" lon="2.43942">
        <ele>35.6</ele>
        <time>2023-08-23T09:10:52Z</time>
      </trkpt>
      <trkpt lat="49.80581" lon="2.43943">
        <ele>35.6</ele>
        <time>2023-08-23T09:10:53Z</time>
      </trkpt>
      <trkpt lat="49.8058" lon="2.43943">
        <ele>35.6</ele>
        <time>2023-08-23T09:10:54Z</time>
      </trkpt>
      <trkpt lat="49.80578" lon="2.43943">
        <ele>35.6</ele>
        <time>2023-08-23T09:10:56Z</time>
      </trkpt>
      <trkpt lat="49.80576" lon="2.43943">
        <ele>35.7</ele>
        <time>2023-08-23T09:10:57Z</time>
      </trkpt>
      <trkpt lat="49.80575" lon="2.43943">
        <ele>35.7</ele>
        <time>2023-08-23T09:10:59Z</time>
      </trkpt>
      <trkpt lat="49.80574" lon="2.43942">
        <ele>35.7</ele>
        <time>2023-08-23T09:11:00Z</time>
      </trkpt>
      <trkpt lat="49.80573" lon="2.43941">
        <ele>35.7</ele>
        <time>2023-08-23T09:11:01Z</time>
      </trkpt>
      <trkpt lat="49.80572" lon="2.43939">
        <ele>35.8</ele>
        <time>2023-08-23T09:11:03Z</time>
      </trkpt>
      <trkpt lat="49.80571" lon="2.43937">
        <ele>35.8</ele>
        <time>2023-08-23T09:11:04Z</time>
      </trkpt>
      <trkpt lat="49.8057" lon="2.43937">
        <ele>35.8</ele>
        <time>2023-08-23T09:11:05Z</time>
      </trkpt>
      <trkpt lat="49.80568" lon="2.43937">
        <ele>35.8</ele>
        <time>2023-08-23T09:11:06Z</time>
      </trkpt>
      <trkpt lat="49.80567" lon="2.43937">
        <ele>35.9</ele>
        <time>2023-08-23T09:11:08Z</time>
      </trkpt>
      <trkpt lat="49.80564" lon="2.43937">
        <ele>35.9</ele>
        <time>2023-08-23T09:11:09Z</time>
      </trkpt>
      <trkpt lat="49.80563" lon="2.43936">
        <ele>35.9</ele>
        <time>2023-08-23T09:11:10Z</time>
      </trkpt>
      <trkpt lat="49.80562" lon="2.43936">
        <ele>36</ele>
        <time>2023-08-23T09:11:11Z</time>
      </trkpt>
      <trkpt lat="49.80561" lon="2.43935">
        <ele>36</ele>
        <time>2023-08-23T09:11:12Z</time>
      </trkpt>
      <trkpt lat="49.80559" lon="2.43934">
        <ele>36</ele>
        <time>2023-08-23T09:11:13Z</time>
      </trkpt>
      <trkpt lat="49.80558" lon="2.43932">
        <ele>36</ele>
        <time>2023-08-23T09:11:14Z</time>
      </trkpt>
      <trkpt lat="49.80557" lon="2.43932">
        <ele>36.1</ele>
        <time>2023-08-23T09:11:16Z</time>
      </trkpt>
      <trkpt lat="49.80556" lon="2.43931">
        <ele>36.1</ele>
        <time>2023-08-23T09:11:17Z</time>
      </trkpt>
      <trkpt lat="49.80554" lon="2.43931">
        <ele>36.1</ele>
        <time>2023-08-23T09:11:18Z</time>
      </trkpt>
      <trkpt lat="49.80553" lon="2.4393">
        <ele>36.1</ele>
        <time>2023-08-23T09:11:20Z</time>
      </trkpt>
      <trkpt lat="49.80552" lon="2.43929">
        <ele>36.1</ele>
        <time>2023-08-23T09:11:21Z</time>
      </trkpt>
      <trkpt lat="49.80551" lon="2.43928">
        <ele>36.2</ele>
        <time>2023-08-23T09:11:22Z</time>
      </trkpt>
      <trkpt lat="49.8055" lon="2.43928">
        <ele>36.2</ele>
        <time>2023-08-23T09:11:23Z</time>
      </trkpt>
      <trkpt lat="49.8055" lon="2.43927">
        <ele>36.2</ele>
        <time>2023-08-23T09:11:24Z</time>
      </trkpt>
      <trkpt lat="49.80549" lon="2.43926">
        <ele>36.2</ele>
        <time>2023-08-23T09:11:25Z</time>
      </trkpt>
      <trkpt lat="49.80548" lon="2.43925">
        <ele>36.3</ele>
        <time>2023-08-23T09:11:26Z</time>
      </trkpt>
      <trkpt lat="49.80547" lon="2.43925">
        <ele>36.3</ele>
        <time>2023-08-23T09:11:28Z</time>
      </trkpt>
      <trkpt lat="49.80546" lon="2.43925">
        <ele>36.3</ele>
        <time>2023-08-23T09:11:29Z</time>
      </trkpt>
      <trkpt lat="49.80545" lon="2.43924">
        <ele>36.3</ele>
        <time>2023-08-23T09:11:30Z</time>
      </trkpt>
      <trkpt lat="49.80544" lon="2.43924">
        <ele>36.3</ele>
        <time>2023-08-23T09:11:31Z</time>
      </trkpt>
      <trkpt lat="49.80543" lon="2.43924">
        <ele>36.4</ele>
        <time>2023-08-23T09:11:32Z</time>
      </trkpt>
      <trkpt lat="49.80542" lon="2.43924">
        <ele>36.4</ele>
        <time>2023-08-23T09:11:33Z</time>
      </trkpt>
      <trkpt lat="49.80541" lon="2.43924">
        <ele>36.4</ele>
        <time>2023-08-23T09:11:35Z</time>
      </trkpt>
      <trkpt lat="49.8054" lon="2.43924">
        <ele>36.4</ele>
        <time>2023-08-23T09:11:36Z</time>
      </trkpt>
      <trkpt lat="49.80539" lon="2.43924">
        <ele>36.5</ele>
        <time>2023-08-23T09:11:37Z</time>
      </trkpt>
      <trkpt lat="49.80538" lon="2.43924">
        <ele>36.5</ele>
        <time>2023-08-23T09:11:38Z</time>
      </trkpt>
      <trkpt lat="49.80536" lon="2.43924">
        <ele>36.5</ele>
        <time>2023-08-23T09:11:39Z</time>
      </trkpt>
      <trkpt lat="49.80535" lon="2.43924">
        <ele>36.5</ele>
        <time>2023-08-23T09:11:40Z</time>
      </trkpt>
      <trkpt lat="49.80534" lon="2.43924">
        <ele>36.5</ele>
        <time>2023-08-23T09:11:42Z</time>
      </trkpt>
      <trkpt lat="49.80533" lon="2.43924">
        <ele>36.6</ele>
        <time>2023-08-23T09:11:43Z</time>
      </trkpt>
      <trkpt lat="49.80532" lon="2.43924">
        <ele>36.6</ele>
        <time>2023-08-23T09:11:44Z</time>
      </trkpt>
      <trkpt lat="49.80531" lon="2.43923">
        <ele>36.6</ele>
        <time>2023-08-23T09:11:45Z</time>
      </trkpt>
      <trkpt lat="49.8053" lon="2.43923">
        <ele>36.6</ele>
        <time>2023-08-23T09:11:46Z</time>
      </trkpt>
      <trkpt lat="49.80529" lon="2.43922">
        <ele>36.7</ele>
        <time>2023-08-23T09:11:47Z</time>
      </trkpt>
      <trkpt lat="49.80528" lon="2.43922">
        <ele>36.7</ele>
        <time>2023-08-23T09:11:49Z</time>
      </trkpt>
      <trkpt lat="49.80527" lon="2.43922">
        <ele>36.7</ele>
        <time>2023-08-23T09:11:50Z</time>
      </trkpt>
      <trkpt lat="49.80526" lon="2.43921">
        <ele>36.7</ele>
        <time>2023-08-23T09:11:51Z</time>
      </trkpt>
      <trkpt lat="49.80525" lon="2.43921">
        <ele>36.7</ele>
        <time>2023-08-23T09:11:52Z</time>
      </trkpt>
      <trkpt lat="49.80524" lon="2.4392">
        <ele>36.8</ele>
        <time>2023-08-23T09:11:53Z</time>
      </trkpt>
      <trkpt lat="49.80523" lon="2.43919">
        <ele>36.8</ele>
        <time>2023-08-23T09:11:54Z</time>
      </trkpt>
      <trkpt lat="49.80521" lon="2.43918">
        <ele>36.8</ele>
        <time>2023-08-23T09:11:55Z</time>
      </trkpt>
      <trkpt lat="49.8052" lon="2.43917">
        <ele>36.8</ele>
        <time>2023-08-23T09:11:57Z</time>
      </trkpt>
      <trkpt lat="49.80519" lon="2.43916">
        <ele>36.8</ele>
        <time>2023-08-23T09:11:58Z</time>
      </trkpt>
      <trkpt lat="49.80518" lon="2.43914">
        <ele>36.8</ele>
        <time>2023-08-23T09:11:59Z</time>
      </trkpt>
      <trkpt lat="49.80517" lon="2.43913">
        <ele>36.8</ele>
        <time>2023-08-23T09:12:00Z</time>
      </trkpt>
      <trkpt lat="49.80515" lon="2.4391">
        <ele>36.8</ele>
        <time>2023-08-23T09:12:01Z</time>
      </trkpt>
      <trkpt lat="49.80514" lon="2.43909">
        <ele>36.8</ele>
        <time>2023-08-23T09:12:03Z</time>
      </trkpt>
      <trkpt lat="49.80514" lon="2.43907">
        <ele>36.8</ele>
        <time>2023-08-23T09:12:04Z</time>
      </trkpt>
      <trkpt lat="49.80513" lon="2.43906">
        <ele>36.8</ele>
        <time>2023-08-23T09:12:05Z</time>
      </trkpt>
      <trkpt lat="49.80513" lon="2.43905">
        <ele>36.8</ele>
        <time>2023-08-23T09:12:06Z</time>
      </trkpt>
      <trkpt lat="49.80512" lon="2.43903">
        <ele>36.8</ele>
        <time>2023-08-23T09:12:07Z</time>
      </trkpt>
      <trkpt lat="49.80512" lon="2.43901">
        <ele>36.8</ele>
        <time>2023-08-23T09:12:08Z</time>
      </trkpt>
      <trkpt lat="49.80511" lon="2.43897">
        <ele>36.8</ele>
        <time>2023-08-23T09:12:10Z</time>
      </trkpt>
      <trkpt lat="49.80511" lon="2.43896">
        <ele>36.8</ele>
        <time>2023-08-23T09:12:11Z</time>
      </trkpt>
      <trkpt lat="49.80511" lon="2.43895">
        <ele>36.8</ele>
        <time>2023-08-23T09:12:12Z</time>
      </trkpt>
      <trkpt lat="49.80511" lon="2.43893">
        <ele>36.8</ele>
        <time>2023-08-23T09:12:13Z</time>
      </trkpt>
      <trkpt lat="49.80511" lon="2.4389">
        <ele>36.8</ele>
        <time>2023-08-23T09:12:14Z</time>
      </trkpt>
      <trkpt lat="49.80511" lon="2.43887">
        <ele>36.8</ele>
        <time>2023-08-23T09:12:15Z</time>
      </trkpt>
      <trkpt lat="49.8051" lon="2.43886">
        <ele>36.8</ele>
        <time>2023-08-23T09:12:17Z</time>
      </trkpt>
      <trkpt lat="49.8051" lon="2.43885">
        <ele>36.8</ele>
        <time>2023-08-23T09:12:18Z</time>
      </trkpt>
      <trkpt lat="49.80509" lon="2.43883">
        <ele>36.8</ele>
        <time>2023-08-23T09:12:19Z</time>
      </trkpt>
      <trkpt lat="49.80508" lon="2.4388">
        <ele>36.8</ele>
        <time>2023-08-23T09:12:20Z</time>
      </trkpt>
      <trkpt lat="49.80508" lon="2.43879">
        <ele>36.8</ele>
        <time>2023-08-23T09:12:22Z</time>
      </trkpt>
      <trkpt lat="49.80508" lon="2.43878">
        <ele>36.8</ele>
        <time>2023-08-23T09:12:23Z</time>
      </trkpt>
      <trkpt lat="49.80507" lon="2.43876">
        <ele>36.8</ele>
        <time>2023-08-23T09:12:24Z</time>
      </trkpt>
      <trkpt lat="49.80507" lon="2.43875">
        <ele>36.8</ele>
        <time>2023-08-23T09:12:25Z</time>
      </trkpt>
      <trkpt lat="49.80507" lon="2.43873">
        <ele>36.8</ele>
        <time>2023-08-23T09:12:26Z</time>
      </trkpt>
      <trkpt lat="49.80507" lon="2.43873">
        <ele>36.8</ele>
        <time>2023-08-23T09:12:27Z</time>
      </trkpt>
      <trkpt lat="49.80507" lon="2.43871">
        <ele>36.8</ele>
        <time>2023-08-23T09:12:29Z</time>
      </trkpt>
      <trkpt lat="49.80507" lon="2.43871">
        <ele>36.8</ele>
        <time>2023-08-23T09:12:30Z</time>
      </trkpt>
      <trkpt lat="49.80506" lon="2.4387">
        <ele>36.8</ele>
        <time>2023-08-23T09:12:31Z</time>
      </trkpt>
      <trkpt lat="49.80506" lon="2.43868">
        <ele>36.8</ele>
        <time>2023-08-23T09:12:32Z</time>
      </trkpt>
      <trkpt lat="49.80505" lon="2.43867">
        <ele>36.8</ele>
        <time>2023-08-23T09:12:33Z</time>
      </trkpt>
      <trkpt lat="49.80505" lon="2.43865">
        <ele>36.8</ele>
        <time>2023-08-23T09:12:35Z</time>
      </trkpt>
      <trkpt lat="49.80504" lon="2.43864">
        <ele>36.8</ele>
        <time>2023-08-23T09:12:37Z</time>
      </trkpt>
      <trkpt lat="49.80504" lon="2.43863">
        <ele>36.8</ele>
        <time>2023-08-23T09:12:38Z</time>
      </trkpt>
      <trkpt lat="49.80504" lon="2.43862">
        <ele>36.8</ele>
        <time>2023-08-23T09:12:40Z</time>
      </trkpt>
      <trkpt lat="49.80505" lon="2.43862">
        <ele>36.8</ele>
        <time>2023-08-23T09:12:41Z</time>
      </trkpt>
      <trkpt lat="49.80505" lon="2.43863">
        <ele>36.8</ele>
        <time>2023-08-23T09:12:42Z</time>
      </trkpt>
      <trkpt lat="49.80505" lon="2.43863">
        <ele>36.8</ele>
        <time>2023-08-23T09:12:44Z</time>
      </trkpt>
      <trkpt lat="49.80505" lon="2.43863">
        <ele>36.8</ele>
        <time>2023-08-23T09:12:45Z</time>
      </trkpt>
      <trkpt lat="49.80505" lon="2.43863">
        <ele>36.8</ele>
        <time>2023-08-23T09:12:47Z</time>
      </trkpt>
      <trkpt lat="49.80505" lon="2.43863">
        <ele>36.8</ele>
        <time>2023-08-23T09:12:48Z</time>
      </trkpt>
      <trkpt lat="49.80505" lon="2.43863">
        <ele>36.8</ele>
        <time>2023-08-23T09:12:49Z</time>
      </trkpt>
      <trkpt lat="49.80505" lon="2.43863">
        <ele>36.8</ele>
        <time>2023-08-23T09:12:51Z</time>
      </trkpt>
      <trkpt lat="49.80505" lon="2.43863">
        <ele>36.8</ele>
        <time>2023-08-23T09:12:53Z</time>
      </trkpt>
      <trkpt lat="49.80505" lon="2.43863">
        <ele>36.8</ele>
        <time>2023-08-23T09:12:54Z</time>
      </trkpt>
      <trkpt lat="49.80505" lon="2.43863">
        <ele>36.8</ele>
        <time>2023-08-23T09:12:55Z</time>
      </trkpt>
      <trkpt lat="49.80505" lon="2.43863">
        <ele>36.8</ele>
        <time>2023-08-23T09:12:57Z</time>
      </trkpt>
      <trkpt lat="49.80505" lon="2.43864">
        <ele>36.8</ele>
        <time>2023-08-23T09:12:58Z</time>
      </trkpt>
      <trkpt lat="49.80505" lon="2.43864">
        <ele>36.8</ele>
        <time>2023-08-23T09:12:59Z</time>
      </trkpt>
      <trkpt lat="49.80505" lon="2.43864">
        <ele>36.8</ele>
        <time>2023-08-23T09:13:00Z</time>
      </trkpt>
      <trkpt lat="49.80505" lon="2.43865">
        <ele>36.8</ele>
        <time>2023-08-23T09:13:01Z</time>
      </trkpt>
      <trkpt lat="49.80505" lon="2.43865">
        <ele>36.8</ele>
        <time>2023-08-23T09:13:02Z</time>
      </trkpt>
      <trkpt lat="49.80505" lon="2.43865">
        <ele>36.8</ele>
        <time>2023-08-23T09:13:03Z</time>
      </trkpt>
      <trkpt lat="49.80505" lon="2.43865">
        <ele>36.8</ele>
        <time>2023-08-23T09:13:04Z</time>
      </trkpt>
      <trkpt lat="49.80505" lon="2.43865">
        <ele>36.8</ele>
        <time>2023-08-23T09:13:05Z</time>
      </trkpt>
      <trkpt lat="49.80505" lon="2.43865">
        <ele>36.8</ele>
        <time>2023-08-23T09:13:06Z</time>
      </trkpt>
      <trkpt lat="49.80505" lon="2.43865">
        <ele>36.8</ele>
        <time>2023-08-23T09:13:07Z</time>
      </trkpt>
      <trkpt lat="49.80505" lon="2.43865">
        <ele>36.8</ele>
        <time>2023-08-23T09:13:08Z</time>
      </trkpt>
      <trkpt lat="49.80505" lon="2.43865">
        <ele>36.8</ele>
        <time>2023-08-23T09:13:09Z</time>
      </trkpt>
      <trkpt lat="49.80505" lon="2.43865">
        <ele>36.8</ele>
        <time>2023-08-23T09:13:10Z</time>
      </trkpt>
      <trkpt lat="49.80505" lon="2.43865">
        <ele>36.8</ele>
        <time>2023-08-23T09:13:11Z</time>
      </trkpt>
      <trkpt lat="49.80505" lon="2.43865">
        <ele>36.8</ele>
        <time>2023-08-23T09:13:12Z</time>
      </trkpt>
      <trkpt lat="49.80505" lon="2.43865">
        <ele>36.8</ele>
        <time>2023-08-23T09:13:13Z</time>
      </trkpt>
      <trkpt lat="49.80505" lon="2.43865">
        <ele>36.8</ele>
        <time>2023-08-23T09:13:14Z</time>
      </trkpt>
      <trkpt lat="49.80505" lon="2.43865">
        <ele>36.8</ele>
        <time>2023-08-23T09:13:15Z</time>
      </trkpt>
      <trkpt lat="49.80505" lon="2.43865">
        <ele>36.8</ele>
        <time>2023-08-23T09:13:16Z</time>
      </trkpt>
      <trkpt lat="49.80505" lon="2.43865">
        <ele>36.8</ele>
        <time>2023-08-23T09:13:17Z</time>
      </trkpt>
      <trkpt lat="49.80505" lon="2.43865">
        <ele>36.8</ele>
        <time>2023-08-23T09:13:18Z</time>
      </trkpt>
      <trkpt lat="49.80505" lon="2.43865">
        <ele>36.8</ele>
        <time>2023-08-23T09:13:19Z</time>
      </trkpt>
      <trkpt lat="49.80505" lon="2.43865">
        <ele>36.8</ele>
        <time>2023-08-23T09:13:20Z</time>
      </trkpt>
      <trkpt lat="49.80505" lon="2.43865">
        <ele>36.8</ele>
        <time>2023-08-23T09:13:21Z</time>
      </trkpt>
      <trkpt lat="49.80505" lon="2.43865">
        <ele>36.8</ele>
        <time>2023-08-23T09:13:22Z</time>
      </trkpt>
      <trkpt lat="49.80505" lon="2.43865">
        <ele>36.8</ele>
        <time>2023-08-23T09:13:23Z</time>
      </trkpt>
      <trkpt lat="49.80505" lon="2.43865">
        <ele>36.8</ele>
        <time>2023-08-23T09:13:24Z</time>
      </trkpt>
      <trkpt lat="49.80505" lon="2.43865">
        <ele>36.8</ele>
        <time>2023-08-23T09:13:25Z</time>
      </trkpt>
      <trkpt lat="49.80505" lon="2.43865">
        <ele>36.8</ele>
        <time>2023-08-23T09:13:26Z</time>
      </trkpt>
      <trkpt lat="49.80505" lon="2.43865">
        <ele>36.8</ele>
        <time>2023-08-23T09:13:27Z</time>
      </trkpt>
      <trkpt lat="49.80505" lon="2.43865">
        <ele>36.8</ele>
        <time>2023-08-23T09:13:28Z</time>
      </trkpt>
      <trkpt lat="49.80505" lon="2.43865">
        <ele>36.8</ele>
        <time>2023-08-23T09:13:29Z</time>
      </trkpt>
      <trkpt lat="49.80505" lon="2.43865">
        <ele>36.8</ele>
        <time>2023-08-23T09:13:30Z</time>
      </trkpt>
      <trkpt lat="49.80505" lon="2.43865">
        <ele>36.8</ele>
        <time>2023-08-23T09:13:31Z</time>
      </trkpt>
      <trkpt lat="49.80505" lon="2.43865">
        <ele>36.8</ele>
        <time>2023-08-23T09:13:32Z</time>
      </trkpt>
      <trkpt lat="49.80505" lon="2.43865">
        <ele>36.8</ele>
        <time>2023-08-23T09:13:33Z</time>
      </trkpt>
      <trkpt lat="49.80505" lon="2.43865">
        <ele>36.8</ele>
        <time>2023-08-23T09:13:34Z</time>
      </trkpt>
      <trkpt lat="49.80505" lon="2.43865">
        <ele>36.8</ele>
        <time>2023-08-23T09:13:35Z</time>
      </trkpt>
      <trkpt lat="49.80505" lon="2.43865">
        <ele>36.8</ele>
        <time>2023-08-23T09:13:36Z</time>
      </trkpt>
      <trkpt lat="49.80505" lon="2.43865">
        <ele>36.8</ele>
        <time>2023-08-23T09:13:37Z</time>
      </trkpt>
      <trkpt lat="49.80505" lon="2.43865">
        <ele>36.8</ele>
        <time>2023-08-23T09:13:38Z</time>
      </trkpt>
      <trkpt lat="49.80505" lon="2.43865">
        <ele>36.8</ele>
        <time>2023-08-23T09:13:39Z</time>
      </trkpt>
      <trkpt lat="49.80505" lon="2.43865">
        <ele>36.8</ele>
        <time>2023-08-23T09:13:40Z</time>
      </trkpt>
      <trkpt lat="49.80505" lon="2.43865">
        <ele>36.8</ele>
        <time>2023-08-23T09:13:41Z</time>
      </trkpt>
      <trkpt lat="49.80505" lon="2.43865">
        <ele>36.8</ele>
        <time>2023-08-23T09:13:42Z</time>
      </trkpt>
      <trkpt lat="49.80505" lon="2.43865">
        <ele>36.8</ele>
        <time>2023-08-23T09:13:43Z</time>
      </trkpt>
      <trkpt lat="49.80505" lon="2.43865">
        <ele>36.8</ele>
        <time>2023-08-23T09:13:44Z</time>
      </trkpt>
      <trkpt lat="49.80505" lon="2.43865">
        <ele>36.8</ele>
        <time>2023-08-23T09:13:45Z</time>
      </trkpt>
      <trkpt lat="49.80505" lon="2.43865">
        <ele>36.8</ele>
        <time>2023-08-23T09:13:46Z</time>
      </trkpt>
      <trkpt lat="49.80506" lon="2.43867">
        <ele>36.8</ele>
        <time>2023-08-23T09:13:47Z</time>
      </trkpt>
      <trkpt lat="49.80507" lon="2.43869">
        <ele>36.8</ele>
        <time>2023-08-23T09:13:48Z</time>
      </trkpt>
      <trkpt lat="49.80507" lon="2.43869">
        <ele>36.8</ele>
        <time>2023-08-23T09:13:49Z</time>
      </trkpt>
      <trkpt lat="49.80507" lon="2.43868">
        <ele>36.8</ele>
        <time>2023-08-23T09:13:50Z</time>
      </trkpt>
      <trkpt lat="49.80507" lon="2.43868">
        <ele>36.8</ele>
        <time>2023-08-23T09:13:51Z</time>
      </trkpt>
      <trkpt lat="49.80507" lon="2.43868">
        <ele>36.8</ele>
        <time>2023-08-23T09:13:52Z</time>
      </trkpt>
      <trkpt lat="49.80507" lon="2.43868">
        <ele>36.8</ele>
        <time>2023-08-23T09:13:53Z</time>
      </trkpt>
      <trkpt lat="49.80507" lon="2.43868">
        <ele>36.8</ele>
        <time>2023-08-23T09:13:54Z</time>
      </trkpt>
      <trkpt lat="49.80507" lon="2.43868">
        <ele>36.8</ele>
        <time>2023-08-23T09:13:55Z</time>
      </trkpt>
      <trkpt lat="49.80507" lon="2.43868">
        <ele>36.8</ele>
        <time>2023-08-23T09:13:56Z</time>
      </trkpt>
      <trkpt lat="49.80507" lon="2.43868">
        <ele>36.8</ele>
        <time>2023-08-23T09:13:57Z</time>
      </trkpt>
      <trkpt lat="49.80507" lon="2.43868">
        <ele>36.8</ele>
        <time>2023-08-23T09:13:58Z</time>
      </trkpt>
      <trkpt lat="49.80507" lon="2.43868">
        <ele>36.8</ele>
        <time>2023-08-23T09:13:59Z</time>
      </trkpt>
      <trkpt lat="49.80507" lon="2.43868">
        <ele>36.8</ele>
        <time>2023-08-23T09:14:00Z</time>
      </trkpt>
      <trkpt lat="49.80507" lon="2.43868">
        <ele>36.8</ele>
        <time>2023-08-23T09:14:01Z</time>
      </trkpt>
      <trkpt lat="49.80507" lon="2.43868">
        <ele>36.8</ele>
        <time>2023-08-23T09:14:02Z</time>
      </trkpt>
      <trkpt lat="49.80507" lon="2.43868">
        <ele>36.8</ele>
        <time>2023-08-23T09:14:03Z</time>
      </trkpt>
      <trkpt lat="49.80507" lon="2.43868">
        <ele>36.8</ele>
        <time>2023-08-23T09:14:04Z</time>
      </trkpt>
      <trkpt lat="49.80507" lon="2.43868">
        <ele>36.8</ele>
        <time>2023-08-23T09:14:05Z</time>
      </trkpt>
      <trkpt lat="49.80507" lon="2.43868">
        <ele>36.8</ele>
        <time>2023-08-23T09:14:06Z</time>
      </trkpt>
      <trkpt lat="49.80507" lon="2.43868">
        <ele>36.8</ele>
        <time>2023-08-23T09:14:07Z</time>
      </trkpt>
      <trkpt lat="49.80507" lon="2.43868">
        <ele>36.8</ele>
        <time>2023-08-23T09:14:08Z</time>
      </trkpt>
      <trkpt lat="49.80507" lon="2.43868">
        <ele>36.8</ele>
        <time>2023-08-23T09:14:09Z</time>
      </trkpt>
      <trkpt lat="49.80507" lon="2.43868">
        <ele>36.8</ele>
        <time>2023-08-23T09:14:10Z</time>
      </trkpt>
      <trkpt lat="49.80507" lon="2.43868">
        <ele>36.8</ele>
        <time>2023-08-23T09:14:11Z</time>
      </trkpt>
      <trkpt lat="49.80507" lon="2.43868">
        <ele>36.8</ele>
        <time>2023-08-23T09:14:12Z</time>
      </trkpt>
      <trkpt lat="49.80507" lon="2.43868">
        <ele>36.8</ele>
        <time>2023-08-23T09:14:13Z</time>
      </trkpt>
      <trkpt lat="49.80507" lon="2.43868">
        <ele>36.8</ele>
        <time>2023-08-23T09:14:14Z</time>
      </trkpt>
      <trkpt lat="49.80507" lon="2.43868">
        <ele>36.8</ele>
        <time>2023-08-23T09:14:15Z</time>
      </trkpt>
      <trkpt lat="49.80507" lon="2.43868">
        <ele>36.8</ele>
        <time>2023-08-23T09:14:16Z</time>
      </trkpt>
      <trkpt lat="49.80507" lon="2.43868">
        <ele>36.8</ele>
        <time>2023-08-23T09:14:17Z</time>
      </trkpt>
      <trkpt lat="49.80507" lon="2.43868">
        <ele>36.8</ele>
        <time>2023-08-23T09:14:18Z</time>
      </trkpt>
      <trkpt lat="49.80507" lon="2.43868">
        <ele>36.8</ele>
        <time>2023-08-23T09:14:19Z</time>
      </trkpt>
      <trkpt lat="49.80507" lon="2.43868">
        <ele>36.8</ele>
        <time>2023-08-23T09:14:20Z</time>
      </trkpt>
      <trkpt lat="49.80507" lon="2.43868">
        <ele>36.8</ele>
        <time>2023-08-23T09:14:21Z</time>
      </trkpt>
      <trkpt lat="49.80507" lon="2.43868">
        <ele>36.8</ele>
        <time>2023-08-23T09:14:22Z</time>
      </trkpt>
      <trkpt lat="49.80507" lon="2.43868">
        <ele>36.8</ele>
        <time>2023-08-23T09:14:23Z</time>
      </trkpt>
      <trkpt lat="49.80507" lon="2.43868">
        <ele>36.8</ele>
        <time>2023-08-23T09:14:24Z</time>
      </trkpt>
      <trkpt lat="49.80507" lon="2.43868">
        <ele>36.8</ele>
        <time>2023-08-23T09:14:25Z</time>
      </trkpt>
      <trkpt lat="49.80507" lon="2.43868">
        <ele>36.8</ele>
        <time>2023-08-23T09:14:26Z</time>
      </trkpt>
      <trkpt lat="49.80507" lon="2.43868">
        <ele>36.8</ele>
        <time>2023-08-23T09:14:27Z</time>
      </trkpt>
      <trkpt lat="49.80507" lon="2.43868">
        <ele>36.8</ele>
        <time>2023-08-23T09:14:28Z</time>
      </trkpt>
      <trkpt lat="49.80507" lon="2.43868">
        <ele>36.8</ele>
        <time>2023-08-23T09:14:29Z</time>
      </trkpt>
      <trkpt lat="49.80507" lon="2.43868">
        <ele>36.8</ele>
        <time>2023-08-23T09:14:30Z</time>
      </trkpt>
      <trkpt lat="49.80507" lon="2.43868">
        <ele>36.8</ele>
        <time>2023-08-23T09:14:31Z</time>
      </trkpt>
      <trkpt lat="49.80507" lon="2.43868">
        <ele>36.8</ele>
        <time>2023-08-23T09:14:32Z</time>
      </trkpt>
      <trkpt lat="49.80507" lon="2.43868">
        <ele>36.8</ele>
        <time>2023-08-23T09:14:33Z</time>
      </trkpt>
      <trkpt lat="49.80507" lon="2.43868">
        <ele>36.8</ele>
        <time>2023-08-23T09:14:34Z</time>
      </trkpt>
      <trkpt lat="49.80507" lon="2.43868">
        <ele>36.8</ele>
        <time>2023-08-23T09:14:35Z</time>
      </trkpt>
      <trkpt lat="49.80507" lon="2.43868">
        <ele>36.8</ele>
        <time>2023-08-23T09:14:36Z</time>
      </trkpt>
      <trkpt lat="49.80507" lon="2.43868">
        <ele>36.8</ele>
        <time>2023-08-23T09:14:37Z</time>
      </trkpt>
      <trkpt lat="49.80507" lon="2.43868">
        <ele>36.8</ele>
        <time>2023-08-23T09:14:38Z</time>
      </trkpt>
      <trkpt lat="49.80507" lon="2.43868">
        <ele>36.8</ele>
        <time>2023-08-23T09:14:39Z</time>
      </trkpt>
      <trkpt lat="49.80507" lon="2.43868">
        <ele>36.8</ele>
        <time>2023-08-23T09:14:40Z</time>
      </trkpt>
      <trkpt lat="49.80507" lon="2.43868">
        <ele>36.8</ele>
        <time>2023-08-23T09:14:41Z</time>
      </trkpt>
      <trkpt lat="49.80507" lon="2.43868">
        <ele>36.8</ele>
        <time>2023-08-23T09:14:42Z</time>
      </trkpt>
      <trkpt lat="49.80507" lon="2.43868">
        <ele>36.8</ele>
        <time>2023-08-23T09:14:43Z</time>
      </trkpt>
      <trkpt lat="49.80507" lon="2.43868">
        <ele>36.8</ele>
        <time>2023-08-23T09:14:44Z</time>
      </trkpt>
      <trkpt lat="49.80507" lon="2.43868">
        <ele>36.8</ele>
        <time>2023-08-23T09:14:45Z</time>
      </trkpt>
      <trkpt lat="49.80507" lon="2.43868">
        <ele>36.8</ele>
        <time>2023-08-23T09:14:46Z</time>
      </trkpt>
      <trkpt lat="49.80507" lon="2.43868">
        <ele>36.8</ele>
        <time>2023-08-23T09:14:47Z</time>
      </trkpt>
      <trkpt lat="49.80507" lon="2.43868">
        <ele>36.8</ele>
        <time>2023-08-23T09:14:48Z</time>
      </trkpt>
      <trkpt lat="49.80507" lon="2.43868">
        <ele>36.8</ele>
        <time>2023-08-23T09:14:49Z</time>
      </trkpt>
      <trkpt lat="49.80507" lon="2.43868">
        <ele>36.8</ele>
        <time>2023-08-23T09:14:50Z</time>
      </trkpt>
      <trkpt lat="49.80507" lon="2.43868">
        <ele>36.8</ele>
        <time>2023-08-23T09:14:51Z</time>
      </trkpt>
      <trkpt lat="49.80507" lon="2.43868">
        <ele>36.8</ele>
        <time>2023-08-23T09:14:52Z</time>
      </trkpt>
      <trkpt lat="49.80507" lon="2.43868">
        <ele>36.8</ele>
        <time>2023-08-23T09:14:53Z</time>
      </trkpt>
      <trkpt lat="49.80507" lon="2.43868">
        <ele>36.8</ele>
        <time>2023-08-23T09:14:54Z</time>
      </trkpt>
      <trkpt lat="49.80507" lon="2.43868">
        <ele>36.8</ele>
        <time>2023-08-23T09:14:55Z</time>
      </trkpt>
      <trkpt lat="49.80507" lon="2.43868">
        <ele>36.8</ele>
        <time>2023-08-23T09:14:56Z</time>
      </trkpt>
      <trkpt lat="49.80507" lon="2.43868">
        <ele>36.8</ele>
        <time>2023-08-23T09:14:57Z</time>
      </trkpt>
      <trkpt lat="49.80507" lon="2.43868">
        <ele>36.8</ele>
        <time>2023-08-23T09:14:58Z</time>
      </trkpt>
      <trkpt lat="49.80507" lon="2.43868">
        <ele>36.8</ele>
        <time>2023-08-23T09:14:59Z</time>
      </trkpt>
      <trkpt lat="49.80507" lon="2.43868">
        <ele>36.8</ele>
        <time>2023-08-23T09:15:00Z</time>
      </trkpt>
      <trkpt lat="49.80507" lon="2.43868">
        <ele>36.8</ele>
        <time>2023-08-23T09:15:01Z</time>
      </trkpt>
      <trkpt lat="49.80507" lon="2.43868">
        <ele>36.8</ele>
        <time>2023-08-23T09:15:02Z</time>
      </trkpt>
      <trkpt lat="49.80507" lon="2.43868">
        <ele>36.8</ele>
        <time>2023-08-23T09:15:03Z</time>
      </trkpt>
      <trkpt lat="49.80507" lon="2.43868">
        <ele>36.8</ele>
        <time>2023-08-23T09:15:04Z</time>
      </trkpt>
      <trkpt lat="49.80507" lon="2.43868">
        <ele>36.8</ele>
        <time>2023-08-23T09:15:05Z</time>
      </trkpt>
      <trkpt lat="49.80507" lon="2.43868">
        <ele>36.8</ele>
        <time>2023-08-23T09:15:06Z</time>
      </trkpt>
      <trkpt lat="49.80507" lon="2.43868">
        <ele>36.8</ele>
        <time>2023-08-23T09:15:07Z</time>
      </trkpt>
      <trkpt lat="49.80507" lon="2.43868">
        <ele>36.8</ele>
        <time>2023-08-23T09:15:08Z</time>
      </trkpt>
      <trkpt lat="49.80507" lon="2.43868">
        <ele>36.8</ele>
        <time>2023-08-23T09:15:09Z</time>
      </trkpt>
      <trkpt lat="49.80507" lon="2.43868">
        <ele>36.8</ele>
        <time>2023-08-23T09:15:10Z</time>
      </trkpt>
      <trkpt lat="49.80507" lon="2.43868">
        <ele>36.8</ele>
        <time>2023-08-23T09:15:11Z</time>
      </trkpt>
      <trkpt lat="49.80507" lon="2.43868">
        <ele>36.8</ele>
        <time>2023-08-23T09:15:12Z</time>
      </trkpt>
      <trkpt lat="49.80507" lon="2.43868">
        <ele>36.8</ele>
        <time>2023-08-23T09:15:13Z</time>
      </trkpt>
      <trkpt lat="49.80507" lon="2.43868">
        <ele>36.8</ele>
        <time>2023-08-23T09:15:14Z</time>
      </trkpt>
      <trkpt lat="49.80507" lon="2.43868">
        <ele>36.8</ele>
        <time>2023-08-23T09:15:15Z</time>
      </trkpt>
      <trkpt lat="49.80507" lon="2.43868">
        <ele>36.8</ele>
        <time>2023-08-23T09:15:16Z</time>
      </trkpt>
      <trkpt lat="49.80507" lon="2.43868">
        <ele>36.8</ele>
        <time>2023-08-23T09:15:17Z</time>
      </trkpt>
      <trkpt lat="49.80507" lon="2.43868">
        <ele>36.8</ele>
        <time>2023-08-23T09:15:18Z</time>
      </trkpt>
      <trkpt lat="49.80507" lon="2.43868">
        <ele>36.8</ele>
        <time>2023-08-23T09:15:19Z</time>
      </trkpt>
      <trkpt lat="49.80507" lon="2.43868">
        <ele>36.8</ele>
        <time>2023-08-23T09:15:20Z</time>
      </trkpt>
      <trkpt lat="49.80507" lon="2.43868">
        <ele>36.8</ele>
        <time>2023-08-23T09:15:21Z</time>
      </trkpt>
      <trkpt lat="49.80507" lon="2.43868">
        <ele>36.8</ele>
        <time>2023-08-23T09:15:22Z</time>
      </trkpt>
      <trkpt lat="49.80507" lon="2.43868">
        <ele>36.8</ele>
        <time>2023-08-23T09:15:23Z</time>
      </trkpt>
      <trkpt lat="49.80507" lon="2.43868">
        <ele>36.8</ele>
        <time>2023-08-23T09:15:24Z</time>
      </trkpt>
      <trkpt lat="49.80507" lon="2.43868">
        <ele>36.8</ele>
        <time>2023-08-23T09:15:25Z</time>
      </trkpt>
      <trkpt lat="49.80507" lon="2.43868">
        <ele>36.8</ele>
        <time>2023-08-23T09:15:26Z</time>
      </trkpt>
      <trkpt lat="49.80506" lon="2.4387">
        <ele>36.8</ele>
        <time>2023-08-23T09:15:27Z</time>
      </trkpt>
      <trkpt lat="49.80506" lon="2.4387">
        <ele>36.8</ele>
        <time>2023-08-23T09:15:28Z</time>
      </trkpt>
      <trkpt lat="49.80505" lon="2.43871">
        <ele>36.8</ele>
        <time>2023-08-23T09:15:29Z</time>
      </trkpt>
      <trkpt lat="49.80505" lon="2.4387">
        <ele>36.8</ele>
        <time>2023-08-23T09:15:30Z</time>
      </trkpt>
      <trkpt lat="49.80505" lon="2.4387">
        <ele>36.8</ele>
        <time>2023-08-23T09:15:31Z</time>
      </trkpt>
      <trkpt lat="49.80505" lon="2.4387">
        <ele>36.8</ele>
        <time>2023-08-23T09:15:32Z</time>
      </trkpt>
      <trkpt lat="49.80505" lon="2.4387">
        <ele>36.8</ele>
        <time>2023-08-23T09:15:33Z</time>
      </trkpt>
      <trkpt lat="49.80505" lon="2.4387">
        <ele>36.8</ele>
        <time>2023-08-23T09:15:34Z</time>
      </trkpt>
      <trkpt lat="49.80505" lon="2.4387">
        <ele>36.8</ele>
        <time>2023-08-23T09:15:35Z</time>
      </trkpt>
      <trkpt lat="49.80505" lon="2.4387">
        <ele>36.8</ele>
        <time>2023-08-23T09:15:36Z</time>
      </trkpt>
      <trkpt lat="49.80505" lon="2.4387">
        <ele>36.8</ele>
        <time>2023-08-23T09:15:37Z</time>
      </trkpt>
      <trkpt lat="49.80505" lon="2.4387">
        <ele>36.8</ele>
        <time>2023-08-23T09:15:38Z</time>
      </trkpt>
      <trkpt lat="49.80505" lon="2.4387">
        <ele>36.8</ele>
        <time>2023-08-23T09:15:39Z</time>
      </trkpt>
      <trkpt lat="49.80505" lon="2.4387">
        <ele>36.8</ele>
        <time>2023-08-23T09:15:40Z</time>
      </trkpt>
      <trkpt lat="49.80505" lon="2.4387">
        <ele>36.8</ele>
        <time>2023-08-23T09:15:41Z</time>
      </trkpt>
      <trkpt lat="49.80505" lon="2.4387">
        <ele>36.8</ele>
        <time>2023-08-23T09:15:42Z</time>
      </trkpt>
      <trkpt lat="49.80505" lon="2.4387">
        <ele>36.8</ele>
        <time>2023-08-23T09:15:43Z</time>
      </trkpt>
      <trkpt lat="49.80505" lon="2.4387">
        <ele>36.8</ele>
        <time>2023-08-23T09:15:44Z</time>
      </trkpt>
      <trkpt lat="49.80505" lon="2.4387">
        <ele>36.8</ele>
        <time>2023-08-23T09:15:45Z</time>
      </trkpt>
      <trkpt lat="49.80505" lon="2.4387">
        <ele>36.8</ele>
        <time>2023-08-23T09:15:46Z</time>
      </trkpt>
      <trkpt lat="49.80505" lon="2.4387">
        <ele>36.8</ele>
        <time>2023-08-23T09:15:47Z</time>
      </trkpt>
      <trkpt lat="49.80505" lon="2.4387">
        <ele>36.8</ele>
        <time>2023-08-23T09:15:48Z</time>
      </trkpt>
      <trkpt lat="49.80505" lon="2.4387">
        <ele>36.8</ele>
        <time>2023-08-23T09:15:49Z</time>
      </trkpt>
      <trkpt lat="49.80505" lon="2.4387">
        <ele>36.8</ele>
        <time>2023-08-23T09:15:50Z</time>
      </trkpt>
      <trkpt lat="49.80505" lon="2.4387">
        <ele>36.8</ele>
        <time>2023-08-23T09:15:51Z</time>
      </trkpt>
      <trkpt lat="49.80505" lon="2.4387">
        <ele>36.8</ele>
        <time>2023-08-23T09:15:52Z</time>
      </trkpt>
      <trkpt lat="49.80505" lon="2.4387">
        <ele>36.8</ele>
        <time>2023-08-23T09:15:53Z</time>
      </trkpt>
      <trkpt lat="49.80505" lon="2.4387">
        <ele>36.8</ele>
        <time>2023-08-23T09:15:54Z</time>
      </trkpt>
      <trkpt lat="49.80505" lon="2.4387">
        <ele>36.8</ele>
        <time>2023-08-23T09:15:55Z</time>
      </trkpt>
      <trkpt lat="49.80505" lon="2.4387">
        <ele>36.8</ele>
        <time>2023-08-23T09:15:56Z</time>
      </trkpt>
      <trkpt lat="49.80505" lon="2.4387">
        <ele>36.8</ele>
        <time>2023-08-23T09:15:57Z</time>
      </trkpt>
      <trkpt lat="49.80505" lon="2.4387">
        <ele>36.8</ele>
        <time>2023-08-23T09:15:58Z</time>
      </trkpt>
      <trkpt lat="49.80505" lon="2.4387">
        <ele>36.8</ele>
        <time>2023-08-23T09:15:59Z</time>
      </trkpt>
      <trkpt lat="49.80505" lon="2.4387">
        <ele>36.8</ele>
        <time>2023-08-23T09:16:00Z</time>
      </trkpt>
      <trkpt lat="49.80505" lon="2.4387">
        <ele>36.8</ele>
        <time>2023-08-23T09:16:01Z</time>
      </trkpt>
      <trkpt lat="49.80505" lon="2.4387">
        <ele>36.8</ele>
        <time>2023-08-23T09:16:02Z</time>
      </trkpt>
      <trkpt lat="49.80505" lon="2.4387">
        <ele>36.8</ele>
        <time>2023-08-23T09:16:03Z</time>
      </trkpt>
      <trkpt lat="49.80505" lon="2.4387">
        <ele>36.8</ele>
        <time>2023-08-23T09:16:04Z</time>
      </trkpt>
      <trkpt lat="49.80505" lon="2.4387">
        <ele>36.8</ele>
        <time>2023-08-23T09:16:05Z</time>
      </trkpt>
      <trkpt lat="49.80505" lon="2.4387">
        <ele>36.8</ele>
        <time>2023-08-23T09:16:06Z</time>
      </trkpt>
      <trkpt lat="49.80505" lon="2.4387">
        <ele>36.8</ele>
        <time>2023-08-23T09:16:07Z</time>
      </trkpt>
      <trkpt lat="49.80505" lon="2.4387">
        <ele>36.8</ele>
        <time>2023-08-23T09:16:08Z</time>
      </trkpt>
      <trkpt lat="49.80505" lon="2.4387">
        <ele>36.8</ele>
        <time>2023-08-23T09:16:09Z</time>
      </trkpt>
      <trkpt lat="49.80505" lon="2.4387">
        <ele>36.8</ele>
        <time>2023-08-23T09:16:10Z</time>
      </trkpt>
      <trkpt lat="49.80505" lon="2.4387">
        <ele>36.8</ele>
        <time>2023-08-23T09:16:11Z</time>
      </trkpt>
      <trkpt lat="49.80505" lon="2.4387">
        <ele>36.8</ele>
        <time>2023-08-23T09:16:12Z</time>
      </trkpt>
      <trkpt lat="49.80505" lon="2.4387">
        <ele>36.8</ele>
        <time>2023-08-23T09:16:13Z</time>
      </trkpt>
      <trkpt lat="49.80505" lon="2.4387">
        <ele>36.8</ele>
        <time>2023-08-23T09:16:14Z</time>
      </trkpt>
      <trkpt lat="49.80505" lon="2.4387">
        <ele>36.8</ele>
        <time>2023-08-23T09:16:15Z</time>
      </trkpt>
      <trkpt lat="49.80505" lon="2.4387">
        <ele>36.8</ele>
        <time>2023-08-23T09:16:16Z</time>
      </trkpt>
      <trkpt lat="49.80505" lon="2.4387">
        <ele>36.8</ele>
        <time>2023-08-23T09:16:17Z</time>
      </trkpt>
      <trkpt lat="49.80505" lon="2.4387">
        <ele>36.8</ele>
        <time>2023-08-23T09:16:18Z</time>
      </trkpt>
      <trkpt lat="49.80505" lon="2.4387">
        <ele>36.8</ele>
        <time>2023-08-23T09:16:19Z</time>
      </trkpt>
      <trkpt lat="49.80505" lon="2.4387">
        <ele>36.8</ele>
        <time>2023-08-23T09:16:20Z</time>
      </trkpt>
      <trkpt lat="49.80505" lon="2.4387">
        <ele>36.8</ele>
        <time>2023-08-23T09:16:21Z</time>
      </trkpt>
      <trkpt lat="49.80506" lon="2.4387">
        <ele>36.8</ele>
        <time>2023-08-23T09:16:22Z</time>
      </trkpt>
      <trkpt lat="49.80505" lon="2.4387">
        <ele>36.8</ele>
        <time>2023-08-23T09:16:23Z</time>
      </trkpt>
      <trkpt lat="49.80505" lon="2.4387">
        <ele>36.8</ele>
        <time>2023-08-23T09:16:24Z</time>
      </trkpt>
      <trkpt lat="49.80505" lon="2.4387">
        <ele>36.8</ele>
        <time>2023-08-23T09:16:25Z</time>
      </trkpt>
      <trkpt lat="49.80505" lon="2.4387">
        <ele>36.8</ele>
        <time>2023-08-23T09:16:26Z</time>
      </trkpt>
      <trkpt lat="49.80505" lon="2.4387">
        <ele>36.8</ele>
        <time>2023-08-23T09:16:27Z</time>
      </trkpt>
      <trkpt lat="49.80505" lon="2.4387">
        <ele>36.8</ele>
        <time>2023-08-23T09:16:28Z</time>
      </trkpt>
      <trkpt lat="49.80505" lon="2.4387">
        <ele>36.8</ele>
        <time>2023-08-23T09:16:29Z</time>
      </trkpt>
      <trkpt lat="49.80505" lon="2.4387">
        <ele>36.8</ele>
        <time>2023-08-23T09:16:30Z</time>
      </trkpt>
      <trkpt lat="49.80505" lon="2.4387">
        <ele>36.8</ele>
        <time>2023-08-23T09:16:31Z</time>
      </trkpt>
      <trkpt lat="49.80505" lon="2.4387">
        <ele>36.8</ele>
        <time>2023-08-23T09:16:32Z</time>
      </trkpt>
      <trkpt lat="49.80505" lon="2.4387">
        <ele>36.8</ele>
        <time>2023-08-23T09:16:33Z</time>
      </trkpt>
      <trkpt lat="49.80505" lon="2.4387">
        <ele>36.8</ele>
        <time>2023-08-23T09:16:34Z</time>
      </trkpt>
      <trkpt lat="49.80505" lon="2.4387">
        <ele>36.8</ele>
        <time>2023-08-23T09:16:35Z</time>
      </trkpt>
      <trkpt lat="49.80505" lon="2.4387">
        <ele>36.8</ele>
        <time>2023-08-23T09:16:36Z</time>
      </trkpt>
      <trkpt lat="49.80505" lon="2.4387">
        <ele>36.8</ele>
        <time>2023-08-23T09:16:37Z</time>
      </trkpt>
      <trkpt lat="49.80505" lon="2.4387">
        <ele>36.8</ele>
        <time>2023-08-23T09:16:38Z</time>
      </trkpt>
      <trkpt lat="49.80505" lon="2.4387">
        <ele>36.8</ele>
        <time>2023-08-23T09:16:39Z</time>
      </trkpt>
      <trkpt lat="49.80505" lon="2.4387">
        <ele>36.8</ele>
        <time>2023-08-23T09:16:40Z</time>
      </trkpt>
      <trkpt lat="49.80505" lon="2.4387">
        <ele>36.8</ele>
        <time>2023-08-23T09:16:41Z</time>
      </trkpt>
      <trkpt lat="49.80505" lon="2.4387">
        <ele>36.8</ele>
        <time>2023-08-23T09:16:42Z</time>
      </trkpt>
      <trkpt lat="49.80505" lon="2.4387">
        <ele>36.8</ele>
        <time>2023-08-23T09:16:43Z</time>
      </trkpt>
      <trkpt lat="49.80505" lon="2.4387">
        <ele>36.8</ele>
        <time>2023-08-23T09:16:44Z</time>
      </trkpt>
      <trkpt lat="49.80505" lon="2.4387">
        <ele>36.8</ele>
        <time>2023-08-23T09:16:45Z</time>
      </trkpt>
      <trkpt lat="49.80505" lon="2.4387">
        <ele>36.8</ele>
        <time>2023-08-23T09:16:46Z</time>
      </trkpt>
      <trkpt lat="49.80505" lon="2.4387">
        <ele>36.8</ele>
        <time>2023-08-23T09:16:47Z</time>
      </trkpt>
      <trkpt lat="49.80505" lon="2.4387">
        <ele>36.8</ele>
        <time>2023-08-23T09:16:48Z</time>
      </trkpt>
      <trkpt lat="49.80505" lon="2.4387">
        <ele>36.8</ele>
        <time>2023-08-23T09:16:49Z</time>
      </trkpt>
      <trkpt lat="49.80505" lon="2.4387">
        <ele>36.8</ele>
        <time>2023-08-23T09:16:50Z</time>
      </trkpt>
      <trkpt lat="49.80505" lon="2.4387">
        <ele>36.8</ele>
        <time>2023-08-23T09:16:51Z</time>
      </trkpt>
      <trkpt lat="49.80505" lon="2.4387">
        <ele>36.8</ele>
        <time>2023-08-23T09:16:52Z</time>
      </trkpt>
      <trkpt lat="49.80505" lon="2.4387">
        <ele>36.8</ele>
        <time>2023-08-23T09:16:53Z</time>
      </trkpt>
      <trkpt lat="49.80505" lon="2.4387">
        <ele>36.8</ele>
        <time>2023-08-23T09:16:54Z</time>
      </trkpt>
      <trkpt lat="49.80505" lon="2.4387">
        <ele>36.8</ele>
        <time>2023-08-23T09:16:55Z</time>
      </trkpt>
      <trkpt lat="49.80505" lon="2.4387">
        <ele>36.8</ele>
        <time>2023-08-23T09:16:56Z</time>
      </trkpt>
      <trkpt lat="49.80505" lon="2.4387">
        <ele>36.8</ele>
        <time>2023-08-23T09:16:57Z</time>
      </trkpt>
      <trkpt lat="49.80505" lon="2.4387">
        <ele>36.8</ele>
        <time>2023-08-23T09:16:58Z</time>
      </trkpt>
      <trkpt lat="49.80505" lon="2.4387">
        <ele>36.8</ele>
        <time>2023-08-23T09:16:59Z</time>
      </trkpt>
      <trkpt lat="49.80505" lon="2.4387">
        <ele>36.8</ele>
        <time>2023-08-23T09:17:00Z</time>
      </trkpt>
      <trkpt lat="49.80506" lon="2.43871">
        <ele>36.8</ele>
        <time>2023-08-23T09:17:01Z</time>
      </trkpt>
      <trkpt lat="49.80507" lon="2.43872">
        <ele>36.8</ele>
        <time>2023-08-23T09:17:02Z</time>
      </trkpt>
      <trkpt lat="49.80507" lon="2.43873">
        <ele>36.8</ele>
        <time>2023-08-23T09:17:03Z</time>
      </trkpt>
      <trkpt lat="49.80508" lon="2.43874">
        <ele>36.8</ele>
        <time>2023-08-23T09:17:04Z</time>
      </trkpt>
      <trkpt lat="49.80508" lon="2.43875">
        <ele>36.8</ele>
        <time>2023-08-23T09:17:05Z</time>
      </trkpt>
      <trkpt lat="49.80509" lon="2.43876">
        <ele>36.8</ele>
        <time>2023-08-23T09:17:06Z</time>
      </trkpt>
      <trkpt lat="49.8051" lon="2.43877">
        <ele>36.8</ele>
        <time>2023-08-23T09:17:07Z</time>
      </trkpt>
      <trkpt lat="49.8051" lon="2.43877">
        <ele>36.8</ele>
        <time>2023-08-23T09:17:08Z</time>
      </trkpt>
      <trkpt lat="49.8051" lon="2.43879">
        <ele>36.8</ele>
        <time>2023-08-23T09:17:09Z</time>
      </trkpt>
      <trkpt lat="49.80511" lon="2.43879">
        <ele>36.8</ele>
        <time>2023-08-23T09:17:10Z</time>
      </trkpt>
      <trkpt lat="49.80511" lon="2.4388">
        <ele>36.8</ele>
        <time>2023-08-23T09:17:12Z</time>
      </trkpt>
      <trkpt lat="49.80511" lon="2.43881">
        <ele>36.8</ele>
        <time>2023-08-23T09:17:13Z</time>
      </trkpt>
      <trkpt lat="49.80512" lon="2.43883">
        <ele>36.8</ele>
        <time>2023-08-23T09:17:14Z</time>
      </trkpt>
      <trkpt lat="49.80512" lon="2.43885">
        <ele>36.8</ele>
        <time>2023-08-23T09:17:16Z</time>
      </trkpt>
      <trkpt lat="49.80511" lon="2.43885">
        <ele>36.8</ele>
        <time>2023-08-23T09:17:17Z</time>
      </trkpt>
      <trkpt lat="49.8051" lon="2.43886">
        <ele>36.8</ele>
        <time>2023-08-23T09:17:18Z</time>
      </trkpt>
      <trkpt lat="49.80511" lon="2.43887">
        <ele>36.8</ele>
        <time>2023-08-23T09:17:20Z</time>
      </trkpt>
      <trkpt lat="49.80512" lon="2.43887">
        <ele>36.8</ele>
        <time>2023-08-23T09:17:21Z</time>
      </trkpt>
      <trkpt lat="49.80512" lon="2.43887">
        <ele>36.8</ele>
        <time>2023-08-23T09:17:23Z</time>
      </trkpt>
      <trkpt lat="49.80513" lon="2.43889">
        <ele>36.8</ele>
        <time>2023-08-23T09:17:25Z</time>
      </trkpt>
      <trkpt lat="49.80514" lon="2.4389">
        <ele>36.8</ele>
        <time>2023-08-23T09:17:26Z</time>
      </trkpt>
      <trkpt lat="49.80514" lon="2.43891">
        <ele>36.8</ele>
        <time>2023-08-23T09:17:27Z</time>
      </trkpt>
      <trkpt lat="49.80514" lon="2.43892">
        <ele>36.8</ele>
        <time>2023-08-23T09:17:29Z</time>
      </trkpt>
      <trkpt lat="49.80515" lon="2.43893">
        <ele>36.8</ele>
        <time>2023-08-23T09:17:30Z</time>
      </trkpt>
    </trkseg>
  </trk>
</gpx>